<?xml version="1.0" encoding="UTF-8" standalone="no" ?>
<gpx xmlns="http://www.topografix.com/GPX/1/1" xmlns:xsi="http://www.w3.org/2001/XMLSchema-instance" xsi:schemaLocation="http://www.topografix.com/GPX/1/1 http://www.topografix.com/GPX/1/1/gpx.xsd" version="1.1" creator="VisuGPX - https://www.visugpx.com">
  <metadata>
    <name>Géo Bike partie 3</name>
  </metadata>
  <trk>
    <name><![CDATA[Géo Bike partie 3_1]]></name>
    <trkseg>
      <trkpt lat="44.19059" lon="3.20849">
        <ele>409.8</ele>
        <time>2022-06-16T05:46:19Z</time>
      </trkpt>
      <trkpt lat="44.19056" lon="3.2087">
        <ele>402.8</ele>
        <time>2022-06-16T05:46:23Z</time>
      </trkpt>
      <trkpt lat="44.19055" lon="3.2088">
        <ele>402.8</ele>
        <time>2022-06-16T05:46:25Z</time>
      </trkpt>
      <trkpt lat="44.19053" lon="3.20912">
        <ele>402.8</ele>
        <time>2022-06-16T05:46:31Z</time>
      </trkpt>
      <trkpt lat="44.19052" lon="3.20926">
        <ele>402.8</ele>
        <time>2022-06-16T05:46:34Z</time>
      </trkpt>
      <trkpt lat="44.1905" lon="3.2095">
        <ele>402.8</ele>
        <time>2022-06-16T05:46:39Z</time>
      </trkpt>
      <trkpt lat="44.19049" lon="3.20954">
        <ele>402.8</ele>
        <time>2022-06-16T05:46:40Z</time>
      </trkpt>
      <trkpt lat="44.19044" lon="3.20954">
        <ele>402.8</ele>
        <time>2022-06-16T05:46:42Z</time>
      </trkpt>
      <trkpt lat="44.19025" lon="3.20952">
        <ele>402.6</ele>
        <time>2022-06-16T05:46:47Z</time>
      </trkpt>
      <trkpt lat="44.19022" lon="3.20952">
        <ele>402.6</ele>
        <time>2022-06-16T05:46:48Z</time>
      </trkpt>
      <trkpt lat="44.19001" lon="3.20951">
        <ele>402.8</ele>
        <time>2022-06-16T05:46:55Z</time>
      </trkpt>
      <trkpt lat="44.18995" lon="3.20961">
        <ele>402.8</ele>
        <time>2022-06-16T05:46:58Z</time>
      </trkpt>
      <trkpt lat="44.18994" lon="3.20966">
        <ele>402.8</ele>
        <time>2022-06-16T05:46:59Z</time>
      </trkpt>
      <trkpt lat="44.18984" lon="3.21008">
        <ele>403</ele>
        <time>2022-06-16T05:47:09Z</time>
      </trkpt>
      <trkpt lat="44.18981" lon="3.21024">
        <ele>403.2</ele>
        <time>2022-06-16T05:47:14Z</time>
      </trkpt>
      <trkpt lat="44.1898" lon="3.21029">
        <ele>403.8</ele>
        <time>2022-06-16T05:47:16Z</time>
      </trkpt>
      <trkpt lat="44.18978" lon="3.21037">
        <ele>404</ele>
        <time>2022-06-16T05:47:19Z</time>
      </trkpt>
      <trkpt lat="44.18967" lon="3.21049">
        <ele>404.8</ele>
        <time>2022-06-16T05:47:25Z</time>
      </trkpt>
      <trkpt lat="44.18964" lon="3.21053">
        <ele>405</ele>
        <time>2022-06-16T05:47:27Z</time>
      </trkpt>
      <trkpt lat="44.18949" lon="3.21058">
        <ele>406</ele>
        <time>2022-06-16T05:47:34Z</time>
      </trkpt>
      <trkpt lat="44.18946" lon="3.21058">
        <ele>406</ele>
        <time>2022-06-16T05:47:35Z</time>
      </trkpt>
      <trkpt lat="44.18935" lon="3.21054">
        <ele>407</ele>
        <time>2022-06-16T05:47:41Z</time>
      </trkpt>
      <trkpt lat="44.18931" lon="3.21053">
        <ele>407.4</ele>
        <time>2022-06-16T05:47:43Z</time>
      </trkpt>
      <trkpt lat="44.18919" lon="3.21049">
        <ele>408.2</ele>
        <time>2022-06-16T05:47:48Z</time>
      </trkpt>
      <trkpt lat="44.18913" lon="3.21046">
        <ele>408.8</ele>
        <time>2022-06-16T05:47:51Z</time>
      </trkpt>
      <trkpt lat="44.18902" lon="3.21042">
        <ele>409.2</ele>
        <time>2022-06-16T05:47:56Z</time>
      </trkpt>
      <trkpt lat="44.18891" lon="3.21034">
        <ele>410</ele>
        <time>2022-06-16T05:48:01Z</time>
      </trkpt>
      <trkpt lat="44.18886" lon="3.21025">
        <ele>410.4</ele>
        <time>2022-06-16T05:48:05Z</time>
      </trkpt>
      <trkpt lat="44.18878" lon="3.21012">
        <ele>411</ele>
        <time>2022-06-16T05:48:10Z</time>
      </trkpt>
      <trkpt lat="44.18873" lon="3.21004">
        <ele>411.4</ele>
        <time>2022-06-16T05:48:13Z</time>
      </trkpt>
      <trkpt lat="44.18867" lon="3.20993">
        <ele>412</ele>
        <time>2022-06-16T05:48:18Z</time>
      </trkpt>
      <trkpt lat="44.18863" lon="3.20984">
        <ele>412.4</ele>
        <time>2022-06-16T05:48:22Z</time>
      </trkpt>
      <trkpt lat="44.18852" lon="3.20974">
        <ele>413</ele>
        <time>2022-06-16T05:48:27Z</time>
      </trkpt>
      <trkpt lat="44.1885" lon="3.20973">
        <ele>413.2</ele>
        <time>2022-06-16T05:48:28Z</time>
      </trkpt>
      <trkpt lat="44.1884" lon="3.20963">
        <ele>413.8</ele>
        <time>2022-06-16T05:48:34Z</time>
      </trkpt>
      <trkpt lat="44.18836" lon="3.20956">
        <ele>414.4</ele>
        <time>2022-06-16T05:48:37Z</time>
      </trkpt>
      <trkpt lat="44.18832" lon="3.20945">
        <ele>415</ele>
        <time>2022-06-16T05:48:41Z</time>
      </trkpt>
      <trkpt lat="44.1883" lon="3.20936">
        <ele>415.4</ele>
        <time>2022-06-16T05:48:44Z</time>
      </trkpt>
      <trkpt lat="44.18829" lon="3.20927">
        <ele>415.8</ele>
        <time>2022-06-16T05:48:47Z</time>
      </trkpt>
      <trkpt lat="44.18829" lon="3.20924">
        <ele>416</ele>
        <time>2022-06-16T05:48:48Z</time>
      </trkpt>
      <trkpt lat="44.18828" lon="3.20915">
        <ele>416.4</ele>
        <time>2022-06-16T05:48:51Z</time>
      </trkpt>
      <trkpt lat="44.18827" lon="3.20908">
        <ele>416.6</ele>
        <time>2022-06-16T05:48:53Z</time>
      </trkpt>
      <trkpt lat="44.18824" lon="3.20889">
        <ele>417.6</ele>
        <time>2022-06-16T05:48:59Z</time>
      </trkpt>
      <trkpt lat="44.18823" lon="3.20883">
        <ele>417.8</ele>
        <time>2022-06-16T05:49:01Z</time>
      </trkpt>
      <trkpt lat="44.18818" lon="3.20866">
        <ele>418.6</ele>
        <time>2022-06-16T05:49:07Z</time>
      </trkpt>
      <trkpt lat="44.18817" lon="3.2086">
        <ele>419</ele>
        <time>2022-06-16T05:49:09Z</time>
      </trkpt>
      <trkpt lat="44.18812" lon="3.20842">
        <ele>419.6</ele>
        <time>2022-06-16T05:49:15Z</time>
      </trkpt>
      <trkpt lat="44.18812" lon="3.20839">
        <ele>419.6</ele>
        <time>2022-06-16T05:49:16Z</time>
      </trkpt>
      <trkpt lat="44.18805" lon="3.20817">
        <ele>420.8</ele>
        <time>2022-06-16T05:49:24Z</time>
      </trkpt>
      <trkpt lat="44.18804" lon="3.20811">
        <ele>421</ele>
        <time>2022-06-16T05:49:26Z</time>
      </trkpt>
      <trkpt lat="44.188" lon="3.20797">
        <ele>421.8</ele>
        <time>2022-06-16T05:49:31Z</time>
      </trkpt>
      <trkpt lat="44.188" lon="3.20792">
        <ele>422</ele>
        <time>2022-06-16T05:49:33Z</time>
      </trkpt>
      <trkpt lat="44.18803" lon="3.20778">
        <ele>423</ele>
        <time>2022-06-16T05:49:38Z</time>
      </trkpt>
      <trkpt lat="44.18803" lon="3.20773">
        <ele>423.2</ele>
        <time>2022-06-16T05:49:40Z</time>
      </trkpt>
      <trkpt lat="44.18809" lon="3.20763">
        <ele>423.6</ele>
        <time>2022-06-16T05:49:45Z</time>
      </trkpt>
      <trkpt lat="44.18811" lon="3.20761">
        <ele>423.8</ele>
        <time>2022-06-16T05:49:46Z</time>
      </trkpt>
      <trkpt lat="44.1882" lon="3.20751">
        <ele>425</ele>
        <time>2022-06-16T05:49:53Z</time>
      </trkpt>
      <trkpt lat="44.18821" lon="3.2075">
        <ele>425</ele>
        <time>2022-06-16T05:49:54Z</time>
      </trkpt>
      <trkpt lat="44.18831" lon="3.20741">
        <ele>426</ele>
        <time>2022-06-16T05:50:00Z</time>
      </trkpt>
      <trkpt lat="44.18833" lon="3.2074">
        <ele>426</ele>
        <time>2022-06-16T05:50:01Z</time>
      </trkpt>
      <trkpt lat="44.1884" lon="3.20732">
        <ele>427</ele>
        <time>2022-06-16T05:50:06Z</time>
      </trkpt>
      <trkpt lat="44.18845" lon="3.20724">
        <ele>428</ele>
        <time>2022-06-16T05:50:11Z</time>
      </trkpt>
      <trkpt lat="44.18846" lon="3.20722">
        <ele>428</ele>
        <time>2022-06-16T05:50:12Z</time>
      </trkpt>
      <trkpt lat="44.18852" lon="3.20709">
        <ele>428.8</ele>
        <time>2022-06-16T05:50:17Z</time>
      </trkpt>
      <trkpt lat="44.18853" lon="3.20705">
        <ele>429.2</ele>
        <time>2022-06-16T05:50:19Z</time>
      </trkpt>
      <trkpt lat="44.18854" lon="3.20693">
        <ele>429.8</ele>
        <time>2022-06-16T05:50:23Z</time>
      </trkpt>
      <trkpt lat="44.18855" lon="3.20681">
        <ele>430.2</ele>
        <time>2022-06-16T05:50:28Z</time>
      </trkpt>
      <trkpt lat="44.18857" lon="3.20669">
        <ele>430.8</ele>
        <time>2022-06-16T05:50:32Z</time>
      </trkpt>
      <trkpt lat="44.18857" lon="3.2066">
        <ele>431.4</ele>
        <time>2022-06-16T05:50:36Z</time>
      </trkpt>
      <trkpt lat="44.18856" lon="3.20655">
        <ele>431.6</ele>
        <time>2022-06-16T05:50:38Z</time>
      </trkpt>
      <trkpt lat="44.18856" lon="3.20653">
        <ele>431.8</ele>
        <time>2022-06-16T05:50:39Z</time>
      </trkpt>
      <trkpt lat="44.18853" lon="3.20649">
        <ele>432.2</ele>
        <time>2022-06-16T05:50:42Z</time>
      </trkpt>
      <trkpt lat="44.18852" lon="3.20649">
        <ele>432.4</ele>
        <time>2022-06-16T05:50:44Z</time>
      </trkpt>
      <trkpt lat="44.18853" lon="3.20651">
        <ele>432.6</ele>
        <time>2022-06-16T05:50:45Z</time>
      </trkpt>
      <trkpt lat="44.18854" lon="3.20652">
        <ele>432.6</ele>
        <time>2022-06-16T05:50:46Z</time>
      </trkpt>
      <trkpt lat="44.18855" lon="3.20654">
        <ele>432.8</ele>
        <time>2022-06-16T05:50:50Z</time>
      </trkpt>
      <trkpt lat="44.18855" lon="3.20653">
        <ele>432.6</ele>
        <time>2022-06-16T05:50:55Z</time>
      </trkpt>
      <trkpt lat="44.18854" lon="3.20651">
        <ele>432.6</ele>
        <time>2022-06-16T05:50:56Z</time>
      </trkpt>
      <trkpt lat="44.18852" lon="3.20643">
        <ele>432.6</ele>
        <time>2022-06-16T05:50:59Z</time>
      </trkpt>
      <trkpt lat="44.18851" lon="3.20633">
        <ele>432.8</ele>
        <time>2022-06-16T05:51:02Z</time>
      </trkpt>
      <trkpt lat="44.18848" lon="3.20617">
        <ele>433.6</ele>
        <time>2022-06-16T05:51:08Z</time>
      </trkpt>
      <trkpt lat="44.18846" lon="3.20612">
        <ele>434</ele>
        <time>2022-06-16T05:51:10Z</time>
      </trkpt>
      <trkpt lat="44.1884" lon="3.206">
        <ele>434.8</ele>
        <time>2022-06-16T05:51:15Z</time>
      </trkpt>
      <trkpt lat="44.18839" lon="3.20598">
        <ele>435</ele>
        <time>2022-06-16T05:51:16Z</time>
      </trkpt>
      <trkpt lat="44.18829" lon="3.20581">
        <ele>436.2</ele>
        <time>2022-06-16T05:51:24Z</time>
      </trkpt>
      <trkpt lat="44.18819" lon="3.20569">
        <ele>437.2</ele>
        <time>2022-06-16T05:51:31Z</time>
      </trkpt>
      <trkpt lat="44.18811" lon="3.20553">
        <ele>438.2</ele>
        <time>2022-06-16T05:51:38Z</time>
      </trkpt>
      <trkpt lat="44.18804" lon="3.20543">
        <ele>439</ele>
        <time>2022-06-16T05:51:43Z</time>
      </trkpt>
      <trkpt lat="44.18801" lon="3.2054">
        <ele>439.2</ele>
        <time>2022-06-16T05:51:45Z</time>
      </trkpt>
      <trkpt lat="44.1879" lon="3.20531">
        <ele>440.2</ele>
        <time>2022-06-16T05:51:52Z</time>
      </trkpt>
      <trkpt lat="44.18788" lon="3.20529">
        <ele>440.4</ele>
        <time>2022-06-16T05:51:53Z</time>
      </trkpt>
      <trkpt lat="44.18776" lon="3.20522">
        <ele>441.4</ele>
        <time>2022-06-16T05:52:00Z</time>
      </trkpt>
      <trkpt lat="44.18762" lon="3.20517">
        <ele>442.4</ele>
        <time>2022-06-16T05:52:08Z</time>
      </trkpt>
      <trkpt lat="44.1876" lon="3.20517">
        <ele>442.6</ele>
        <time>2022-06-16T05:52:09Z</time>
      </trkpt>
      <trkpt lat="44.18746" lon="3.20512">
        <ele>443.4</ele>
        <time>2022-06-16T05:52:16Z</time>
      </trkpt>
      <trkpt lat="44.18742" lon="3.20511">
        <ele>443.8</ele>
        <time>2022-06-16T05:52:18Z</time>
      </trkpt>
      <trkpt lat="44.18726" lon="3.20506">
        <ele>444.6</ele>
        <time>2022-06-16T05:52:26Z</time>
      </trkpt>
      <trkpt lat="44.18722" lon="3.20505">
        <ele>445</ele>
        <time>2022-06-16T05:52:28Z</time>
      </trkpt>
      <trkpt lat="44.18711" lon="3.20501">
        <ele>446</ele>
        <time>2022-06-16T05:52:34Z</time>
      </trkpt>
      <trkpt lat="44.18708" lon="3.205">
        <ele>446.2</ele>
        <time>2022-06-16T05:52:36Z</time>
      </trkpt>
      <trkpt lat="44.187" lon="3.20498">
        <ele>446.8</ele>
        <time>2022-06-16T05:52:40Z</time>
      </trkpt>
      <trkpt lat="44.18697" lon="3.20495">
        <ele>447.2</ele>
        <time>2022-06-16T05:52:42Z</time>
      </trkpt>
      <trkpt lat="44.18688" lon="3.20489">
        <ele>448.2</ele>
        <time>2022-06-16T05:52:47Z</time>
      </trkpt>
      <trkpt lat="44.18686" lon="3.20488">
        <ele>448.2</ele>
        <time>2022-06-16T05:52:48Z</time>
      </trkpt>
      <trkpt lat="44.18676" lon="3.20479">
        <ele>449</ele>
        <time>2022-06-16T05:52:55Z</time>
      </trkpt>
      <trkpt lat="44.18672" lon="3.20476">
        <ele>449.2</ele>
        <time>2022-06-16T05:52:57Z</time>
      </trkpt>
      <trkpt lat="44.18663" lon="3.2046">
        <ele>450</ele>
        <time>2022-06-16T05:53:04Z</time>
      </trkpt>
      <trkpt lat="44.18661" lon="3.20458">
        <ele>450.2</ele>
        <time>2022-06-16T05:53:05Z</time>
      </trkpt>
      <trkpt lat="44.18655" lon="3.20447">
        <ele>451.2</ele>
        <time>2022-06-16T05:53:11Z</time>
      </trkpt>
      <trkpt lat="44.18654" lon="3.20445">
        <ele>451.4</ele>
        <time>2022-06-16T05:53:12Z</time>
      </trkpt>
      <trkpt lat="44.18646" lon="3.2043">
        <ele>452.4</ele>
        <time>2022-06-16T05:53:20Z</time>
      </trkpt>
      <trkpt lat="44.18645" lon="3.20428">
        <ele>452.6</ele>
        <time>2022-06-16T05:53:21Z</time>
      </trkpt>
      <trkpt lat="44.18641" lon="3.20419">
        <ele>453.8</ele>
        <time>2022-06-16T05:53:26Z</time>
      </trkpt>
      <trkpt lat="44.1864" lon="3.20417">
        <ele>453.8</ele>
        <time>2022-06-16T05:53:27Z</time>
      </trkpt>
      <trkpt lat="44.18629" lon="3.204">
        <ele>454.2</ele>
        <time>2022-06-16T05:53:37Z</time>
      </trkpt>
      <trkpt lat="44.18628" lon="3.20398">
        <ele>454.6</ele>
        <time>2022-06-16T05:53:38Z</time>
      </trkpt>
      <trkpt lat="44.18626" lon="3.20396">
        <ele>454.6</ele>
        <time>2022-06-16T05:53:39Z</time>
      </trkpt>
      <trkpt lat="44.18621" lon="3.2039">
        <ele>455.8</ele>
        <time>2022-06-16T05:53:43Z</time>
      </trkpt>
      <trkpt lat="44.1862" lon="3.20388">
        <ele>455.8</ele>
        <time>2022-06-16T05:53:44Z</time>
      </trkpt>
      <trkpt lat="44.18611" lon="3.20377">
        <ele>456.4</ele>
        <time>2022-06-16T05:53:51Z</time>
      </trkpt>
      <trkpt lat="44.18608" lon="3.20373">
        <ele>456.8</ele>
        <time>2022-06-16T05:53:53Z</time>
      </trkpt>
      <trkpt lat="44.18602" lon="3.20365">
        <ele>457.4</ele>
        <time>2022-06-16T05:53:58Z</time>
      </trkpt>
      <trkpt lat="44.18596" lon="3.2036">
        <ele>457.8</ele>
        <time>2022-06-16T05:54:02Z</time>
      </trkpt>
      <trkpt lat="44.18591" lon="3.20354">
        <ele>459</ele>
        <time>2022-06-16T05:54:06Z</time>
      </trkpt>
      <trkpt lat="44.18588" lon="3.20352">
        <ele>459.2</ele>
        <time>2022-06-16T05:54:08Z</time>
      </trkpt>
      <trkpt lat="44.18574" lon="3.20352">
        <ele>459.8</ele>
        <time>2022-06-16T05:54:15Z</time>
      </trkpt>
      <trkpt lat="44.18571" lon="3.20355">
        <ele>460</ele>
        <time>2022-06-16T05:54:17Z</time>
      </trkpt>
      <trkpt lat="44.18568" lon="3.20362">
        <ele>460.4</ele>
        <time>2022-06-16T05:54:20Z</time>
      </trkpt>
      <trkpt lat="44.18568" lon="3.20372">
        <ele>461</ele>
        <time>2022-06-16T05:54:24Z</time>
      </trkpt>
      <trkpt lat="44.1857" lon="3.20377">
        <ele>461.4</ele>
        <time>2022-06-16T05:54:26Z</time>
      </trkpt>
      <trkpt lat="44.18573" lon="3.20387">
        <ele>462</ele>
        <time>2022-06-16T05:54:30Z</time>
      </trkpt>
      <trkpt lat="44.18577" lon="3.20393">
        <ele>462.4</ele>
        <time>2022-06-16T05:54:33Z</time>
      </trkpt>
      <trkpt lat="44.18583" lon="3.20407">
        <ele>463.2</ele>
        <time>2022-06-16T05:54:39Z</time>
      </trkpt>
      <trkpt lat="44.18586" lon="3.20418">
        <ele>463.6</ele>
        <time>2022-06-16T05:54:43Z</time>
      </trkpt>
      <trkpt lat="44.18587" lon="3.20431">
        <ele>464.4</ele>
        <time>2022-06-16T05:54:48Z</time>
      </trkpt>
      <trkpt lat="44.18588" lon="3.20439">
        <ele>465</ele>
        <time>2022-06-16T05:54:51Z</time>
      </trkpt>
      <trkpt lat="44.18589" lon="3.2045">
        <ele>465.6</ele>
        <time>2022-06-16T05:54:55Z</time>
      </trkpt>
      <trkpt lat="44.18593" lon="3.20463">
        <ele>466.6</ele>
        <time>2022-06-16T05:55:00Z</time>
      </trkpt>
      <trkpt lat="44.18599" lon="3.20479">
        <ele>467.6</ele>
        <time>2022-06-16T05:55:07Z</time>
      </trkpt>
      <trkpt lat="44.186" lon="3.20481">
        <ele>467.6</ele>
        <time>2022-06-16T05:55:08Z</time>
      </trkpt>
      <trkpt lat="44.18605" lon="3.20497">
        <ele>468.6</ele>
        <time>2022-06-16T05:55:15Z</time>
      </trkpt>
      <trkpt lat="44.18607" lon="3.20503">
        <ele>469</ele>
        <time>2022-06-16T05:55:18Z</time>
      </trkpt>
      <trkpt lat="44.18609" lon="3.20507">
        <ele>469.2</ele>
        <time>2022-06-16T05:55:20Z</time>
      </trkpt>
      <trkpt lat="44.18612" lon="3.20518">
        <ele>469.8</ele>
        <time>2022-06-16T05:55:25Z</time>
      </trkpt>
      <trkpt lat="44.18613" lon="3.2052">
        <ele>470</ele>
        <time>2022-06-16T05:55:26Z</time>
      </trkpt>
      <trkpt lat="44.18618" lon="3.20528">
        <ele>470.6</ele>
        <time>2022-06-16T05:55:31Z</time>
      </trkpt>
      <trkpt lat="44.18623" lon="3.20534">
        <ele>471</ele>
        <time>2022-06-16T05:55:34Z</time>
      </trkpt>
      <trkpt lat="44.18628" lon="3.2054">
        <ele>471.8</ele>
        <time>2022-06-16T05:55:38Z</time>
      </trkpt>
      <trkpt lat="44.18634" lon="3.20544">
        <ele>472.2</ele>
        <time>2022-06-16T05:55:41Z</time>
      </trkpt>
      <trkpt lat="44.18642" lon="3.20553">
        <ele>472.8</ele>
        <time>2022-06-16T05:55:47Z</time>
      </trkpt>
      <trkpt lat="44.18654" lon="3.20562">
        <ele>473.8</ele>
        <time>2022-06-16T05:55:54Z</time>
      </trkpt>
      <trkpt lat="44.18659" lon="3.20567">
        <ele>474.4</ele>
        <time>2022-06-16T05:55:57Z</time>
      </trkpt>
      <trkpt lat="44.18663" lon="3.20569">
        <ele>474.8</ele>
        <time>2022-06-16T05:55:59Z</time>
      </trkpt>
      <trkpt lat="44.18673" lon="3.2058">
        <ele>475.8</ele>
        <time>2022-06-16T05:56:06Z</time>
      </trkpt>
      <trkpt lat="44.18674" lon="3.20583">
        <ele>476</ele>
        <time>2022-06-16T05:56:07Z</time>
      </trkpt>
      <trkpt lat="44.18681" lon="3.20596">
        <ele>477</ele>
        <time>2022-06-16T05:56:14Z</time>
      </trkpt>
      <trkpt lat="44.18683" lon="3.20601">
        <ele>477.2</ele>
        <time>2022-06-16T05:56:16Z</time>
      </trkpt>
      <trkpt lat="44.18687" lon="3.20618">
        <ele>478</ele>
        <time>2022-06-16T05:56:23Z</time>
      </trkpt>
      <trkpt lat="44.18687" lon="3.2062">
        <ele>478</ele>
        <time>2022-06-16T05:56:24Z</time>
      </trkpt>
      <trkpt lat="44.18686" lon="3.20634">
        <ele>478.8</ele>
        <time>2022-06-16T05:56:30Z</time>
      </trkpt>
      <trkpt lat="44.18684" lon="3.20638">
        <ele>479.4</ele>
        <time>2022-06-16T05:56:32Z</time>
      </trkpt>
      <trkpt lat="44.1868" lon="3.20648">
        <ele>480.2</ele>
        <time>2022-06-16T05:56:37Z</time>
      </trkpt>
      <trkpt lat="44.18677" lon="3.20654">
        <ele>480.6</ele>
        <time>2022-06-16T05:56:40Z</time>
      </trkpt>
      <trkpt lat="44.18672" lon="3.20666">
        <ele>481.2</ele>
        <time>2022-06-16T05:56:45Z</time>
      </trkpt>
      <trkpt lat="44.18669" lon="3.20673">
        <ele>481.8</ele>
        <time>2022-06-16T05:56:48Z</time>
      </trkpt>
      <trkpt lat="44.18663" lon="3.20684">
        <ele>482.4</ele>
        <time>2022-06-16T05:56:53Z</time>
      </trkpt>
      <trkpt lat="44.1866" lon="3.20691">
        <ele>482.8</ele>
        <time>2022-06-16T05:56:56Z</time>
      </trkpt>
      <trkpt lat="44.18654" lon="3.20701">
        <ele>483.8</ele>
        <time>2022-06-16T05:57:01Z</time>
      </trkpt>
      <trkpt lat="44.18652" lon="3.20707">
        <ele>484</ele>
        <time>2022-06-16T05:57:04Z</time>
      </trkpt>
      <trkpt lat="44.18645" lon="3.20719">
        <ele>484.8</ele>
        <time>2022-06-16T05:57:10Z</time>
      </trkpt>
      <trkpt lat="44.18643" lon="3.20723">
        <ele>485.2</ele>
        <time>2022-06-16T05:57:12Z</time>
      </trkpt>
      <trkpt lat="44.18642" lon="3.20732">
        <ele>485.6</ele>
        <time>2022-06-16T05:57:16Z</time>
      </trkpt>
      <trkpt lat="44.1864" lon="3.20744">
        <ele>486.4</ele>
        <time>2022-06-16T05:57:20Z</time>
      </trkpt>
      <trkpt lat="44.18638" lon="3.20752">
        <ele>486.8</ele>
        <time>2022-06-16T05:57:23Z</time>
      </trkpt>
      <trkpt lat="44.18637" lon="3.20766">
        <ele>487.4</ele>
        <time>2022-06-16T05:57:28Z</time>
      </trkpt>
      <trkpt lat="44.18636" lon="3.20772">
        <ele>487.6</ele>
        <time>2022-06-16T05:57:30Z</time>
      </trkpt>
      <trkpt lat="44.18636" lon="3.20789">
        <ele>488.6</ele>
        <time>2022-06-16T05:57:37Z</time>
      </trkpt>
      <trkpt lat="44.18635" lon="3.20793">
        <ele>488.6</ele>
        <time>2022-06-16T05:57:39Z</time>
      </trkpt>
      <trkpt lat="44.18633" lon="3.20808">
        <ele>489.4</ele>
        <time>2022-06-16T05:57:45Z</time>
      </trkpt>
      <trkpt lat="44.18633" lon="3.20811">
        <ele>489.6</ele>
        <time>2022-06-16T05:57:46Z</time>
      </trkpt>
      <trkpt lat="44.1863" lon="3.20829">
        <ele>490.2</ele>
        <time>2022-06-16T05:57:53Z</time>
      </trkpt>
      <trkpt lat="44.18629" lon="3.20831">
        <ele>490.4</ele>
        <time>2022-06-16T05:57:54Z</time>
      </trkpt>
      <trkpt lat="44.18624" lon="3.2085">
        <ele>491.4</ele>
        <time>2022-06-16T05:58:02Z</time>
      </trkpt>
      <trkpt lat="44.18623" lon="3.20853">
        <ele>491.6</ele>
        <time>2022-06-16T05:58:03Z</time>
      </trkpt>
      <trkpt lat="44.1862" lon="3.20867">
        <ele>492.6</ele>
        <time>2022-06-16T05:58:09Z</time>
      </trkpt>
      <trkpt lat="44.18619" lon="3.20869">
        <ele>492.6</ele>
        <time>2022-06-16T05:58:10Z</time>
      </trkpt>
      <trkpt lat="44.18609" lon="3.20882">
        <ele>493.6</ele>
        <time>2022-06-16T05:58:17Z</time>
      </trkpt>
      <trkpt lat="44.18608" lon="3.20884">
        <ele>493.8</ele>
        <time>2022-06-16T05:58:18Z</time>
      </trkpt>
      <trkpt lat="44.18601" lon="3.20898">
        <ele>494.8</ele>
        <time>2022-06-16T05:58:25Z</time>
      </trkpt>
      <trkpt lat="44.18601" lon="3.20901">
        <ele>494.8</ele>
        <time>2022-06-16T05:58:26Z</time>
      </trkpt>
      <trkpt lat="44.18596" lon="3.20915">
        <ele>495.8</ele>
        <time>2022-06-16T05:58:32Z</time>
      </trkpt>
      <trkpt lat="44.18596" lon="3.20917">
        <ele>495.8</ele>
        <time>2022-06-16T05:58:33Z</time>
      </trkpt>
      <trkpt lat="44.18596" lon="3.20919">
        <ele>496</ele>
        <time>2022-06-16T05:58:34Z</time>
      </trkpt>
      <trkpt lat="44.18597" lon="3.2092">
        <ele>496.2</ele>
        <time>2022-06-16T05:58:36Z</time>
      </trkpt>
      <trkpt lat="44.18597" lon="3.2092">
        <ele>496.8</ele>
        <time>2022-06-16T05:58:44Z</time>
      </trkpt>
      <trkpt lat="44.18597" lon="3.20921">
        <ele>496.6</ele>
        <time>2022-06-16T05:59:11Z</time>
      </trkpt>
      <trkpt lat="44.18597" lon="3.20921">
        <ele>496.6</ele>
        <time>2022-06-16T05:59:20Z</time>
      </trkpt>
      <trkpt lat="44.18595" lon="3.20927">
        <ele>496.6</ele>
        <time>2022-06-16T05:59:23Z</time>
      </trkpt>
      <trkpt lat="44.18593" lon="3.20934">
        <ele>496.8</ele>
        <time>2022-06-16T05:59:26Z</time>
      </trkpt>
      <trkpt lat="44.1859" lon="3.20947">
        <ele>497.4</ele>
        <time>2022-06-16T05:59:31Z</time>
      </trkpt>
      <trkpt lat="44.18588" lon="3.20954">
        <ele>498</ele>
        <time>2022-06-16T05:59:34Z</time>
      </trkpt>
      <trkpt lat="44.18585" lon="3.20961">
        <ele>498.8</ele>
        <time>2022-06-16T05:59:37Z</time>
      </trkpt>
      <trkpt lat="44.18583" lon="3.20967">
        <ele>499.2</ele>
        <time>2022-06-16T05:59:40Z</time>
      </trkpt>
      <trkpt lat="44.18578" lon="3.20982">
        <ele>500</ele>
        <time>2022-06-16T05:59:46Z</time>
      </trkpt>
      <trkpt lat="44.18577" lon="3.20984">
        <ele>500.4</ele>
        <time>2022-06-16T05:59:47Z</time>
      </trkpt>
      <trkpt lat="44.18567" lon="3.20999">
        <ele>501.4</ele>
        <time>2022-06-16T05:59:54Z</time>
      </trkpt>
      <trkpt lat="44.18563" lon="3.21004">
        <ele>501.8</ele>
        <time>2022-06-16T05:59:57Z</time>
      </trkpt>
      <trkpt lat="44.18557" lon="3.21012">
        <ele>502.6</ele>
        <time>2022-06-16T06:00:01Z</time>
      </trkpt>
      <trkpt lat="44.18549" lon="3.21022">
        <ele>503.4</ele>
        <time>2022-06-16T06:00:07Z</time>
      </trkpt>
      <trkpt lat="44.18546" lon="3.21024">
        <ele>503.6</ele>
        <time>2022-06-16T06:00:09Z</time>
      </trkpt>
      <trkpt lat="44.18535" lon="3.21034">
        <ele>504.6</ele>
        <time>2022-06-16T06:00:17Z</time>
      </trkpt>
      <trkpt lat="44.18533" lon="3.21035">
        <ele>504.6</ele>
        <time>2022-06-16T06:00:18Z</time>
      </trkpt>
      <trkpt lat="44.18525" lon="3.21048">
        <ele>505.6</ele>
        <time>2022-06-16T06:00:24Z</time>
      </trkpt>
      <trkpt lat="44.18523" lon="3.2105">
        <ele>505.6</ele>
        <time>2022-06-16T06:00:25Z</time>
      </trkpt>
      <trkpt lat="44.18516" lon="3.21058">
        <ele>506.2</ele>
        <time>2022-06-16T06:00:29Z</time>
      </trkpt>
      <trkpt lat="44.18513" lon="3.2106">
        <ele>506.4</ele>
        <time>2022-06-16T06:00:31Z</time>
      </trkpt>
      <trkpt lat="44.18509" lon="3.21062">
        <ele>506.6</ele>
        <time>2022-06-16T06:00:33Z</time>
      </trkpt>
      <trkpt lat="44.18498" lon="3.21067">
        <ele>507.8</ele>
        <time>2022-06-16T06:00:39Z</time>
      </trkpt>
      <trkpt lat="44.18487" lon="3.21073">
        <ele>508.4</ele>
        <time>2022-06-16T06:00:45Z</time>
      </trkpt>
      <trkpt lat="44.18485" lon="3.21074">
        <ele>508.4</ele>
        <time>2022-06-16T06:00:46Z</time>
      </trkpt>
      <trkpt lat="44.1848" lon="3.21078">
        <ele>508.8</ele>
        <time>2022-06-16T06:00:48Z</time>
      </trkpt>
      <trkpt lat="44.18472" lon="3.2108">
        <ele>509.2</ele>
        <time>2022-06-16T06:00:52Z</time>
      </trkpt>
      <trkpt lat="44.1846" lon="3.21076">
        <ele>510</ele>
        <time>2022-06-16T06:00:59Z</time>
      </trkpt>
      <trkpt lat="44.18457" lon="3.21076">
        <ele>510</ele>
        <time>2022-06-16T06:01:00Z</time>
      </trkpt>
      <trkpt lat="44.18451" lon="3.21078">
        <ele>510.4</ele>
        <time>2022-06-16T06:01:03Z</time>
      </trkpt>
      <trkpt lat="44.18449" lon="3.21077">
        <ele>510.6</ele>
        <time>2022-06-16T06:01:04Z</time>
      </trkpt>
      <trkpt lat="44.18444" lon="3.21076">
        <ele>511</ele>
        <time>2022-06-16T06:01:07Z</time>
      </trkpt>
      <trkpt lat="44.18439" lon="3.21076">
        <ele>511.4</ele>
        <time>2022-06-16T06:01:10Z</time>
      </trkpt>
      <trkpt lat="44.18437" lon="3.21076">
        <ele>511.6</ele>
        <time>2022-06-16T06:01:11Z</time>
      </trkpt>
      <trkpt lat="44.18428" lon="3.21076">
        <ele>512</ele>
        <time>2022-06-16T06:01:15Z</time>
      </trkpt>
      <trkpt lat="44.18427" lon="3.21077">
        <ele>512.2</ele>
        <time>2022-06-16T06:01:16Z</time>
      </trkpt>
      <trkpt lat="44.18423" lon="3.21079">
        <ele>512.2</ele>
        <time>2022-06-16T06:01:18Z</time>
      </trkpt>
      <trkpt lat="44.1842" lon="3.21081">
        <ele>512.4</ele>
        <time>2022-06-16T06:01:19Z</time>
      </trkpt>
      <trkpt lat="44.18416" lon="3.21082">
        <ele>512.8</ele>
        <time>2022-06-16T06:01:20Z</time>
      </trkpt>
      <trkpt lat="44.18413" lon="3.21085">
        <ele>513</ele>
        <time>2022-06-16T06:01:21Z</time>
      </trkpt>
      <trkpt lat="44.18407" lon="3.21087">
        <ele>513.6</ele>
        <time>2022-06-16T06:01:24Z</time>
      </trkpt>
      <trkpt lat="44.18405" lon="3.21088">
        <ele>513.8</ele>
        <time>2022-06-16T06:01:25Z</time>
      </trkpt>
      <trkpt lat="44.18401" lon="3.21089">
        <ele>514</ele>
        <time>2022-06-16T06:01:27Z</time>
      </trkpt>
      <trkpt lat="44.18396" lon="3.21089">
        <ele>514.2</ele>
        <time>2022-06-16T06:01:29Z</time>
      </trkpt>
      <trkpt lat="44.18392" lon="3.21089">
        <ele>514.4</ele>
        <time>2022-06-16T06:01:32Z</time>
      </trkpt>
      <trkpt lat="44.18387" lon="3.21092">
        <ele>515</ele>
        <time>2022-06-16T06:01:35Z</time>
      </trkpt>
      <trkpt lat="44.18374" lon="3.21111">
        <ele>515.4</ele>
        <time>2022-06-16T06:01:43Z</time>
      </trkpt>
      <trkpt lat="44.1837" lon="3.21116">
        <ele>515.8</ele>
        <time>2022-06-16T06:01:46Z</time>
      </trkpt>
      <trkpt lat="44.18363" lon="3.21126">
        <ele>516.6</ele>
        <time>2022-06-16T06:01:50Z</time>
      </trkpt>
      <trkpt lat="44.18359" lon="3.21135">
        <ele>517</ele>
        <time>2022-06-16T06:01:53Z</time>
      </trkpt>
      <trkpt lat="44.18356" lon="3.21146">
        <ele>517.2</ele>
        <time>2022-06-16T06:01:57Z</time>
      </trkpt>
      <trkpt lat="44.18353" lon="3.21154">
        <ele>517.4</ele>
        <time>2022-06-16T06:02:02Z</time>
      </trkpt>
      <trkpt lat="44.18351" lon="3.21153">
        <ele>517.6</ele>
        <time>2022-06-16T06:02:07Z</time>
      </trkpt>
      <trkpt lat="44.1835" lon="3.21153">
        <ele>517.8</ele>
        <time>2022-06-16T06:02:08Z</time>
      </trkpt>
      <trkpt lat="44.18348" lon="3.21153">
        <ele>517.8</ele>
        <time>2022-06-16T06:02:09Z</time>
      </trkpt>
      <trkpt lat="44.18346" lon="3.2115">
        <ele>517.8</ele>
        <time>2022-06-16T06:02:11Z</time>
      </trkpt>
      <trkpt lat="44.18344" lon="3.21146">
        <ele>518</ele>
        <time>2022-06-16T06:02:13Z</time>
      </trkpt>
      <trkpt lat="44.18344" lon="3.21143">
        <ele>518</ele>
        <time>2022-06-16T06:02:14Z</time>
      </trkpt>
      <trkpt lat="44.18345" lon="3.21132">
        <ele>518.2</ele>
        <time>2022-06-16T06:02:17Z</time>
      </trkpt>
      <trkpt lat="44.1835" lon="3.21125">
        <ele>518.6</ele>
        <time>2022-06-16T06:02:21Z</time>
      </trkpt>
      <trkpt lat="44.18354" lon="3.21122">
        <ele>518.8</ele>
        <time>2022-06-16T06:02:23Z</time>
      </trkpt>
      <trkpt lat="44.18363" lon="3.21112">
        <ele>519.8</ele>
        <time>2022-06-16T06:02:28Z</time>
      </trkpt>
      <trkpt lat="44.1837" lon="3.21104">
        <ele>520.2</ele>
        <time>2022-06-16T06:02:32Z</time>
      </trkpt>
      <trkpt lat="44.18375" lon="3.21096">
        <ele>520.8</ele>
        <time>2022-06-16T06:02:35Z</time>
      </trkpt>
      <trkpt lat="44.1838" lon="3.21086">
        <ele>521</ele>
        <time>2022-06-16T06:02:38Z</time>
      </trkpt>
      <trkpt lat="44.18381" lon="3.21083">
        <ele>521.2</ele>
        <time>2022-06-16T06:02:39Z</time>
      </trkpt>
      <trkpt lat="44.18388" lon="3.2108">
        <ele>521.4</ele>
        <time>2022-06-16T06:02:42Z</time>
      </trkpt>
      <trkpt lat="44.18396" lon="3.21077">
        <ele>521.6</ele>
        <time>2022-06-16T06:02:45Z</time>
      </trkpt>
      <trkpt lat="44.18403" lon="3.21075">
        <ele>522.2</ele>
        <time>2022-06-16T06:02:48Z</time>
      </trkpt>
      <trkpt lat="44.1841" lon="3.21074">
        <ele>522.6</ele>
        <time>2022-06-16T06:02:51Z</time>
      </trkpt>
      <trkpt lat="44.18416" lon="3.21073">
        <ele>523</ele>
        <time>2022-06-16T06:02:54Z</time>
      </trkpt>
      <trkpt lat="44.1842" lon="3.21072">
        <ele>523.2</ele>
        <time>2022-06-16T06:02:56Z</time>
      </trkpt>
      <trkpt lat="44.18424" lon="3.21071">
        <ele>523.4</ele>
        <time>2022-06-16T06:02:58Z</time>
      </trkpt>
      <trkpt lat="44.18426" lon="3.21071">
        <ele>523.8</ele>
        <time>2022-06-16T06:02:59Z</time>
      </trkpt>
      <trkpt lat="44.18442" lon="3.21062">
        <ele>524.6</ele>
        <time>2022-06-16T06:03:06Z</time>
      </trkpt>
      <trkpt lat="44.18458" lon="3.21056">
        <ele>525.6</ele>
        <time>2022-06-16T06:03:13Z</time>
      </trkpt>
      <trkpt lat="44.1846" lon="3.21055">
        <ele>525.8</ele>
        <time>2022-06-16T06:03:14Z</time>
      </trkpt>
      <trkpt lat="44.18473" lon="3.21046">
        <ele>526.6</ele>
        <time>2022-06-16T06:03:20Z</time>
      </trkpt>
      <trkpt lat="44.18477" lon="3.21042">
        <ele>526.8</ele>
        <time>2022-06-16T06:03:22Z</time>
      </trkpt>
      <trkpt lat="44.18485" lon="3.21031">
        <ele>527.4</ele>
        <time>2022-06-16T06:03:27Z</time>
      </trkpt>
      <trkpt lat="44.18488" lon="3.21025">
        <ele>527.8</ele>
        <time>2022-06-16T06:03:30Z</time>
      </trkpt>
      <trkpt lat="44.18492" lon="3.21015">
        <ele>528.6</ele>
        <time>2022-06-16T06:03:34Z</time>
      </trkpt>
      <trkpt lat="44.18493" lon="3.21012">
        <ele>528.6</ele>
        <time>2022-06-16T06:03:35Z</time>
      </trkpt>
      <trkpt lat="44.18496" lon="3.21007">
        <ele>529</ele>
        <time>2022-06-16T06:03:37Z</time>
      </trkpt>
      <trkpt lat="44.18497" lon="3.21005">
        <ele>529.2</ele>
        <time>2022-06-16T06:03:38Z</time>
      </trkpt>
      <trkpt lat="44.18507" lon="3.20986">
        <ele>530</ele>
        <time>2022-06-16T06:03:45Z</time>
      </trkpt>
      <trkpt lat="44.18509" lon="3.20983">
        <ele>530.2</ele>
        <time>2022-06-16T06:03:46Z</time>
      </trkpt>
      <trkpt lat="44.18513" lon="3.20973">
        <ele>530.8</ele>
        <time>2022-06-16T06:03:51Z</time>
      </trkpt>
      <trkpt lat="44.18514" lon="3.20971">
        <ele>531</ele>
        <time>2022-06-16T06:03:52Z</time>
      </trkpt>
      <trkpt lat="44.18515" lon="3.20968">
        <ele>531.2</ele>
        <time>2022-06-16T06:03:53Z</time>
      </trkpt>
      <trkpt lat="44.18521" lon="3.20953">
        <ele>532.2</ele>
        <time>2022-06-16T06:03:59Z</time>
      </trkpt>
      <trkpt lat="44.18522" lon="3.20951">
        <ele>532.4</ele>
        <time>2022-06-16T06:04:00Z</time>
      </trkpt>
      <trkpt lat="44.18524" lon="3.20937">
        <ele>533.4</ele>
        <time>2022-06-16T06:04:05Z</time>
      </trkpt>
      <trkpt lat="44.18527" lon="3.20925">
        <ele>533.8</ele>
        <time>2022-06-16T06:04:09Z</time>
      </trkpt>
      <trkpt lat="44.1853" lon="3.20912">
        <ele>534.4</ele>
        <time>2022-06-16T06:04:14Z</time>
      </trkpt>
      <trkpt lat="44.18532" lon="3.20904">
        <ele>534.8</ele>
        <time>2022-06-16T06:04:17Z</time>
      </trkpt>
      <trkpt lat="44.18535" lon="3.20893">
        <ele>535.6</ele>
        <time>2022-06-16T06:04:21Z</time>
      </trkpt>
      <trkpt lat="44.18536" lon="3.20888">
        <ele>535.8</ele>
        <time>2022-06-16T06:04:23Z</time>
      </trkpt>
      <trkpt lat="44.18541" lon="3.2087">
        <ele>536.6</ele>
        <time>2022-06-16T06:04:29Z</time>
      </trkpt>
      <trkpt lat="44.18544" lon="3.2085">
        <ele>537.6</ele>
        <time>2022-06-16T06:04:35Z</time>
      </trkpt>
      <trkpt lat="44.18544" lon="3.20847">
        <ele>537.6</ele>
        <time>2022-06-16T06:04:36Z</time>
      </trkpt>
      <trkpt lat="44.1855" lon="3.20831">
        <ele>538.6</ele>
        <time>2022-06-16T06:04:42Z</time>
      </trkpt>
      <trkpt lat="44.18551" lon="3.20826">
        <ele>539</ele>
        <time>2022-06-16T06:04:44Z</time>
      </trkpt>
      <trkpt lat="44.18553" lon="3.20807">
        <ele>539.6</ele>
        <time>2022-06-16T06:04:51Z</time>
      </trkpt>
      <trkpt lat="44.18552" lon="3.20803">
        <ele>540</ele>
        <time>2022-06-16T06:04:53Z</time>
      </trkpt>
      <trkpt lat="44.18551" lon="3.20789">
        <ele>541</ele>
        <time>2022-06-16T06:04:59Z</time>
      </trkpt>
      <trkpt lat="44.18551" lon="3.20784">
        <ele>541.2</ele>
        <time>2022-06-16T06:05:01Z</time>
      </trkpt>
      <trkpt lat="44.18549" lon="3.2077">
        <ele>542</ele>
        <time>2022-06-16T06:05:07Z</time>
      </trkpt>
      <trkpt lat="44.18548" lon="3.20765">
        <ele>542.2</ele>
        <time>2022-06-16T06:05:09Z</time>
      </trkpt>
      <trkpt lat="44.18548" lon="3.2075">
        <ele>543</ele>
        <time>2022-06-16T06:05:15Z</time>
      </trkpt>
      <trkpt lat="44.18548" lon="3.20748">
        <ele>543.2</ele>
        <time>2022-06-16T06:05:16Z</time>
      </trkpt>
      <trkpt lat="44.18548" lon="3.20742">
        <ele>543.6</ele>
        <time>2022-06-16T06:05:19Z</time>
      </trkpt>
      <trkpt lat="44.18548" lon="3.2074">
        <ele>543.8</ele>
        <time>2022-06-16T06:05:20Z</time>
      </trkpt>
      <trkpt lat="44.18549" lon="3.20734">
        <ele>544.2</ele>
        <time>2022-06-16T06:05:22Z</time>
      </trkpt>
      <trkpt lat="44.1855" lon="3.20717">
        <ele>544.8</ele>
        <time>2022-06-16T06:05:28Z</time>
      </trkpt>
      <trkpt lat="44.18551" lon="3.20711">
        <ele>545</ele>
        <time>2022-06-16T06:05:30Z</time>
      </trkpt>
      <trkpt lat="44.18556" lon="3.20692">
        <ele>545.6</ele>
        <time>2022-06-16T06:05:36Z</time>
      </trkpt>
      <trkpt lat="44.18555" lon="3.20683">
        <ele>546.4</ele>
        <time>2022-06-16T06:05:39Z</time>
      </trkpt>
      <trkpt lat="44.18553" lon="3.20668">
        <ele>547.4</ele>
        <time>2022-06-16T06:05:44Z</time>
      </trkpt>
      <trkpt lat="44.18551" lon="3.20662">
        <ele>547.8</ele>
        <time>2022-06-16T06:05:46Z</time>
      </trkpt>
      <trkpt lat="44.18543" lon="3.20652">
        <ele>548.4</ele>
        <time>2022-06-16T06:05:51Z</time>
      </trkpt>
      <trkpt lat="44.1854" lon="3.2065">
        <ele>548.8</ele>
        <time>2022-06-16T06:05:53Z</time>
      </trkpt>
      <trkpt lat="44.1853" lon="3.20643">
        <ele>549.6</ele>
        <time>2022-06-16T06:05:59Z</time>
      </trkpt>
      <trkpt lat="44.18525" lon="3.20639">
        <ele>550</ele>
        <time>2022-06-16T06:06:02Z</time>
      </trkpt>
      <trkpt lat="44.18517" lon="3.20634">
        <ele>550.6</ele>
        <time>2022-06-16T06:06:07Z</time>
      </trkpt>
      <trkpt lat="44.18509" lon="3.20629">
        <ele>551.2</ele>
        <time>2022-06-16T06:06:12Z</time>
      </trkpt>
      <trkpt lat="44.18504" lon="3.20626">
        <ele>551.4</ele>
        <time>2022-06-16T06:06:15Z</time>
      </trkpt>
      <trkpt lat="44.18496" lon="3.20617">
        <ele>552.2</ele>
        <time>2022-06-16T06:06:20Z</time>
      </trkpt>
      <trkpt lat="44.18493" lon="3.20613">
        <ele>552.4</ele>
        <time>2022-06-16T06:06:22Z</time>
      </trkpt>
      <trkpt lat="44.18486" lon="3.20602">
        <ele>553.2</ele>
        <time>2022-06-16T06:06:28Z</time>
      </trkpt>
      <trkpt lat="44.18484" lon="3.20599">
        <ele>553.4</ele>
        <time>2022-06-16T06:06:30Z</time>
      </trkpt>
      <trkpt lat="44.18478" lon="3.2059">
        <ele>554.4</ele>
        <time>2022-06-16T06:06:36Z</time>
      </trkpt>
      <trkpt lat="44.18476" lon="3.20588">
        <ele>554.6</ele>
        <time>2022-06-16T06:06:37Z</time>
      </trkpt>
      <trkpt lat="44.18468" lon="3.20578">
        <ele>555.4</ele>
        <time>2022-06-16T06:06:44Z</time>
      </trkpt>
      <trkpt lat="44.1846" lon="3.20569">
        <ele>556.2</ele>
        <time>2022-06-16T06:06:50Z</time>
      </trkpt>
      <trkpt lat="44.18458" lon="3.20565">
        <ele>556.4</ele>
        <time>2022-06-16T06:06:52Z</time>
      </trkpt>
      <trkpt lat="44.1845" lon="3.20549">
        <ele>557.4</ele>
        <time>2022-06-16T06:06:59Z</time>
      </trkpt>
      <trkpt lat="44.18447" lon="3.20544">
        <ele>557.6</ele>
        <time>2022-06-16T06:07:01Z</time>
      </trkpt>
      <trkpt lat="44.18439" lon="3.20534">
        <ele>558.4</ele>
        <time>2022-06-16T06:07:06Z</time>
      </trkpt>
      <trkpt lat="44.18436" lon="3.20531">
        <ele>558.8</ele>
        <time>2022-06-16T06:07:08Z</time>
      </trkpt>
      <trkpt lat="44.18427" lon="3.20517">
        <ele>559.4</ele>
        <time>2022-06-16T06:07:14Z</time>
      </trkpt>
      <trkpt lat="44.18426" lon="3.20515">
        <ele>559.6</ele>
        <time>2022-06-16T06:07:15Z</time>
      </trkpt>
      <trkpt lat="44.18419" lon="3.20506">
        <ele>560.2</ele>
        <time>2022-06-16T06:07:21Z</time>
      </trkpt>
      <trkpt lat="44.18412" lon="3.20502">
        <ele>560.8</ele>
        <time>2022-06-16T06:07:25Z</time>
      </trkpt>
      <trkpt lat="44.18404" lon="3.20496">
        <ele>561.4</ele>
        <time>2022-06-16T06:07:30Z</time>
      </trkpt>
      <trkpt lat="44.18399" lon="3.20494">
        <ele>562</ele>
        <time>2022-06-16T06:07:33Z</time>
      </trkpt>
      <trkpt lat="44.18391" lon="3.20487">
        <ele>562.8</ele>
        <time>2022-06-16T06:07:38Z</time>
      </trkpt>
      <trkpt lat="44.18386" lon="3.20483">
        <ele>563.2</ele>
        <time>2022-06-16T06:07:41Z</time>
      </trkpt>
      <trkpt lat="44.18378" lon="3.20479">
        <ele>563.6</ele>
        <time>2022-06-16T06:07:45Z</time>
      </trkpt>
      <trkpt lat="44.18369" lon="3.20476">
        <ele>564.4</ele>
        <time>2022-06-16T06:07:50Z</time>
      </trkpt>
      <trkpt lat="44.18362" lon="3.20474">
        <ele>564.8</ele>
        <time>2022-06-16T06:07:54Z</time>
      </trkpt>
      <trkpt lat="44.18353" lon="3.20472">
        <ele>565.4</ele>
        <time>2022-06-16T06:07:59Z</time>
      </trkpt>
      <trkpt lat="44.18348" lon="3.2047">
        <ele>566</ele>
        <time>2022-06-16T06:08:02Z</time>
      </trkpt>
      <trkpt lat="44.18345" lon="3.2047">
        <ele>566</ele>
        <time>2022-06-16T06:08:04Z</time>
      </trkpt>
      <trkpt lat="44.18343" lon="3.2047">
        <ele>566.2</ele>
        <time>2022-06-16T06:08:05Z</time>
      </trkpt>
      <trkpt lat="44.18339" lon="3.20469">
        <ele>566.6</ele>
        <time>2022-06-16T06:08:07Z</time>
      </trkpt>
      <trkpt lat="44.18333" lon="3.20469">
        <ele>567</ele>
        <time>2022-06-16T06:08:10Z</time>
      </trkpt>
      <trkpt lat="44.18327" lon="3.20468">
        <ele>567.6</ele>
        <time>2022-06-16T06:08:14Z</time>
      </trkpt>
      <trkpt lat="44.18321" lon="3.20468">
        <ele>568</ele>
        <time>2022-06-16T06:08:17Z</time>
      </trkpt>
      <trkpt lat="44.18318" lon="3.20468">
        <ele>568.2</ele>
        <time>2022-06-16T06:08:19Z</time>
      </trkpt>
      <trkpt lat="44.18311" lon="3.20466">
        <ele>568.8</ele>
        <time>2022-06-16T06:08:23Z</time>
      </trkpt>
      <trkpt lat="44.18298" lon="3.20462">
        <ele>569.8</ele>
        <time>2022-06-16T06:08:31Z</time>
      </trkpt>
      <trkpt lat="44.18292" lon="3.2046">
        <ele>570.2</ele>
        <time>2022-06-16T06:08:34Z</time>
      </trkpt>
      <trkpt lat="44.18288" lon="3.20458">
        <ele>570.8</ele>
        <time>2022-06-16T06:08:37Z</time>
      </trkpt>
      <trkpt lat="44.18284" lon="3.20457">
        <ele>570.8</ele>
        <time>2022-06-16T06:08:39Z</time>
      </trkpt>
      <trkpt lat="44.18272" lon="3.20454">
        <ele>571.8</ele>
        <time>2022-06-16T06:08:46Z</time>
      </trkpt>
      <trkpt lat="44.1827" lon="3.20454">
        <ele>572</ele>
        <time>2022-06-16T06:08:47Z</time>
      </trkpt>
      <trkpt lat="44.18257" lon="3.20451">
        <ele>572.8</ele>
        <time>2022-06-16T06:08:54Z</time>
      </trkpt>
      <trkpt lat="44.18256" lon="3.20451">
        <ele>573</ele>
        <time>2022-06-16T06:08:55Z</time>
      </trkpt>
      <trkpt lat="44.18242" lon="3.20452">
        <ele>574</ele>
        <time>2022-06-16T06:09:03Z</time>
      </trkpt>
      <trkpt lat="44.18238" lon="3.20452">
        <ele>574.2</ele>
        <time>2022-06-16T06:09:05Z</time>
      </trkpt>
      <trkpt lat="44.18224" lon="3.20452">
        <ele>575</ele>
        <time>2022-06-16T06:09:13Z</time>
      </trkpt>
      <trkpt lat="44.18215" lon="3.20455">
        <ele>575.8</ele>
        <time>2022-06-16T06:09:18Z</time>
      </trkpt>
      <trkpt lat="44.18208" lon="3.20453">
        <ele>576.2</ele>
        <time>2022-06-16T06:09:22Z</time>
      </trkpt>
      <trkpt lat="44.18207" lon="3.20452">
        <ele>576.2</ele>
        <time>2022-06-16T06:09:23Z</time>
      </trkpt>
      <trkpt lat="44.18195" lon="3.2045">
        <ele>577.2</ele>
        <time>2022-06-16T06:09:29Z</time>
      </trkpt>
      <trkpt lat="44.1818" lon="3.20447">
        <ele>578.4</ele>
        <time>2022-06-16T06:09:38Z</time>
      </trkpt>
      <trkpt lat="44.18169" lon="3.20444">
        <ele>579.2</ele>
        <time>2022-06-16T06:09:44Z</time>
      </trkpt>
      <trkpt lat="44.18167" lon="3.20444">
        <ele>579.4</ele>
        <time>2022-06-16T06:09:45Z</time>
      </trkpt>
      <trkpt lat="44.18166" lon="3.20443">
        <ele>579.4</ele>
        <time>2022-06-16T06:09:46Z</time>
      </trkpt>
      <trkpt lat="44.18162" lon="3.20443">
        <ele>579.6</ele>
        <time>2022-06-16T06:09:48Z</time>
      </trkpt>
      <trkpt lat="44.18155" lon="3.20441">
        <ele>579.8</ele>
        <time>2022-06-16T06:09:52Z</time>
      </trkpt>
      <trkpt lat="44.18149" lon="3.20438">
        <ele>580.6</ele>
        <time>2022-06-16T06:09:56Z</time>
      </trkpt>
      <trkpt lat="44.18148" lon="3.20437">
        <ele>580.8</ele>
        <time>2022-06-16T06:09:57Z</time>
      </trkpt>
      <trkpt lat="44.1814" lon="3.20431">
        <ele>581.4</ele>
        <time>2022-06-16T06:10:02Z</time>
      </trkpt>
      <trkpt lat="44.18137" lon="3.20429">
        <ele>581.6</ele>
        <time>2022-06-16T06:10:04Z</time>
      </trkpt>
      <trkpt lat="44.18129" lon="3.20417">
        <ele>582.4</ele>
        <time>2022-06-16T06:10:11Z</time>
      </trkpt>
      <trkpt lat="44.18123" lon="3.20411">
        <ele>582.8</ele>
        <time>2022-06-16T06:10:15Z</time>
      </trkpt>
      <trkpt lat="44.18116" lon="3.20399">
        <ele>583.6</ele>
        <time>2022-06-16T06:10:21Z</time>
      </trkpt>
      <trkpt lat="44.18113" lon="3.20395">
        <ele>583.8</ele>
        <time>2022-06-16T06:10:23Z</time>
      </trkpt>
      <trkpt lat="44.18105" lon="3.2038">
        <ele>584.4</ele>
        <time>2022-06-16T06:10:30Z</time>
      </trkpt>
      <trkpt lat="44.18104" lon="3.20378">
        <ele>584.4</ele>
        <time>2022-06-16T06:10:31Z</time>
      </trkpt>
      <trkpt lat="44.18098" lon="3.20367">
        <ele>585.2</ele>
        <time>2022-06-16T06:10:37Z</time>
      </trkpt>
      <trkpt lat="44.18096" lon="3.20363">
        <ele>585.6</ele>
        <time>2022-06-16T06:10:39Z</time>
      </trkpt>
      <trkpt lat="44.18089" lon="3.2036">
        <ele>586.2</ele>
        <time>2022-06-16T06:10:43Z</time>
      </trkpt>
      <trkpt lat="44.18084" lon="3.20363">
        <ele>586.6</ele>
        <time>2022-06-16T06:10:46Z</time>
      </trkpt>
      <trkpt lat="44.18082" lon="3.20368">
        <ele>587</ele>
        <time>2022-06-16T06:10:48Z</time>
      </trkpt>
      <trkpt lat="44.18087" lon="3.2038">
        <ele>587.6</ele>
        <time>2022-06-16T06:10:53Z</time>
      </trkpt>
      <trkpt lat="44.18089" lon="3.20382">
        <ele>587.8</ele>
        <time>2022-06-16T06:10:54Z</time>
      </trkpt>
      <trkpt lat="44.18097" lon="3.20391">
        <ele>588</ele>
        <time>2022-06-16T06:10:58Z</time>
      </trkpt>
      <trkpt lat="44.18104" lon="3.204">
        <ele>588.6</ele>
        <time>2022-06-16T06:11:03Z</time>
      </trkpt>
      <trkpt lat="44.18106" lon="3.20404">
        <ele>588.8</ele>
        <time>2022-06-16T06:11:05Z</time>
      </trkpt>
      <trkpt lat="44.18114" lon="3.20421">
        <ele>589.8</ele>
        <time>2022-06-16T06:11:13Z</time>
      </trkpt>
      <trkpt lat="44.18121" lon="3.20438">
        <ele>590.8</ele>
        <time>2022-06-16T06:11:21Z</time>
      </trkpt>
      <trkpt lat="44.18121" lon="3.2044">
        <ele>591</ele>
        <time>2022-06-16T06:11:22Z</time>
      </trkpt>
      <trkpt lat="44.18122" lon="3.20442">
        <ele>591.2</ele>
        <time>2022-06-16T06:11:23Z</time>
      </trkpt>
      <trkpt lat="44.18129" lon="3.20452">
        <ele>591.8</ele>
        <time>2022-06-16T06:11:28Z</time>
      </trkpt>
      <trkpt lat="44.18132" lon="3.20454">
        <ele>591.8</ele>
        <time>2022-06-16T06:11:30Z</time>
      </trkpt>
      <trkpt lat="44.18137" lon="3.20459">
        <ele>592.2</ele>
        <time>2022-06-16T06:11:33Z</time>
      </trkpt>
      <trkpt lat="44.1814" lon="3.20461">
        <ele>592.4</ele>
        <time>2022-06-16T06:11:35Z</time>
      </trkpt>
      <trkpt lat="44.18143" lon="3.20464">
        <ele>592.8</ele>
        <time>2022-06-16T06:11:37Z</time>
      </trkpt>
      <trkpt lat="44.18144" lon="3.20466">
        <ele>593</ele>
        <time>2022-06-16T06:11:38Z</time>
      </trkpt>
      <trkpt lat="44.18145" lon="3.20467">
        <ele>593</ele>
        <time>2022-06-16T06:11:39Z</time>
      </trkpt>
      <trkpt lat="44.1815" lon="3.20471">
        <ele>593.4</ele>
        <time>2022-06-16T06:11:42Z</time>
      </trkpt>
      <trkpt lat="44.18155" lon="3.20474">
        <ele>593.8</ele>
        <time>2022-06-16T06:11:45Z</time>
      </trkpt>
      <trkpt lat="44.18157" lon="3.20477">
        <ele>594</ele>
        <time>2022-06-16T06:11:46Z</time>
      </trkpt>
      <trkpt lat="44.18159" lon="3.20479">
        <ele>594</ele>
        <time>2022-06-16T06:11:47Z</time>
      </trkpt>
      <trkpt lat="44.18164" lon="3.20483">
        <ele>594</ele>
        <time>2022-06-16T06:11:50Z</time>
      </trkpt>
      <trkpt lat="44.18166" lon="3.20484">
        <ele>594.4</ele>
        <time>2022-06-16T06:11:51Z</time>
      </trkpt>
      <trkpt lat="44.18169" lon="3.20488">
        <ele>594.8</ele>
        <time>2022-06-16T06:11:53Z</time>
      </trkpt>
      <trkpt lat="44.18172" lon="3.20491">
        <ele>595.4</ele>
        <time>2022-06-16T06:11:55Z</time>
      </trkpt>
      <trkpt lat="44.18175" lon="3.20493">
        <ele>595.8</ele>
        <time>2022-06-16T06:11:57Z</time>
      </trkpt>
      <trkpt lat="44.18178" lon="3.20496">
        <ele>596</ele>
        <time>2022-06-16T06:11:59Z</time>
      </trkpt>
      <trkpt lat="44.18181" lon="3.20497">
        <ele>596</ele>
        <time>2022-06-16T06:12:01Z</time>
      </trkpt>
      <trkpt lat="44.18182" lon="3.20498">
        <ele>596.2</ele>
        <time>2022-06-16T06:12:02Z</time>
      </trkpt>
      <trkpt lat="44.18188" lon="3.205">
        <ele>596.6</ele>
        <time>2022-06-16T06:12:05Z</time>
      </trkpt>
      <trkpt lat="44.18191" lon="3.20501">
        <ele>597</ele>
        <time>2022-06-16T06:12:07Z</time>
      </trkpt>
      <trkpt lat="44.18194" lon="3.20505">
        <ele>597.2</ele>
        <time>2022-06-16T06:12:09Z</time>
      </trkpt>
      <trkpt lat="44.18197" lon="3.20507">
        <ele>597.6</ele>
        <time>2022-06-16T06:12:11Z</time>
      </trkpt>
      <trkpt lat="44.18203" lon="3.20511">
        <ele>598.2</ele>
        <time>2022-06-16T06:12:15Z</time>
      </trkpt>
      <trkpt lat="44.18209" lon="3.20512">
        <ele>598.8</ele>
        <time>2022-06-16T06:12:19Z</time>
      </trkpt>
      <trkpt lat="44.18215" lon="3.20515">
        <ele>599.2</ele>
        <time>2022-06-16T06:12:22Z</time>
      </trkpt>
      <trkpt lat="44.18218" lon="3.20515">
        <ele>599.6</ele>
        <time>2022-06-16T06:12:24Z</time>
      </trkpt>
      <trkpt lat="44.18222" lon="3.20511">
        <ele>600</ele>
        <time>2022-06-16T06:12:26Z</time>
      </trkpt>
      <trkpt lat="44.18224" lon="3.20512">
        <ele>600</ele>
        <time>2022-06-16T06:12:27Z</time>
      </trkpt>
      <trkpt lat="44.18226" lon="3.20512">
        <ele>600.2</ele>
        <time>2022-06-16T06:12:28Z</time>
      </trkpt>
      <trkpt lat="44.18228" lon="3.20511">
        <ele>600.4</ele>
        <time>2022-06-16T06:12:29Z</time>
      </trkpt>
      <trkpt lat="44.18234" lon="3.20512">
        <ele>600.8</ele>
        <time>2022-06-16T06:12:32Z</time>
      </trkpt>
      <trkpt lat="44.18238" lon="3.20512">
        <ele>601</ele>
        <time>2022-06-16T06:12:34Z</time>
      </trkpt>
      <trkpt lat="44.18241" lon="3.20511">
        <ele>601.2</ele>
        <time>2022-06-16T06:12:36Z</time>
      </trkpt>
      <trkpt lat="44.18243" lon="3.20512">
        <ele>601.4</ele>
        <time>2022-06-16T06:12:37Z</time>
      </trkpt>
      <trkpt lat="44.18249" lon="3.20511">
        <ele>601.8</ele>
        <time>2022-06-16T06:12:40Z</time>
      </trkpt>
      <trkpt lat="44.18254" lon="3.20512">
        <ele>602</ele>
        <time>2022-06-16T06:12:43Z</time>
      </trkpt>
      <trkpt lat="44.18258" lon="3.20516">
        <ele>602.2</ele>
        <time>2022-06-16T06:12:45Z</time>
      </trkpt>
      <trkpt lat="44.18259" lon="3.20518">
        <ele>602.6</ele>
        <time>2022-06-16T06:12:46Z</time>
      </trkpt>
      <trkpt lat="44.18261" lon="3.2052">
        <ele>602.8</ele>
        <time>2022-06-16T06:12:47Z</time>
      </trkpt>
      <trkpt lat="44.18262" lon="3.20522">
        <ele>603</ele>
        <time>2022-06-16T06:12:48Z</time>
      </trkpt>
      <trkpt lat="44.18266" lon="3.20525">
        <ele>603.6</ele>
        <time>2022-06-16T06:12:51Z</time>
      </trkpt>
      <trkpt lat="44.1827" lon="3.20528">
        <ele>604</ele>
        <time>2022-06-16T06:12:54Z</time>
      </trkpt>
      <trkpt lat="44.18273" lon="3.2053">
        <ele>604.2</ele>
        <time>2022-06-16T06:12:56Z</time>
      </trkpt>
      <trkpt lat="44.18275" lon="3.20532">
        <ele>604.4</ele>
        <time>2022-06-16T06:12:57Z</time>
      </trkpt>
      <trkpt lat="44.18283" lon="3.20533">
        <ele>604.8</ele>
        <time>2022-06-16T06:13:02Z</time>
      </trkpt>
      <trkpt lat="44.18292" lon="3.20539">
        <ele>605.4</ele>
        <time>2022-06-16T06:13:07Z</time>
      </trkpt>
      <trkpt lat="44.18295" lon="3.20541">
        <ele>605.6</ele>
        <time>2022-06-16T06:13:08Z</time>
      </trkpt>
      <trkpt lat="44.18305" lon="3.20544">
        <ele>606.6</ele>
        <time>2022-06-16T06:13:13Z</time>
      </trkpt>
      <trkpt lat="44.18307" lon="3.20545">
        <ele>606.6</ele>
        <time>2022-06-16T06:13:14Z</time>
      </trkpt>
      <trkpt lat="44.18319" lon="3.20549">
        <ele>607.6</ele>
        <time>2022-06-16T06:13:20Z</time>
      </trkpt>
      <trkpt lat="44.18322" lon="3.2055">
        <ele>607.8</ele>
        <time>2022-06-16T06:13:22Z</time>
      </trkpt>
      <trkpt lat="44.18325" lon="3.20552">
        <ele>608.2</ele>
        <time>2022-06-16T06:13:24Z</time>
      </trkpt>
      <trkpt lat="44.18331" lon="3.20559">
        <ele>608.6</ele>
        <time>2022-06-16T06:13:28Z</time>
      </trkpt>
      <trkpt lat="44.18335" lon="3.2056">
        <ele>609</ele>
        <time>2022-06-16T06:13:30Z</time>
      </trkpt>
      <trkpt lat="44.18346" lon="3.20567">
        <ele>609.8</ele>
        <time>2022-06-16T06:13:37Z</time>
      </trkpt>
      <trkpt lat="44.18348" lon="3.20568">
        <ele>609.8</ele>
        <time>2022-06-16T06:13:38Z</time>
      </trkpt>
      <trkpt lat="44.18357" lon="3.20576">
        <ele>610.6</ele>
        <time>2022-06-16T06:13:44Z</time>
      </trkpt>
      <trkpt lat="44.18358" lon="3.20578">
        <ele>610.8</ele>
        <time>2022-06-16T06:13:45Z</time>
      </trkpt>
      <trkpt lat="44.18364" lon="3.20584">
        <ele>611.2</ele>
        <time>2022-06-16T06:13:49Z</time>
      </trkpt>
      <trkpt lat="44.18368" lon="3.20589">
        <ele>612</ele>
        <time>2022-06-16T06:13:52Z</time>
      </trkpt>
      <trkpt lat="44.18373" lon="3.20595">
        <ele>612.4</ele>
        <time>2022-06-16T06:13:55Z</time>
      </trkpt>
      <trkpt lat="44.18379" lon="3.20605">
        <ele>612.8</ele>
        <time>2022-06-16T06:14:01Z</time>
      </trkpt>
      <trkpt lat="44.18381" lon="3.20609">
        <ele>613</ele>
        <time>2022-06-16T06:14:03Z</time>
      </trkpt>
      <trkpt lat="44.18383" lon="3.20613">
        <ele>613.6</ele>
        <time>2022-06-16T06:14:05Z</time>
      </trkpt>
      <trkpt lat="44.18386" lon="3.2062">
        <ele>614.2</ele>
        <time>2022-06-16T06:14:08Z</time>
      </trkpt>
      <trkpt lat="44.18392" lon="3.20629">
        <ele>614.4</ele>
        <time>2022-06-16T06:14:13Z</time>
      </trkpt>
      <trkpt lat="44.18393" lon="3.20631">
        <ele>614.6</ele>
        <time>2022-06-16T06:14:14Z</time>
      </trkpt>
      <trkpt lat="44.18396" lon="3.20641">
        <ele>615.2</ele>
        <time>2022-06-16T06:14:19Z</time>
      </trkpt>
      <trkpt lat="44.18397" lon="3.20643">
        <ele>615.2</ele>
        <time>2022-06-16T06:14:20Z</time>
      </trkpt>
      <trkpt lat="44.18405" lon="3.2066">
        <ele>616.4</ele>
        <time>2022-06-16T06:14:28Z</time>
      </trkpt>
      <trkpt lat="44.18412" lon="3.20672">
        <ele>617.2</ele>
        <time>2022-06-16T06:14:34Z</time>
      </trkpt>
      <trkpt lat="44.18414" lon="3.20674">
        <ele>617.6</ele>
        <time>2022-06-16T06:14:35Z</time>
      </trkpt>
      <trkpt lat="44.1842" lon="3.20684">
        <ele>618.4</ele>
        <time>2022-06-16T06:14:40Z</time>
      </trkpt>
      <trkpt lat="44.18422" lon="3.20688">
        <ele>618.8</ele>
        <time>2022-06-16T06:14:42Z</time>
      </trkpt>
      <trkpt lat="44.18428" lon="3.20697">
        <ele>619.2</ele>
        <time>2022-06-16T06:14:47Z</time>
      </trkpt>
      <trkpt lat="44.18432" lon="3.20705">
        <ele>619.8</ele>
        <time>2022-06-16T06:14:51Z</time>
      </trkpt>
      <trkpt lat="44.18438" lon="3.20714">
        <ele>620.2</ele>
        <time>2022-06-16T06:14:55Z</time>
      </trkpt>
      <trkpt lat="44.18442" lon="3.2072">
        <ele>620.6</ele>
        <time>2022-06-16T06:14:58Z</time>
      </trkpt>
      <trkpt lat="44.18442" lon="3.20724">
        <ele>620.8</ele>
        <time>2022-06-16T06:15:00Z</time>
      </trkpt>
      <trkpt lat="44.18446" lon="3.20736">
        <ele>621.8</ele>
        <time>2022-06-16T06:15:05Z</time>
      </trkpt>
      <trkpt lat="44.18447" lon="3.20739">
        <ele>622</ele>
        <time>2022-06-16T06:15:06Z</time>
      </trkpt>
      <trkpt lat="44.18451" lon="3.20758">
        <ele>622.8</ele>
        <time>2022-06-16T06:15:13Z</time>
      </trkpt>
      <trkpt lat="44.18451" lon="3.20763">
        <ele>623</ele>
        <time>2022-06-16T06:15:15Z</time>
      </trkpt>
      <trkpt lat="44.18452" lon="3.20775">
        <ele>623.8</ele>
        <time>2022-06-16T06:15:20Z</time>
      </trkpt>
      <trkpt lat="44.1845" lon="3.20783">
        <ele>624.2</ele>
        <time>2022-06-16T06:15:24Z</time>
      </trkpt>
      <trkpt lat="44.1845" lon="3.20783">
        <ele>624.4</ele>
        <time>2022-06-16T06:15:26Z</time>
      </trkpt>
      <trkpt lat="44.1845" lon="3.20783">
        <ele>624.6</ele>
        <time>2022-06-16T06:16:02Z</time>
      </trkpt>
      <trkpt lat="44.1845" lon="3.20783">
        <ele>624.6</ele>
        <time>2022-06-16T06:16:04Z</time>
      </trkpt>
      <trkpt lat="44.18446" lon="3.2079">
        <ele>624.8</ele>
        <time>2022-06-16T06:16:07Z</time>
      </trkpt>
      <trkpt lat="44.18436" lon="3.20806">
        <ele>625.2</ele>
        <time>2022-06-16T06:16:14Z</time>
      </trkpt>
      <trkpt lat="44.18433" lon="3.20808">
        <ele>625.6</ele>
        <time>2022-06-16T06:16:16Z</time>
      </trkpt>
      <trkpt lat="44.18431" lon="3.20809">
        <ele>625.6</ele>
        <time>2022-06-16T06:16:17Z</time>
      </trkpt>
      <trkpt lat="44.18428" lon="3.20808">
        <ele>626</ele>
        <time>2022-06-16T06:16:19Z</time>
      </trkpt>
      <trkpt lat="44.18426" lon="3.208">
        <ele>626.6</ele>
        <time>2022-06-16T06:16:22Z</time>
      </trkpt>
      <trkpt lat="44.18426" lon="3.20797">
        <ele>626.8</ele>
        <time>2022-06-16T06:16:23Z</time>
      </trkpt>
      <trkpt lat="44.18434" lon="3.20787">
        <ele>627.4</ele>
        <time>2022-06-16T06:16:28Z</time>
      </trkpt>
      <trkpt lat="44.18441" lon="3.20775">
        <ele>627.8</ele>
        <time>2022-06-16T06:16:33Z</time>
      </trkpt>
      <trkpt lat="44.18441" lon="3.20773">
        <ele>628</ele>
        <time>2022-06-16T06:16:34Z</time>
      </trkpt>
      <trkpt lat="44.18441" lon="3.20758">
        <ele>628.8</ele>
        <time>2022-06-16T06:16:40Z</time>
      </trkpt>
      <trkpt lat="44.18441" lon="3.20756">
        <ele>629</ele>
        <time>2022-06-16T06:16:41Z</time>
      </trkpt>
      <trkpt lat="44.18437" lon="3.2074">
        <ele>630</ele>
        <time>2022-06-16T06:16:47Z</time>
      </trkpt>
      <trkpt lat="44.18436" lon="3.20738">
        <ele>630</ele>
        <time>2022-06-16T06:16:48Z</time>
      </trkpt>
      <trkpt lat="44.18435" lon="3.20736">
        <ele>630.4</ele>
        <time>2022-06-16T06:16:49Z</time>
      </trkpt>
      <trkpt lat="44.18428" lon="3.20724">
        <ele>631.2</ele>
        <time>2022-06-16T06:16:56Z</time>
      </trkpt>
      <trkpt lat="44.18422" lon="3.20714">
        <ele>632.2</ele>
        <time>2022-06-16T06:17:03Z</time>
      </trkpt>
      <trkpt lat="44.18421" lon="3.20712">
        <ele>632.4</ele>
        <time>2022-06-16T06:17:04Z</time>
      </trkpt>
      <trkpt lat="44.18414" lon="3.20706">
        <ele>632.8</ele>
        <time>2022-06-16T06:17:09Z</time>
      </trkpt>
      <trkpt lat="44.1841" lon="3.20702">
        <ele>633.4</ele>
        <time>2022-06-16T06:17:12Z</time>
      </trkpt>
      <trkpt lat="44.18404" lon="3.20695">
        <ele>634.2</ele>
        <time>2022-06-16T06:17:18Z</time>
      </trkpt>
      <trkpt lat="44.184" lon="3.20691">
        <ele>634.6</ele>
        <time>2022-06-16T06:17:21Z</time>
      </trkpt>
      <trkpt lat="44.18391" lon="3.20682">
        <ele>635.6</ele>
        <time>2022-06-16T06:17:27Z</time>
      </trkpt>
      <trkpt lat="44.1839" lon="3.2068">
        <ele>635.6</ele>
        <time>2022-06-16T06:17:28Z</time>
      </trkpt>
      <trkpt lat="44.18382" lon="3.20668">
        <ele>636.6</ele>
        <time>2022-06-16T06:17:35Z</time>
      </trkpt>
      <trkpt lat="44.18372" lon="3.2066">
        <ele>637.8</ele>
        <time>2022-06-16T06:17:42Z</time>
      </trkpt>
      <trkpt lat="44.18371" lon="3.20659">
        <ele>637.8</ele>
        <time>2022-06-16T06:17:43Z</time>
      </trkpt>
      <trkpt lat="44.18362" lon="3.20649">
        <ele>639</ele>
        <time>2022-06-16T06:17:50Z</time>
      </trkpt>
      <trkpt lat="44.1836" lon="3.20648">
        <ele>639</ele>
        <time>2022-06-16T06:17:51Z</time>
      </trkpt>
      <trkpt lat="44.18358" lon="3.20646">
        <ele>639.2</ele>
        <time>2022-06-16T06:17:53Z</time>
      </trkpt>
      <trkpt lat="44.18354" lon="3.20642">
        <ele>639.4</ele>
        <time>2022-06-16T06:17:56Z</time>
      </trkpt>
      <trkpt lat="44.18353" lon="3.2064">
        <ele>639.8</ele>
        <time>2022-06-16T06:17:57Z</time>
      </trkpt>
      <trkpt lat="44.18351" lon="3.20639">
        <ele>640</ele>
        <time>2022-06-16T06:17:58Z</time>
      </trkpt>
      <trkpt lat="44.18341" lon="3.2063">
        <ele>641</ele>
        <time>2022-06-16T06:18:05Z</time>
      </trkpt>
      <trkpt lat="44.18339" lon="3.20629">
        <ele>641.2</ele>
        <time>2022-06-16T06:18:06Z</time>
      </trkpt>
      <trkpt lat="44.18328" lon="3.20623">
        <ele>642.4</ele>
        <time>2022-06-16T06:18:13Z</time>
      </trkpt>
      <trkpt lat="44.18316" lon="3.20618">
        <ele>643.4</ele>
        <time>2022-06-16T06:18:20Z</time>
      </trkpt>
      <trkpt lat="44.18306" lon="3.20614">
        <ele>644.4</ele>
        <time>2022-06-16T06:18:26Z</time>
      </trkpt>
      <trkpt lat="44.18304" lon="3.20613">
        <ele>644.6</ele>
        <time>2022-06-16T06:18:28Z</time>
      </trkpt>
      <trkpt lat="44.18293" lon="3.2061">
        <ele>645.6</ele>
        <time>2022-06-16T06:18:34Z</time>
      </trkpt>
      <trkpt lat="44.18292" lon="3.2061">
        <ele>645.6</ele>
        <time>2022-06-16T06:18:35Z</time>
      </trkpt>
      <trkpt lat="44.18282" lon="3.20609">
        <ele>646.6</ele>
        <time>2022-06-16T06:18:41Z</time>
      </trkpt>
      <trkpt lat="44.1828" lon="3.20609">
        <ele>646.6</ele>
        <time>2022-06-16T06:18:42Z</time>
      </trkpt>
      <trkpt lat="44.18271" lon="3.20607">
        <ele>647.2</ele>
        <time>2022-06-16T06:18:47Z</time>
      </trkpt>
      <trkpt lat="44.18265" lon="3.20606">
        <ele>647.8</ele>
        <time>2022-06-16T06:18:51Z</time>
      </trkpt>
      <trkpt lat="44.1826" lon="3.20605">
        <ele>648</ele>
        <time>2022-06-16T06:18:54Z</time>
      </trkpt>
      <trkpt lat="44.18253" lon="3.20605">
        <ele>649</ele>
        <time>2022-06-16T06:18:58Z</time>
      </trkpt>
      <trkpt lat="44.18249" lon="3.20603">
        <ele>649.4</ele>
        <time>2022-06-16T06:19:01Z</time>
      </trkpt>
      <trkpt lat="44.1824" lon="3.20602">
        <ele>650</ele>
        <time>2022-06-16T06:19:07Z</time>
      </trkpt>
      <trkpt lat="44.18238" lon="3.20601">
        <ele>650.2</ele>
        <time>2022-06-16T06:19:08Z</time>
      </trkpt>
      <trkpt lat="44.18228" lon="3.20601">
        <ele>651</ele>
        <time>2022-06-16T06:19:14Z</time>
      </trkpt>
      <trkpt lat="44.18227" lon="3.20601">
        <ele>651.2</ele>
        <time>2022-06-16T06:19:15Z</time>
      </trkpt>
      <trkpt lat="44.18214" lon="3.20601">
        <ele>652.2</ele>
        <time>2022-06-16T06:19:23Z</time>
      </trkpt>
      <trkpt lat="44.18204" lon="3.20601">
        <ele>653</ele>
        <time>2022-06-16T06:19:30Z</time>
      </trkpt>
      <trkpt lat="44.18193" lon="3.206">
        <ele>653.8</ele>
        <time>2022-06-16T06:19:36Z</time>
      </trkpt>
      <trkpt lat="44.18191" lon="3.20599">
        <ele>654</ele>
        <time>2022-06-16T06:19:37Z</time>
      </trkpt>
      <trkpt lat="44.1819" lon="3.20598">
        <ele>654.2</ele>
        <time>2022-06-16T06:19:38Z</time>
      </trkpt>
      <trkpt lat="44.1818" lon="3.20594">
        <ele>654.8</ele>
        <time>2022-06-16T06:19:44Z</time>
      </trkpt>
      <trkpt lat="44.18176" lon="3.20591">
        <ele>655.2</ele>
        <time>2022-06-16T06:19:47Z</time>
      </trkpt>
      <trkpt lat="44.18168" lon="3.20586">
        <ele>656</ele>
        <time>2022-06-16T06:19:52Z</time>
      </trkpt>
      <trkpt lat="44.18163" lon="3.20582">
        <ele>656.4</ele>
        <time>2022-06-16T06:19:56Z</time>
      </trkpt>
      <trkpt lat="44.18154" lon="3.20579">
        <ele>657.4</ele>
        <time>2022-06-16T06:20:01Z</time>
      </trkpt>
      <trkpt lat="44.18153" lon="3.20579">
        <ele>657.4</ele>
        <time>2022-06-16T06:20:02Z</time>
      </trkpt>
      <trkpt lat="44.18142" lon="3.20575">
        <ele>658.4</ele>
        <time>2022-06-16T06:20:09Z</time>
      </trkpt>
      <trkpt lat="44.1814" lon="3.20575">
        <ele>658.6</ele>
        <time>2022-06-16T06:20:10Z</time>
      </trkpt>
      <trkpt lat="44.18132" lon="3.2057">
        <ele>659.6</ele>
        <time>2022-06-16T06:20:16Z</time>
      </trkpt>
      <trkpt lat="44.1813" lon="3.20569">
        <ele>659.8</ele>
        <time>2022-06-16T06:20:17Z</time>
      </trkpt>
      <trkpt lat="44.18121" lon="3.20565">
        <ele>660.4</ele>
        <time>2022-06-16T06:20:23Z</time>
      </trkpt>
      <trkpt lat="44.1812" lon="3.20564">
        <ele>660.6</ele>
        <time>2022-06-16T06:20:24Z</time>
      </trkpt>
      <trkpt lat="44.18119" lon="3.20563">
        <ele>660.8</ele>
        <time>2022-06-16T06:20:25Z</time>
      </trkpt>
      <trkpt lat="44.18109" lon="3.20557">
        <ele>661.6</ele>
        <time>2022-06-16T06:20:32Z</time>
      </trkpt>
      <trkpt lat="44.18106" lon="3.20555">
        <ele>661.8</ele>
        <time>2022-06-16T06:20:34Z</time>
      </trkpt>
      <trkpt lat="44.18097" lon="3.2055">
        <ele>662.6</ele>
        <time>2022-06-16T06:20:40Z</time>
      </trkpt>
      <trkpt lat="44.18095" lon="3.20549">
        <ele>662.8</ele>
        <time>2022-06-16T06:20:41Z</time>
      </trkpt>
      <trkpt lat="44.18084" lon="3.20543">
        <ele>663.8</ele>
        <time>2022-06-16T06:20:48Z</time>
      </trkpt>
      <trkpt lat="44.18082" lon="3.20543">
        <ele>663.8</ele>
        <time>2022-06-16T06:20:49Z</time>
      </trkpt>
      <trkpt lat="44.18073" lon="3.20537">
        <ele>664.8</ele>
        <time>2022-06-16T06:20:55Z</time>
      </trkpt>
      <trkpt lat="44.18071" lon="3.20537">
        <ele>664.8</ele>
        <time>2022-06-16T06:20:56Z</time>
      </trkpt>
      <trkpt lat="44.18062" lon="3.20531">
        <ele>665.6</ele>
        <time>2022-06-16T06:21:02Z</time>
      </trkpt>
      <trkpt lat="44.18057" lon="3.20528">
        <ele>666</ele>
        <time>2022-06-16T06:21:05Z</time>
      </trkpt>
      <trkpt lat="44.18048" lon="3.20525">
        <ele>666.6</ele>
        <time>2022-06-16T06:21:10Z</time>
      </trkpt>
      <trkpt lat="44.18044" lon="3.20522">
        <ele>667</ele>
        <time>2022-06-16T06:21:13Z</time>
      </trkpt>
      <trkpt lat="44.18037" lon="3.20516">
        <ele>667.8</ele>
        <time>2022-06-16T06:21:18Z</time>
      </trkpt>
      <trkpt lat="44.18034" lon="3.20511">
        <ele>668.2</ele>
        <time>2022-06-16T06:21:21Z</time>
      </trkpt>
      <trkpt lat="44.18033" lon="3.2051">
        <ele>668.2</ele>
        <time>2022-06-16T06:21:22Z</time>
      </trkpt>
      <trkpt lat="44.18031" lon="3.20507">
        <ele>668.6</ele>
        <time>2022-06-16T06:21:24Z</time>
      </trkpt>
      <trkpt lat="44.18024" lon="3.20498">
        <ele>669.4</ele>
        <time>2022-06-16T06:21:31Z</time>
      </trkpt>
      <trkpt lat="44.18016" lon="3.2049">
        <ele>670.4</ele>
        <time>2022-06-16T06:21:38Z</time>
      </trkpt>
      <trkpt lat="44.18014" lon="3.20488">
        <ele>670.8</ele>
        <time>2022-06-16T06:21:40Z</time>
      </trkpt>
      <trkpt lat="44.18007" lon="3.20491">
        <ele>671.2</ele>
        <time>2022-06-16T06:21:44Z</time>
      </trkpt>
      <trkpt lat="44.18003" lon="3.20495">
        <ele>671.6</ele>
        <time>2022-06-16T06:21:47Z</time>
      </trkpt>
      <trkpt lat="44.17997" lon="3.20503">
        <ele>671.6</ele>
        <time>2022-06-16T06:21:52Z</time>
      </trkpt>
      <trkpt lat="44.17993" lon="3.20509">
        <ele>672</ele>
        <time>2022-06-16T06:21:56Z</time>
      </trkpt>
      <trkpt lat="44.1799" lon="3.20511">
        <ele>672.4</ele>
        <time>2022-06-16T06:21:58Z</time>
      </trkpt>
      <trkpt lat="44.17989" lon="3.20511">
        <ele>672.6</ele>
        <time>2022-06-16T06:21:59Z</time>
      </trkpt>
      <trkpt lat="44.17981" lon="3.20516">
        <ele>673.2</ele>
        <time>2022-06-16T06:22:04Z</time>
      </trkpt>
      <trkpt lat="44.1798" lon="3.20517">
        <ele>673.2</ele>
        <time>2022-06-16T06:22:05Z</time>
      </trkpt>
      <trkpt lat="44.17972" lon="3.2052">
        <ele>673.8</ele>
        <time>2022-06-16T06:22:10Z</time>
      </trkpt>
      <trkpt lat="44.17965" lon="3.20524">
        <ele>674.4</ele>
        <time>2022-06-16T06:22:15Z</time>
      </trkpt>
      <trkpt lat="44.1796" lon="3.20528">
        <ele>674.8</ele>
        <time>2022-06-16T06:22:18Z</time>
      </trkpt>
      <trkpt lat="44.17958" lon="3.2053">
        <ele>675</ele>
        <time>2022-06-16T06:22:20Z</time>
      </trkpt>
      <trkpt lat="44.17954" lon="3.20532">
        <ele>675.2</ele>
        <time>2022-06-16T06:22:22Z</time>
      </trkpt>
      <trkpt lat="44.17944" lon="3.2054">
        <ele>676</ele>
        <time>2022-06-16T06:22:28Z</time>
      </trkpt>
      <trkpt lat="44.17941" lon="3.20543">
        <ele>676.2</ele>
        <time>2022-06-16T06:22:30Z</time>
      </trkpt>
      <trkpt lat="44.17934" lon="3.2055">
        <ele>677</ele>
        <time>2022-06-16T06:22:35Z</time>
      </trkpt>
      <trkpt lat="44.17931" lon="3.20553">
        <ele>677.2</ele>
        <time>2022-06-16T06:22:37Z</time>
      </trkpt>
      <trkpt lat="44.17924" lon="3.20562">
        <ele>678</ele>
        <time>2022-06-16T06:22:42Z</time>
      </trkpt>
      <trkpt lat="44.17922" lon="3.20564">
        <ele>678.2</ele>
        <time>2022-06-16T06:22:43Z</time>
      </trkpt>
      <trkpt lat="44.17915" lon="3.20573">
        <ele>679</ele>
        <time>2022-06-16T06:22:48Z</time>
      </trkpt>
      <trkpt lat="44.17909" lon="3.2058">
        <ele>679.6</ele>
        <time>2022-06-16T06:22:52Z</time>
      </trkpt>
      <trkpt lat="44.17904" lon="3.20585">
        <ele>680.2</ele>
        <time>2022-06-16T06:22:55Z</time>
      </trkpt>
      <trkpt lat="44.17896" lon="3.20594">
        <ele>680.8</ele>
        <time>2022-06-16T06:23:01Z</time>
      </trkpt>
      <trkpt lat="44.17893" lon="3.20597">
        <ele>681.2</ele>
        <time>2022-06-16T06:23:03Z</time>
      </trkpt>
      <trkpt lat="44.17884" lon="3.20609">
        <ele>682.2</ele>
        <time>2022-06-16T06:23:10Z</time>
      </trkpt>
      <trkpt lat="44.17882" lon="3.20611">
        <ele>682.4</ele>
        <time>2022-06-16T06:23:11Z</time>
      </trkpt>
      <trkpt lat="44.1787" lon="3.20626">
        <ele>683.4</ele>
        <time>2022-06-16T06:23:19Z</time>
      </trkpt>
      <trkpt lat="44.17867" lon="3.2063">
        <ele>683.6</ele>
        <time>2022-06-16T06:23:21Z</time>
      </trkpt>
      <trkpt lat="44.17857" lon="3.20646">
        <ele>684.4</ele>
        <time>2022-06-16T06:23:28Z</time>
      </trkpt>
      <trkpt lat="44.17856" lon="3.20649">
        <ele>684.6</ele>
        <time>2022-06-16T06:23:29Z</time>
      </trkpt>
      <trkpt lat="44.17848" lon="3.20666">
        <ele>685.4</ele>
        <time>2022-06-16T06:23:36Z</time>
      </trkpt>
      <trkpt lat="44.17847" lon="3.20673">
        <ele>685.6</ele>
        <time>2022-06-16T06:23:38Z</time>
      </trkpt>
      <trkpt lat="44.17846" lon="3.20686">
        <ele>686.2</ele>
        <time>2022-06-16T06:23:43Z</time>
      </trkpt>
      <trkpt lat="44.17847" lon="3.20695">
        <ele>686.6</ele>
        <time>2022-06-16T06:23:46Z</time>
      </trkpt>
      <trkpt lat="44.17849" lon="3.20702">
        <ele>687</ele>
        <time>2022-06-16T06:23:49Z</time>
      </trkpt>
      <trkpt lat="44.17854" lon="3.20715">
        <ele>687.6</ele>
        <time>2022-06-16T06:23:54Z</time>
      </trkpt>
      <trkpt lat="44.17857" lon="3.20724">
        <ele>687.8</ele>
        <time>2022-06-16T06:23:57Z</time>
      </trkpt>
      <trkpt lat="44.17858" lon="3.20736">
        <ele>688.6</ele>
        <time>2022-06-16T06:24:01Z</time>
      </trkpt>
      <trkpt lat="44.17857" lon="3.20742">
        <ele>688.8</ele>
        <time>2022-06-16T06:24:03Z</time>
      </trkpt>
      <trkpt lat="44.1785" lon="3.20752">
        <ele>689.6</ele>
        <time>2022-06-16T06:24:08Z</time>
      </trkpt>
      <trkpt lat="44.17848" lon="3.20753">
        <ele>689.8</ele>
        <time>2022-06-16T06:24:09Z</time>
      </trkpt>
      <trkpt lat="44.17837" lon="3.20759">
        <ele>690.6</ele>
        <time>2022-06-16T06:24:14Z</time>
      </trkpt>
      <trkpt lat="44.1783" lon="3.20763">
        <ele>691.2</ele>
        <time>2022-06-16T06:24:17Z</time>
      </trkpt>
      <trkpt lat="44.17819" lon="3.20768">
        <ele>691.8</ele>
        <time>2022-06-16T06:24:22Z</time>
      </trkpt>
      <trkpt lat="44.17809" lon="3.20775">
        <ele>692.4</ele>
        <time>2022-06-16T06:24:27Z</time>
      </trkpt>
      <trkpt lat="44.17804" lon="3.20779">
        <ele>692.8</ele>
        <time>2022-06-16T06:24:29Z</time>
      </trkpt>
      <trkpt lat="44.17792" lon="3.20795">
        <ele>693.8</ele>
        <time>2022-06-16T06:24:36Z</time>
      </trkpt>
      <trkpt lat="44.17783" lon="3.20812">
        <ele>695</ele>
        <time>2022-06-16T06:24:43Z</time>
      </trkpt>
      <trkpt lat="44.17777" lon="3.20822">
        <ele>695.4</ele>
        <time>2022-06-16T06:24:47Z</time>
      </trkpt>
      <trkpt lat="44.17769" lon="3.20835">
        <ele>696.2</ele>
        <time>2022-06-16T06:24:53Z</time>
      </trkpt>
      <trkpt lat="44.17766" lon="3.20838">
        <ele>696.4</ele>
        <time>2022-06-16T06:24:55Z</time>
      </trkpt>
      <trkpt lat="44.17758" lon="3.20843">
        <ele>697.2</ele>
        <time>2022-06-16T06:24:59Z</time>
      </trkpt>
      <trkpt lat="44.17746" lon="3.2085">
        <ele>698.2</ele>
        <time>2022-06-16T06:25:05Z</time>
      </trkpt>
      <trkpt lat="44.17731" lon="3.20864">
        <ele>699</ele>
        <time>2022-06-16T06:25:13Z</time>
      </trkpt>
      <trkpt lat="44.17717" lon="3.2088">
        <ele>700.2</ele>
        <time>2022-06-16T06:25:21Z</time>
      </trkpt>
      <trkpt lat="44.17712" lon="3.20886">
        <ele>700.6</ele>
        <time>2022-06-16T06:25:24Z</time>
      </trkpt>
      <trkpt lat="44.17702" lon="3.20898">
        <ele>701.4</ele>
        <time>2022-06-16T06:25:30Z</time>
      </trkpt>
      <trkpt lat="44.17695" lon="3.20906">
        <ele>702</ele>
        <time>2022-06-16T06:25:34Z</time>
      </trkpt>
      <trkpt lat="44.17686" lon="3.20914">
        <ele>702.6</ele>
        <time>2022-06-16T06:25:38Z</time>
      </trkpt>
      <trkpt lat="44.17677" lon="3.20918">
        <ele>703.4</ele>
        <time>2022-06-16T06:25:42Z</time>
      </trkpt>
      <trkpt lat="44.17672" lon="3.20918">
        <ele>703.6</ele>
        <time>2022-06-16T06:25:44Z</time>
      </trkpt>
      <trkpt lat="44.1766" lon="3.20915">
        <ele>704.4</ele>
        <time>2022-06-16T06:25:49Z</time>
      </trkpt>
      <trkpt lat="44.17654" lon="3.20911">
        <ele>704.6</ele>
        <time>2022-06-16T06:25:52Z</time>
      </trkpt>
      <trkpt lat="44.17646" lon="3.20903">
        <ele>705</ele>
        <time>2022-06-16T06:25:56Z</time>
      </trkpt>
      <trkpt lat="44.17639" lon="3.20896">
        <ele>705.6</ele>
        <time>2022-06-16T06:26:00Z</time>
      </trkpt>
      <trkpt lat="44.17632" lon="3.20888">
        <ele>706.2</ele>
        <time>2022-06-16T06:26:04Z</time>
      </trkpt>
      <trkpt lat="44.17623" lon="3.2088">
        <ele>706.6</ele>
        <time>2022-06-16T06:26:09Z</time>
      </trkpt>
      <trkpt lat="44.17614" lon="3.20872">
        <ele>707.4</ele>
        <time>2022-06-16T06:26:14Z</time>
      </trkpt>
      <trkpt lat="44.17612" lon="3.20871">
        <ele>707.6</ele>
        <time>2022-06-16T06:26:15Z</time>
      </trkpt>
      <trkpt lat="44.17595" lon="3.20863">
        <ele>708.4</ele>
        <time>2022-06-16T06:26:23Z</time>
      </trkpt>
      <trkpt lat="44.1759" lon="3.20862">
        <ele>708.8</ele>
        <time>2022-06-16T06:26:25Z</time>
      </trkpt>
      <trkpt lat="44.17578" lon="3.2086">
        <ele>709.6</ele>
        <time>2022-06-16T06:26:30Z</time>
      </trkpt>
      <trkpt lat="44.17573" lon="3.2086">
        <ele>709.8</ele>
        <time>2022-06-16T06:26:32Z</time>
      </trkpt>
      <trkpt lat="44.17561" lon="3.20856">
        <ele>710.4</ele>
        <time>2022-06-16T06:26:37Z</time>
      </trkpt>
      <trkpt lat="44.17554" lon="3.20853">
        <ele>710.4</ele>
        <time>2022-06-16T06:26:40Z</time>
      </trkpt>
      <trkpt lat="44.17544" lon="3.20847">
        <ele>710.8</ele>
        <time>2022-06-16T06:26:44Z</time>
      </trkpt>
      <trkpt lat="44.17522" lon="3.20835">
        <ele>711.8</ele>
        <time>2022-06-16T06:26:53Z</time>
      </trkpt>
      <trkpt lat="44.17513" lon="3.20831">
        <ele>712</ele>
        <time>2022-06-16T06:26:56Z</time>
      </trkpt>
      <trkpt lat="44.17498" lon="3.20825">
        <ele>713</ele>
        <time>2022-06-16T06:27:02Z</time>
      </trkpt>
      <trkpt lat="44.17476" lon="3.20816">
        <ele>713.6</ele>
        <time>2022-06-16T06:27:10Z</time>
      </trkpt>
      <trkpt lat="44.17469" lon="3.20815">
        <ele>713.8</ele>
        <time>2022-06-16T06:27:12Z</time>
      </trkpt>
      <trkpt lat="44.17454" lon="3.20812">
        <ele>714.8</ele>
        <time>2022-06-16T06:27:17Z</time>
      </trkpt>
      <trkpt lat="44.17451" lon="3.20812">
        <ele>715</ele>
        <time>2022-06-16T06:27:18Z</time>
      </trkpt>
      <trkpt lat="44.17433" lon="3.2081">
        <ele>715.8</ele>
        <time>2022-06-16T06:27:24Z</time>
      </trkpt>
      <trkpt lat="44.17427" lon="3.20809">
        <ele>716</ele>
        <time>2022-06-16T06:27:26Z</time>
      </trkpt>
      <trkpt lat="44.17408" lon="3.20808">
        <ele>716.8</ele>
        <time>2022-06-16T06:27:32Z</time>
      </trkpt>
      <trkpt lat="44.17402" lon="3.20808">
        <ele>717</ele>
        <time>2022-06-16T06:27:34Z</time>
      </trkpt>
      <trkpt lat="44.17382" lon="3.20807">
        <ele>717.6</ele>
        <time>2022-06-16T06:27:41Z</time>
      </trkpt>
      <trkpt lat="44.1737" lon="3.20803">
        <ele>718</ele>
        <time>2022-06-16T06:27:45Z</time>
      </trkpt>
      <trkpt lat="44.17364" lon="3.20799">
        <ele>718.4</ele>
        <time>2022-06-16T06:27:47Z</time>
      </trkpt>
      <trkpt lat="44.17352" lon="3.20787">
        <ele>719.2</ele>
        <time>2022-06-16T06:27:52Z</time>
      </trkpt>
      <trkpt lat="44.17348" lon="3.20782">
        <ele>719.6</ele>
        <time>2022-06-16T06:27:54Z</time>
      </trkpt>
      <trkpt lat="44.17336" lon="3.20774">
        <ele>720.2</ele>
        <time>2022-06-16T06:27:58Z</time>
      </trkpt>
      <trkpt lat="44.17332" lon="3.20768">
        <ele>720.4</ele>
        <time>2022-06-16T06:28:00Z</time>
      </trkpt>
      <trkpt lat="44.17327" lon="3.20739">
        <ele>720.4</ele>
        <time>2022-06-16T06:28:06Z</time>
      </trkpt>
      <trkpt lat="44.17324" lon="3.20706">
        <ele>720.4</ele>
        <time>2022-06-16T06:28:12Z</time>
      </trkpt>
      <trkpt lat="44.1732" lon="3.20672">
        <ele>720</ele>
        <time>2022-06-16T06:28:18Z</time>
      </trkpt>
      <trkpt lat="44.17321" lon="3.20638">
        <ele>720</ele>
        <time>2022-06-16T06:28:24Z</time>
      </trkpt>
      <trkpt lat="44.17326" lon="3.20615">
        <ele>720.4</ele>
        <time>2022-06-16T06:28:29Z</time>
      </trkpt>
      <trkpt lat="44.17331" lon="3.20591">
        <ele>720.8</ele>
        <time>2022-06-16T06:28:34Z</time>
      </trkpt>
      <trkpt lat="44.17332" lon="3.20582">
        <ele>721</ele>
        <time>2022-06-16T06:28:36Z</time>
      </trkpt>
      <trkpt lat="44.17336" lon="3.20569">
        <ele>721.4</ele>
        <time>2022-06-16T06:28:39Z</time>
      </trkpt>
      <trkpt lat="44.17339" lon="3.20553">
        <ele>721.8</ele>
        <time>2022-06-16T06:28:43Z</time>
      </trkpt>
      <trkpt lat="44.17342" lon="3.2054">
        <ele>722.2</ele>
        <time>2022-06-16T06:28:46Z</time>
      </trkpt>
      <trkpt lat="44.17349" lon="3.20503">
        <ele>722.8</ele>
        <time>2022-06-16T06:28:54Z</time>
      </trkpt>
      <trkpt lat="44.17349" lon="3.20498">
        <ele>723</ele>
        <time>2022-06-16T06:28:55Z</time>
      </trkpt>
      <trkpt lat="44.17351" lon="3.20465">
        <ele>723.2</ele>
        <time>2022-06-16T06:29:01Z</time>
      </trkpt>
      <trkpt lat="44.1735" lon="3.20439">
        <ele>723.2</ele>
        <time>2022-06-16T06:29:05Z</time>
      </trkpt>
      <trkpt lat="44.17344" lon="3.20394">
        <ele>723.2</ele>
        <time>2022-06-16T06:29:12Z</time>
      </trkpt>
      <trkpt lat="44.17337" lon="3.20366">
        <ele>723.4</ele>
        <time>2022-06-16T06:29:18Z</time>
      </trkpt>
      <trkpt lat="44.17331" lon="3.20352">
        <ele>723.8</ele>
        <time>2022-06-16T06:29:23Z</time>
      </trkpt>
      <trkpt lat="44.17331" lon="3.2035">
        <ele>724</ele>
        <time>2022-06-16T06:29:24Z</time>
      </trkpt>
      <trkpt lat="44.17327" lon="3.20338">
        <ele>724.6</ele>
        <time>2022-06-16T06:29:29Z</time>
      </trkpt>
      <trkpt lat="44.17325" lon="3.20332">
        <ele>725.2</ele>
        <time>2022-06-16T06:29:31Z</time>
      </trkpt>
      <trkpt lat="44.17322" lon="3.20323">
        <ele>725.4</ele>
        <time>2022-06-16T06:29:35Z</time>
      </trkpt>
      <trkpt lat="44.17318" lon="3.20314">
        <ele>726</ele>
        <time>2022-06-16T06:29:39Z</time>
      </trkpt>
      <trkpt lat="44.17316" lon="3.2031">
        <ele>726.2</ele>
        <time>2022-06-16T06:29:41Z</time>
      </trkpt>
      <trkpt lat="44.1731" lon="3.20303">
        <ele>727</ele>
        <time>2022-06-16T06:29:45Z</time>
      </trkpt>
      <trkpt lat="44.17306" lon="3.20298">
        <ele>727.6</ele>
        <time>2022-06-16T06:29:48Z</time>
      </trkpt>
      <trkpt lat="44.17303" lon="3.20296">
        <ele>728</ele>
        <time>2022-06-16T06:29:50Z</time>
      </trkpt>
      <trkpt lat="44.17294" lon="3.20291">
        <ele>729</ele>
        <time>2022-06-16T06:29:56Z</time>
      </trkpt>
      <trkpt lat="44.17286" lon="3.2029">
        <ele>730</ele>
        <time>2022-06-16T06:30:01Z</time>
      </trkpt>
      <trkpt lat="44.1728" lon="3.2029">
        <ele>730.4</ele>
        <time>2022-06-16T06:30:04Z</time>
      </trkpt>
      <trkpt lat="44.17274" lon="3.20293">
        <ele>730.8</ele>
        <time>2022-06-16T06:30:08Z</time>
      </trkpt>
      <trkpt lat="44.17267" lon="3.20295">
        <ele>731.4</ele>
        <time>2022-06-16T06:30:12Z</time>
      </trkpt>
      <trkpt lat="44.17263" lon="3.20297">
        <ele>732.2</ele>
        <time>2022-06-16T06:30:15Z</time>
      </trkpt>
      <trkpt lat="44.17257" lon="3.20299">
        <ele>733</ele>
        <time>2022-06-16T06:30:19Z</time>
      </trkpt>
      <trkpt lat="44.17256" lon="3.20299">
        <ele>733.4</ele>
        <time>2022-06-16T06:30:20Z</time>
      </trkpt>
      <trkpt lat="44.17245" lon="3.20299">
        <ele>734.4</ele>
        <time>2022-06-16T06:30:27Z</time>
      </trkpt>
      <trkpt lat="44.17244" lon="3.20299">
        <ele>734.6</ele>
        <time>2022-06-16T06:30:28Z</time>
      </trkpt>
      <trkpt lat="44.17235" lon="3.20295">
        <ele>735.4</ele>
        <time>2022-06-16T06:30:34Z</time>
      </trkpt>
      <trkpt lat="44.17233" lon="3.20293">
        <ele>735.8</ele>
        <time>2022-06-16T06:30:36Z</time>
      </trkpt>
      <trkpt lat="44.17228" lon="3.20283">
        <ele>736.8</ele>
        <time>2022-06-16T06:30:41Z</time>
      </trkpt>
      <trkpt lat="44.17227" lon="3.20276">
        <ele>737.2</ele>
        <time>2022-06-16T06:30:44Z</time>
      </trkpt>
      <trkpt lat="44.17226" lon="3.2027">
        <ele>737.8</ele>
        <time>2022-06-16T06:30:47Z</time>
      </trkpt>
      <trkpt lat="44.17226" lon="3.20257">
        <ele>738.6</ele>
        <time>2022-06-16T06:30:52Z</time>
      </trkpt>
      <trkpt lat="44.17226" lon="3.20255">
        <ele>739</ele>
        <time>2022-06-16T06:30:53Z</time>
      </trkpt>
      <trkpt lat="44.17225" lon="3.20243">
        <ele>739.6</ele>
        <time>2022-06-16T06:30:58Z</time>
      </trkpt>
      <trkpt lat="44.17226" lon="3.20237">
        <ele>740</ele>
        <time>2022-06-16T06:31:00Z</time>
      </trkpt>
      <trkpt lat="44.17226" lon="3.20227">
        <ele>740.4</ele>
        <time>2022-06-16T06:31:04Z</time>
      </trkpt>
      <trkpt lat="44.17225" lon="3.20225">
        <ele>740.6</ele>
        <time>2022-06-16T06:31:05Z</time>
      </trkpt>
      <trkpt lat="44.1722" lon="3.20218">
        <ele>740.4</ele>
        <time>2022-06-16T06:31:09Z</time>
      </trkpt>
      <trkpt lat="44.17219" lon="3.20218">
        <ele>740.6</ele>
        <time>2022-06-16T06:31:10Z</time>
      </trkpt>
      <trkpt lat="44.17216" lon="3.20217">
        <ele>740.6</ele>
        <time>2022-06-16T06:31:12Z</time>
      </trkpt>
      <trkpt lat="44.17214" lon="3.2022">
        <ele>740.6</ele>
        <time>2022-06-16T06:31:14Z</time>
      </trkpt>
      <trkpt lat="44.17209" lon="3.20228">
        <ele>740.8</ele>
        <time>2022-06-16T06:31:18Z</time>
      </trkpt>
      <trkpt lat="44.17206" lon="3.2023">
        <ele>741</ele>
        <time>2022-06-16T06:31:20Z</time>
      </trkpt>
      <trkpt lat="44.17188" lon="3.2023">
        <ele>741.8</ele>
        <time>2022-06-16T06:31:28Z</time>
      </trkpt>
      <trkpt lat="44.17166" lon="3.20231">
        <ele>742.2</ele>
        <time>2022-06-16T06:31:37Z</time>
      </trkpt>
      <trkpt lat="44.17154" lon="3.20227">
        <ele>742.2</ele>
        <time>2022-06-16T06:31:42Z</time>
      </trkpt>
      <trkpt lat="44.17151" lon="3.20224">
        <ele>742.2</ele>
        <time>2022-06-16T06:31:43Z</time>
      </trkpt>
      <trkpt lat="44.17146" lon="3.20217">
        <ele>742.6</ele>
        <time>2022-06-16T06:31:46Z</time>
      </trkpt>
      <trkpt lat="44.17144" lon="3.20215">
        <ele>742.8</ele>
        <time>2022-06-16T06:31:47Z</time>
      </trkpt>
      <trkpt lat="44.17132" lon="3.20205">
        <ele>743.6</ele>
        <time>2022-06-16T06:31:53Z</time>
      </trkpt>
      <trkpt lat="44.1713" lon="3.20204">
        <ele>743.8</ele>
        <time>2022-06-16T06:31:54Z</time>
      </trkpt>
      <trkpt lat="44.17123" lon="3.20199">
        <ele>744.2</ele>
        <time>2022-06-16T06:31:58Z</time>
      </trkpt>
      <trkpt lat="44.17109" lon="3.20198">
        <ele>744.6</ele>
        <time>2022-06-16T06:32:04Z</time>
      </trkpt>
      <trkpt lat="44.17107" lon="3.20198">
        <ele>744.8</ele>
        <time>2022-06-16T06:32:05Z</time>
      </trkpt>
      <trkpt lat="44.17085" lon="3.20201">
        <ele>745.2</ele>
        <time>2022-06-16T06:32:13Z</time>
      </trkpt>
      <trkpt lat="44.17066" lon="3.20201">
        <ele>745.2</ele>
        <time>2022-06-16T06:32:20Z</time>
      </trkpt>
      <trkpt lat="44.17046" lon="3.20202">
        <ele>744.6</ele>
        <time>2022-06-16T06:32:24Z</time>
      </trkpt>
      <trkpt lat="44.17038" lon="3.20204">
        <ele>744.2</ele>
        <time>2022-06-16T06:32:26Z</time>
      </trkpt>
      <trkpt lat="44.17029" lon="3.20209">
        <ele>743.8</ele>
        <time>2022-06-16T06:32:29Z</time>
      </trkpt>
      <trkpt lat="44.17014" lon="3.20218">
        <ele>743.8</ele>
        <time>2022-06-16T06:32:36Z</time>
      </trkpt>
      <trkpt lat="44.17001" lon="3.20231">
        <ele>743.8</ele>
        <time>2022-06-16T06:32:40Z</time>
      </trkpt>
      <trkpt lat="44.16983" lon="3.20242">
        <ele>743.4</ele>
        <time>2022-06-16T06:32:44Z</time>
      </trkpt>
      <trkpt lat="44.16975" lon="3.20247">
        <ele>742.4</ele>
        <time>2022-06-16T06:32:46Z</time>
      </trkpt>
      <trkpt lat="44.1696" lon="3.20258">
        <ele>741.4</ele>
        <time>2022-06-16T06:32:50Z</time>
      </trkpt>
      <trkpt lat="44.16958" lon="3.20259">
        <ele>741.4</ele>
        <time>2022-06-16T06:32:51Z</time>
      </trkpt>
      <trkpt lat="44.16949" lon="3.20268">
        <ele>741.8</ele>
        <time>2022-06-16T06:32:57Z</time>
      </trkpt>
      <trkpt lat="44.16944" lon="3.20275">
        <ele>741.8</ele>
        <time>2022-06-16T06:33:00Z</time>
      </trkpt>
      <trkpt lat="44.16941" lon="3.20279">
        <ele>742</ele>
        <time>2022-06-16T06:33:02Z</time>
      </trkpt>
      <trkpt lat="44.16933" lon="3.20288">
        <ele>742.2</ele>
        <time>2022-06-16T06:33:06Z</time>
      </trkpt>
      <trkpt lat="44.16928" lon="3.20293">
        <ele>742.4</ele>
        <time>2022-06-16T06:33:09Z</time>
      </trkpt>
      <trkpt lat="44.16913" lon="3.20298">
        <ele>743.2</ele>
        <time>2022-06-16T06:33:16Z</time>
      </trkpt>
      <trkpt lat="44.16912" lon="3.203">
        <ele>743.4</ele>
        <time>2022-06-16T06:33:17Z</time>
      </trkpt>
      <trkpt lat="44.16903" lon="3.2031">
        <ele>743.8</ele>
        <time>2022-06-16T06:33:21Z</time>
      </trkpt>
      <trkpt lat="44.16896" lon="3.20319">
        <ele>744.2</ele>
        <time>2022-06-16T06:33:27Z</time>
      </trkpt>
      <trkpt lat="44.16892" lon="3.20325">
        <ele>744.4</ele>
        <time>2022-06-16T06:33:30Z</time>
      </trkpt>
      <trkpt lat="44.16885" lon="3.20336">
        <ele>745</ele>
        <time>2022-06-16T06:33:35Z</time>
      </trkpt>
      <trkpt lat="44.16882" lon="3.20345">
        <ele>745.6</ele>
        <time>2022-06-16T06:33:39Z</time>
      </trkpt>
      <trkpt lat="44.1688" lon="3.20349">
        <ele>745.8</ele>
        <time>2022-06-16T06:33:41Z</time>
      </trkpt>
      <trkpt lat="44.16879" lon="3.20352">
        <ele>745.8</ele>
        <time>2022-06-16T06:33:42Z</time>
      </trkpt>
      <trkpt lat="44.1687" lon="3.20366">
        <ele>746.2</ele>
        <time>2022-06-16T06:33:48Z</time>
      </trkpt>
      <trkpt lat="44.16868" lon="3.20368">
        <ele>746.6</ele>
        <time>2022-06-16T06:33:49Z</time>
      </trkpt>
      <trkpt lat="44.16852" lon="3.2039">
        <ele>747.6</ele>
        <time>2022-06-16T06:33:57Z</time>
      </trkpt>
      <trkpt lat="44.16839" lon="3.20403">
        <ele>748.2</ele>
        <time>2022-06-16T06:34:04Z</time>
      </trkpt>
      <trkpt lat="44.1683" lon="3.20411">
        <ele>748.6</ele>
        <time>2022-06-16T06:34:08Z</time>
      </trkpt>
      <trkpt lat="44.16828" lon="3.20413">
        <ele>748.6</ele>
        <time>2022-06-16T06:34:09Z</time>
      </trkpt>
      <trkpt lat="44.16811" lon="3.20423">
        <ele>749</ele>
        <time>2022-06-16T06:34:17Z</time>
      </trkpt>
      <trkpt lat="44.16805" lon="3.20426">
        <ele>749.4</ele>
        <time>2022-06-16T06:34:22Z</time>
      </trkpt>
      <trkpt lat="44.16804" lon="3.20427">
        <ele>749.8</ele>
        <time>2022-06-16T06:34:26Z</time>
      </trkpt>
      <trkpt lat="44.16799" lon="3.2043">
        <ele>750.2</ele>
        <time>2022-06-16T06:34:33Z</time>
      </trkpt>
      <trkpt lat="44.16798" lon="3.2043">
        <ele>750.2</ele>
        <time>2022-06-16T06:34:34Z</time>
      </trkpt>
      <trkpt lat="44.16796" lon="3.20431">
        <ele>750.4</ele>
        <time>2022-06-16T06:34:36Z</time>
      </trkpt>
      <trkpt lat="44.16792" lon="3.20434">
        <ele>751.2</ele>
        <time>2022-06-16T06:34:41Z</time>
      </trkpt>
      <trkpt lat="44.1679" lon="3.20436">
        <ele>751.2</ele>
        <time>2022-06-16T06:34:43Z</time>
      </trkpt>
      <trkpt lat="44.16785" lon="3.20439">
        <ele>751.4</ele>
        <time>2022-06-16T06:34:48Z</time>
      </trkpt>
      <trkpt lat="44.16782" lon="3.2044">
        <ele>751.6</ele>
        <time>2022-06-16T06:34:51Z</time>
      </trkpt>
      <trkpt lat="44.16777" lon="3.20443">
        <ele>752.6</ele>
        <time>2022-06-16T06:34:57Z</time>
      </trkpt>
      <trkpt lat="44.16775" lon="3.20443">
        <ele>752.8</ele>
        <time>2022-06-16T06:34:59Z</time>
      </trkpt>
      <trkpt lat="44.16769" lon="3.20448">
        <ele>753</ele>
        <time>2022-06-16T06:35:04Z</time>
      </trkpt>
      <trkpt lat="44.16765" lon="3.20451">
        <ele>753.4</ele>
        <time>2022-06-16T06:35:08Z</time>
      </trkpt>
      <trkpt lat="44.16763" lon="3.20453">
        <ele>753.4</ele>
        <time>2022-06-16T06:35:10Z</time>
      </trkpt>
      <trkpt lat="44.16761" lon="3.20453">
        <ele>753.6</ele>
        <time>2022-06-16T06:35:11Z</time>
      </trkpt>
      <trkpt lat="44.1676" lon="3.20452">
        <ele>753.6</ele>
        <time>2022-06-16T06:35:12Z</time>
      </trkpt>
      <trkpt lat="44.16762" lon="3.20449">
        <ele>753.6</ele>
        <time>2022-06-16T06:35:14Z</time>
      </trkpt>
      <trkpt lat="44.16758" lon="3.20446">
        <ele>754</ele>
        <time>2022-06-16T06:35:18Z</time>
      </trkpt>
      <trkpt lat="44.16757" lon="3.20445">
        <ele>754</ele>
        <time>2022-06-16T06:35:19Z</time>
      </trkpt>
      <trkpt lat="44.16749" lon="3.20439">
        <ele>754.4</ele>
        <time>2022-06-16T06:35:23Z</time>
      </trkpt>
      <trkpt lat="44.16745" lon="3.20435">
        <ele>754.4</ele>
        <time>2022-06-16T06:35:25Z</time>
      </trkpt>
      <trkpt lat="44.1674" lon="3.20426">
        <ele>754.6</ele>
        <time>2022-06-16T06:35:28Z</time>
      </trkpt>
      <trkpt lat="44.16738" lon="3.20424">
        <ele>754.6</ele>
        <time>2022-06-16T06:35:29Z</time>
      </trkpt>
      <trkpt lat="44.16729" lon="3.20412">
        <ele>754.6</ele>
        <time>2022-06-16T06:35:33Z</time>
      </trkpt>
      <trkpt lat="44.16729" lon="3.20408">
        <ele>754.6</ele>
        <time>2022-06-16T06:35:34Z</time>
      </trkpt>
      <trkpt lat="44.16731" lon="3.20385">
        <ele>754.2</ele>
        <time>2022-06-16T06:35:39Z</time>
      </trkpt>
      <trkpt lat="44.16733" lon="3.20366">
        <ele>753.4</ele>
        <time>2022-06-16T06:35:43Z</time>
      </trkpt>
      <trkpt lat="44.16731" lon="3.20362">
        <ele>753.2</ele>
        <time>2022-06-16T06:35:44Z</time>
      </trkpt>
      <trkpt lat="44.16727" lon="3.20354">
        <ele>753</ele>
        <time>2022-06-16T06:35:46Z</time>
      </trkpt>
      <trkpt lat="44.16727" lon="3.20349">
        <ele>753</ele>
        <time>2022-06-16T06:35:47Z</time>
      </trkpt>
      <trkpt lat="44.16727" lon="3.20335">
        <ele>752.8</ele>
        <time>2022-06-16T06:35:51Z</time>
      </trkpt>
      <trkpt lat="44.16724" lon="3.20326">
        <ele>752.4</ele>
        <time>2022-06-16T06:35:54Z</time>
      </trkpt>
      <trkpt lat="44.1672" lon="3.20323">
        <ele>752.4</ele>
        <time>2022-06-16T06:35:56Z</time>
      </trkpt>
      <trkpt lat="44.16715" lon="3.20318">
        <ele>752.6</ele>
        <time>2022-06-16T06:35:58Z</time>
      </trkpt>
      <trkpt lat="44.16714" lon="3.20309">
        <ele>752.6</ele>
        <time>2022-06-16T06:36:00Z</time>
      </trkpt>
      <trkpt lat="44.1671" lon="3.20294">
        <ele>752.4</ele>
        <time>2022-06-16T06:36:03Z</time>
      </trkpt>
      <trkpt lat="44.16705" lon="3.20288">
        <ele>752.4</ele>
        <time>2022-06-16T06:36:05Z</time>
      </trkpt>
      <trkpt lat="44.16699" lon="3.20285">
        <ele>752.2</ele>
        <time>2022-06-16T06:36:07Z</time>
      </trkpt>
      <trkpt lat="44.16694" lon="3.20285">
        <ele>752</ele>
        <time>2022-06-16T06:36:09Z</time>
      </trkpt>
      <trkpt lat="44.16682" lon="3.20283">
        <ele>751.4</ele>
        <time>2022-06-16T06:36:13Z</time>
      </trkpt>
      <trkpt lat="44.1667" lon="3.20288">
        <ele>750.8</ele>
        <time>2022-06-16T06:36:17Z</time>
      </trkpt>
      <trkpt lat="44.16661" lon="3.20294">
        <ele>750.6</ele>
        <time>2022-06-16T06:36:20Z</time>
      </trkpt>
      <trkpt lat="44.16643" lon="3.20305">
        <ele>750.6</ele>
        <time>2022-06-16T06:36:27Z</time>
      </trkpt>
      <trkpt lat="44.16621" lon="3.20313">
        <ele>751</ele>
        <time>2022-06-16T06:36:34Z</time>
      </trkpt>
      <trkpt lat="44.16602" lon="3.20314">
        <ele>750.8</ele>
        <time>2022-06-16T06:36:40Z</time>
      </trkpt>
      <trkpt lat="44.16588" lon="3.203">
        <ele>750.6</ele>
        <time>2022-06-16T06:36:45Z</time>
      </trkpt>
      <trkpt lat="44.16574" lon="3.20285">
        <ele>750.6</ele>
        <time>2022-06-16T06:36:51Z</time>
      </trkpt>
      <trkpt lat="44.16559" lon="3.20285">
        <ele>751</ele>
        <time>2022-06-16T06:36:57Z</time>
      </trkpt>
      <trkpt lat="44.16547" lon="3.20288">
        <ele>751.2</ele>
        <time>2022-06-16T06:37:02Z</time>
      </trkpt>
      <trkpt lat="44.16533" lon="3.20293">
        <ele>750.4</ele>
        <time>2022-06-16T06:37:09Z</time>
      </trkpt>
      <trkpt lat="44.16531" lon="3.20294">
        <ele>750.2</ele>
        <time>2022-06-16T06:37:10Z</time>
      </trkpt>
      <trkpt lat="44.16529" lon="3.20296">
        <ele>749.8</ele>
        <time>2022-06-16T06:37:12Z</time>
      </trkpt>
      <trkpt lat="44.16527" lon="3.20296">
        <ele>749.6</ele>
        <time>2022-06-16T06:37:13Z</time>
      </trkpt>
      <trkpt lat="44.16526" lon="3.20297">
        <ele>749.4</ele>
        <time>2022-06-16T06:37:14Z</time>
      </trkpt>
      <trkpt lat="44.1652" lon="3.20299">
        <ele>748.8</ele>
        <time>2022-06-16T06:37:19Z</time>
      </trkpt>
      <trkpt lat="44.16519" lon="3.20299">
        <ele>748.8</ele>
        <time>2022-06-16T06:37:20Z</time>
      </trkpt>
      <trkpt lat="44.16514" lon="3.20301">
        <ele>748.4</ele>
        <time>2022-06-16T06:37:24Z</time>
      </trkpt>
      <trkpt lat="44.1651" lon="3.20302">
        <ele>748.4</ele>
        <time>2022-06-16T06:37:26Z</time>
      </trkpt>
      <trkpt lat="44.16495" lon="3.20305">
        <ele>747.8</ele>
        <time>2022-06-16T06:37:30Z</time>
      </trkpt>
      <trkpt lat="44.16487" lon="3.20307">
        <ele>747.4</ele>
        <time>2022-06-16T06:37:32Z</time>
      </trkpt>
      <trkpt lat="44.16463" lon="3.20312">
        <ele>746.8</ele>
        <time>2022-06-16T06:37:37Z</time>
      </trkpt>
      <trkpt lat="44.16453" lon="3.20315">
        <ele>746</ele>
        <time>2022-06-16T06:37:39Z</time>
      </trkpt>
      <trkpt lat="44.16444" lon="3.20321">
        <ele>745.8</ele>
        <time>2022-06-16T06:37:41Z</time>
      </trkpt>
      <trkpt lat="44.16439" lon="3.20322">
        <ele>745.8</ele>
        <time>2022-06-16T06:37:42Z</time>
      </trkpt>
      <trkpt lat="44.16431" lon="3.20322">
        <ele>745.4</ele>
        <time>2022-06-16T06:37:44Z</time>
      </trkpt>
      <trkpt lat="44.16421" lon="3.2032">
        <ele>744.6</ele>
        <time>2022-06-16T06:37:47Z</time>
      </trkpt>
      <trkpt lat="44.16418" lon="3.20317">
        <ele>743.8</ele>
        <time>2022-06-16T06:37:49Z</time>
      </trkpt>
      <trkpt lat="44.16416" lon="3.20315">
        <ele>743.4</ele>
        <time>2022-06-16T06:37:50Z</time>
      </trkpt>
      <trkpt lat="44.16411" lon="3.20313">
        <ele>742.2</ele>
        <time>2022-06-16T06:37:53Z</time>
      </trkpt>
      <trkpt lat="44.16409" lon="3.20312">
        <ele>742.2</ele>
        <time>2022-06-16T06:37:54Z</time>
      </trkpt>
      <trkpt lat="44.16392" lon="3.20306">
        <ele>741.6</ele>
        <time>2022-06-16T06:38:00Z</time>
      </trkpt>
      <trkpt lat="44.16382" lon="3.20308">
        <ele>741.2</ele>
        <time>2022-06-16T06:38:03Z</time>
      </trkpt>
      <trkpt lat="44.16377" lon="3.20312">
        <ele>740.6</ele>
        <time>2022-06-16T06:38:05Z</time>
      </trkpt>
      <trkpt lat="44.16365" lon="3.20323">
        <ele>740.2</ele>
        <time>2022-06-16T06:38:11Z</time>
      </trkpt>
      <trkpt lat="44.16363" lon="3.20324">
        <ele>740.2</ele>
        <time>2022-06-16T06:38:12Z</time>
      </trkpt>
      <trkpt lat="44.16344" lon="3.20338">
        <ele>739.8</ele>
        <time>2022-06-16T06:38:19Z</time>
      </trkpt>
      <trkpt lat="44.16331" lon="3.2035">
        <ele>739.6</ele>
        <time>2022-06-16T06:38:25Z</time>
      </trkpt>
      <trkpt lat="44.16328" lon="3.20355">
        <ele>739.4</ele>
        <time>2022-06-16T06:38:27Z</time>
      </trkpt>
      <trkpt lat="44.16322" lon="3.20359">
        <ele>739.4</ele>
        <time>2022-06-16T06:38:29Z</time>
      </trkpt>
      <trkpt lat="44.16318" lon="3.20365">
        <ele>739.2</ele>
        <time>2022-06-16T06:38:31Z</time>
      </trkpt>
      <trkpt lat="44.16317" lon="3.20371">
        <ele>738.8</ele>
        <time>2022-06-16T06:38:33Z</time>
      </trkpt>
      <trkpt lat="44.16315" lon="3.20374">
        <ele>738.8</ele>
        <time>2022-06-16T06:38:34Z</time>
      </trkpt>
      <trkpt lat="44.16307" lon="3.20386">
        <ele>738.6</ele>
        <time>2022-06-16T06:38:38Z</time>
      </trkpt>
      <trkpt lat="44.16305" lon="3.20387">
        <ele>738.6</ele>
        <time>2022-06-16T06:38:39Z</time>
      </trkpt>
      <trkpt lat="44.16301" lon="3.20389">
        <ele>738.6</ele>
        <time>2022-06-16T06:38:41Z</time>
      </trkpt>
      <trkpt lat="44.16297" lon="3.2039">
        <ele>738.6</ele>
        <time>2022-06-16T06:38:42Z</time>
      </trkpt>
      <trkpt lat="44.1629" lon="3.20397">
        <ele>738.6</ele>
        <time>2022-06-16T06:38:44Z</time>
      </trkpt>
      <trkpt lat="44.16291" lon="3.20406">
        <ele>738.4</ele>
        <time>2022-06-16T06:38:47Z</time>
      </trkpt>
      <trkpt lat="44.16291" lon="3.2041">
        <ele>738.4</ele>
        <time>2022-06-16T06:38:48Z</time>
      </trkpt>
      <trkpt lat="44.16282" lon="3.20419">
        <ele>738.4</ele>
        <time>2022-06-16T06:38:51Z</time>
      </trkpt>
      <trkpt lat="44.16268" lon="3.2044">
        <ele>738</ele>
        <time>2022-06-16T06:38:58Z</time>
      </trkpt>
      <trkpt lat="44.16267" lon="3.20442">
        <ele>737.8</ele>
        <time>2022-06-16T06:38:59Z</time>
      </trkpt>
      <trkpt lat="44.16245" lon="3.20471">
        <ele>737.6</ele>
        <time>2022-06-16T06:39:07Z</time>
      </trkpt>
      <trkpt lat="44.16243" lon="3.20477">
        <ele>737.6</ele>
        <time>2022-06-16T06:39:08Z</time>
      </trkpt>
      <trkpt lat="44.16241" lon="3.20492">
        <ele>737.4</ele>
        <time>2022-06-16T06:39:11Z</time>
      </trkpt>
      <trkpt lat="44.16239" lon="3.20498">
        <ele>737.4</ele>
        <time>2022-06-16T06:39:12Z</time>
      </trkpt>
      <trkpt lat="44.16234" lon="3.20511">
        <ele>737.2</ele>
        <time>2022-06-16T06:39:15Z</time>
      </trkpt>
      <trkpt lat="44.16227" lon="3.20527">
        <ele>737</ele>
        <time>2022-06-16T06:39:19Z</time>
      </trkpt>
      <trkpt lat="44.16225" lon="3.2053">
        <ele>736.8</ele>
        <time>2022-06-16T06:39:20Z</time>
      </trkpt>
      <trkpt lat="44.16225" lon="3.20537">
        <ele>736.4</ele>
        <time>2022-06-16T06:39:23Z</time>
      </trkpt>
      <trkpt lat="44.16225" lon="3.20537">
        <ele>736.4</ele>
        <time>2022-06-16T06:39:24Z</time>
      </trkpt>
      <trkpt lat="44.16225" lon="3.2054">
        <ele>736</ele>
        <time>2022-06-16T06:39:29Z</time>
      </trkpt>
      <trkpt lat="44.16225" lon="3.20546">
        <ele>736</ele>
        <time>2022-06-16T06:39:31Z</time>
      </trkpt>
      <trkpt lat="44.16228" lon="3.20565">
        <ele>736.2</ele>
        <time>2022-06-16T06:39:37Z</time>
      </trkpt>
      <trkpt lat="44.16222" lon="3.20589">
        <ele>736</ele>
        <time>2022-06-16T06:39:42Z</time>
      </trkpt>
      <trkpt lat="44.16219" lon="3.20608">
        <ele>735.8</ele>
        <time>2022-06-16T06:39:47Z</time>
      </trkpt>
      <trkpt lat="44.1622" lon="3.2061">
        <ele>735.6</ele>
        <time>2022-06-16T06:39:48Z</time>
      </trkpt>
      <trkpt lat="44.16223" lon="3.20623">
        <ele>735.6</ele>
        <time>2022-06-16T06:39:51Z</time>
      </trkpt>
      <trkpt lat="44.16223" lon="3.20631">
        <ele>735.6</ele>
        <time>2022-06-16T06:39:53Z</time>
      </trkpt>
      <trkpt lat="44.16218" lon="3.2066">
        <ele>735</ele>
        <time>2022-06-16T06:39:59Z</time>
      </trkpt>
      <trkpt lat="44.16218" lon="3.20675">
        <ele>735</ele>
        <time>2022-06-16T06:40:02Z</time>
      </trkpt>
      <trkpt lat="44.16216" lon="3.20684">
        <ele>735</ele>
        <time>2022-06-16T06:40:04Z</time>
      </trkpt>
      <trkpt lat="44.16211" lon="3.20698">
        <ele>734.8</ele>
        <time>2022-06-16T06:40:07Z</time>
      </trkpt>
      <trkpt lat="44.16212" lon="3.20705">
        <ele>734.6</ele>
        <time>2022-06-16T06:40:09Z</time>
      </trkpt>
      <trkpt lat="44.16211" lon="3.20714">
        <ele>734.4</ele>
        <time>2022-06-16T06:40:11Z</time>
      </trkpt>
      <trkpt lat="44.16217" lon="3.2073">
        <ele>734.4</ele>
        <time>2022-06-16T06:40:15Z</time>
      </trkpt>
      <trkpt lat="44.16233" lon="3.20741">
        <ele>734.4</ele>
        <time>2022-06-16T06:40:20Z</time>
      </trkpt>
      <trkpt lat="44.16249" lon="3.20752">
        <ele>734.4</ele>
        <time>2022-06-16T06:40:25Z</time>
      </trkpt>
      <trkpt lat="44.16254" lon="3.20768">
        <ele>734.4</ele>
        <time>2022-06-16T06:40:28Z</time>
      </trkpt>
      <trkpt lat="44.16255" lon="3.20774">
        <ele>734.4</ele>
        <time>2022-06-16T06:40:29Z</time>
      </trkpt>
      <trkpt lat="44.16255" lon="3.20781">
        <ele>734.4</ele>
        <time>2022-06-16T06:40:30Z</time>
      </trkpt>
      <trkpt lat="44.16256" lon="3.20795">
        <ele>734.2</ele>
        <time>2022-06-16T06:40:32Z</time>
      </trkpt>
      <trkpt lat="44.16258" lon="3.20801">
        <ele>734.2</ele>
        <time>2022-06-16T06:40:33Z</time>
      </trkpt>
      <trkpt lat="44.1626" lon="3.20806">
        <ele>733.8</ele>
        <time>2022-06-16T06:40:34Z</time>
      </trkpt>
      <trkpt lat="44.16267" lon="3.20822">
        <ele>733.4</ele>
        <time>2022-06-16T06:40:37Z</time>
      </trkpt>
      <trkpt lat="44.1627" lon="3.20828">
        <ele>733.2</ele>
        <time>2022-06-16T06:40:38Z</time>
      </trkpt>
      <trkpt lat="44.16275" lon="3.20846">
        <ele>732.8</ele>
        <time>2022-06-16T06:40:41Z</time>
      </trkpt>
      <trkpt lat="44.16276" lon="3.20852">
        <ele>732.8</ele>
        <time>2022-06-16T06:40:42Z</time>
      </trkpt>
      <trkpt lat="44.16276" lon="3.20858">
        <ele>732.6</ele>
        <time>2022-06-16T06:40:43Z</time>
      </trkpt>
      <trkpt lat="44.16275" lon="3.20871">
        <ele>732.4</ele>
        <time>2022-06-16T06:40:45Z</time>
      </trkpt>
      <trkpt lat="44.16274" lon="3.20882">
        <ele>732.4</ele>
        <time>2022-06-16T06:40:47Z</time>
      </trkpt>
      <trkpt lat="44.16268" lon="3.20899">
        <ele>732.2</ele>
        <time>2022-06-16T06:40:51Z</time>
      </trkpt>
      <trkpt lat="44.16267" lon="3.20903">
        <ele>732.2</ele>
        <time>2022-06-16T06:40:52Z</time>
      </trkpt>
      <trkpt lat="44.16261" lon="3.20911">
        <ele>732</ele>
        <time>2022-06-16T06:40:54Z</time>
      </trkpt>
      <trkpt lat="44.16257" lon="3.20922">
        <ele>732</ele>
        <time>2022-06-16T06:40:56Z</time>
      </trkpt>
      <trkpt lat="44.16233" lon="3.20965">
        <ele>732.2</ele>
        <time>2022-06-16T06:41:03Z</time>
      </trkpt>
      <trkpt lat="44.16219" lon="3.20988">
        <ele>732</ele>
        <time>2022-06-16T06:41:08Z</time>
      </trkpt>
      <trkpt lat="44.16198" lon="3.21006">
        <ele>731.6</ele>
        <time>2022-06-16T06:41:13Z</time>
      </trkpt>
      <trkpt lat="44.16174" lon="3.21019">
        <ele>731</ele>
        <time>2022-06-16T06:41:19Z</time>
      </trkpt>
      <trkpt lat="44.16169" lon="3.21021">
        <ele>730.8</ele>
        <time>2022-06-16T06:41:20Z</time>
      </trkpt>
      <trkpt lat="44.16145" lon="3.21027">
        <ele>730.6</ele>
        <time>2022-06-16T06:41:26Z</time>
      </trkpt>
      <trkpt lat="44.16109" lon="3.21035">
        <ele>730</ele>
        <time>2022-06-16T06:41:35Z</time>
      </trkpt>
      <trkpt lat="44.16086" lon="3.21034">
        <ele>729.8</ele>
        <time>2022-06-16T06:41:40Z</time>
      </trkpt>
      <trkpt lat="44.16077" lon="3.21037">
        <ele>729.6</ele>
        <time>2022-06-16T06:41:42Z</time>
      </trkpt>
      <trkpt lat="44.16062" lon="3.21046">
        <ele>729.6</ele>
        <time>2022-06-16T06:41:47Z</time>
      </trkpt>
      <trkpt lat="44.16059" lon="3.21041">
        <ele>729.8</ele>
        <time>2022-06-16T06:41:49Z</time>
      </trkpt>
      <trkpt lat="44.16059" lon="3.21034">
        <ele>729.6</ele>
        <time>2022-06-16T06:41:51Z</time>
      </trkpt>
      <trkpt lat="44.16055" lon="3.2101">
        <ele>729.8</ele>
        <time>2022-06-16T06:41:57Z</time>
      </trkpt>
      <trkpt lat="44.16046" lon="3.20992">
        <ele>730</ele>
        <time>2022-06-16T06:42:03Z</time>
      </trkpt>
      <trkpt lat="44.16035" lon="3.20979">
        <ele>730.6</ele>
        <time>2022-06-16T06:42:08Z</time>
      </trkpt>
      <trkpt lat="44.16033" lon="3.20977">
        <ele>730.8</ele>
        <time>2022-06-16T06:42:09Z</time>
      </trkpt>
      <trkpt lat="44.16022" lon="3.20969">
        <ele>731.8</ele>
        <time>2022-06-16T06:42:14Z</time>
      </trkpt>
      <trkpt lat="44.16019" lon="3.20968">
        <ele>732</ele>
        <time>2022-06-16T06:42:15Z</time>
      </trkpt>
      <trkpt lat="44.16006" lon="3.20967">
        <ele>732.8</ele>
        <time>2022-06-16T06:42:20Z</time>
      </trkpt>
      <trkpt lat="44.16002" lon="3.20969">
        <ele>733</ele>
        <time>2022-06-16T06:42:22Z</time>
      </trkpt>
      <trkpt lat="44.15989" lon="3.20975">
        <ele>733.8</ele>
        <time>2022-06-16T06:42:27Z</time>
      </trkpt>
      <trkpt lat="44.15984" lon="3.20979">
        <ele>734</ele>
        <time>2022-06-16T06:42:29Z</time>
      </trkpt>
      <trkpt lat="44.15968" lon="3.20984">
        <ele>734.4</ele>
        <time>2022-06-16T06:42:34Z</time>
      </trkpt>
      <trkpt lat="44.15964" lon="3.20982">
        <ele>734.4</ele>
        <time>2022-06-16T06:42:35Z</time>
      </trkpt>
      <trkpt lat="44.15952" lon="3.20971">
        <ele>734.4</ele>
        <time>2022-06-16T06:42:38Z</time>
      </trkpt>
      <trkpt lat="44.15939" lon="3.20958">
        <ele>734.2</ele>
        <time>2022-06-16T06:42:41Z</time>
      </trkpt>
      <trkpt lat="44.15929" lon="3.20951">
        <ele>733.6</ele>
        <time>2022-06-16T06:42:43Z</time>
      </trkpt>
      <trkpt lat="44.15923" lon="3.20948">
        <ele>733.4</ele>
        <time>2022-06-16T06:42:44Z</time>
      </trkpt>
      <trkpt lat="44.15899" lon="3.20938">
        <ele>732.6</ele>
        <time>2022-06-16T06:42:48Z</time>
      </trkpt>
      <trkpt lat="44.15887" lon="3.20932">
        <ele>732.2</ele>
        <time>2022-06-16T06:42:50Z</time>
      </trkpt>
      <trkpt lat="44.15862" lon="3.20918">
        <ele>731.6</ele>
        <time>2022-06-16T06:42:54Z</time>
      </trkpt>
      <trkpt lat="44.15857" lon="3.20912">
        <ele>731.4</ele>
        <time>2022-06-16T06:42:55Z</time>
      </trkpt>
      <trkpt lat="44.1584" lon="3.20882">
        <ele>730.8</ele>
        <time>2022-06-16T06:43:00Z</time>
      </trkpt>
      <trkpt lat="44.15831" lon="3.20869">
        <ele>730.6</ele>
        <time>2022-06-16T06:43:03Z</time>
      </trkpt>
      <trkpt lat="44.15824" lon="3.20863">
        <ele>730.8</ele>
        <time>2022-06-16T06:43:05Z</time>
      </trkpt>
      <trkpt lat="44.15805" lon="3.20852">
        <ele>731.2</ele>
        <time>2022-06-16T06:43:11Z</time>
      </trkpt>
      <trkpt lat="44.15794" lon="3.20848">
        <ele>731.8</ele>
        <time>2022-06-16T06:43:15Z</time>
      </trkpt>
      <trkpt lat="44.15779" lon="3.20846">
        <ele>732.6</ele>
        <time>2022-06-16T06:43:20Z</time>
      </trkpt>
      <trkpt lat="44.15763" lon="3.20843">
        <ele>733.2</ele>
        <time>2022-06-16T06:43:26Z</time>
      </trkpt>
      <trkpt lat="44.1576" lon="3.20843">
        <ele>733.4</ele>
        <time>2022-06-16T06:43:27Z</time>
      </trkpt>
      <trkpt lat="44.15758" lon="3.20842">
        <ele>733.6</ele>
        <time>2022-06-16T06:43:28Z</time>
      </trkpt>
      <trkpt lat="44.15743" lon="3.20837">
        <ele>734.2</ele>
        <time>2022-06-16T06:43:34Z</time>
      </trkpt>
      <trkpt lat="44.15732" lon="3.20833">
        <ele>734.6</ele>
        <time>2022-06-16T06:43:38Z</time>
      </trkpt>
      <trkpt lat="44.15721" lon="3.20829">
        <ele>735.8</ele>
        <time>2022-06-16T06:43:42Z</time>
      </trkpt>
      <trkpt lat="44.15719" lon="3.20829">
        <ele>736</ele>
        <time>2022-06-16T06:43:43Z</time>
      </trkpt>
      <trkpt lat="44.15703" lon="3.20822">
        <ele>736.8</ele>
        <time>2022-06-16T06:43:49Z</time>
      </trkpt>
      <trkpt lat="44.15695" lon="3.20821">
        <ele>737.4</ele>
        <time>2022-06-16T06:43:52Z</time>
      </trkpt>
      <trkpt lat="44.1569" lon="3.2082">
        <ele>737.8</ele>
        <time>2022-06-16T06:43:54Z</time>
      </trkpt>
      <trkpt lat="44.15681" lon="3.20821">
        <ele>738.6</ele>
        <time>2022-06-16T06:43:58Z</time>
      </trkpt>
      <trkpt lat="44.15677" lon="3.20821">
        <ele>738.8</ele>
        <time>2022-06-16T06:44:00Z</time>
      </trkpt>
      <trkpt lat="44.15665" lon="3.20824">
        <ele>739.8</ele>
        <time>2022-06-16T06:44:05Z</time>
      </trkpt>
      <trkpt lat="44.15663" lon="3.20825">
        <ele>740</ele>
        <time>2022-06-16T06:44:06Z</time>
      </trkpt>
      <trkpt lat="44.15648" lon="3.20831">
        <ele>740.8</ele>
        <time>2022-06-16T06:44:12Z</time>
      </trkpt>
      <trkpt lat="44.15643" lon="3.20834">
        <ele>741</ele>
        <time>2022-06-16T06:44:14Z</time>
      </trkpt>
      <trkpt lat="44.15627" lon="3.20842">
        <ele>741</ele>
        <time>2022-06-16T06:44:19Z</time>
      </trkpt>
      <trkpt lat="44.15603" lon="3.20847">
        <ele>741.4</ele>
        <time>2022-06-16T06:44:26Z</time>
      </trkpt>
      <trkpt lat="44.1559" lon="3.20839">
        <ele>741.6</ele>
        <time>2022-06-16T06:44:31Z</time>
      </trkpt>
      <trkpt lat="44.15581" lon="3.20827">
        <ele>741.8</ele>
        <time>2022-06-16T06:44:35Z</time>
      </trkpt>
      <trkpt lat="44.15575" lon="3.20817">
        <ele>742.2</ele>
        <time>2022-06-16T06:44:38Z</time>
      </trkpt>
      <trkpt lat="44.15567" lon="3.20801">
        <ele>742.8</ele>
        <time>2022-06-16T06:44:43Z</time>
      </trkpt>
      <trkpt lat="44.15564" lon="3.20789">
        <ele>743.2</ele>
        <time>2022-06-16T06:44:46Z</time>
      </trkpt>
      <trkpt lat="44.1556" lon="3.20772">
        <ele>743.6</ele>
        <time>2022-06-16T06:44:50Z</time>
      </trkpt>
      <trkpt lat="44.15558" lon="3.20753">
        <ele>743.8</ele>
        <time>2022-06-16T06:44:54Z</time>
      </trkpt>
      <trkpt lat="44.15558" lon="3.20748">
        <ele>744</ele>
        <time>2022-06-16T06:44:55Z</time>
      </trkpt>
      <trkpt lat="44.15559" lon="3.20713">
        <ele>743.8</ele>
        <time>2022-06-16T06:45:01Z</time>
      </trkpt>
      <trkpt lat="44.1556" lon="3.20672">
        <ele>743.2</ele>
        <time>2022-06-16T06:45:06Z</time>
      </trkpt>
      <trkpt lat="44.15561" lon="3.20652">
        <ele>742.8</ele>
        <time>2022-06-16T06:45:08Z</time>
      </trkpt>
      <trkpt lat="44.15565" lon="3.20609">
        <ele>741.6</ele>
        <time>2022-06-16T06:45:12Z</time>
      </trkpt>
      <trkpt lat="44.15564" lon="3.20586">
        <ele>740.8</ele>
        <time>2022-06-16T06:45:14Z</time>
      </trkpt>
      <trkpt lat="44.15561" lon="3.20575">
        <ele>740</ele>
        <time>2022-06-16T06:45:15Z</time>
      </trkpt>
      <trkpt lat="44.15559" lon="3.20564">
        <ele>739.4</ele>
        <time>2022-06-16T06:45:16Z</time>
      </trkpt>
      <trkpt lat="44.15555" lon="3.2054">
        <ele>738.6</ele>
        <time>2022-06-16T06:45:18Z</time>
      </trkpt>
      <trkpt lat="44.15544" lon="3.20495">
        <ele>737.2</ele>
        <time>2022-06-16T06:45:22Z</time>
      </trkpt>
      <trkpt lat="44.15541" lon="3.20486">
        <ele>736.6</ele>
        <time>2022-06-16T06:45:23Z</time>
      </trkpt>
      <trkpt lat="44.15537" lon="3.20477">
        <ele>736.4</ele>
        <time>2022-06-16T06:45:24Z</time>
      </trkpt>
      <trkpt lat="44.15531" lon="3.20469">
        <ele>735.8</ele>
        <time>2022-06-16T06:45:25Z</time>
      </trkpt>
      <trkpt lat="44.15524" lon="3.20464">
        <ele>735.4</ele>
        <time>2022-06-16T06:45:26Z</time>
      </trkpt>
      <trkpt lat="44.15508" lon="3.20459">
        <ele>734.2</ele>
        <time>2022-06-16T06:45:28Z</time>
      </trkpt>
      <trkpt lat="44.155" lon="3.2046">
        <ele>733.6</ele>
        <time>2022-06-16T06:45:29Z</time>
      </trkpt>
      <trkpt lat="44.15492" lon="3.20462">
        <ele>732.8</ele>
        <time>2022-06-16T06:45:30Z</time>
      </trkpt>
      <trkpt lat="44.15471" lon="3.20469">
        <ele>731.8</ele>
        <time>2022-06-16T06:45:33Z</time>
      </trkpt>
      <trkpt lat="44.15465" lon="3.20472">
        <ele>731.6</ele>
        <time>2022-06-16T06:45:34Z</time>
      </trkpt>
      <trkpt lat="44.15445" lon="3.20477">
        <ele>731</ele>
        <time>2022-06-16T06:45:38Z</time>
      </trkpt>
      <trkpt lat="44.15425" lon="3.20487">
        <ele>731</ele>
        <time>2022-06-16T06:45:43Z</time>
      </trkpt>
      <trkpt lat="44.15414" lon="3.20494">
        <ele>731.4</ele>
        <time>2022-06-16T06:45:46Z</time>
      </trkpt>
      <trkpt lat="44.15394" lon="3.20515">
        <ele>731.8</ele>
        <time>2022-06-16T06:45:53Z</time>
      </trkpt>
      <trkpt lat="44.15374" lon="3.20537">
        <ele>732.6</ele>
        <time>2022-06-16T06:46:00Z</time>
      </trkpt>
      <trkpt lat="44.15371" lon="3.2054">
        <ele>732.8</ele>
        <time>2022-06-16T06:46:01Z</time>
      </trkpt>
      <trkpt lat="44.15349" lon="3.20559">
        <ele>733.6</ele>
        <time>2022-06-16T06:46:07Z</time>
      </trkpt>
      <trkpt lat="44.15337" lon="3.20563">
        <ele>733.8</ele>
        <time>2022-06-16T06:46:12Z</time>
      </trkpt>
      <trkpt lat="44.15321" lon="3.20559">
        <ele>734.4</ele>
        <time>2022-06-16T06:46:18Z</time>
      </trkpt>
      <trkpt lat="44.15312" lon="3.2055">
        <ele>734.8</ele>
        <time>2022-06-16T06:46:21Z</time>
      </trkpt>
      <trkpt lat="44.15309" lon="3.20546">
        <ele>735</ele>
        <time>2022-06-16T06:46:22Z</time>
      </trkpt>
      <trkpt lat="44.153" lon="3.20515">
        <ele>735.8</ele>
        <time>2022-06-16T06:46:28Z</time>
      </trkpt>
      <trkpt lat="44.15301" lon="3.20475">
        <ele>735.6</ele>
        <time>2022-06-16T06:46:33Z</time>
      </trkpt>
      <trkpt lat="44.15301" lon="3.20444">
        <ele>735</ele>
        <time>2022-06-16T06:46:36Z</time>
      </trkpt>
      <trkpt lat="44.153" lon="3.20434">
        <ele>734.6</ele>
        <time>2022-06-16T06:46:37Z</time>
      </trkpt>
      <trkpt lat="44.15297" lon="3.20413">
        <ele>733.8</ele>
        <time>2022-06-16T06:46:39Z</time>
      </trkpt>
      <trkpt lat="44.15292" lon="3.20379">
        <ele>732.6</ele>
        <time>2022-06-16T06:46:42Z</time>
      </trkpt>
      <trkpt lat="44.1529" lon="3.20367">
        <ele>732.2</ele>
        <time>2022-06-16T06:46:43Z</time>
      </trkpt>
      <trkpt lat="44.15286" lon="3.20344">
        <ele>731.4</ele>
        <time>2022-06-16T06:46:45Z</time>
      </trkpt>
      <trkpt lat="44.15282" lon="3.2032">
        <ele>729.8</ele>
        <time>2022-06-16T06:46:47Z</time>
      </trkpt>
      <trkpt lat="44.15278" lon="3.20296">
        <ele>728.8</ele>
        <time>2022-06-16T06:46:49Z</time>
      </trkpt>
      <trkpt lat="44.15277" lon="3.20284">
        <ele>728.4</ele>
        <time>2022-06-16T06:46:50Z</time>
      </trkpt>
      <trkpt lat="44.15277" lon="3.20259">
        <ele>727.2</ele>
        <time>2022-06-16T06:46:52Z</time>
      </trkpt>
      <trkpt lat="44.15278" lon="3.20247">
        <ele>726.6</ele>
        <time>2022-06-16T06:46:53Z</time>
      </trkpt>
      <trkpt lat="44.1528" lon="3.20236">
        <ele>725.8</ele>
        <time>2022-06-16T06:46:54Z</time>
      </trkpt>
      <trkpt lat="44.15291" lon="3.20194">
        <ele>724.6</ele>
        <time>2022-06-16T06:46:58Z</time>
      </trkpt>
      <trkpt lat="44.15294" lon="3.20184">
        <ele>724.2</ele>
        <time>2022-06-16T06:46:59Z</time>
      </trkpt>
      <trkpt lat="44.15301" lon="3.20166">
        <ele>723.6</ele>
        <time>2022-06-16T06:47:01Z</time>
      </trkpt>
      <trkpt lat="44.15306" lon="3.20158">
        <ele>723.4</ele>
        <time>2022-06-16T06:47:02Z</time>
      </trkpt>
      <trkpt lat="44.15315" lon="3.20139">
        <ele>722.8</ele>
        <time>2022-06-16T06:47:05Z</time>
      </trkpt>
      <trkpt lat="44.15316" lon="3.20134">
        <ele>722.6</ele>
        <time>2022-06-16T06:47:06Z</time>
      </trkpt>
      <trkpt lat="44.15316" lon="3.2013">
        <ele>722.4</ele>
        <time>2022-06-16T06:47:07Z</time>
      </trkpt>
      <trkpt lat="44.15312" lon="3.20123">
        <ele>722.2</ele>
        <time>2022-06-16T06:47:09Z</time>
      </trkpt>
      <trkpt lat="44.15299" lon="3.20118">
        <ele>722</ele>
        <time>2022-06-16T06:47:13Z</time>
      </trkpt>
      <trkpt lat="44.15287" lon="3.20123">
        <ele>722</ele>
        <time>2022-06-16T06:47:17Z</time>
      </trkpt>
      <trkpt lat="44.15277" lon="3.20135">
        <ele>722</ele>
        <time>2022-06-16T06:47:21Z</time>
      </trkpt>
      <trkpt lat="44.15268" lon="3.20147">
        <ele>722.6</ele>
        <time>2022-06-16T06:47:26Z</time>
      </trkpt>
      <trkpt lat="44.15258" lon="3.20161">
        <ele>723.2</ele>
        <time>2022-06-16T06:47:31Z</time>
      </trkpt>
      <trkpt lat="44.15251" lon="3.20169">
        <ele>723.4</ele>
        <time>2022-06-16T06:47:33Z</time>
      </trkpt>
      <trkpt lat="44.15232" lon="3.20196">
        <ele>723.8</ele>
        <time>2022-06-16T06:47:40Z</time>
      </trkpt>
      <trkpt lat="44.1522" lon="3.20212">
        <ele>723.8</ele>
        <time>2022-06-16T06:47:45Z</time>
      </trkpt>
      <trkpt lat="44.15218" lon="3.20216">
        <ele>724</ele>
        <time>2022-06-16T06:47:46Z</time>
      </trkpt>
      <trkpt lat="44.15212" lon="3.20229">
        <ele>724.4</ele>
        <time>2022-06-16T06:47:49Z</time>
      </trkpt>
      <trkpt lat="44.15206" lon="3.20242">
        <ele>724.6</ele>
        <time>2022-06-16T06:47:52Z</time>
      </trkpt>
      <trkpt lat="44.15205" lon="3.20245">
        <ele>724.6</ele>
        <time>2022-06-16T06:47:53Z</time>
      </trkpt>
      <trkpt lat="44.15201" lon="3.20253">
        <ele>725</ele>
        <time>2022-06-16T06:47:56Z</time>
      </trkpt>
      <trkpt lat="44.152" lon="3.20255">
        <ele>725</ele>
        <time>2022-06-16T06:47:57Z</time>
      </trkpt>
      <trkpt lat="44.15194" lon="3.20266">
        <ele>725.4</ele>
        <time>2022-06-16T06:48:00Z</time>
      </trkpt>
      <trkpt lat="44.15191" lon="3.20277">
        <ele>725.8</ele>
        <time>2022-06-16T06:48:03Z</time>
      </trkpt>
      <trkpt lat="44.15187" lon="3.20287">
        <ele>726.4</ele>
        <time>2022-06-16T06:48:06Z</time>
      </trkpt>
      <trkpt lat="44.15184" lon="3.20301">
        <ele>727</ele>
        <time>2022-06-16T06:48:11Z</time>
      </trkpt>
      <trkpt lat="44.1518" lon="3.20308">
        <ele>727.4</ele>
        <time>2022-06-16T06:48:13Z</time>
      </trkpt>
      <trkpt lat="44.15177" lon="3.20317">
        <ele>728</ele>
        <time>2022-06-16T06:48:16Z</time>
      </trkpt>
      <trkpt lat="44.15176" lon="3.20328">
        <ele>728.4</ele>
        <time>2022-06-16T06:48:19Z</time>
      </trkpt>
      <trkpt lat="44.15173" lon="3.20336">
        <ele>728.6</ele>
        <time>2022-06-16T06:48:21Z</time>
      </trkpt>
      <trkpt lat="44.15167" lon="3.20355">
        <ele>729.2</ele>
        <time>2022-06-16T06:48:27Z</time>
      </trkpt>
      <trkpt lat="44.15165" lon="3.20365">
        <ele>729.4</ele>
        <time>2022-06-16T06:48:30Z</time>
      </trkpt>
      <trkpt lat="44.15164" lon="3.20373">
        <ele>729.4</ele>
        <time>2022-06-16T06:48:32Z</time>
      </trkpt>
      <trkpt lat="44.15153" lon="3.20398">
        <ele>729.6</ele>
        <time>2022-06-16T06:48:37Z</time>
      </trkpt>
      <trkpt lat="44.15152" lon="3.20408">
        <ele>729.6</ele>
        <time>2022-06-16T06:48:39Z</time>
      </trkpt>
      <trkpt lat="44.15149" lon="3.20422">
        <ele>729.6</ele>
        <time>2022-06-16T06:48:42Z</time>
      </trkpt>
      <trkpt lat="44.1514" lon="3.2045">
        <ele>730.2</ele>
        <time>2022-06-16T06:48:48Z</time>
      </trkpt>
      <trkpt lat="44.15124" lon="3.20486">
        <ele>730.6</ele>
        <time>2022-06-16T06:48:55Z</time>
      </trkpt>
      <trkpt lat="44.15119" lon="3.20496">
        <ele>730.6</ele>
        <time>2022-06-16T06:48:57Z</time>
      </trkpt>
      <trkpt lat="44.15116" lon="3.20504">
        <ele>730.4</ele>
        <time>2022-06-16T06:48:59Z</time>
      </trkpt>
      <trkpt lat="44.15099" lon="3.20529">
        <ele>730</ele>
        <time>2022-06-16T06:49:06Z</time>
      </trkpt>
      <trkpt lat="44.15072" lon="3.20553">
        <ele>730.2</ele>
        <time>2022-06-16T06:49:13Z</time>
      </trkpt>
      <trkpt lat="44.15061" lon="3.20564">
        <ele>730.8</ele>
        <time>2022-06-16T06:49:16Z</time>
      </trkpt>
      <trkpt lat="44.15049" lon="3.20579">
        <ele>731.4</ele>
        <time>2022-06-16T06:49:20Z</time>
      </trkpt>
      <trkpt lat="44.15042" lon="3.20595">
        <ele>731.8</ele>
        <time>2022-06-16T06:49:24Z</time>
      </trkpt>
      <trkpt lat="44.15031" lon="3.20618">
        <ele>732.4</ele>
        <time>2022-06-16T06:49:29Z</time>
      </trkpt>
      <trkpt lat="44.15021" lon="3.20635">
        <ele>732.6</ele>
        <time>2022-06-16T06:49:33Z</time>
      </trkpt>
      <trkpt lat="44.15004" lon="3.20658">
        <ele>732.8</ele>
        <time>2022-06-16T06:49:39Z</time>
      </trkpt>
      <trkpt lat="44.14981" lon="3.20698">
        <ele>732.8</ele>
        <time>2022-06-16T06:49:48Z</time>
      </trkpt>
      <trkpt lat="44.14963" lon="3.20732">
        <ele>732.8</ele>
        <time>2022-06-16T06:49:55Z</time>
      </trkpt>
      <trkpt lat="44.14957" lon="3.20753">
        <ele>732.8</ele>
        <time>2022-06-16T06:49:59Z</time>
      </trkpt>
      <trkpt lat="44.14952" lon="3.20774">
        <ele>733</ele>
        <time>2022-06-16T06:50:03Z</time>
      </trkpt>
      <trkpt lat="44.14945" lon="3.20798">
        <ele>733.2</ele>
        <time>2022-06-16T06:50:09Z</time>
      </trkpt>
      <trkpt lat="44.14944" lon="3.20801">
        <ele>733.4</ele>
        <time>2022-06-16T06:50:10Z</time>
      </trkpt>
      <trkpt lat="44.14941" lon="3.20806">
        <ele>733.6</ele>
        <time>2022-06-16T06:50:12Z</time>
      </trkpt>
      <trkpt lat="44.14938" lon="3.2081">
        <ele>733.6</ele>
        <time>2022-06-16T06:50:14Z</time>
      </trkpt>
      <trkpt lat="44.14936" lon="3.20816">
        <ele>733.8</ele>
        <time>2022-06-16T06:50:16Z</time>
      </trkpt>
      <trkpt lat="44.14936" lon="3.20819">
        <ele>733.8</ele>
        <time>2022-06-16T06:50:17Z</time>
      </trkpt>
      <trkpt lat="44.14934" lon="3.20844">
        <ele>733.8</ele>
        <time>2022-06-16T06:50:23Z</time>
      </trkpt>
      <trkpt lat="44.14933" lon="3.2087">
        <ele>733.8</ele>
        <time>2022-06-16T06:50:29Z</time>
      </trkpt>
      <trkpt lat="44.14931" lon="3.20879">
        <ele>734</ele>
        <time>2022-06-16T06:50:34Z</time>
      </trkpt>
      <trkpt lat="44.14929" lon="3.20884">
        <ele>734</ele>
        <time>2022-06-16T06:50:37Z</time>
      </trkpt>
      <trkpt lat="44.14927" lon="3.20889">
        <ele>734</ele>
        <time>2022-06-16T06:50:39Z</time>
      </trkpt>
      <trkpt lat="44.14919" lon="3.20903">
        <ele>734</ele>
        <time>2022-06-16T06:50:44Z</time>
      </trkpt>
      <trkpt lat="44.14916" lon="3.20927">
        <ele>733.8</ele>
        <time>2022-06-16T06:50:49Z</time>
      </trkpt>
      <trkpt lat="44.14915" lon="3.20957">
        <ele>733.2</ele>
        <time>2022-06-16T06:50:55Z</time>
      </trkpt>
      <trkpt lat="44.14922" lon="3.20972">
        <ele>733</ele>
        <time>2022-06-16T06:50:59Z</time>
      </trkpt>
      <trkpt lat="44.14934" lon="3.21002">
        <ele>732.6</ele>
        <time>2022-06-16T06:51:06Z</time>
      </trkpt>
      <trkpt lat="44.14946" lon="3.21038">
        <ele>732.2</ele>
        <time>2022-06-16T06:51:13Z</time>
      </trkpt>
      <trkpt lat="44.14954" lon="3.21063">
        <ele>731.4</ele>
        <time>2022-06-16T06:51:17Z</time>
      </trkpt>
      <trkpt lat="44.14955" lon="3.21068">
        <ele>731.2</ele>
        <time>2022-06-16T06:51:18Z</time>
      </trkpt>
      <trkpt lat="44.14959" lon="3.21081">
        <ele>730.8</ele>
        <time>2022-06-16T06:51:20Z</time>
      </trkpt>
      <trkpt lat="44.14964" lon="3.21091">
        <ele>730</ele>
        <time>2022-06-16T06:51:22Z</time>
      </trkpt>
      <trkpt lat="44.14966" lon="3.21095">
        <ele>730</ele>
        <time>2022-06-16T06:51:23Z</time>
      </trkpt>
      <trkpt lat="44.14974" lon="3.21112">
        <ele>728.8</ele>
        <time>2022-06-16T06:51:27Z</time>
      </trkpt>
      <trkpt lat="44.14977" lon="3.21121">
        <ele>728.6</ele>
        <time>2022-06-16T06:51:29Z</time>
      </trkpt>
      <trkpt lat="44.14984" lon="3.21147">
        <ele>727.6</ele>
        <time>2022-06-16T06:51:34Z</time>
      </trkpt>
      <trkpt lat="44.14985" lon="3.21152">
        <ele>727.6</ele>
        <time>2022-06-16T06:51:35Z</time>
      </trkpt>
      <trkpt lat="44.14987" lon="3.21168">
        <ele>727.4</ele>
        <time>2022-06-16T06:51:39Z</time>
      </trkpt>
      <trkpt lat="44.1499" lon="3.2118">
        <ele>726.6</ele>
        <time>2022-06-16T06:51:42Z</time>
      </trkpt>
      <trkpt lat="44.14991" lon="3.21191">
        <ele>725.4</ele>
        <time>2022-06-16T06:51:45Z</time>
      </trkpt>
      <trkpt lat="44.14992" lon="3.21204">
        <ele>724.4</ele>
        <time>2022-06-16T06:51:48Z</time>
      </trkpt>
      <trkpt lat="44.14992" lon="3.21214">
        <ele>723.8</ele>
        <time>2022-06-16T06:51:51Z</time>
      </trkpt>
      <trkpt lat="44.14991" lon="3.21222">
        <ele>722.8</ele>
        <time>2022-06-16T06:51:53Z</time>
      </trkpt>
      <trkpt lat="44.14989" lon="3.21237">
        <ele>721.4</ele>
        <time>2022-06-16T06:51:57Z</time>
      </trkpt>
      <trkpt lat="44.14988" lon="3.21247">
        <ele>720.4</ele>
        <time>2022-06-16T06:52:00Z</time>
      </trkpt>
      <trkpt lat="44.14988" lon="3.21248">
        <ele>719.8</ele>
        <time>2022-06-16T06:52:02Z</time>
      </trkpt>
      <trkpt lat="44.14988" lon="3.21248">
        <ele>718.6</ele>
        <time>2022-06-16T06:52:04Z</time>
      </trkpt>
      <trkpt lat="44.14989" lon="3.21251">
        <ele>717.4</ele>
        <time>2022-06-16T06:52:07Z</time>
      </trkpt>
      <trkpt lat="44.14988" lon="3.21258">
        <ele>717.2</ele>
        <time>2022-06-16T06:52:10Z</time>
      </trkpt>
      <trkpt lat="44.14987" lon="3.21262">
        <ele>717</ele>
        <time>2022-06-16T06:52:11Z</time>
      </trkpt>
      <trkpt lat="44.14983" lon="3.21274">
        <ele>716.2</ele>
        <time>2022-06-16T06:52:14Z</time>
      </trkpt>
      <trkpt lat="44.14981" lon="3.21288">
        <ele>715.2</ele>
        <time>2022-06-16T06:52:17Z</time>
      </trkpt>
      <trkpt lat="44.14981" lon="3.21303">
        <ele>714</ele>
        <time>2022-06-16T06:52:20Z</time>
      </trkpt>
      <trkpt lat="44.14981" lon="3.21309">
        <ele>713.4</ele>
        <time>2022-06-16T06:52:21Z</time>
      </trkpt>
      <trkpt lat="44.14978" lon="3.21321">
        <ele>712.8</ele>
        <time>2022-06-16T06:52:23Z</time>
      </trkpt>
      <trkpt lat="44.14976" lon="3.21333">
        <ele>712</ele>
        <time>2022-06-16T06:52:25Z</time>
      </trkpt>
      <trkpt lat="44.14973" lon="3.21347">
        <ele>711.4</ele>
        <time>2022-06-16T06:52:27Z</time>
      </trkpt>
      <trkpt lat="44.14973" lon="3.21352">
        <ele>711</ele>
        <time>2022-06-16T06:52:28Z</time>
      </trkpt>
      <trkpt lat="44.14973" lon="3.21363">
        <ele>710</ele>
        <time>2022-06-16T06:52:30Z</time>
      </trkpt>
      <trkpt lat="44.14973" lon="3.21378">
        <ele>708.6</ele>
        <time>2022-06-16T06:52:33Z</time>
      </trkpt>
      <trkpt lat="44.14973" lon="3.21383">
        <ele>708.2</ele>
        <time>2022-06-16T06:52:34Z</time>
      </trkpt>
      <trkpt lat="44.14971" lon="3.21401">
        <ele>707.2</ele>
        <time>2022-06-16T06:52:37Z</time>
      </trkpt>
      <trkpt lat="44.14968" lon="3.21411">
        <ele>705.6</ele>
        <time>2022-06-16T06:52:39Z</time>
      </trkpt>
      <trkpt lat="44.14962" lon="3.21426">
        <ele>704.2</ele>
        <time>2022-06-16T06:52:42Z</time>
      </trkpt>
      <trkpt lat="44.14955" lon="3.21439">
        <ele>703.2</ele>
        <time>2022-06-16T06:52:45Z</time>
      </trkpt>
      <trkpt lat="44.14938" lon="3.21462">
        <ele>701.6</ele>
        <time>2022-06-16T06:52:50Z</time>
      </trkpt>
      <trkpt lat="44.14934" lon="3.21464">
        <ele>700.8</ele>
        <time>2022-06-16T06:52:51Z</time>
      </trkpt>
      <trkpt lat="44.14928" lon="3.21465">
        <ele>700.4</ele>
        <time>2022-06-16T06:52:52Z</time>
      </trkpt>
      <trkpt lat="44.14917" lon="3.21467">
        <ele>699</ele>
        <time>2022-06-16T06:52:54Z</time>
      </trkpt>
      <trkpt lat="44.1491" lon="3.2147">
        <ele>697.8</ele>
        <time>2022-06-16T06:52:56Z</time>
      </trkpt>
      <trkpt lat="44.14899" lon="3.21472">
        <ele>697.2</ele>
        <time>2022-06-16T06:52:58Z</time>
      </trkpt>
      <trkpt lat="44.14893" lon="3.21475">
        <ele>696.8</ele>
        <time>2022-06-16T06:52:59Z</time>
      </trkpt>
      <trkpt lat="44.14888" lon="3.21477">
        <ele>696.4</ele>
        <time>2022-06-16T06:53:00Z</time>
      </trkpt>
      <trkpt lat="44.14883" lon="3.21478">
        <ele>696.2</ele>
        <time>2022-06-16T06:53:01Z</time>
      </trkpt>
      <trkpt lat="44.14876" lon="3.21479">
        <ele>695.6</ele>
        <time>2022-06-16T06:53:03Z</time>
      </trkpt>
      <trkpt lat="44.14873" lon="3.21479">
        <ele>695.4</ele>
        <time>2022-06-16T06:53:04Z</time>
      </trkpt>
      <trkpt lat="44.14863" lon="3.21479">
        <ele>694.8</ele>
        <time>2022-06-16T06:53:08Z</time>
      </trkpt>
      <trkpt lat="44.14858" lon="3.21482">
        <ele>694.4</ele>
        <time>2022-06-16T06:53:11Z</time>
      </trkpt>
      <trkpt lat="44.14852" lon="3.21483">
        <ele>694.2</ele>
        <time>2022-06-16T06:53:13Z</time>
      </trkpt>
      <trkpt lat="44.14836" lon="3.21486">
        <ele>692.8</ele>
        <time>2022-06-16T06:53:18Z</time>
      </trkpt>
      <trkpt lat="44.14828" lon="3.21488">
        <ele>691.4</ele>
        <time>2022-06-16T06:53:21Z</time>
      </trkpt>
      <trkpt lat="44.14824" lon="3.21487">
        <ele>690.6</ele>
        <time>2022-06-16T06:53:23Z</time>
      </trkpt>
      <trkpt lat="44.14822" lon="3.21487">
        <ele>690.2</ele>
        <time>2022-06-16T06:53:24Z</time>
      </trkpt>
      <trkpt lat="44.14818" lon="3.21489">
        <ele>689.4</ele>
        <time>2022-06-16T06:53:26Z</time>
      </trkpt>
      <trkpt lat="44.14817" lon="3.21491">
        <ele>689.2</ele>
        <time>2022-06-16T06:53:27Z</time>
      </trkpt>
      <trkpt lat="44.14818" lon="3.21496">
        <ele>688.6</ele>
        <time>2022-06-16T06:53:29Z</time>
      </trkpt>
      <trkpt lat="44.1482" lon="3.21502">
        <ele>688</ele>
        <time>2022-06-16T06:53:31Z</time>
      </trkpt>
      <trkpt lat="44.14821" lon="3.21505">
        <ele>687.4</ele>
        <time>2022-06-16T06:53:32Z</time>
      </trkpt>
      <trkpt lat="44.14823" lon="3.21507">
        <ele>687</ele>
        <time>2022-06-16T06:53:33Z</time>
      </trkpt>
      <trkpt lat="44.14823" lon="3.2151">
        <ele>686.6</ele>
        <time>2022-06-16T06:53:34Z</time>
      </trkpt>
      <trkpt lat="44.14825" lon="3.21517">
        <ele>685.8</ele>
        <time>2022-06-16T06:53:36Z</time>
      </trkpt>
      <trkpt lat="44.14829" lon="3.21528">
        <ele>684.6</ele>
        <time>2022-06-16T06:53:39Z</time>
      </trkpt>
      <trkpt lat="44.1483" lon="3.21537">
        <ele>684</ele>
        <time>2022-06-16T06:53:41Z</time>
      </trkpt>
      <trkpt lat="44.14831" lon="3.21541">
        <ele>683.2</ele>
        <time>2022-06-16T06:53:42Z</time>
      </trkpt>
      <trkpt lat="44.14835" lon="3.21551">
        <ele>682.2</ele>
        <time>2022-06-16T06:53:45Z</time>
      </trkpt>
      <trkpt lat="44.14836" lon="3.21554">
        <ele>681.8</ele>
        <time>2022-06-16T06:53:46Z</time>
      </trkpt>
      <trkpt lat="44.14837" lon="3.21557">
        <ele>681.2</ele>
        <time>2022-06-16T06:53:47Z</time>
      </trkpt>
      <trkpt lat="44.14839" lon="3.21564">
        <ele>680</ele>
        <time>2022-06-16T06:53:50Z</time>
      </trkpt>
      <trkpt lat="44.1484" lon="3.21567">
        <ele>679.6</ele>
        <time>2022-06-16T06:53:51Z</time>
      </trkpt>
      <trkpt lat="44.14839" lon="3.21569">
        <ele>679</ele>
        <time>2022-06-16T06:53:52Z</time>
      </trkpt>
      <trkpt lat="44.14836" lon="3.21573">
        <ele>677.8</ele>
        <time>2022-06-16T06:53:54Z</time>
      </trkpt>
      <trkpt lat="44.1483" lon="3.21573">
        <ele>677.2</ele>
        <time>2022-06-16T06:53:56Z</time>
      </trkpt>
      <trkpt lat="44.14824" lon="3.21572">
        <ele>676.6</ele>
        <time>2022-06-16T06:53:58Z</time>
      </trkpt>
      <trkpt lat="44.1482" lon="3.21571">
        <ele>675.4</ele>
        <time>2022-06-16T06:54:00Z</time>
      </trkpt>
      <trkpt lat="44.14817" lon="3.21571">
        <ele>674.6</ele>
        <time>2022-06-16T06:54:01Z</time>
      </trkpt>
      <trkpt lat="44.14815" lon="3.2157">
        <ele>674.2</ele>
        <time>2022-06-16T06:54:02Z</time>
      </trkpt>
      <trkpt lat="44.14808" lon="3.21567">
        <ele>673</ele>
        <time>2022-06-16T06:54:05Z</time>
      </trkpt>
      <trkpt lat="44.14802" lon="3.21566">
        <ele>672</ele>
        <time>2022-06-16T06:54:08Z</time>
      </trkpt>
      <trkpt lat="44.14793" lon="3.21561">
        <ele>670.6</ele>
        <time>2022-06-16T06:54:12Z</time>
      </trkpt>
      <trkpt lat="44.14789" lon="3.2156">
        <ele>670.2</ele>
        <time>2022-06-16T06:54:13Z</time>
      </trkpt>
      <trkpt lat="44.14784" lon="3.21559">
        <ele>669.6</ele>
        <time>2022-06-16T06:54:14Z</time>
      </trkpt>
      <trkpt lat="44.1478" lon="3.2156">
        <ele>668.8</ele>
        <time>2022-06-16T06:54:15Z</time>
      </trkpt>
      <trkpt lat="44.14772" lon="3.21559">
        <ele>667.4</ele>
        <time>2022-06-16T06:54:17Z</time>
      </trkpt>
      <trkpt lat="44.14761" lon="3.2156">
        <ele>666.2</ele>
        <time>2022-06-16T06:54:20Z</time>
      </trkpt>
      <trkpt lat="44.14757" lon="3.2156">
        <ele>665.2</ele>
        <time>2022-06-16T06:54:21Z</time>
      </trkpt>
      <trkpt lat="44.14749" lon="3.21562">
        <ele>663.6</ele>
        <time>2022-06-16T06:54:24Z</time>
      </trkpt>
      <trkpt lat="44.14737" lon="3.21566">
        <ele>662.2</ele>
        <time>2022-06-16T06:54:28Z</time>
      </trkpt>
      <trkpt lat="44.14733" lon="3.21569">
        <ele>661.2</ele>
        <time>2022-06-16T06:54:30Z</time>
      </trkpt>
      <trkpt lat="44.1473" lon="3.21571">
        <ele>660.8</ele>
        <time>2022-06-16T06:54:31Z</time>
      </trkpt>
      <trkpt lat="44.14725" lon="3.21573">
        <ele>660.2</ele>
        <time>2022-06-16T06:54:33Z</time>
      </trkpt>
      <trkpt lat="44.14716" lon="3.21576">
        <ele>658.6</ele>
        <time>2022-06-16T06:54:36Z</time>
      </trkpt>
      <trkpt lat="44.14714" lon="3.21577">
        <ele>658.4</ele>
        <time>2022-06-16T06:54:37Z</time>
      </trkpt>
      <trkpt lat="44.14713" lon="3.21579">
        <ele>657.8</ele>
        <time>2022-06-16T06:54:38Z</time>
      </trkpt>
      <trkpt lat="44.14713" lon="3.21582">
        <ele>657.6</ele>
        <time>2022-06-16T06:54:39Z</time>
      </trkpt>
      <trkpt lat="44.14715" lon="3.21586">
        <ele>656.6</ele>
        <time>2022-06-16T06:54:41Z</time>
      </trkpt>
      <trkpt lat="44.14717" lon="3.21589">
        <ele>656</ele>
        <time>2022-06-16T06:54:42Z</time>
      </trkpt>
      <trkpt lat="44.14719" lon="3.21591">
        <ele>655.6</ele>
        <time>2022-06-16T06:54:43Z</time>
      </trkpt>
      <trkpt lat="44.14727" lon="3.216">
        <ele>654.4</ele>
        <time>2022-06-16T06:54:47Z</time>
      </trkpt>
      <trkpt lat="44.1473" lon="3.21603">
        <ele>653.8</ele>
        <time>2022-06-16T06:54:49Z</time>
      </trkpt>
      <trkpt lat="44.1473" lon="3.21605">
        <ele>653.2</ele>
        <time>2022-06-16T06:54:50Z</time>
      </trkpt>
      <trkpt lat="44.14728" lon="3.21606">
        <ele>652</ele>
        <time>2022-06-16T06:54:53Z</time>
      </trkpt>
      <trkpt lat="44.1472" lon="3.21606">
        <ele>651</ele>
        <time>2022-06-16T06:54:56Z</time>
      </trkpt>
      <trkpt lat="44.14711" lon="3.21605">
        <ele>650.2</ele>
        <time>2022-06-16T06:54:59Z</time>
      </trkpt>
      <trkpt lat="44.14708" lon="3.21604">
        <ele>650</ele>
        <time>2022-06-16T06:55:00Z</time>
      </trkpt>
      <trkpt lat="44.14699" lon="3.21601">
        <ele>649.2</ele>
        <time>2022-06-16T06:55:03Z</time>
      </trkpt>
      <trkpt lat="44.14697" lon="3.21599">
        <ele>648.8</ele>
        <time>2022-06-16T06:55:04Z</time>
      </trkpt>
      <trkpt lat="44.14693" lon="3.21596">
        <ele>648.2</ele>
        <time>2022-06-16T06:55:06Z</time>
      </trkpt>
      <trkpt lat="44.1469" lon="3.21598">
        <ele>647.6</ele>
        <time>2022-06-16T06:55:08Z</time>
      </trkpt>
      <trkpt lat="44.14686" lon="3.21613">
        <ele>646</ele>
        <time>2022-06-16T06:55:13Z</time>
      </trkpt>
      <trkpt lat="44.14686" lon="3.21615">
        <ele>645.8</ele>
        <time>2022-06-16T06:55:14Z</time>
      </trkpt>
      <trkpt lat="44.14687" lon="3.21619">
        <ele>644.8</ele>
        <time>2022-06-16T06:55:16Z</time>
      </trkpt>
      <trkpt lat="44.14689" lon="3.2162">
        <ele>644.2</ele>
        <time>2022-06-16T06:55:17Z</time>
      </trkpt>
      <trkpt lat="44.14692" lon="3.2162">
        <ele>643.6</ele>
        <time>2022-06-16T06:55:19Z</time>
      </trkpt>
      <trkpt lat="44.147" lon="3.21621">
        <ele>642.8</ele>
        <time>2022-06-16T06:55:24Z</time>
      </trkpt>
      <trkpt lat="44.14709" lon="3.21623">
        <ele>643</ele>
        <time>2022-06-16T06:55:30Z</time>
      </trkpt>
      <trkpt lat="44.1471" lon="3.21624">
        <ele>643</ele>
        <time>2022-06-16T06:55:31Z</time>
      </trkpt>
      <trkpt lat="44.14707" lon="3.21622">
        <ele>643.4</ele>
        <time>2022-06-16T06:55:36Z</time>
      </trkpt>
      <trkpt lat="44.14696" lon="3.21618">
        <ele>643.4</ele>
        <time>2022-06-16T06:55:41Z</time>
      </trkpt>
      <trkpt lat="44.14682" lon="3.21624">
        <ele>642.6</ele>
        <time>2022-06-16T06:55:47Z</time>
      </trkpt>
      <trkpt lat="44.14679" lon="3.21627">
        <ele>642.2</ele>
        <time>2022-06-16T06:55:49Z</time>
      </trkpt>
      <trkpt lat="44.14674" lon="3.21634">
        <ele>642</ele>
        <time>2022-06-16T06:55:52Z</time>
      </trkpt>
      <trkpt lat="44.14657" lon="3.21649">
        <ele>641.4</ele>
        <time>2022-06-16T06:55:56Z</time>
      </trkpt>
      <trkpt lat="44.14648" lon="3.2166">
        <ele>641.2</ele>
        <time>2022-06-16T06:55:59Z</time>
      </trkpt>
      <trkpt lat="44.14634" lon="3.21675">
        <ele>640.4</ele>
        <time>2022-06-16T06:56:02Z</time>
      </trkpt>
      <trkpt lat="44.14624" lon="3.21686">
        <ele>640.2</ele>
        <time>2022-06-16T06:56:04Z</time>
      </trkpt>
      <trkpt lat="44.14612" lon="3.21691">
        <ele>639.6</ele>
        <time>2022-06-16T06:56:06Z</time>
      </trkpt>
      <trkpt lat="44.14606" lon="3.21691">
        <ele>639.4</ele>
        <time>2022-06-16T06:56:07Z</time>
      </trkpt>
      <trkpt lat="44.1459" lon="3.2169">
        <ele>639</ele>
        <time>2022-06-16T06:56:09Z</time>
      </trkpt>
      <trkpt lat="44.14583" lon="3.21689">
        <ele>638.8</ele>
        <time>2022-06-16T06:56:10Z</time>
      </trkpt>
      <trkpt lat="44.14573" lon="3.21684">
        <ele>638.6</ele>
        <time>2022-06-16T06:56:12Z</time>
      </trkpt>
      <trkpt lat="44.14562" lon="3.21684">
        <ele>637.8</ele>
        <time>2022-06-16T06:56:14Z</time>
      </trkpt>
      <trkpt lat="44.14535" lon="3.21688">
        <ele>636.6</ele>
        <time>2022-06-16T06:56:18Z</time>
      </trkpt>
      <trkpt lat="44.14529" lon="3.21689">
        <ele>636.4</ele>
        <time>2022-06-16T06:56:19Z</time>
      </trkpt>
      <trkpt lat="44.14503" lon="3.21698">
        <ele>635.4</ele>
        <time>2022-06-16T06:56:23Z</time>
      </trkpt>
      <trkpt lat="44.14497" lon="3.217">
        <ele>635.4</ele>
        <time>2022-06-16T06:56:24Z</time>
      </trkpt>
      <trkpt lat="44.14491" lon="3.21699">
        <ele>635</ele>
        <time>2022-06-16T06:56:25Z</time>
      </trkpt>
      <trkpt lat="44.14485" lon="3.21697">
        <ele>634.8</ele>
        <time>2022-06-16T06:56:26Z</time>
      </trkpt>
      <trkpt lat="44.14474" lon="3.21692">
        <ele>634.2</ele>
        <time>2022-06-16T06:56:28Z</time>
      </trkpt>
      <trkpt lat="44.14468" lon="3.21691">
        <ele>634.2</ele>
        <time>2022-06-16T06:56:29Z</time>
      </trkpt>
      <trkpt lat="44.14463" lon="3.2169">
        <ele>634</ele>
        <time>2022-06-16T06:56:30Z</time>
      </trkpt>
      <trkpt lat="44.14427" lon="3.21679">
        <ele>633.2</ele>
        <time>2022-06-16T06:56:36Z</time>
      </trkpt>
      <trkpt lat="44.14421" lon="3.21676">
        <ele>633</ele>
        <time>2022-06-16T06:56:37Z</time>
      </trkpt>
      <trkpt lat="44.14395" lon="3.21667">
        <ele>632.4</ele>
        <time>2022-06-16T06:56:41Z</time>
      </trkpt>
      <trkpt lat="44.14383" lon="3.21661">
        <ele>632</ele>
        <time>2022-06-16T06:56:43Z</time>
      </trkpt>
      <trkpt lat="44.14377" lon="3.21656">
        <ele>631.6</ele>
        <time>2022-06-16T06:56:44Z</time>
      </trkpt>
      <trkpt lat="44.14362" lon="3.21643">
        <ele>631.4</ele>
        <time>2022-06-16T06:56:47Z</time>
      </trkpt>
      <trkpt lat="44.14354" lon="3.21632">
        <ele>630.8</ele>
        <time>2022-06-16T06:56:49Z</time>
      </trkpt>
      <trkpt lat="44.14346" lon="3.21622">
        <ele>630.6</ele>
        <time>2022-06-16T06:56:51Z</time>
      </trkpt>
      <trkpt lat="44.14323" lon="3.21592">
        <ele>629.8</ele>
        <time>2022-06-16T06:56:57Z</time>
      </trkpt>
      <trkpt lat="44.14319" lon="3.21588">
        <ele>629.6</ele>
        <time>2022-06-16T06:56:58Z</time>
      </trkpt>
      <trkpt lat="44.14314" lon="3.21584">
        <ele>629.4</ele>
        <time>2022-06-16T06:56:59Z</time>
      </trkpt>
      <trkpt lat="44.14306" lon="3.2158">
        <ele>629</ele>
        <time>2022-06-16T06:57:01Z</time>
      </trkpt>
      <trkpt lat="44.14301" lon="3.2158">
        <ele>628.8</ele>
        <time>2022-06-16T06:57:02Z</time>
      </trkpt>
      <trkpt lat="44.14295" lon="3.2158">
        <ele>628.6</ele>
        <time>2022-06-16T06:57:03Z</time>
      </trkpt>
      <trkpt lat="44.1429" lon="3.21581">
        <ele>628.2</ele>
        <time>2022-06-16T06:57:04Z</time>
      </trkpt>
      <trkpt lat="44.14285" lon="3.21584">
        <ele>628</ele>
        <time>2022-06-16T06:57:05Z</time>
      </trkpt>
      <trkpt lat="44.14282" lon="3.21587">
        <ele>627.8</ele>
        <time>2022-06-16T06:57:06Z</time>
      </trkpt>
      <trkpt lat="44.14278" lon="3.21592">
        <ele>627.4</ele>
        <time>2022-06-16T06:57:07Z</time>
      </trkpt>
      <trkpt lat="44.14275" lon="3.21597">
        <ele>627.2</ele>
        <time>2022-06-16T06:57:08Z</time>
      </trkpt>
      <trkpt lat="44.14273" lon="3.21601">
        <ele>626.8</ele>
        <time>2022-06-16T06:57:09Z</time>
      </trkpt>
      <trkpt lat="44.14267" lon="3.21606">
        <ele>625.8</ele>
        <time>2022-06-16T06:57:10Z</time>
      </trkpt>
      <trkpt lat="44.14256" lon="3.2161">
        <ele>625</ele>
        <time>2022-06-16T06:57:12Z</time>
      </trkpt>
      <trkpt lat="44.14249" lon="3.21611">
        <ele>624.8</ele>
        <time>2022-06-16T06:57:13Z</time>
      </trkpt>
      <trkpt lat="44.14241" lon="3.2161">
        <ele>624.2</ele>
        <time>2022-06-16T06:57:14Z</time>
      </trkpt>
      <trkpt lat="44.14231" lon="3.21608">
        <ele>623.2</ele>
        <time>2022-06-16T06:57:16Z</time>
      </trkpt>
      <trkpt lat="44.14222" lon="3.21607">
        <ele>622.4</ele>
        <time>2022-06-16T06:57:17Z</time>
      </trkpt>
      <trkpt lat="44.14216" lon="3.21606">
        <ele>622.2</ele>
        <time>2022-06-16T06:57:18Z</time>
      </trkpt>
      <trkpt lat="44.14209" lon="3.21607">
        <ele>621.6</ele>
        <time>2022-06-16T06:57:19Z</time>
      </trkpt>
      <trkpt lat="44.14204" lon="3.21609">
        <ele>621.4</ele>
        <time>2022-06-16T06:57:20Z</time>
      </trkpt>
      <trkpt lat="44.14197" lon="3.21612">
        <ele>620.8</ele>
        <time>2022-06-16T06:57:21Z</time>
      </trkpt>
      <trkpt lat="44.14182" lon="3.21621">
        <ele>619.4</ele>
        <time>2022-06-16T06:57:24Z</time>
      </trkpt>
      <trkpt lat="44.14162" lon="3.21628">
        <ele>618.2</ele>
        <time>2022-06-16T06:57:27Z</time>
      </trkpt>
      <trkpt lat="44.14156" lon="3.21629">
        <ele>617.4</ele>
        <time>2022-06-16T06:57:28Z</time>
      </trkpt>
      <trkpt lat="44.14151" lon="3.21631">
        <ele>616.8</ele>
        <time>2022-06-16T06:57:29Z</time>
      </trkpt>
      <trkpt lat="44.14147" lon="3.21632">
        <ele>616.2</ele>
        <time>2022-06-16T06:57:30Z</time>
      </trkpt>
      <trkpt lat="44.14144" lon="3.21632">
        <ele>615.6</ele>
        <time>2022-06-16T06:57:31Z</time>
      </trkpt>
      <trkpt lat="44.14139" lon="3.21633">
        <ele>615.4</ele>
        <time>2022-06-16T06:57:32Z</time>
      </trkpt>
      <trkpt lat="44.14129" lon="3.21636">
        <ele>614.4</ele>
        <time>2022-06-16T06:57:34Z</time>
      </trkpt>
      <trkpt lat="44.14116" lon="3.2164">
        <ele>613.2</ele>
        <time>2022-06-16T06:57:37Z</time>
      </trkpt>
      <trkpt lat="44.14102" lon="3.21648">
        <ele>612.2</ele>
        <time>2022-06-16T06:57:40Z</time>
      </trkpt>
      <trkpt lat="44.14091" lon="3.21653">
        <ele>611</ele>
        <time>2022-06-16T06:57:44Z</time>
      </trkpt>
      <trkpt lat="44.1408" lon="3.21656">
        <ele>609.2</ele>
        <time>2022-06-16T06:57:47Z</time>
      </trkpt>
      <trkpt lat="44.14075" lon="3.21656">
        <ele>609</ele>
        <time>2022-06-16T06:57:48Z</time>
      </trkpt>
      <trkpt lat="44.1407" lon="3.21657">
        <ele>608.6</ele>
        <time>2022-06-16T06:57:49Z</time>
      </trkpt>
      <trkpt lat="44.14055" lon="3.21661">
        <ele>608</ele>
        <time>2022-06-16T06:57:51Z</time>
      </trkpt>
      <trkpt lat="44.14047" lon="3.21664">
        <ele>607.2</ele>
        <time>2022-06-16T06:57:53Z</time>
      </trkpt>
      <trkpt lat="44.14042" lon="3.21666">
        <ele>606.8</ele>
        <time>2022-06-16T06:57:54Z</time>
      </trkpt>
      <trkpt lat="44.14032" lon="3.21668">
        <ele>605.4</ele>
        <time>2022-06-16T06:57:56Z</time>
      </trkpt>
      <trkpt lat="44.1402" lon="3.21667">
        <ele>604.4</ele>
        <time>2022-06-16T06:57:58Z</time>
      </trkpt>
      <trkpt lat="44.14015" lon="3.21667">
        <ele>604.2</ele>
        <time>2022-06-16T06:57:59Z</time>
      </trkpt>
      <trkpt lat="44.13998" lon="3.21664">
        <ele>603</ele>
        <time>2022-06-16T06:58:02Z</time>
      </trkpt>
      <trkpt lat="44.13985" lon="3.21664">
        <ele>602</ele>
        <time>2022-06-16T06:58:04Z</time>
      </trkpt>
      <trkpt lat="44.13969" lon="3.21663">
        <ele>600.6</ele>
        <time>2022-06-16T06:58:07Z</time>
      </trkpt>
      <trkpt lat="44.13952" lon="3.21661">
        <ele>599</ele>
        <time>2022-06-16T06:58:10Z</time>
      </trkpt>
      <trkpt lat="44.13938" lon="3.2166">
        <ele>597.8</ele>
        <time>2022-06-16T06:58:13Z</time>
      </trkpt>
      <trkpt lat="44.13932" lon="3.2166">
        <ele>597</ele>
        <time>2022-06-16T06:58:15Z</time>
      </trkpt>
      <trkpt lat="44.13929" lon="3.21662">
        <ele>596.8</ele>
        <time>2022-06-16T06:58:16Z</time>
      </trkpt>
      <trkpt lat="44.1392" lon="3.21674">
        <ele>595.2</ele>
        <time>2022-06-16T06:58:19Z</time>
      </trkpt>
      <trkpt lat="44.13904" lon="3.21689">
        <ele>593.8</ele>
        <time>2022-06-16T06:58:22Z</time>
      </trkpt>
      <trkpt lat="44.13898" lon="3.217">
        <ele>592.8</ele>
        <time>2022-06-16T06:58:24Z</time>
      </trkpt>
      <trkpt lat="44.13896" lon="3.21706">
        <ele>592.4</ele>
        <time>2022-06-16T06:58:25Z</time>
      </trkpt>
      <trkpt lat="44.13893" lon="3.2172">
        <ele>591.8</ele>
        <time>2022-06-16T06:58:27Z</time>
      </trkpt>
      <trkpt lat="44.13891" lon="3.21727">
        <ele>591.6</ele>
        <time>2022-06-16T06:58:28Z</time>
      </trkpt>
      <trkpt lat="44.13888" lon="3.21732">
        <ele>591</ele>
        <time>2022-06-16T06:58:29Z</time>
      </trkpt>
      <trkpt lat="44.13872" lon="3.21743">
        <ele>590.2</ele>
        <time>2022-06-16T06:58:31Z</time>
      </trkpt>
      <trkpt lat="44.13866" lon="3.21746">
        <ele>590.2</ele>
        <time>2022-06-16T06:58:32Z</time>
      </trkpt>
      <trkpt lat="44.1385" lon="3.21748">
        <ele>589</ele>
        <time>2022-06-16T06:58:35Z</time>
      </trkpt>
      <trkpt lat="44.13846" lon="3.21745">
        <ele>588.2</ele>
        <time>2022-06-16T06:58:36Z</time>
      </trkpt>
      <trkpt lat="44.13841" lon="3.21743">
        <ele>588</ele>
        <time>2022-06-16T06:58:37Z</time>
      </trkpt>
      <trkpt lat="44.13829" lon="3.21733">
        <ele>586.8</ele>
        <time>2022-06-16T06:58:41Z</time>
      </trkpt>
      <trkpt lat="44.13825" lon="3.21729">
        <ele>586.4</ele>
        <time>2022-06-16T06:58:42Z</time>
      </trkpt>
      <trkpt lat="44.13815" lon="3.21725">
        <ele>586</ele>
        <time>2022-06-16T06:58:43Z</time>
      </trkpt>
      <trkpt lat="44.13803" lon="3.21716">
        <ele>585.4</ele>
        <time>2022-06-16T06:58:45Z</time>
      </trkpt>
      <trkpt lat="44.13797" lon="3.21712">
        <ele>585.2</ele>
        <time>2022-06-16T06:58:46Z</time>
      </trkpt>
      <trkpt lat="44.13786" lon="3.21705">
        <ele>584.6</ele>
        <time>2022-06-16T06:58:48Z</time>
      </trkpt>
      <trkpt lat="44.13781" lon="3.21703">
        <ele>584.2</ele>
        <time>2022-06-16T06:58:49Z</time>
      </trkpt>
      <trkpt lat="44.13772" lon="3.217">
        <ele>583.6</ele>
        <time>2022-06-16T06:58:51Z</time>
      </trkpt>
      <trkpt lat="44.13768" lon="3.217">
        <ele>582.8</ele>
        <time>2022-06-16T06:58:52Z</time>
      </trkpt>
      <trkpt lat="44.13764" lon="3.21702">
        <ele>582.6</ele>
        <time>2022-06-16T06:58:53Z</time>
      </trkpt>
      <trkpt lat="44.13756" lon="3.2171">
        <ele>581.8</ele>
        <time>2022-06-16T06:58:55Z</time>
      </trkpt>
      <trkpt lat="44.13752" lon="3.21716">
        <ele>581.2</ele>
        <time>2022-06-16T06:58:56Z</time>
      </trkpt>
      <trkpt lat="44.13744" lon="3.21728">
        <ele>580.4</ele>
        <time>2022-06-16T06:58:58Z</time>
      </trkpt>
      <trkpt lat="44.1374" lon="3.21736">
        <ele>580</ele>
        <time>2022-06-16T06:58:59Z</time>
      </trkpt>
      <trkpt lat="44.13737" lon="3.21744">
        <ele>579.6</ele>
        <time>2022-06-16T06:59:00Z</time>
      </trkpt>
      <trkpt lat="44.13732" lon="3.2176">
        <ele>578.8</ele>
        <time>2022-06-16T06:59:02Z</time>
      </trkpt>
      <trkpt lat="44.13724" lon="3.21772">
        <ele>577.4</ele>
        <time>2022-06-16T06:59:04Z</time>
      </trkpt>
      <trkpt lat="44.13714" lon="3.21779">
        <ele>576.8</ele>
        <time>2022-06-16T06:59:06Z</time>
      </trkpt>
      <trkpt lat="44.13708" lon="3.2178">
        <ele>576.4</ele>
        <time>2022-06-16T06:59:07Z</time>
      </trkpt>
      <trkpt lat="44.13695" lon="3.21779">
        <ele>575.2</ele>
        <time>2022-06-16T06:59:09Z</time>
      </trkpt>
      <trkpt lat="44.13688" lon="3.21777">
        <ele>574.6</ele>
        <time>2022-06-16T06:59:10Z</time>
      </trkpt>
      <trkpt lat="44.13682" lon="3.21775">
        <ele>574.2</ele>
        <time>2022-06-16T06:59:11Z</time>
      </trkpt>
      <trkpt lat="44.13676" lon="3.21772">
        <ele>573.8</ele>
        <time>2022-06-16T06:59:12Z</time>
      </trkpt>
      <trkpt lat="44.1367" lon="3.21768">
        <ele>573.2</ele>
        <time>2022-06-16T06:59:13Z</time>
      </trkpt>
      <trkpt lat="44.13664" lon="3.21765">
        <ele>572.8</ele>
        <time>2022-06-16T06:59:14Z</time>
      </trkpt>
      <trkpt lat="44.13659" lon="3.21761">
        <ele>572</ele>
        <time>2022-06-16T06:59:15Z</time>
      </trkpt>
      <trkpt lat="44.13648" lon="3.21752">
        <ele>571.4</ele>
        <time>2022-06-16T06:59:17Z</time>
      </trkpt>
      <trkpt lat="44.13644" lon="3.21748">
        <ele>571</ele>
        <time>2022-06-16T06:59:18Z</time>
      </trkpt>
      <trkpt lat="44.13635" lon="3.2174">
        <ele>570.4</ele>
        <time>2022-06-16T06:59:20Z</time>
      </trkpt>
      <trkpt lat="44.13631" lon="3.21736">
        <ele>570.2</ele>
        <time>2022-06-16T06:59:21Z</time>
      </trkpt>
      <trkpt lat="44.13626" lon="3.21735">
        <ele>569.6</ele>
        <time>2022-06-16T06:59:22Z</time>
      </trkpt>
      <trkpt lat="44.13618" lon="3.2174">
        <ele>568.8</ele>
        <time>2022-06-16T06:59:24Z</time>
      </trkpt>
      <trkpt lat="44.13615" lon="3.21745">
        <ele>568.2</ele>
        <time>2022-06-16T06:59:25Z</time>
      </trkpt>
      <trkpt lat="44.13615" lon="3.21749">
        <ele>568</ele>
        <time>2022-06-16T06:59:26Z</time>
      </trkpt>
      <trkpt lat="44.13615" lon="3.21752">
        <ele>567.4</ele>
        <time>2022-06-16T06:59:27Z</time>
      </trkpt>
      <trkpt lat="44.13615" lon="3.21755">
        <ele>566.8</ele>
        <time>2022-06-16T06:59:28Z</time>
      </trkpt>
      <trkpt lat="44.13616" lon="3.21757">
        <ele>566.2</ele>
        <time>2022-06-16T06:59:29Z</time>
      </trkpt>
      <trkpt lat="44.13617" lon="3.21759">
        <ele>565.8</ele>
        <time>2022-06-16T06:59:30Z</time>
      </trkpt>
      <trkpt lat="44.13619" lon="3.21761">
        <ele>565.4</ele>
        <time>2022-06-16T06:59:31Z</time>
      </trkpt>
      <trkpt lat="44.13625" lon="3.21767">
        <ele>564.8</ele>
        <time>2022-06-16T06:59:33Z</time>
      </trkpt>
      <trkpt lat="44.13629" lon="3.21769">
        <ele>564.4</ele>
        <time>2022-06-16T06:59:34Z</time>
      </trkpt>
      <trkpt lat="44.13633" lon="3.21772">
        <ele>564.2</ele>
        <time>2022-06-16T06:59:35Z</time>
      </trkpt>
      <trkpt lat="44.13646" lon="3.2178">
        <ele>563.8</ele>
        <time>2022-06-16T06:59:38Z</time>
      </trkpt>
      <trkpt lat="44.13651" lon="3.21783">
        <ele>563.4</ele>
        <time>2022-06-16T06:59:39Z</time>
      </trkpt>
      <trkpt lat="44.13661" lon="3.2179">
        <ele>563</ele>
        <time>2022-06-16T06:59:41Z</time>
      </trkpt>
      <trkpt lat="44.13669" lon="3.21799">
        <ele>562.4</ele>
        <time>2022-06-16T06:59:43Z</time>
      </trkpt>
      <trkpt lat="44.13673" lon="3.21809">
        <ele>561.8</ele>
        <time>2022-06-16T06:59:45Z</time>
      </trkpt>
      <trkpt lat="44.13673" lon="3.21818">
        <ele>561.2</ele>
        <time>2022-06-16T06:59:46Z</time>
      </trkpt>
      <trkpt lat="44.13672" lon="3.21824">
        <ele>560.8</ele>
        <time>2022-06-16T06:59:47Z</time>
      </trkpt>
      <trkpt lat="44.1367" lon="3.21831">
        <ele>560.4</ele>
        <time>2022-06-16T06:59:48Z</time>
      </trkpt>
      <trkpt lat="44.13666" lon="3.21835">
        <ele>560.4</ele>
        <time>2022-06-16T06:59:49Z</time>
      </trkpt>
      <trkpt lat="44.13661" lon="3.21838">
        <ele>560</ele>
        <time>2022-06-16T06:59:50Z</time>
      </trkpt>
      <trkpt lat="44.13654" lon="3.21839">
        <ele>559.8</ele>
        <time>2022-06-16T06:59:51Z</time>
      </trkpt>
      <trkpt lat="44.13628" lon="3.21835">
        <ele>559</ele>
        <time>2022-06-16T06:59:56Z</time>
      </trkpt>
      <trkpt lat="44.13597" lon="3.21838">
        <ele>557.8</ele>
        <time>2022-06-16T07:00:01Z</time>
      </trkpt>
      <trkpt lat="44.13589" lon="3.21838">
        <ele>557.2</ele>
        <time>2022-06-16T07:00:02Z</time>
      </trkpt>
      <trkpt lat="44.13571" lon="3.21835">
        <ele>556.2</ele>
        <time>2022-06-16T07:00:04Z</time>
      </trkpt>
      <trkpt lat="44.13558" lon="3.21832">
        <ele>555.4</ele>
        <time>2022-06-16T07:00:06Z</time>
      </trkpt>
      <trkpt lat="44.1355" lon="3.2183">
        <ele>554.8</ele>
        <time>2022-06-16T07:00:07Z</time>
      </trkpt>
      <trkpt lat="44.13543" lon="3.21828">
        <ele>554.4</ele>
        <time>2022-06-16T07:00:08Z</time>
      </trkpt>
      <trkpt lat="44.13532" lon="3.21827">
        <ele>553.6</ele>
        <time>2022-06-16T07:00:10Z</time>
      </trkpt>
      <trkpt lat="44.13529" lon="3.21826">
        <ele>552.2</ele>
        <time>2022-06-16T07:00:11Z</time>
      </trkpt>
      <trkpt lat="44.13525" lon="3.21826">
        <ele>551</ele>
        <time>2022-06-16T07:00:13Z</time>
      </trkpt>
      <trkpt lat="44.13525" lon="3.21826">
        <ele>549.8</ele>
        <time>2022-06-16T07:00:15Z</time>
      </trkpt>
      <trkpt lat="44.13525" lon="3.21826">
        <ele>548.6</ele>
        <time>2022-06-16T07:00:17Z</time>
      </trkpt>
      <trkpt lat="44.13525" lon="3.21826">
        <ele>548.2</ele>
        <time>2022-06-16T07:00:18Z</time>
      </trkpt>
      <trkpt lat="44.13525" lon="3.21826">
        <ele>547.6</ele>
        <time>2022-06-16T07:00:25Z</time>
      </trkpt>
      <trkpt lat="44.13525" lon="3.21826">
        <ele>547.6</ele>
        <time>2022-06-16T07:00:48Z</time>
      </trkpt>
      <trkpt lat="44.13525" lon="3.21826">
        <ele>547.2</ele>
        <time>2022-06-16T07:01:19Z</time>
      </trkpt>
      <trkpt lat="44.13525" lon="3.21826">
        <ele>547.8</ele>
        <time>2022-06-16T07:01:38Z</time>
      </trkpt>
      <trkpt lat="44.13525" lon="3.21826">
        <ele>546.6</ele>
        <time>2022-06-16T07:01:57Z</time>
      </trkpt>
      <trkpt lat="44.13525" lon="3.21826">
        <ele>546.6</ele>
        <time>2022-06-16T07:01:58Z</time>
      </trkpt>
      <trkpt lat="44.13525" lon="3.21826">
        <ele>547.6</ele>
        <time>2022-06-16T07:02:16Z</time>
      </trkpt>
      <trkpt lat="44.13525" lon="3.21826">
        <ele>547.2</ele>
        <time>2022-06-16T07:02:26Z</time>
      </trkpt>
      <trkpt lat="44.13527" lon="3.21826">
        <ele>547.6</ele>
        <time>2022-06-16T07:02:34Z</time>
      </trkpt>
      <trkpt lat="44.13528" lon="3.21826">
        <ele>547.6</ele>
        <time>2022-06-16T07:02:35Z</time>
      </trkpt>
      <trkpt lat="44.13533" lon="3.21828">
        <ele>547.8</ele>
        <time>2022-06-16T07:02:42Z</time>
      </trkpt>
      <trkpt lat="44.13533" lon="3.21828">
        <ele>547.8</ele>
        <time>2022-06-16T07:02:43Z</time>
      </trkpt>
      <trkpt lat="44.13535" lon="3.21827">
        <ele>548.2</ele>
        <time>2022-06-16T07:02:48Z</time>
      </trkpt>
      <trkpt lat="44.13536" lon="3.21827">
        <ele>548.6</ele>
        <time>2022-06-16T07:02:54Z</time>
      </trkpt>
      <trkpt lat="44.13536" lon="3.21827">
        <ele>548.6</ele>
        <time>2022-06-16T07:02:57Z</time>
      </trkpt>
      <trkpt lat="44.13537" lon="3.21826">
        <ele>548.6</ele>
        <time>2022-06-16T07:03:01Z</time>
      </trkpt>
      <trkpt lat="44.13538" lon="3.21825">
        <ele>548.6</ele>
        <time>2022-06-16T07:03:15Z</time>
      </trkpt>
      <trkpt lat="44.13549" lon="3.21819">
        <ele>548.4</ele>
        <time>2022-06-16T07:03:19Z</time>
      </trkpt>
      <trkpt lat="44.13553" lon="3.21813">
        <ele>548.2</ele>
        <time>2022-06-16T07:03:21Z</time>
      </trkpt>
      <trkpt lat="44.13553" lon="3.21811">
        <ele>548</ele>
        <time>2022-06-16T07:03:22Z</time>
      </trkpt>
      <trkpt lat="44.13548" lon="3.21807">
        <ele>547.6</ele>
        <time>2022-06-16T07:03:24Z</time>
      </trkpt>
      <trkpt lat="44.13545" lon="3.21807">
        <ele>547.2</ele>
        <time>2022-06-16T07:03:25Z</time>
      </trkpt>
      <trkpt lat="44.13533" lon="3.21805">
        <ele>546</ele>
        <time>2022-06-16T07:03:29Z</time>
      </trkpt>
      <trkpt lat="44.13527" lon="3.21806">
        <ele>545.4</ele>
        <time>2022-06-16T07:03:31Z</time>
      </trkpt>
      <trkpt lat="44.1352" lon="3.21806">
        <ele>544.6</ele>
        <time>2022-06-16T07:03:33Z</time>
      </trkpt>
      <trkpt lat="44.13511" lon="3.21807">
        <ele>543.4</ele>
        <time>2022-06-16T07:03:36Z</time>
      </trkpt>
      <trkpt lat="44.13509" lon="3.21807">
        <ele>542.8</ele>
        <time>2022-06-16T07:03:38Z</time>
      </trkpt>
      <trkpt lat="44.13508" lon="3.21807">
        <ele>542.4</ele>
        <time>2022-06-16T07:03:39Z</time>
      </trkpt>
      <trkpt lat="44.13499" lon="3.21806">
        <ele>541.2</ele>
        <time>2022-06-16T07:03:42Z</time>
      </trkpt>
      <trkpt lat="44.13493" lon="3.21805">
        <ele>540</ele>
        <time>2022-06-16T07:03:44Z</time>
      </trkpt>
      <trkpt lat="44.13487" lon="3.21804">
        <ele>538.4</ele>
        <time>2022-06-16T07:03:46Z</time>
      </trkpt>
      <trkpt lat="44.13483" lon="3.21804">
        <ele>537.8</ele>
        <time>2022-06-16T07:03:47Z</time>
      </trkpt>
      <trkpt lat="44.1348" lon="3.21805">
        <ele>537.2</ele>
        <time>2022-06-16T07:03:48Z</time>
      </trkpt>
      <trkpt lat="44.13477" lon="3.21806">
        <ele>536.8</ele>
        <time>2022-06-16T07:03:49Z</time>
      </trkpt>
      <trkpt lat="44.13473" lon="3.21808">
        <ele>535.6</ele>
        <time>2022-06-16T07:03:50Z</time>
      </trkpt>
      <trkpt lat="44.13469" lon="3.21809">
        <ele>534.8</ele>
        <time>2022-06-16T07:03:51Z</time>
      </trkpt>
      <trkpt lat="44.13466" lon="3.21811">
        <ele>534.2</ele>
        <time>2022-06-16T07:03:52Z</time>
      </trkpt>
      <trkpt lat="44.13456" lon="3.21817">
        <ele>533.2</ele>
        <time>2022-06-16T07:03:55Z</time>
      </trkpt>
      <trkpt lat="44.13451" lon="3.2182">
        <ele>532.6</ele>
        <time>2022-06-16T07:03:57Z</time>
      </trkpt>
      <trkpt lat="44.1345" lon="3.21821">
        <ele>532</ele>
        <time>2022-06-16T07:03:58Z</time>
      </trkpt>
      <trkpt lat="44.13449" lon="3.2182">
        <ele>531</ele>
        <time>2022-06-16T07:04:01Z</time>
      </trkpt>
      <trkpt lat="44.13449" lon="3.2182">
        <ele>530.6</ele>
        <time>2022-06-16T07:04:02Z</time>
      </trkpt>
      <trkpt lat="44.13449" lon="3.21821">
        <ele>529.6</ele>
        <time>2022-06-16T07:04:10Z</time>
      </trkpt>
      <trkpt lat="44.13449" lon="3.21822">
        <ele>529.4</ele>
        <time>2022-06-16T07:04:16Z</time>
      </trkpt>
      <trkpt lat="44.13448" lon="3.2182">
        <ele>529.4</ele>
        <time>2022-06-16T07:04:21Z</time>
      </trkpt>
      <trkpt lat="44.13448" lon="3.21819">
        <ele>528.6</ele>
        <time>2022-06-16T07:04:27Z</time>
      </trkpt>
      <trkpt lat="44.13447" lon="3.21819">
        <ele>528.4</ele>
        <time>2022-06-16T07:04:31Z</time>
      </trkpt>
      <trkpt lat="44.13447" lon="3.21817">
        <ele>527.8</ele>
        <time>2022-06-16T07:04:34Z</time>
      </trkpt>
      <trkpt lat="44.13447" lon="3.21817">
        <ele>527.2</ele>
        <time>2022-06-16T07:04:38Z</time>
      </trkpt>
      <trkpt lat="44.13446" lon="3.21817">
        <ele>526.8</ele>
        <time>2022-06-16T07:04:39Z</time>
      </trkpt>
      <trkpt lat="44.13446" lon="3.21817">
        <ele>526</ele>
        <time>2022-06-16T07:04:42Z</time>
      </trkpt>
      <trkpt lat="44.13447" lon="3.21818">
        <ele>525.2</ele>
        <time>2022-06-16T07:04:50Z</time>
      </trkpt>
      <trkpt lat="44.13447" lon="3.21818">
        <ele>525.4</ele>
        <time>2022-06-16T07:04:59Z</time>
      </trkpt>
      <trkpt lat="44.13448" lon="3.21819">
        <ele>526.2</ele>
        <time>2022-06-16T07:05:06Z</time>
      </trkpt>
      <trkpt lat="44.13448" lon="3.21819">
        <ele>526.8</ele>
        <time>2022-06-16T07:05:10Z</time>
      </trkpt>
      <trkpt lat="44.13448" lon="3.21819">
        <ele>527</ele>
        <time>2022-06-16T07:05:14Z</time>
      </trkpt>
      <trkpt lat="44.13447" lon="3.21819">
        <ele>527.6</ele>
        <time>2022-06-16T07:05:22Z</time>
      </trkpt>
      <trkpt lat="44.13447" lon="3.21819">
        <ele>527.8</ele>
        <time>2022-06-16T07:05:25Z</time>
      </trkpt>
      <trkpt lat="44.13447" lon="3.21819">
        <ele>528.2</ele>
        <time>2022-06-16T07:05:29Z</time>
      </trkpt>
      <trkpt lat="44.13448" lon="3.21821">
        <ele>528.6</ele>
        <time>2022-06-16T07:05:32Z</time>
      </trkpt>
      <trkpt lat="44.13449" lon="3.21822">
        <ele>528.6</ele>
        <time>2022-06-16T07:05:34Z</time>
      </trkpt>
      <trkpt lat="44.13449" lon="3.21822">
        <ele>528.8</ele>
        <time>2022-06-16T07:05:35Z</time>
      </trkpt>
      <trkpt lat="44.1345" lon="3.21822">
        <ele>528.8</ele>
        <time>2022-06-16T07:05:36Z</time>
      </trkpt>
      <trkpt lat="44.13452" lon="3.2182">
        <ele>529.4</ele>
        <time>2022-06-16T07:05:43Z</time>
      </trkpt>
      <trkpt lat="44.13454" lon="3.2182">
        <ele>529.6</ele>
        <time>2022-06-16T07:05:46Z</time>
      </trkpt>
      <trkpt lat="44.13456" lon="3.21817">
        <ele>530.4</ele>
        <time>2022-06-16T07:05:50Z</time>
      </trkpt>
      <trkpt lat="44.1346" lon="3.21814">
        <ele>530.6</ele>
        <time>2022-06-16T07:05:54Z</time>
      </trkpt>
      <trkpt lat="44.13462" lon="3.21813">
        <ele>530.8</ele>
        <time>2022-06-16T07:05:55Z</time>
      </trkpt>
      <trkpt lat="44.13464" lon="3.2181">
        <ele>531.2</ele>
        <time>2022-06-16T07:06:02Z</time>
      </trkpt>
      <trkpt lat="44.13468" lon="3.21807">
        <ele>531.8</ele>
        <time>2022-06-16T07:06:07Z</time>
      </trkpt>
      <trkpt lat="44.13472" lon="3.21807">
        <ele>532.2</ele>
        <time>2022-06-16T07:06:14Z</time>
      </trkpt>
      <trkpt lat="44.13473" lon="3.21806">
        <ele>532.8</ele>
        <time>2022-06-16T07:06:17Z</time>
      </trkpt>
      <trkpt lat="44.13475" lon="3.21807">
        <ele>533.4</ele>
        <time>2022-06-16T07:06:21Z</time>
      </trkpt>
      <trkpt lat="44.13477" lon="3.21806">
        <ele>533.8</ele>
        <time>2022-06-16T07:06:23Z</time>
      </trkpt>
      <trkpt lat="44.1348" lon="3.21805">
        <ele>534.8</ele>
        <time>2022-06-16T07:06:27Z</time>
      </trkpt>
      <trkpt lat="44.13483" lon="3.21805">
        <ele>535.4</ele>
        <time>2022-06-16T07:06:33Z</time>
      </trkpt>
      <trkpt lat="44.13484" lon="3.21806">
        <ele>535.8</ele>
        <time>2022-06-16T07:06:36Z</time>
      </trkpt>
      <trkpt lat="44.13485" lon="3.21806">
        <ele>536.4</ele>
        <time>2022-06-16T07:06:39Z</time>
      </trkpt>
      <trkpt lat="44.13485" lon="3.21806">
        <ele>537</ele>
        <time>2022-06-16T07:06:43Z</time>
      </trkpt>
      <trkpt lat="44.13485" lon="3.21806">
        <ele>537.6</ele>
        <time>2022-06-16T07:06:46Z</time>
      </trkpt>
      <trkpt lat="44.13488" lon="3.21807">
        <ele>538.2</ele>
        <time>2022-06-16T07:06:49Z</time>
      </trkpt>
      <trkpt lat="44.13491" lon="3.21807">
        <ele>538.8</ele>
        <time>2022-06-16T07:06:54Z</time>
      </trkpt>
      <trkpt lat="44.13491" lon="3.21806">
        <ele>539</ele>
        <time>2022-06-16T07:06:56Z</time>
      </trkpt>
      <trkpt lat="44.13491" lon="3.21806">
        <ele>539.4</ele>
        <time>2022-06-16T07:06:57Z</time>
      </trkpt>
      <trkpt lat="44.13503" lon="3.21804">
        <ele>540.2</ele>
        <time>2022-06-16T07:07:04Z</time>
      </trkpt>
      <trkpt lat="44.13503" lon="3.21804">
        <ele>540.4</ele>
        <time>2022-06-16T07:07:05Z</time>
      </trkpt>
      <trkpt lat="44.13509" lon="3.21806">
        <ele>541.4</ele>
        <time>2022-06-16T07:07:13Z</time>
      </trkpt>
      <trkpt lat="44.13513" lon="3.21806">
        <ele>542.4</ele>
        <time>2022-06-16T07:07:24Z</time>
      </trkpt>
      <trkpt lat="44.13513" lon="3.21806">
        <ele>542.4</ele>
        <time>2022-06-16T07:07:25Z</time>
      </trkpt>
      <trkpt lat="44.13519" lon="3.21807">
        <ele>543.2</ele>
        <time>2022-06-16T07:07:37Z</time>
      </trkpt>
      <trkpt lat="44.13523" lon="3.21809">
        <ele>543.4</ele>
        <time>2022-06-16T07:07:39Z</time>
      </trkpt>
      <trkpt lat="44.13524" lon="3.2181">
        <ele>543.8</ele>
        <time>2022-06-16T07:07:41Z</time>
      </trkpt>
      <trkpt lat="44.13526" lon="3.21813">
        <ele>544</ele>
        <time>2022-06-16T07:07:43Z</time>
      </trkpt>
      <trkpt lat="44.13526" lon="3.21814">
        <ele>544.6</ele>
        <time>2022-06-16T07:07:45Z</time>
      </trkpt>
      <trkpt lat="44.13528" lon="3.21817">
        <ele>544.8</ele>
        <time>2022-06-16T07:07:48Z</time>
      </trkpt>
      <trkpt lat="44.13527" lon="3.21821">
        <ele>545.6</ele>
        <time>2022-06-16T07:07:52Z</time>
      </trkpt>
      <trkpt lat="44.13527" lon="3.21823">
        <ele>545.8</ele>
        <time>2022-06-16T07:07:54Z</time>
      </trkpt>
      <trkpt lat="44.13525" lon="3.21826">
        <ele>546.6</ele>
        <time>2022-06-16T07:07:58Z</time>
      </trkpt>
      <trkpt lat="44.13523" lon="3.21826">
        <ele>547.2</ele>
        <time>2022-06-16T07:08:00Z</time>
      </trkpt>
      <trkpt lat="44.1351" lon="3.21825">
        <ele>547.4</ele>
        <time>2022-06-16T07:08:05Z</time>
      </trkpt>
      <trkpt lat="44.13491" lon="3.21825">
        <ele>547.2</ele>
        <time>2022-06-16T07:08:09Z</time>
      </trkpt>
      <trkpt lat="44.13485" lon="3.21827">
        <ele>546.8</ele>
        <time>2022-06-16T07:08:10Z</time>
      </trkpt>
      <trkpt lat="44.13461" lon="3.21838">
        <ele>545.6</ele>
        <time>2022-06-16T07:08:14Z</time>
      </trkpt>
      <trkpt lat="44.13456" lon="3.21842">
        <ele>545.4</ele>
        <time>2022-06-16T07:08:15Z</time>
      </trkpt>
      <trkpt lat="44.13446" lon="3.2185">
        <ele>544.2</ele>
        <time>2022-06-16T07:08:17Z</time>
      </trkpt>
      <trkpt lat="44.13432" lon="3.21862">
        <ele>543.2</ele>
        <time>2022-06-16T07:08:20Z</time>
      </trkpt>
      <trkpt lat="44.13429" lon="3.21864">
        <ele>542.6</ele>
        <time>2022-06-16T07:08:21Z</time>
      </trkpt>
      <trkpt lat="44.13426" lon="3.21865">
        <ele>541.8</ele>
        <time>2022-06-16T07:08:22Z</time>
      </trkpt>
      <trkpt lat="44.13426" lon="3.21865">
        <ele>541.6</ele>
        <time>2022-06-16T07:08:23Z</time>
      </trkpt>
      <trkpt lat="44.13426" lon="3.21865">
        <ele>540</ele>
        <time>2022-06-16T07:08:26Z</time>
      </trkpt>
      <trkpt lat="44.13426" lon="3.21865">
        <ele>538.8</ele>
        <time>2022-06-16T07:08:33Z</time>
      </trkpt>
      <trkpt lat="44.13426" lon="3.21865">
        <ele>538.8</ele>
        <time>2022-06-16T07:08:35Z</time>
      </trkpt>
      <trkpt lat="44.13424" lon="3.21867">
        <ele>538.6</ele>
        <time>2022-06-16T07:08:45Z</time>
      </trkpt>
      <trkpt lat="44.13413" lon="3.21873">
        <ele>538.6</ele>
        <time>2022-06-16T07:08:49Z</time>
      </trkpt>
      <trkpt lat="44.13408" lon="3.21875">
        <ele>538.6</ele>
        <time>2022-06-16T07:08:50Z</time>
      </trkpt>
      <trkpt lat="44.13399" lon="3.21882">
        <ele>538.2</ele>
        <time>2022-06-16T07:08:52Z</time>
      </trkpt>
      <trkpt lat="44.13395" lon="3.21885">
        <ele>538</ele>
        <time>2022-06-16T07:08:53Z</time>
      </trkpt>
      <trkpt lat="44.13391" lon="3.2189">
        <ele>538</ele>
        <time>2022-06-16T07:08:54Z</time>
      </trkpt>
      <trkpt lat="44.13382" lon="3.21899">
        <ele>537.4</ele>
        <time>2022-06-16T07:08:56Z</time>
      </trkpt>
      <trkpt lat="44.13377" lon="3.21904">
        <ele>536.8</ele>
        <time>2022-06-16T07:08:57Z</time>
      </trkpt>
      <trkpt lat="44.13358" lon="3.21929">
        <ele>536</ele>
        <time>2022-06-16T07:09:01Z</time>
      </trkpt>
      <trkpt lat="44.13353" lon="3.21937">
        <ele>535.6</ele>
        <time>2022-06-16T07:09:02Z</time>
      </trkpt>
      <trkpt lat="44.13346" lon="3.21952">
        <ele>534.4</ele>
        <time>2022-06-16T07:09:04Z</time>
      </trkpt>
      <trkpt lat="44.13341" lon="3.21959">
        <ele>534.2</ele>
        <time>2022-06-16T07:09:05Z</time>
      </trkpt>
      <trkpt lat="44.13336" lon="3.21964">
        <ele>533.6</ele>
        <time>2022-06-16T07:09:06Z</time>
      </trkpt>
      <trkpt lat="44.1333" lon="3.21966">
        <ele>533</ele>
        <time>2022-06-16T07:09:07Z</time>
      </trkpt>
      <trkpt lat="44.13323" lon="3.21967">
        <ele>532.4</ele>
        <time>2022-06-16T07:09:08Z</time>
      </trkpt>
      <trkpt lat="44.13316" lon="3.21967">
        <ele>532</ele>
        <time>2022-06-16T07:09:09Z</time>
      </trkpt>
      <trkpt lat="44.13303" lon="3.21967">
        <ele>530.6</ele>
        <time>2022-06-16T07:09:11Z</time>
      </trkpt>
      <trkpt lat="44.13281" lon="3.2197">
        <ele>529.6</ele>
        <time>2022-06-16T07:09:14Z</time>
      </trkpt>
      <trkpt lat="44.13267" lon="3.21973">
        <ele>528.6</ele>
        <time>2022-06-16T07:09:16Z</time>
      </trkpt>
      <trkpt lat="44.13252" lon="3.21977">
        <ele>527.4</ele>
        <time>2022-06-16T07:09:18Z</time>
      </trkpt>
      <trkpt lat="44.1324" lon="3.21983">
        <ele>526</ele>
        <time>2022-06-16T07:09:20Z</time>
      </trkpt>
      <trkpt lat="44.13229" lon="3.21991">
        <ele>524.6</ele>
        <time>2022-06-16T07:09:22Z</time>
      </trkpt>
      <trkpt lat="44.13211" lon="3.22006">
        <ele>522.8</ele>
        <time>2022-06-16T07:09:25Z</time>
      </trkpt>
      <trkpt lat="44.1319" lon="3.22028">
        <ele>521.8</ele>
        <time>2022-06-16T07:09:29Z</time>
      </trkpt>
      <trkpt lat="44.13185" lon="3.22033">
        <ele>521.2</ele>
        <time>2022-06-16T07:09:30Z</time>
      </trkpt>
      <trkpt lat="44.1318" lon="3.22038">
        <ele>520.6</ele>
        <time>2022-06-16T07:09:31Z</time>
      </trkpt>
      <trkpt lat="44.13175" lon="3.22042">
        <ele>520</ele>
        <time>2022-06-16T07:09:32Z</time>
      </trkpt>
      <trkpt lat="44.1317" lon="3.22047">
        <ele>519.6</ele>
        <time>2022-06-16T07:09:33Z</time>
      </trkpt>
      <trkpt lat="44.13157" lon="3.22058">
        <ele>518</ele>
        <time>2022-06-16T07:09:36Z</time>
      </trkpt>
      <trkpt lat="44.13151" lon="3.22063">
        <ele>517</ele>
        <time>2022-06-16T07:09:38Z</time>
      </trkpt>
      <trkpt lat="44.13139" lon="3.22069">
        <ele>515.6</ele>
        <time>2022-06-16T07:09:41Z</time>
      </trkpt>
      <trkpt lat="44.13126" lon="3.22075">
        <ele>514.4</ele>
        <time>2022-06-16T07:09:45Z</time>
      </trkpt>
      <trkpt lat="44.13121" lon="3.22078">
        <ele>513.8</ele>
        <time>2022-06-16T07:09:47Z</time>
      </trkpt>
      <trkpt lat="44.1312" lon="3.22079">
        <ele>513.2</ele>
        <time>2022-06-16T07:09:48Z</time>
      </trkpt>
      <trkpt lat="44.1312" lon="3.2208">
        <ele>512.6</ele>
        <time>2022-06-16T07:09:50Z</time>
      </trkpt>
      <trkpt lat="44.1312" lon="3.2208">
        <ele>512</ele>
        <time>2022-06-16T07:09:53Z</time>
      </trkpt>
      <trkpt lat="44.1312" lon="3.2208">
        <ele>511.6</ele>
        <time>2022-06-16T07:09:55Z</time>
      </trkpt>
      <trkpt lat="44.1312" lon="3.2208">
        <ele>511.2</ele>
        <time>2022-06-16T07:10:02Z</time>
      </trkpt>
      <trkpt lat="44.13118" lon="3.22081">
        <ele>511</ele>
        <time>2022-06-16T07:10:11Z</time>
      </trkpt>
      <trkpt lat="44.13116" lon="3.22082">
        <ele>511</ele>
        <time>2022-06-16T07:10:12Z</time>
      </trkpt>
      <trkpt lat="44.13108" lon="3.22096">
        <ele>510.8</ele>
        <time>2022-06-16T07:10:15Z</time>
      </trkpt>
      <trkpt lat="44.13101" lon="3.22104">
        <ele>510.6</ele>
        <time>2022-06-16T07:10:17Z</time>
      </trkpt>
      <trkpt lat="44.13093" lon="3.22114">
        <ele>510.4</ele>
        <time>2022-06-16T07:10:19Z</time>
      </trkpt>
      <trkpt lat="44.13083" lon="3.22131">
        <ele>510</ele>
        <time>2022-06-16T07:10:22Z</time>
      </trkpt>
      <trkpt lat="44.13072" lon="3.22149">
        <ele>509.2</ele>
        <time>2022-06-16T07:10:25Z</time>
      </trkpt>
      <trkpt lat="44.13068" lon="3.22156">
        <ele>508.6</ele>
        <time>2022-06-16T07:10:26Z</time>
      </trkpt>
      <trkpt lat="44.1306" lon="3.22178">
        <ele>507.6</ele>
        <time>2022-06-16T07:10:29Z</time>
      </trkpt>
      <trkpt lat="44.13055" lon="3.22194">
        <ele>507</ele>
        <time>2022-06-16T07:10:31Z</time>
      </trkpt>
      <trkpt lat="44.13052" lon="3.22202">
        <ele>506.4</ele>
        <time>2022-06-16T07:10:32Z</time>
      </trkpt>
      <trkpt lat="44.13047" lon="3.22217">
        <ele>506</ele>
        <time>2022-06-16T07:10:34Z</time>
      </trkpt>
      <trkpt lat="44.13038" lon="3.22229">
        <ele>505.4</ele>
        <time>2022-06-16T07:10:36Z</time>
      </trkpt>
      <trkpt lat="44.13028" lon="3.22237">
        <ele>504.6</ele>
        <time>2022-06-16T07:10:38Z</time>
      </trkpt>
      <trkpt lat="44.1302" lon="3.2224">
        <ele>504</ele>
        <time>2022-06-16T07:10:39Z</time>
      </trkpt>
      <trkpt lat="44.13015" lon="3.22241">
        <ele>503.6</ele>
        <time>2022-06-16T07:10:40Z</time>
      </trkpt>
      <trkpt lat="44.13007" lon="3.22242">
        <ele>503.4</ele>
        <time>2022-06-16T07:10:41Z</time>
      </trkpt>
      <trkpt lat="44.12995" lon="3.22242">
        <ele>502.8</ele>
        <time>2022-06-16T07:10:43Z</time>
      </trkpt>
      <trkpt lat="44.12982" lon="3.22244">
        <ele>501.6</ele>
        <time>2022-06-16T07:10:45Z</time>
      </trkpt>
      <trkpt lat="44.12968" lon="3.22247">
        <ele>500.6</ele>
        <time>2022-06-16T07:10:47Z</time>
      </trkpt>
      <trkpt lat="44.12954" lon="3.22246">
        <ele>499.4</ele>
        <time>2022-06-16T07:10:49Z</time>
      </trkpt>
      <trkpt lat="44.12947" lon="3.22246">
        <ele>499</ele>
        <time>2022-06-16T07:10:50Z</time>
      </trkpt>
      <trkpt lat="44.12939" lon="3.22246">
        <ele>498.2</ele>
        <time>2022-06-16T07:10:51Z</time>
      </trkpt>
      <trkpt lat="44.12919" lon="3.22247">
        <ele>496.8</ele>
        <time>2022-06-16T07:10:54Z</time>
      </trkpt>
      <trkpt lat="44.12911" lon="3.22245">
        <ele>496.4</ele>
        <time>2022-06-16T07:10:55Z</time>
      </trkpt>
      <trkpt lat="44.12898" lon="3.2224">
        <ele>495.6</ele>
        <time>2022-06-16T07:10:57Z</time>
      </trkpt>
      <trkpt lat="44.12885" lon="3.22235">
        <ele>494</ele>
        <time>2022-06-16T07:10:59Z</time>
      </trkpt>
      <trkpt lat="44.1287" lon="3.22231">
        <ele>492.6</ele>
        <time>2022-06-16T07:11:01Z</time>
      </trkpt>
      <trkpt lat="44.12856" lon="3.22228">
        <ele>491.4</ele>
        <time>2022-06-16T07:11:03Z</time>
      </trkpt>
      <trkpt lat="44.12837" lon="3.22222">
        <ele>489.8</ele>
        <time>2022-06-16T07:11:06Z</time>
      </trkpt>
      <trkpt lat="44.12826" lon="3.2222">
        <ele>488.4</ele>
        <time>2022-06-16T07:11:08Z</time>
      </trkpt>
      <trkpt lat="44.12816" lon="3.22221">
        <ele>487.4</ele>
        <time>2022-06-16T07:11:10Z</time>
      </trkpt>
      <trkpt lat="44.12812" lon="3.22224">
        <ele>486.8</ele>
        <time>2022-06-16T07:11:11Z</time>
      </trkpt>
      <trkpt lat="44.12807" lon="3.22228">
        <ele>486</ele>
        <time>2022-06-16T07:11:12Z</time>
      </trkpt>
      <trkpt lat="44.128" lon="3.22237">
        <ele>485.2</ele>
        <time>2022-06-16T07:11:14Z</time>
      </trkpt>
      <trkpt lat="44.12797" lon="3.22242">
        <ele>484.8</ele>
        <time>2022-06-16T07:11:15Z</time>
      </trkpt>
      <trkpt lat="44.12791" lon="3.22251">
        <ele>484</ele>
        <time>2022-06-16T07:11:17Z</time>
      </trkpt>
      <trkpt lat="44.12788" lon="3.22253">
        <ele>483.6</ele>
        <time>2022-06-16T07:11:18Z</time>
      </trkpt>
      <trkpt lat="44.12789" lon="3.22253">
        <ele>482.8</ele>
        <time>2022-06-16T07:11:19Z</time>
      </trkpt>
      <trkpt lat="44.12789" lon="3.22253">
        <ele>482</ele>
        <time>2022-06-16T07:11:20Z</time>
      </trkpt>
      <trkpt lat="44.12789" lon="3.22253">
        <ele>481.2</ele>
        <time>2022-06-16T07:11:22Z</time>
      </trkpt>
      <trkpt lat="44.12789" lon="3.22253">
        <ele>481</ele>
        <time>2022-06-16T07:11:23Z</time>
      </trkpt>
      <trkpt lat="44.12789" lon="3.22253">
        <ele>480</ele>
        <time>2022-06-16T07:11:31Z</time>
      </trkpt>
      <trkpt lat="44.12789" lon="3.22253">
        <ele>480</ele>
        <time>2022-06-16T07:11:39Z</time>
      </trkpt>
      <trkpt lat="44.1279" lon="3.22256">
        <ele>479.6</ele>
        <time>2022-06-16T07:11:58Z</time>
      </trkpt>
      <trkpt lat="44.1279" lon="3.22256">
        <ele>479.6</ele>
        <time>2022-06-16T07:12:05Z</time>
      </trkpt>
      <trkpt lat="44.12786" lon="3.22257">
        <ele>479.4</ele>
        <time>2022-06-16T07:12:34Z</time>
      </trkpt>
      <trkpt lat="44.12783" lon="3.22262">
        <ele>479.6</ele>
        <time>2022-06-16T07:12:36Z</time>
      </trkpt>
      <trkpt lat="44.12773" lon="3.22278">
        <ele>479.4</ele>
        <time>2022-06-16T07:12:40Z</time>
      </trkpt>
      <trkpt lat="44.12757" lon="3.22298">
        <ele>478.6</ele>
        <time>2022-06-16T07:12:44Z</time>
      </trkpt>
      <trkpt lat="44.1275" lon="3.22308">
        <ele>478</ele>
        <time>2022-06-16T07:12:46Z</time>
      </trkpt>
      <trkpt lat="44.12742" lon="3.22317">
        <ele>477.2</ele>
        <time>2022-06-16T07:12:48Z</time>
      </trkpt>
      <trkpt lat="44.12734" lon="3.22325">
        <ele>476.4</ele>
        <time>2022-06-16T07:12:50Z</time>
      </trkpt>
      <trkpt lat="44.12729" lon="3.22329">
        <ele>475.8</ele>
        <time>2022-06-16T07:12:51Z</time>
      </trkpt>
      <trkpt lat="44.1271" lon="3.22345">
        <ele>474.4</ele>
        <time>2022-06-16T07:12:55Z</time>
      </trkpt>
      <trkpt lat="44.12693" lon="3.22355">
        <ele>472.8</ele>
        <time>2022-06-16T07:12:58Z</time>
      </trkpt>
      <trkpt lat="44.12676" lon="3.22365">
        <ele>471.4</ele>
        <time>2022-06-16T07:13:01Z</time>
      </trkpt>
      <trkpt lat="44.12665" lon="3.22371">
        <ele>470.4</ele>
        <time>2022-06-16T07:13:03Z</time>
      </trkpt>
      <trkpt lat="44.12642" lon="3.22381">
        <ele>468.6</ele>
        <time>2022-06-16T07:13:07Z</time>
      </trkpt>
      <trkpt lat="44.12633" lon="3.22386">
        <ele>467.6</ele>
        <time>2022-06-16T07:13:09Z</time>
      </trkpt>
      <trkpt lat="44.12629" lon="3.22389">
        <ele>467</ele>
        <time>2022-06-16T07:13:10Z</time>
      </trkpt>
      <trkpt lat="44.12616" lon="3.22396">
        <ele>465.8</ele>
        <time>2022-06-16T07:13:13Z</time>
      </trkpt>
      <trkpt lat="44.1261" lon="3.22402">
        <ele>464.4</ele>
        <time>2022-06-16T07:13:15Z</time>
      </trkpt>
      <trkpt lat="44.12607" lon="3.22404">
        <ele>464.2</ele>
        <time>2022-06-16T07:13:16Z</time>
      </trkpt>
      <trkpt lat="44.12603" lon="3.2241">
        <ele>463.4</ele>
        <time>2022-06-16T07:13:18Z</time>
      </trkpt>
      <trkpt lat="44.12602" lon="3.22418">
        <ele>462.6</ele>
        <time>2022-06-16T07:13:20Z</time>
      </trkpt>
      <trkpt lat="44.12602" lon="3.22421">
        <ele>462.2</ele>
        <time>2022-06-16T07:13:21Z</time>
      </trkpt>
      <trkpt lat="44.126" lon="3.2243">
        <ele>461.2</ele>
        <time>2022-06-16T07:13:24Z</time>
      </trkpt>
      <trkpt lat="44.126" lon="3.22431">
        <ele>461</ele>
        <time>2022-06-16T07:13:25Z</time>
      </trkpt>
      <trkpt lat="44.126" lon="3.22432">
        <ele>459.8</ele>
        <time>2022-06-16T07:13:28Z</time>
      </trkpt>
      <trkpt lat="44.126" lon="3.22432">
        <ele>459.4</ele>
        <time>2022-06-16T07:13:29Z</time>
      </trkpt>
      <trkpt lat="44.126" lon="3.22432">
        <ele>458.8</ele>
        <time>2022-06-16T07:13:33Z</time>
      </trkpt>
      <trkpt lat="44.126" lon="3.22434">
        <ele>458.6</ele>
        <time>2022-06-16T07:13:50Z</time>
      </trkpt>
      <trkpt lat="44.12601" lon="3.22441">
        <ele>458.6</ele>
        <time>2022-06-16T07:13:52Z</time>
      </trkpt>
      <trkpt lat="44.126" lon="3.22469">
        <ele>458.4</ele>
        <time>2022-06-16T07:13:57Z</time>
      </trkpt>
      <trkpt lat="44.12599" lon="3.22491">
        <ele>458</ele>
        <time>2022-06-16T07:14:00Z</time>
      </trkpt>
      <trkpt lat="44.12598" lon="3.22516">
        <ele>456.8</ele>
        <time>2022-06-16T07:14:03Z</time>
      </trkpt>
      <trkpt lat="44.12596" lon="3.22541">
        <ele>455.8</ele>
        <time>2022-06-16T07:14:06Z</time>
      </trkpt>
      <trkpt lat="44.12594" lon="3.22557">
        <ele>454.8</ele>
        <time>2022-06-16T07:14:08Z</time>
      </trkpt>
      <trkpt lat="44.12594" lon="3.22574">
        <ele>453.8</ele>
        <time>2022-06-16T07:14:10Z</time>
      </trkpt>
      <trkpt lat="44.12595" lon="3.22581">
        <ele>453.2</ele>
        <time>2022-06-16T07:14:11Z</time>
      </trkpt>
      <trkpt lat="44.12599" lon="3.22595">
        <ele>452.2</ele>
        <time>2022-06-16T07:14:13Z</time>
      </trkpt>
      <trkpt lat="44.12599" lon="3.22602">
        <ele>451.8</ele>
        <time>2022-06-16T07:14:14Z</time>
      </trkpt>
      <trkpt lat="44.12597" lon="3.22607">
        <ele>451.2</ele>
        <time>2022-06-16T07:14:15Z</time>
      </trkpt>
      <trkpt lat="44.12594" lon="3.22611">
        <ele>450.8</ele>
        <time>2022-06-16T07:14:16Z</time>
      </trkpt>
      <trkpt lat="44.12584" lon="3.22611">
        <ele>450</ele>
        <time>2022-06-16T07:14:18Z</time>
      </trkpt>
      <trkpt lat="44.12579" lon="3.22603">
        <ele>449.2</ele>
        <time>2022-06-16T07:14:20Z</time>
      </trkpt>
      <trkpt lat="44.12577" lon="3.22598">
        <ele>448.8</ele>
        <time>2022-06-16T07:14:21Z</time>
      </trkpt>
      <trkpt lat="44.12577" lon="3.22593">
        <ele>448</ele>
        <time>2022-06-16T07:14:22Z</time>
      </trkpt>
      <trkpt lat="44.1258" lon="3.22579">
        <ele>447</ele>
        <time>2022-06-16T07:14:25Z</time>
      </trkpt>
      <trkpt lat="44.12583" lon="3.22552">
        <ele>445.4</ele>
        <time>2022-06-16T07:14:30Z</time>
      </trkpt>
      <trkpt lat="44.12581" lon="3.22517">
        <ele>443.8</ele>
        <time>2022-06-16T07:14:36Z</time>
      </trkpt>
      <trkpt lat="44.12579" lon="3.22504">
        <ele>442.8</ele>
        <time>2022-06-16T07:14:38Z</time>
      </trkpt>
      <trkpt lat="44.12578" lon="3.22484">
        <ele>441.6</ele>
        <time>2022-06-16T07:14:41Z</time>
      </trkpt>
      <trkpt lat="44.12577" lon="3.22477">
        <ele>441.4</ele>
        <time>2022-06-16T07:14:42Z</time>
      </trkpt>
      <trkpt lat="44.12576" lon="3.22462">
        <ele>440.4</ele>
        <time>2022-06-16T07:14:44Z</time>
      </trkpt>
      <trkpt lat="44.12571" lon="3.22435">
        <ele>439.2</ele>
        <time>2022-06-16T07:14:48Z</time>
      </trkpt>
      <trkpt lat="44.12566" lon="3.22413">
        <ele>438</ele>
        <time>2022-06-16T07:14:51Z</time>
      </trkpt>
      <trkpt lat="44.12558" lon="3.22388">
        <ele>436.6</ele>
        <time>2022-06-16T07:14:55Z</time>
      </trkpt>
      <trkpt lat="44.12557" lon="3.22382">
        <ele>436.2</ele>
        <time>2022-06-16T07:14:56Z</time>
      </trkpt>
      <trkpt lat="44.12555" lon="3.22377">
        <ele>435.4</ele>
        <time>2022-06-16T07:14:57Z</time>
      </trkpt>
      <trkpt lat="44.12552" lon="3.22368">
        <ele>434.4</ele>
        <time>2022-06-16T07:14:59Z</time>
      </trkpt>
      <trkpt lat="44.12549" lon="3.22361">
        <ele>433.8</ele>
        <time>2022-06-16T07:15:01Z</time>
      </trkpt>
      <trkpt lat="44.12548" lon="3.22359">
        <ele>433.2</ele>
        <time>2022-06-16T07:15:02Z</time>
      </trkpt>
      <trkpt lat="44.12545" lon="3.22354">
        <ele>432</ele>
        <time>2022-06-16T07:15:05Z</time>
      </trkpt>
      <trkpt lat="44.12544" lon="3.22354">
        <ele>431.8</ele>
        <time>2022-06-16T07:15:06Z</time>
      </trkpt>
      <trkpt lat="44.12543" lon="3.22354">
        <ele>431</ele>
        <time>2022-06-16T07:15:12Z</time>
      </trkpt>
      <trkpt lat="44.12543" lon="3.22354">
        <ele>431</ele>
        <time>2022-06-16T07:15:13Z</time>
      </trkpt>
      <trkpt lat="44.12543" lon="3.22358">
        <ele>430.8</ele>
        <time>2022-06-16T07:15:18Z</time>
      </trkpt>
      <trkpt lat="44.12543" lon="3.22362">
        <ele>430.8</ele>
        <time>2022-06-16T07:15:20Z</time>
      </trkpt>
      <trkpt lat="44.12545" lon="3.22371">
        <ele>430.6</ele>
        <time>2022-06-16T07:15:23Z</time>
      </trkpt>
      <trkpt lat="44.12545" lon="3.22374">
        <ele>430.4</ele>
        <time>2022-06-16T07:15:24Z</time>
      </trkpt>
      <trkpt lat="44.12544" lon="3.22375">
        <ele>430.4</ele>
        <time>2022-06-16T07:15:25Z</time>
      </trkpt>
      <trkpt lat="44.12541" lon="3.22372">
        <ele>430</ele>
        <time>2022-06-16T07:15:27Z</time>
      </trkpt>
      <trkpt lat="44.12539" lon="3.22366">
        <ele>429</ele>
        <time>2022-06-16T07:15:30Z</time>
      </trkpt>
      <trkpt lat="44.12538" lon="3.22364">
        <ele>428.8</ele>
        <time>2022-06-16T07:15:31Z</time>
      </trkpt>
      <trkpt lat="44.12537" lon="3.2236">
        <ele>428.4</ele>
        <time>2022-06-16T07:15:33Z</time>
      </trkpt>
      <trkpt lat="44.12536" lon="3.22356">
        <ele>428.2</ele>
        <time>2022-06-16T07:15:34Z</time>
      </trkpt>
      <trkpt lat="44.1253" lon="3.22346">
        <ele>427.8</ele>
        <time>2022-06-16T07:15:37Z</time>
      </trkpt>
      <trkpt lat="44.12527" lon="3.22345">
        <ele>427.4</ele>
        <time>2022-06-16T07:15:38Z</time>
      </trkpt>
      <trkpt lat="44.12523" lon="3.22345">
        <ele>426.6</ele>
        <time>2022-06-16T07:15:40Z</time>
      </trkpt>
      <trkpt lat="44.12521" lon="3.22343">
        <ele>426.2</ele>
        <time>2022-06-16T07:15:41Z</time>
      </trkpt>
      <trkpt lat="44.12519" lon="3.22339">
        <ele>425.4</ele>
        <time>2022-06-16T07:15:42Z</time>
      </trkpt>
      <trkpt lat="44.12514" lon="3.22334">
        <ele>423.8</ele>
        <time>2022-06-16T07:15:44Z</time>
      </trkpt>
      <trkpt lat="44.12507" lon="3.2233">
        <ele>422.2</ele>
        <time>2022-06-16T07:15:47Z</time>
      </trkpt>
      <trkpt lat="44.12505" lon="3.22329">
        <ele>421.4</ele>
        <time>2022-06-16T07:15:49Z</time>
      </trkpt>
      <trkpt lat="44.12503" lon="3.22329">
        <ele>420.8</ele>
        <time>2022-06-16T07:15:51Z</time>
      </trkpt>
      <trkpt lat="44.12502" lon="3.22327">
        <ele>420.4</ele>
        <time>2022-06-16T07:15:53Z</time>
      </trkpt>
      <trkpt lat="44.12501" lon="3.22324">
        <ele>419.8</ele>
        <time>2022-06-16T07:15:56Z</time>
      </trkpt>
      <trkpt lat="44.125" lon="3.22324">
        <ele>419.8</ele>
        <time>2022-06-16T07:15:57Z</time>
      </trkpt>
      <trkpt lat="44.125" lon="3.22324">
        <ele>419.6</ele>
        <time>2022-06-16T07:15:58Z</time>
      </trkpt>
      <trkpt lat="44.12498" lon="3.2232">
        <ele>418.8</ele>
        <time>2022-06-16T07:16:05Z</time>
      </trkpt>
      <trkpt lat="44.12494" lon="3.22318">
        <ele>417.8</ele>
        <time>2022-06-16T07:16:11Z</time>
      </trkpt>
      <trkpt lat="44.12491" lon="3.22316">
        <ele>417.4</ele>
        <time>2022-06-16T07:16:14Z</time>
      </trkpt>
      <trkpt lat="44.12487" lon="3.22312">
        <ele>416.8</ele>
        <time>2022-06-16T07:16:18Z</time>
      </trkpt>
      <trkpt lat="44.12486" lon="3.22312">
        <ele>416.6</ele>
        <time>2022-06-16T07:16:19Z</time>
      </trkpt>
      <trkpt lat="44.12486" lon="3.22312">
        <ele>416</ele>
        <time>2022-06-16T07:16:22Z</time>
      </trkpt>
      <trkpt lat="44.12485" lon="3.22311">
        <ele>415.8</ele>
        <time>2022-06-16T07:16:24Z</time>
      </trkpt>
      <trkpt lat="44.12482" lon="3.22306">
        <ele>415</ele>
        <time>2022-06-16T07:16:27Z</time>
      </trkpt>
      <trkpt lat="44.12481" lon="3.22304">
        <ele>414.6</ele>
        <time>2022-06-16T07:16:29Z</time>
      </trkpt>
      <trkpt lat="44.12474" lon="3.2229">
        <ele>413.8</ele>
        <time>2022-06-16T07:16:35Z</time>
      </trkpt>
      <trkpt lat="44.12474" lon="3.22289">
        <ele>413.4</ele>
        <time>2022-06-16T07:16:36Z</time>
      </trkpt>
      <trkpt lat="44.12474" lon="3.22288">
        <ele>413.2</ele>
        <time>2022-06-16T07:16:37Z</time>
      </trkpt>
      <trkpt lat="44.12473" lon="3.22287">
        <ele>412.8</ele>
        <time>2022-06-16T07:16:39Z</time>
      </trkpt>
      <trkpt lat="44.12473" lon="3.22287">
        <ele>412.4</ele>
        <time>2022-06-16T07:16:41Z</time>
      </trkpt>
      <trkpt lat="44.12472" lon="3.22286">
        <ele>412</ele>
        <time>2022-06-16T07:16:43Z</time>
      </trkpt>
      <trkpt lat="44.12472" lon="3.22284">
        <ele>411.4</ele>
        <time>2022-06-16T07:16:45Z</time>
      </trkpt>
      <trkpt lat="44.12472" lon="3.22284">
        <ele>410.6</ele>
        <time>2022-06-16T07:16:48Z</time>
      </trkpt>
      <trkpt lat="44.12469" lon="3.22284">
        <ele>410</ele>
        <time>2022-06-16T07:16:52Z</time>
      </trkpt>
      <trkpt lat="44.12468" lon="3.22283">
        <ele>410</ele>
        <time>2022-06-16T07:16:53Z</time>
      </trkpt>
      <trkpt lat="44.12465" lon="3.22281">
        <ele>409</ele>
        <time>2022-06-16T07:16:59Z</time>
      </trkpt>
      <trkpt lat="44.12464" lon="3.2228">
        <ele>408.6</ele>
        <time>2022-06-16T07:17:00Z</time>
      </trkpt>
      <trkpt lat="44.1246" lon="3.22279">
        <ele>407.8</ele>
        <time>2022-06-16T07:17:04Z</time>
      </trkpt>
      <trkpt lat="44.12456" lon="3.22276">
        <ele>407.2</ele>
        <time>2022-06-16T07:17:08Z</time>
      </trkpt>
      <trkpt lat="44.12455" lon="3.22276">
        <ele>406.8</ele>
        <time>2022-06-16T07:17:11Z</time>
      </trkpt>
      <trkpt lat="44.12454" lon="3.22276">
        <ele>406.4</ele>
        <time>2022-06-16T07:17:14Z</time>
      </trkpt>
      <trkpt lat="44.12452" lon="3.22275">
        <ele>406</ele>
        <time>2022-06-16T07:17:16Z</time>
      </trkpt>
      <trkpt lat="44.12451" lon="3.22274">
        <ele>406</ele>
        <time>2022-06-16T07:17:17Z</time>
      </trkpt>
      <trkpt lat="44.1245" lon="3.22273">
        <ele>405.6</ele>
        <time>2022-06-16T07:17:20Z</time>
      </trkpt>
      <trkpt lat="44.12449" lon="3.22273">
        <ele>405.6</ele>
        <time>2022-06-16T07:17:31Z</time>
      </trkpt>
      <trkpt lat="44.12437" lon="3.22269">
        <ele>405.6</ele>
        <time>2022-06-16T07:17:38Z</time>
      </trkpt>
      <trkpt lat="44.12434" lon="3.22268">
        <ele>405.6</ele>
        <time>2022-06-16T07:17:39Z</time>
      </trkpt>
      <trkpt lat="44.12424" lon="3.22266">
        <ele>405.6</ele>
        <time>2022-06-16T07:17:42Z</time>
      </trkpt>
      <trkpt lat="44.12401" lon="3.22262">
        <ele>405.4</ele>
        <time>2022-06-16T07:17:49Z</time>
      </trkpt>
      <trkpt lat="44.12384" lon="3.22252">
        <ele>405.2</ele>
        <time>2022-06-16T07:17:56Z</time>
      </trkpt>
      <trkpt lat="44.12369" lon="3.22244">
        <ele>404.8</ele>
        <time>2022-06-16T07:18:00Z</time>
      </trkpt>
      <trkpt lat="44.12361" lon="3.22234">
        <ele>404.6</ele>
        <time>2022-06-16T07:18:03Z</time>
      </trkpt>
      <trkpt lat="44.12359" lon="3.22225">
        <ele>404.4</ele>
        <time>2022-06-16T07:18:05Z</time>
      </trkpt>
      <trkpt lat="44.12343" lon="3.22185">
        <ele>404</ele>
        <time>2022-06-16T07:18:14Z</time>
      </trkpt>
      <trkpt lat="44.12344" lon="3.22181">
        <ele>404</ele>
        <time>2022-06-16T07:18:15Z</time>
      </trkpt>
      <trkpt lat="44.12342" lon="3.22174">
        <ele>403.8</ele>
        <time>2022-06-16T07:18:17Z</time>
      </trkpt>
      <trkpt lat="44.12337" lon="3.22171">
        <ele>403.8</ele>
        <time>2022-06-16T07:18:19Z</time>
      </trkpt>
      <trkpt lat="44.1233" lon="3.2217">
        <ele>403.6</ele>
        <time>2022-06-16T07:18:21Z</time>
      </trkpt>
      <trkpt lat="44.12321" lon="3.22172">
        <ele>403.4</ele>
        <time>2022-06-16T07:18:23Z</time>
      </trkpt>
      <trkpt lat="44.12314" lon="3.22172">
        <ele>403.2</ele>
        <time>2022-06-16T07:18:26Z</time>
      </trkpt>
      <trkpt lat="44.12302" lon="3.22171">
        <ele>403.2</ele>
        <time>2022-06-16T07:18:32Z</time>
      </trkpt>
      <trkpt lat="44.12291" lon="3.22171">
        <ele>403.2</ele>
        <time>2022-06-16T07:18:37Z</time>
      </trkpt>
      <trkpt lat="44.12288" lon="3.2217">
        <ele>403.4</ele>
        <time>2022-06-16T07:18:40Z</time>
      </trkpt>
      <trkpt lat="44.12286" lon="3.2217">
        <ele>403.4</ele>
        <time>2022-06-16T07:18:45Z</time>
      </trkpt>
      <trkpt lat="44.12284" lon="3.2217">
        <ele>403.6</ele>
        <time>2022-06-16T07:18:46Z</time>
      </trkpt>
      <trkpt lat="44.12269" lon="3.22169">
        <ele>403.8</ele>
        <time>2022-06-16T07:18:52Z</time>
      </trkpt>
      <trkpt lat="44.1225" lon="3.22163">
        <ele>403.8</ele>
        <time>2022-06-16T07:18:57Z</time>
      </trkpt>
      <trkpt lat="44.12232" lon="3.2215">
        <ele>403.6</ele>
        <time>2022-06-16T07:19:00Z</time>
      </trkpt>
      <trkpt lat="44.12221" lon="3.22136">
        <ele>403.4</ele>
        <time>2022-06-16T07:19:03Z</time>
      </trkpt>
      <trkpt lat="44.12238" lon="3.22131">
        <ele>403.4</ele>
        <time>2022-06-16T07:19:04Z</time>
      </trkpt>
      <trkpt lat="44.12236" lon="3.22125">
        <ele>403.2</ele>
        <time>2022-06-16T07:19:05Z</time>
      </trkpt>
      <trkpt lat="44.1223" lon="3.22113">
        <ele>403.2</ele>
        <time>2022-06-16T07:19:07Z</time>
      </trkpt>
      <trkpt lat="44.12233" lon="3.22108">
        <ele>403.2</ele>
        <time>2022-06-16T07:19:08Z</time>
      </trkpt>
      <trkpt lat="44.12227" lon="3.22097">
        <ele>403</ele>
        <time>2022-06-16T07:19:10Z</time>
      </trkpt>
      <trkpt lat="44.12221" lon="3.22086">
        <ele>403</ele>
        <time>2022-06-16T07:19:12Z</time>
      </trkpt>
      <trkpt lat="44.12215" lon="3.22074">
        <ele>403</ele>
        <time>2022-06-16T07:19:14Z</time>
      </trkpt>
      <trkpt lat="44.12214" lon="3.22057">
        <ele>403</ele>
        <time>2022-06-16T07:19:17Z</time>
      </trkpt>
      <trkpt lat="44.12215" lon="3.22042">
        <ele>403</ele>
        <time>2022-06-16T07:19:20Z</time>
      </trkpt>
      <trkpt lat="44.12216" lon="3.22033">
        <ele>402.8</ele>
        <time>2022-06-16T07:19:22Z</time>
      </trkpt>
      <trkpt lat="44.1223" lon="3.22024">
        <ele>402.8</ele>
        <time>2022-06-16T07:19:24Z</time>
      </trkpt>
      <trkpt lat="44.12232" lon="3.22006">
        <ele>403.6</ele>
        <time>2022-06-16T07:19:30Z</time>
      </trkpt>
      <trkpt lat="44.12232" lon="3.21998">
        <ele>404</ele>
        <time>2022-06-16T07:19:33Z</time>
      </trkpt>
      <trkpt lat="44.12231" lon="3.21995">
        <ele>404</ele>
        <time>2022-06-16T07:19:34Z</time>
      </trkpt>
      <trkpt lat="44.12228" lon="3.21989">
        <ele>404.4</ele>
        <time>2022-06-16T07:19:36Z</time>
      </trkpt>
      <trkpt lat="44.12227" lon="3.21986">
        <ele>404.6</ele>
        <time>2022-06-16T07:19:38Z</time>
      </trkpt>
      <trkpt lat="44.12225" lon="3.21982">
        <ele>404.8</ele>
        <time>2022-06-16T07:19:40Z</time>
      </trkpt>
      <trkpt lat="44.1222" lon="3.21977">
        <ele>405.2</ele>
        <time>2022-06-16T07:19:42Z</time>
      </trkpt>
      <trkpt lat="44.12215" lon="3.21972">
        <ele>405.6</ele>
        <time>2022-06-16T07:19:44Z</time>
      </trkpt>
      <trkpt lat="44.12215" lon="3.21965">
        <ele>405.8</ele>
        <time>2022-06-16T07:19:46Z</time>
      </trkpt>
      <trkpt lat="44.12208" lon="3.21959">
        <ele>406.2</ele>
        <time>2022-06-16T07:19:48Z</time>
      </trkpt>
      <trkpt lat="44.12202" lon="3.21951">
        <ele>406.8</ele>
        <time>2022-06-16T07:19:51Z</time>
      </trkpt>
      <trkpt lat="44.122" lon="3.21947">
        <ele>407.2</ele>
        <time>2022-06-16T07:19:54Z</time>
      </trkpt>
      <trkpt lat="44.12201" lon="3.21945">
        <ele>407.2</ele>
        <time>2022-06-16T07:19:55Z</time>
      </trkpt>
      <trkpt lat="44.122" lon="3.21936">
        <ele>408</ele>
        <time>2022-06-16T07:20:01Z</time>
      </trkpt>
      <trkpt lat="44.12194" lon="3.21924">
        <ele>409</ele>
        <time>2022-06-16T07:20:08Z</time>
      </trkpt>
      <trkpt lat="44.12184" lon="3.21912">
        <ele>409.6</ele>
        <time>2022-06-16T07:20:14Z</time>
      </trkpt>
      <trkpt lat="44.12184" lon="3.21909">
        <ele>409.8</ele>
        <time>2022-06-16T07:20:15Z</time>
      </trkpt>
      <trkpt lat="44.12182" lon="3.21905">
        <ele>410</ele>
        <time>2022-06-16T07:20:17Z</time>
      </trkpt>
      <trkpt lat="44.1218" lon="3.21901">
        <ele>410.2</ele>
        <time>2022-06-16T07:20:19Z</time>
      </trkpt>
      <trkpt lat="44.12178" lon="3.21895">
        <ele>410.4</ele>
        <time>2022-06-16T07:20:21Z</time>
      </trkpt>
      <trkpt lat="44.12177" lon="3.21893">
        <ele>410.4</ele>
        <time>2022-06-16T07:20:22Z</time>
      </trkpt>
      <trkpt lat="44.12169" lon="3.21882">
        <ele>411.2</ele>
        <time>2022-06-16T07:20:27Z</time>
      </trkpt>
      <trkpt lat="44.12163" lon="3.21869">
        <ele>411.6</ele>
        <time>2022-06-16T07:20:32Z</time>
      </trkpt>
      <trkpt lat="44.12158" lon="3.21861">
        <ele>412</ele>
        <time>2022-06-16T07:20:35Z</time>
      </trkpt>
      <trkpt lat="44.12157" lon="3.21858">
        <ele>412.2</ele>
        <time>2022-06-16T07:20:36Z</time>
      </trkpt>
      <trkpt lat="44.12148" lon="3.21847">
        <ele>412.6</ele>
        <time>2022-06-16T07:20:40Z</time>
      </trkpt>
      <trkpt lat="44.12143" lon="3.2184">
        <ele>413</ele>
        <time>2022-06-16T07:20:44Z</time>
      </trkpt>
      <trkpt lat="44.12141" lon="3.21837">
        <ele>413.2</ele>
        <time>2022-06-16T07:20:46Z</time>
      </trkpt>
      <trkpt lat="44.12132" lon="3.21827">
        <ele>413.6</ele>
        <time>2022-06-16T07:20:51Z</time>
      </trkpt>
      <trkpt lat="44.12124" lon="3.2182">
        <ele>414</ele>
        <time>2022-06-16T07:20:55Z</time>
      </trkpt>
      <trkpt lat="44.12121" lon="3.21817">
        <ele>414.2</ele>
        <time>2022-06-16T07:20:58Z</time>
      </trkpt>
      <trkpt lat="44.1211" lon="3.21805">
        <ele>414.8</ele>
        <time>2022-06-16T07:21:04Z</time>
      </trkpt>
      <trkpt lat="44.12104" lon="3.21799">
        <ele>415.2</ele>
        <time>2022-06-16T07:21:07Z</time>
      </trkpt>
      <trkpt lat="44.12102" lon="3.21797">
        <ele>415.4</ele>
        <time>2022-06-16T07:21:08Z</time>
      </trkpt>
      <trkpt lat="44.121" lon="3.21795">
        <ele>415.4</ele>
        <time>2022-06-16T07:21:09Z</time>
      </trkpt>
      <trkpt lat="44.12097" lon="3.21791">
        <ele>415.6</ele>
        <time>2022-06-16T07:21:11Z</time>
      </trkpt>
      <trkpt lat="44.12086" lon="3.2178">
        <ele>416</ele>
        <time>2022-06-16T07:21:15Z</time>
      </trkpt>
      <trkpt lat="44.12072" lon="3.21763">
        <ele>416.4</ele>
        <time>2022-06-16T07:21:21Z</time>
      </trkpt>
      <trkpt lat="44.12067" lon="3.21759">
        <ele>416.8</ele>
        <time>2022-06-16T07:21:23Z</time>
      </trkpt>
      <trkpt lat="44.12051" lon="3.2175">
        <ele>417.2</ele>
        <time>2022-06-16T07:21:29Z</time>
      </trkpt>
      <trkpt lat="44.12044" lon="3.21751">
        <ele>417.6</ele>
        <time>2022-06-16T07:21:32Z</time>
      </trkpt>
      <trkpt lat="44.12038" lon="3.21754">
        <ele>417.8</ele>
        <time>2022-06-16T07:21:35Z</time>
      </trkpt>
      <trkpt lat="44.12026" lon="3.21763">
        <ele>418.6</ele>
        <time>2022-06-16T07:21:41Z</time>
      </trkpt>
      <trkpt lat="44.12024" lon="3.21767">
        <ele>418.8</ele>
        <time>2022-06-16T07:21:43Z</time>
      </trkpt>
      <trkpt lat="44.12016" lon="3.21771">
        <ele>419</ele>
        <time>2022-06-16T07:21:46Z</time>
      </trkpt>
      <trkpt lat="44.12" lon="3.21778">
        <ele>419.4</ele>
        <time>2022-06-16T07:21:52Z</time>
      </trkpt>
      <trkpt lat="44.11998" lon="3.21779">
        <ele>419.6</ele>
        <time>2022-06-16T07:21:53Z</time>
      </trkpt>
      <trkpt lat="44.11994" lon="3.21781">
        <ele>419.8</ele>
        <time>2022-06-16T07:21:55Z</time>
      </trkpt>
      <trkpt lat="44.11982" lon="3.2178">
        <ele>420.2</ele>
        <time>2022-06-16T07:22:00Z</time>
      </trkpt>
      <trkpt lat="44.11973" lon="3.2177">
        <ele>420.8</ele>
        <time>2022-06-16T07:22:05Z</time>
      </trkpt>
      <trkpt lat="44.11972" lon="3.21768">
        <ele>420.8</ele>
        <time>2022-06-16T07:22:06Z</time>
      </trkpt>
      <trkpt lat="44.11973" lon="3.21749">
        <ele>421.4</ele>
        <time>2022-06-16T07:22:12Z</time>
      </trkpt>
      <trkpt lat="44.11977" lon="3.21738">
        <ele>422</ele>
        <time>2022-06-16T07:22:17Z</time>
      </trkpt>
      <trkpt lat="44.11979" lon="3.21736">
        <ele>421.8</ele>
        <time>2022-06-16T07:22:18Z</time>
      </trkpt>
      <trkpt lat="44.11982" lon="3.2173">
        <ele>422.2</ele>
        <time>2022-06-16T07:22:21Z</time>
      </trkpt>
      <trkpt lat="44.11986" lon="3.21718">
        <ele>422.8</ele>
        <time>2022-06-16T07:22:25Z</time>
      </trkpt>
      <trkpt lat="44.11985" lon="3.21711">
        <ele>423.2</ele>
        <time>2022-06-16T07:22:27Z</time>
      </trkpt>
      <trkpt lat="44.11983" lon="3.21704">
        <ele>423.4</ele>
        <time>2022-06-16T07:22:29Z</time>
      </trkpt>
      <trkpt lat="44.11984" lon="3.21699">
        <ele>423.6</ele>
        <time>2022-06-16T07:22:31Z</time>
      </trkpt>
      <trkpt lat="44.11985" lon="3.21698">
        <ele>423.6</ele>
        <time>2022-06-16T07:22:32Z</time>
      </trkpt>
      <trkpt lat="44.11985" lon="3.21698">
        <ele>424</ele>
        <time>2022-06-16T07:22:34Z</time>
      </trkpt>
      <trkpt lat="44.11985" lon="3.21698">
        <ele>424.2</ele>
        <time>2022-06-16T07:22:35Z</time>
      </trkpt>
      <trkpt lat="44.11985" lon="3.21697">
        <ele>424.2</ele>
        <time>2022-06-16T07:22:36Z</time>
      </trkpt>
      <trkpt lat="44.11982" lon="3.21695">
        <ele>424.4</ele>
        <time>2022-06-16T07:22:38Z</time>
      </trkpt>
      <trkpt lat="44.11979" lon="3.21688">
        <ele>425</ele>
        <time>2022-06-16T07:22:42Z</time>
      </trkpt>
      <trkpt lat="44.11977" lon="3.21686">
        <ele>425.4</ele>
        <time>2022-06-16T07:22:43Z</time>
      </trkpt>
      <trkpt lat="44.1197" lon="3.21678">
        <ele>426.2</ele>
        <time>2022-06-16T07:22:48Z</time>
      </trkpt>
      <trkpt lat="44.11968" lon="3.21678">
        <ele>426.4</ele>
        <time>2022-06-16T07:22:49Z</time>
      </trkpt>
      <trkpt lat="44.11966" lon="3.21676">
        <ele>426.6</ele>
        <time>2022-06-16T07:22:51Z</time>
      </trkpt>
      <trkpt lat="44.11964" lon="3.21674">
        <ele>426.8</ele>
        <time>2022-06-16T07:22:53Z</time>
      </trkpt>
      <trkpt lat="44.11957" lon="3.21673">
        <ele>427</ele>
        <time>2022-06-16T07:22:56Z</time>
      </trkpt>
      <trkpt lat="44.11953" lon="3.21674">
        <ele>427.4</ele>
        <time>2022-06-16T07:22:58Z</time>
      </trkpt>
      <trkpt lat="44.11951" lon="3.21674">
        <ele>427.4</ele>
        <time>2022-06-16T07:22:59Z</time>
      </trkpt>
      <trkpt lat="44.11948" lon="3.21673">
        <ele>428.4</ele>
        <time>2022-06-16T07:23:05Z</time>
      </trkpt>
      <trkpt lat="44.1194" lon="3.21664">
        <ele>429.2</ele>
        <time>2022-06-16T07:23:11Z</time>
      </trkpt>
      <trkpt lat="44.11939" lon="3.21662">
        <ele>429.4</ele>
        <time>2022-06-16T07:23:12Z</time>
      </trkpt>
      <trkpt lat="44.11938" lon="3.2166">
        <ele>429.6</ele>
        <time>2022-06-16T07:23:13Z</time>
      </trkpt>
      <trkpt lat="44.11939" lon="3.21658">
        <ele>430</ele>
        <time>2022-06-16T07:23:15Z</time>
      </trkpt>
      <trkpt lat="44.11937" lon="3.21657">
        <ele>430</ele>
        <time>2022-06-16T07:23:16Z</time>
      </trkpt>
      <trkpt lat="44.11935" lon="3.21653">
        <ele>430.4</ele>
        <time>2022-06-16T07:23:18Z</time>
      </trkpt>
      <trkpt lat="44.11934" lon="3.21652">
        <ele>430.6</ele>
        <time>2022-06-16T07:23:19Z</time>
      </trkpt>
      <trkpt lat="44.11934" lon="3.2165">
        <ele>430.6</ele>
        <time>2022-06-16T07:23:20Z</time>
      </trkpt>
      <trkpt lat="44.11934" lon="3.21646">
        <ele>431</ele>
        <time>2022-06-16T07:23:22Z</time>
      </trkpt>
      <trkpt lat="44.11933" lon="3.21643">
        <ele>431.2</ele>
        <time>2022-06-16T07:23:24Z</time>
      </trkpt>
      <trkpt lat="44.11932" lon="3.21641">
        <ele>431.2</ele>
        <time>2022-06-16T07:23:25Z</time>
      </trkpt>
      <trkpt lat="44.11932" lon="3.2164">
        <ele>431.4</ele>
        <time>2022-06-16T07:23:26Z</time>
      </trkpt>
      <trkpt lat="44.11933" lon="3.21639">
        <ele>431.6</ele>
        <time>2022-06-16T07:23:27Z</time>
      </trkpt>
      <trkpt lat="44.11933" lon="3.21637">
        <ele>431.8</ele>
        <time>2022-06-16T07:23:28Z</time>
      </trkpt>
      <trkpt lat="44.11933" lon="3.21635">
        <ele>432</ele>
        <time>2022-06-16T07:23:30Z</time>
      </trkpt>
      <trkpt lat="44.11928" lon="3.21631">
        <ele>432.4</ele>
        <time>2022-06-16T07:23:32Z</time>
      </trkpt>
      <trkpt lat="44.11925" lon="3.21626">
        <ele>432.6</ele>
        <time>2022-06-16T07:23:34Z</time>
      </trkpt>
      <trkpt lat="44.11925" lon="3.21625">
        <ele>432.8</ele>
        <time>2022-06-16T07:23:35Z</time>
      </trkpt>
      <trkpt lat="44.11925" lon="3.21621">
        <ele>433</ele>
        <time>2022-06-16T07:23:37Z</time>
      </trkpt>
      <trkpt lat="44.11924" lon="3.21611">
        <ele>433.6</ele>
        <time>2022-06-16T07:23:41Z</time>
      </trkpt>
      <trkpt lat="44.11923" lon="3.2161">
        <ele>434</ele>
        <time>2022-06-16T07:23:42Z</time>
      </trkpt>
      <trkpt lat="44.11922" lon="3.21608">
        <ele>434.2</ele>
        <time>2022-06-16T07:23:43Z</time>
      </trkpt>
      <trkpt lat="44.1192" lon="3.21604">
        <ele>434.6</ele>
        <time>2022-06-16T07:23:45Z</time>
      </trkpt>
      <trkpt lat="44.1192" lon="3.21602">
        <ele>434.8</ele>
        <time>2022-06-16T07:23:47Z</time>
      </trkpt>
      <trkpt lat="44.11917" lon="3.21598">
        <ele>435</ele>
        <time>2022-06-16T07:23:49Z</time>
      </trkpt>
      <trkpt lat="44.11916" lon="3.21596">
        <ele>435</ele>
        <time>2022-06-16T07:23:50Z</time>
      </trkpt>
      <trkpt lat="44.11915" lon="3.21593">
        <ele>435.2</ele>
        <time>2022-06-16T07:23:51Z</time>
      </trkpt>
      <trkpt lat="44.11912" lon="3.21588">
        <ele>435.6</ele>
        <time>2022-06-16T07:23:54Z</time>
      </trkpt>
      <trkpt lat="44.11909" lon="3.21583">
        <ele>436.2</ele>
        <time>2022-06-16T07:23:57Z</time>
      </trkpt>
      <trkpt lat="44.11909" lon="3.2158">
        <ele>436.4</ele>
        <time>2022-06-16T07:24:00Z</time>
      </trkpt>
      <trkpt lat="44.11905" lon="3.21574">
        <ele>436.6</ele>
        <time>2022-06-16T07:24:02Z</time>
      </trkpt>
      <trkpt lat="44.119" lon="3.21568">
        <ele>437.2</ele>
        <time>2022-06-16T07:24:06Z</time>
      </trkpt>
      <trkpt lat="44.11899" lon="3.21566">
        <ele>437.2</ele>
        <time>2022-06-16T07:24:07Z</time>
      </trkpt>
      <trkpt lat="44.11899" lon="3.21565">
        <ele>437.4</ele>
        <time>2022-06-16T07:24:08Z</time>
      </trkpt>
      <trkpt lat="44.11898" lon="3.2156">
        <ele>437.6</ele>
        <time>2022-06-16T07:24:10Z</time>
      </trkpt>
      <trkpt lat="44.11897" lon="3.21558">
        <ele>437.8</ele>
        <time>2022-06-16T07:24:11Z</time>
      </trkpt>
      <trkpt lat="44.11893" lon="3.21553">
        <ele>438.2</ele>
        <time>2022-06-16T07:24:14Z</time>
      </trkpt>
      <trkpt lat="44.11891" lon="3.21552">
        <ele>438.4</ele>
        <time>2022-06-16T07:24:15Z</time>
      </trkpt>
      <trkpt lat="44.1189" lon="3.2155">
        <ele>438.4</ele>
        <time>2022-06-16T07:24:16Z</time>
      </trkpt>
      <trkpt lat="44.11889" lon="3.21546">
        <ele>439.2</ele>
        <time>2022-06-16T07:24:20Z</time>
      </trkpt>
      <trkpt lat="44.11889" lon="3.21545">
        <ele>439.4</ele>
        <time>2022-06-16T07:24:22Z</time>
      </trkpt>
      <trkpt lat="44.11893" lon="3.21541">
        <ele>440.2</ele>
        <time>2022-06-16T07:24:26Z</time>
      </trkpt>
      <trkpt lat="44.11893" lon="3.21539">
        <ele>440.4</ele>
        <time>2022-06-16T07:24:27Z</time>
      </trkpt>
      <trkpt lat="44.11892" lon="3.21535">
        <ele>440.6</ele>
        <time>2022-06-16T07:24:29Z</time>
      </trkpt>
      <trkpt lat="44.11892" lon="3.21534">
        <ele>440.6</ele>
        <time>2022-06-16T07:24:30Z</time>
      </trkpt>
      <trkpt lat="44.11893" lon="3.2153">
        <ele>440.8</ele>
        <time>2022-06-16T07:24:32Z</time>
      </trkpt>
      <trkpt lat="44.11894" lon="3.21529">
        <ele>441.2</ele>
        <time>2022-06-16T07:24:35Z</time>
      </trkpt>
      <trkpt lat="44.11893" lon="3.21527">
        <ele>441.4</ele>
        <time>2022-06-16T07:24:37Z</time>
      </trkpt>
      <trkpt lat="44.11892" lon="3.21524">
        <ele>441.8</ele>
        <time>2022-06-16T07:24:38Z</time>
      </trkpt>
      <trkpt lat="44.11892" lon="3.21523">
        <ele>442</ele>
        <time>2022-06-16T07:24:39Z</time>
      </trkpt>
      <trkpt lat="44.11891" lon="3.21519">
        <ele>442.2</ele>
        <time>2022-06-16T07:24:41Z</time>
      </trkpt>
      <trkpt lat="44.11889" lon="3.21511">
        <ele>442.6</ele>
        <time>2022-06-16T07:24:44Z</time>
      </trkpt>
      <trkpt lat="44.11888" lon="3.2151">
        <ele>442.8</ele>
        <time>2022-06-16T07:24:45Z</time>
      </trkpt>
      <trkpt lat="44.11887" lon="3.21508">
        <ele>443</ele>
        <time>2022-06-16T07:24:47Z</time>
      </trkpt>
      <trkpt lat="44.11886" lon="3.21505">
        <ele>443.6</ele>
        <time>2022-06-16T07:24:50Z</time>
      </trkpt>
      <trkpt lat="44.11886" lon="3.21505">
        <ele>444</ele>
        <time>2022-06-16T07:24:52Z</time>
      </trkpt>
      <trkpt lat="44.11884" lon="3.21502">
        <ele>445</ele>
        <time>2022-06-16T07:24:58Z</time>
      </trkpt>
      <trkpt lat="44.11885" lon="3.21501">
        <ele>445.2</ele>
        <time>2022-06-16T07:24:59Z</time>
      </trkpt>
      <trkpt lat="44.11883" lon="3.21498">
        <ele>445.8</ele>
        <time>2022-06-16T07:25:04Z</time>
      </trkpt>
      <trkpt lat="44.1188" lon="3.21495">
        <ele>445.8</ele>
        <time>2022-06-16T07:25:05Z</time>
      </trkpt>
      <trkpt lat="44.11879" lon="3.21495">
        <ele>446.2</ele>
        <time>2022-06-16T07:25:07Z</time>
      </trkpt>
      <trkpt lat="44.11877" lon="3.21491">
        <ele>446.6</ele>
        <time>2022-06-16T07:25:11Z</time>
      </trkpt>
      <trkpt lat="44.11862" lon="3.21475">
        <ele>447</ele>
        <time>2022-06-16T07:25:15Z</time>
      </trkpt>
      <trkpt lat="44.1186" lon="3.21471">
        <ele>447.2</ele>
        <time>2022-06-16T07:25:18Z</time>
      </trkpt>
      <trkpt lat="44.11856" lon="3.21466">
        <ele>447.4</ele>
        <time>2022-06-16T07:25:19Z</time>
      </trkpt>
      <trkpt lat="44.11848" lon="3.21455">
        <ele>447.6</ele>
        <time>2022-06-16T07:25:22Z</time>
      </trkpt>
      <trkpt lat="44.11848" lon="3.21448">
        <ele>448.2</ele>
        <time>2022-06-16T07:25:24Z</time>
      </trkpt>
      <trkpt lat="44.11847" lon="3.21444">
        <ele>448.6</ele>
        <time>2022-06-16T07:25:25Z</time>
      </trkpt>
      <trkpt lat="44.11846" lon="3.21431">
        <ele>449</ele>
        <time>2022-06-16T07:25:29Z</time>
      </trkpt>
      <trkpt lat="44.11845" lon="3.21427">
        <ele>449</ele>
        <time>2022-06-16T07:25:30Z</time>
      </trkpt>
      <trkpt lat="44.11848" lon="3.21419">
        <ele>449.8</ele>
        <time>2022-06-16T07:25:35Z</time>
      </trkpt>
      <trkpt lat="44.11847" lon="3.21417">
        <ele>449.8</ele>
        <time>2022-06-16T07:25:36Z</time>
      </trkpt>
      <trkpt lat="44.11843" lon="3.2141">
        <ele>450</ele>
        <time>2022-06-16T07:25:38Z</time>
      </trkpt>
      <trkpt lat="44.11843" lon="3.21409">
        <ele>450.6</ele>
        <time>2022-06-16T07:25:40Z</time>
      </trkpt>
      <trkpt lat="44.11844" lon="3.21409">
        <ele>450.8</ele>
        <time>2022-06-16T07:25:41Z</time>
      </trkpt>
      <trkpt lat="44.11844" lon="3.21408">
        <ele>451</ele>
        <time>2022-06-16T07:25:42Z</time>
      </trkpt>
      <trkpt lat="44.11844" lon="3.21405">
        <ele>451.2</ele>
        <time>2022-06-16T07:25:44Z</time>
      </trkpt>
      <trkpt lat="44.11845" lon="3.214">
        <ele>451.4</ele>
        <time>2022-06-16T07:25:46Z</time>
      </trkpt>
      <trkpt lat="44.11844" lon="3.21395">
        <ele>451.8</ele>
        <time>2022-06-16T07:25:49Z</time>
      </trkpt>
      <trkpt lat="44.11844" lon="3.21391">
        <ele>452</ele>
        <time>2022-06-16T07:25:51Z</time>
      </trkpt>
      <trkpt lat="44.11844" lon="3.21387">
        <ele>452.2</ele>
        <time>2022-06-16T07:25:53Z</time>
      </trkpt>
      <trkpt lat="44.11844" lon="3.21385">
        <ele>452.2</ele>
        <time>2022-06-16T07:25:54Z</time>
      </trkpt>
      <trkpt lat="44.11845" lon="3.21379">
        <ele>452.6</ele>
        <time>2022-06-16T07:25:56Z</time>
      </trkpt>
      <trkpt lat="44.11849" lon="3.21372">
        <ele>452.8</ele>
        <time>2022-06-16T07:25:59Z</time>
      </trkpt>
      <trkpt lat="44.1185" lon="3.2137">
        <ele>453</ele>
        <time>2022-06-16T07:26:00Z</time>
      </trkpt>
      <trkpt lat="44.1185" lon="3.21367">
        <ele>453</ele>
        <time>2022-06-16T07:26:01Z</time>
      </trkpt>
      <trkpt lat="44.11851" lon="3.21363">
        <ele>453.6</ele>
        <time>2022-06-16T07:26:03Z</time>
      </trkpt>
      <trkpt lat="44.11854" lon="3.21361">
        <ele>454.2</ele>
        <time>2022-06-16T07:26:05Z</time>
      </trkpt>
      <trkpt lat="44.11857" lon="3.21355">
        <ele>454.6</ele>
        <time>2022-06-16T07:26:07Z</time>
      </trkpt>
      <trkpt lat="44.11857" lon="3.21353">
        <ele>454.6</ele>
        <time>2022-06-16T07:26:08Z</time>
      </trkpt>
      <trkpt lat="44.11856" lon="3.21345">
        <ele>454.8</ele>
        <time>2022-06-16T07:26:11Z</time>
      </trkpt>
      <trkpt lat="44.11858" lon="3.21341">
        <ele>454.8</ele>
        <time>2022-06-16T07:26:13Z</time>
      </trkpt>
      <trkpt lat="44.1186" lon="3.2133">
        <ele>455.2</ele>
        <time>2022-06-16T07:26:18Z</time>
      </trkpt>
      <trkpt lat="44.11859" lon="3.21329">
        <ele>455.2</ele>
        <time>2022-06-16T07:26:19Z</time>
      </trkpt>
      <trkpt lat="44.1186" lon="3.21324">
        <ele>455.6</ele>
        <time>2022-06-16T07:26:22Z</time>
      </trkpt>
      <trkpt lat="44.11863" lon="3.21316">
        <ele>456.2</ele>
        <time>2022-06-16T07:26:27Z</time>
      </trkpt>
      <trkpt lat="44.11864" lon="3.21314">
        <ele>456.4</ele>
        <time>2022-06-16T07:26:29Z</time>
      </trkpt>
      <trkpt lat="44.11867" lon="3.2131">
        <ele>457.2</ele>
        <time>2022-06-16T07:26:33Z</time>
      </trkpt>
      <trkpt lat="44.1187" lon="3.21308">
        <ele>457.6</ele>
        <time>2022-06-16T07:26:35Z</time>
      </trkpt>
      <trkpt lat="44.11872" lon="3.21305">
        <ele>457.8</ele>
        <time>2022-06-16T07:26:37Z</time>
      </trkpt>
      <trkpt lat="44.11879" lon="3.213">
        <ele>458.4</ele>
        <time>2022-06-16T07:26:41Z</time>
      </trkpt>
      <trkpt lat="44.11886" lon="3.21284">
        <ele>459.6</ele>
        <time>2022-06-16T07:26:49Z</time>
      </trkpt>
      <trkpt lat="44.11886" lon="3.21281">
        <ele>459.6</ele>
        <time>2022-06-16T07:26:50Z</time>
      </trkpt>
      <trkpt lat="44.11884" lon="3.21275">
        <ele>460.2</ele>
        <time>2022-06-16T07:26:54Z</time>
      </trkpt>
      <trkpt lat="44.1188" lon="3.21274">
        <ele>460.4</ele>
        <time>2022-06-16T07:26:57Z</time>
      </trkpt>
      <trkpt lat="44.11878" lon="3.21277">
        <ele>460.4</ele>
        <time>2022-06-16T07:26:59Z</time>
      </trkpt>
      <trkpt lat="44.11877" lon="3.2128">
        <ele>460.6</ele>
        <time>2022-06-16T07:27:01Z</time>
      </trkpt>
      <trkpt lat="44.11874" lon="3.21285">
        <ele>460.8</ele>
        <time>2022-06-16T07:27:04Z</time>
      </trkpt>
      <trkpt lat="44.11873" lon="3.21286">
        <ele>461</ele>
        <time>2022-06-16T07:27:05Z</time>
      </trkpt>
      <trkpt lat="44.11862" lon="3.21296">
        <ele>461.8</ele>
        <time>2022-06-16T07:27:13Z</time>
      </trkpt>
      <trkpt lat="44.11861" lon="3.21297">
        <ele>462</ele>
        <time>2022-06-16T07:27:14Z</time>
      </trkpt>
      <trkpt lat="44.11858" lon="3.213">
        <ele>462.6</ele>
        <time>2022-06-16T07:27:16Z</time>
      </trkpt>
      <trkpt lat="44.11857" lon="3.213">
        <ele>463</ele>
        <time>2022-06-16T07:27:17Z</time>
      </trkpt>
      <trkpt lat="44.11855" lon="3.21302">
        <ele>463</ele>
        <time>2022-06-16T07:27:20Z</time>
      </trkpt>
      <trkpt lat="44.11855" lon="3.21303">
        <ele>463</ele>
        <time>2022-06-16T07:27:21Z</time>
      </trkpt>
      <trkpt lat="44.11853" lon="3.21307">
        <ele>463.4</ele>
        <time>2022-06-16T07:27:24Z</time>
      </trkpt>
      <trkpt lat="44.1185" lon="3.21313">
        <ele>463.8</ele>
        <time>2022-06-16T07:27:27Z</time>
      </trkpt>
      <trkpt lat="44.11849" lon="3.21316">
        <ele>464</ele>
        <time>2022-06-16T07:27:29Z</time>
      </trkpt>
      <trkpt lat="44.11848" lon="3.21319">
        <ele>464</ele>
        <time>2022-06-16T07:27:31Z</time>
      </trkpt>
      <trkpt lat="44.11847" lon="3.21323">
        <ele>464.2</ele>
        <time>2022-06-16T07:27:33Z</time>
      </trkpt>
      <trkpt lat="44.11847" lon="3.21325">
        <ele>464.4</ele>
        <time>2022-06-16T07:27:34Z</time>
      </trkpt>
      <trkpt lat="44.11842" lon="3.21337">
        <ele>465.2</ele>
        <time>2022-06-16T07:27:40Z</time>
      </trkpt>
      <trkpt lat="44.11841" lon="3.21339">
        <ele>465.4</ele>
        <time>2022-06-16T07:27:41Z</time>
      </trkpt>
      <trkpt lat="44.11838" lon="3.21346">
        <ele>466.2</ele>
        <time>2022-06-16T07:27:44Z</time>
      </trkpt>
      <trkpt lat="44.11835" lon="3.21348">
        <ele>466.4</ele>
        <time>2022-06-16T07:27:45Z</time>
      </trkpt>
      <trkpt lat="44.11832" lon="3.21352">
        <ele>466.4</ele>
        <time>2022-06-16T07:27:47Z</time>
      </trkpt>
      <trkpt lat="44.11831" lon="3.21354">
        <ele>466.6</ele>
        <time>2022-06-16T07:27:48Z</time>
      </trkpt>
      <trkpt lat="44.1183" lon="3.21358">
        <ele>466.8</ele>
        <time>2022-06-16T07:27:50Z</time>
      </trkpt>
      <trkpt lat="44.11827" lon="3.21363">
        <ele>467</ele>
        <time>2022-06-16T07:27:53Z</time>
      </trkpt>
      <trkpt lat="44.11825" lon="3.21364">
        <ele>467.2</ele>
        <time>2022-06-16T07:27:54Z</time>
      </trkpt>
      <trkpt lat="44.11824" lon="3.21366">
        <ele>467.4</ele>
        <time>2022-06-16T07:27:55Z</time>
      </trkpt>
      <trkpt lat="44.1182" lon="3.21371">
        <ele>467.6</ele>
        <time>2022-06-16T07:27:58Z</time>
      </trkpt>
      <trkpt lat="44.11819" lon="3.21372">
        <ele>467.8</ele>
        <time>2022-06-16T07:27:59Z</time>
      </trkpt>
      <trkpt lat="44.11816" lon="3.21376">
        <ele>468.2</ele>
        <time>2022-06-16T07:28:02Z</time>
      </trkpt>
      <trkpt lat="44.11815" lon="3.2138">
        <ele>468.6</ele>
        <time>2022-06-16T07:28:04Z</time>
      </trkpt>
      <trkpt lat="44.11814" lon="3.2138">
        <ele>468.6</ele>
        <time>2022-06-16T07:28:05Z</time>
      </trkpt>
      <trkpt lat="44.11808" lon="3.21387">
        <ele>469.2</ele>
        <time>2022-06-16T07:28:11Z</time>
      </trkpt>
      <trkpt lat="44.11804" lon="3.21391">
        <ele>469.6</ele>
        <time>2022-06-16T07:28:14Z</time>
      </trkpt>
      <trkpt lat="44.11804" lon="3.21392">
        <ele>469.8</ele>
        <time>2022-06-16T07:28:15Z</time>
      </trkpt>
      <trkpt lat="44.11802" lon="3.21394">
        <ele>470</ele>
        <time>2022-06-16T07:28:17Z</time>
      </trkpt>
      <trkpt lat="44.11801" lon="3.21396">
        <ele>470.2</ele>
        <time>2022-06-16T07:28:18Z</time>
      </trkpt>
      <trkpt lat="44.11797" lon="3.214">
        <ele>470.8</ele>
        <time>2022-06-16T07:28:21Z</time>
      </trkpt>
      <trkpt lat="44.11797" lon="3.21401">
        <ele>471</ele>
        <time>2022-06-16T07:28:22Z</time>
      </trkpt>
      <trkpt lat="44.11796" lon="3.21403">
        <ele>471.2</ele>
        <time>2022-06-16T07:28:23Z</time>
      </trkpt>
      <trkpt lat="44.1179" lon="3.21411">
        <ele>471.6</ele>
        <time>2022-06-16T07:28:27Z</time>
      </trkpt>
      <trkpt lat="44.11787" lon="3.21417">
        <ele>472</ele>
        <time>2022-06-16T07:28:30Z</time>
      </trkpt>
      <trkpt lat="44.11787" lon="3.21418">
        <ele>472</ele>
        <time>2022-06-16T07:28:31Z</time>
      </trkpt>
      <trkpt lat="44.11787" lon="3.21419">
        <ele>472.2</ele>
        <time>2022-06-16T07:28:32Z</time>
      </trkpt>
      <trkpt lat="44.11787" lon="3.21426">
        <ele>472.8</ele>
        <time>2022-06-16T07:28:36Z</time>
      </trkpt>
      <trkpt lat="44.11787" lon="3.21428">
        <ele>473.2</ele>
        <time>2022-06-16T07:28:37Z</time>
      </trkpt>
      <trkpt lat="44.11788" lon="3.21435">
        <ele>473.6</ele>
        <time>2022-06-16T07:28:40Z</time>
      </trkpt>
      <trkpt lat="44.1179" lon="3.2144">
        <ele>474</ele>
        <time>2022-06-16T07:28:43Z</time>
      </trkpt>
      <trkpt lat="44.11791" lon="3.21444">
        <ele>474.2</ele>
        <time>2022-06-16T07:28:45Z</time>
      </trkpt>
      <trkpt lat="44.1179" lon="3.21448">
        <ele>474.4</ele>
        <time>2022-06-16T07:28:47Z</time>
      </trkpt>
      <trkpt lat="44.11791" lon="3.21449">
        <ele>474.6</ele>
        <time>2022-06-16T07:28:48Z</time>
      </trkpt>
      <trkpt lat="44.11795" lon="3.21457">
        <ele>475.2</ele>
        <time>2022-06-16T07:28:53Z</time>
      </trkpt>
      <trkpt lat="44.11795" lon="3.21462">
        <ele>475.4</ele>
        <time>2022-06-16T07:28:55Z</time>
      </trkpt>
      <trkpt lat="44.11798" lon="3.21468">
        <ele>475.6</ele>
        <time>2022-06-16T07:28:58Z</time>
      </trkpt>
      <trkpt lat="44.11802" lon="3.21479">
        <ele>476.4</ele>
        <time>2022-06-16T07:29:04Z</time>
      </trkpt>
      <trkpt lat="44.11803" lon="3.21481">
        <ele>476.6</ele>
        <time>2022-06-16T07:29:05Z</time>
      </trkpt>
      <trkpt lat="44.11804" lon="3.21491">
        <ele>477</ele>
        <time>2022-06-16T07:29:10Z</time>
      </trkpt>
      <trkpt lat="44.11803" lon="3.21494">
        <ele>477.4</ele>
        <time>2022-06-16T07:29:12Z</time>
      </trkpt>
      <trkpt lat="44.11802" lon="3.21502">
        <ele>477.8</ele>
        <time>2022-06-16T07:29:16Z</time>
      </trkpt>
      <trkpt lat="44.11802" lon="3.21506">
        <ele>478</ele>
        <time>2022-06-16T07:29:18Z</time>
      </trkpt>
      <trkpt lat="44.11803" lon="3.21509">
        <ele>478.2</ele>
        <time>2022-06-16T07:29:20Z</time>
      </trkpt>
      <trkpt lat="44.11804" lon="3.21511">
        <ele>478.4</ele>
        <time>2022-06-16T07:29:21Z</time>
      </trkpt>
      <trkpt lat="44.11804" lon="3.21516">
        <ele>478.6</ele>
        <time>2022-06-16T07:29:23Z</time>
      </trkpt>
      <trkpt lat="44.11805" lon="3.21518">
        <ele>478.6</ele>
        <time>2022-06-16T07:29:24Z</time>
      </trkpt>
      <trkpt lat="44.11801" lon="3.21526">
        <ele>479</ele>
        <time>2022-06-16T07:29:27Z</time>
      </trkpt>
      <trkpt lat="44.11804" lon="3.21531">
        <ele>479.6</ele>
        <time>2022-06-16T07:29:30Z</time>
      </trkpt>
      <trkpt lat="44.11805" lon="3.21533">
        <ele>479.4</ele>
        <time>2022-06-16T07:29:31Z</time>
      </trkpt>
      <trkpt lat="44.11806" lon="3.21537">
        <ele>479.8</ele>
        <time>2022-06-16T07:29:33Z</time>
      </trkpt>
      <trkpt lat="44.11807" lon="3.21538">
        <ele>479.8</ele>
        <time>2022-06-16T07:29:34Z</time>
      </trkpt>
      <trkpt lat="44.11807" lon="3.21545">
        <ele>480.2</ele>
        <time>2022-06-16T07:29:38Z</time>
      </trkpt>
      <trkpt lat="44.11807" lon="3.21547">
        <ele>480.2</ele>
        <time>2022-06-16T07:29:39Z</time>
      </trkpt>
      <trkpt lat="44.11805" lon="3.21551">
        <ele>480.6</ele>
        <time>2022-06-16T07:29:41Z</time>
      </trkpt>
      <trkpt lat="44.11805" lon="3.21555">
        <ele>481.2</ele>
        <time>2022-06-16T07:29:43Z</time>
      </trkpt>
      <trkpt lat="44.11806" lon="3.21556">
        <ele>481.4</ele>
        <time>2022-06-16T07:29:45Z</time>
      </trkpt>
      <trkpt lat="44.11806" lon="3.21561">
        <ele>481.6</ele>
        <time>2022-06-16T07:29:47Z</time>
      </trkpt>
      <trkpt lat="44.11806" lon="3.21563">
        <ele>481.8</ele>
        <time>2022-06-16T07:29:48Z</time>
      </trkpt>
      <trkpt lat="44.11808" lon="3.21569">
        <ele>482.2</ele>
        <time>2022-06-16T07:29:51Z</time>
      </trkpt>
      <trkpt lat="44.11808" lon="3.21573">
        <ele>482.2</ele>
        <time>2022-06-16T07:29:53Z</time>
      </trkpt>
      <trkpt lat="44.11808" lon="3.21576">
        <ele>482.4</ele>
        <time>2022-06-16T07:29:54Z</time>
      </trkpt>
      <trkpt lat="44.11807" lon="3.21581">
        <ele>482.4</ele>
        <time>2022-06-16T07:29:56Z</time>
      </trkpt>
      <trkpt lat="44.11812" lon="3.21586">
        <ele>482.8</ele>
        <time>2022-06-16T07:29:59Z</time>
      </trkpt>
      <trkpt lat="44.11812" lon="3.21588">
        <ele>483</ele>
        <time>2022-06-16T07:30:00Z</time>
      </trkpt>
      <trkpt lat="44.11813" lon="3.21591">
        <ele>483.4</ele>
        <time>2022-06-16T07:30:02Z</time>
      </trkpt>
      <trkpt lat="44.11813" lon="3.21599">
        <ele>483.8</ele>
        <time>2022-06-16T07:30:06Z</time>
      </trkpt>
      <trkpt lat="44.11814" lon="3.21605">
        <ele>484.2</ele>
        <time>2022-06-16T07:30:09Z</time>
      </trkpt>
      <trkpt lat="44.11816" lon="3.21612">
        <ele>484.6</ele>
        <time>2022-06-16T07:30:13Z</time>
      </trkpt>
      <trkpt lat="44.11818" lon="3.21615">
        <ele>484.6</ele>
        <time>2022-06-16T07:30:15Z</time>
      </trkpt>
      <trkpt lat="44.11819" lon="3.21618">
        <ele>484.8</ele>
        <time>2022-06-16T07:30:16Z</time>
      </trkpt>
      <trkpt lat="44.11822" lon="3.21627">
        <ele>485.6</ele>
        <time>2022-06-16T07:30:20Z</time>
      </trkpt>
      <trkpt lat="44.11825" lon="3.21629">
        <ele>485.8</ele>
        <time>2022-06-16T07:30:22Z</time>
      </trkpt>
      <trkpt lat="44.11826" lon="3.21631">
        <ele>486</ele>
        <time>2022-06-16T07:30:23Z</time>
      </trkpt>
      <trkpt lat="44.11833" lon="3.21637">
        <ele>486.4</ele>
        <time>2022-06-16T07:30:27Z</time>
      </trkpt>
      <trkpt lat="44.11837" lon="3.21644">
        <ele>487</ele>
        <time>2022-06-16T07:30:31Z</time>
      </trkpt>
      <trkpt lat="44.11835" lon="3.21656">
        <ele>487.8</ele>
        <time>2022-06-16T07:30:37Z</time>
      </trkpt>
      <trkpt lat="44.11837" lon="3.21663">
        <ele>488</ele>
        <time>2022-06-16T07:30:40Z</time>
      </trkpt>
      <trkpt lat="44.11837" lon="3.21667">
        <ele>488.2</ele>
        <time>2022-06-16T07:30:42Z</time>
      </trkpt>
      <trkpt lat="44.11835" lon="3.21672">
        <ele>488.6</ele>
        <time>2022-06-16T07:30:44Z</time>
      </trkpt>
      <trkpt lat="44.11836" lon="3.21678">
        <ele>489</ele>
        <time>2022-06-16T07:30:46Z</time>
      </trkpt>
      <trkpt lat="44.11833" lon="3.21686">
        <ele>489.4</ele>
        <time>2022-06-16T07:30:49Z</time>
      </trkpt>
      <trkpt lat="44.11833" lon="3.21689">
        <ele>489.6</ele>
        <time>2022-06-16T07:30:51Z</time>
      </trkpt>
      <trkpt lat="44.11834" lon="3.21701">
        <ele>490</ele>
        <time>2022-06-16T07:30:57Z</time>
      </trkpt>
      <trkpt lat="44.11834" lon="3.21708">
        <ele>490.4</ele>
        <time>2022-06-16T07:31:00Z</time>
      </trkpt>
      <trkpt lat="44.11831" lon="3.21713">
        <ele>490.8</ele>
        <time>2022-06-16T07:31:03Z</time>
      </trkpt>
      <trkpt lat="44.11829" lon="3.21717">
        <ele>491.2</ele>
        <time>2022-06-16T07:31:06Z</time>
      </trkpt>
      <trkpt lat="44.11827" lon="3.21721">
        <ele>491.6</ele>
        <time>2022-06-16T07:31:08Z</time>
      </trkpt>
      <trkpt lat="44.11826" lon="3.21723">
        <ele>491.8</ele>
        <time>2022-06-16T07:31:09Z</time>
      </trkpt>
      <trkpt lat="44.11817" lon="3.21737">
        <ele>492.6</ele>
        <time>2022-06-16T07:31:17Z</time>
      </trkpt>
      <trkpt lat="44.11813" lon="3.2175">
        <ele>493.4</ele>
        <time>2022-06-16T07:31:24Z</time>
      </trkpt>
      <trkpt lat="44.11813" lon="3.21752">
        <ele>493.4</ele>
        <time>2022-06-16T07:31:25Z</time>
      </trkpt>
      <trkpt lat="44.11813" lon="3.21755">
        <ele>493.6</ele>
        <time>2022-06-16T07:31:26Z</time>
      </trkpt>
      <trkpt lat="44.11814" lon="3.21757">
        <ele>493.8</ele>
        <time>2022-06-16T07:31:27Z</time>
      </trkpt>
      <trkpt lat="44.11815" lon="3.21763">
        <ele>494.2</ele>
        <time>2022-06-16T07:31:30Z</time>
      </trkpt>
      <trkpt lat="44.11816" lon="3.21764">
        <ele>494.2</ele>
        <time>2022-06-16T07:31:31Z</time>
      </trkpt>
      <trkpt lat="44.11816" lon="3.21768">
        <ele>494.6</ele>
        <time>2022-06-16T07:31:33Z</time>
      </trkpt>
      <trkpt lat="44.11818" lon="3.2177">
        <ele>494.6</ele>
        <time>2022-06-16T07:31:34Z</time>
      </trkpt>
      <trkpt lat="44.1182" lon="3.21774">
        <ele>495</ele>
        <time>2022-06-16T07:31:36Z</time>
      </trkpt>
      <trkpt lat="44.11823" lon="3.21777">
        <ele>495.2</ele>
        <time>2022-06-16T07:31:38Z</time>
      </trkpt>
      <trkpt lat="44.11823" lon="3.21779">
        <ele>495.4</ele>
        <time>2022-06-16T07:31:39Z</time>
      </trkpt>
      <trkpt lat="44.11822" lon="3.21784">
        <ele>495.6</ele>
        <time>2022-06-16T07:31:41Z</time>
      </trkpt>
      <trkpt lat="44.11822" lon="3.21785">
        <ele>495.8</ele>
        <time>2022-06-16T07:31:42Z</time>
      </trkpt>
      <trkpt lat="44.11822" lon="3.21788">
        <ele>495.8</ele>
        <time>2022-06-16T07:31:43Z</time>
      </trkpt>
      <trkpt lat="44.11824" lon="3.21797">
        <ele>496.8</ele>
        <time>2022-06-16T07:31:49Z</time>
      </trkpt>
      <trkpt lat="44.11825" lon="3.21801">
        <ele>497</ele>
        <time>2022-06-16T07:31:51Z</time>
      </trkpt>
      <trkpt lat="44.11826" lon="3.21811">
        <ele>498</ele>
        <time>2022-06-16T07:31:57Z</time>
      </trkpt>
      <trkpt lat="44.11826" lon="3.21813">
        <ele>498</ele>
        <time>2022-06-16T07:31:58Z</time>
      </trkpt>
      <trkpt lat="44.11826" lon="3.21815">
        <ele>498.2</ele>
        <time>2022-06-16T07:31:59Z</time>
      </trkpt>
      <trkpt lat="44.11825" lon="3.21818">
        <ele>498.4</ele>
        <time>2022-06-16T07:32:01Z</time>
      </trkpt>
      <trkpt lat="44.11825" lon="3.2182">
        <ele>498.6</ele>
        <time>2022-06-16T07:32:02Z</time>
      </trkpt>
      <trkpt lat="44.11822" lon="3.21825">
        <ele>498.8</ele>
        <time>2022-06-16T07:32:05Z</time>
      </trkpt>
      <trkpt lat="44.11821" lon="3.21829">
        <ele>499.2</ele>
        <time>2022-06-16T07:32:07Z</time>
      </trkpt>
      <trkpt lat="44.11821" lon="3.21831">
        <ele>499.4</ele>
        <time>2022-06-16T07:32:08Z</time>
      </trkpt>
      <trkpt lat="44.1182" lon="3.21837">
        <ele>499.6</ele>
        <time>2022-06-16T07:32:11Z</time>
      </trkpt>
      <trkpt lat="44.11815" lon="3.21844">
        <ele>500.2</ele>
        <time>2022-06-16T07:32:15Z</time>
      </trkpt>
      <trkpt lat="44.11814" lon="3.21846">
        <ele>500.2</ele>
        <time>2022-06-16T07:32:16Z</time>
      </trkpt>
      <trkpt lat="44.11811" lon="3.21857">
        <ele>501.2</ele>
        <time>2022-06-16T07:32:22Z</time>
      </trkpt>
      <trkpt lat="44.1181" lon="3.21861">
        <ele>501.4</ele>
        <time>2022-06-16T07:32:24Z</time>
      </trkpt>
      <trkpt lat="44.11806" lon="3.2187">
        <ele>502</ele>
        <time>2022-06-16T07:32:29Z</time>
      </trkpt>
      <trkpt lat="44.11806" lon="3.21872">
        <ele>502</ele>
        <time>2022-06-16T07:32:30Z</time>
      </trkpt>
      <trkpt lat="44.11803" lon="3.21876">
        <ele>502.6</ele>
        <time>2022-06-16T07:32:33Z</time>
      </trkpt>
      <trkpt lat="44.11801" lon="3.21882">
        <ele>503</ele>
        <time>2022-06-16T07:32:36Z</time>
      </trkpt>
      <trkpt lat="44.11798" lon="3.21891">
        <ele>503.4</ele>
        <time>2022-06-16T07:32:41Z</time>
      </trkpt>
      <trkpt lat="44.11796" lon="3.21894">
        <ele>503.6</ele>
        <time>2022-06-16T07:32:43Z</time>
      </trkpt>
      <trkpt lat="44.11787" lon="3.21905">
        <ele>504.8</ele>
        <time>2022-06-16T07:32:52Z</time>
      </trkpt>
      <trkpt lat="44.11785" lon="3.21906">
        <ele>505.2</ele>
        <time>2022-06-16T07:32:54Z</time>
      </trkpt>
      <trkpt lat="44.1178" lon="3.21908">
        <ele>505.8</ele>
        <time>2022-06-16T07:32:58Z</time>
      </trkpt>
      <trkpt lat="44.11775" lon="3.2191">
        <ele>506.2</ele>
        <time>2022-06-16T07:33:01Z</time>
      </trkpt>
      <trkpt lat="44.1177" lon="3.21912">
        <ele>506.8</ele>
        <time>2022-06-16T07:33:04Z</time>
      </trkpt>
      <trkpt lat="44.11768" lon="3.21913">
        <ele>506.8</ele>
        <time>2022-06-16T07:33:05Z</time>
      </trkpt>
      <trkpt lat="44.11763" lon="3.21917">
        <ele>507.2</ele>
        <time>2022-06-16T07:33:09Z</time>
      </trkpt>
      <trkpt lat="44.11758" lon="3.21924">
        <ele>508</ele>
        <time>2022-06-16T07:33:15Z</time>
      </trkpt>
      <trkpt lat="44.11753" lon="3.21929">
        <ele>508.2</ele>
        <time>2022-06-16T07:33:19Z</time>
      </trkpt>
      <trkpt lat="44.11752" lon="3.21933">
        <ele>508.4</ele>
        <time>2022-06-16T07:33:21Z</time>
      </trkpt>
      <trkpt lat="44.11752" lon="3.21941">
        <ele>509</ele>
        <time>2022-06-16T07:33:25Z</time>
      </trkpt>
      <trkpt lat="44.11753" lon="3.21944">
        <ele>509.2</ele>
        <time>2022-06-16T07:33:26Z</time>
      </trkpt>
      <trkpt lat="44.11756" lon="3.21956">
        <ele>510.2</ele>
        <time>2022-06-16T07:33:32Z</time>
      </trkpt>
      <trkpt lat="44.1176" lon="3.21964">
        <ele>510.8</ele>
        <time>2022-06-16T07:33:37Z</time>
      </trkpt>
      <trkpt lat="44.11761" lon="3.21967">
        <ele>511</ele>
        <time>2022-06-16T07:33:39Z</time>
      </trkpt>
      <trkpt lat="44.11763" lon="3.2197">
        <ele>511.4</ele>
        <time>2022-06-16T07:33:41Z</time>
      </trkpt>
      <trkpt lat="44.11768" lon="3.21981">
        <ele>512.2</ele>
        <time>2022-06-16T07:33:47Z</time>
      </trkpt>
      <trkpt lat="44.11767" lon="3.21985">
        <ele>512.6</ele>
        <time>2022-06-16T07:33:49Z</time>
      </trkpt>
      <trkpt lat="44.11765" lon="3.21995">
        <ele>513.2</ele>
        <time>2022-06-16T07:33:54Z</time>
      </trkpt>
      <trkpt lat="44.11765" lon="3.21999">
        <ele>513.6</ele>
        <time>2022-06-16T07:33:56Z</time>
      </trkpt>
      <trkpt lat="44.11763" lon="3.22011">
        <ele>514.4</ele>
        <time>2022-06-16T07:34:02Z</time>
      </trkpt>
      <trkpt lat="44.11764" lon="3.22013">
        <ele>514.4</ele>
        <time>2022-06-16T07:34:03Z</time>
      </trkpt>
      <trkpt lat="44.11764" lon="3.22026">
        <ele>515.2</ele>
        <time>2022-06-16T07:34:11Z</time>
      </trkpt>
      <trkpt lat="44.11764" lon="3.22028">
        <ele>515.4</ele>
        <time>2022-06-16T07:34:12Z</time>
      </trkpt>
      <trkpt lat="44.1176" lon="3.22037">
        <ele>516</ele>
        <time>2022-06-16T07:34:17Z</time>
      </trkpt>
      <trkpt lat="44.1176" lon="3.2204">
        <ele>516.4</ele>
        <time>2022-06-16T07:34:19Z</time>
      </trkpt>
      <trkpt lat="44.1176" lon="3.2205">
        <ele>517.2</ele>
        <time>2022-06-16T07:34:24Z</time>
      </trkpt>
      <trkpt lat="44.1176" lon="3.22054">
        <ele>517.4</ele>
        <time>2022-06-16T07:34:26Z</time>
      </trkpt>
      <trkpt lat="44.1176" lon="3.22062">
        <ele>518</ele>
        <time>2022-06-16T07:34:31Z</time>
      </trkpt>
      <trkpt lat="44.1176" lon="3.22067">
        <ele>518.4</ele>
        <time>2022-06-16T07:34:34Z</time>
      </trkpt>
      <trkpt lat="44.1176" lon="3.22069">
        <ele>518.6</ele>
        <time>2022-06-16T07:34:35Z</time>
      </trkpt>
      <trkpt lat="44.11761" lon="3.22071">
        <ele>518.8</ele>
        <time>2022-06-16T07:34:36Z</time>
      </trkpt>
      <trkpt lat="44.11762" lon="3.22084">
        <ele>519.6</ele>
        <time>2022-06-16T07:34:43Z</time>
      </trkpt>
      <trkpt lat="44.11763" lon="3.22087">
        <ele>519.8</ele>
        <time>2022-06-16T07:34:44Z</time>
      </trkpt>
      <trkpt lat="44.11768" lon="3.22095">
        <ele>520.6</ele>
        <time>2022-06-16T07:34:51Z</time>
      </trkpt>
      <trkpt lat="44.1177" lon="3.22096">
        <ele>521</ele>
        <time>2022-06-16T07:34:54Z</time>
      </trkpt>
      <trkpt lat="44.11773" lon="3.22096">
        <ele>521.2</ele>
        <time>2022-06-16T07:34:56Z</time>
      </trkpt>
      <trkpt lat="44.11778" lon="3.22098">
        <ele>521.8</ele>
        <time>2022-06-16T07:35:00Z</time>
      </trkpt>
      <trkpt lat="44.1178" lon="3.22098">
        <ele>522</ele>
        <time>2022-06-16T07:35:02Z</time>
      </trkpt>
      <trkpt lat="44.11782" lon="3.22097">
        <ele>522.2</ele>
        <time>2022-06-16T07:35:04Z</time>
      </trkpt>
      <trkpt lat="44.11786" lon="3.22097">
        <ele>523</ele>
        <time>2022-06-16T07:35:07Z</time>
      </trkpt>
      <trkpt lat="44.11793" lon="3.22097">
        <ele>523.8</ele>
        <time>2022-06-16T07:35:12Z</time>
      </trkpt>
      <trkpt lat="44.11796" lon="3.22096">
        <ele>524</ele>
        <time>2022-06-16T07:35:14Z</time>
      </trkpt>
      <trkpt lat="44.11798" lon="3.22095">
        <ele>524</ele>
        <time>2022-06-16T07:35:15Z</time>
      </trkpt>
      <trkpt lat="44.11805" lon="3.22091">
        <ele>524.8</ele>
        <time>2022-06-16T07:35:20Z</time>
      </trkpt>
      <trkpt lat="44.11807" lon="3.2209">
        <ele>524.8</ele>
        <time>2022-06-16T07:35:22Z</time>
      </trkpt>
      <trkpt lat="44.11814" lon="3.22085">
        <ele>525.4</ele>
        <time>2022-06-16T07:35:28Z</time>
      </trkpt>
      <trkpt lat="44.1182" lon="3.22083">
        <ele>525.8</ele>
        <time>2022-06-16T07:35:32Z</time>
      </trkpt>
      <trkpt lat="44.11823" lon="3.2208">
        <ele>526.2</ele>
        <time>2022-06-16T07:35:35Z</time>
      </trkpt>
      <trkpt lat="44.11827" lon="3.2208">
        <ele>526.6</ele>
        <time>2022-06-16T07:35:38Z</time>
      </trkpt>
      <trkpt lat="44.11829" lon="3.22079">
        <ele>526.8</ele>
        <time>2022-06-16T07:35:40Z</time>
      </trkpt>
      <trkpt lat="44.11831" lon="3.22078">
        <ele>527</ele>
        <time>2022-06-16T07:35:41Z</time>
      </trkpt>
      <trkpt lat="44.11841" lon="3.22075">
        <ele>527.8</ele>
        <time>2022-06-16T07:35:49Z</time>
      </trkpt>
      <trkpt lat="44.11843" lon="3.22074">
        <ele>528</ele>
        <time>2022-06-16T07:35:50Z</time>
      </trkpt>
      <trkpt lat="44.11853" lon="3.22074">
        <ele>528.8</ele>
        <time>2022-06-16T07:35:57Z</time>
      </trkpt>
      <trkpt lat="44.11855" lon="3.22074">
        <ele>529</ele>
        <time>2022-06-16T07:35:58Z</time>
      </trkpt>
      <trkpt lat="44.11867" lon="3.22079">
        <ele>529.8</ele>
        <time>2022-06-16T07:36:05Z</time>
      </trkpt>
      <trkpt lat="44.11871" lon="3.22079">
        <ele>530.2</ele>
        <time>2022-06-16T07:36:07Z</time>
      </trkpt>
      <trkpt lat="44.11881" lon="3.22081">
        <ele>530.8</ele>
        <time>2022-06-16T07:36:12Z</time>
      </trkpt>
      <trkpt lat="44.11884" lon="3.22081">
        <ele>531.2</ele>
        <time>2022-06-16T07:36:15Z</time>
      </trkpt>
      <trkpt lat="44.11889" lon="3.2208">
        <ele>531.4</ele>
        <time>2022-06-16T07:36:18Z</time>
      </trkpt>
      <trkpt lat="44.11895" lon="3.22076">
        <ele>532.2</ele>
        <time>2022-06-16T07:36:24Z</time>
      </trkpt>
      <trkpt lat="44.11896" lon="3.22075">
        <ele>532.4</ele>
        <time>2022-06-16T07:36:25Z</time>
      </trkpt>
      <trkpt lat="44.11898" lon="3.22073">
        <ele>532.6</ele>
        <time>2022-06-16T07:36:27Z</time>
      </trkpt>
      <trkpt lat="44.11905" lon="3.2207">
        <ele>533</ele>
        <time>2022-06-16T07:36:32Z</time>
      </trkpt>
      <trkpt lat="44.11906" lon="3.2207">
        <ele>533.4</ele>
        <time>2022-06-16T07:36:33Z</time>
      </trkpt>
      <trkpt lat="44.11915" lon="3.22066">
        <ele>534</ele>
        <time>2022-06-16T07:36:40Z</time>
      </trkpt>
      <trkpt lat="44.1192" lon="3.22064">
        <ele>534.4</ele>
        <time>2022-06-16T07:36:44Z</time>
      </trkpt>
      <trkpt lat="44.1193" lon="3.22059">
        <ele>535.4</ele>
        <time>2022-06-16T07:36:51Z</time>
      </trkpt>
      <trkpt lat="44.11932" lon="3.22059">
        <ele>535.4</ele>
        <time>2022-06-16T07:36:52Z</time>
      </trkpt>
      <trkpt lat="44.11944" lon="3.22059">
        <ele>536.4</ele>
        <time>2022-06-16T07:37:00Z</time>
      </trkpt>
      <trkpt lat="44.11945" lon="3.22061">
        <ele>536.6</ele>
        <time>2022-06-16T07:37:01Z</time>
      </trkpt>
      <trkpt lat="44.11946" lon="3.22063">
        <ele>536.6</ele>
        <time>2022-06-16T07:37:02Z</time>
      </trkpt>
      <trkpt lat="44.11945" lon="3.22068">
        <ele>537</ele>
        <time>2022-06-16T07:37:05Z</time>
      </trkpt>
      <trkpt lat="44.11942" lon="3.2207">
        <ele>537.2</ele>
        <time>2022-06-16T07:37:07Z</time>
      </trkpt>
      <trkpt lat="44.11934" lon="3.22069">
        <ele>537.6</ele>
        <time>2022-06-16T07:37:11Z</time>
      </trkpt>
      <trkpt lat="44.11922" lon="3.22071">
        <ele>538</ele>
        <time>2022-06-16T07:37:16Z</time>
      </trkpt>
      <trkpt lat="44.1191" lon="3.22078">
        <ele>538.6</ele>
        <time>2022-06-16T07:37:21Z</time>
      </trkpt>
      <trkpt lat="44.11905" lon="3.22082">
        <ele>538.8</ele>
        <time>2022-06-16T07:37:23Z</time>
      </trkpt>
      <trkpt lat="44.11885" lon="3.22097">
        <ele>539.4</ele>
        <time>2022-06-16T07:37:31Z</time>
      </trkpt>
      <trkpt lat="44.1188" lon="3.22099">
        <ele>539.6</ele>
        <time>2022-06-16T07:37:33Z</time>
      </trkpt>
      <trkpt lat="44.11878" lon="3.221">
        <ele>539.8</ele>
        <time>2022-06-16T07:37:34Z</time>
      </trkpt>
      <trkpt lat="44.11871" lon="3.221">
        <ele>540</ele>
        <time>2022-06-16T07:37:37Z</time>
      </trkpt>
      <trkpt lat="44.11854" lon="3.22103">
        <ele>540.8</ele>
        <time>2022-06-16T07:37:44Z</time>
      </trkpt>
      <trkpt lat="44.11849" lon="3.22106">
        <ele>541.2</ele>
        <time>2022-06-16T07:37:47Z</time>
      </trkpt>
      <trkpt lat="44.11844" lon="3.22111">
        <ele>541.8</ele>
        <time>2022-06-16T07:37:50Z</time>
      </trkpt>
      <trkpt lat="44.11838" lon="3.22114">
        <ele>542.4</ele>
        <time>2022-06-16T07:37:54Z</time>
      </trkpt>
      <trkpt lat="44.11831" lon="3.22118">
        <ele>542.8</ele>
        <time>2022-06-16T07:37:58Z</time>
      </trkpt>
      <trkpt lat="44.11827" lon="3.22123">
        <ele>543</ele>
        <time>2022-06-16T07:38:01Z</time>
      </trkpt>
      <trkpt lat="44.11815" lon="3.22131">
        <ele>544</ele>
        <time>2022-06-16T07:38:08Z</time>
      </trkpt>
      <trkpt lat="44.11814" lon="3.22132">
        <ele>544</ele>
        <time>2022-06-16T07:38:09Z</time>
      </trkpt>
      <trkpt lat="44.11804" lon="3.2214">
        <ele>545</ele>
        <time>2022-06-16T07:38:16Z</time>
      </trkpt>
      <trkpt lat="44.11801" lon="3.22142">
        <ele>545.4</ele>
        <time>2022-06-16T07:38:18Z</time>
      </trkpt>
      <trkpt lat="44.11791" lon="3.2215">
        <ele>546</ele>
        <time>2022-06-16T07:38:25Z</time>
      </trkpt>
      <trkpt lat="44.11788" lon="3.22152">
        <ele>546.2</ele>
        <time>2022-06-16T07:38:27Z</time>
      </trkpt>
      <trkpt lat="44.11778" lon="3.22162">
        <ele>547</ele>
        <time>2022-06-16T07:38:34Z</time>
      </trkpt>
      <trkpt lat="44.11768" lon="3.22172">
        <ele>548</ele>
        <time>2022-06-16T07:38:42Z</time>
      </trkpt>
      <trkpt lat="44.11766" lon="3.22173">
        <ele>548.2</ele>
        <time>2022-06-16T07:38:43Z</time>
      </trkpt>
      <trkpt lat="44.11762" lon="3.22174">
        <ele>548.6</ele>
        <time>2022-06-16T07:38:46Z</time>
      </trkpt>
      <trkpt lat="44.1176" lon="3.22176">
        <ele>548.6</ele>
        <time>2022-06-16T07:38:47Z</time>
      </trkpt>
      <trkpt lat="44.11754" lon="3.2218">
        <ele>549</ele>
        <time>2022-06-16T07:38:52Z</time>
      </trkpt>
      <trkpt lat="44.11752" lon="3.22181">
        <ele>549.2</ele>
        <time>2022-06-16T07:38:53Z</time>
      </trkpt>
      <trkpt lat="44.11743" lon="3.22184">
        <ele>550</ele>
        <time>2022-06-16T07:38:59Z</time>
      </trkpt>
      <trkpt lat="44.11742" lon="3.22185">
        <ele>550</ele>
        <time>2022-06-16T07:39:00Z</time>
      </trkpt>
      <trkpt lat="44.11735" lon="3.22185">
        <ele>550.6</ele>
        <time>2022-06-16T07:39:05Z</time>
      </trkpt>
      <trkpt lat="44.11729" lon="3.22183">
        <ele>551.2</ele>
        <time>2022-06-16T07:39:09Z</time>
      </trkpt>
      <trkpt lat="44.11723" lon="3.2218">
        <ele>551.2</ele>
        <time>2022-06-16T07:39:12Z</time>
      </trkpt>
      <trkpt lat="44.11718" lon="3.22177">
        <ele>552.2</ele>
        <time>2022-06-16T07:39:16Z</time>
      </trkpt>
      <trkpt lat="44.11708" lon="3.22173">
        <ele>552.6</ele>
        <time>2022-06-16T07:39:22Z</time>
      </trkpt>
      <trkpt lat="44.11704" lon="3.22171">
        <ele>553.2</ele>
        <time>2022-06-16T07:39:25Z</time>
      </trkpt>
      <trkpt lat="44.11699" lon="3.22167">
        <ele>553.4</ele>
        <time>2022-06-16T07:39:29Z</time>
      </trkpt>
      <trkpt lat="44.11695" lon="3.22159">
        <ele>553.8</ele>
        <time>2022-06-16T07:39:34Z</time>
      </trkpt>
      <trkpt lat="44.11693" lon="3.22156">
        <ele>554.2</ele>
        <time>2022-06-16T07:39:36Z</time>
      </trkpt>
      <trkpt lat="44.11691" lon="3.22155">
        <ele>554.2</ele>
        <time>2022-06-16T07:39:37Z</time>
      </trkpt>
      <trkpt lat="44.1169" lon="3.22154">
        <ele>554.4</ele>
        <time>2022-06-16T07:39:38Z</time>
      </trkpt>
      <trkpt lat="44.11684" lon="3.22143">
        <ele>555.2</ele>
        <time>2022-06-16T07:39:43Z</time>
      </trkpt>
      <trkpt lat="44.11678" lon="3.22132">
        <ele>556</ele>
        <time>2022-06-16T07:39:49Z</time>
      </trkpt>
      <trkpt lat="44.11676" lon="3.2213">
        <ele>556.2</ele>
        <time>2022-06-16T07:39:50Z</time>
      </trkpt>
      <trkpt lat="44.11674" lon="3.22128">
        <ele>556.6</ele>
        <time>2022-06-16T07:39:52Z</time>
      </trkpt>
      <trkpt lat="44.1167" lon="3.22123">
        <ele>556.8</ele>
        <time>2022-06-16T07:39:55Z</time>
      </trkpt>
      <trkpt lat="44.11668" lon="3.22121">
        <ele>557.2</ele>
        <time>2022-06-16T07:39:57Z</time>
      </trkpt>
      <trkpt lat="44.11666" lon="3.22113">
        <ele>557.8</ele>
        <time>2022-06-16T07:40:01Z</time>
      </trkpt>
      <trkpt lat="44.11666" lon="3.22111">
        <ele>558</ele>
        <time>2022-06-16T07:40:02Z</time>
      </trkpt>
      <trkpt lat="44.11666" lon="3.22107">
        <ele>558.2</ele>
        <time>2022-06-16T07:40:04Z</time>
      </trkpt>
      <trkpt lat="44.11666" lon="3.22104">
        <ele>558.4</ele>
        <time>2022-06-16T07:40:05Z</time>
      </trkpt>
      <trkpt lat="44.11667" lon="3.22098">
        <ele>558.8</ele>
        <time>2022-06-16T07:40:08Z</time>
      </trkpt>
      <trkpt lat="44.11671" lon="3.22094">
        <ele>559</ele>
        <time>2022-06-16T07:40:11Z</time>
      </trkpt>
      <trkpt lat="44.11672" lon="3.22092">
        <ele>559.4</ele>
        <time>2022-06-16T07:40:12Z</time>
      </trkpt>
      <trkpt lat="44.11677" lon="3.22085">
        <ele>559.8</ele>
        <time>2022-06-16T07:40:16Z</time>
      </trkpt>
      <trkpt lat="44.11683" lon="3.22073">
        <ele>560.4</ele>
        <time>2022-06-16T07:40:22Z</time>
      </trkpt>
      <trkpt lat="44.11687" lon="3.2205">
        <ele>561.4</ele>
        <time>2022-06-16T07:40:31Z</time>
      </trkpt>
      <trkpt lat="44.11686" lon="3.22036">
        <ele>562.4</ele>
        <time>2022-06-16T07:40:38Z</time>
      </trkpt>
      <trkpt lat="44.11684" lon="3.22031">
        <ele>562.6</ele>
        <time>2022-06-16T07:40:40Z</time>
      </trkpt>
      <trkpt lat="44.1168" lon="3.22017">
        <ele>563.2</ele>
        <time>2022-06-16T07:40:47Z</time>
      </trkpt>
      <trkpt lat="44.11678" lon="3.22013">
        <ele>563.6</ele>
        <time>2022-06-16T07:40:49Z</time>
      </trkpt>
      <trkpt lat="44.11677" lon="3.22011">
        <ele>563.6</ele>
        <time>2022-06-16T07:40:50Z</time>
      </trkpt>
      <trkpt lat="44.11676" lon="3.22008">
        <ele>563.8</ele>
        <time>2022-06-16T07:40:52Z</time>
      </trkpt>
      <trkpt lat="44.1167" lon="3.22">
        <ele>564.8</ele>
        <time>2022-06-16T07:40:58Z</time>
      </trkpt>
      <trkpt lat="44.11668" lon="3.21996">
        <ele>565</ele>
        <time>2022-06-16T07:41:00Z</time>
      </trkpt>
      <trkpt lat="44.11659" lon="3.21984">
        <ele>565.4</ele>
        <time>2022-06-16T07:41:07Z</time>
      </trkpt>
      <trkpt lat="44.11657" lon="3.21981">
        <ele>565.8</ele>
        <time>2022-06-16T07:41:09Z</time>
      </trkpt>
      <trkpt lat="44.11647" lon="3.2197">
        <ele>567</ele>
        <time>2022-06-16T07:41:17Z</time>
      </trkpt>
      <trkpt lat="44.11637" lon="3.2196">
        <ele>568</ele>
        <time>2022-06-16T07:41:25Z</time>
      </trkpt>
      <trkpt lat="44.11636" lon="3.21959">
        <ele>568</ele>
        <time>2022-06-16T07:41:26Z</time>
      </trkpt>
      <trkpt lat="44.11632" lon="3.21953">
        <ele>568.8</ele>
        <time>2022-06-16T07:41:32Z</time>
      </trkpt>
      <trkpt lat="44.11631" lon="3.21952">
        <ele>568.8</ele>
        <time>2022-06-16T07:41:33Z</time>
      </trkpt>
      <trkpt lat="44.1163" lon="3.21949">
        <ele>568.8</ele>
        <time>2022-06-16T07:41:35Z</time>
      </trkpt>
      <trkpt lat="44.11627" lon="3.21944">
        <ele>569.4</ele>
        <time>2022-06-16T07:41:38Z</time>
      </trkpt>
      <trkpt lat="44.11623" lon="3.21936">
        <ele>569.6</ele>
        <time>2022-06-16T07:41:41Z</time>
      </trkpt>
      <trkpt lat="44.11623" lon="3.21931">
        <ele>569.8</ele>
        <time>2022-06-16T07:41:43Z</time>
      </trkpt>
      <trkpt lat="44.11623" lon="3.21928">
        <ele>570</ele>
        <time>2022-06-16T07:41:44Z</time>
      </trkpt>
      <trkpt lat="44.11628" lon="3.2191">
        <ele>570.8</ele>
        <time>2022-06-16T07:41:51Z</time>
      </trkpt>
      <trkpt lat="44.11629" lon="3.21909">
        <ele>570.8</ele>
        <time>2022-06-16T07:41:52Z</time>
      </trkpt>
      <trkpt lat="44.11631" lon="3.21905">
        <ele>571</ele>
        <time>2022-06-16T07:41:54Z</time>
      </trkpt>
      <trkpt lat="44.11636" lon="3.21894">
        <ele>571.8</ele>
        <time>2022-06-16T07:42:00Z</time>
      </trkpt>
      <trkpt lat="44.11638" lon="3.2189">
        <ele>572.2</ele>
        <time>2022-06-16T07:42:02Z</time>
      </trkpt>
      <trkpt lat="44.11643" lon="3.2188">
        <ele>572.8</ele>
        <time>2022-06-16T07:42:07Z</time>
      </trkpt>
      <trkpt lat="44.11649" lon="3.21872">
        <ele>573.2</ele>
        <time>2022-06-16T07:42:12Z</time>
      </trkpt>
      <trkpt lat="44.11651" lon="3.2187">
        <ele>573.4</ele>
        <time>2022-06-16T07:42:13Z</time>
      </trkpt>
      <trkpt lat="44.1166" lon="3.2186">
        <ele>574</ele>
        <time>2022-06-16T07:42:19Z</time>
      </trkpt>
      <trkpt lat="44.11661" lon="3.21858">
        <ele>574.2</ele>
        <time>2022-06-16T07:42:20Z</time>
      </trkpt>
      <trkpt lat="44.11667" lon="3.21846">
        <ele>575</ele>
        <time>2022-06-16T07:42:27Z</time>
      </trkpt>
      <trkpt lat="44.11669" lon="3.21842">
        <ele>575.4</ele>
        <time>2022-06-16T07:42:29Z</time>
      </trkpt>
      <trkpt lat="44.11672" lon="3.21833">
        <ele>576</ele>
        <time>2022-06-16T07:42:33Z</time>
      </trkpt>
      <trkpt lat="44.11672" lon="3.21823">
        <ele>576.4</ele>
        <time>2022-06-16T07:42:37Z</time>
      </trkpt>
      <trkpt lat="44.11672" lon="3.21821">
        <ele>576.4</ele>
        <time>2022-06-16T07:42:38Z</time>
      </trkpt>
      <trkpt lat="44.11671" lon="3.21816">
        <ele>576.8</ele>
        <time>2022-06-16T07:42:40Z</time>
      </trkpt>
      <trkpt lat="44.11667" lon="3.21802">
        <ele>577.4</ele>
        <time>2022-06-16T07:42:46Z</time>
      </trkpt>
      <trkpt lat="44.11667" lon="3.218">
        <ele>577.6</ele>
        <time>2022-06-16T07:42:47Z</time>
      </trkpt>
      <trkpt lat="44.11664" lon="3.2179">
        <ele>578.6</ele>
        <time>2022-06-16T07:42:54Z</time>
      </trkpt>
      <trkpt lat="44.11664" lon="3.21788">
        <ele>578.8</ele>
        <time>2022-06-16T07:42:55Z</time>
      </trkpt>
      <trkpt lat="44.11664" lon="3.21778">
        <ele>579.2</ele>
        <time>2022-06-16T07:42:59Z</time>
      </trkpt>
      <trkpt lat="44.11664" lon="3.21777">
        <ele>579.4</ele>
        <time>2022-06-16T07:43:00Z</time>
      </trkpt>
      <trkpt lat="44.11665" lon="3.21771">
        <ele>579.8</ele>
        <time>2022-06-16T07:43:02Z</time>
      </trkpt>
      <trkpt lat="44.11668" lon="3.21758">
        <ele>580.4</ele>
        <time>2022-06-16T07:43:08Z</time>
      </trkpt>
      <trkpt lat="44.11668" lon="3.21756">
        <ele>580.6</ele>
        <time>2022-06-16T07:43:09Z</time>
      </trkpt>
      <trkpt lat="44.11668" lon="3.21751">
        <ele>580.8</ele>
        <time>2022-06-16T07:43:11Z</time>
      </trkpt>
      <trkpt lat="44.11668" lon="3.21748">
        <ele>580.8</ele>
        <time>2022-06-16T07:43:12Z</time>
      </trkpt>
      <trkpt lat="44.11669" lon="3.21744">
        <ele>581</ele>
        <time>2022-06-16T07:43:14Z</time>
      </trkpt>
      <trkpt lat="44.11672" lon="3.21732">
        <ele>581.6</ele>
        <time>2022-06-16T07:43:19Z</time>
      </trkpt>
      <trkpt lat="44.11673" lon="3.2173">
        <ele>581.8</ele>
        <time>2022-06-16T07:43:20Z</time>
      </trkpt>
      <trkpt lat="44.11674" lon="3.21725">
        <ele>582</ele>
        <time>2022-06-16T07:43:22Z</time>
      </trkpt>
      <trkpt lat="44.11675" lon="3.21715">
        <ele>582.6</ele>
        <time>2022-06-16T07:43:27Z</time>
      </trkpt>
      <trkpt lat="44.11673" lon="3.2171">
        <ele>582.8</ele>
        <time>2022-06-16T07:43:29Z</time>
      </trkpt>
      <trkpt lat="44.11673" lon="3.21706">
        <ele>583.2</ele>
        <time>2022-06-16T07:43:31Z</time>
      </trkpt>
      <trkpt lat="44.11673" lon="3.21702">
        <ele>583.2</ele>
        <time>2022-06-16T07:43:33Z</time>
      </trkpt>
      <trkpt lat="44.11673" lon="3.217">
        <ele>583.4</ele>
        <time>2022-06-16T07:43:34Z</time>
      </trkpt>
      <trkpt lat="44.11673" lon="3.21693">
        <ele>583.8</ele>
        <time>2022-06-16T07:43:37Z</time>
      </trkpt>
      <trkpt lat="44.11671" lon="3.21691">
        <ele>584</ele>
        <time>2022-06-16T07:43:38Z</time>
      </trkpt>
      <trkpt lat="44.11669" lon="3.21684">
        <ele>584.4</ele>
        <time>2022-06-16T07:43:42Z</time>
      </trkpt>
      <trkpt lat="44.11668" lon="3.21683">
        <ele>584.6</ele>
        <time>2022-06-16T07:43:43Z</time>
      </trkpt>
      <trkpt lat="44.11668" lon="3.21678">
        <ele>585</ele>
        <time>2022-06-16T07:43:46Z</time>
      </trkpt>
      <trkpt lat="44.11667" lon="3.21674">
        <ele>585.2</ele>
        <time>2022-06-16T07:43:48Z</time>
      </trkpt>
      <trkpt lat="44.11662" lon="3.21666">
        <ele>585.8</ele>
        <time>2022-06-16T07:43:52Z</time>
      </trkpt>
      <trkpt lat="44.11661" lon="3.21664">
        <ele>586</ele>
        <time>2022-06-16T07:43:53Z</time>
      </trkpt>
      <trkpt lat="44.11661" lon="3.21652">
        <ele>586.4</ele>
        <time>2022-06-16T07:43:57Z</time>
      </trkpt>
      <trkpt lat="44.11659" lon="3.21641">
        <ele>587.2</ele>
        <time>2022-06-16T07:44:02Z</time>
      </trkpt>
      <trkpt lat="44.11657" lon="3.21639">
        <ele>587.2</ele>
        <time>2022-06-16T07:44:03Z</time>
      </trkpt>
      <trkpt lat="44.11656" lon="3.21637">
        <ele>587.4</ele>
        <time>2022-06-16T07:44:04Z</time>
      </trkpt>
      <trkpt lat="44.11655" lon="3.21633">
        <ele>587.6</ele>
        <time>2022-06-16T07:44:06Z</time>
      </trkpt>
      <trkpt lat="44.11654" lon="3.21628">
        <ele>588.2</ele>
        <time>2022-06-16T07:44:09Z</time>
      </trkpt>
      <trkpt lat="44.11653" lon="3.21627">
        <ele>588.2</ele>
        <time>2022-06-16T07:44:10Z</time>
      </trkpt>
      <trkpt lat="44.11651" lon="3.21625">
        <ele>588.6</ele>
        <time>2022-06-16T07:44:12Z</time>
      </trkpt>
      <trkpt lat="44.1165" lon="3.21621">
        <ele>588.8</ele>
        <time>2022-06-16T07:44:14Z</time>
      </trkpt>
      <trkpt lat="44.11647" lon="3.21611">
        <ele>589.4</ele>
        <time>2022-06-16T07:44:20Z</time>
      </trkpt>
      <trkpt lat="44.11646" lon="3.21609">
        <ele>589.6</ele>
        <time>2022-06-16T07:44:21Z</time>
      </trkpt>
      <trkpt lat="44.11645" lon="3.21604">
        <ele>589.8</ele>
        <time>2022-06-16T07:44:24Z</time>
      </trkpt>
      <trkpt lat="44.11643" lon="3.21599">
        <ele>590.4</ele>
        <time>2022-06-16T07:44:27Z</time>
      </trkpt>
      <trkpt lat="44.11642" lon="3.21596">
        <ele>590.4</ele>
        <time>2022-06-16T07:44:28Z</time>
      </trkpt>
      <trkpt lat="44.11641" lon="3.21594">
        <ele>590.6</ele>
        <time>2022-06-16T07:44:29Z</time>
      </trkpt>
      <trkpt lat="44.1164" lon="3.21586">
        <ele>590.8</ele>
        <time>2022-06-16T07:44:32Z</time>
      </trkpt>
      <trkpt lat="44.11638" lon="3.2158">
        <ele>591</ele>
        <time>2022-06-16T07:44:35Z</time>
      </trkpt>
      <trkpt lat="44.11637" lon="3.21576">
        <ele>591.4</ele>
        <time>2022-06-16T07:44:37Z</time>
      </trkpt>
      <trkpt lat="44.11636" lon="3.21571">
        <ele>591.4</ele>
        <time>2022-06-16T07:44:39Z</time>
      </trkpt>
      <trkpt lat="44.11634" lon="3.21563">
        <ele>592.2</ele>
        <time>2022-06-16T07:44:44Z</time>
      </trkpt>
      <trkpt lat="44.11633" lon="3.21559">
        <ele>592.4</ele>
        <time>2022-06-16T07:44:46Z</time>
      </trkpt>
      <trkpt lat="44.11633" lon="3.21557">
        <ele>592.4</ele>
        <time>2022-06-16T07:44:47Z</time>
      </trkpt>
      <trkpt lat="44.11632" lon="3.21555">
        <ele>592.6</ele>
        <time>2022-06-16T07:44:48Z</time>
      </trkpt>
      <trkpt lat="44.11632" lon="3.21552">
        <ele>592.8</ele>
        <time>2022-06-16T07:44:49Z</time>
      </trkpt>
      <trkpt lat="44.11631" lon="3.21544">
        <ele>593.2</ele>
        <time>2022-06-16T07:44:52Z</time>
      </trkpt>
      <trkpt lat="44.11632" lon="3.21536">
        <ele>593.6</ele>
        <time>2022-06-16T07:44:55Z</time>
      </trkpt>
      <trkpt lat="44.11632" lon="3.21533">
        <ele>593.6</ele>
        <time>2022-06-16T07:44:56Z</time>
      </trkpt>
      <trkpt lat="44.11631" lon="3.21525">
        <ele>594</ele>
        <time>2022-06-16T07:44:59Z</time>
      </trkpt>
      <trkpt lat="44.1163" lon="3.21519">
        <ele>594.4</ele>
        <time>2022-06-16T07:45:01Z</time>
      </trkpt>
      <trkpt lat="44.1163" lon="3.21517">
        <ele>594.8</ele>
        <time>2022-06-16T07:45:02Z</time>
      </trkpt>
      <trkpt lat="44.11628" lon="3.21495">
        <ele>595.8</ele>
        <time>2022-06-16T07:45:10Z</time>
      </trkpt>
      <trkpt lat="44.11628" lon="3.2149">
        <ele>596.2</ele>
        <time>2022-06-16T07:45:12Z</time>
      </trkpt>
      <trkpt lat="44.11625" lon="3.21484">
        <ele>596.2</ele>
        <time>2022-06-16T07:45:14Z</time>
      </trkpt>
      <trkpt lat="44.11624" lon="3.21482">
        <ele>596.2</ele>
        <time>2022-06-16T07:45:15Z</time>
      </trkpt>
      <trkpt lat="44.11619" lon="3.21475">
        <ele>596.8</ele>
        <time>2022-06-16T07:45:19Z</time>
      </trkpt>
      <trkpt lat="44.11617" lon="3.21471">
        <ele>597</ele>
        <time>2022-06-16T07:45:21Z</time>
      </trkpt>
      <trkpt lat="44.11615" lon="3.21468">
        <ele>597.2</ele>
        <time>2022-06-16T07:45:23Z</time>
      </trkpt>
      <trkpt lat="44.11612" lon="3.21465">
        <ele>597.4</ele>
        <time>2022-06-16T07:45:25Z</time>
      </trkpt>
      <trkpt lat="44.11608" lon="3.2146">
        <ele>597.8</ele>
        <time>2022-06-16T07:45:28Z</time>
      </trkpt>
      <trkpt lat="44.11606" lon="3.21455">
        <ele>598</ele>
        <time>2022-06-16T07:45:31Z</time>
      </trkpt>
      <trkpt lat="44.11605" lon="3.21454">
        <ele>598.2</ele>
        <time>2022-06-16T07:45:32Z</time>
      </trkpt>
      <trkpt lat="44.11602" lon="3.21449">
        <ele>598.4</ele>
        <time>2022-06-16T07:45:35Z</time>
      </trkpt>
      <trkpt lat="44.11601" lon="3.21445">
        <ele>598.8</ele>
        <time>2022-06-16T07:45:37Z</time>
      </trkpt>
      <trkpt lat="44.116" lon="3.21443">
        <ele>599</ele>
        <time>2022-06-16T07:45:38Z</time>
      </trkpt>
      <trkpt lat="44.11596" lon="3.21436">
        <ele>599.6</ele>
        <time>2022-06-16T07:45:43Z</time>
      </trkpt>
      <trkpt lat="44.11595" lon="3.21434">
        <ele>600</ele>
        <time>2022-06-16T07:45:46Z</time>
      </trkpt>
      <trkpt lat="44.11592" lon="3.21432">
        <ele>600.2</ele>
        <time>2022-06-16T07:45:48Z</time>
      </trkpt>
      <trkpt lat="44.11591" lon="3.21429">
        <ele>600.4</ele>
        <time>2022-06-16T07:45:50Z</time>
      </trkpt>
      <trkpt lat="44.1159" lon="3.21427">
        <ele>600.6</ele>
        <time>2022-06-16T07:45:51Z</time>
      </trkpt>
      <trkpt lat="44.1159" lon="3.21422">
        <ele>601</ele>
        <time>2022-06-16T07:45:53Z</time>
      </trkpt>
      <trkpt lat="44.11589" lon="3.21417">
        <ele>601.2</ele>
        <time>2022-06-16T07:45:56Z</time>
      </trkpt>
      <trkpt lat="44.11586" lon="3.21405">
        <ele>601.8</ele>
        <time>2022-06-16T07:46:01Z</time>
      </trkpt>
      <trkpt lat="44.11584" lon="3.21403">
        <ele>602</ele>
        <time>2022-06-16T07:46:02Z</time>
      </trkpt>
      <trkpt lat="44.11583" lon="3.21388">
        <ele>602.6</ele>
        <time>2022-06-16T07:46:08Z</time>
      </trkpt>
      <trkpt lat="44.11582" lon="3.21383">
        <ele>602.8</ele>
        <time>2022-06-16T07:46:10Z</time>
      </trkpt>
      <trkpt lat="44.11584" lon="3.21375">
        <ele>603.2</ele>
        <time>2022-06-16T07:46:14Z</time>
      </trkpt>
      <trkpt lat="44.11587" lon="3.2137">
        <ele>603.8</ele>
        <time>2022-06-16T07:46:17Z</time>
      </trkpt>
      <trkpt lat="44.11586" lon="3.21367">
        <ele>603.8</ele>
        <time>2022-06-16T07:46:18Z</time>
      </trkpt>
      <trkpt lat="44.11588" lon="3.21358">
        <ele>604.2</ele>
        <time>2022-06-16T07:46:21Z</time>
      </trkpt>
      <trkpt lat="44.11588" lon="3.21357">
        <ele>604.2</ele>
        <time>2022-06-16T07:46:22Z</time>
      </trkpt>
      <trkpt lat="44.11589" lon="3.2135">
        <ele>604.6</ele>
        <time>2022-06-16T07:46:27Z</time>
      </trkpt>
      <trkpt lat="44.11588" lon="3.21349">
        <ele>604.8</ele>
        <time>2022-06-16T07:46:28Z</time>
      </trkpt>
      <trkpt lat="44.11589" lon="3.2134">
        <ele>605.2</ele>
        <time>2022-06-16T07:46:32Z</time>
      </trkpt>
      <trkpt lat="44.1159" lon="3.21335">
        <ele>605.2</ele>
        <time>2022-06-16T07:46:34Z</time>
      </trkpt>
      <trkpt lat="44.11591" lon="3.21327">
        <ele>605.8</ele>
        <time>2022-06-16T07:46:38Z</time>
      </trkpt>
      <trkpt lat="44.11593" lon="3.2132">
        <ele>606.2</ele>
        <time>2022-06-16T07:46:41Z</time>
      </trkpt>
      <trkpt lat="44.11595" lon="3.21312">
        <ele>606.6</ele>
        <time>2022-06-16T07:46:45Z</time>
      </trkpt>
      <trkpt lat="44.11597" lon="3.21307">
        <ele>606.8</ele>
        <time>2022-06-16T07:46:47Z</time>
      </trkpt>
      <trkpt lat="44.116" lon="3.21296">
        <ele>607.4</ele>
        <time>2022-06-16T07:46:52Z</time>
      </trkpt>
      <trkpt lat="44.11601" lon="3.21292">
        <ele>607.6</ele>
        <time>2022-06-16T07:46:54Z</time>
      </trkpt>
      <trkpt lat="44.11604" lon="3.21285">
        <ele>608</ele>
        <time>2022-06-16T07:46:58Z</time>
      </trkpt>
      <trkpt lat="44.11605" lon="3.21283">
        <ele>608.2</ele>
        <time>2022-06-16T07:47:00Z</time>
      </trkpt>
      <trkpt lat="44.11606" lon="3.21278">
        <ele>608.4</ele>
        <time>2022-06-16T07:47:03Z</time>
      </trkpt>
      <trkpt lat="44.11607" lon="3.21276">
        <ele>608.6</ele>
        <time>2022-06-16T07:47:04Z</time>
      </trkpt>
      <trkpt lat="44.11609" lon="3.21273">
        <ele>608.8</ele>
        <time>2022-06-16T07:47:07Z</time>
      </trkpt>
      <trkpt lat="44.1161" lon="3.21272">
        <ele>609</ele>
        <time>2022-06-16T07:47:08Z</time>
      </trkpt>
      <trkpt lat="44.11611" lon="3.2127">
        <ele>609.2</ele>
        <time>2022-06-16T07:47:09Z</time>
      </trkpt>
      <trkpt lat="44.11618" lon="3.2126">
        <ele>610.2</ele>
        <time>2022-06-16T07:47:15Z</time>
      </trkpt>
      <trkpt lat="44.11619" lon="3.21258">
        <ele>610.2</ele>
        <time>2022-06-16T07:47:16Z</time>
      </trkpt>
      <trkpt lat="44.11632" lon="3.2124">
        <ele>611.2</ele>
        <time>2022-06-16T07:47:26Z</time>
      </trkpt>
      <trkpt lat="44.11634" lon="3.21238">
        <ele>611.2</ele>
        <time>2022-06-16T07:47:27Z</time>
      </trkpt>
      <trkpt lat="44.11639" lon="3.21234">
        <ele>611.4</ele>
        <time>2022-06-16T07:47:30Z</time>
      </trkpt>
      <trkpt lat="44.11647" lon="3.21221">
        <ele>612.2</ele>
        <time>2022-06-16T07:47:37Z</time>
      </trkpt>
      <trkpt lat="44.11652" lon="3.21207">
        <ele>612.6</ele>
        <time>2022-06-16T07:47:44Z</time>
      </trkpt>
      <trkpt lat="44.11652" lon="3.21205">
        <ele>612.8</ele>
        <time>2022-06-16T07:47:45Z</time>
      </trkpt>
      <trkpt lat="44.11652" lon="3.21197">
        <ele>613.6</ele>
        <time>2022-06-16T07:47:48Z</time>
      </trkpt>
      <trkpt lat="44.11653" lon="3.21193">
        <ele>613.8</ele>
        <time>2022-06-16T07:47:50Z</time>
      </trkpt>
      <trkpt lat="44.11657" lon="3.21177">
        <ele>614.6</ele>
        <time>2022-06-16T07:47:58Z</time>
      </trkpt>
      <trkpt lat="44.11658" lon="3.21175">
        <ele>614.8</ele>
        <time>2022-06-16T07:47:59Z</time>
      </trkpt>
      <trkpt lat="44.11663" lon="3.21162">
        <ele>615.8</ele>
        <time>2022-06-16T07:48:06Z</time>
      </trkpt>
      <trkpt lat="44.11664" lon="3.2116">
        <ele>616</ele>
        <time>2022-06-16T07:48:07Z</time>
      </trkpt>
      <trkpt lat="44.1167" lon="3.21144">
        <ele>616.6</ele>
        <time>2022-06-16T07:48:14Z</time>
      </trkpt>
      <trkpt lat="44.11671" lon="3.21139">
        <ele>617</ele>
        <time>2022-06-16T07:48:16Z</time>
      </trkpt>
      <trkpt lat="44.11673" lon="3.21132">
        <ele>617.2</ele>
        <time>2022-06-16T07:48:19Z</time>
      </trkpt>
      <trkpt lat="44.11672" lon="3.2113">
        <ele>617.2</ele>
        <time>2022-06-16T07:48:20Z</time>
      </trkpt>
      <trkpt lat="44.11666" lon="3.21124">
        <ele>617.6</ele>
        <time>2022-06-16T07:48:24Z</time>
      </trkpt>
      <trkpt lat="44.11664" lon="3.21124">
        <ele>617.8</ele>
        <time>2022-06-16T07:48:25Z</time>
      </trkpt>
      <trkpt lat="44.11658" lon="3.21127">
        <ele>618</ele>
        <time>2022-06-16T07:48:28Z</time>
      </trkpt>
      <trkpt lat="44.11656" lon="3.2113">
        <ele>618</ele>
        <time>2022-06-16T07:48:30Z</time>
      </trkpt>
      <trkpt lat="44.11649" lon="3.21145">
        <ele>619.2</ele>
        <time>2022-06-16T07:48:37Z</time>
      </trkpt>
      <trkpt lat="44.1164" lon="3.21159">
        <ele>620.6</ele>
        <time>2022-06-16T07:48:46Z</time>
      </trkpt>
      <trkpt lat="44.1163" lon="3.21169">
        <ele>621.6</ele>
        <time>2022-06-16T07:48:53Z</time>
      </trkpt>
      <trkpt lat="44.11621" lon="3.21177">
        <ele>622.8</ele>
        <time>2022-06-16T07:48:59Z</time>
      </trkpt>
      <trkpt lat="44.11619" lon="3.21178">
        <ele>623</ele>
        <time>2022-06-16T07:49:00Z</time>
      </trkpt>
      <trkpt lat="44.11611" lon="3.21185">
        <ele>624</ele>
        <time>2022-06-16T07:49:06Z</time>
      </trkpt>
      <trkpt lat="44.116" lon="3.21197">
        <ele>625</ele>
        <time>2022-06-16T07:49:14Z</time>
      </trkpt>
      <trkpt lat="44.11594" lon="3.21217">
        <ele>626.2</ele>
        <time>2022-06-16T07:49:22Z</time>
      </trkpt>
      <trkpt lat="44.11592" lon="3.21221">
        <ele>626.2</ele>
        <time>2022-06-16T07:49:24Z</time>
      </trkpt>
      <trkpt lat="44.11586" lon="3.21239">
        <ele>627.2</ele>
        <time>2022-06-16T07:49:32Z</time>
      </trkpt>
      <trkpt lat="44.11584" lon="3.21243">
        <ele>627.4</ele>
        <time>2022-06-16T07:49:34Z</time>
      </trkpt>
      <trkpt lat="44.11579" lon="3.21253">
        <ele>628</ele>
        <time>2022-06-16T07:49:40Z</time>
      </trkpt>
      <trkpt lat="44.11574" lon="3.21259">
        <ele>628.4</ele>
        <time>2022-06-16T07:49:44Z</time>
      </trkpt>
      <trkpt lat="44.1157" lon="3.21262">
        <ele>628.8</ele>
        <time>2022-06-16T07:49:47Z</time>
      </trkpt>
      <trkpt lat="44.11566" lon="3.21266">
        <ele>629.6</ele>
        <time>2022-06-16T07:49:51Z</time>
      </trkpt>
      <trkpt lat="44.11559" lon="3.21272">
        <ele>630.2</ele>
        <time>2022-06-16T07:49:56Z</time>
      </trkpt>
      <trkpt lat="44.11557" lon="3.21272">
        <ele>630.6</ele>
        <time>2022-06-16T07:49:57Z</time>
      </trkpt>
      <trkpt lat="44.11555" lon="3.21273">
        <ele>630.8</ele>
        <time>2022-06-16T07:49:59Z</time>
      </trkpt>
      <trkpt lat="44.11548" lon="3.21277">
        <ele>631.2</ele>
        <time>2022-06-16T07:50:04Z</time>
      </trkpt>
      <trkpt lat="44.11538" lon="3.21278">
        <ele>632</ele>
        <time>2022-06-16T07:50:11Z</time>
      </trkpt>
      <trkpt lat="44.11537" lon="3.21278">
        <ele>632.2</ele>
        <time>2022-06-16T07:50:12Z</time>
      </trkpt>
      <trkpt lat="44.11534" lon="3.21277">
        <ele>632.4</ele>
        <time>2022-06-16T07:50:15Z</time>
      </trkpt>
      <trkpt lat="44.11532" lon="3.21277">
        <ele>632.8</ele>
        <time>2022-06-16T07:50:17Z</time>
      </trkpt>
      <trkpt lat="44.11529" lon="3.21276">
        <ele>633.2</ele>
        <time>2022-06-16T07:50:19Z</time>
      </trkpt>
      <trkpt lat="44.11527" lon="3.21276">
        <ele>633.2</ele>
        <time>2022-06-16T07:50:20Z</time>
      </trkpt>
      <trkpt lat="44.11522" lon="3.21274">
        <ele>633.8</ele>
        <time>2022-06-16T07:50:24Z</time>
      </trkpt>
      <trkpt lat="44.11512" lon="3.21273">
        <ele>634.4</ele>
        <time>2022-06-16T07:50:31Z</time>
      </trkpt>
      <trkpt lat="44.11511" lon="3.21272">
        <ele>634.4</ele>
        <time>2022-06-16T07:50:32Z</time>
      </trkpt>
      <trkpt lat="44.115" lon="3.21275">
        <ele>635.2</ele>
        <time>2022-06-16T07:50:40Z</time>
      </trkpt>
      <trkpt lat="44.11497" lon="3.21279">
        <ele>635.6</ele>
        <time>2022-06-16T07:50:43Z</time>
      </trkpt>
      <trkpt lat="44.11492" lon="3.21284">
        <ele>636</ele>
        <time>2022-06-16T07:50:47Z</time>
      </trkpt>
      <trkpt lat="44.11484" lon="3.21292">
        <ele>636.6</ele>
        <time>2022-06-16T07:50:54Z</time>
      </trkpt>
      <trkpt lat="44.11473" lon="3.21302">
        <ele>637.4</ele>
        <time>2022-06-16T07:51:02Z</time>
      </trkpt>
      <trkpt lat="44.11472" lon="3.21303">
        <ele>637.6</ele>
        <time>2022-06-16T07:51:03Z</time>
      </trkpt>
      <trkpt lat="44.11458" lon="3.21311">
        <ele>638.6</ele>
        <time>2022-06-16T07:51:12Z</time>
      </trkpt>
      <trkpt lat="44.11457" lon="3.21313">
        <ele>638.6</ele>
        <time>2022-06-16T07:51:13Z</time>
      </trkpt>
      <trkpt lat="44.11442" lon="3.21321">
        <ele>639.4</ele>
        <time>2022-06-16T07:51:19Z</time>
      </trkpt>
      <trkpt lat="44.11433" lon="3.21328">
        <ele>639.8</ele>
        <time>2022-06-16T07:51:23Z</time>
      </trkpt>
      <trkpt lat="44.1143" lon="3.21329">
        <ele>639.8</ele>
        <time>2022-06-16T07:51:24Z</time>
      </trkpt>
      <trkpt lat="44.11416" lon="3.21337">
        <ele>640.6</ele>
        <time>2022-06-16T07:51:30Z</time>
      </trkpt>
      <trkpt lat="44.11407" lon="3.21342">
        <ele>640.8</ele>
        <time>2022-06-16T07:51:34Z</time>
      </trkpt>
      <trkpt lat="44.114" lon="3.21345">
        <ele>641.2</ele>
        <time>2022-06-16T07:51:37Z</time>
      </trkpt>
      <trkpt lat="44.11378" lon="3.21349">
        <ele>642</ele>
        <time>2022-06-16T07:51:46Z</time>
      </trkpt>
      <trkpt lat="44.11372" lon="3.2135">
        <ele>642</ele>
        <time>2022-06-16T07:51:48Z</time>
      </trkpt>
      <trkpt lat="44.11352" lon="3.21352">
        <ele>642.8</ele>
        <time>2022-06-16T07:51:56Z</time>
      </trkpt>
      <trkpt lat="44.1135" lon="3.21352">
        <ele>643</ele>
        <time>2022-06-16T07:51:57Z</time>
      </trkpt>
      <trkpt lat="44.11334" lon="3.21357">
        <ele>644</ele>
        <time>2022-06-16T07:52:04Z</time>
      </trkpt>
      <trkpt lat="44.11331" lon="3.21358">
        <ele>644</ele>
        <time>2022-06-16T07:52:05Z</time>
      </trkpt>
      <trkpt lat="44.11314" lon="3.21364">
        <ele>645</ele>
        <time>2022-06-16T07:52:12Z</time>
      </trkpt>
      <trkpt lat="44.11311" lon="3.21364">
        <ele>645</ele>
        <time>2022-06-16T07:52:13Z</time>
      </trkpt>
      <trkpt lat="44.11296" lon="3.21367">
        <ele>645.8</ele>
        <time>2022-06-16T07:52:20Z</time>
      </trkpt>
      <trkpt lat="44.11289" lon="3.21368">
        <ele>646.2</ele>
        <time>2022-06-16T07:52:23Z</time>
      </trkpt>
      <trkpt lat="44.11273" lon="3.2137">
        <ele>646.8</ele>
        <time>2022-06-16T07:52:29Z</time>
      </trkpt>
      <trkpt lat="44.11265" lon="3.2137">
        <ele>647.2</ele>
        <time>2022-06-16T07:52:32Z</time>
      </trkpt>
      <trkpt lat="44.11252" lon="3.21372">
        <ele>647.8</ele>
        <time>2022-06-16T07:52:38Z</time>
      </trkpt>
      <trkpt lat="44.1124" lon="3.21375">
        <ele>648.4</ele>
        <time>2022-06-16T07:52:42Z</time>
      </trkpt>
      <trkpt lat="44.11233" lon="3.21377">
        <ele>648.8</ele>
        <time>2022-06-16T07:52:44Z</time>
      </trkpt>
      <trkpt lat="44.11221" lon="3.21381">
        <ele>649.4</ele>
        <time>2022-06-16T07:52:48Z</time>
      </trkpt>
      <trkpt lat="44.11207" lon="3.21388">
        <ele>649.8</ele>
        <time>2022-06-16T07:52:53Z</time>
      </trkpt>
      <trkpt lat="44.11175" lon="3.21398">
        <ele>650.4</ele>
        <time>2022-06-16T07:53:03Z</time>
      </trkpt>
      <trkpt lat="44.11148" lon="3.21405">
        <ele>651.2</ele>
        <time>2022-06-16T07:53:11Z</time>
      </trkpt>
      <trkpt lat="44.11138" lon="3.2141">
        <ele>651.4</ele>
        <time>2022-06-16T07:53:14Z</time>
      </trkpt>
      <trkpt lat="44.11126" lon="3.21414">
        <ele>651.4</ele>
        <time>2022-06-16T07:53:17Z</time>
      </trkpt>
      <trkpt lat="44.11114" lon="3.21415">
        <ele>651.4</ele>
        <time>2022-06-16T07:53:20Z</time>
      </trkpt>
      <trkpt lat="44.11106" lon="3.21414">
        <ele>651.2</ele>
        <time>2022-06-16T07:53:22Z</time>
      </trkpt>
      <trkpt lat="44.11102" lon="3.21412">
        <ele>651.2</ele>
        <time>2022-06-16T07:53:23Z</time>
      </trkpt>
      <trkpt lat="44.11091" lon="3.2141">
        <ele>651.6</ele>
        <time>2022-06-16T07:53:28Z</time>
      </trkpt>
      <trkpt lat="44.11078" lon="3.21413">
        <ele>652.6</ele>
        <time>2022-06-16T07:53:35Z</time>
      </trkpt>
      <trkpt lat="44.11076" lon="3.21413">
        <ele>652.6</ele>
        <time>2022-06-16T07:53:36Z</time>
      </trkpt>
      <trkpt lat="44.11062" lon="3.2142">
        <ele>653.4</ele>
        <time>2022-06-16T07:53:44Z</time>
      </trkpt>
      <trkpt lat="44.11056" lon="3.21426">
        <ele>653.6</ele>
        <time>2022-06-16T07:53:47Z</time>
      </trkpt>
      <trkpt lat="44.11047" lon="3.21436">
        <ele>654.2</ele>
        <time>2022-06-16T07:53:52Z</time>
      </trkpt>
      <trkpt lat="44.11042" lon="3.21445">
        <ele>654.8</ele>
        <time>2022-06-16T07:53:56Z</time>
      </trkpt>
      <trkpt lat="44.11039" lon="3.21451">
        <ele>655.4</ele>
        <time>2022-06-16T07:53:59Z</time>
      </trkpt>
      <trkpt lat="44.11036" lon="3.21455">
        <ele>655.8</ele>
        <time>2022-06-16T07:54:02Z</time>
      </trkpt>
      <trkpt lat="44.1103" lon="3.21464">
        <ele>656.8</ele>
        <time>2022-06-16T07:54:08Z</time>
      </trkpt>
      <trkpt lat="44.1103" lon="3.21465">
        <ele>656.8</ele>
        <time>2022-06-16T07:54:09Z</time>
      </trkpt>
      <trkpt lat="44.11025" lon="3.21474">
        <ele>657.4</ele>
        <time>2022-06-16T07:54:15Z</time>
      </trkpt>
      <trkpt lat="44.11024" lon="3.21477">
        <ele>657.8</ele>
        <time>2022-06-16T07:54:17Z</time>
      </trkpt>
      <trkpt lat="44.11017" lon="3.21485">
        <ele>658.8</ele>
        <time>2022-06-16T07:54:23Z</time>
      </trkpt>
      <trkpt lat="44.11016" lon="3.21486">
        <ele>659</ele>
        <time>2022-06-16T07:54:24Z</time>
      </trkpt>
      <trkpt lat="44.11015" lon="3.21489">
        <ele>659.4</ele>
        <time>2022-06-16T07:54:26Z</time>
      </trkpt>
      <trkpt lat="44.11012" lon="3.21493">
        <ele>659.4</ele>
        <time>2022-06-16T07:54:29Z</time>
      </trkpt>
      <trkpt lat="44.11006" lon="3.21501">
        <ele>660</ele>
        <time>2022-06-16T07:54:34Z</time>
      </trkpt>
      <trkpt lat="44.11002" lon="3.21506">
        <ele>660.6</ele>
        <time>2022-06-16T07:54:38Z</time>
      </trkpt>
      <trkpt lat="44.10998" lon="3.21512">
        <ele>661</ele>
        <time>2022-06-16T07:54:42Z</time>
      </trkpt>
      <trkpt lat="44.10996" lon="3.21514">
        <ele>661.2</ele>
        <time>2022-06-16T07:54:44Z</time>
      </trkpt>
      <trkpt lat="44.10991" lon="3.21522">
        <ele>662</ele>
        <time>2022-06-16T07:54:49Z</time>
      </trkpt>
      <trkpt lat="44.10987" lon="3.21529">
        <ele>662.4</ele>
        <time>2022-06-16T07:54:53Z</time>
      </trkpt>
      <trkpt lat="44.10982" lon="3.21535">
        <ele>663.2</ele>
        <time>2022-06-16T07:54:57Z</time>
      </trkpt>
      <trkpt lat="44.10977" lon="3.21541">
        <ele>663.4</ele>
        <time>2022-06-16T07:55:01Z</time>
      </trkpt>
      <trkpt lat="44.1097" lon="3.21551">
        <ele>664</ele>
        <time>2022-06-16T07:55:07Z</time>
      </trkpt>
      <trkpt lat="44.10969" lon="3.21553">
        <ele>664.2</ele>
        <time>2022-06-16T07:55:08Z</time>
      </trkpt>
      <trkpt lat="44.10962" lon="3.21561">
        <ele>664.8</ele>
        <time>2022-06-16T07:55:14Z</time>
      </trkpt>
      <trkpt lat="44.1096" lon="3.21564">
        <ele>665.2</ele>
        <time>2022-06-16T07:55:17Z</time>
      </trkpt>
      <trkpt lat="44.10956" lon="3.2157">
        <ele>665.6</ele>
        <time>2022-06-16T07:55:21Z</time>
      </trkpt>
      <trkpt lat="44.10949" lon="3.21574">
        <ele>666.2</ele>
        <time>2022-06-16T07:55:26Z</time>
      </trkpt>
      <trkpt lat="44.10946" lon="3.21578">
        <ele>666.6</ele>
        <time>2022-06-16T07:55:29Z</time>
      </trkpt>
      <trkpt lat="44.10941" lon="3.21583">
        <ele>667.2</ele>
        <time>2022-06-16T07:55:33Z</time>
      </trkpt>
      <trkpt lat="44.10935" lon="3.21591">
        <ele>668</ele>
        <time>2022-06-16T07:55:39Z</time>
      </trkpt>
      <trkpt lat="44.10933" lon="3.21594">
        <ele>668.4</ele>
        <time>2022-06-16T07:55:41Z</time>
      </trkpt>
      <trkpt lat="44.10932" lon="3.21595">
        <ele>668.4</ele>
        <time>2022-06-16T07:55:42Z</time>
      </trkpt>
      <trkpt lat="44.10928" lon="3.21599">
        <ele>669</ele>
        <time>2022-06-16T07:55:46Z</time>
      </trkpt>
      <trkpt lat="44.10922" lon="3.21604">
        <ele>669.4</ele>
        <time>2022-06-16T07:55:51Z</time>
      </trkpt>
      <trkpt lat="44.10918" lon="3.21608">
        <ele>669.8</ele>
        <time>2022-06-16T07:55:54Z</time>
      </trkpt>
      <trkpt lat="44.10914" lon="3.21615">
        <ele>670.4</ele>
        <time>2022-06-16T07:55:59Z</time>
      </trkpt>
      <trkpt lat="44.10912" lon="3.21616">
        <ele>670.4</ele>
        <time>2022-06-16T07:56:00Z</time>
      </trkpt>
      <trkpt lat="44.1091" lon="3.21618">
        <ele>671</ele>
        <time>2022-06-16T07:56:02Z</time>
      </trkpt>
      <trkpt lat="44.10902" lon="3.21628">
        <ele>671.4</ele>
        <time>2022-06-16T07:56:10Z</time>
      </trkpt>
      <trkpt lat="44.10901" lon="3.21629">
        <ele>671.6</ele>
        <time>2022-06-16T07:56:11Z</time>
      </trkpt>
      <trkpt lat="44.109" lon="3.21631">
        <ele>671.8</ele>
        <time>2022-06-16T07:56:12Z</time>
      </trkpt>
      <trkpt lat="44.10896" lon="3.21634">
        <ele>672.2</ele>
        <time>2022-06-16T07:56:15Z</time>
      </trkpt>
      <trkpt lat="44.10893" lon="3.21639">
        <ele>672.8</ele>
        <time>2022-06-16T07:56:19Z</time>
      </trkpt>
      <trkpt lat="44.10889" lon="3.21643">
        <ele>673.2</ele>
        <time>2022-06-16T07:56:22Z</time>
      </trkpt>
      <trkpt lat="44.10882" lon="3.21649">
        <ele>673.8</ele>
        <time>2022-06-16T07:56:28Z</time>
      </trkpt>
      <trkpt lat="44.1088" lon="3.2165">
        <ele>673.8</ele>
        <time>2022-06-16T07:56:29Z</time>
      </trkpt>
      <trkpt lat="44.10871" lon="3.21659">
        <ele>674.8</ele>
        <time>2022-06-16T07:56:36Z</time>
      </trkpt>
      <trkpt lat="44.1087" lon="3.2166">
        <ele>674.8</ele>
        <time>2022-06-16T07:56:37Z</time>
      </trkpt>
      <trkpt lat="44.10858" lon="3.21667">
        <ele>676</ele>
        <time>2022-06-16T07:56:45Z</time>
      </trkpt>
      <trkpt lat="44.10855" lon="3.2167">
        <ele>676.2</ele>
        <time>2022-06-16T07:56:47Z</time>
      </trkpt>
      <trkpt lat="44.10845" lon="3.21677">
        <ele>677.2</ele>
        <time>2022-06-16T07:56:54Z</time>
      </trkpt>
      <trkpt lat="44.10843" lon="3.21678">
        <ele>677.4</ele>
        <time>2022-06-16T07:56:55Z</time>
      </trkpt>
      <trkpt lat="44.10831" lon="3.21686">
        <ele>678.2</ele>
        <time>2022-06-16T07:57:02Z</time>
      </trkpt>
      <trkpt lat="44.10828" lon="3.2169">
        <ele>678.4</ele>
        <time>2022-06-16T07:57:04Z</time>
      </trkpt>
      <trkpt lat="44.10816" lon="3.21698">
        <ele>678.8</ele>
        <time>2022-06-16T07:57:10Z</time>
      </trkpt>
      <trkpt lat="44.10806" lon="3.21705">
        <ele>679.4</ele>
        <time>2022-06-16T07:57:15Z</time>
      </trkpt>
      <trkpt lat="44.10798" lon="3.2171">
        <ele>680</ele>
        <time>2022-06-16T07:57:19Z</time>
      </trkpt>
      <trkpt lat="44.10797" lon="3.21711">
        <ele>680.2</ele>
        <time>2022-06-16T07:57:20Z</time>
      </trkpt>
      <trkpt lat="44.10796" lon="3.21713">
        <ele>680.4</ele>
        <time>2022-06-16T07:57:22Z</time>
      </trkpt>
      <trkpt lat="44.10796" lon="3.21713">
        <ele>680.6</ele>
        <time>2022-06-16T07:57:23Z</time>
      </trkpt>
      <trkpt lat="44.10796" lon="3.21715">
        <ele>681.2</ele>
        <time>2022-06-16T07:57:29Z</time>
      </trkpt>
      <trkpt lat="44.10796" lon="3.21715">
        <ele>681.4</ele>
        <time>2022-06-16T07:57:34Z</time>
      </trkpt>
      <trkpt lat="44.10796" lon="3.21715">
        <ele>681.4</ele>
        <time>2022-06-16T07:57:42Z</time>
      </trkpt>
      <trkpt lat="44.10796" lon="3.21715">
        <ele>681.2</ele>
        <time>2022-06-16T07:58:13Z</time>
      </trkpt>
      <trkpt lat="44.10796" lon="3.21715">
        <ele>681.6</ele>
        <time>2022-06-16T07:58:25Z</time>
      </trkpt>
      <trkpt lat="44.10796" lon="3.21715">
        <ele>681.8</ele>
        <time>2022-06-16T07:58:48Z</time>
      </trkpt>
      <trkpt lat="44.10796" lon="3.21715">
        <ele>681.2</ele>
        <time>2022-06-16T07:59:22Z</time>
      </trkpt>
      <trkpt lat="44.10796" lon="3.21715">
        <ele>681.2</ele>
        <time>2022-06-16T07:59:32Z</time>
      </trkpt>
      <trkpt lat="44.10796" lon="3.21715">
        <ele>681.2</ele>
        <time>2022-06-16T07:59:59Z</time>
      </trkpt>
      <trkpt lat="44.10796" lon="3.21715">
        <ele>681.6</ele>
        <time>2022-06-16T08:00:36Z</time>
      </trkpt>
      <trkpt lat="44.10796" lon="3.21715">
        <ele>681.4</ele>
        <time>2022-06-16T08:01:16Z</time>
      </trkpt>
      <trkpt lat="44.10796" lon="3.21715">
        <ele>681.4</ele>
        <time>2022-06-16T08:01:50Z</time>
      </trkpt>
      <trkpt lat="44.10796" lon="3.21715">
        <ele>681</ele>
        <time>2022-06-16T08:02:22Z</time>
      </trkpt>
      <trkpt lat="44.10796" lon="3.21715">
        <ele>680.8</ele>
        <time>2022-06-16T08:02:57Z</time>
      </trkpt>
      <trkpt lat="44.10796" lon="3.21715">
        <ele>681.4</ele>
        <time>2022-06-16T08:03:32Z</time>
      </trkpt>
      <trkpt lat="44.10792" lon="3.21713">
        <ele>681.6</ele>
        <time>2022-06-16T08:04:04Z</time>
      </trkpt>
      <trkpt lat="44.1079" lon="3.21713">
        <ele>681.6</ele>
        <time>2022-06-16T08:04:06Z</time>
      </trkpt>
      <trkpt lat="44.10783" lon="3.21715">
        <ele>681.6</ele>
        <time>2022-06-16T08:04:10Z</time>
      </trkpt>
      <trkpt lat="44.10772" lon="3.21711">
        <ele>681.6</ele>
        <time>2022-06-16T08:04:15Z</time>
      </trkpt>
      <trkpt lat="44.10753" lon="3.21701">
        <ele>681.6</ele>
        <time>2022-06-16T08:04:21Z</time>
      </trkpt>
      <trkpt lat="44.10742" lon="3.21699">
        <ele>681.2</ele>
        <time>2022-06-16T08:04:25Z</time>
      </trkpt>
      <trkpt lat="44.10737" lon="3.21696">
        <ele>681</ele>
        <time>2022-06-16T08:04:27Z</time>
      </trkpt>
      <trkpt lat="44.10733" lon="3.21699">
        <ele>680.8</ele>
        <time>2022-06-16T08:04:29Z</time>
      </trkpt>
      <trkpt lat="44.1073" lon="3.21711">
        <ele>680.8</ele>
        <time>2022-06-16T08:04:34Z</time>
      </trkpt>
      <trkpt lat="44.10729" lon="3.21716">
        <ele>680.8</ele>
        <time>2022-06-16T08:04:36Z</time>
      </trkpt>
      <trkpt lat="44.10723" lon="3.2172">
        <ele>681</ele>
        <time>2022-06-16T08:04:39Z</time>
      </trkpt>
      <trkpt lat="44.1071" lon="3.21729">
        <ele>681.8</ele>
        <time>2022-06-16T08:04:46Z</time>
      </trkpt>
      <trkpt lat="44.10688" lon="3.21735">
        <ele>681.8</ele>
        <time>2022-06-16T08:04:56Z</time>
      </trkpt>
      <trkpt lat="44.10674" lon="3.21739">
        <ele>681.6</ele>
        <time>2022-06-16T08:05:04Z</time>
      </trkpt>
      <trkpt lat="44.10665" lon="3.21751">
        <ele>681.2</ele>
        <time>2022-06-16T08:05:11Z</time>
      </trkpt>
      <trkpt lat="44.10664" lon="3.21755">
        <ele>681.2</ele>
        <time>2022-06-16T08:05:13Z</time>
      </trkpt>
      <trkpt lat="44.10663" lon="3.21759">
        <ele>681.2</ele>
        <time>2022-06-16T08:05:15Z</time>
      </trkpt>
      <trkpt lat="44.10662" lon="3.21762">
        <ele>681.2</ele>
        <time>2022-06-16T08:05:16Z</time>
      </trkpt>
      <trkpt lat="44.10661" lon="3.21778">
        <ele>681.6</ele>
        <time>2022-06-16T08:05:23Z</time>
      </trkpt>
      <trkpt lat="44.10657" lon="3.21785">
        <ele>681.6</ele>
        <time>2022-06-16T08:05:27Z</time>
      </trkpt>
      <trkpt lat="44.10655" lon="3.21789">
        <ele>681.6</ele>
        <time>2022-06-16T08:05:29Z</time>
      </trkpt>
      <trkpt lat="44.10654" lon="3.21789">
        <ele>681.6</ele>
        <time>2022-06-16T08:05:30Z</time>
      </trkpt>
      <trkpt lat="44.10651" lon="3.21788">
        <ele>681.4</ele>
        <time>2022-06-16T08:05:33Z</time>
      </trkpt>
      <trkpt lat="44.10651" lon="3.21769">
        <ele>681.4</ele>
        <time>2022-06-16T08:05:39Z</time>
      </trkpt>
      <trkpt lat="44.10662" lon="3.21754">
        <ele>681.2</ele>
        <time>2022-06-16T08:05:45Z</time>
      </trkpt>
      <trkpt lat="44.10664" lon="3.21753">
        <ele>681.2</ele>
        <time>2022-06-16T08:05:46Z</time>
      </trkpt>
      <trkpt lat="44.10671" lon="3.21749">
        <ele>681.2</ele>
        <time>2022-06-16T08:05:49Z</time>
      </trkpt>
      <trkpt lat="44.10682" lon="3.21741">
        <ele>681.4</ele>
        <time>2022-06-16T08:05:54Z</time>
      </trkpt>
      <trkpt lat="44.10701" lon="3.21733">
        <ele>682</ele>
        <time>2022-06-16T08:06:03Z</time>
      </trkpt>
      <trkpt lat="44.10713" lon="3.21724">
        <ele>682</ele>
        <time>2022-06-16T08:06:10Z</time>
      </trkpt>
      <trkpt lat="44.10714" lon="3.21724">
        <ele>682</ele>
        <time>2022-06-16T08:06:14Z</time>
      </trkpt>
      <trkpt lat="44.10715" lon="3.21723">
        <ele>681.8</ele>
        <time>2022-06-16T08:06:22Z</time>
      </trkpt>
      <trkpt lat="44.10714" lon="3.21726">
        <ele>681.2</ele>
        <time>2022-06-16T08:06:48Z</time>
      </trkpt>
      <trkpt lat="44.10714" lon="3.21728">
        <ele>681.2</ele>
        <time>2022-06-16T08:06:50Z</time>
      </trkpt>
      <trkpt lat="44.10713" lon="3.21728">
        <ele>681.4</ele>
        <time>2022-06-16T08:06:51Z</time>
      </trkpt>
      <trkpt lat="44.10711" lon="3.2173">
        <ele>681.4</ele>
        <time>2022-06-16T08:06:55Z</time>
      </trkpt>
      <trkpt lat="44.10708" lon="3.21735">
        <ele>681.4</ele>
        <time>2022-06-16T08:06:58Z</time>
      </trkpt>
      <trkpt lat="44.1071" lon="3.2174">
        <ele>681.6</ele>
        <time>2022-06-16T08:07:00Z</time>
      </trkpt>
      <trkpt lat="44.10721" lon="3.21747">
        <ele>682</ele>
        <time>2022-06-16T08:07:05Z</time>
      </trkpt>
      <trkpt lat="44.10734" lon="3.21747">
        <ele>682.6</ele>
        <time>2022-06-16T08:07:10Z</time>
      </trkpt>
      <trkpt lat="44.10739" lon="3.21748">
        <ele>682.8</ele>
        <time>2022-06-16T08:07:12Z</time>
      </trkpt>
      <trkpt lat="44.10756" lon="3.21748">
        <ele>683.6</ele>
        <time>2022-06-16T08:07:19Z</time>
      </trkpt>
      <trkpt lat="44.10772" lon="3.2175">
        <ele>684.2</ele>
        <time>2022-06-16T08:07:26Z</time>
      </trkpt>
      <trkpt lat="44.10788" lon="3.21751">
        <ele>684.6</ele>
        <time>2022-06-16T08:07:33Z</time>
      </trkpt>
      <trkpt lat="44.10798" lon="3.21757">
        <ele>684.6</ele>
        <time>2022-06-16T08:07:39Z</time>
      </trkpt>
      <trkpt lat="44.10798" lon="3.21759">
        <ele>684.6</ele>
        <time>2022-06-16T08:07:40Z</time>
      </trkpt>
      <trkpt lat="44.10798" lon="3.21759">
        <ele>684.6</ele>
        <time>2022-06-16T08:07:41Z</time>
      </trkpt>
      <trkpt lat="44.10795" lon="3.21758">
        <ele>684.6</ele>
        <time>2022-06-16T08:07:43Z</time>
      </trkpt>
      <trkpt lat="44.10784" lon="3.21748">
        <ele>684.6</ele>
        <time>2022-06-16T08:07:49Z</time>
      </trkpt>
      <trkpt lat="44.10769" lon="3.21749">
        <ele>684.4</ele>
        <time>2022-06-16T08:07:55Z</time>
      </trkpt>
      <trkpt lat="44.10751" lon="3.21747">
        <ele>684.2</ele>
        <time>2022-06-16T08:08:02Z</time>
      </trkpt>
      <trkpt lat="44.1073" lon="3.21746">
        <ele>684</ele>
        <time>2022-06-16T08:08:08Z</time>
      </trkpt>
      <trkpt lat="44.10722" lon="3.21746">
        <ele>683.8</ele>
        <time>2022-06-16T08:08:11Z</time>
      </trkpt>
      <trkpt lat="44.10719" lon="3.21744">
        <ele>683.8</ele>
        <time>2022-06-16T08:08:12Z</time>
      </trkpt>
      <trkpt lat="44.10716" lon="3.21742">
        <ele>683.6</ele>
        <time>2022-06-16T08:08:13Z</time>
      </trkpt>
      <trkpt lat="44.10698" lon="3.21724">
        <ele>683</ele>
        <time>2022-06-16T08:08:19Z</time>
      </trkpt>
      <trkpt lat="44.10697" lon="3.21718">
        <ele>682.4</ele>
        <time>2022-06-16T08:08:22Z</time>
      </trkpt>
      <trkpt lat="44.10697" lon="3.21718">
        <ele>682.2</ele>
        <time>2022-06-16T08:08:23Z</time>
      </trkpt>
      <trkpt lat="44.10697" lon="3.21718">
        <ele>681.4</ele>
        <time>2022-06-16T08:08:31Z</time>
      </trkpt>
      <trkpt lat="44.10697" lon="3.21718">
        <ele>681.2</ele>
        <time>2022-06-16T08:08:32Z</time>
      </trkpt>
      <trkpt lat="44.10697" lon="3.21718">
        <ele>680.6</ele>
        <time>2022-06-16T08:08:47Z</time>
      </trkpt>
      <trkpt lat="44.10697" lon="3.21718">
        <ele>680.4</ele>
        <time>2022-06-16T08:09:07Z</time>
      </trkpt>
      <trkpt lat="44.10697" lon="3.21718">
        <ele>680.4</ele>
        <time>2022-06-16T08:09:22Z</time>
      </trkpt>
      <trkpt lat="44.10697" lon="3.21718">
        <ele>680.4</ele>
        <time>2022-06-16T08:09:34Z</time>
      </trkpt>
      <trkpt lat="44.10697" lon="3.21718">
        <ele>680.2</ele>
        <time>2022-06-16T08:09:35Z</time>
      </trkpt>
      <trkpt lat="44.10697" lon="3.21718">
        <ele>680.4</ele>
        <time>2022-06-16T08:10:01Z</time>
      </trkpt>
      <trkpt lat="44.10695" lon="3.21718">
        <ele>680.2</ele>
        <time>2022-06-16T08:10:15Z</time>
      </trkpt>
      <trkpt lat="44.10694" lon="3.21719">
        <ele>680.2</ele>
        <time>2022-06-16T08:10:16Z</time>
      </trkpt>
      <trkpt lat="44.10684" lon="3.21725">
        <ele>680.2</ele>
        <time>2022-06-16T08:10:22Z</time>
      </trkpt>
      <trkpt lat="44.1068" lon="3.21729">
        <ele>680.4</ele>
        <time>2022-06-16T08:10:24Z</time>
      </trkpt>
      <trkpt lat="44.10669" lon="3.21738">
        <ele>680.4</ele>
        <time>2022-06-16T08:10:28Z</time>
      </trkpt>
      <trkpt lat="44.10661" lon="3.2174">
        <ele>680.6</ele>
        <time>2022-06-16T08:10:30Z</time>
      </trkpt>
      <trkpt lat="44.10649" lon="3.21743">
        <ele>680.6</ele>
        <time>2022-06-16T08:10:32Z</time>
      </trkpt>
      <trkpt lat="44.10638" lon="3.21749">
        <ele>680.2</ele>
        <time>2022-06-16T08:10:34Z</time>
      </trkpt>
      <trkpt lat="44.10626" lon="3.21759">
        <ele>679.8</ele>
        <time>2022-06-16T08:10:36Z</time>
      </trkpt>
      <trkpt lat="44.10617" lon="3.21776">
        <ele>679.2</ele>
        <time>2022-06-16T08:10:38Z</time>
      </trkpt>
      <trkpt lat="44.1061" lon="3.21793">
        <ele>678.2</ele>
        <time>2022-06-16T08:10:40Z</time>
      </trkpt>
      <trkpt lat="44.10606" lon="3.21801">
        <ele>678</ele>
        <time>2022-06-16T08:10:41Z</time>
      </trkpt>
      <trkpt lat="44.10595" lon="3.21814">
        <ele>677.2</ele>
        <time>2022-06-16T08:10:43Z</time>
      </trkpt>
      <trkpt lat="44.10588" lon="3.21818">
        <ele>677</ele>
        <time>2022-06-16T08:10:44Z</time>
      </trkpt>
      <trkpt lat="44.10574" lon="3.21825">
        <ele>676.2</ele>
        <time>2022-06-16T08:10:46Z</time>
      </trkpt>
      <trkpt lat="44.10568" lon="3.2183">
        <ele>676</ele>
        <time>2022-06-16T08:10:47Z</time>
      </trkpt>
      <trkpt lat="44.10553" lon="3.21848">
        <ele>675</ele>
        <time>2022-06-16T08:10:50Z</time>
      </trkpt>
      <trkpt lat="44.10542" lon="3.21857">
        <ele>674.4</ele>
        <time>2022-06-16T08:10:52Z</time>
      </trkpt>
      <trkpt lat="44.10517" lon="3.21868">
        <ele>674.2</ele>
        <time>2022-06-16T08:10:57Z</time>
      </trkpt>
      <trkpt lat="44.10512" lon="3.21869">
        <ele>674.2</ele>
        <time>2022-06-16T08:10:58Z</time>
      </trkpt>
      <trkpt lat="44.10496" lon="3.21873">
        <ele>674.2</ele>
        <time>2022-06-16T08:11:02Z</time>
      </trkpt>
      <trkpt lat="44.10476" lon="3.21877">
        <ele>674.4</ele>
        <time>2022-06-16T08:11:07Z</time>
      </trkpt>
      <trkpt lat="44.10468" lon="3.21878">
        <ele>674.4</ele>
        <time>2022-06-16T08:11:09Z</time>
      </trkpt>
      <trkpt lat="44.10437" lon="3.21882">
        <ele>674.6</ele>
        <time>2022-06-16T08:11:17Z</time>
      </trkpt>
      <trkpt lat="44.10398" lon="3.21884">
        <ele>675</ele>
        <time>2022-06-16T08:11:27Z</time>
      </trkpt>
      <trkpt lat="44.10372" lon="3.21883">
        <ele>675.2</ele>
        <time>2022-06-16T08:11:34Z</time>
      </trkpt>
      <trkpt lat="44.10339" lon="3.21884">
        <ele>675.4</ele>
        <time>2022-06-16T08:11:43Z</time>
      </trkpt>
      <trkpt lat="44.10315" lon="3.21884">
        <ele>676</ele>
        <time>2022-06-16T08:11:49Z</time>
      </trkpt>
      <trkpt lat="44.10311" lon="3.21886">
        <ele>676</ele>
        <time>2022-06-16T08:11:50Z</time>
      </trkpt>
      <trkpt lat="44.1029" lon="3.21893">
        <ele>676.2</ele>
        <time>2022-06-16T08:11:56Z</time>
      </trkpt>
      <trkpt lat="44.10263" lon="3.21895">
        <ele>676.2</ele>
        <time>2022-06-16T08:12:03Z</time>
      </trkpt>
      <trkpt lat="44.10233" lon="3.21899">
        <ele>676.8</ele>
        <time>2022-06-16T08:12:11Z</time>
      </trkpt>
      <trkpt lat="44.10223" lon="3.21901">
        <ele>677</ele>
        <time>2022-06-16T08:12:14Z</time>
      </trkpt>
      <trkpt lat="44.10215" lon="3.21901">
        <ele>677.4</ele>
        <time>2022-06-16T08:12:16Z</time>
      </trkpt>
      <trkpt lat="44.10173" lon="3.21912">
        <ele>678</ele>
        <time>2022-06-16T08:12:27Z</time>
      </trkpt>
      <trkpt lat="44.10146" lon="3.21918">
        <ele>678</ele>
        <time>2022-06-16T08:12:34Z</time>
      </trkpt>
      <trkpt lat="44.10142" lon="3.21918">
        <ele>678.2</ele>
        <time>2022-06-16T08:12:35Z</time>
      </trkpt>
      <trkpt lat="44.1011" lon="3.21922">
        <ele>678.6</ele>
        <time>2022-06-16T08:12:43Z</time>
      </trkpt>
      <trkpt lat="44.10094" lon="3.21922">
        <ele>679.2</ele>
        <time>2022-06-16T08:12:47Z</time>
      </trkpt>
      <trkpt lat="44.10078" lon="3.21922">
        <ele>679.2</ele>
        <time>2022-06-16T08:12:51Z</time>
      </trkpt>
      <trkpt lat="44.10033" lon="3.21923">
        <ele>679.8</ele>
        <time>2022-06-16T08:13:02Z</time>
      </trkpt>
      <trkpt lat="44.10003" lon="3.21926">
        <ele>680.4</ele>
        <time>2022-06-16T08:13:10Z</time>
      </trkpt>
      <trkpt lat="44.1" lon="3.21926">
        <ele>680.4</ele>
        <time>2022-06-16T08:13:11Z</time>
      </trkpt>
      <trkpt lat="44.09979" lon="3.21937">
        <ele>680.6</ele>
        <time>2022-06-16T08:13:17Z</time>
      </trkpt>
      <trkpt lat="44.09954" lon="3.21965">
        <ele>681</ele>
        <time>2022-06-16T08:13:25Z</time>
      </trkpt>
      <trkpt lat="44.09931" lon="3.2199">
        <ele>681.2</ele>
        <time>2022-06-16T08:13:33Z</time>
      </trkpt>
      <trkpt lat="44.09918" lon="3.22004">
        <ele>681.4</ele>
        <time>2022-06-16T08:13:38Z</time>
      </trkpt>
      <trkpt lat="44.0991" lon="3.22013">
        <ele>681.4</ele>
        <time>2022-06-16T08:13:41Z</time>
      </trkpt>
      <trkpt lat="44.09889" lon="3.22034">
        <ele>681.6</ele>
        <time>2022-06-16T08:13:49Z</time>
      </trkpt>
      <trkpt lat="44.09868" lon="3.22054">
        <ele>681.8</ele>
        <time>2022-06-16T08:13:56Z</time>
      </trkpt>
      <trkpt lat="44.09851" lon="3.22069">
        <ele>682</ele>
        <time>2022-06-16T08:14:01Z</time>
      </trkpt>
      <trkpt lat="44.09828" lon="3.22087">
        <ele>682.4</ele>
        <time>2022-06-16T08:14:08Z</time>
      </trkpt>
      <trkpt lat="44.09821" lon="3.22092">
        <ele>682.6</ele>
        <time>2022-06-16T08:14:10Z</time>
      </trkpt>
      <trkpt lat="44.09788" lon="3.22115">
        <ele>683</ele>
        <time>2022-06-16T08:14:19Z</time>
      </trkpt>
      <trkpt lat="44.0977" lon="3.22126">
        <ele>683.4</ele>
        <time>2022-06-16T08:14:24Z</time>
      </trkpt>
      <trkpt lat="44.09762" lon="3.22129">
        <ele>683.4</ele>
        <time>2022-06-16T08:14:26Z</time>
      </trkpt>
      <trkpt lat="44.09758" lon="3.22131">
        <ele>683.6</ele>
        <time>2022-06-16T08:14:27Z</time>
      </trkpt>
      <trkpt lat="44.09718" lon="3.22155">
        <ele>684.2</ele>
        <time>2022-06-16T08:14:38Z</time>
      </trkpt>
      <trkpt lat="44.09699" lon="3.22165">
        <ele>684.4</ele>
        <time>2022-06-16T08:14:43Z</time>
      </trkpt>
      <trkpt lat="44.0967" lon="3.22182">
        <ele>684.8</ele>
        <time>2022-06-16T08:14:51Z</time>
      </trkpt>
      <trkpt lat="44.09634" lon="3.22199">
        <ele>685.2</ele>
        <time>2022-06-16T08:15:00Z</time>
      </trkpt>
      <trkpt lat="44.09605" lon="3.22213">
        <ele>685.6</ele>
        <time>2022-06-16T08:15:07Z</time>
      </trkpt>
      <trkpt lat="44.0959" lon="3.22222">
        <ele>686</ele>
        <time>2022-06-16T08:15:11Z</time>
      </trkpt>
      <trkpt lat="44.09556" lon="3.2224">
        <ele>686.6</ele>
        <time>2022-06-16T08:15:20Z</time>
      </trkpt>
      <trkpt lat="44.09552" lon="3.22242">
        <ele>686.6</ele>
        <time>2022-06-16T08:15:21Z</time>
      </trkpt>
      <trkpt lat="44.09514" lon="3.22258">
        <ele>687.2</ele>
        <time>2022-06-16T08:15:31Z</time>
      </trkpt>
      <trkpt lat="44.09486" lon="3.22268">
        <ele>687.6</ele>
        <time>2022-06-16T08:15:38Z</time>
      </trkpt>
      <trkpt lat="44.09483" lon="3.2227">
        <ele>687.6</ele>
        <time>2022-06-16T08:15:39Z</time>
      </trkpt>
      <trkpt lat="44.0945" lon="3.22284">
        <ele>688.2</ele>
        <time>2022-06-16T08:15:47Z</time>
      </trkpt>
      <trkpt lat="44.09413" lon="3.22304">
        <ele>688.6</ele>
        <time>2022-06-16T08:15:57Z</time>
      </trkpt>
      <trkpt lat="44.0941" lon="3.22306">
        <ele>688.6</ele>
        <time>2022-06-16T08:15:58Z</time>
      </trkpt>
      <trkpt lat="44.09386" lon="3.2232">
        <ele>689</ele>
        <time>2022-06-16T08:16:04Z</time>
      </trkpt>
      <trkpt lat="44.09354" lon="3.22339">
        <ele>689.6</ele>
        <time>2022-06-16T08:16:13Z</time>
      </trkpt>
      <trkpt lat="44.09342" lon="3.22345">
        <ele>689.6</ele>
        <time>2022-06-16T08:16:16Z</time>
      </trkpt>
      <trkpt lat="44.09327" lon="3.22351">
        <ele>689.8</ele>
        <time>2022-06-16T08:16:20Z</time>
      </trkpt>
      <trkpt lat="44.09293" lon="3.22366">
        <ele>690.6</ele>
        <time>2022-06-16T08:16:29Z</time>
      </trkpt>
      <trkpt lat="44.09289" lon="3.22367">
        <ele>690.6</ele>
        <time>2022-06-16T08:16:30Z</time>
      </trkpt>
      <trkpt lat="44.09265" lon="3.22377">
        <ele>691</ele>
        <time>2022-06-16T08:16:36Z</time>
      </trkpt>
      <trkpt lat="44.09238" lon="3.22389">
        <ele>691.4</ele>
        <time>2022-06-16T08:16:43Z</time>
      </trkpt>
      <trkpt lat="44.09202" lon="3.22397">
        <ele>691.6</ele>
        <time>2022-06-16T08:16:52Z</time>
      </trkpt>
      <trkpt lat="44.09191" lon="3.224">
        <ele>691.8</ele>
        <time>2022-06-16T08:16:55Z</time>
      </trkpt>
      <trkpt lat="44.09171" lon="3.22406">
        <ele>692.2</ele>
        <time>2022-06-16T08:17:00Z</time>
      </trkpt>
      <trkpt lat="44.09145" lon="3.22416">
        <ele>692.8</ele>
        <time>2022-06-16T08:17:08Z</time>
      </trkpt>
      <trkpt lat="44.09142" lon="3.22416">
        <ele>692.8</ele>
        <time>2022-06-16T08:17:09Z</time>
      </trkpt>
      <trkpt lat="44.09117" lon="3.22424">
        <ele>693.4</ele>
        <time>2022-06-16T08:17:17Z</time>
      </trkpt>
      <trkpt lat="44.09107" lon="3.22426">
        <ele>693.8</ele>
        <time>2022-06-16T08:17:20Z</time>
      </trkpt>
      <trkpt lat="44.09078" lon="3.22434">
        <ele>694.2</ele>
        <time>2022-06-16T08:17:28Z</time>
      </trkpt>
      <trkpt lat="44.0905" lon="3.22444">
        <ele>694.4</ele>
        <time>2022-06-16T08:17:36Z</time>
      </trkpt>
      <trkpt lat="44.09015" lon="3.22456">
        <ele>694.8</ele>
        <time>2022-06-16T08:17:46Z</time>
      </trkpt>
      <trkpt lat="44.08985" lon="3.22471">
        <ele>694.8</ele>
        <time>2022-06-16T08:17:54Z</time>
      </trkpt>
      <trkpt lat="44.08982" lon="3.22473">
        <ele>695</ele>
        <time>2022-06-16T08:17:55Z</time>
      </trkpt>
      <trkpt lat="44.08945" lon="3.22494">
        <ele>695.4</ele>
        <time>2022-06-16T08:18:05Z</time>
      </trkpt>
      <trkpt lat="44.08917" lon="3.22502">
        <ele>695.8</ele>
        <time>2022-06-16T08:18:12Z</time>
      </trkpt>
      <trkpt lat="44.08908" lon="3.22503">
        <ele>696</ele>
        <time>2022-06-16T08:18:14Z</time>
      </trkpt>
      <trkpt lat="44.08893" lon="3.22503">
        <ele>696.4</ele>
        <time>2022-06-16T08:18:18Z</time>
      </trkpt>
      <trkpt lat="44.0889" lon="3.22504">
        <ele>696.6</ele>
        <time>2022-06-16T08:18:19Z</time>
      </trkpt>
      <trkpt lat="44.08877" lon="3.22504">
        <ele>697</ele>
        <time>2022-06-16T08:18:23Z</time>
      </trkpt>
      <trkpt lat="44.08869" lon="3.22505">
        <ele>697.2</ele>
        <time>2022-06-16T08:18:25Z</time>
      </trkpt>
      <trkpt lat="44.0884" lon="3.22505">
        <ele>697.8</ele>
        <time>2022-06-16T08:18:33Z</time>
      </trkpt>
      <trkpt lat="44.08817" lon="3.22505">
        <ele>698</ele>
        <time>2022-06-16T08:18:39Z</time>
      </trkpt>
      <trkpt lat="44.08807" lon="3.22504">
        <ele>698.2</ele>
        <time>2022-06-16T08:18:42Z</time>
      </trkpt>
      <trkpt lat="44.08783" lon="3.22496">
        <ele>699</ele>
        <time>2022-06-16T08:18:50Z</time>
      </trkpt>
      <trkpt lat="44.08777" lon="3.22493">
        <ele>699.2</ele>
        <time>2022-06-16T08:18:52Z</time>
      </trkpt>
      <trkpt lat="44.08767" lon="3.22491">
        <ele>699.4</ele>
        <time>2022-06-16T08:18:56Z</time>
      </trkpt>
      <trkpt lat="44.08751" lon="3.22489">
        <ele>700.2</ele>
        <time>2022-06-16T08:19:02Z</time>
      </trkpt>
      <trkpt lat="44.08725" lon="3.22488">
        <ele>700.8</ele>
        <time>2022-06-16T08:19:11Z</time>
      </trkpt>
      <trkpt lat="44.08707" lon="3.22487">
        <ele>701.2</ele>
        <time>2022-06-16T08:19:17Z</time>
      </trkpt>
      <trkpt lat="44.08704" lon="3.22486">
        <ele>701.2</ele>
        <time>2022-06-16T08:19:18Z</time>
      </trkpt>
      <trkpt lat="44.08679" lon="3.22484">
        <ele>702</ele>
        <time>2022-06-16T08:19:27Z</time>
      </trkpt>
      <trkpt lat="44.0867" lon="3.22484">
        <ele>702.4</ele>
        <time>2022-06-16T08:19:31Z</time>
      </trkpt>
      <trkpt lat="44.08663" lon="3.22485">
        <ele>702.6</ele>
        <time>2022-06-16T08:19:33Z</time>
      </trkpt>
      <trkpt lat="44.08635" lon="3.22484">
        <ele>703.2</ele>
        <time>2022-06-16T08:19:42Z</time>
      </trkpt>
      <trkpt lat="44.08632" lon="3.22484">
        <ele>703.4</ele>
        <time>2022-06-16T08:19:43Z</time>
      </trkpt>
      <trkpt lat="44.08603" lon="3.22486">
        <ele>704.4</ele>
        <time>2022-06-16T08:19:52Z</time>
      </trkpt>
      <trkpt lat="44.08599" lon="3.22486">
        <ele>704.4</ele>
        <time>2022-06-16T08:19:53Z</time>
      </trkpt>
      <trkpt lat="44.08577" lon="3.22485">
        <ele>705</ele>
        <time>2022-06-16T08:20:00Z</time>
      </trkpt>
      <trkpt lat="44.08558" lon="3.22483">
        <ele>705.4</ele>
        <time>2022-06-16T08:20:06Z</time>
      </trkpt>
      <trkpt lat="44.08555" lon="3.22483">
        <ele>705.4</ele>
        <time>2022-06-16T08:20:07Z</time>
      </trkpt>
      <trkpt lat="44.08522" lon="3.22482">
        <ele>706.2</ele>
        <time>2022-06-16T08:20:17Z</time>
      </trkpt>
      <trkpt lat="44.08519" lon="3.22481">
        <ele>706.4</ele>
        <time>2022-06-16T08:20:18Z</time>
      </trkpt>
      <trkpt lat="44.08495" lon="3.22479">
        <ele>706.8</ele>
        <time>2022-06-16T08:20:25Z</time>
      </trkpt>
      <trkpt lat="44.08487" lon="3.22478">
        <ele>707</ele>
        <time>2022-06-16T08:20:27Z</time>
      </trkpt>
      <trkpt lat="44.08464" lon="3.22475">
        <ele>707</ele>
        <time>2022-06-16T08:20:33Z</time>
      </trkpt>
      <trkpt lat="44.08443" lon="3.22473">
        <ele>707.4</ele>
        <time>2022-06-16T08:20:38Z</time>
      </trkpt>
      <trkpt lat="44.08436" lon="3.22473">
        <ele>707.4</ele>
        <time>2022-06-16T08:20:40Z</time>
      </trkpt>
      <trkpt lat="44.08409" lon="3.22472">
        <ele>708</ele>
        <time>2022-06-16T08:20:48Z</time>
      </trkpt>
      <trkpt lat="44.08395" lon="3.22471">
        <ele>708</ele>
        <time>2022-06-16T08:20:53Z</time>
      </trkpt>
      <trkpt lat="44.08382" lon="3.22467">
        <ele>708.4</ele>
        <time>2022-06-16T08:20:59Z</time>
      </trkpt>
      <trkpt lat="44.08363" lon="3.22463">
        <ele>708.8</ele>
        <time>2022-06-16T08:21:07Z</time>
      </trkpt>
      <trkpt lat="44.08343" lon="3.2246">
        <ele>709.4</ele>
        <time>2022-06-16T08:21:14Z</time>
      </trkpt>
      <trkpt lat="44.08332" lon="3.22458">
        <ele>709.8</ele>
        <time>2022-06-16T08:21:20Z</time>
      </trkpt>
      <trkpt lat="44.08321" lon="3.22459">
        <ele>710.4</ele>
        <time>2022-06-16T08:21:24Z</time>
      </trkpt>
      <trkpt lat="44.08307" lon="3.2246">
        <ele>711</ele>
        <time>2022-06-16T08:21:29Z</time>
      </trkpt>
      <trkpt lat="44.08298" lon="3.22459">
        <ele>711.4</ele>
        <time>2022-06-16T08:21:32Z</time>
      </trkpt>
      <trkpt lat="44.08291" lon="3.22457">
        <ele>712</ele>
        <time>2022-06-16T08:21:35Z</time>
      </trkpt>
      <trkpt lat="44.08284" lon="3.22453">
        <ele>712.4</ele>
        <time>2022-06-16T08:21:38Z</time>
      </trkpt>
      <trkpt lat="44.08273" lon="3.22447">
        <ele>712.4</ele>
        <time>2022-06-16T08:21:43Z</time>
      </trkpt>
      <trkpt lat="44.0826" lon="3.22445">
        <ele>712.6</ele>
        <time>2022-06-16T08:21:48Z</time>
      </trkpt>
      <trkpt lat="44.08237" lon="3.22445">
        <ele>713</ele>
        <time>2022-06-16T08:21:56Z</time>
      </trkpt>
      <trkpt lat="44.08219" lon="3.22443">
        <ele>713</ele>
        <time>2022-06-16T08:22:02Z</time>
      </trkpt>
      <trkpt lat="44.08202" lon="3.22434">
        <ele>713.2</ele>
        <time>2022-06-16T08:22:09Z</time>
      </trkpt>
      <trkpt lat="44.08196" lon="3.22426">
        <ele>713.4</ele>
        <time>2022-06-16T08:22:12Z</time>
      </trkpt>
      <trkpt lat="44.08192" lon="3.22421">
        <ele>713.6</ele>
        <time>2022-06-16T08:22:15Z</time>
      </trkpt>
      <trkpt lat="44.08186" lon="3.22421">
        <ele>714.2</ele>
        <time>2022-06-16T08:22:19Z</time>
      </trkpt>
      <trkpt lat="44.08183" lon="3.22422">
        <ele>714.6</ele>
        <time>2022-06-16T08:22:21Z</time>
      </trkpt>
      <trkpt lat="44.08179" lon="3.22421">
        <ele>715</ele>
        <time>2022-06-16T08:22:24Z</time>
      </trkpt>
      <trkpt lat="44.08173" lon="3.2242">
        <ele>715.6</ele>
        <time>2022-06-16T08:22:29Z</time>
      </trkpt>
      <trkpt lat="44.08169" lon="3.22419">
        <ele>716</ele>
        <time>2022-06-16T08:22:32Z</time>
      </trkpt>
      <trkpt lat="44.08152" lon="3.22417">
        <ele>716.6</ele>
        <time>2022-06-16T08:22:41Z</time>
      </trkpt>
      <trkpt lat="44.0815" lon="3.22416">
        <ele>716.6</ele>
        <time>2022-06-16T08:22:42Z</time>
      </trkpt>
      <trkpt lat="44.08142" lon="3.22417">
        <ele>717</ele>
        <time>2022-06-16T08:22:46Z</time>
      </trkpt>
      <trkpt lat="44.08122" lon="3.2242">
        <ele>717.2</ele>
        <time>2022-06-16T08:22:54Z</time>
      </trkpt>
      <trkpt lat="44.08103" lon="3.22423">
        <ele>717.8</ele>
        <time>2022-06-16T08:23:01Z</time>
      </trkpt>
      <trkpt lat="44.08101" lon="3.22425">
        <ele>718</ele>
        <time>2022-06-16T08:23:02Z</time>
      </trkpt>
      <trkpt lat="44.0809" lon="3.22436">
        <ele>718.4</ele>
        <time>2022-06-16T08:23:09Z</time>
      </trkpt>
      <trkpt lat="44.08088" lon="3.22438">
        <ele>718.4</ele>
        <time>2022-06-16T08:23:10Z</time>
      </trkpt>
      <trkpt lat="44.08078" lon="3.22439">
        <ele>718.4</ele>
        <time>2022-06-16T08:23:14Z</time>
      </trkpt>
      <trkpt lat="44.08073" lon="3.22439">
        <ele>718.8</ele>
        <time>2022-06-16T08:23:17Z</time>
      </trkpt>
      <trkpt lat="44.08066" lon="3.22439">
        <ele>719</ele>
        <time>2022-06-16T08:23:21Z</time>
      </trkpt>
      <trkpt lat="44.08055" lon="3.22443">
        <ele>720</ele>
        <time>2022-06-16T08:23:27Z</time>
      </trkpt>
      <trkpt lat="44.08044" lon="3.22442">
        <ele>720.6</ele>
        <time>2022-06-16T08:23:33Z</time>
      </trkpt>
      <trkpt lat="44.08031" lon="3.22442">
        <ele>721</ele>
        <time>2022-06-16T08:23:38Z</time>
      </trkpt>
      <trkpt lat="44.08028" lon="3.22441">
        <ele>721</ele>
        <time>2022-06-16T08:23:39Z</time>
      </trkpt>
      <trkpt lat="44.08018" lon="3.22442">
        <ele>721.2</ele>
        <time>2022-06-16T08:23:43Z</time>
      </trkpt>
      <trkpt lat="44.08014" lon="3.22443">
        <ele>721.4</ele>
        <time>2022-06-16T08:23:45Z</time>
      </trkpt>
      <trkpt lat="44.08007" lon="3.2244">
        <ele>722</ele>
        <time>2022-06-16T08:23:49Z</time>
      </trkpt>
      <trkpt lat="44.08006" lon="3.2244">
        <ele>722</ele>
        <time>2022-06-16T08:23:50Z</time>
      </trkpt>
      <trkpt lat="44.08004" lon="3.2244">
        <ele>722.2</ele>
        <time>2022-06-16T08:23:51Z</time>
      </trkpt>
      <trkpt lat="44.07999" lon="3.22439">
        <ele>722.4</ele>
        <time>2022-06-16T08:23:55Z</time>
      </trkpt>
      <trkpt lat="44.07997" lon="3.22438">
        <ele>722.6</ele>
        <time>2022-06-16T08:23:56Z</time>
      </trkpt>
      <trkpt lat="44.07992" lon="3.22437">
        <ele>722.8</ele>
        <time>2022-06-16T08:23:59Z</time>
      </trkpt>
      <trkpt lat="44.0799" lon="3.22438">
        <ele>722.8</ele>
        <time>2022-06-16T08:24:00Z</time>
      </trkpt>
      <trkpt lat="44.07984" lon="3.22441">
        <ele>723.2</ele>
        <time>2022-06-16T08:24:03Z</time>
      </trkpt>
      <trkpt lat="44.07977" lon="3.22443">
        <ele>723.4</ele>
        <time>2022-06-16T08:24:06Z</time>
      </trkpt>
      <trkpt lat="44.07961" lon="3.2244">
        <ele>724</ele>
        <time>2022-06-16T08:24:14Z</time>
      </trkpt>
      <trkpt lat="44.07941" lon="3.22439">
        <ele>724.6</ele>
        <time>2022-06-16T08:24:22Z</time>
      </trkpt>
      <trkpt lat="44.07929" lon="3.22441">
        <ele>725</ele>
        <time>2022-06-16T08:24:27Z</time>
      </trkpt>
      <trkpt lat="44.07926" lon="3.22441">
        <ele>725.2</ele>
        <time>2022-06-16T08:24:29Z</time>
      </trkpt>
      <trkpt lat="44.07909" lon="3.2244">
        <ele>725.8</ele>
        <time>2022-06-16T08:24:37Z</time>
      </trkpt>
      <trkpt lat="44.07893" lon="3.22442">
        <ele>725.6</ele>
        <time>2022-06-16T08:24:41Z</time>
      </trkpt>
      <trkpt lat="44.07872" lon="3.22441">
        <ele>725.2</ele>
        <time>2022-06-16T08:24:45Z</time>
      </trkpt>
      <trkpt lat="44.07866" lon="3.2244">
        <ele>724.8</ele>
        <time>2022-06-16T08:24:46Z</time>
      </trkpt>
      <trkpt lat="44.07843" lon="3.22439">
        <ele>723.8</ele>
        <time>2022-06-16T08:24:50Z</time>
      </trkpt>
      <trkpt lat="44.07839" lon="3.22435">
        <ele>723.4</ele>
        <time>2022-06-16T08:24:51Z</time>
      </trkpt>
      <trkpt lat="44.07834" lon="3.22432">
        <ele>723.4</ele>
        <time>2022-06-16T08:24:52Z</time>
      </trkpt>
      <trkpt lat="44.0783" lon="3.22429">
        <ele>723.2</ele>
        <time>2022-06-16T08:24:53Z</time>
      </trkpt>
      <trkpt lat="44.07827" lon="3.22428">
        <ele>723</ele>
        <time>2022-06-16T08:24:54Z</time>
      </trkpt>
      <trkpt lat="44.0782" lon="3.22431">
        <ele>722.8</ele>
        <time>2022-06-16T08:24:57Z</time>
      </trkpt>
      <trkpt lat="44.07818" lon="3.22433">
        <ele>722.6</ele>
        <time>2022-06-16T08:24:58Z</time>
      </trkpt>
      <trkpt lat="44.07802" lon="3.22439">
        <ele>722.6</ele>
        <time>2022-06-16T08:25:05Z</time>
      </trkpt>
      <trkpt lat="44.07793" lon="3.2244">
        <ele>723</ele>
        <time>2022-06-16T08:25:11Z</time>
      </trkpt>
      <trkpt lat="44.07785" lon="3.22444">
        <ele>723.8</ele>
        <time>2022-06-16T08:25:16Z</time>
      </trkpt>
      <trkpt lat="44.07782" lon="3.22445">
        <ele>724</ele>
        <time>2022-06-16T08:25:18Z</time>
      </trkpt>
      <trkpt lat="44.07772" lon="3.22447">
        <ele>724.8</ele>
        <time>2022-06-16T08:25:24Z</time>
      </trkpt>
      <trkpt lat="44.0777" lon="3.22447">
        <ele>725</ele>
        <time>2022-06-16T08:25:25Z</time>
      </trkpt>
      <trkpt lat="44.07769" lon="3.22448">
        <ele>725</ele>
        <time>2022-06-16T08:25:26Z</time>
      </trkpt>
      <trkpt lat="44.07759" lon="3.22452">
        <ele>725.4</ele>
        <time>2022-06-16T08:25:31Z</time>
      </trkpt>
      <trkpt lat="44.07749" lon="3.22453">
        <ele>726</ele>
        <time>2022-06-16T08:25:36Z</time>
      </trkpt>
      <trkpt lat="44.07741" lon="3.22454">
        <ele>726.2</ele>
        <time>2022-06-16T08:25:39Z</time>
      </trkpt>
      <trkpt lat="44.07723" lon="3.22461">
        <ele>726.2</ele>
        <time>2022-06-16T08:25:45Z</time>
      </trkpt>
      <trkpt lat="44.07704" lon="3.2247">
        <ele>726.2</ele>
        <time>2022-06-16T08:25:51Z</time>
      </trkpt>
      <trkpt lat="44.07693" lon="3.22473">
        <ele>726.4</ele>
        <time>2022-06-16T08:25:56Z</time>
      </trkpt>
      <trkpt lat="44.07676" lon="3.22478">
        <ele>726.8</ele>
        <time>2022-06-16T08:26:02Z</time>
      </trkpt>
      <trkpt lat="44.07658" lon="3.22475">
        <ele>727.4</ele>
        <time>2022-06-16T08:26:08Z</time>
      </trkpt>
      <trkpt lat="44.07646" lon="3.22466">
        <ele>727.4</ele>
        <time>2022-06-16T08:26:13Z</time>
      </trkpt>
      <trkpt lat="44.07632" lon="3.22456">
        <ele>727.2</ele>
        <time>2022-06-16T08:26:19Z</time>
      </trkpt>
      <trkpt lat="44.07613" lon="3.2245">
        <ele>727.6</ele>
        <time>2022-06-16T08:26:25Z</time>
      </trkpt>
      <trkpt lat="44.07602" lon="3.22447">
        <ele>727.8</ele>
        <time>2022-06-16T08:26:29Z</time>
      </trkpt>
      <trkpt lat="44.07596" lon="3.22444">
        <ele>728</ele>
        <time>2022-06-16T08:26:31Z</time>
      </trkpt>
      <trkpt lat="44.07593" lon="3.22443">
        <ele>728</ele>
        <time>2022-06-16T08:26:32Z</time>
      </trkpt>
      <trkpt lat="44.07578" lon="3.22447">
        <ele>728.4</ele>
        <time>2022-06-16T08:26:38Z</time>
      </trkpt>
      <trkpt lat="44.07568" lon="3.2245">
        <ele>728.8</ele>
        <time>2022-06-16T08:26:42Z</time>
      </trkpt>
      <trkpt lat="44.07566" lon="3.2245">
        <ele>729</ele>
        <time>2022-06-16T08:26:43Z</time>
      </trkpt>
      <trkpt lat="44.07564" lon="3.22449">
        <ele>729.2</ele>
        <time>2022-06-16T08:26:47Z</time>
      </trkpt>
      <trkpt lat="44.07564" lon="3.22449">
        <ele>729.4</ele>
        <time>2022-06-16T08:26:57Z</time>
      </trkpt>
      <trkpt lat="44.07564" lon="3.22449">
        <ele>729.2</ele>
        <time>2022-06-16T08:27:08Z</time>
      </trkpt>
      <trkpt lat="44.07562" lon="3.22449">
        <ele>728.8</ele>
        <time>2022-06-16T08:27:14Z</time>
      </trkpt>
      <trkpt lat="44.07562" lon="3.22449">
        <ele>728.6</ele>
        <time>2022-06-16T08:27:20Z</time>
      </trkpt>
      <trkpt lat="44.07562" lon="3.22449">
        <ele>728.8</ele>
        <time>2022-06-16T08:27:40Z</time>
      </trkpt>
      <trkpt lat="44.07558" lon="3.22448">
        <ele>728.8</ele>
        <time>2022-06-16T08:27:45Z</time>
      </trkpt>
      <trkpt lat="44.07557" lon="3.22448">
        <ele>729</ele>
        <time>2022-06-16T08:27:46Z</time>
      </trkpt>
      <trkpt lat="44.0755" lon="3.22448">
        <ele>729</ele>
        <time>2022-06-16T08:27:50Z</time>
      </trkpt>
      <trkpt lat="44.07548" lon="3.22448">
        <ele>729.2</ele>
        <time>2022-06-16T08:27:51Z</time>
      </trkpt>
      <trkpt lat="44.0753" lon="3.2245">
        <ele>729.2</ele>
        <time>2022-06-16T08:27:57Z</time>
      </trkpt>
      <trkpt lat="44.07527" lon="3.2245">
        <ele>729.4</ele>
        <time>2022-06-16T08:27:58Z</time>
      </trkpt>
      <trkpt lat="44.0751" lon="3.22449">
        <ele>729.6</ele>
        <time>2022-06-16T08:28:03Z</time>
      </trkpt>
      <trkpt lat="44.07498" lon="3.22447">
        <ele>729.6</ele>
        <time>2022-06-16T08:28:07Z</time>
      </trkpt>
      <trkpt lat="44.07477" lon="3.2244">
        <ele>730</ele>
        <time>2022-06-16T08:28:13Z</time>
      </trkpt>
      <trkpt lat="44.0746" lon="3.22431">
        <ele>730.2</ele>
        <time>2022-06-16T08:28:19Z</time>
      </trkpt>
      <trkpt lat="44.07441" lon="3.22415">
        <ele>730.4</ele>
        <time>2022-06-16T08:28:26Z</time>
      </trkpt>
      <trkpt lat="44.07427" lon="3.224">
        <ele>731.2</ele>
        <time>2022-06-16T08:28:33Z</time>
      </trkpt>
      <trkpt lat="44.07416" lon="3.22395">
        <ele>732.2</ele>
        <time>2022-06-16T08:28:39Z</time>
      </trkpt>
      <trkpt lat="44.07401" lon="3.22393">
        <ele>732.6</ele>
        <time>2022-06-16T08:28:44Z</time>
      </trkpt>
      <trkpt lat="44.07396" lon="3.22392">
        <ele>732.8</ele>
        <time>2022-06-16T08:28:46Z</time>
      </trkpt>
      <trkpt lat="44.07373" lon="3.2239">
        <ele>732.6</ele>
        <time>2022-06-16T08:28:54Z</time>
      </trkpt>
      <trkpt lat="44.07357" lon="3.2239">
        <ele>733</ele>
        <time>2022-06-16T08:29:00Z</time>
      </trkpt>
      <trkpt lat="44.07349" lon="3.22389">
        <ele>733.4</ele>
        <time>2022-06-16T08:29:03Z</time>
      </trkpt>
      <trkpt lat="44.07331" lon="3.2239">
        <ele>734</ele>
        <time>2022-06-16T08:29:10Z</time>
      </trkpt>
      <trkpt lat="44.07329" lon="3.2239">
        <ele>734.2</ele>
        <time>2022-06-16T08:29:11Z</time>
      </trkpt>
      <trkpt lat="44.07316" lon="3.22392">
        <ele>734.8</ele>
        <time>2022-06-16T08:29:16Z</time>
      </trkpt>
      <trkpt lat="44.07303" lon="3.22393">
        <ele>735.2</ele>
        <time>2022-06-16T08:29:20Z</time>
      </trkpt>
      <trkpt lat="44.07297" lon="3.22394">
        <ele>735</ele>
        <time>2022-06-16T08:29:22Z</time>
      </trkpt>
      <trkpt lat="44.07276" lon="3.22393">
        <ele>735</ele>
        <time>2022-06-16T08:29:28Z</time>
      </trkpt>
      <trkpt lat="44.0725" lon="3.22392">
        <ele>735.4</ele>
        <time>2022-06-16T08:29:36Z</time>
      </trkpt>
      <trkpt lat="44.07231" lon="3.22392">
        <ele>735.4</ele>
        <time>2022-06-16T08:29:42Z</time>
      </trkpt>
      <trkpt lat="44.07204" lon="3.22386">
        <ele>735.6</ele>
        <time>2022-06-16T08:29:50Z</time>
      </trkpt>
      <trkpt lat="44.07183" lon="3.22381">
        <ele>736</ele>
        <time>2022-06-16T08:29:58Z</time>
      </trkpt>
      <trkpt lat="44.07173" lon="3.22369">
        <ele>736.2</ele>
        <time>2022-06-16T08:30:03Z</time>
      </trkpt>
      <trkpt lat="44.07161" lon="3.22361">
        <ele>736.6</ele>
        <time>2022-06-16T08:30:09Z</time>
      </trkpt>
      <trkpt lat="44.07151" lon="3.22355">
        <ele>737.2</ele>
        <time>2022-06-16T08:30:13Z</time>
      </trkpt>
      <trkpt lat="44.07144" lon="3.2235">
        <ele>737.6</ele>
        <time>2022-06-16T08:30:16Z</time>
      </trkpt>
      <trkpt lat="44.07123" lon="3.22329">
        <ele>737.6</ele>
        <time>2022-06-16T08:30:24Z</time>
      </trkpt>
      <trkpt lat="44.07104" lon="3.22309">
        <ele>737.6</ele>
        <time>2022-06-16T08:30:31Z</time>
      </trkpt>
      <trkpt lat="44.07098" lon="3.223">
        <ele>738</ele>
        <time>2022-06-16T08:30:34Z</time>
      </trkpt>
      <trkpt lat="44.07094" lon="3.22293">
        <ele>738.2</ele>
        <time>2022-06-16T08:30:37Z</time>
      </trkpt>
      <trkpt lat="44.0708" lon="3.22275">
        <ele>738.6</ele>
        <time>2022-06-16T08:30:45Z</time>
      </trkpt>
      <trkpt lat="44.07069" lon="3.22259">
        <ele>739</ele>
        <time>2022-06-16T08:30:51Z</time>
      </trkpt>
      <trkpt lat="44.07063" lon="3.2225">
        <ele>739.2</ele>
        <time>2022-06-16T08:30:54Z</time>
      </trkpt>
      <trkpt lat="44.07046" lon="3.2222">
        <ele>739.8</ele>
        <time>2022-06-16T08:31:04Z</time>
      </trkpt>
      <trkpt lat="44.07036" lon="3.22209">
        <ele>739.8</ele>
        <time>2022-06-16T08:31:08Z</time>
      </trkpt>
      <trkpt lat="44.07035" lon="3.22206">
        <ele>740</ele>
        <time>2022-06-16T08:31:10Z</time>
      </trkpt>
      <trkpt lat="44.07016" lon="3.22182">
        <ele>740.8</ele>
        <time>2022-06-16T08:31:20Z</time>
      </trkpt>
      <trkpt lat="44.07013" lon="3.2218">
        <ele>741</ele>
        <time>2022-06-16T08:31:21Z</time>
      </trkpt>
      <trkpt lat="44.06998" lon="3.22166">
        <ele>741.2</ele>
        <time>2022-06-16T08:31:28Z</time>
      </trkpt>
      <trkpt lat="44.06988" lon="3.22156">
        <ele>741.6</ele>
        <time>2022-06-16T08:31:34Z</time>
      </trkpt>
      <trkpt lat="44.06977" lon="3.22141">
        <ele>742</ele>
        <time>2022-06-16T08:31:41Z</time>
      </trkpt>
      <trkpt lat="44.06973" lon="3.22137">
        <ele>742.2</ele>
        <time>2022-06-16T08:31:43Z</time>
      </trkpt>
      <trkpt lat="44.06964" lon="3.22131">
        <ele>742.8</ele>
        <time>2022-06-16T08:31:47Z</time>
      </trkpt>
      <trkpt lat="44.06957" lon="3.22126">
        <ele>743</ele>
        <time>2022-06-16T08:31:50Z</time>
      </trkpt>
      <trkpt lat="44.06949" lon="3.22119">
        <ele>743.4</ele>
        <time>2022-06-16T08:31:54Z</time>
      </trkpt>
      <trkpt lat="44.0693" lon="3.22104">
        <ele>743.2</ele>
        <time>2022-06-16T08:32:01Z</time>
      </trkpt>
      <trkpt lat="44.06912" lon="3.22094">
        <ele>743.4</ele>
        <time>2022-06-16T08:32:09Z</time>
      </trkpt>
      <trkpt lat="44.06894" lon="3.22087">
        <ele>744</ele>
        <time>2022-06-16T08:32:17Z</time>
      </trkpt>
      <trkpt lat="44.06889" lon="3.22085">
        <ele>744.2</ele>
        <time>2022-06-16T08:32:19Z</time>
      </trkpt>
      <trkpt lat="44.06876" lon="3.22076">
        <ele>744.6</ele>
        <time>2022-06-16T08:32:25Z</time>
      </trkpt>
      <trkpt lat="44.06875" lon="3.22076">
        <ele>744.8</ele>
        <time>2022-06-16T08:32:26Z</time>
      </trkpt>
      <trkpt lat="44.06875" lon="3.22076">
        <ele>745</ele>
        <time>2022-06-16T08:32:28Z</time>
      </trkpt>
      <trkpt lat="44.06874" lon="3.22075">
        <ele>745</ele>
        <time>2022-06-16T08:32:34Z</time>
      </trkpt>
      <trkpt lat="44.06874" lon="3.22075">
        <ele>745</ele>
        <time>2022-06-16T08:32:39Z</time>
      </trkpt>
      <trkpt lat="44.06872" lon="3.22074">
        <ele>745</ele>
        <time>2022-06-16T08:32:48Z</time>
      </trkpt>
      <trkpt lat="44.06871" lon="3.22074">
        <ele>745.2</ele>
        <time>2022-06-16T08:32:56Z</time>
      </trkpt>
      <trkpt lat="44.06871" lon="3.22074">
        <ele>745.2</ele>
        <time>2022-06-16T08:32:58Z</time>
      </trkpt>
      <trkpt lat="44.06867" lon="3.22068">
        <ele>745.6</ele>
        <time>2022-06-16T08:33:17Z</time>
      </trkpt>
      <trkpt lat="44.06862" lon="3.22064">
        <ele>745.4</ele>
        <time>2022-06-16T08:33:22Z</time>
      </trkpt>
      <trkpt lat="44.06857" lon="3.2206">
        <ele>745.4</ele>
        <time>2022-06-16T08:33:26Z</time>
      </trkpt>
      <trkpt lat="44.06851" lon="3.22054">
        <ele>745.4</ele>
        <time>2022-06-16T08:33:34Z</time>
      </trkpt>
      <trkpt lat="44.06847" lon="3.22051">
        <ele>745.4</ele>
        <time>2022-06-16T08:33:41Z</time>
      </trkpt>
      <trkpt lat="44.0684" lon="3.22042">
        <ele>745.4</ele>
        <time>2022-06-16T08:33:47Z</time>
      </trkpt>
      <trkpt lat="44.06829" lon="3.22021">
        <ele>745.6</ele>
        <time>2022-06-16T08:33:54Z</time>
      </trkpt>
      <trkpt lat="44.0682" lon="3.2201">
        <ele>746</ele>
        <time>2022-06-16T08:33:59Z</time>
      </trkpt>
      <trkpt lat="44.06817" lon="3.22009">
        <ele>746.4</ele>
        <time>2022-06-16T08:34:01Z</time>
      </trkpt>
      <trkpt lat="44.06812" lon="3.22007">
        <ele>746.6</ele>
        <time>2022-06-16T08:34:03Z</time>
      </trkpt>
      <trkpt lat="44.06795" lon="3.22009">
        <ele>747</ele>
        <time>2022-06-16T08:34:10Z</time>
      </trkpt>
      <trkpt lat="44.0679" lon="3.2201">
        <ele>747</ele>
        <time>2022-06-16T08:34:12Z</time>
      </trkpt>
      <trkpt lat="44.06773" lon="3.22011">
        <ele>747.4</ele>
        <time>2022-06-16T08:34:18Z</time>
      </trkpt>
      <trkpt lat="44.0676" lon="3.22017">
        <ele>747.8</ele>
        <time>2022-06-16T08:34:24Z</time>
      </trkpt>
      <trkpt lat="44.06755" lon="3.22019">
        <ele>748.2</ele>
        <time>2022-06-16T08:34:26Z</time>
      </trkpt>
      <trkpt lat="44.06741" lon="3.22027">
        <ele>748.6</ele>
        <time>2022-06-16T08:34:31Z</time>
      </trkpt>
      <trkpt lat="44.06729" lon="3.22032">
        <ele>749.2</ele>
        <time>2022-06-16T08:34:36Z</time>
      </trkpt>
      <trkpt lat="44.06724" lon="3.22035">
        <ele>749.4</ele>
        <time>2022-06-16T08:34:38Z</time>
      </trkpt>
      <trkpt lat="44.06715" lon="3.2204">
        <ele>750.2</ele>
        <time>2022-06-16T08:34:42Z</time>
      </trkpt>
      <trkpt lat="44.06708" lon="3.22044">
        <ele>750.4</ele>
        <time>2022-06-16T08:34:45Z</time>
      </trkpt>
      <trkpt lat="44.06691" lon="3.22061">
        <ele>750.6</ele>
        <time>2022-06-16T08:34:52Z</time>
      </trkpt>
      <trkpt lat="44.06685" lon="3.2207">
        <ele>751</ele>
        <time>2022-06-16T08:34:56Z</time>
      </trkpt>
      <trkpt lat="44.06675" lon="3.22082">
        <ele>751.6</ele>
        <time>2022-06-16T08:35:01Z</time>
      </trkpt>
      <trkpt lat="44.06668" lon="3.22091">
        <ele>752</ele>
        <time>2022-06-16T08:35:05Z</time>
      </trkpt>
      <trkpt lat="44.0666" lon="3.22098">
        <ele>752.4</ele>
        <time>2022-06-16T08:35:09Z</time>
      </trkpt>
      <trkpt lat="44.06649" lon="3.22118">
        <ele>753</ele>
        <time>2022-06-16T08:35:16Z</time>
      </trkpt>
      <trkpt lat="44.06646" lon="3.22123">
        <ele>753.2</ele>
        <time>2022-06-16T08:35:18Z</time>
      </trkpt>
      <trkpt lat="44.06635" lon="3.22138">
        <ele>753.6</ele>
        <time>2022-06-16T08:35:23Z</time>
      </trkpt>
      <trkpt lat="44.06615" lon="3.22162">
        <ele>754.2</ele>
        <time>2022-06-16T08:35:32Z</time>
      </trkpt>
      <trkpt lat="44.066" lon="3.22184">
        <ele>755</ele>
        <time>2022-06-16T08:35:40Z</time>
      </trkpt>
      <trkpt lat="44.06594" lon="3.2219">
        <ele>755.2</ele>
        <time>2022-06-16T08:35:43Z</time>
      </trkpt>
      <trkpt lat="44.06581" lon="3.22199">
        <ele>755.6</ele>
        <time>2022-06-16T08:35:49Z</time>
      </trkpt>
      <trkpt lat="44.06573" lon="3.22202">
        <ele>756.2</ele>
        <time>2022-06-16T08:35:54Z</time>
      </trkpt>
      <trkpt lat="44.06571" lon="3.22205">
        <ele>756.2</ele>
        <time>2022-06-16T08:35:56Z</time>
      </trkpt>
      <trkpt lat="44.06564" lon="3.2221">
        <ele>757</ele>
        <time>2022-06-16T08:36:01Z</time>
      </trkpt>
      <trkpt lat="44.06556" lon="3.22216">
        <ele>757.4</ele>
        <time>2022-06-16T08:36:06Z</time>
      </trkpt>
      <trkpt lat="44.06551" lon="3.2222">
        <ele>757.6</ele>
        <time>2022-06-16T08:36:09Z</time>
      </trkpt>
      <trkpt lat="44.06542" lon="3.22225">
        <ele>758</ele>
        <time>2022-06-16T08:36:15Z</time>
      </trkpt>
      <trkpt lat="44.06535" lon="3.22229">
        <ele>758.4</ele>
        <time>2022-06-16T08:36:19Z</time>
      </trkpt>
      <trkpt lat="44.06531" lon="3.22237">
        <ele>758.6</ele>
        <time>2022-06-16T08:36:22Z</time>
      </trkpt>
      <trkpt lat="44.0653" lon="3.22255">
        <ele>759</ele>
        <time>2022-06-16T08:36:28Z</time>
      </trkpt>
      <trkpt lat="44.06528" lon="3.22266">
        <ele>759</ele>
        <time>2022-06-16T08:36:34Z</time>
      </trkpt>
      <trkpt lat="44.06528" lon="3.22266">
        <ele>758.8</ele>
        <time>2022-06-16T08:36:41Z</time>
      </trkpt>
      <trkpt lat="44.06528" lon="3.22266">
        <ele>758.4</ele>
        <time>2022-06-16T08:36:51Z</time>
      </trkpt>
      <trkpt lat="44.06528" lon="3.22266">
        <ele>758.2</ele>
        <time>2022-06-16T08:37:04Z</time>
      </trkpt>
      <trkpt lat="44.06526" lon="3.22273">
        <ele>758</ele>
        <time>2022-06-16T08:37:11Z</time>
      </trkpt>
      <trkpt lat="44.06523" lon="3.22284">
        <ele>758.2</ele>
        <time>2022-06-16T08:37:15Z</time>
      </trkpt>
      <trkpt lat="44.06522" lon="3.22286">
        <ele>758.2</ele>
        <time>2022-06-16T08:37:16Z</time>
      </trkpt>
      <trkpt lat="44.06519" lon="3.22295">
        <ele>758.8</ele>
        <time>2022-06-16T08:37:20Z</time>
      </trkpt>
      <trkpt lat="44.06519" lon="3.22301">
        <ele>759.2</ele>
        <time>2022-06-16T08:37:23Z</time>
      </trkpt>
      <trkpt lat="44.06518" lon="3.22306">
        <ele>759.4</ele>
        <time>2022-06-16T08:37:25Z</time>
      </trkpt>
      <trkpt lat="44.06516" lon="3.22318">
        <ele>760</ele>
        <time>2022-06-16T08:37:32Z</time>
      </trkpt>
      <trkpt lat="44.06515" lon="3.2232">
        <ele>760</ele>
        <time>2022-06-16T08:37:33Z</time>
      </trkpt>
      <trkpt lat="44.06513" lon="3.22326">
        <ele>760.4</ele>
        <time>2022-06-16T08:37:35Z</time>
      </trkpt>
      <trkpt lat="44.06513" lon="3.22329">
        <ele>760.4</ele>
        <time>2022-06-16T08:37:36Z</time>
      </trkpt>
      <trkpt lat="44.06512" lon="3.22337">
        <ele>760.6</ele>
        <time>2022-06-16T08:37:39Z</time>
      </trkpt>
      <trkpt lat="44.0651" lon="3.22347">
        <ele>761.6</ele>
        <time>2022-06-16T08:37:44Z</time>
      </trkpt>
      <trkpt lat="44.0651" lon="3.2235">
        <ele>761.6</ele>
        <time>2022-06-16T08:37:45Z</time>
      </trkpt>
      <trkpt lat="44.0651" lon="3.22355">
        <ele>762</ele>
        <time>2022-06-16T08:37:47Z</time>
      </trkpt>
      <trkpt lat="44.06509" lon="3.22378">
        <ele>762.6</ele>
        <time>2022-06-16T08:37:53Z</time>
      </trkpt>
      <trkpt lat="44.06509" lon="3.22401">
        <ele>762.2</ele>
        <time>2022-06-16T08:38:00Z</time>
      </trkpt>
      <trkpt lat="44.06508" lon="3.22407">
        <ele>762.2</ele>
        <time>2022-06-16T08:38:03Z</time>
      </trkpt>
      <trkpt lat="44.06508" lon="3.22417">
        <ele>762.6</ele>
        <time>2022-06-16T08:38:07Z</time>
      </trkpt>
      <trkpt lat="44.06508" lon="3.2242">
        <ele>762.6</ele>
        <time>2022-06-16T08:38:08Z</time>
      </trkpt>
      <trkpt lat="44.06506" lon="3.22427">
        <ele>762.6</ele>
        <time>2022-06-16T08:38:11Z</time>
      </trkpt>
      <trkpt lat="44.06506" lon="3.22433">
        <ele>762.6</ele>
        <time>2022-06-16T08:38:13Z</time>
      </trkpt>
      <trkpt lat="44.06506" lon="3.22452">
        <ele>763</ele>
        <time>2022-06-16T08:38:20Z</time>
      </trkpt>
      <trkpt lat="44.06506" lon="3.22454">
        <ele>763.2</ele>
        <time>2022-06-16T08:38:21Z</time>
      </trkpt>
      <trkpt lat="44.06506" lon="3.22463">
        <ele>763.6</ele>
        <time>2022-06-16T08:38:25Z</time>
      </trkpt>
      <trkpt lat="44.06507" lon="3.22467">
        <ele>763.8</ele>
        <time>2022-06-16T08:38:27Z</time>
      </trkpt>
      <trkpt lat="44.06507" lon="3.22469">
        <ele>763.8</ele>
        <time>2022-06-16T08:38:28Z</time>
      </trkpt>
      <trkpt lat="44.0651" lon="3.22478">
        <ele>764.6</ele>
        <time>2022-06-16T08:38:33Z</time>
      </trkpt>
      <trkpt lat="44.06511" lon="3.22488">
        <ele>765.6</ele>
        <time>2022-06-16T08:38:38Z</time>
      </trkpt>
      <trkpt lat="44.06511" lon="3.2249">
        <ele>765.6</ele>
        <time>2022-06-16T08:38:39Z</time>
      </trkpt>
      <trkpt lat="44.06511" lon="3.22508">
        <ele>766.8</ele>
        <time>2022-06-16T08:38:47Z</time>
      </trkpt>
      <trkpt lat="44.06509" lon="3.22527">
        <ele>767.4</ele>
        <time>2022-06-16T08:38:55Z</time>
      </trkpt>
      <trkpt lat="44.06506" lon="3.22541">
        <ele>767.4</ele>
        <time>2022-06-16T08:39:00Z</time>
      </trkpt>
      <trkpt lat="44.06504" lon="3.22548">
        <ele>767.4</ele>
        <time>2022-06-16T08:39:02Z</time>
      </trkpt>
      <trkpt lat="44.06501" lon="3.22558">
        <ele>767.6</ele>
        <time>2022-06-16T08:39:06Z</time>
      </trkpt>
      <trkpt lat="44.06499" lon="3.22566">
        <ele>767.8</ele>
        <time>2022-06-16T08:39:08Z</time>
      </trkpt>
      <trkpt lat="44.06498" lon="3.22569">
        <ele>768</ele>
        <time>2022-06-16T08:39:09Z</time>
      </trkpt>
      <trkpt lat="44.06496" lon="3.22579">
        <ele>768.2</ele>
        <time>2022-06-16T08:39:12Z</time>
      </trkpt>
      <trkpt lat="44.06496" lon="3.22582">
        <ele>768.2</ele>
        <time>2022-06-16T08:39:13Z</time>
      </trkpt>
      <trkpt lat="44.06497" lon="3.22588">
        <ele>768.4</ele>
        <time>2022-06-16T08:39:15Z</time>
      </trkpt>
      <trkpt lat="44.06496" lon="3.22593">
        <ele>768.4</ele>
        <time>2022-06-16T08:39:16Z</time>
      </trkpt>
      <trkpt lat="44.06493" lon="3.2262">
        <ele>768.8</ele>
        <time>2022-06-16T08:39:23Z</time>
      </trkpt>
      <trkpt lat="44.06494" lon="3.22632">
        <ele>768.8</ele>
        <time>2022-06-16T08:39:28Z</time>
      </trkpt>
      <trkpt lat="44.06493" lon="3.22641">
        <ele>769.2</ele>
        <time>2022-06-16T08:39:32Z</time>
      </trkpt>
      <trkpt lat="44.06491" lon="3.22651">
        <ele>769.8</ele>
        <time>2022-06-16T08:39:37Z</time>
      </trkpt>
      <trkpt lat="44.06489" lon="3.22655">
        <ele>770</ele>
        <time>2022-06-16T08:39:39Z</time>
      </trkpt>
      <trkpt lat="44.06487" lon="3.22661">
        <ele>770.2</ele>
        <time>2022-06-16T08:39:42Z</time>
      </trkpt>
      <trkpt lat="44.06486" lon="3.22672">
        <ele>770.6</ele>
        <time>2022-06-16T08:39:46Z</time>
      </trkpt>
      <trkpt lat="44.06485" lon="3.22674">
        <ele>770.8</ele>
        <time>2022-06-16T08:39:47Z</time>
      </trkpt>
      <trkpt lat="44.0648" lon="3.22687">
        <ele>771.4</ele>
        <time>2022-06-16T08:39:53Z</time>
      </trkpt>
      <trkpt lat="44.06477" lon="3.22694">
        <ele>772</ele>
        <time>2022-06-16T08:39:56Z</time>
      </trkpt>
      <trkpt lat="44.06474" lon="3.22706">
        <ele>772.4</ele>
        <time>2022-06-16T08:40:00Z</time>
      </trkpt>
      <trkpt lat="44.06472" lon="3.22735">
        <ele>772.6</ele>
        <time>2022-06-16T08:40:08Z</time>
      </trkpt>
      <trkpt lat="44.06469" lon="3.22768">
        <ele>772.6</ele>
        <time>2022-06-16T08:40:16Z</time>
      </trkpt>
      <trkpt lat="44.06462" lon="3.22801">
        <ele>773</ele>
        <time>2022-06-16T08:40:25Z</time>
      </trkpt>
      <trkpt lat="44.06462" lon="3.22803">
        <ele>773.2</ele>
        <time>2022-06-16T08:40:26Z</time>
      </trkpt>
      <trkpt lat="44.06462" lon="3.22804">
        <ele>773.4</ele>
        <time>2022-06-16T08:40:30Z</time>
      </trkpt>
      <trkpt lat="44.06462" lon="3.22804">
        <ele>773.6</ele>
        <time>2022-06-16T08:40:41Z</time>
      </trkpt>
      <trkpt lat="44.06461" lon="3.22806">
        <ele>773.6</ele>
        <time>2022-06-16T08:40:53Z</time>
      </trkpt>
      <trkpt lat="44.06459" lon="3.22817">
        <ele>773.6</ele>
        <time>2022-06-16T08:40:59Z</time>
      </trkpt>
      <trkpt lat="44.06456" lon="3.22834">
        <ele>773.8</ele>
        <time>2022-06-16T08:41:04Z</time>
      </trkpt>
      <trkpt lat="44.06451" lon="3.22854">
        <ele>774</ele>
        <time>2022-06-16T08:41:10Z</time>
      </trkpt>
      <trkpt lat="44.06451" lon="3.22856">
        <ele>774.4</ele>
        <time>2022-06-16T08:41:11Z</time>
      </trkpt>
      <trkpt lat="44.06449" lon="3.22868">
        <ele>774.8</ele>
        <time>2022-06-16T08:41:16Z</time>
      </trkpt>
      <trkpt lat="44.06449" lon="3.2287">
        <ele>775</ele>
        <time>2022-06-16T08:41:17Z</time>
      </trkpt>
      <trkpt lat="44.0645" lon="3.22872">
        <ele>775.2</ele>
        <time>2022-06-16T08:41:18Z</time>
      </trkpt>
      <trkpt lat="44.06449" lon="3.22883">
        <ele>775.8</ele>
        <time>2022-06-16T08:41:23Z</time>
      </trkpt>
      <trkpt lat="44.06449" lon="3.22889">
        <ele>776.2</ele>
        <time>2022-06-16T08:41:26Z</time>
      </trkpt>
      <trkpt lat="44.06449" lon="3.22898">
        <ele>777.2</ele>
        <time>2022-06-16T08:41:30Z</time>
      </trkpt>
      <trkpt lat="44.06448" lon="3.22901">
        <ele>777.4</ele>
        <time>2022-06-16T08:41:31Z</time>
      </trkpt>
      <trkpt lat="44.06444" lon="3.22922">
        <ele>778.2</ele>
        <time>2022-06-16T08:41:39Z</time>
      </trkpt>
      <trkpt lat="44.06443" lon="3.22928">
        <ele>778.2</ele>
        <time>2022-06-16T08:41:41Z</time>
      </trkpt>
      <trkpt lat="44.06438" lon="3.22946">
        <ele>778.8</ele>
        <time>2022-06-16T08:41:47Z</time>
      </trkpt>
      <trkpt lat="44.06436" lon="3.22952">
        <ele>779</ele>
        <time>2022-06-16T08:41:49Z</time>
      </trkpt>
      <trkpt lat="44.06434" lon="3.22965">
        <ele>779.4</ele>
        <time>2022-06-16T08:41:53Z</time>
      </trkpt>
      <trkpt lat="44.06435" lon="3.22968">
        <ele>779.4</ele>
        <time>2022-06-16T08:41:54Z</time>
      </trkpt>
      <trkpt lat="44.06433" lon="3.22983">
        <ele>779.8</ele>
        <time>2022-06-16T08:41:59Z</time>
      </trkpt>
      <trkpt lat="44.06433" lon="3.23001">
        <ele>780.4</ele>
        <time>2022-06-16T08:42:06Z</time>
      </trkpt>
      <trkpt lat="44.06433" lon="3.23004">
        <ele>780.6</ele>
        <time>2022-06-16T08:42:07Z</time>
      </trkpt>
      <trkpt lat="44.0643" lon="3.23015">
        <ele>781.2</ele>
        <time>2022-06-16T08:42:12Z</time>
      </trkpt>
      <trkpt lat="44.0643" lon="3.23022">
        <ele>781.6</ele>
        <time>2022-06-16T08:42:15Z</time>
      </trkpt>
      <trkpt lat="44.0643" lon="3.23032">
        <ele>781.8</ele>
        <time>2022-06-16T08:42:18Z</time>
      </trkpt>
      <trkpt lat="44.06427" lon="3.2305">
        <ele>782</ele>
        <time>2022-06-16T08:42:24Z</time>
      </trkpt>
      <trkpt lat="44.0642" lon="3.23066">
        <ele>782.2</ele>
        <time>2022-06-16T08:42:30Z</time>
      </trkpt>
      <trkpt lat="44.06414" lon="3.23089">
        <ele>782.6</ele>
        <time>2022-06-16T08:42:37Z</time>
      </trkpt>
      <trkpt lat="44.06413" lon="3.23093">
        <ele>782.6</ele>
        <time>2022-06-16T08:42:38Z</time>
      </trkpt>
      <trkpt lat="44.06411" lon="3.23114">
        <ele>783</ele>
        <time>2022-06-16T08:42:45Z</time>
      </trkpt>
      <trkpt lat="44.06415" lon="3.23123">
        <ele>783.4</ele>
        <time>2022-06-16T08:42:50Z</time>
      </trkpt>
      <trkpt lat="44.06418" lon="3.23128">
        <ele>783.8</ele>
        <time>2022-06-16T08:42:53Z</time>
      </trkpt>
      <trkpt lat="44.06418" lon="3.2313">
        <ele>784</ele>
        <time>2022-06-16T08:42:54Z</time>
      </trkpt>
      <trkpt lat="44.06418" lon="3.23134">
        <ele>784</ele>
        <time>2022-06-16T08:42:56Z</time>
      </trkpt>
      <trkpt lat="44.06414" lon="3.23143">
        <ele>784.4</ele>
        <time>2022-06-16T08:43:01Z</time>
      </trkpt>
      <trkpt lat="44.06413" lon="3.23146">
        <ele>784.6</ele>
        <time>2022-06-16T08:43:02Z</time>
      </trkpt>
      <trkpt lat="44.06409" lon="3.23154">
        <ele>785.6</ele>
        <time>2022-06-16T08:43:06Z</time>
      </trkpt>
      <trkpt lat="44.06406" lon="3.23163">
        <ele>786</ele>
        <time>2022-06-16T08:43:10Z</time>
      </trkpt>
      <trkpt lat="44.06405" lon="3.23165">
        <ele>786</ele>
        <time>2022-06-16T08:43:11Z</time>
      </trkpt>
      <trkpt lat="44.06404" lon="3.2317">
        <ele>786.4</ele>
        <time>2022-06-16T08:43:13Z</time>
      </trkpt>
      <trkpt lat="44.06403" lon="3.23172">
        <ele>786.6</ele>
        <time>2022-06-16T08:43:14Z</time>
      </trkpt>
      <trkpt lat="44.06403" lon="3.23174">
        <ele>786.8</ele>
        <time>2022-06-16T08:43:15Z</time>
      </trkpt>
      <trkpt lat="44.06402" lon="3.23177">
        <ele>786.8</ele>
        <time>2022-06-16T08:43:16Z</time>
      </trkpt>
      <trkpt lat="44.06402" lon="3.2318">
        <ele>787.2</ele>
        <time>2022-06-16T08:43:18Z</time>
      </trkpt>
      <trkpt lat="44.06402" lon="3.23187">
        <ele>787.8</ele>
        <time>2022-06-16T08:43:21Z</time>
      </trkpt>
      <trkpt lat="44.06397" lon="3.23203">
        <ele>788.2</ele>
        <time>2022-06-16T08:43:28Z</time>
      </trkpt>
      <trkpt lat="44.06393" lon="3.23212">
        <ele>788.8</ele>
        <time>2022-06-16T08:43:33Z</time>
      </trkpt>
      <trkpt lat="44.06393" lon="3.23223">
        <ele>789</ele>
        <time>2022-06-16T08:43:37Z</time>
      </trkpt>
      <trkpt lat="44.06392" lon="3.23225">
        <ele>789.2</ele>
        <time>2022-06-16T08:43:38Z</time>
      </trkpt>
      <trkpt lat="44.06389" lon="3.23235">
        <ele>789.8</ele>
        <time>2022-06-16T08:43:42Z</time>
      </trkpt>
      <trkpt lat="44.06381" lon="3.23254">
        <ele>790.8</ele>
        <time>2022-06-16T08:43:50Z</time>
      </trkpt>
      <trkpt lat="44.0638" lon="3.23256">
        <ele>791</ele>
        <time>2022-06-16T08:43:51Z</time>
      </trkpt>
      <trkpt lat="44.0637" lon="3.2327">
        <ele>791.2</ele>
        <time>2022-06-16T08:43:57Z</time>
      </trkpt>
      <trkpt lat="44.06362" lon="3.23289">
        <ele>791.6</ele>
        <time>2022-06-16T08:44:03Z</time>
      </trkpt>
      <trkpt lat="44.06352" lon="3.23315">
        <ele>791.8</ele>
        <time>2022-06-16T08:44:12Z</time>
      </trkpt>
      <trkpt lat="44.0635" lon="3.23319">
        <ele>792</ele>
        <time>2022-06-16T08:44:14Z</time>
      </trkpt>
      <trkpt lat="44.06342" lon="3.2333">
        <ele>792.6</ele>
        <time>2022-06-16T08:44:19Z</time>
      </trkpt>
      <trkpt lat="44.06339" lon="3.23334">
        <ele>792.8</ele>
        <time>2022-06-16T08:44:21Z</time>
      </trkpt>
      <trkpt lat="44.06336" lon="3.23338">
        <ele>793</ele>
        <time>2022-06-16T08:44:23Z</time>
      </trkpt>
      <trkpt lat="44.06333" lon="3.23342">
        <ele>793.2</ele>
        <time>2022-06-16T08:44:26Z</time>
      </trkpt>
      <trkpt lat="44.06333" lon="3.23343">
        <ele>793.4</ele>
        <time>2022-06-16T08:44:27Z</time>
      </trkpt>
      <trkpt lat="44.06333" lon="3.23343">
        <ele>793.6</ele>
        <time>2022-06-16T08:44:34Z</time>
      </trkpt>
      <trkpt lat="44.06333" lon="3.23343">
        <ele>793.6</ele>
        <time>2022-06-16T08:44:46Z</time>
      </trkpt>
      <trkpt lat="44.06332" lon="3.23345">
        <ele>793.6</ele>
        <time>2022-06-16T08:44:53Z</time>
      </trkpt>
      <trkpt lat="44.06331" lon="3.23347">
        <ele>793.6</ele>
        <time>2022-06-16T08:45:08Z</time>
      </trkpt>
      <trkpt lat="44.06329" lon="3.23356">
        <ele>793.6</ele>
        <time>2022-06-16T08:45:14Z</time>
      </trkpt>
      <trkpt lat="44.06328" lon="3.23361">
        <ele>793.6</ele>
        <time>2022-06-16T08:45:17Z</time>
      </trkpt>
      <trkpt lat="44.06327" lon="3.23372">
        <ele>793.8</ele>
        <time>2022-06-16T08:45:21Z</time>
      </trkpt>
      <trkpt lat="44.06323" lon="3.23397">
        <ele>793.6</ele>
        <time>2022-06-16T08:45:27Z</time>
      </trkpt>
      <trkpt lat="44.06316" lon="3.23426">
        <ele>793.2</ele>
        <time>2022-06-16T08:45:33Z</time>
      </trkpt>
      <trkpt lat="44.06316" lon="3.2343">
        <ele>793.2</ele>
        <time>2022-06-16T08:45:34Z</time>
      </trkpt>
      <trkpt lat="44.06316" lon="3.23436">
        <ele>793</ele>
        <time>2022-06-16T08:45:36Z</time>
      </trkpt>
      <trkpt lat="44.06311" lon="3.23443">
        <ele>792.6</ele>
        <time>2022-06-16T08:45:40Z</time>
      </trkpt>
      <trkpt lat="44.06311" lon="3.23443">
        <ele>792.4</ele>
        <time>2022-06-16T08:45:41Z</time>
      </trkpt>
      <trkpt lat="44.06311" lon="3.23443">
        <ele>792.2</ele>
        <time>2022-06-16T08:45:50Z</time>
      </trkpt>
      <trkpt lat="44.06311" lon="3.23449">
        <ele>792</ele>
        <time>2022-06-16T08:45:57Z</time>
      </trkpt>
      <trkpt lat="44.0631" lon="3.2345">
        <ele>792</ele>
        <time>2022-06-16T08:46:00Z</time>
      </trkpt>
      <trkpt lat="44.0631" lon="3.2345">
        <ele>791.8</ele>
        <time>2022-06-16T08:46:02Z</time>
      </trkpt>
      <trkpt lat="44.06309" lon="3.23452">
        <ele>791.2</ele>
        <time>2022-06-16T08:46:27Z</time>
      </trkpt>
      <trkpt lat="44.06309" lon="3.23456">
        <ele>791</ele>
        <time>2022-06-16T08:46:29Z</time>
      </trkpt>
      <trkpt lat="44.06307" lon="3.23463">
        <ele>791</ele>
        <time>2022-06-16T08:46:35Z</time>
      </trkpt>
      <trkpt lat="44.06305" lon="3.23471">
        <ele>791</ele>
        <time>2022-06-16T08:46:38Z</time>
      </trkpt>
      <trkpt lat="44.06304" lon="3.23476">
        <ele>790.8</ele>
        <time>2022-06-16T08:46:40Z</time>
      </trkpt>
      <trkpt lat="44.06296" lon="3.23497">
        <ele>790.4</ele>
        <time>2022-06-16T08:46:47Z</time>
      </trkpt>
      <trkpt lat="44.06285" lon="3.23518">
        <ele>790.4</ele>
        <time>2022-06-16T08:46:52Z</time>
      </trkpt>
      <trkpt lat="44.06277" lon="3.23531">
        <ele>789.8</ele>
        <time>2022-06-16T08:46:55Z</time>
      </trkpt>
      <trkpt lat="44.0627" lon="3.23539">
        <ele>789.2</ele>
        <time>2022-06-16T08:46:57Z</time>
      </trkpt>
      <trkpt lat="44.06267" lon="3.23544">
        <ele>789</ele>
        <time>2022-06-16T08:46:58Z</time>
      </trkpt>
      <trkpt lat="44.06262" lon="3.23553">
        <ele>788.6</ele>
        <time>2022-06-16T08:47:00Z</time>
      </trkpt>
      <trkpt lat="44.06259" lon="3.2356">
        <ele>788.6</ele>
        <time>2022-06-16T08:47:02Z</time>
      </trkpt>
      <trkpt lat="44.06252" lon="3.23576">
        <ele>788.6</ele>
        <time>2022-06-16T08:47:09Z</time>
      </trkpt>
      <trkpt lat="44.06247" lon="3.2359">
        <ele>789.4</ele>
        <time>2022-06-16T08:47:17Z</time>
      </trkpt>
      <trkpt lat="44.06246" lon="3.23591">
        <ele>789.6</ele>
        <time>2022-06-16T08:47:18Z</time>
      </trkpt>
      <trkpt lat="44.06245" lon="3.23593">
        <ele>790</ele>
        <time>2022-06-16T08:47:19Z</time>
      </trkpt>
      <trkpt lat="44.06243" lon="3.23598">
        <ele>790.4</ele>
        <time>2022-06-16T08:47:22Z</time>
      </trkpt>
      <trkpt lat="44.06242" lon="3.23602">
        <ele>790.6</ele>
        <time>2022-06-16T08:47:24Z</time>
      </trkpt>
      <trkpt lat="44.06236" lon="3.23609">
        <ele>791.4</ele>
        <time>2022-06-16T08:47:30Z</time>
      </trkpt>
      <trkpt lat="44.06235" lon="3.23611">
        <ele>791.4</ele>
        <time>2022-06-16T08:47:31Z</time>
      </trkpt>
      <trkpt lat="44.06233" lon="3.23616">
        <ele>791.8</ele>
        <time>2022-06-16T08:47:34Z</time>
      </trkpt>
      <trkpt lat="44.06227" lon="3.23625">
        <ele>792.2</ele>
        <time>2022-06-16T08:47:40Z</time>
      </trkpt>
      <trkpt lat="44.06223" lon="3.23632">
        <ele>792.8</ele>
        <time>2022-06-16T08:47:45Z</time>
      </trkpt>
      <trkpt lat="44.06222" lon="3.23633">
        <ele>792.8</ele>
        <time>2022-06-16T08:47:46Z</time>
      </trkpt>
      <trkpt lat="44.0622" lon="3.23635">
        <ele>793</ele>
        <time>2022-06-16T08:47:48Z</time>
      </trkpt>
      <trkpt lat="44.06224" lon="3.23636">
        <ele>793.4</ele>
        <time>2022-06-16T08:47:52Z</time>
      </trkpt>
      <trkpt lat="44.06225" lon="3.23637">
        <ele>793.4</ele>
        <time>2022-06-16T08:47:53Z</time>
      </trkpt>
      <trkpt lat="44.06234" lon="3.2365">
        <ele>793.6</ele>
        <time>2022-06-16T08:47:58Z</time>
      </trkpt>
      <trkpt lat="44.06239" lon="3.23657">
        <ele>793.2</ele>
        <time>2022-06-16T08:48:01Z</time>
      </trkpt>
      <trkpt lat="44.06248" lon="3.23668">
        <ele>792.6</ele>
        <time>2022-06-16T08:48:06Z</time>
      </trkpt>
      <trkpt lat="44.06248" lon="3.23671">
        <ele>792.6</ele>
        <time>2022-06-16T08:48:07Z</time>
      </trkpt>
      <trkpt lat="44.06248" lon="3.23689">
        <ele>792</ele>
        <time>2022-06-16T08:48:11Z</time>
      </trkpt>
      <trkpt lat="44.06249" lon="3.23699">
        <ele>791.6</ele>
        <time>2022-06-16T08:48:13Z</time>
      </trkpt>
      <trkpt lat="44.06253" lon="3.23722">
        <ele>790.8</ele>
        <time>2022-06-16T08:48:17Z</time>
      </trkpt>
      <trkpt lat="44.06254" lon="3.23728">
        <ele>790.4</ele>
        <time>2022-06-16T08:48:18Z</time>
      </trkpt>
      <trkpt lat="44.0626" lon="3.23758">
        <ele>789.6</ele>
        <time>2022-06-16T08:48:24Z</time>
      </trkpt>
      <trkpt lat="44.06267" lon="3.23776">
        <ele>789.6</ele>
        <time>2022-06-16T08:48:29Z</time>
      </trkpt>
      <trkpt lat="44.06273" lon="3.23784">
        <ele>789.4</ele>
        <time>2022-06-16T08:48:32Z</time>
      </trkpt>
      <trkpt lat="44.06275" lon="3.23785">
        <ele>789.4</ele>
        <time>2022-06-16T08:48:33Z</time>
      </trkpt>
      <trkpt lat="44.06285" lon="3.23793">
        <ele>788.8</ele>
        <time>2022-06-16T08:48:39Z</time>
      </trkpt>
      <trkpt lat="44.06292" lon="3.23801">
        <ele>789.4</ele>
        <time>2022-06-16T08:48:45Z</time>
      </trkpt>
      <trkpt lat="44.06305" lon="3.23819">
        <ele>790.4</ele>
        <time>2022-06-16T08:48:55Z</time>
      </trkpt>
      <trkpt lat="44.06306" lon="3.23822">
        <ele>790.6</ele>
        <time>2022-06-16T08:48:56Z</time>
      </trkpt>
      <trkpt lat="44.06312" lon="3.23843">
        <ele>791.4</ele>
        <time>2022-06-16T08:49:04Z</time>
      </trkpt>
      <trkpt lat="44.06313" lon="3.23845">
        <ele>791.6</ele>
        <time>2022-06-16T08:49:05Z</time>
      </trkpt>
      <trkpt lat="44.06317" lon="3.2386">
        <ele>791.8</ele>
        <time>2022-06-16T08:49:10Z</time>
      </trkpt>
      <trkpt lat="44.06317" lon="3.23862">
        <ele>791.8</ele>
        <time>2022-06-16T08:49:11Z</time>
      </trkpt>
      <trkpt lat="44.06322" lon="3.23878">
        <ele>792</ele>
        <time>2022-06-16T08:49:17Z</time>
      </trkpt>
      <trkpt lat="44.06329" lon="3.23897">
        <ele>792.2</ele>
        <time>2022-06-16T08:49:23Z</time>
      </trkpt>
      <trkpt lat="44.06339" lon="3.23906">
        <ele>792.4</ele>
        <time>2022-06-16T08:49:29Z</time>
      </trkpt>
      <trkpt lat="44.06354" lon="3.23911">
        <ele>792.6</ele>
        <time>2022-06-16T08:49:35Z</time>
      </trkpt>
      <trkpt lat="44.06359" lon="3.23913">
        <ele>792.6</ele>
        <time>2022-06-16T08:49:37Z</time>
      </trkpt>
      <trkpt lat="44.06376" lon="3.23918">
        <ele>792.6</ele>
        <time>2022-06-16T08:49:44Z</time>
      </trkpt>
      <trkpt lat="44.06393" lon="3.23938">
        <ele>792.2</ele>
        <time>2022-06-16T08:49:51Z</time>
      </trkpt>
      <trkpt lat="44.06404" lon="3.23947">
        <ele>791.4</ele>
        <time>2022-06-16T08:49:55Z</time>
      </trkpt>
      <trkpt lat="44.06418" lon="3.23955">
        <ele>790.4</ele>
        <time>2022-06-16T08:50:01Z</time>
      </trkpt>
      <trkpt lat="44.06418" lon="3.23956">
        <ele>790.2</ele>
        <time>2022-06-16T08:50:02Z</time>
      </trkpt>
      <trkpt lat="44.06418" lon="3.23956">
        <ele>790</ele>
        <time>2022-06-16T08:50:05Z</time>
      </trkpt>
      <trkpt lat="44.06419" lon="3.23956">
        <ele>790</ele>
        <time>2022-06-16T08:50:12Z</time>
      </trkpt>
      <trkpt lat="44.06417" lon="3.23956">
        <ele>790</ele>
        <time>2022-06-16T08:50:17Z</time>
      </trkpt>
      <trkpt lat="44.06417" lon="3.23956">
        <ele>790</ele>
        <time>2022-06-16T08:50:18Z</time>
      </trkpt>
      <trkpt lat="44.0642" lon="3.23957">
        <ele>790</ele>
        <time>2022-06-16T08:50:23Z</time>
      </trkpt>
      <trkpt lat="44.0642" lon="3.23957">
        <ele>789.6</ele>
        <time>2022-06-16T08:50:32Z</time>
      </trkpt>
      <trkpt lat="44.0642" lon="3.23957">
        <ele>789.4</ele>
        <time>2022-06-16T08:51:05Z</time>
      </trkpt>
      <trkpt lat="44.0642" lon="3.23957">
        <ele>789.2</ele>
        <time>2022-06-16T08:51:08Z</time>
      </trkpt>
      <trkpt lat="44.0642" lon="3.23961">
        <ele>789.8</ele>
        <time>2022-06-16T08:51:42Z</time>
      </trkpt>
      <trkpt lat="44.06417" lon="3.23962">
        <ele>790</ele>
        <time>2022-06-16T08:51:47Z</time>
      </trkpt>
      <trkpt lat="44.06417" lon="3.23962">
        <ele>790</ele>
        <time>2022-06-16T08:51:52Z</time>
      </trkpt>
      <trkpt lat="44.06417" lon="3.23962">
        <ele>790</ele>
        <time>2022-06-16T08:51:54Z</time>
      </trkpt>
      <trkpt lat="44.06415" lon="3.23961">
        <ele>789.8</ele>
        <time>2022-06-16T08:51:56Z</time>
      </trkpt>
      <trkpt lat="44.06407" lon="3.23963">
        <ele>790</ele>
        <time>2022-06-16T08:52:02Z</time>
      </trkpt>
      <trkpt lat="44.06401" lon="3.23964">
        <ele>790.4</ele>
        <time>2022-06-16T08:52:05Z</time>
      </trkpt>
      <trkpt lat="44.06393" lon="3.23965">
        <ele>790.8</ele>
        <time>2022-06-16T08:52:09Z</time>
      </trkpt>
      <trkpt lat="44.06382" lon="3.23967">
        <ele>791.4</ele>
        <time>2022-06-16T08:52:15Z</time>
      </trkpt>
      <trkpt lat="44.06378" lon="3.23968">
        <ele>791.6</ele>
        <time>2022-06-16T08:52:17Z</time>
      </trkpt>
      <trkpt lat="44.06367" lon="3.23969">
        <ele>792.2</ele>
        <time>2022-06-16T08:52:23Z</time>
      </trkpt>
      <trkpt lat="44.06362" lon="3.23969">
        <ele>792.4</ele>
        <time>2022-06-16T08:52:26Z</time>
      </trkpt>
      <trkpt lat="44.06351" lon="3.23971">
        <ele>793.2</ele>
        <time>2022-06-16T08:52:32Z</time>
      </trkpt>
      <trkpt lat="44.06345" lon="3.23973">
        <ele>793.4</ele>
        <time>2022-06-16T08:52:35Z</time>
      </trkpt>
      <trkpt lat="44.06341" lon="3.23973">
        <ele>793.6</ele>
        <time>2022-06-16T08:52:37Z</time>
      </trkpt>
      <trkpt lat="44.06338" lon="3.23974">
        <ele>793.8</ele>
        <time>2022-06-16T08:52:39Z</time>
      </trkpt>
      <trkpt lat="44.06322" lon="3.23977">
        <ele>794.2</ele>
        <time>2022-06-16T08:52:47Z</time>
      </trkpt>
      <trkpt lat="44.06317" lon="3.23978">
        <ele>794.6</ele>
        <time>2022-06-16T08:52:49Z</time>
      </trkpt>
      <trkpt lat="44.06302" lon="3.2398">
        <ele>795.2</ele>
        <time>2022-06-16T08:52:56Z</time>
      </trkpt>
      <trkpt lat="44.06295" lon="3.2398">
        <ele>795.8</ele>
        <time>2022-06-16T08:53:00Z</time>
      </trkpt>
      <trkpt lat="44.06291" lon="3.23981">
        <ele>796</ele>
        <time>2022-06-16T08:53:02Z</time>
      </trkpt>
      <trkpt lat="44.0628" lon="3.23982">
        <ele>796.8</ele>
        <time>2022-06-16T08:53:07Z</time>
      </trkpt>
      <trkpt lat="44.06269" lon="3.23984">
        <ele>797.2</ele>
        <time>2022-06-16T08:53:12Z</time>
      </trkpt>
      <trkpt lat="44.06259" lon="3.23985">
        <ele>797.8</ele>
        <time>2022-06-16T08:53:17Z</time>
      </trkpt>
      <trkpt lat="44.06253" lon="3.23986">
        <ele>798.2</ele>
        <time>2022-06-16T08:53:20Z</time>
      </trkpt>
      <trkpt lat="44.06248" lon="3.23987">
        <ele>798.8</ele>
        <time>2022-06-16T08:53:23Z</time>
      </trkpt>
      <trkpt lat="44.0624" lon="3.23987">
        <ele>799.8</ele>
        <time>2022-06-16T08:53:27Z</time>
      </trkpt>
      <trkpt lat="44.06227" lon="3.2399">
        <ele>800.6</ele>
        <time>2022-06-16T08:53:34Z</time>
      </trkpt>
      <trkpt lat="44.06217" lon="3.23991">
        <ele>801</ele>
        <time>2022-06-16T08:53:39Z</time>
      </trkpt>
      <trkpt lat="44.0621" lon="3.23991">
        <ele>801.4</ele>
        <time>2022-06-16T08:53:43Z</time>
      </trkpt>
      <trkpt lat="44.06198" lon="3.23992">
        <ele>802</ele>
        <time>2022-06-16T08:53:49Z</time>
      </trkpt>
      <trkpt lat="44.06189" lon="3.23992">
        <ele>802.8</ele>
        <time>2022-06-16T08:53:54Z</time>
      </trkpt>
      <trkpt lat="44.06183" lon="3.23993">
        <ele>803.2</ele>
        <time>2022-06-16T08:53:57Z</time>
      </trkpt>
      <trkpt lat="44.06172" lon="3.23995">
        <ele>804</ele>
        <time>2022-06-16T08:54:03Z</time>
      </trkpt>
      <trkpt lat="44.06168" lon="3.23995">
        <ele>804.2</ele>
        <time>2022-06-16T08:54:05Z</time>
      </trkpt>
      <trkpt lat="44.06155" lon="3.23997">
        <ele>805</ele>
        <time>2022-06-16T08:54:12Z</time>
      </trkpt>
      <trkpt lat="44.06154" lon="3.23997">
        <ele>805.2</ele>
        <time>2022-06-16T08:54:13Z</time>
      </trkpt>
      <trkpt lat="44.06143" lon="3.23997">
        <ele>806.4</ele>
        <time>2022-06-16T08:54:20Z</time>
      </trkpt>
      <trkpt lat="44.06141" lon="3.23998">
        <ele>806.6</ele>
        <time>2022-06-16T08:54:21Z</time>
      </trkpt>
      <trkpt lat="44.06133" lon="3.23995">
        <ele>807.4</ele>
        <time>2022-06-16T08:54:26Z</time>
      </trkpt>
      <trkpt lat="44.0613" lon="3.23994">
        <ele>807.6</ele>
        <time>2022-06-16T08:54:28Z</time>
      </trkpt>
      <trkpt lat="44.06124" lon="3.23992">
        <ele>808.2</ele>
        <time>2022-06-16T08:54:32Z</time>
      </trkpt>
      <trkpt lat="44.06121" lon="3.23991">
        <ele>808.4</ele>
        <time>2022-06-16T08:54:34Z</time>
      </trkpt>
      <trkpt lat="44.06112" lon="3.23989">
        <ele>809.4</ele>
        <time>2022-06-16T08:54:39Z</time>
      </trkpt>
      <trkpt lat="44.06104" lon="3.23984">
        <ele>810.2</ele>
        <time>2022-06-16T08:54:45Z</time>
      </trkpt>
      <trkpt lat="44.06103" lon="3.23982">
        <ele>810.4</ele>
        <time>2022-06-16T08:54:47Z</time>
      </trkpt>
      <trkpt lat="44.06097" lon="3.23979">
        <ele>810.8</ele>
        <time>2022-06-16T08:54:51Z</time>
      </trkpt>
      <trkpt lat="44.06092" lon="3.23975">
        <ele>811</ele>
        <time>2022-06-16T08:54:54Z</time>
      </trkpt>
      <trkpt lat="44.06085" lon="3.23973">
        <ele>811.4</ele>
        <time>2022-06-16T08:54:58Z</time>
      </trkpt>
      <trkpt lat="44.06084" lon="3.23971">
        <ele>811.6</ele>
        <time>2022-06-16T08:54:59Z</time>
      </trkpt>
      <trkpt lat="44.06073" lon="3.23965">
        <ele>812.6</ele>
        <time>2022-06-16T08:55:06Z</time>
      </trkpt>
      <trkpt lat="44.06064" lon="3.23959">
        <ele>813.4</ele>
        <time>2022-06-16T08:55:12Z</time>
      </trkpt>
      <trkpt lat="44.06061" lon="3.23958">
        <ele>813.6</ele>
        <time>2022-06-16T08:55:14Z</time>
      </trkpt>
      <trkpt lat="44.06054" lon="3.23954">
        <ele>814</ele>
        <time>2022-06-16T08:55:19Z</time>
      </trkpt>
      <trkpt lat="44.06047" lon="3.2395">
        <ele>814.6</ele>
        <time>2022-06-16T08:55:24Z</time>
      </trkpt>
      <trkpt lat="44.06043" lon="3.23948">
        <ele>815.2</ele>
        <time>2022-06-16T08:55:27Z</time>
      </trkpt>
      <trkpt lat="44.06036" lon="3.23945">
        <ele>815.8</ele>
        <time>2022-06-16T08:55:32Z</time>
      </trkpt>
      <trkpt lat="44.06031" lon="3.23943">
        <ele>816</ele>
        <time>2022-06-16T08:55:35Z</time>
      </trkpt>
      <trkpt lat="44.06022" lon="3.23938">
        <ele>816.8</ele>
        <time>2022-06-16T08:55:41Z</time>
      </trkpt>
      <trkpt lat="44.06019" lon="3.23937">
        <ele>817</ele>
        <time>2022-06-16T08:55:43Z</time>
      </trkpt>
      <trkpt lat="44.06008" lon="3.23932">
        <ele>817.8</ele>
        <time>2022-06-16T08:55:50Z</time>
      </trkpt>
      <trkpt lat="44.06006" lon="3.2393">
        <ele>818</ele>
        <time>2022-06-16T08:55:51Z</time>
      </trkpt>
      <trkpt lat="44.05993" lon="3.23927">
        <ele>819</ele>
        <time>2022-06-16T08:55:59Z</time>
      </trkpt>
      <trkpt lat="44.05991" lon="3.23927">
        <ele>819</ele>
        <time>2022-06-16T08:56:00Z</time>
      </trkpt>
      <trkpt lat="44.05976" lon="3.23923">
        <ele>819.8</ele>
        <time>2022-06-16T08:56:09Z</time>
      </trkpt>
      <trkpt lat="44.05966" lon="3.23924">
        <ele>820.4</ele>
        <time>2022-06-16T08:56:16Z</time>
      </trkpt>
      <trkpt lat="44.05958" lon="3.23925">
        <ele>820.8</ele>
        <time>2022-06-16T08:56:21Z</time>
      </trkpt>
      <trkpt lat="44.05955" lon="3.23926">
        <ele>821</ele>
        <time>2022-06-16T08:56:23Z</time>
      </trkpt>
      <trkpt lat="44.05944" lon="3.23927">
        <ele>821.6</ele>
        <time>2022-06-16T08:56:30Z</time>
      </trkpt>
      <trkpt lat="44.05939" lon="3.23927">
        <ele>822</ele>
        <time>2022-06-16T08:56:33Z</time>
      </trkpt>
      <trkpt lat="44.05932" lon="3.23927">
        <ele>822.4</ele>
        <time>2022-06-16T08:56:37Z</time>
      </trkpt>
      <trkpt lat="44.0592" lon="3.23929">
        <ele>822.8</ele>
        <time>2022-06-16T08:56:44Z</time>
      </trkpt>
      <trkpt lat="44.05916" lon="3.2393">
        <ele>823.2</ele>
        <time>2022-06-16T08:56:46Z</time>
      </trkpt>
      <trkpt lat="44.05904" lon="3.2393">
        <ele>823.8</ele>
        <time>2022-06-16T08:56:52Z</time>
      </trkpt>
      <trkpt lat="44.05901" lon="3.23931">
        <ele>824.2</ele>
        <time>2022-06-16T08:56:54Z</time>
      </trkpt>
      <trkpt lat="44.0589" lon="3.23934">
        <ele>825</ele>
        <time>2022-06-16T08:57:00Z</time>
      </trkpt>
      <trkpt lat="44.05889" lon="3.23935">
        <ele>825.2</ele>
        <time>2022-06-16T08:57:01Z</time>
      </trkpt>
      <trkpt lat="44.05879" lon="3.23936">
        <ele>826.4</ele>
        <time>2022-06-16T08:57:07Z</time>
      </trkpt>
      <trkpt lat="44.05874" lon="3.23937">
        <ele>826.4</ele>
        <time>2022-06-16T08:57:10Z</time>
      </trkpt>
      <trkpt lat="44.05853" lon="3.23942">
        <ele>827</ele>
        <time>2022-06-16T08:57:21Z</time>
      </trkpt>
      <trkpt lat="44.05839" lon="3.23944">
        <ele>827.4</ele>
        <time>2022-06-16T08:57:28Z</time>
      </trkpt>
      <trkpt lat="44.05837" lon="3.23945">
        <ele>827.4</ele>
        <time>2022-06-16T08:57:29Z</time>
      </trkpt>
      <trkpt lat="44.05818" lon="3.23952">
        <ele>828.4</ele>
        <time>2022-06-16T08:57:38Z</time>
      </trkpt>
      <trkpt lat="44.05816" lon="3.23953">
        <ele>828.4</ele>
        <time>2022-06-16T08:57:39Z</time>
      </trkpt>
      <trkpt lat="44.05802" lon="3.23965">
        <ele>829.2</ele>
        <time>2022-06-16T08:57:46Z</time>
      </trkpt>
      <trkpt lat="44.05789" lon="3.23983">
        <ele>830.2</ele>
        <time>2022-06-16T08:57:53Z</time>
      </trkpt>
      <trkpt lat="44.05784" lon="3.23991">
        <ele>830.4</ele>
        <time>2022-06-16T08:57:56Z</time>
      </trkpt>
      <trkpt lat="44.05772" lon="3.24007">
        <ele>830.8</ele>
        <time>2022-06-16T08:58:02Z</time>
      </trkpt>
      <trkpt lat="44.05759" lon="3.24025">
        <ele>831.2</ele>
        <time>2022-06-16T08:58:09Z</time>
      </trkpt>
      <trkpt lat="44.05757" lon="3.24028">
        <ele>831.4</ele>
        <time>2022-06-16T08:58:10Z</time>
      </trkpt>
      <trkpt lat="44.05744" lon="3.24048">
        <ele>831.6</ele>
        <time>2022-06-16T08:58:17Z</time>
      </trkpt>
      <trkpt lat="44.05728" lon="3.24067">
        <ele>832.2</ele>
        <time>2022-06-16T08:58:25Z</time>
      </trkpt>
      <trkpt lat="44.05722" lon="3.24075">
        <ele>832.4</ele>
        <time>2022-06-16T08:58:28Z</time>
      </trkpt>
      <trkpt lat="44.0571" lon="3.24088">
        <ele>832.6</ele>
        <time>2022-06-16T08:58:33Z</time>
      </trkpt>
      <trkpt lat="44.05691" lon="3.24106">
        <ele>833</ele>
        <time>2022-06-16T08:58:42Z</time>
      </trkpt>
      <trkpt lat="44.05685" lon="3.24111">
        <ele>833</ele>
        <time>2022-06-16T08:58:45Z</time>
      </trkpt>
      <trkpt lat="44.05683" lon="3.24116">
        <ele>833</ele>
        <time>2022-06-16T08:58:47Z</time>
      </trkpt>
      <trkpt lat="44.05685" lon="3.24128">
        <ele>833</ele>
        <time>2022-06-16T08:58:51Z</time>
      </trkpt>
      <trkpt lat="44.05686" lon="3.24129">
        <ele>833.2</ele>
        <time>2022-06-16T08:58:52Z</time>
      </trkpt>
      <trkpt lat="44.05691" lon="3.24139">
        <ele>833.6</ele>
        <time>2022-06-16T08:58:56Z</time>
      </trkpt>
      <trkpt lat="44.05696" lon="3.24148">
        <ele>834.2</ele>
        <time>2022-06-16T08:59:00Z</time>
      </trkpt>
      <trkpt lat="44.05703" lon="3.24161">
        <ele>834.4</ele>
        <time>2022-06-16T08:59:06Z</time>
      </trkpt>
      <trkpt lat="44.05706" lon="3.2417">
        <ele>835.6</ele>
        <time>2022-06-16T08:59:10Z</time>
      </trkpt>
      <trkpt lat="44.05707" lon="3.24183">
        <ele>836.6</ele>
        <time>2022-06-16T08:59:16Z</time>
      </trkpt>
      <trkpt lat="44.05708" lon="3.24186">
        <ele>836.8</ele>
        <time>2022-06-16T08:59:17Z</time>
      </trkpt>
      <trkpt lat="44.05709" lon="3.24188">
        <ele>837</ele>
        <time>2022-06-16T08:59:18Z</time>
      </trkpt>
      <trkpt lat="44.05709" lon="3.2419">
        <ele>837.2</ele>
        <time>2022-06-16T08:59:19Z</time>
      </trkpt>
      <trkpt lat="44.0571" lon="3.242">
        <ele>838</ele>
        <time>2022-06-16T08:59:23Z</time>
      </trkpt>
      <trkpt lat="44.0571" lon="3.24203">
        <ele>838.4</ele>
        <time>2022-06-16T08:59:24Z</time>
      </trkpt>
      <trkpt lat="44.05702" lon="3.2422">
        <ele>839</ele>
        <time>2022-06-16T08:59:31Z</time>
      </trkpt>
      <trkpt lat="44.05701" lon="3.24222">
        <ele>839</ele>
        <time>2022-06-16T08:59:32Z</time>
      </trkpt>
      <trkpt lat="44.05691" lon="3.24235">
        <ele>839</ele>
        <time>2022-06-16T08:59:37Z</time>
      </trkpt>
      <trkpt lat="44.05679" lon="3.24246">
        <ele>838</ele>
        <time>2022-06-16T08:59:43Z</time>
      </trkpt>
      <trkpt lat="44.05679" lon="3.24246">
        <ele>837.6</ele>
        <time>2022-06-16T08:59:44Z</time>
      </trkpt>
      <trkpt lat="44.05679" lon="3.24246">
        <ele>837</ele>
        <time>2022-06-16T08:59:49Z</time>
      </trkpt>
      <trkpt lat="44.05679" lon="3.24246">
        <ele>836.6</ele>
        <time>2022-06-16T08:59:55Z</time>
      </trkpt>
      <trkpt lat="44.05679" lon="3.24246">
        <ele>836.4</ele>
        <time>2022-06-16T09:01:04Z</time>
      </trkpt>
      <trkpt lat="44.05679" lon="3.24246">
        <ele>836.4</ele>
        <time>2022-06-16T09:01:29Z</time>
      </trkpt>
      <trkpt lat="44.05679" lon="3.24246">
        <ele>836.2</ele>
        <time>2022-06-16T09:01:33Z</time>
      </trkpt>
      <trkpt lat="44.05679" lon="3.24246">
        <ele>836.6</ele>
        <time>2022-06-16T09:01:44Z</time>
      </trkpt>
      <trkpt lat="44.05677" lon="3.24249">
        <ele>836.6</ele>
        <time>2022-06-16T09:01:47Z</time>
      </trkpt>
      <trkpt lat="44.05674" lon="3.24252">
        <ele>836.6</ele>
        <time>2022-06-16T09:01:49Z</time>
      </trkpt>
      <trkpt lat="44.05661" lon="3.24264">
        <ele>836.4</ele>
        <time>2022-06-16T09:01:54Z</time>
      </trkpt>
      <trkpt lat="44.05644" lon="3.24274">
        <ele>836</ele>
        <time>2022-06-16T09:01:59Z</time>
      </trkpt>
      <trkpt lat="44.05626" lon="3.24283">
        <ele>835.4</ele>
        <time>2022-06-16T09:02:05Z</time>
      </trkpt>
      <trkpt lat="44.05601" lon="3.24289">
        <ele>835.2</ele>
        <time>2022-06-16T09:02:12Z</time>
      </trkpt>
      <trkpt lat="44.0558" lon="3.24298">
        <ele>835.2</ele>
        <time>2022-06-16T09:02:18Z</time>
      </trkpt>
      <trkpt lat="44.05557" lon="3.2432">
        <ele>835.4</ele>
        <time>2022-06-16T09:02:26Z</time>
      </trkpt>
      <trkpt lat="44.0555" lon="3.24327">
        <ele>835.6</ele>
        <time>2022-06-16T09:02:29Z</time>
      </trkpt>
      <trkpt lat="44.05549" lon="3.24326">
        <ele>835.6</ele>
        <time>2022-06-16T09:02:30Z</time>
      </trkpt>
      <trkpt lat="44.05551" lon="3.2432">
        <ele>835.8</ele>
        <time>2022-06-16T09:02:33Z</time>
      </trkpt>
      <trkpt lat="44.05553" lon="3.24322">
        <ele>835.8</ele>
        <time>2022-06-16T09:02:35Z</time>
      </trkpt>
      <trkpt lat="44.05554" lon="3.24324">
        <ele>835.8</ele>
        <time>2022-06-16T09:02:36Z</time>
      </trkpt>
      <trkpt lat="44.05549" lon="3.24339">
        <ele>835.8</ele>
        <time>2022-06-16T09:02:41Z</time>
      </trkpt>
      <trkpt lat="44.05533" lon="3.24363">
        <ele>836</ele>
        <time>2022-06-16T09:02:49Z</time>
      </trkpt>
      <trkpt lat="44.05515" lon="3.24385">
        <ele>836.2</ele>
        <time>2022-06-16T09:02:56Z</time>
      </trkpt>
      <trkpt lat="44.05504" lon="3.24405">
        <ele>836.6</ele>
        <time>2022-06-16T09:03:01Z</time>
      </trkpt>
      <trkpt lat="44.05497" lon="3.24415">
        <ele>836.2</ele>
        <time>2022-06-16T09:03:04Z</time>
      </trkpt>
      <trkpt lat="44.05474" lon="3.24451">
        <ele>835.8</ele>
        <time>2022-06-16T09:03:14Z</time>
      </trkpt>
      <trkpt lat="44.05459" lon="3.24465">
        <ele>835.8</ele>
        <time>2022-06-16T09:03:19Z</time>
      </trkpt>
      <trkpt lat="44.05435" lon="3.24478">
        <ele>835.6</ele>
        <time>2022-06-16T09:03:26Z</time>
      </trkpt>
      <trkpt lat="44.05402" lon="3.24481">
        <ele>835.8</ele>
        <time>2022-06-16T09:03:35Z</time>
      </trkpt>
      <trkpt lat="44.05375" lon="3.2448">
        <ele>836</ele>
        <time>2022-06-16T09:03:43Z</time>
      </trkpt>
      <trkpt lat="44.05341" lon="3.2448">
        <ele>835.6</ele>
        <time>2022-06-16T09:03:54Z</time>
      </trkpt>
      <trkpt lat="44.05333" lon="3.24479">
        <ele>835.2</ele>
        <time>2022-06-16T09:03:57Z</time>
      </trkpt>
      <trkpt lat="44.0532" lon="3.2448">
        <ele>834.8</ele>
        <time>2022-06-16T09:04:01Z</time>
      </trkpt>
      <trkpt lat="44.05307" lon="3.24482">
        <ele>834</ele>
        <time>2022-06-16T09:04:07Z</time>
      </trkpt>
      <trkpt lat="44.05307" lon="3.24482">
        <ele>833.8</ele>
        <time>2022-06-16T09:05:17Z</time>
      </trkpt>
      <trkpt lat="44.05305" lon="3.24481">
        <ele>834</ele>
        <time>2022-06-16T09:05:48Z</time>
      </trkpt>
      <trkpt lat="44.053" lon="3.2448">
        <ele>834</ele>
        <time>2022-06-16T09:05:50Z</time>
      </trkpt>
      <trkpt lat="44.05281" lon="3.24479">
        <ele>833.6</ele>
        <time>2022-06-16T09:05:55Z</time>
      </trkpt>
      <trkpt lat="44.05259" lon="3.24479">
        <ele>833</ele>
        <time>2022-06-16T09:05:59Z</time>
      </trkpt>
      <trkpt lat="44.05253" lon="3.2448">
        <ele>832.6</ele>
        <time>2022-06-16T09:06:00Z</time>
      </trkpt>
      <trkpt lat="44.05227" lon="3.24493">
        <ele>831.6</ele>
        <time>2022-06-16T09:06:04Z</time>
      </trkpt>
      <trkpt lat="44.0522" lon="3.24499">
        <ele>831.6</ele>
        <time>2022-06-16T09:06:05Z</time>
      </trkpt>
      <trkpt lat="44.05195" lon="3.24523">
        <ele>830.2</ele>
        <time>2022-06-16T09:06:09Z</time>
      </trkpt>
      <trkpt lat="44.0519" lon="3.2453">
        <ele>830</ele>
        <time>2022-06-16T09:06:10Z</time>
      </trkpt>
      <trkpt lat="44.05167" lon="3.24555">
        <ele>829.2</ele>
        <time>2022-06-16T09:06:14Z</time>
      </trkpt>
      <trkpt lat="44.05146" lon="3.24578">
        <ele>828.6</ele>
        <time>2022-06-16T09:06:18Z</time>
      </trkpt>
      <trkpt lat="44.05117" lon="3.24611">
        <ele>828.4</ele>
        <time>2022-06-16T09:06:24Z</time>
      </trkpt>
      <trkpt lat="44.05112" lon="3.24615">
        <ele>828.2</ele>
        <time>2022-06-16T09:06:25Z</time>
      </trkpt>
      <trkpt lat="44.05108" lon="3.24619">
        <ele>828.2</ele>
        <time>2022-06-16T09:06:26Z</time>
      </trkpt>
      <trkpt lat="44.05087" lon="3.24633">
        <ele>828</ele>
        <time>2022-06-16T09:06:30Z</time>
      </trkpt>
      <trkpt lat="44.05064" lon="3.24639">
        <ele>827</ele>
        <time>2022-06-16T09:06:34Z</time>
      </trkpt>
      <trkpt lat="44.05044" lon="3.24642">
        <ele>826.6</ele>
        <time>2022-06-16T09:06:37Z</time>
      </trkpt>
      <trkpt lat="44.05008" lon="3.24645">
        <ele>826</ele>
        <time>2022-06-16T09:06:42Z</time>
      </trkpt>
      <trkpt lat="44.04999" lon="3.24647">
        <ele>825.8</ele>
        <time>2022-06-16T09:06:43Z</time>
      </trkpt>
      <trkpt lat="44.04972" lon="3.2465">
        <ele>824.4</ele>
        <time>2022-06-16T09:06:46Z</time>
      </trkpt>
      <trkpt lat="44.04962" lon="3.2465">
        <ele>824.2</ele>
        <time>2022-06-16T09:06:47Z</time>
      </trkpt>
      <trkpt lat="44.0493" lon="3.24653">
        <ele>822.8</ele>
        <time>2022-06-16T09:06:50Z</time>
      </trkpt>
      <trkpt lat="44.04906" lon="3.24655">
        <ele>822</ele>
        <time>2022-06-16T09:06:52Z</time>
      </trkpt>
      <trkpt lat="44.04894" lon="3.24656">
        <ele>821.2</ele>
        <time>2022-06-16T09:06:53Z</time>
      </trkpt>
      <trkpt lat="44.0487" lon="3.24658">
        <ele>819.6</ele>
        <time>2022-06-16T09:06:55Z</time>
      </trkpt>
      <trkpt lat="44.04845" lon="3.2466">
        <ele>818</ele>
        <time>2022-06-16T09:06:57Z</time>
      </trkpt>
      <trkpt lat="44.04832" lon="3.24661">
        <ele>817.4</ele>
        <time>2022-06-16T09:06:58Z</time>
      </trkpt>
      <trkpt lat="44.04819" lon="3.24662">
        <ele>816.6</ele>
        <time>2022-06-16T09:06:59Z</time>
      </trkpt>
      <trkpt lat="44.04795" lon="3.24664">
        <ele>815.4</ele>
        <time>2022-06-16T09:07:01Z</time>
      </trkpt>
      <trkpt lat="44.04758" lon="3.24669">
        <ele>813.8</ele>
        <time>2022-06-16T09:07:04Z</time>
      </trkpt>
      <trkpt lat="44.04735" lon="3.24674">
        <ele>812.4</ele>
        <time>2022-06-16T09:07:06Z</time>
      </trkpt>
      <trkpt lat="44.04723" lon="3.24678">
        <ele>811.2</ele>
        <time>2022-06-16T09:07:07Z</time>
      </trkpt>
      <trkpt lat="44.04712" lon="3.24683">
        <ele>810.6</ele>
        <time>2022-06-16T09:07:08Z</time>
      </trkpt>
      <trkpt lat="44.04701" lon="3.2469">
        <ele>809.4</ele>
        <time>2022-06-16T09:07:09Z</time>
      </trkpt>
      <trkpt lat="44.0469" lon="3.24698">
        <ele>809</ele>
        <time>2022-06-16T09:07:10Z</time>
      </trkpt>
      <trkpt lat="44.0468" lon="3.24706">
        <ele>808.2</ele>
        <time>2022-06-16T09:07:11Z</time>
      </trkpt>
      <trkpt lat="44.04652" lon="3.2473">
        <ele>807</ele>
        <time>2022-06-16T09:07:14Z</time>
      </trkpt>
      <trkpt lat="44.04643" lon="3.24738">
        <ele>806.6</ele>
        <time>2022-06-16T09:07:15Z</time>
      </trkpt>
      <trkpt lat="44.04618" lon="3.2476">
        <ele>805.8</ele>
        <time>2022-06-16T09:07:18Z</time>
      </trkpt>
      <trkpt lat="44.04594" lon="3.2478">
        <ele>805</ele>
        <time>2022-06-16T09:07:21Z</time>
      </trkpt>
      <trkpt lat="44.04587" lon="3.24787">
        <ele>804.8</ele>
        <time>2022-06-16T09:07:22Z</time>
      </trkpt>
      <trkpt lat="44.04551" lon="3.24815">
        <ele>804</ele>
        <time>2022-06-16T09:07:27Z</time>
      </trkpt>
      <trkpt lat="44.04522" lon="3.24832">
        <ele>803.6</ele>
        <time>2022-06-16T09:07:31Z</time>
      </trkpt>
      <trkpt lat="44.04498" lon="3.24845">
        <ele>803.2</ele>
        <time>2022-06-16T09:07:34Z</time>
      </trkpt>
      <trkpt lat="44.04464" lon="3.24863">
        <ele>802.4</ele>
        <time>2022-06-16T09:07:38Z</time>
      </trkpt>
      <trkpt lat="44.04455" lon="3.24867">
        <ele>802.2</ele>
        <time>2022-06-16T09:07:39Z</time>
      </trkpt>
      <trkpt lat="44.04426" lon="3.2488">
        <ele>801.2</ele>
        <time>2022-06-16T09:07:42Z</time>
      </trkpt>
      <trkpt lat="44.04396" lon="3.24894">
        <ele>800.2</ele>
        <time>2022-06-16T09:07:45Z</time>
      </trkpt>
      <trkpt lat="44.04376" lon="3.24904">
        <ele>799.2</ele>
        <time>2022-06-16T09:07:47Z</time>
      </trkpt>
      <trkpt lat="44.04366" lon="3.24909">
        <ele>798.8</ele>
        <time>2022-06-16T09:07:48Z</time>
      </trkpt>
      <trkpt lat="44.04336" lon="3.24924">
        <ele>797.8</ele>
        <time>2022-06-16T09:07:51Z</time>
      </trkpt>
      <trkpt lat="44.04307" lon="3.24938">
        <ele>796.6</ele>
        <time>2022-06-16T09:07:54Z</time>
      </trkpt>
      <trkpt lat="44.04288" lon="3.24947">
        <ele>795.6</ele>
        <time>2022-06-16T09:07:56Z</time>
      </trkpt>
      <trkpt lat="44.04278" lon="3.24952">
        <ele>795.2</ele>
        <time>2022-06-16T09:07:57Z</time>
      </trkpt>
      <trkpt lat="44.04242" lon="3.2497">
        <ele>794.2</ele>
        <time>2022-06-16T09:08:01Z</time>
      </trkpt>
      <trkpt lat="44.04217" lon="3.24984">
        <ele>793.4</ele>
        <time>2022-06-16T09:08:04Z</time>
      </trkpt>
      <trkpt lat="44.04202" lon="3.24998">
        <ele>792.8</ele>
        <time>2022-06-16T09:08:06Z</time>
      </trkpt>
      <trkpt lat="44.04181" lon="3.25019">
        <ele>792</ele>
        <time>2022-06-16T09:08:09Z</time>
      </trkpt>
      <trkpt lat="44.04169" lon="3.25033">
        <ele>791.8</ele>
        <time>2022-06-16T09:08:11Z</time>
      </trkpt>
      <trkpt lat="44.04157" lon="3.25048">
        <ele>791.4</ele>
        <time>2022-06-16T09:08:13Z</time>
      </trkpt>
      <trkpt lat="44.04148" lon="3.25064">
        <ele>791.2</ele>
        <time>2022-06-16T09:08:15Z</time>
      </trkpt>
      <trkpt lat="44.04126" lon="3.25107">
        <ele>791</ele>
        <time>2022-06-16T09:08:21Z</time>
      </trkpt>
      <trkpt lat="44.04105" lon="3.25148">
        <ele>791</ele>
        <time>2022-06-16T09:08:27Z</time>
      </trkpt>
      <trkpt lat="44.04087" lon="3.25181">
        <ele>790.6</ele>
        <time>2022-06-16T09:08:32Z</time>
      </trkpt>
      <trkpt lat="44.04076" lon="3.25203">
        <ele>790.4</ele>
        <time>2022-06-16T09:08:35Z</time>
      </trkpt>
      <trkpt lat="44.04053" lon="3.25248">
        <ele>789.6</ele>
        <time>2022-06-16T09:08:41Z</time>
      </trkpt>
      <trkpt lat="44.04045" lon="3.25263">
        <ele>789</ele>
        <time>2022-06-16T09:08:43Z</time>
      </trkpt>
      <trkpt lat="44.04041" lon="3.25271">
        <ele>788.8</ele>
        <time>2022-06-16T09:08:44Z</time>
      </trkpt>
      <trkpt lat="44.04036" lon="3.25279">
        <ele>788.6</ele>
        <time>2022-06-16T09:08:45Z</time>
      </trkpt>
      <trkpt lat="44.04019" lon="3.2531">
        <ele>787</ele>
        <time>2022-06-16T09:08:49Z</time>
      </trkpt>
      <trkpt lat="44.03998" lon="3.25351">
        <ele>786.2</ele>
        <time>2022-06-16T09:08:54Z</time>
      </trkpt>
      <trkpt lat="44.03993" lon="3.2536">
        <ele>786</ele>
        <time>2022-06-16T09:08:55Z</time>
      </trkpt>
      <trkpt lat="44.03973" lon="3.25396">
        <ele>785</ele>
        <time>2022-06-16T09:08:59Z</time>
      </trkpt>
      <trkpt lat="44.03968" lon="3.25405">
        <ele>784.8</ele>
        <time>2022-06-16T09:09:00Z</time>
      </trkpt>
      <trkpt lat="44.03952" lon="3.25433">
        <ele>784</ele>
        <time>2022-06-16T09:09:03Z</time>
      </trkpt>
      <trkpt lat="44.03934" lon="3.25467">
        <ele>782.8</ele>
        <time>2022-06-16T09:09:07Z</time>
      </trkpt>
      <trkpt lat="44.03926" lon="3.25483">
        <ele>782.4</ele>
        <time>2022-06-16T09:09:09Z</time>
      </trkpt>
      <trkpt lat="44.03903" lon="3.25524">
        <ele>782.2</ele>
        <time>2022-06-16T09:09:15Z</time>
      </trkpt>
      <trkpt lat="44.03879" lon="3.25567">
        <ele>782.4</ele>
        <time>2022-06-16T09:09:22Z</time>
      </trkpt>
      <trkpt lat="44.03855" lon="3.25613">
        <ele>782.6</ele>
        <time>2022-06-16T09:09:30Z</time>
      </trkpt>
      <trkpt lat="44.03831" lon="3.25653">
        <ele>783</ele>
        <time>2022-06-16T09:09:38Z</time>
      </trkpt>
      <trkpt lat="44.03809" lon="3.25694">
        <ele>783.2</ele>
        <time>2022-06-16T09:09:47Z</time>
      </trkpt>
      <trkpt lat="44.03807" lon="3.25699">
        <ele>783.2</ele>
        <time>2022-06-16T09:09:48Z</time>
      </trkpt>
      <trkpt lat="44.0379" lon="3.25731">
        <ele>783.2</ele>
        <time>2022-06-16T09:09:54Z</time>
      </trkpt>
      <trkpt lat="44.03774" lon="3.25758">
        <ele>783.2</ele>
        <time>2022-06-16T09:09:59Z</time>
      </trkpt>
      <trkpt lat="44.03767" lon="3.25768">
        <ele>783.2</ele>
        <time>2022-06-16T09:10:01Z</time>
      </trkpt>
      <trkpt lat="44.03762" lon="3.25772">
        <ele>783.2</ele>
        <time>2022-06-16T09:10:02Z</time>
      </trkpt>
      <trkpt lat="44.03737" lon="3.25789">
        <ele>782.6</ele>
        <time>2022-06-16T09:10:07Z</time>
      </trkpt>
      <trkpt lat="44.03723" lon="3.25796">
        <ele>782.2</ele>
        <time>2022-06-16T09:10:10Z</time>
      </trkpt>
      <trkpt lat="44.03717" lon="3.25797">
        <ele>782.2</ele>
        <time>2022-06-16T09:10:12Z</time>
      </trkpt>
      <trkpt lat="44.03715" lon="3.25798">
        <ele>781.8</ele>
        <time>2022-06-16T09:10:13Z</time>
      </trkpt>
      <trkpt lat="44.03715" lon="3.25801">
        <ele>781.8</ele>
        <time>2022-06-16T09:10:14Z</time>
      </trkpt>
      <trkpt lat="44.03715" lon="3.25802">
        <ele>781.4</ele>
        <time>2022-06-16T09:10:15Z</time>
      </trkpt>
      <trkpt lat="44.03721" lon="3.25798">
        <ele>781</ele>
        <time>2022-06-16T09:10:19Z</time>
      </trkpt>
      <trkpt lat="44.03737" lon="3.25792">
        <ele>781.2</ele>
        <time>2022-06-16T09:10:26Z</time>
      </trkpt>
      <trkpt lat="44.03756" lon="3.25779">
        <ele>782</ele>
        <time>2022-06-16T09:10:34Z</time>
      </trkpt>
      <trkpt lat="44.03776" lon="3.2576">
        <ele>782.4</ele>
        <time>2022-06-16T09:10:43Z</time>
      </trkpt>
      <trkpt lat="44.03787" lon="3.2574">
        <ele>783</ele>
        <time>2022-06-16T09:10:49Z</time>
      </trkpt>
      <trkpt lat="44.03792" lon="3.25729">
        <ele>783</ele>
        <time>2022-06-16T09:10:52Z</time>
      </trkpt>
      <trkpt lat="44.03798" lon="3.25714">
        <ele>783.2</ele>
        <time>2022-06-16T09:10:58Z</time>
      </trkpt>
      <trkpt lat="44.03798" lon="3.25714">
        <ele>783.4</ele>
        <time>2022-06-16T09:11:05Z</time>
      </trkpt>
      <trkpt lat="44.03798" lon="3.2571">
        <ele>783.6</ele>
        <time>2022-06-16T09:11:52Z</time>
      </trkpt>
      <trkpt lat="44.03796" lon="3.25707">
        <ele>783.6</ele>
        <time>2022-06-16T09:11:54Z</time>
      </trkpt>
      <trkpt lat="44.0379" lon="3.25699">
        <ele>784</ele>
        <time>2022-06-16T09:12:03Z</time>
      </trkpt>
      <trkpt lat="44.03789" lon="3.25698">
        <ele>784</ele>
        <time>2022-06-16T09:12:04Z</time>
      </trkpt>
      <trkpt lat="44.03786" lon="3.25696">
        <ele>784.2</ele>
        <time>2022-06-16T09:12:07Z</time>
      </trkpt>
      <trkpt lat="44.03781" lon="3.2569">
        <ele>784.6</ele>
        <time>2022-06-16T09:12:13Z</time>
      </trkpt>
      <trkpt lat="44.03776" lon="3.25687">
        <ele>785</ele>
        <time>2022-06-16T09:12:21Z</time>
      </trkpt>
      <trkpt lat="44.03776" lon="3.25687">
        <ele>785.2</ele>
        <time>2022-06-16T09:12:23Z</time>
      </trkpt>
      <trkpt lat="44.03776" lon="3.25687">
        <ele>785.6</ele>
        <time>2022-06-16T09:12:28Z</time>
      </trkpt>
      <trkpt lat="44.03776" lon="3.25687">
        <ele>786.2</ele>
        <time>2022-06-16T09:12:48Z</time>
      </trkpt>
      <trkpt lat="44.03774" lon="3.25684">
        <ele>786.2</ele>
        <time>2022-06-16T09:13:00Z</time>
      </trkpt>
      <trkpt lat="44.03772" lon="3.25682">
        <ele>786.2</ele>
        <time>2022-06-16T09:13:03Z</time>
      </trkpt>
      <trkpt lat="44.03772" lon="3.25681">
        <ele>786.2</ele>
        <time>2022-06-16T09:13:04Z</time>
      </trkpt>
      <trkpt lat="44.03772" lon="3.25679">
        <ele>786.2</ele>
        <time>2022-06-16T09:13:05Z</time>
      </trkpt>
      <trkpt lat="44.03769" lon="3.25671">
        <ele>786.6</ele>
        <time>2022-06-16T09:13:09Z</time>
      </trkpt>
      <trkpt lat="44.03767" lon="3.25664">
        <ele>786.8</ele>
        <time>2022-06-16T09:13:12Z</time>
      </trkpt>
      <trkpt lat="44.03767" lon="3.25654">
        <ele>787.2</ele>
        <time>2022-06-16T09:13:16Z</time>
      </trkpt>
      <trkpt lat="44.03766" lon="3.25651">
        <ele>787.2</ele>
        <time>2022-06-16T09:13:17Z</time>
      </trkpt>
      <trkpt lat="44.03764" lon="3.25648">
        <ele>787.4</ele>
        <time>2022-06-16T09:13:19Z</time>
      </trkpt>
      <trkpt lat="44.03762" lon="3.25648">
        <ele>787.4</ele>
        <time>2022-06-16T09:13:20Z</time>
      </trkpt>
      <trkpt lat="44.03761" lon="3.25648">
        <ele>787.6</ele>
        <time>2022-06-16T09:13:21Z</time>
      </trkpt>
      <trkpt lat="44.03749" lon="3.25639">
        <ele>787.8</ele>
        <time>2022-06-16T09:13:26Z</time>
      </trkpt>
      <trkpt lat="44.03739" lon="3.2563">
        <ele>788.2</ele>
        <time>2022-06-16T09:13:31Z</time>
      </trkpt>
      <trkpt lat="44.03735" lon="3.25627">
        <ele>788.4</ele>
        <time>2022-06-16T09:13:33Z</time>
      </trkpt>
      <trkpt lat="44.03731" lon="3.25624">
        <ele>788.6</ele>
        <time>2022-06-16T09:13:35Z</time>
      </trkpt>
      <trkpt lat="44.03718" lon="3.25612">
        <ele>789.2</ele>
        <time>2022-06-16T09:13:42Z</time>
      </trkpt>
      <trkpt lat="44.03706" lon="3.25599">
        <ele>789.4</ele>
        <time>2022-06-16T09:13:49Z</time>
      </trkpt>
      <trkpt lat="44.03698" lon="3.25585">
        <ele>790.2</ele>
        <time>2022-06-16T09:13:55Z</time>
      </trkpt>
      <trkpt lat="44.03694" lon="3.2558">
        <ele>790.2</ele>
        <time>2022-06-16T09:13:57Z</time>
      </trkpt>
      <trkpt lat="44.03692" lon="3.25578">
        <ele>790.4</ele>
        <time>2022-06-16T09:13:58Z</time>
      </trkpt>
      <trkpt lat="44.03673" lon="3.25563">
        <ele>791.4</ele>
        <time>2022-06-16T09:14:07Z</time>
      </trkpt>
      <trkpt lat="44.03672" lon="3.25562">
        <ele>791.4</ele>
        <time>2022-06-16T09:14:08Z</time>
      </trkpt>
      <trkpt lat="44.03656" lon="3.25546">
        <ele>792.4</ele>
        <time>2022-06-16T09:14:16Z</time>
      </trkpt>
      <trkpt lat="44.0365" lon="3.25541">
        <ele>792.6</ele>
        <time>2022-06-16T09:14:19Z</time>
      </trkpt>
      <trkpt lat="44.03634" lon="3.25524">
        <ele>793.2</ele>
        <time>2022-06-16T09:14:27Z</time>
      </trkpt>
      <trkpt lat="44.03631" lon="3.25518">
        <ele>793.6</ele>
        <time>2022-06-16T09:14:30Z</time>
      </trkpt>
      <trkpt lat="44.03629" lon="3.25511">
        <ele>794.2</ele>
        <time>2022-06-16T09:14:33Z</time>
      </trkpt>
      <trkpt lat="44.03627" lon="3.25504">
        <ele>794.8</ele>
        <time>2022-06-16T09:14:36Z</time>
      </trkpt>
      <trkpt lat="44.03625" lon="3.25497">
        <ele>795.2</ele>
        <time>2022-06-16T09:14:40Z</time>
      </trkpt>
      <trkpt lat="44.03621" lon="3.2549">
        <ele>795.8</ele>
        <time>2022-06-16T09:14:44Z</time>
      </trkpt>
      <trkpt lat="44.0362" lon="3.25486">
        <ele>796</ele>
        <time>2022-06-16T09:14:46Z</time>
      </trkpt>
      <trkpt lat="44.03617" lon="3.25475">
        <ele>796.6</ele>
        <time>2022-06-16T09:14:52Z</time>
      </trkpt>
      <trkpt lat="44.03617" lon="3.25473">
        <ele>796.8</ele>
        <time>2022-06-16T09:14:53Z</time>
      </trkpt>
      <trkpt lat="44.0361" lon="3.25465">
        <ele>797.4</ele>
        <time>2022-06-16T09:14:58Z</time>
      </trkpt>
      <trkpt lat="44.03604" lon="3.25459">
        <ele>797.8</ele>
        <time>2022-06-16T09:15:02Z</time>
      </trkpt>
      <trkpt lat="44.03599" lon="3.25453">
        <ele>798.4</ele>
        <time>2022-06-16T09:15:06Z</time>
      </trkpt>
      <trkpt lat="44.03599" lon="3.25452">
        <ele>798.6</ele>
        <time>2022-06-16T09:15:07Z</time>
      </trkpt>
      <trkpt lat="44.03598" lon="3.2545">
        <ele>798.8</ele>
        <time>2022-06-16T09:15:08Z</time>
      </trkpt>
      <trkpt lat="44.03592" lon="3.25444">
        <ele>799.4</ele>
        <time>2022-06-16T09:15:12Z</time>
      </trkpt>
      <trkpt lat="44.03586" lon="3.25438">
        <ele>800</ele>
        <time>2022-06-16T09:15:15Z</time>
      </trkpt>
      <trkpt lat="44.03579" lon="3.25431">
        <ele>800.6</ele>
        <time>2022-06-16T09:15:20Z</time>
      </trkpt>
      <trkpt lat="44.03576" lon="3.25428">
        <ele>801</ele>
        <time>2022-06-16T09:15:22Z</time>
      </trkpt>
      <trkpt lat="44.0357" lon="3.25421">
        <ele>801.2</ele>
        <time>2022-06-16T09:15:26Z</time>
      </trkpt>
      <trkpt lat="44.03562" lon="3.25409">
        <ele>802</ele>
        <time>2022-06-16T09:15:34Z</time>
      </trkpt>
      <trkpt lat="44.03561" lon="3.25408">
        <ele>802</ele>
        <time>2022-06-16T09:15:35Z</time>
      </trkpt>
      <trkpt lat="44.03556" lon="3.25399">
        <ele>802.8</ele>
        <time>2022-06-16T09:15:42Z</time>
      </trkpt>
      <trkpt lat="44.03556" lon="3.25399">
        <ele>803.2</ele>
        <time>2022-06-16T09:15:43Z</time>
      </trkpt>
      <trkpt lat="44.0355" lon="3.25394">
        <ele>803.6</ele>
        <time>2022-06-16T09:16:01Z</time>
      </trkpt>
      <trkpt lat="44.03549" lon="3.25392">
        <ele>803.8</ele>
        <time>2022-06-16T09:16:02Z</time>
      </trkpt>
      <trkpt lat="44.03543" lon="3.25382">
        <ele>804.2</ele>
        <time>2022-06-16T09:16:08Z</time>
      </trkpt>
      <trkpt lat="44.03533" lon="3.25369">
        <ele>805.4</ele>
        <time>2022-06-16T09:16:15Z</time>
      </trkpt>
      <trkpt lat="44.03529" lon="3.25366">
        <ele>805.8</ele>
        <time>2022-06-16T09:16:17Z</time>
      </trkpt>
      <trkpt lat="44.03523" lon="3.25359">
        <ele>806.4</ele>
        <time>2022-06-16T09:16:22Z</time>
      </trkpt>
      <trkpt lat="44.03522" lon="3.25357">
        <ele>806.4</ele>
        <time>2022-06-16T09:16:23Z</time>
      </trkpt>
      <trkpt lat="44.03512" lon="3.25346">
        <ele>807.4</ele>
        <time>2022-06-16T09:16:30Z</time>
      </trkpt>
      <trkpt lat="44.03509" lon="3.25343">
        <ele>807.6</ele>
        <time>2022-06-16T09:16:32Z</time>
      </trkpt>
      <trkpt lat="44.03503" lon="3.25336">
        <ele>808</ele>
        <time>2022-06-16T09:16:37Z</time>
      </trkpt>
      <trkpt lat="44.03493" lon="3.25326">
        <ele>808.8</ele>
        <time>2022-06-16T09:16:44Z</time>
      </trkpt>
      <trkpt lat="44.03492" lon="3.25325">
        <ele>809</ele>
        <time>2022-06-16T09:16:45Z</time>
      </trkpt>
      <trkpt lat="44.03484" lon="3.25317">
        <ele>809.6</ele>
        <time>2022-06-16T09:16:51Z</time>
      </trkpt>
      <trkpt lat="44.0348" lon="3.25315">
        <ele>810</ele>
        <time>2022-06-16T09:16:53Z</time>
      </trkpt>
      <trkpt lat="44.03469" lon="3.25304">
        <ele>810.8</ele>
        <time>2022-06-16T09:17:00Z</time>
      </trkpt>
      <trkpt lat="44.03464" lon="3.253">
        <ele>811</ele>
        <time>2022-06-16T09:17:03Z</time>
      </trkpt>
      <trkpt lat="44.03456" lon="3.25293">
        <ele>811.2</ele>
        <time>2022-06-16T09:17:08Z</time>
      </trkpt>
      <trkpt lat="44.03448" lon="3.25283">
        <ele>812.2</ele>
        <time>2022-06-16T09:17:14Z</time>
      </trkpt>
      <trkpt lat="44.03442" lon="3.25276">
        <ele>812.4</ele>
        <time>2022-06-16T09:17:18Z</time>
      </trkpt>
      <trkpt lat="44.03432" lon="3.25266">
        <ele>813.2</ele>
        <time>2022-06-16T09:17:25Z</time>
      </trkpt>
      <trkpt lat="44.03431" lon="3.25265">
        <ele>813.2</ele>
        <time>2022-06-16T09:17:26Z</time>
      </trkpt>
      <trkpt lat="44.03429" lon="3.25262">
        <ele>813.4</ele>
        <time>2022-06-16T09:17:28Z</time>
      </trkpt>
      <trkpt lat="44.03425" lon="3.25256">
        <ele>813.6</ele>
        <time>2022-06-16T09:17:31Z</time>
      </trkpt>
      <trkpt lat="44.03424" lon="3.25254">
        <ele>813.8</ele>
        <time>2022-06-16T09:17:32Z</time>
      </trkpt>
      <trkpt lat="44.03418" lon="3.25248">
        <ele>814.2</ele>
        <time>2022-06-16T09:17:37Z</time>
      </trkpt>
      <trkpt lat="44.03416" lon="3.25247">
        <ele>814.6</ele>
        <time>2022-06-16T09:17:38Z</time>
      </trkpt>
      <trkpt lat="44.03409" lon="3.2524">
        <ele>815.4</ele>
        <time>2022-06-16T09:17:43Z</time>
      </trkpt>
      <trkpt lat="44.03408" lon="3.25238">
        <ele>815.6</ele>
        <time>2022-06-16T09:17:45Z</time>
      </trkpt>
      <trkpt lat="44.03408" lon="3.25238">
        <ele>815.8</ele>
        <time>2022-06-16T09:17:51Z</time>
      </trkpt>
      <trkpt lat="44.03404" lon="3.25233">
        <ele>816</ele>
        <time>2022-06-16T09:17:59Z</time>
      </trkpt>
      <trkpt lat="44.03397" lon="3.25225">
        <ele>816.4</ele>
        <time>2022-06-16T09:18:05Z</time>
      </trkpt>
      <trkpt lat="44.03389" lon="3.25214">
        <ele>817.4</ele>
        <time>2022-06-16T09:18:13Z</time>
      </trkpt>
      <trkpt lat="44.03386" lon="3.25211">
        <ele>817.6</ele>
        <time>2022-06-16T09:18:15Z</time>
      </trkpt>
      <trkpt lat="44.0338" lon="3.25204">
        <ele>817.8</ele>
        <time>2022-06-16T09:18:19Z</time>
      </trkpt>
      <trkpt lat="44.0337" lon="3.25193">
        <ele>818.4</ele>
        <time>2022-06-16T09:18:25Z</time>
      </trkpt>
      <trkpt lat="44.03368" lon="3.25189">
        <ele>818.8</ele>
        <time>2022-06-16T09:18:27Z</time>
      </trkpt>
      <trkpt lat="44.0335" lon="3.25171">
        <ele>819.4</ele>
        <time>2022-06-16T09:18:35Z</time>
      </trkpt>
      <trkpt lat="44.03348" lon="3.25169">
        <ele>819.8</ele>
        <time>2022-06-16T09:18:36Z</time>
      </trkpt>
      <trkpt lat="44.0334" lon="3.2516">
        <ele>820.6</ele>
        <time>2022-06-16T09:18:40Z</time>
      </trkpt>
      <trkpt lat="44.03337" lon="3.25156">
        <ele>820.8</ele>
        <time>2022-06-16T09:18:42Z</time>
      </trkpt>
      <trkpt lat="44.03316" lon="3.25137">
        <ele>821.6</ele>
        <time>2022-06-16T09:18:52Z</time>
      </trkpt>
      <trkpt lat="44.03314" lon="3.25134">
        <ele>821.8</ele>
        <time>2022-06-16T09:18:53Z</time>
      </trkpt>
      <trkpt lat="44.03305" lon="3.25121">
        <ele>822.2</ele>
        <time>2022-06-16T09:18:58Z</time>
      </trkpt>
      <trkpt lat="44.03286" lon="3.25092">
        <ele>822.8</ele>
        <time>2022-06-16T09:19:07Z</time>
      </trkpt>
      <trkpt lat="44.03284" lon="3.25089">
        <ele>822.8</ele>
        <time>2022-06-16T09:19:08Z</time>
      </trkpt>
      <trkpt lat="44.03272" lon="3.25075">
        <ele>823</ele>
        <time>2022-06-16T09:19:13Z</time>
      </trkpt>
      <trkpt lat="44.03256" lon="3.2506">
        <ele>823.2</ele>
        <time>2022-06-16T09:19:20Z</time>
      </trkpt>
      <trkpt lat="44.03253" lon="3.25058">
        <ele>823.2</ele>
        <time>2022-06-16T09:19:21Z</time>
      </trkpt>
      <trkpt lat="44.03247" lon="3.25056">
        <ele>823.4</ele>
        <time>2022-06-16T09:19:24Z</time>
      </trkpt>
      <trkpt lat="44.03243" lon="3.25054">
        <ele>823.6</ele>
        <time>2022-06-16T09:19:26Z</time>
      </trkpt>
      <trkpt lat="44.03239" lon="3.2505">
        <ele>823.8</ele>
        <time>2022-06-16T09:19:28Z</time>
      </trkpt>
      <trkpt lat="44.03224" lon="3.2504">
        <ele>824.4</ele>
        <time>2022-06-16T09:19:34Z</time>
      </trkpt>
      <trkpt lat="44.03215" lon="3.25036">
        <ele>824.8</ele>
        <time>2022-06-16T09:19:38Z</time>
      </trkpt>
      <trkpt lat="44.03214" lon="3.25036">
        <ele>825</ele>
        <time>2022-06-16T09:19:39Z</time>
      </trkpt>
      <trkpt lat="44.03211" lon="3.25034">
        <ele>825.6</ele>
        <time>2022-06-16T09:19:41Z</time>
      </trkpt>
      <trkpt lat="44.03206" lon="3.25031">
        <ele>825.8</ele>
        <time>2022-06-16T09:19:44Z</time>
      </trkpt>
      <trkpt lat="44.03205" lon="3.25028">
        <ele>826</ele>
        <time>2022-06-16T09:19:46Z</time>
      </trkpt>
      <trkpt lat="44.03205" lon="3.25026">
        <ele>826.2</ele>
        <time>2022-06-16T09:19:47Z</time>
      </trkpt>
      <trkpt lat="44.03203" lon="3.25023">
        <ele>826.2</ele>
        <time>2022-06-16T09:19:49Z</time>
      </trkpt>
      <trkpt lat="44.032" lon="3.2502">
        <ele>826.6</ele>
        <time>2022-06-16T09:19:51Z</time>
      </trkpt>
      <trkpt lat="44.03194" lon="3.25008">
        <ele>827.2</ele>
        <time>2022-06-16T09:19:56Z</time>
      </trkpt>
      <trkpt lat="44.03191" lon="3.25001">
        <ele>827.6</ele>
        <time>2022-06-16T09:19:59Z</time>
      </trkpt>
      <trkpt lat="44.03184" lon="3.24986">
        <ele>828.2</ele>
        <time>2022-06-16T09:20:05Z</time>
      </trkpt>
      <trkpt lat="44.03183" lon="3.24984">
        <ele>828.4</ele>
        <time>2022-06-16T09:20:06Z</time>
      </trkpt>
      <trkpt lat="44.03167" lon="3.24963">
        <ele>829.2</ele>
        <time>2022-06-16T09:20:15Z</time>
      </trkpt>
      <trkpt lat="44.03163" lon="3.24958">
        <ele>829.6</ele>
        <time>2022-06-16T09:20:17Z</time>
      </trkpt>
      <trkpt lat="44.03153" lon="3.24942">
        <ele>830</ele>
        <time>2022-06-16T09:20:22Z</time>
      </trkpt>
      <trkpt lat="44.03146" lon="3.24933">
        <ele>830.2</ele>
        <time>2022-06-16T09:20:26Z</time>
      </trkpt>
      <trkpt lat="44.03133" lon="3.24918">
        <ele>830.4</ele>
        <time>2022-06-16T09:20:32Z</time>
      </trkpt>
      <trkpt lat="44.03126" lon="3.24902">
        <ele>830.6</ele>
        <time>2022-06-16T09:20:37Z</time>
      </trkpt>
      <trkpt lat="44.03125" lon="3.24898">
        <ele>830.6</ele>
        <time>2022-06-16T09:20:38Z</time>
      </trkpt>
      <trkpt lat="44.03117" lon="3.2488">
        <ele>831.2</ele>
        <time>2022-06-16T09:20:44Z</time>
      </trkpt>
      <trkpt lat="44.03103" lon="3.2486">
        <ele>831.2</ele>
        <time>2022-06-16T09:20:50Z</time>
      </trkpt>
      <trkpt lat="44.03087" lon="3.24836">
        <ele>830.8</ele>
        <time>2022-06-16T09:20:56Z</time>
      </trkpt>
      <trkpt lat="44.03067" lon="3.24799">
        <ele>830</ele>
        <time>2022-06-16T09:21:03Z</time>
      </trkpt>
      <trkpt lat="44.03063" lon="3.24791">
        <ele>828.8</ele>
        <time>2022-06-16T09:21:05Z</time>
      </trkpt>
      <trkpt lat="44.03062" lon="3.24788">
        <ele>827.6</ele>
        <time>2022-06-16T09:21:07Z</time>
      </trkpt>
      <trkpt lat="44.03062" lon="3.24788">
        <ele>826.6</ele>
        <time>2022-06-16T09:21:09Z</time>
      </trkpt>
      <trkpt lat="44.03062" lon="3.24788">
        <ele>825.8</ele>
        <time>2022-06-16T09:21:12Z</time>
      </trkpt>
      <trkpt lat="44.03062" lon="3.24788">
        <ele>825.6</ele>
        <time>2022-06-16T09:21:14Z</time>
      </trkpt>
      <trkpt lat="44.03064" lon="3.24791">
        <ele>825.2</ele>
        <time>2022-06-16T09:21:21Z</time>
      </trkpt>
      <trkpt lat="44.03066" lon="3.24794">
        <ele>825.4</ele>
        <time>2022-06-16T09:21:28Z</time>
      </trkpt>
      <trkpt lat="44.03067" lon="3.24793">
        <ele>826</ele>
        <time>2022-06-16T09:21:34Z</time>
      </trkpt>
      <trkpt lat="44.03067" lon="3.24793">
        <ele>826</ele>
        <time>2022-06-16T09:21:42Z</time>
      </trkpt>
      <trkpt lat="44.03067" lon="3.24793">
        <ele>826</ele>
        <time>2022-06-16T09:21:49Z</time>
      </trkpt>
      <trkpt lat="44.03067" lon="3.24793">
        <ele>825.6</ele>
        <time>2022-06-16T09:22:05Z</time>
      </trkpt>
      <trkpt lat="44.03067" lon="3.24793">
        <ele>825.8</ele>
        <time>2022-06-16T09:22:16Z</time>
      </trkpt>
      <trkpt lat="44.03067" lon="3.24792">
        <ele>825.4</ele>
        <time>2022-06-16T09:22:27Z</time>
      </trkpt>
      <trkpt lat="44.03067" lon="3.24792">
        <ele>825.4</ele>
        <time>2022-06-16T09:22:40Z</time>
      </trkpt>
      <trkpt lat="44.03065" lon="3.24789">
        <ele>825.2</ele>
        <time>2022-06-16T09:22:59Z</time>
      </trkpt>
      <trkpt lat="44.03061" lon="3.24779">
        <ele>824.8</ele>
        <time>2022-06-16T09:23:04Z</time>
      </trkpt>
      <trkpt lat="44.0306" lon="3.24774">
        <ele>824.8</ele>
        <time>2022-06-16T09:23:06Z</time>
      </trkpt>
      <trkpt lat="44.03059" lon="3.24769">
        <ele>824</ele>
        <time>2022-06-16T09:23:08Z</time>
      </trkpt>
      <trkpt lat="44.03058" lon="3.24764">
        <ele>823.4</ele>
        <time>2022-06-16T09:23:10Z</time>
      </trkpt>
      <trkpt lat="44.03057" lon="3.24761">
        <ele>823</ele>
        <time>2022-06-16T09:23:11Z</time>
      </trkpt>
      <trkpt lat="44.0305" lon="3.24741">
        <ele>822.2</ele>
        <time>2022-06-16T09:23:18Z</time>
      </trkpt>
      <trkpt lat="44.03049" lon="3.24738">
        <ele>822</ele>
        <time>2022-06-16T09:23:19Z</time>
      </trkpt>
      <trkpt lat="44.03045" lon="3.24725">
        <ele>820.8</ele>
        <time>2022-06-16T09:23:22Z</time>
      </trkpt>
      <trkpt lat="44.0304" lon="3.24712">
        <ele>819.8</ele>
        <time>2022-06-16T09:23:25Z</time>
      </trkpt>
      <trkpt lat="44.03039" lon="3.24708">
        <ele>819.8</ele>
        <time>2022-06-16T09:23:26Z</time>
      </trkpt>
      <trkpt lat="44.03031" lon="3.24693">
        <ele>818.8</ele>
        <time>2022-06-16T09:23:30Z</time>
      </trkpt>
      <trkpt lat="44.03031" lon="3.2469">
        <ele>818.8</ele>
        <time>2022-06-16T09:23:31Z</time>
      </trkpt>
      <trkpt lat="44.03023" lon="3.24674">
        <ele>818.6</ele>
        <time>2022-06-16T09:23:35Z</time>
      </trkpt>
      <trkpt lat="44.03022" lon="3.24671">
        <ele>818.4</ele>
        <time>2022-06-16T09:23:36Z</time>
      </trkpt>
      <trkpt lat="44.03013" lon="3.24659">
        <ele>817.6</ele>
        <time>2022-06-16T09:23:40Z</time>
      </trkpt>
      <trkpt lat="44.03012" lon="3.24656">
        <ele>817</ele>
        <time>2022-06-16T09:23:41Z</time>
      </trkpt>
      <trkpt lat="44.03" lon="3.2464">
        <ele>816.2</ele>
        <time>2022-06-16T09:23:46Z</time>
      </trkpt>
      <trkpt lat="44.02996" lon="3.24636">
        <ele>816</ele>
        <time>2022-06-16T09:23:47Z</time>
      </trkpt>
      <trkpt lat="44.02989" lon="3.24626">
        <ele>815.4</ele>
        <time>2022-06-16T09:23:50Z</time>
      </trkpt>
      <trkpt lat="44.02981" lon="3.24615">
        <ele>815</ele>
        <time>2022-06-16T09:23:53Z</time>
      </trkpt>
      <trkpt lat="44.02974" lon="3.24604">
        <ele>814.2</ele>
        <time>2022-06-16T09:23:56Z</time>
      </trkpt>
      <trkpt lat="44.02971" lon="3.246">
        <ele>813.8</ele>
        <time>2022-06-16T09:23:57Z</time>
      </trkpt>
      <trkpt lat="44.02965" lon="3.2459">
        <ele>813.6</ele>
        <time>2022-06-16T09:24:00Z</time>
      </trkpt>
      <trkpt lat="44.0295" lon="3.24574">
        <ele>813</ele>
        <time>2022-06-16T09:24:06Z</time>
      </trkpt>
      <trkpt lat="44.02945" lon="3.24568">
        <ele>812.8</ele>
        <time>2022-06-16T09:24:08Z</time>
      </trkpt>
      <trkpt lat="44.02926" lon="3.24549">
        <ele>812.4</ele>
        <time>2022-06-16T09:24:14Z</time>
      </trkpt>
      <trkpt lat="44.02901" lon="3.24523">
        <ele>812.2</ele>
        <time>2022-06-16T09:24:22Z</time>
      </trkpt>
      <trkpt lat="44.02881" lon="3.24508">
        <ele>811.8</ele>
        <time>2022-06-16T09:24:28Z</time>
      </trkpt>
      <trkpt lat="44.02877" lon="3.24508">
        <ele>811.6</ele>
        <time>2022-06-16T09:24:29Z</time>
      </trkpt>
      <trkpt lat="44.02854" lon="3.24504">
        <ele>811</ele>
        <time>2022-06-16T09:24:36Z</time>
      </trkpt>
      <trkpt lat="44.02842" lon="3.24507">
        <ele>811.2</ele>
        <time>2022-06-16T09:24:40Z</time>
      </trkpt>
      <trkpt lat="44.02828" lon="3.24512">
        <ele>811.4</ele>
        <time>2022-06-16T09:24:45Z</time>
      </trkpt>
      <trkpt lat="44.02805" lon="3.24512">
        <ele>811.8</ele>
        <time>2022-06-16T09:24:52Z</time>
      </trkpt>
      <trkpt lat="44.02788" lon="3.24509">
        <ele>812</ele>
        <time>2022-06-16T09:24:57Z</time>
      </trkpt>
      <trkpt lat="44.02766" lon="3.24508">
        <ele>811.6</ele>
        <time>2022-06-16T09:25:03Z</time>
      </trkpt>
      <trkpt lat="44.02755" lon="3.24502">
        <ele>811.2</ele>
        <time>2022-06-16T09:25:05Z</time>
      </trkpt>
      <trkpt lat="44.02749" lon="3.24497">
        <ele>811</ele>
        <time>2022-06-16T09:25:07Z</time>
      </trkpt>
      <trkpt lat="44.02741" lon="3.24487">
        <ele>810.6</ele>
        <time>2022-06-16T09:25:10Z</time>
      </trkpt>
      <trkpt lat="44.02733" lon="3.24482">
        <ele>810.4</ele>
        <time>2022-06-16T09:25:12Z</time>
      </trkpt>
      <trkpt lat="44.02708" lon="3.24458">
        <ele>810.2</ele>
        <time>2022-06-16T09:25:19Z</time>
      </trkpt>
      <trkpt lat="44.02697" lon="3.24444">
        <ele>809.4</ele>
        <time>2022-06-16T09:25:23Z</time>
      </trkpt>
      <trkpt lat="44.02692" lon="3.24435">
        <ele>809.4</ele>
        <time>2022-06-16T09:25:25Z</time>
      </trkpt>
      <trkpt lat="44.02681" lon="3.24417">
        <ele>809.2</ele>
        <time>2022-06-16T09:25:29Z</time>
      </trkpt>
      <trkpt lat="44.02669" lon="3.24392">
        <ele>808.8</ele>
        <time>2022-06-16T09:25:34Z</time>
      </trkpt>
      <trkpt lat="44.02668" lon="3.24387">
        <ele>808.6</ele>
        <time>2022-06-16T09:25:35Z</time>
      </trkpt>
      <trkpt lat="44.02666" lon="3.24381">
        <ele>808.4</ele>
        <time>2022-06-16T09:25:36Z</time>
      </trkpt>
      <trkpt lat="44.02659" lon="3.24363">
        <ele>807.4</ele>
        <time>2022-06-16T09:25:39Z</time>
      </trkpt>
      <trkpt lat="44.02656" lon="3.24357">
        <ele>806.8</ele>
        <time>2022-06-16T09:25:40Z</time>
      </trkpt>
      <trkpt lat="44.02653" lon="3.24352">
        <ele>805.6</ele>
        <time>2022-06-16T09:25:41Z</time>
      </trkpt>
      <trkpt lat="44.02649" lon="3.24341">
        <ele>804.6</ele>
        <time>2022-06-16T09:25:43Z</time>
      </trkpt>
      <trkpt lat="44.02647" lon="3.24338">
        <ele>804.2</ele>
        <time>2022-06-16T09:25:44Z</time>
      </trkpt>
      <trkpt lat="44.02642" lon="3.2433">
        <ele>803.6</ele>
        <time>2022-06-16T09:25:46Z</time>
      </trkpt>
      <trkpt lat="44.02637" lon="3.24322">
        <ele>803.2</ele>
        <time>2022-06-16T09:25:48Z</time>
      </trkpt>
      <trkpt lat="44.02625" lon="3.24301">
        <ele>802.8</ele>
        <time>2022-06-16T09:25:53Z</time>
      </trkpt>
      <trkpt lat="44.02618" lon="3.24288">
        <ele>802.2</ele>
        <time>2022-06-16T09:25:57Z</time>
      </trkpt>
      <trkpt lat="44.02608" lon="3.24274">
        <ele>802</ele>
        <time>2022-06-16T09:26:01Z</time>
      </trkpt>
      <trkpt lat="44.02597" lon="3.24251">
        <ele>801</ele>
        <time>2022-06-16T09:26:06Z</time>
      </trkpt>
      <trkpt lat="44.0259" lon="3.24247">
        <ele>800.4</ele>
        <time>2022-06-16T09:26:08Z</time>
      </trkpt>
      <trkpt lat="44.02586" lon="3.24246">
        <ele>800.4</ele>
        <time>2022-06-16T09:26:09Z</time>
      </trkpt>
      <trkpt lat="44.02566" lon="3.2425">
        <ele>800</ele>
        <time>2022-06-16T09:26:15Z</time>
      </trkpt>
      <trkpt lat="44.02562" lon="3.2425">
        <ele>799.8</ele>
        <time>2022-06-16T09:26:17Z</time>
      </trkpt>
      <trkpt lat="44.02561" lon="3.2425">
        <ele>799.8</ele>
        <time>2022-06-16T09:26:18Z</time>
      </trkpt>
      <trkpt lat="44.0256" lon="3.24249">
        <ele>799.8</ele>
        <time>2022-06-16T09:26:19Z</time>
      </trkpt>
      <trkpt lat="44.0256" lon="3.24247">
        <ele>799.8</ele>
        <time>2022-06-16T09:26:20Z</time>
      </trkpt>
      <trkpt lat="44.02553" lon="3.24243">
        <ele>799.6</ele>
        <time>2022-06-16T09:26:23Z</time>
      </trkpt>
      <trkpt lat="44.02541" lon="3.24248">
        <ele>799.8</ele>
        <time>2022-06-16T09:26:27Z</time>
      </trkpt>
      <trkpt lat="44.02513" lon="3.24242">
        <ele>800</ele>
        <time>2022-06-16T09:26:35Z</time>
      </trkpt>
      <trkpt lat="44.02476" lon="3.24237">
        <ele>800</ele>
        <time>2022-06-16T09:26:44Z</time>
      </trkpt>
      <trkpt lat="44.02466" lon="3.24232">
        <ele>800</ele>
        <time>2022-06-16T09:26:46Z</time>
      </trkpt>
      <trkpt lat="44.02457" lon="3.24226">
        <ele>800</ele>
        <time>2022-06-16T09:26:48Z</time>
      </trkpt>
      <trkpt lat="44.02453" lon="3.24221">
        <ele>799.8</ele>
        <time>2022-06-16T09:26:49Z</time>
      </trkpt>
      <trkpt lat="44.02445" lon="3.2421">
        <ele>799.6</ele>
        <time>2022-06-16T09:26:51Z</time>
      </trkpt>
      <trkpt lat="44.02435" lon="3.24202">
        <ele>799.2</ele>
        <time>2022-06-16T09:26:53Z</time>
      </trkpt>
      <trkpt lat="44.02429" lon="3.24199">
        <ele>798.8</ele>
        <time>2022-06-16T09:26:54Z</time>
      </trkpt>
      <trkpt lat="44.02423" lon="3.24196">
        <ele>798.6</ele>
        <time>2022-06-16T09:26:55Z</time>
      </trkpt>
      <trkpt lat="44.02408" lon="3.24194">
        <ele>798.2</ele>
        <time>2022-06-16T09:26:57Z</time>
      </trkpt>
      <trkpt lat="44.02387" lon="3.242">
        <ele>797.4</ele>
        <time>2022-06-16T09:27:00Z</time>
      </trkpt>
      <trkpt lat="44.02376" lon="3.24203">
        <ele>797</ele>
        <time>2022-06-16T09:27:02Z</time>
      </trkpt>
      <trkpt lat="44.02341" lon="3.24213">
        <ele>796.6</ele>
        <time>2022-06-16T09:27:08Z</time>
      </trkpt>
      <trkpt lat="44.02318" lon="3.24217">
        <ele>796.4</ele>
        <time>2022-06-16T09:27:12Z</time>
      </trkpt>
      <trkpt lat="44.02304" lon="3.24216">
        <ele>796.2</ele>
        <time>2022-06-16T09:27:14Z</time>
      </trkpt>
      <trkpt lat="44.02271" lon="3.24204">
        <ele>795.2</ele>
        <time>2022-06-16T09:27:19Z</time>
      </trkpt>
      <trkpt lat="44.02264" lon="3.24201">
        <ele>795</ele>
        <time>2022-06-16T09:27:20Z</time>
      </trkpt>
      <trkpt lat="44.02221" lon="3.24185">
        <ele>794</ele>
        <time>2022-06-16T09:27:27Z</time>
      </trkpt>
      <trkpt lat="44.02215" lon="3.24182">
        <ele>794</ele>
        <time>2022-06-16T09:27:28Z</time>
      </trkpt>
      <trkpt lat="44.02174" lon="3.24172">
        <ele>793</ele>
        <time>2022-06-16T09:27:34Z</time>
      </trkpt>
      <trkpt lat="44.0216" lon="3.24171">
        <ele>792.6</ele>
        <time>2022-06-16T09:27:36Z</time>
      </trkpt>
      <trkpt lat="44.02147" lon="3.24175">
        <ele>792.4</ele>
        <time>2022-06-16T09:27:38Z</time>
      </trkpt>
      <trkpt lat="44.02113" lon="3.24193">
        <ele>792.2</ele>
        <time>2022-06-16T09:27:44Z</time>
      </trkpt>
      <trkpt lat="44.02094" lon="3.2421">
        <ele>792.4</ele>
        <time>2022-06-16T09:27:48Z</time>
      </trkpt>
      <trkpt lat="44.02082" lon="3.24222">
        <ele>792.6</ele>
        <time>2022-06-16T09:27:51Z</time>
      </trkpt>
      <trkpt lat="44.02071" lon="3.24233">
        <ele>792.6</ele>
        <time>2022-06-16T09:27:54Z</time>
      </trkpt>
      <trkpt lat="44.02058" lon="3.24244">
        <ele>792.6</ele>
        <time>2022-06-16T09:27:57Z</time>
      </trkpt>
      <trkpt lat="44.02021" lon="3.24272">
        <ele>792.8</ele>
        <time>2022-06-16T09:28:05Z</time>
      </trkpt>
      <trkpt lat="44.01983" lon="3.24293">
        <ele>793</ele>
        <time>2022-06-16T09:28:14Z</time>
      </trkpt>
      <trkpt lat="44.01948" lon="3.24298">
        <ele>793.4</ele>
        <time>2022-06-16T09:28:22Z</time>
      </trkpt>
      <trkpt lat="44.01911" lon="3.24297">
        <ele>794</ele>
        <time>2022-06-16T09:28:31Z</time>
      </trkpt>
      <trkpt lat="44.01882" lon="3.24294">
        <ele>794.8</ele>
        <time>2022-06-16T09:28:39Z</time>
      </trkpt>
      <trkpt lat="44.01868" lon="3.24293">
        <ele>795</ele>
        <time>2022-06-16T09:28:44Z</time>
      </trkpt>
      <trkpt lat="44.01863" lon="3.24293">
        <ele>795.4</ele>
        <time>2022-06-16T09:28:46Z</time>
      </trkpt>
      <trkpt lat="44.01844" lon="3.2429">
        <ele>796.2</ele>
        <time>2022-06-16T09:28:52Z</time>
      </trkpt>
      <trkpt lat="44.01819" lon="3.24289">
        <ele>796.8</ele>
        <time>2022-06-16T09:29:01Z</time>
      </trkpt>
      <trkpt lat="44.01811" lon="3.24287">
        <ele>797.2</ele>
        <time>2022-06-16T09:29:04Z</time>
      </trkpt>
      <trkpt lat="44.01803" lon="3.24286">
        <ele>797.6</ele>
        <time>2022-06-16T09:29:07Z</time>
      </trkpt>
      <trkpt lat="44.01786" lon="3.24284">
        <ele>798.4</ele>
        <time>2022-06-16T09:29:13Z</time>
      </trkpt>
      <trkpt lat="44.01781" lon="3.24285">
        <ele>798.6</ele>
        <time>2022-06-16T09:29:15Z</time>
      </trkpt>
      <trkpt lat="44.01766" lon="3.24287">
        <ele>799.2</ele>
        <time>2022-06-16T09:29:22Z</time>
      </trkpt>
      <trkpt lat="44.01766" lon="3.24287">
        <ele>799.4</ele>
        <time>2022-06-16T09:29:25Z</time>
      </trkpt>
      <trkpt lat="44.01766" lon="3.24287">
        <ele>799.6</ele>
        <time>2022-06-16T09:29:28Z</time>
      </trkpt>
      <trkpt lat="44.01766" lon="3.24287">
        <ele>799.8</ele>
        <time>2022-06-16T09:29:42Z</time>
      </trkpt>
      <trkpt lat="44.01766" lon="3.24287">
        <ele>800</ele>
        <time>2022-06-16T09:30:02Z</time>
      </trkpt>
      <trkpt lat="44.01763" lon="3.24287">
        <ele>800.2</ele>
        <time>2022-06-16T09:30:11Z</time>
      </trkpt>
      <trkpt lat="44.0176" lon="3.24285">
        <ele>800.2</ele>
        <time>2022-06-16T09:30:13Z</time>
      </trkpt>
      <trkpt lat="44.01759" lon="3.24283">
        <ele>800.2</ele>
        <time>2022-06-16T09:30:14Z</time>
      </trkpt>
      <trkpt lat="44.01749" lon="3.24283">
        <ele>800.2</ele>
        <time>2022-06-16T09:30:18Z</time>
      </trkpt>
      <trkpt lat="44.0174" lon="3.24284">
        <ele>800.4</ele>
        <time>2022-06-16T09:30:21Z</time>
      </trkpt>
      <trkpt lat="44.01729" lon="3.24285">
        <ele>800.6</ele>
        <time>2022-06-16T09:30:25Z</time>
      </trkpt>
      <trkpt lat="44.01709" lon="3.24286">
        <ele>801.2</ele>
        <time>2022-06-16T09:30:32Z</time>
      </trkpt>
      <trkpt lat="44.01704" lon="3.24288">
        <ele>801.4</ele>
        <time>2022-06-16T09:30:34Z</time>
      </trkpt>
      <trkpt lat="44.01691" lon="3.24291">
        <ele>802.4</ele>
        <time>2022-06-16T09:30:39Z</time>
      </trkpt>
      <trkpt lat="44.01686" lon="3.24291">
        <ele>802.4</ele>
        <time>2022-06-16T09:30:41Z</time>
      </trkpt>
      <trkpt lat="44.01664" lon="3.24296">
        <ele>803.4</ele>
        <time>2022-06-16T09:30:49Z</time>
      </trkpt>
      <trkpt lat="44.01662" lon="3.24297">
        <ele>803.6</ele>
        <time>2022-06-16T09:30:50Z</time>
      </trkpt>
      <trkpt lat="44.01637" lon="3.24302">
        <ele>804.6</ele>
        <time>2022-06-16T09:30:59Z</time>
      </trkpt>
      <trkpt lat="44.01634" lon="3.24302">
        <ele>804.6</ele>
        <time>2022-06-16T09:31:00Z</time>
      </trkpt>
      <trkpt lat="44.01612" lon="3.24306">
        <ele>805.6</ele>
        <time>2022-06-16T09:31:07Z</time>
      </trkpt>
      <trkpt lat="44.01603" lon="3.24307">
        <ele>805.8</ele>
        <time>2022-06-16T09:31:10Z</time>
      </trkpt>
      <trkpt lat="44.01588" lon="3.24311">
        <ele>806.6</ele>
        <time>2022-06-16T09:31:15Z</time>
      </trkpt>
      <trkpt lat="44.01581" lon="3.24312">
        <ele>806.8</ele>
        <time>2022-06-16T09:31:17Z</time>
      </trkpt>
      <trkpt lat="44.01559" lon="3.24313">
        <ele>807.6</ele>
        <time>2022-06-16T09:31:24Z</time>
      </trkpt>
      <trkpt lat="44.01527" lon="3.24312">
        <ele>808.2</ele>
        <time>2022-06-16T09:31:34Z</time>
      </trkpt>
      <trkpt lat="44.01503" lon="3.24311">
        <ele>808.6</ele>
        <time>2022-06-16T09:31:41Z</time>
      </trkpt>
      <trkpt lat="44.01479" lon="3.24307">
        <ele>809.2</ele>
        <time>2022-06-16T09:31:48Z</time>
      </trkpt>
      <trkpt lat="44.01454" lon="3.24308">
        <ele>809.6</ele>
        <time>2022-06-16T09:31:56Z</time>
      </trkpt>
      <trkpt lat="44.01427" lon="3.24307">
        <ele>810.4</ele>
        <time>2022-06-16T09:32:05Z</time>
      </trkpt>
      <trkpt lat="44.0141" lon="3.24305">
        <ele>810.8</ele>
        <time>2022-06-16T09:32:10Z</time>
      </trkpt>
      <trkpt lat="44.01382" lon="3.24297">
        <ele>811.6</ele>
        <time>2022-06-16T09:32:18Z</time>
      </trkpt>
      <trkpt lat="44.01372" lon="3.24292">
        <ele>811.8</ele>
        <time>2022-06-16T09:32:21Z</time>
      </trkpt>
      <trkpt lat="44.01358" lon="3.24284">
        <ele>812.4</ele>
        <time>2022-06-16T09:32:25Z</time>
      </trkpt>
      <trkpt lat="44.01344" lon="3.24273">
        <ele>813.2</ele>
        <time>2022-06-16T09:32:30Z</time>
      </trkpt>
      <trkpt lat="44.01337" lon="3.24268">
        <ele>813.2</ele>
        <time>2022-06-16T09:32:32Z</time>
      </trkpt>
      <trkpt lat="44.01318" lon="3.24249">
        <ele>814</ele>
        <time>2022-06-16T09:32:39Z</time>
      </trkpt>
      <trkpt lat="44.0131" lon="3.24242">
        <ele>814.4</ele>
        <time>2022-06-16T09:32:42Z</time>
      </trkpt>
      <trkpt lat="44.01302" lon="3.24236">
        <ele>814.8</ele>
        <time>2022-06-16T09:32:45Z</time>
      </trkpt>
      <trkpt lat="44.01285" lon="3.24228">
        <ele>815.4</ele>
        <time>2022-06-16T09:32:51Z</time>
      </trkpt>
      <trkpt lat="44.01276" lon="3.24225">
        <ele>815.6</ele>
        <time>2022-06-16T09:32:54Z</time>
      </trkpt>
      <trkpt lat="44.01256" lon="3.24222">
        <ele>816.6</ele>
        <time>2022-06-16T09:33:02Z</time>
      </trkpt>
      <trkpt lat="44.01254" lon="3.24221">
        <ele>816.6</ele>
        <time>2022-06-16T09:33:03Z</time>
      </trkpt>
      <trkpt lat="44.01235" lon="3.24215">
        <ele>817</ele>
        <time>2022-06-16T09:33:10Z</time>
      </trkpt>
      <trkpt lat="44.01215" lon="3.24203">
        <ele>817.6</ele>
        <time>2022-06-16T09:33:18Z</time>
      </trkpt>
      <trkpt lat="44.01212" lon="3.24201">
        <ele>817.8</ele>
        <time>2022-06-16T09:33:19Z</time>
      </trkpt>
      <trkpt lat="44.01185" lon="3.24185">
        <ele>818.8</ele>
        <time>2022-06-16T09:33:29Z</time>
      </trkpt>
      <trkpt lat="44.0118" lon="3.24183">
        <ele>819</ele>
        <time>2022-06-16T09:33:31Z</time>
      </trkpt>
      <trkpt lat="44.01163" lon="3.24175">
        <ele>820</ele>
        <time>2022-06-16T09:33:37Z</time>
      </trkpt>
      <trkpt lat="44.01152" lon="3.24172">
        <ele>820.6</ele>
        <time>2022-06-16T09:33:41Z</time>
      </trkpt>
      <trkpt lat="44.01139" lon="3.24169">
        <ele>821</ele>
        <time>2022-06-16T09:33:45Z</time>
      </trkpt>
      <trkpt lat="44.01123" lon="3.24165">
        <ele>821.8</ele>
        <time>2022-06-16T09:33:50Z</time>
      </trkpt>
      <trkpt lat="44.01116" lon="3.24164">
        <ele>822</ele>
        <time>2022-06-16T09:33:52Z</time>
      </trkpt>
      <trkpt lat="44.01093" lon="3.24163">
        <ele>822.6</ele>
        <time>2022-06-16T09:33:59Z</time>
      </trkpt>
      <trkpt lat="44.01078" lon="3.24164">
        <ele>823</ele>
        <time>2022-06-16T09:34:03Z</time>
      </trkpt>
      <trkpt lat="44.01069" lon="3.24165">
        <ele>823.2</ele>
        <time>2022-06-16T09:34:06Z</time>
      </trkpt>
      <trkpt lat="44.01048" lon="3.24165">
        <ele>823.4</ele>
        <time>2022-06-16T09:34:11Z</time>
      </trkpt>
      <trkpt lat="44.0103" lon="3.24164">
        <ele>823.4</ele>
        <time>2022-06-16T09:34:15Z</time>
      </trkpt>
      <trkpt lat="44.01025" lon="3.24164">
        <ele>823.4</ele>
        <time>2022-06-16T09:34:16Z</time>
      </trkpt>
      <trkpt lat="44.01003" lon="3.24158">
        <ele>823.4</ele>
        <time>2022-06-16T09:34:20Z</time>
      </trkpt>
      <trkpt lat="44.00986" lon="3.24153">
        <ele>823.4</ele>
        <time>2022-06-16T09:34:23Z</time>
      </trkpt>
      <trkpt lat="44.0097" lon="3.24151">
        <ele>823.4</ele>
        <time>2022-06-16T09:34:26Z</time>
      </trkpt>
      <trkpt lat="44.0096" lon="3.24149">
        <ele>823.4</ele>
        <time>2022-06-16T09:34:30Z</time>
      </trkpt>
      <trkpt lat="44.0096" lon="3.24149">
        <ele>823.2</ele>
        <time>2022-06-16T09:34:34Z</time>
      </trkpt>
      <trkpt lat="44.00954" lon="3.24149">
        <ele>823.6</ele>
        <time>2022-06-16T09:34:54Z</time>
      </trkpt>
      <trkpt lat="44.00935" lon="3.24149">
        <ele>823.4</ele>
        <time>2022-06-16T09:35:00Z</time>
      </trkpt>
      <trkpt lat="44.00908" lon="3.24147">
        <ele>823.4</ele>
        <time>2022-06-16T09:35:07Z</time>
      </trkpt>
      <trkpt lat="44.00874" lon="3.24154">
        <ele>824</ele>
        <time>2022-06-16T09:35:16Z</time>
      </trkpt>
      <trkpt lat="44.00866" lon="3.24158">
        <ele>824.2</ele>
        <time>2022-06-16T09:35:18Z</time>
      </trkpt>
      <trkpt lat="44.00862" lon="3.24161">
        <ele>824.2</ele>
        <time>2022-06-16T09:35:19Z</time>
      </trkpt>
      <trkpt lat="44.00859" lon="3.24163">
        <ele>824.2</ele>
        <time>2022-06-16T09:35:20Z</time>
      </trkpt>
      <trkpt lat="44.00852" lon="3.24171">
        <ele>824.2</ele>
        <time>2022-06-16T09:35:22Z</time>
      </trkpt>
      <trkpt lat="44.00845" lon="3.2418">
        <ele>824</ele>
        <time>2022-06-16T09:35:24Z</time>
      </trkpt>
      <trkpt lat="44.00835" lon="3.24198">
        <ele>823.8</ele>
        <time>2022-06-16T09:35:27Z</time>
      </trkpt>
      <trkpt lat="44.00823" lon="3.24219">
        <ele>823</ele>
        <time>2022-06-16T09:35:30Z</time>
      </trkpt>
      <trkpt lat="44.00818" lon="3.24224">
        <ele>823</ele>
        <time>2022-06-16T09:35:31Z</time>
      </trkpt>
      <trkpt lat="44.00812" lon="3.2423">
        <ele>822.4</ele>
        <time>2022-06-16T09:35:32Z</time>
      </trkpt>
      <trkpt lat="44.00802" lon="3.24241">
        <ele>822</ele>
        <time>2022-06-16T09:35:34Z</time>
      </trkpt>
      <trkpt lat="44.00792" lon="3.24251">
        <ele>821</ele>
        <time>2022-06-16T09:35:36Z</time>
      </trkpt>
      <trkpt lat="44.00787" lon="3.24257">
        <ele>820.6</ele>
        <time>2022-06-16T09:35:37Z</time>
      </trkpt>
      <trkpt lat="44.00781" lon="3.24262">
        <ele>820.4</ele>
        <time>2022-06-16T09:35:38Z</time>
      </trkpt>
      <trkpt lat="44.00759" lon="3.24279">
        <ele>819.2</ele>
        <time>2022-06-16T09:35:41Z</time>
      </trkpt>
      <trkpt lat="44.00734" lon="3.24295">
        <ele>818</ele>
        <time>2022-06-16T09:35:44Z</time>
      </trkpt>
      <trkpt lat="44.00716" lon="3.24308">
        <ele>816.4</ele>
        <time>2022-06-16T09:35:46Z</time>
      </trkpt>
      <trkpt lat="44.00695" lon="3.24321">
        <ele>814.6</ele>
        <time>2022-06-16T09:35:48Z</time>
      </trkpt>
      <trkpt lat="44.00677" lon="3.2433">
        <ele>813.2</ele>
        <time>2022-06-16T09:35:50Z</time>
      </trkpt>
      <trkpt lat="44.00668" lon="3.24334">
        <ele>813</ele>
        <time>2022-06-16T09:35:51Z</time>
      </trkpt>
      <trkpt lat="44.00659" lon="3.24338">
        <ele>811.8</ele>
        <time>2022-06-16T09:35:52Z</time>
      </trkpt>
      <trkpt lat="44.00642" lon="3.24346">
        <ele>810.6</ele>
        <time>2022-06-16T09:35:54Z</time>
      </trkpt>
      <trkpt lat="44.00626" lon="3.24354">
        <ele>810</ele>
        <time>2022-06-16T09:35:56Z</time>
      </trkpt>
      <trkpt lat="44.00611" lon="3.24363">
        <ele>809.2</ele>
        <time>2022-06-16T09:35:58Z</time>
      </trkpt>
      <trkpt lat="44.00588" lon="3.24377">
        <ele>808</ele>
        <time>2022-06-16T09:36:01Z</time>
      </trkpt>
      <trkpt lat="44.00581" lon="3.24381">
        <ele>807.8</ele>
        <time>2022-06-16T09:36:02Z</time>
      </trkpt>
      <trkpt lat="44.00552" lon="3.24398">
        <ele>806.6</ele>
        <time>2022-06-16T09:36:06Z</time>
      </trkpt>
      <trkpt lat="44.00525" lon="3.24415">
        <ele>805.6</ele>
        <time>2022-06-16T09:36:10Z</time>
      </trkpt>
      <trkpt lat="44.00493" lon="3.24436">
        <ele>804.6</ele>
        <time>2022-06-16T09:36:15Z</time>
      </trkpt>
      <trkpt lat="44.00487" lon="3.24441">
        <ele>804.4</ele>
        <time>2022-06-16T09:36:16Z</time>
      </trkpt>
      <trkpt lat="44.00456" lon="3.24458">
        <ele>803.6</ele>
        <time>2022-06-16T09:36:21Z</time>
      </trkpt>
      <trkpt lat="44.0045" lon="3.24461">
        <ele>803.4</ele>
        <time>2022-06-16T09:36:22Z</time>
      </trkpt>
      <trkpt lat="44.00435" lon="3.24469">
        <ele>803</ele>
        <time>2022-06-16T09:36:25Z</time>
      </trkpt>
      <trkpt lat="44.00432" lon="3.24473">
        <ele>803</ele>
        <time>2022-06-16T09:36:26Z</time>
      </trkpt>
      <trkpt lat="44.00422" lon="3.24493">
        <ele>803.2</ele>
        <time>2022-06-16T09:36:31Z</time>
      </trkpt>
      <trkpt lat="44.00418" lon="3.24519">
        <ele>804</ele>
        <time>2022-06-16T09:36:37Z</time>
      </trkpt>
      <trkpt lat="44.00419" lon="3.24535">
        <ele>804.6</ele>
        <time>2022-06-16T09:36:41Z</time>
      </trkpt>
      <trkpt lat="44.00419" lon="3.24546">
        <ele>805.2</ele>
        <time>2022-06-16T09:36:44Z</time>
      </trkpt>
      <trkpt lat="44.00419" lon="3.24558">
        <ele>805.6</ele>
        <time>2022-06-16T09:36:47Z</time>
      </trkpt>
      <trkpt lat="44.00418" lon="3.24571">
        <ele>806</ele>
        <time>2022-06-16T09:36:51Z</time>
      </trkpt>
      <trkpt lat="44.00418" lon="3.24581">
        <ele>806.8</ele>
        <time>2022-06-16T09:36:54Z</time>
      </trkpt>
      <trkpt lat="44.00415" lon="3.24599">
        <ele>807.4</ele>
        <time>2022-06-16T09:36:59Z</time>
      </trkpt>
      <trkpt lat="44.00413" lon="3.24605">
        <ele>807.8</ele>
        <time>2022-06-16T09:37:01Z</time>
      </trkpt>
      <trkpt lat="44.00411" lon="3.2462">
        <ele>808.2</ele>
        <time>2022-06-16T09:37:05Z</time>
      </trkpt>
      <trkpt lat="44.00406" lon="3.24635">
        <ele>808.8</ele>
        <time>2022-06-16T09:37:10Z</time>
      </trkpt>
      <trkpt lat="44.00401" lon="3.2465">
        <ele>809.6</ele>
        <time>2022-06-16T09:37:15Z</time>
      </trkpt>
      <trkpt lat="44.00396" lon="3.24664">
        <ele>810</ele>
        <time>2022-06-16T09:37:19Z</time>
      </trkpt>
      <trkpt lat="44.00393" lon="3.24673">
        <ele>810.4</ele>
        <time>2022-06-16T09:37:22Z</time>
      </trkpt>
      <trkpt lat="44.00383" lon="3.24697">
        <ele>811</ele>
        <time>2022-06-16T09:37:29Z</time>
      </trkpt>
      <trkpt lat="44.00381" lon="3.24709">
        <ele>811.4</ele>
        <time>2022-06-16T09:37:32Z</time>
      </trkpt>
      <trkpt lat="44.00372" lon="3.24745">
        <ele>812</ele>
        <time>2022-06-16T09:37:40Z</time>
      </trkpt>
      <trkpt lat="44.00371" lon="3.24749">
        <ele>812</ele>
        <time>2022-06-16T09:37:41Z</time>
      </trkpt>
      <trkpt lat="44.00365" lon="3.24776">
        <ele>812.6</ele>
        <time>2022-06-16T09:37:47Z</time>
      </trkpt>
      <trkpt lat="44.00362" lon="3.24793">
        <ele>813</ele>
        <time>2022-06-16T09:37:51Z</time>
      </trkpt>
      <trkpt lat="44.0036" lon="3.24797">
        <ele>813</ele>
        <time>2022-06-16T09:37:52Z</time>
      </trkpt>
      <trkpt lat="44.00345" lon="3.24827">
        <ele>813.2</ele>
        <time>2022-06-16T09:38:00Z</time>
      </trkpt>
      <trkpt lat="44.00329" lon="3.24852">
        <ele>812.8</ele>
        <time>2022-06-16T09:38:06Z</time>
      </trkpt>
      <trkpt lat="44.00322" lon="3.24863">
        <ele>812.6</ele>
        <time>2022-06-16T09:38:08Z</time>
      </trkpt>
      <trkpt lat="44.00318" lon="3.24868">
        <ele>812.4</ele>
        <time>2022-06-16T09:38:09Z</time>
      </trkpt>
      <trkpt lat="44.00304" lon="3.24887">
        <ele>812</ele>
        <time>2022-06-16T09:38:12Z</time>
      </trkpt>
      <trkpt lat="44.00299" lon="3.24893">
        <ele>811.8</ele>
        <time>2022-06-16T09:38:13Z</time>
      </trkpt>
      <trkpt lat="44.00293" lon="3.24898">
        <ele>811.6</ele>
        <time>2022-06-16T09:38:14Z</time>
      </trkpt>
      <trkpt lat="44.00273" lon="3.24913">
        <ele>810.8</ele>
        <time>2022-06-16T09:38:17Z</time>
      </trkpt>
      <trkpt lat="44.00267" lon="3.24918">
        <ele>810.6</ele>
        <time>2022-06-16T09:38:18Z</time>
      </trkpt>
      <trkpt lat="44.00238" lon="3.24941">
        <ele>809.2</ele>
        <time>2022-06-16T09:38:22Z</time>
      </trkpt>
      <trkpt lat="44.00218" lon="3.24959">
        <ele>808.2</ele>
        <time>2022-06-16T09:38:25Z</time>
      </trkpt>
      <trkpt lat="44.00193" lon="3.24978">
        <ele>807.6</ele>
        <time>2022-06-16T09:38:29Z</time>
      </trkpt>
      <trkpt lat="44.00161" lon="3.24997">
        <ele>807</ele>
        <time>2022-06-16T09:38:34Z</time>
      </trkpt>
      <trkpt lat="44.00117" lon="3.25008">
        <ele>806.2</ele>
        <time>2022-06-16T09:38:40Z</time>
      </trkpt>
      <trkpt lat="44.00109" lon="3.2501">
        <ele>806</ele>
        <time>2022-06-16T09:38:41Z</time>
      </trkpt>
      <trkpt lat="44.0008" lon="3.25017">
        <ele>804.8</ele>
        <time>2022-06-16T09:38:45Z</time>
      </trkpt>
      <trkpt lat="44.00059" lon="3.25022">
        <ele>804</ele>
        <time>2022-06-16T09:38:48Z</time>
      </trkpt>
      <trkpt lat="44.00045" lon="3.25027">
        <ele>803.6</ele>
        <time>2022-06-16T09:38:50Z</time>
      </trkpt>
      <trkpt lat="44.00019" lon="3.25031">
        <ele>803.2</ele>
        <time>2022-06-16T09:38:54Z</time>
      </trkpt>
      <trkpt lat="44" lon="3.25031">
        <ele>802.6</ele>
        <time>2022-06-16T09:38:57Z</time>
      </trkpt>
      <trkpt lat="43.99977" lon="3.25029">
        <ele>802.2</ele>
        <time>2022-06-16T09:39:00Z</time>
      </trkpt>
      <trkpt lat="43.99961" lon="3.25027">
        <ele>801.8</ele>
        <time>2022-06-16T09:39:02Z</time>
      </trkpt>
      <trkpt lat="43.99953" lon="3.25027">
        <ele>801.4</ele>
        <time>2022-06-16T09:39:03Z</time>
      </trkpt>
      <trkpt lat="43.99945" lon="3.25026">
        <ele>801</ele>
        <time>2022-06-16T09:39:04Z</time>
      </trkpt>
      <trkpt lat="43.9993" lon="3.25021">
        <ele>800</ele>
        <time>2022-06-16T09:39:06Z</time>
      </trkpt>
      <trkpt lat="43.99909" lon="3.25017">
        <ele>799.4</ele>
        <time>2022-06-16T09:39:09Z</time>
      </trkpt>
      <trkpt lat="43.99887" lon="3.25013">
        <ele>798.8</ele>
        <time>2022-06-16T09:39:13Z</time>
      </trkpt>
      <trkpt lat="43.99883" lon="3.25013">
        <ele>798.6</ele>
        <time>2022-06-16T09:39:14Z</time>
      </trkpt>
      <trkpt lat="43.99872" lon="3.25011">
        <ele>797.2</ele>
        <time>2022-06-16T09:39:17Z</time>
      </trkpt>
      <trkpt lat="43.99866" lon="3.2501">
        <ele>796.6</ele>
        <time>2022-06-16T09:39:19Z</time>
      </trkpt>
      <trkpt lat="43.9986" lon="3.25011">
        <ele>795.8</ele>
        <time>2022-06-16T09:39:21Z</time>
      </trkpt>
      <trkpt lat="43.99851" lon="3.25016">
        <ele>794.8</ele>
        <time>2022-06-16T09:39:24Z</time>
      </trkpt>
      <trkpt lat="43.99847" lon="3.25022">
        <ele>794.4</ele>
        <time>2022-06-16T09:39:26Z</time>
      </trkpt>
      <trkpt lat="43.9984" lon="3.25033">
        <ele>794</ele>
        <time>2022-06-16T09:39:30Z</time>
      </trkpt>
      <trkpt lat="43.99839" lon="3.25035">
        <ele>793.6</ele>
        <time>2022-06-16T09:39:33Z</time>
      </trkpt>
      <trkpt lat="43.99839" lon="3.25035">
        <ele>793.4</ele>
        <time>2022-06-16T09:39:34Z</time>
      </trkpt>
      <trkpt lat="43.99838" lon="3.25038">
        <ele>792.8</ele>
        <time>2022-06-16T09:39:48Z</time>
      </trkpt>
      <trkpt lat="43.99837" lon="3.2504">
        <ele>792.8</ele>
        <time>2022-06-16T09:39:49Z</time>
      </trkpt>
      <trkpt lat="43.9983" lon="3.25059">
        <ele>792.6</ele>
        <time>2022-06-16T09:39:54Z</time>
      </trkpt>
      <trkpt lat="43.99826" lon="3.25069">
        <ele>792.4</ele>
        <time>2022-06-16T09:39:56Z</time>
      </trkpt>
      <trkpt lat="43.99819" lon="3.25076">
        <ele>792</ele>
        <time>2022-06-16T09:39:58Z</time>
      </trkpt>
      <trkpt lat="43.99815" lon="3.2508">
        <ele>792</ele>
        <time>2022-06-16T09:39:59Z</time>
      </trkpt>
      <trkpt lat="43.9981" lon="3.25083">
        <ele>791.8</ele>
        <time>2022-06-16T09:40:00Z</time>
      </trkpt>
      <trkpt lat="43.99794" lon="3.25089">
        <ele>791.4</ele>
        <time>2022-06-16T09:40:03Z</time>
      </trkpt>
      <trkpt lat="43.99789" lon="3.2509">
        <ele>791.2</ele>
        <time>2022-06-16T09:40:04Z</time>
      </trkpt>
      <trkpt lat="43.99771" lon="3.2509">
        <ele>790</ele>
        <time>2022-06-16T09:40:07Z</time>
      </trkpt>
      <trkpt lat="43.99761" lon="3.2509">
        <ele>788.6</ele>
        <time>2022-06-16T09:40:09Z</time>
      </trkpt>
      <trkpt lat="43.99748" lon="3.25088">
        <ele>788</ele>
        <time>2022-06-16T09:40:11Z</time>
      </trkpt>
      <trkpt lat="43.99742" lon="3.25086">
        <ele>787.6</ele>
        <time>2022-06-16T09:40:12Z</time>
      </trkpt>
      <trkpt lat="43.99724" lon="3.25081">
        <ele>786.4</ele>
        <time>2022-06-16T09:40:15Z</time>
      </trkpt>
      <trkpt lat="43.99706" lon="3.25076">
        <ele>785.2</ele>
        <time>2022-06-16T09:40:18Z</time>
      </trkpt>
      <trkpt lat="43.99699" lon="3.25074">
        <ele>784.6</ele>
        <time>2022-06-16T09:40:19Z</time>
      </trkpt>
      <trkpt lat="43.99685" lon="3.25069">
        <ele>784</ele>
        <time>2022-06-16T09:40:21Z</time>
      </trkpt>
      <trkpt lat="43.99661" lon="3.25062">
        <ele>783.2</ele>
        <time>2022-06-16T09:40:24Z</time>
      </trkpt>
      <trkpt lat="43.99653" lon="3.25059">
        <ele>782.8</ele>
        <time>2022-06-16T09:40:25Z</time>
      </trkpt>
      <trkpt lat="43.99637" lon="3.25054">
        <ele>781.6</ele>
        <time>2022-06-16T09:40:27Z</time>
      </trkpt>
      <trkpt lat="43.99628" lon="3.25052">
        <ele>780.2</ele>
        <time>2022-06-16T09:40:28Z</time>
      </trkpt>
      <trkpt lat="43.99605" lon="3.25047">
        <ele>779.2</ele>
        <time>2022-06-16T09:40:31Z</time>
      </trkpt>
      <trkpt lat="43.99598" lon="3.25045">
        <ele>779</ele>
        <time>2022-06-16T09:40:32Z</time>
      </trkpt>
      <trkpt lat="43.99591" lon="3.25043">
        <ele>778.6</ele>
        <time>2022-06-16T09:40:33Z</time>
      </trkpt>
      <trkpt lat="43.99578" lon="3.25037">
        <ele>777.4</ele>
        <time>2022-06-16T09:40:35Z</time>
      </trkpt>
      <trkpt lat="43.99567" lon="3.25027">
        <ele>776.4</ele>
        <time>2022-06-16T09:40:37Z</time>
      </trkpt>
      <trkpt lat="43.99558" lon="3.25016">
        <ele>775.8</ele>
        <time>2022-06-16T09:40:39Z</time>
      </trkpt>
      <trkpt lat="43.99545" lon="3.24989">
        <ele>775.2</ele>
        <time>2022-06-16T09:40:43Z</time>
      </trkpt>
      <trkpt lat="43.99542" lon="3.24983">
        <ele>775.2</ele>
        <time>2022-06-16T09:40:44Z</time>
      </trkpt>
      <trkpt lat="43.99529" lon="3.24956">
        <ele>774.6</ele>
        <time>2022-06-16T09:40:48Z</time>
      </trkpt>
      <trkpt lat="43.99514" lon="3.24927">
        <ele>774.4</ele>
        <time>2022-06-16T09:40:53Z</time>
      </trkpt>
      <trkpt lat="43.9951" lon="3.24917">
        <ele>774.2</ele>
        <time>2022-06-16T09:40:55Z</time>
      </trkpt>
      <trkpt lat="43.99502" lon="3.24903">
        <ele>774.2</ele>
        <time>2022-06-16T09:40:58Z</time>
      </trkpt>
      <trkpt lat="43.99488" lon="3.24875">
        <ele>774.2</ele>
        <time>2022-06-16T09:41:04Z</time>
      </trkpt>
      <trkpt lat="43.99464" lon="3.24836">
        <ele>774.8</ele>
        <time>2022-06-16T09:41:13Z</time>
      </trkpt>
      <trkpt lat="43.99446" lon="3.24802">
        <ele>774.8</ele>
        <time>2022-06-16T09:41:20Z</time>
      </trkpt>
      <trkpt lat="43.9944" lon="3.24793">
        <ele>774.8</ele>
        <time>2022-06-16T09:41:22Z</time>
      </trkpt>
      <trkpt lat="43.99437" lon="3.24788">
        <ele>774.8</ele>
        <time>2022-06-16T09:41:23Z</time>
      </trkpt>
      <trkpt lat="43.9943" lon="3.24779">
        <ele>774.8</ele>
        <time>2022-06-16T09:41:25Z</time>
      </trkpt>
      <trkpt lat="43.99419" lon="3.24765">
        <ele>774.6</ele>
        <time>2022-06-16T09:41:28Z</time>
      </trkpt>
      <trkpt lat="43.99411" lon="3.24751">
        <ele>774.6</ele>
        <time>2022-06-16T09:41:31Z</time>
      </trkpt>
      <trkpt lat="43.99397" lon="3.24734">
        <ele>774.6</ele>
        <time>2022-06-16T09:41:35Z</time>
      </trkpt>
      <trkpt lat="43.99374" lon="3.2471">
        <ele>774.6</ele>
        <time>2022-06-16T09:41:42Z</time>
      </trkpt>
      <trkpt lat="43.99355" lon="3.24689">
        <ele>775.2</ele>
        <time>2022-06-16T09:41:48Z</time>
      </trkpt>
      <trkpt lat="43.99325" lon="3.24655">
        <ele>774.6</ele>
        <time>2022-06-16T09:41:56Z</time>
      </trkpt>
      <trkpt lat="43.99295" lon="3.24621">
        <ele>773.8</ele>
        <time>2022-06-16T09:42:03Z</time>
      </trkpt>
      <trkpt lat="43.99255" lon="3.24577">
        <ele>773.4</ele>
        <time>2022-06-16T09:42:12Z</time>
      </trkpt>
      <trkpt lat="43.99251" lon="3.24573">
        <ele>773.6</ele>
        <time>2022-06-16T09:42:13Z</time>
      </trkpt>
      <trkpt lat="43.99241" lon="3.24558">
        <ele>773.4</ele>
        <time>2022-06-16T09:42:16Z</time>
      </trkpt>
      <trkpt lat="43.99238" lon="3.24552">
        <ele>773.4</ele>
        <time>2022-06-16T09:42:17Z</time>
      </trkpt>
      <trkpt lat="43.99233" lon="3.24541">
        <ele>773.4</ele>
        <time>2022-06-16T09:42:19Z</time>
      </trkpt>
      <trkpt lat="43.99227" lon="3.24525">
        <ele>773.4</ele>
        <time>2022-06-16T09:42:22Z</time>
      </trkpt>
      <trkpt lat="43.9922" lon="3.24492">
        <ele>773.6</ele>
        <time>2022-06-16T09:42:28Z</time>
      </trkpt>
      <trkpt lat="43.99213" lon="3.24437">
        <ele>773.4</ele>
        <time>2022-06-16T09:42:37Z</time>
      </trkpt>
      <trkpt lat="43.99212" lon="3.24431">
        <ele>773.4</ele>
        <time>2022-06-16T09:42:38Z</time>
      </trkpt>
      <trkpt lat="43.99204" lon="3.24415">
        <ele>773.2</ele>
        <time>2022-06-16T09:42:42Z</time>
      </trkpt>
      <trkpt lat="43.99191" lon="3.24389">
        <ele>773.2</ele>
        <time>2022-06-16T09:42:48Z</time>
      </trkpt>
      <trkpt lat="43.99172" lon="3.2437">
        <ele>773.6</ele>
        <time>2022-06-16T09:42:54Z</time>
      </trkpt>
      <trkpt lat="43.99151" lon="3.24366">
        <ele>773.8</ele>
        <time>2022-06-16T09:43:00Z</time>
      </trkpt>
      <trkpt lat="43.99135" lon="3.24372">
        <ele>774.2</ele>
        <time>2022-06-16T09:43:05Z</time>
      </trkpt>
      <trkpt lat="43.99124" lon="3.24378">
        <ele>774.4</ele>
        <time>2022-06-16T09:43:09Z</time>
      </trkpt>
      <trkpt lat="43.99118" lon="3.24383">
        <ele>774.6</ele>
        <time>2022-06-16T09:43:12Z</time>
      </trkpt>
      <trkpt lat="43.99105" lon="3.24397">
        <ele>775.6</ele>
        <time>2022-06-16T09:43:19Z</time>
      </trkpt>
      <trkpt lat="43.99096" lon="3.24406">
        <ele>776</ele>
        <time>2022-06-16T09:43:24Z</time>
      </trkpt>
      <trkpt lat="43.99085" lon="3.24417">
        <ele>776.6</ele>
        <time>2022-06-16T09:43:30Z</time>
      </trkpt>
      <trkpt lat="43.99079" lon="3.24423">
        <ele>777</ele>
        <time>2022-06-16T09:43:33Z</time>
      </trkpt>
      <trkpt lat="43.99066" lon="3.24436">
        <ele>777.6</ele>
        <time>2022-06-16T09:43:40Z</time>
      </trkpt>
      <trkpt lat="43.99059" lon="3.24443">
        <ele>777.8</ele>
        <time>2022-06-16T09:43:44Z</time>
      </trkpt>
      <trkpt lat="43.99045" lon="3.24458">
        <ele>778.6</ele>
        <time>2022-06-16T09:43:52Z</time>
      </trkpt>
      <trkpt lat="43.99027" lon="3.24477">
        <ele>779.6</ele>
        <time>2022-06-16T09:44:02Z</time>
      </trkpt>
      <trkpt lat="43.99025" lon="3.24479">
        <ele>779.6</ele>
        <time>2022-06-16T09:44:03Z</time>
      </trkpt>
      <trkpt lat="43.99013" lon="3.24491">
        <ele>780.6</ele>
        <time>2022-06-16T09:44:11Z</time>
      </trkpt>
      <trkpt lat="43.99001" lon="3.24502">
        <ele>781.4</ele>
        <time>2022-06-16T09:44:19Z</time>
      </trkpt>
      <trkpt lat="43.98997" lon="3.24507">
        <ele>781.8</ele>
        <time>2022-06-16T09:44:22Z</time>
      </trkpt>
      <trkpt lat="43.9899" lon="3.24513">
        <ele>782.2</ele>
        <time>2022-06-16T09:44:27Z</time>
      </trkpt>
      <trkpt lat="43.98985" lon="3.24519">
        <ele>782.8</ele>
        <time>2022-06-16T09:44:31Z</time>
      </trkpt>
      <trkpt lat="43.98983" lon="3.24521">
        <ele>782.8</ele>
        <time>2022-06-16T09:44:33Z</time>
      </trkpt>
      <trkpt lat="43.98978" lon="3.24527">
        <ele>783.8</ele>
        <time>2022-06-16T09:44:38Z</time>
      </trkpt>
      <trkpt lat="43.98976" lon="3.24529">
        <ele>784</ele>
        <time>2022-06-16T09:44:40Z</time>
      </trkpt>
      <trkpt lat="43.98973" lon="3.24532">
        <ele>784.8</ele>
        <time>2022-06-16T09:44:44Z</time>
      </trkpt>
      <trkpt lat="43.98969" lon="3.24536">
        <ele>785.2</ele>
        <time>2022-06-16T09:44:48Z</time>
      </trkpt>
      <trkpt lat="43.98963" lon="3.24544">
        <ele>785.8</ele>
        <time>2022-06-16T09:44:55Z</time>
      </trkpt>
      <trkpt lat="43.98961" lon="3.24546">
        <ele>786.2</ele>
        <time>2022-06-16T09:44:57Z</time>
      </trkpt>
      <trkpt lat="43.98959" lon="3.24546">
        <ele>786.2</ele>
        <time>2022-06-16T09:44:58Z</time>
      </trkpt>
      <trkpt lat="43.98954" lon="3.24552">
        <ele>787</ele>
        <time>2022-06-16T09:45:03Z</time>
      </trkpt>
      <trkpt lat="43.9895" lon="3.24554">
        <ele>787.4</ele>
        <time>2022-06-16T09:45:06Z</time>
      </trkpt>
      <trkpt lat="43.98942" lon="3.24559">
        <ele>788</ele>
        <time>2022-06-16T09:45:13Z</time>
      </trkpt>
      <trkpt lat="43.98942" lon="3.24559">
        <ele>788.2</ele>
        <time>2022-06-16T09:45:15Z</time>
      </trkpt>
      <trkpt lat="43.98942" lon="3.2456">
        <ele>788.8</ele>
        <time>2022-06-16T09:45:25Z</time>
      </trkpt>
      <trkpt lat="43.98942" lon="3.2456">
        <ele>788.8</ele>
        <time>2022-06-16T09:45:44Z</time>
      </trkpt>
      <trkpt lat="43.98942" lon="3.2456">
        <ele>788.6</ele>
        <time>2022-06-16T09:45:46Z</time>
      </trkpt>
      <trkpt lat="43.98941" lon="3.24561">
        <ele>788.4</ele>
        <time>2022-06-16T09:46:16Z</time>
      </trkpt>
      <trkpt lat="43.9894" lon="3.24561">
        <ele>788.4</ele>
        <time>2022-06-16T09:46:20Z</time>
      </trkpt>
      <trkpt lat="43.98939" lon="3.24561">
        <ele>788.4</ele>
        <time>2022-06-16T09:46:21Z</time>
      </trkpt>
      <trkpt lat="43.98935" lon="3.24561">
        <ele>788.6</ele>
        <time>2022-06-16T09:46:24Z</time>
      </trkpt>
      <trkpt lat="43.98925" lon="3.24561">
        <ele>788.8</ele>
        <time>2022-06-16T09:46:30Z</time>
      </trkpt>
      <trkpt lat="43.98911" lon="3.24554">
        <ele>789.2</ele>
        <time>2022-06-16T09:46:37Z</time>
      </trkpt>
      <trkpt lat="43.98909" lon="3.24552">
        <ele>789.2</ele>
        <time>2022-06-16T09:46:38Z</time>
      </trkpt>
      <trkpt lat="43.98896" lon="3.24543">
        <ele>790.2</ele>
        <time>2022-06-16T09:46:44Z</time>
      </trkpt>
      <trkpt lat="43.98894" lon="3.24542">
        <ele>790.4</ele>
        <time>2022-06-16T09:46:45Z</time>
      </trkpt>
      <trkpt lat="43.98879" lon="3.24532">
        <ele>791</ele>
        <time>2022-06-16T09:46:51Z</time>
      </trkpt>
      <trkpt lat="43.98873" lon="3.24528">
        <ele>791.4</ele>
        <time>2022-06-16T09:46:53Z</time>
      </trkpt>
      <trkpt lat="43.98857" lon="3.24517">
        <ele>791.6</ele>
        <time>2022-06-16T09:46:59Z</time>
      </trkpt>
      <trkpt lat="43.98847" lon="3.24508">
        <ele>791.8</ele>
        <time>2022-06-16T09:47:03Z</time>
      </trkpt>
      <trkpt lat="43.98837" lon="3.24497">
        <ele>792.6</ele>
        <time>2022-06-16T09:47:08Z</time>
      </trkpt>
      <trkpt lat="43.98823" lon="3.24481">
        <ele>793.4</ele>
        <time>2022-06-16T09:47:15Z</time>
      </trkpt>
      <trkpt lat="43.98818" lon="3.24477">
        <ele>793.6</ele>
        <time>2022-06-16T09:47:17Z</time>
      </trkpt>
      <trkpt lat="43.98811" lon="3.24468">
        <ele>794</ele>
        <time>2022-06-16T09:47:21Z</time>
      </trkpt>
      <trkpt lat="43.98801" lon="3.24461">
        <ele>794.6</ele>
        <time>2022-06-16T09:47:26Z</time>
      </trkpt>
      <trkpt lat="43.98798" lon="3.24458">
        <ele>795</ele>
        <time>2022-06-16T09:47:28Z</time>
      </trkpt>
      <trkpt lat="43.98782" lon="3.24447">
        <ele>795.8</ele>
        <time>2022-06-16T09:47:36Z</time>
      </trkpt>
      <trkpt lat="43.9878" lon="3.24446">
        <ele>795.8</ele>
        <time>2022-06-16T09:47:37Z</time>
      </trkpt>
      <trkpt lat="43.98766" lon="3.24434">
        <ele>796.8</ele>
        <time>2022-06-16T09:47:44Z</time>
      </trkpt>
      <trkpt lat="43.98764" lon="3.24433">
        <ele>797.2</ele>
        <time>2022-06-16T09:47:45Z</time>
      </trkpt>
      <trkpt lat="43.98755" lon="3.24428">
        <ele>798</ele>
        <time>2022-06-16T09:47:50Z</time>
      </trkpt>
      <trkpt lat="43.9875" lon="3.24425">
        <ele>798.2</ele>
        <time>2022-06-16T09:47:53Z</time>
      </trkpt>
      <trkpt lat="43.98741" lon="3.24418">
        <ele>799</ele>
        <time>2022-06-16T09:47:59Z</time>
      </trkpt>
      <trkpt lat="43.98738" lon="3.24415">
        <ele>799.4</ele>
        <time>2022-06-16T09:48:01Z</time>
      </trkpt>
      <trkpt lat="43.9873" lon="3.24409">
        <ele>800.2</ele>
        <time>2022-06-16T09:48:07Z</time>
      </trkpt>
      <trkpt lat="43.98725" lon="3.24406">
        <ele>800.8</ele>
        <time>2022-06-16T09:48:10Z</time>
      </trkpt>
      <trkpt lat="43.98719" lon="3.24399">
        <ele>801.2</ele>
        <time>2022-06-16T09:48:15Z</time>
      </trkpt>
      <trkpt lat="43.98715" lon="3.24397">
        <ele>801.6</ele>
        <time>2022-06-16T09:48:17Z</time>
      </trkpt>
      <trkpt lat="43.98707" lon="3.24393">
        <ele>802.4</ele>
        <time>2022-06-16T09:48:22Z</time>
      </trkpt>
      <trkpt lat="43.98699" lon="3.24389">
        <ele>803.2</ele>
        <time>2022-06-16T09:48:26Z</time>
      </trkpt>
      <trkpt lat="43.98698" lon="3.24388">
        <ele>803.2</ele>
        <time>2022-06-16T09:48:27Z</time>
      </trkpt>
      <trkpt lat="43.98685" lon="3.24384">
        <ele>804.6</ele>
        <time>2022-06-16T09:48:35Z</time>
      </trkpt>
      <trkpt lat="43.98675" lon="3.24382">
        <ele>805.6</ele>
        <time>2022-06-16T09:48:42Z</time>
      </trkpt>
      <trkpt lat="43.98673" lon="3.24382">
        <ele>805.8</ele>
        <time>2022-06-16T09:48:43Z</time>
      </trkpt>
      <trkpt lat="43.98659" lon="3.2438">
        <ele>806.6</ele>
        <time>2022-06-16T09:48:52Z</time>
      </trkpt>
      <trkpt lat="43.98657" lon="3.24379">
        <ele>806.8</ele>
        <time>2022-06-16T09:48:53Z</time>
      </trkpt>
      <trkpt lat="43.98643" lon="3.24378">
        <ele>807.6</ele>
        <time>2022-06-16T09:49:02Z</time>
      </trkpt>
      <trkpt lat="43.98641" lon="3.24377">
        <ele>807.8</ele>
        <time>2022-06-16T09:49:03Z</time>
      </trkpt>
      <trkpt lat="43.98628" lon="3.24375">
        <ele>808.8</ele>
        <time>2022-06-16T09:49:10Z</time>
      </trkpt>
      <trkpt lat="43.98626" lon="3.24374">
        <ele>809</ele>
        <time>2022-06-16T09:49:11Z</time>
      </trkpt>
      <trkpt lat="43.98612" lon="3.24371">
        <ele>809.8</ele>
        <time>2022-06-16T09:49:18Z</time>
      </trkpt>
      <trkpt lat="43.9861" lon="3.2437">
        <ele>809.8</ele>
        <time>2022-06-16T09:49:19Z</time>
      </trkpt>
      <trkpt lat="43.98589" lon="3.24361">
        <ele>810.6</ele>
        <time>2022-06-16T09:49:28Z</time>
      </trkpt>
      <trkpt lat="43.98578" lon="3.2435">
        <ele>810.8</ele>
        <time>2022-06-16T09:49:33Z</time>
      </trkpt>
      <trkpt lat="43.98571" lon="3.24341">
        <ele>811</ele>
        <time>2022-06-16T09:49:36Z</time>
      </trkpt>
      <trkpt lat="43.98565" lon="3.24324">
        <ele>811</ele>
        <time>2022-06-16T09:49:40Z</time>
      </trkpt>
      <trkpt lat="43.98557" lon="3.24284">
        <ele>811</ele>
        <time>2022-06-16T09:49:49Z</time>
      </trkpt>
      <trkpt lat="43.98546" lon="3.24239">
        <ele>810.4</ele>
        <time>2022-06-16T09:49:58Z</time>
      </trkpt>
      <trkpt lat="43.98541" lon="3.2422">
        <ele>810</ele>
        <time>2022-06-16T09:50:02Z</time>
      </trkpt>
      <trkpt lat="43.98537" lon="3.24203">
        <ele>809.8</ele>
        <time>2022-06-16T09:50:06Z</time>
      </trkpt>
      <trkpt lat="43.98534" lon="3.24189">
        <ele>809.8</ele>
        <time>2022-06-16T09:50:11Z</time>
      </trkpt>
      <trkpt lat="43.98534" lon="3.24189">
        <ele>809.8</ele>
        <time>2022-06-16T09:50:12Z</time>
      </trkpt>
      <trkpt lat="43.98534" lon="3.24189">
        <ele>809.4</ele>
        <time>2022-06-16T09:50:20Z</time>
      </trkpt>
      <trkpt lat="43.98534" lon="3.24189">
        <ele>809.6</ele>
        <time>2022-06-16T09:50:32Z</time>
      </trkpt>
      <trkpt lat="43.98534" lon="3.24189">
        <ele>809.4</ele>
        <time>2022-06-16T09:50:54Z</time>
      </trkpt>
      <trkpt lat="43.98534" lon="3.24189">
        <ele>809.4</ele>
        <time>2022-06-16T09:51:45Z</time>
      </trkpt>
      <trkpt lat="43.98534" lon="3.24189">
        <ele>809.2</ele>
        <time>2022-06-16T09:51:53Z</time>
      </trkpt>
      <trkpt lat="43.98534" lon="3.24189">
        <ele>809.2</ele>
        <time>2022-06-16T09:52:54Z</time>
      </trkpt>
      <trkpt lat="43.98534" lon="3.24189">
        <ele>809.4</ele>
        <time>2022-06-16T09:53:05Z</time>
      </trkpt>
      <trkpt lat="43.98532" lon="3.24185">
        <ele>809.4</ele>
        <time>2022-06-16T09:53:11Z</time>
      </trkpt>
      <trkpt lat="43.98531" lon="3.24182">
        <ele>809.4</ele>
        <time>2022-06-16T09:53:12Z</time>
      </trkpt>
      <trkpt lat="43.98525" lon="3.24165">
        <ele>809.4</ele>
        <time>2022-06-16T09:53:17Z</time>
      </trkpt>
      <trkpt lat="43.98523" lon="3.24156">
        <ele>809.4</ele>
        <time>2022-06-16T09:53:20Z</time>
      </trkpt>
      <trkpt lat="43.98521" lon="3.24148">
        <ele>809.4</ele>
        <time>2022-06-16T09:53:22Z</time>
      </trkpt>
      <trkpt lat="43.98514" lon="3.24119">
        <ele>809.2</ele>
        <time>2022-06-16T09:53:28Z</time>
      </trkpt>
      <trkpt lat="43.9851" lon="3.24082">
        <ele>808.8</ele>
        <time>2022-06-16T09:53:34Z</time>
      </trkpt>
      <trkpt lat="43.98509" lon="3.24068">
        <ele>808.4</ele>
        <time>2022-06-16T09:53:36Z</time>
      </trkpt>
      <trkpt lat="43.985" lon="3.2405">
        <ele>808.2</ele>
        <time>2022-06-16T09:53:38Z</time>
      </trkpt>
      <trkpt lat="43.9849" lon="3.24002">
        <ele>807.4</ele>
        <time>2022-06-16T09:53:42Z</time>
      </trkpt>
      <trkpt lat="43.98492" lon="3.23955">
        <ele>806</ele>
        <time>2022-06-16T09:53:47Z</time>
      </trkpt>
      <trkpt lat="43.98491" lon="3.23945">
        <ele>805.4</ele>
        <time>2022-06-16T09:53:48Z</time>
      </trkpt>
      <trkpt lat="43.9849" lon="3.23926">
        <ele>804.6</ele>
        <time>2022-06-16T09:53:50Z</time>
      </trkpt>
      <trkpt lat="43.98484" lon="3.23888">
        <ele>803.4</ele>
        <time>2022-06-16T09:53:54Z</time>
      </trkpt>
      <trkpt lat="43.98481" lon="3.23869">
        <ele>803</ele>
        <time>2022-06-16T09:53:56Z</time>
      </trkpt>
      <trkpt lat="43.98479" lon="3.23861">
        <ele>802.2</ele>
        <time>2022-06-16T09:53:57Z</time>
      </trkpt>
      <trkpt lat="43.98473" lon="3.23836">
        <ele>801.4</ele>
        <time>2022-06-16T09:54:00Z</time>
      </trkpt>
      <trkpt lat="43.98469" lon="3.2382">
        <ele>801</ele>
        <time>2022-06-16T09:54:02Z</time>
      </trkpt>
      <trkpt lat="43.98463" lon="3.238">
        <ele>800.4</ele>
        <time>2022-06-16T09:54:05Z</time>
      </trkpt>
      <trkpt lat="43.9846" lon="3.23794">
        <ele>800.4</ele>
        <time>2022-06-16T09:54:06Z</time>
      </trkpt>
      <trkpt lat="43.98441" lon="3.2376">
        <ele>800.2</ele>
        <time>2022-06-16T09:54:13Z</time>
      </trkpt>
      <trkpt lat="43.98423" lon="3.23736">
        <ele>800.2</ele>
        <time>2022-06-16T09:54:20Z</time>
      </trkpt>
      <trkpt lat="43.98401" lon="3.2371">
        <ele>800.8</ele>
        <time>2022-06-16T09:54:28Z</time>
      </trkpt>
      <trkpt lat="43.98389" lon="3.23698">
        <ele>801.2</ele>
        <time>2022-06-16T09:54:33Z</time>
      </trkpt>
      <trkpt lat="43.98387" lon="3.23697">
        <ele>801.2</ele>
        <time>2022-06-16T09:54:34Z</time>
      </trkpt>
      <trkpt lat="43.98384" lon="3.23699">
        <ele>801.4</ele>
        <time>2022-06-16T09:54:36Z</time>
      </trkpt>
      <trkpt lat="43.98383" lon="3.23703">
        <ele>801.4</ele>
        <time>2022-06-16T09:54:38Z</time>
      </trkpt>
      <trkpt lat="43.98384" lon="3.23705">
        <ele>801.4</ele>
        <time>2022-06-16T09:54:39Z</time>
      </trkpt>
      <trkpt lat="43.98385" lon="3.23708">
        <ele>801.4</ele>
        <time>2022-06-16T09:54:40Z</time>
      </trkpt>
      <trkpt lat="43.98395" lon="3.23719">
        <ele>801</ele>
        <time>2022-06-16T09:54:43Z</time>
      </trkpt>
      <trkpt lat="43.98398" lon="3.23724">
        <ele>800.6</ele>
        <time>2022-06-16T09:54:44Z</time>
      </trkpt>
      <trkpt lat="43.98404" lon="3.23735">
        <ele>799.8</ele>
        <time>2022-06-16T09:54:46Z</time>
      </trkpt>
      <trkpt lat="43.98407" lon="3.23741">
        <ele>799.6</ele>
        <time>2022-06-16T09:54:47Z</time>
      </trkpt>
      <trkpt lat="43.9841" lon="3.23748">
        <ele>799.6</ele>
        <time>2022-06-16T09:54:48Z</time>
      </trkpt>
      <trkpt lat="43.98413" lon="3.23754">
        <ele>799.2</ele>
        <time>2022-06-16T09:54:49Z</time>
      </trkpt>
      <trkpt lat="43.98416" lon="3.2376">
        <ele>798.8</ele>
        <time>2022-06-16T09:54:50Z</time>
      </trkpt>
      <trkpt lat="43.98419" lon="3.23768">
        <ele>798.6</ele>
        <time>2022-06-16T09:54:51Z</time>
      </trkpt>
      <trkpt lat="43.98423" lon="3.23783">
        <ele>797.4</ele>
        <time>2022-06-16T09:54:53Z</time>
      </trkpt>
      <trkpt lat="43.98425" lon="3.23792">
        <ele>796.6</ele>
        <time>2022-06-16T09:54:54Z</time>
      </trkpt>
      <trkpt lat="43.98427" lon="3.238">
        <ele>796.2</ele>
        <time>2022-06-16T09:54:55Z</time>
      </trkpt>
      <trkpt lat="43.98429" lon="3.2381">
        <ele>795</ele>
        <time>2022-06-16T09:54:56Z</time>
      </trkpt>
      <trkpt lat="43.98431" lon="3.23821">
        <ele>794.6</ele>
        <time>2022-06-16T09:54:57Z</time>
      </trkpt>
      <trkpt lat="43.98433" lon="3.23833">
        <ele>793.6</ele>
        <time>2022-06-16T09:54:58Z</time>
      </trkpt>
      <trkpt lat="43.98435" lon="3.23856">
        <ele>792</ele>
        <time>2022-06-16T09:55:00Z</time>
      </trkpt>
      <trkpt lat="43.98439" lon="3.23874">
        <ele>791</ele>
        <time>2022-06-16T09:55:02Z</time>
      </trkpt>
      <trkpt lat="43.9844" lon="3.23882">
        <ele>790.4</ele>
        <time>2022-06-16T09:55:03Z</time>
      </trkpt>
      <trkpt lat="43.98441" lon="3.23891">
        <ele>790.2</ele>
        <time>2022-06-16T09:55:04Z</time>
      </trkpt>
      <trkpt lat="43.98439" lon="3.23919">
        <ele>789</ele>
        <time>2022-06-16T09:55:07Z</time>
      </trkpt>
      <trkpt lat="43.98438" lon="3.23929">
        <ele>788.8</ele>
        <time>2022-06-16T09:55:08Z</time>
      </trkpt>
      <trkpt lat="43.98435" lon="3.23938">
        <ele>787.8</ele>
        <time>2022-06-16T09:55:09Z</time>
      </trkpt>
      <trkpt lat="43.98434" lon="3.23946">
        <ele>787.4</ele>
        <time>2022-06-16T09:55:10Z</time>
      </trkpt>
      <trkpt lat="43.98432" lon="3.23953">
        <ele>786.4</ele>
        <time>2022-06-16T09:55:11Z</time>
      </trkpt>
      <trkpt lat="43.98426" lon="3.23968">
        <ele>785.4</ele>
        <time>2022-06-16T09:55:13Z</time>
      </trkpt>
      <trkpt lat="43.98423" lon="3.23975">
        <ele>784.8</ele>
        <time>2022-06-16T09:55:14Z</time>
      </trkpt>
      <trkpt lat="43.98417" lon="3.2399">
        <ele>783</ele>
        <time>2022-06-16T09:55:16Z</time>
      </trkpt>
      <trkpt lat="43.9841" lon="3.24003">
        <ele>782</ele>
        <time>2022-06-16T09:55:18Z</time>
      </trkpt>
      <trkpt lat="43.98406" lon="3.24009">
        <ele>781.4</ele>
        <time>2022-06-16T09:55:19Z</time>
      </trkpt>
      <trkpt lat="43.98398" lon="3.24019">
        <ele>780.6</ele>
        <time>2022-06-16T09:55:21Z</time>
      </trkpt>
      <trkpt lat="43.98395" lon="3.24025">
        <ele>780</ele>
        <time>2022-06-16T09:55:22Z</time>
      </trkpt>
      <trkpt lat="43.98392" lon="3.24031">
        <ele>778.6</ele>
        <time>2022-06-16T09:55:23Z</time>
      </trkpt>
      <trkpt lat="43.98387" lon="3.24042">
        <ele>777.2</ele>
        <time>2022-06-16T09:55:25Z</time>
      </trkpt>
      <trkpt lat="43.98383" lon="3.24054">
        <ele>775.8</ele>
        <time>2022-06-16T09:55:27Z</time>
      </trkpt>
      <trkpt lat="43.98378" lon="3.24065">
        <ele>774.8</ele>
        <time>2022-06-16T09:55:29Z</time>
      </trkpt>
      <trkpt lat="43.9837" lon="3.24073">
        <ele>773.4</ele>
        <time>2022-06-16T09:55:32Z</time>
      </trkpt>
      <trkpt lat="43.98366" lon="3.2407">
        <ele>771.8</ele>
        <time>2022-06-16T09:55:34Z</time>
      </trkpt>
      <trkpt lat="43.98365" lon="3.24067">
        <ele>771.4</ele>
        <time>2022-06-16T09:55:35Z</time>
      </trkpt>
      <trkpt lat="43.98364" lon="3.24063">
        <ele>770.6</ele>
        <time>2022-06-16T09:55:36Z</time>
      </trkpt>
      <trkpt lat="43.98364" lon="3.24059">
        <ele>770.2</ele>
        <time>2022-06-16T09:55:37Z</time>
      </trkpt>
      <trkpt lat="43.98367" lon="3.24047">
        <ele>769.4</ele>
        <time>2022-06-16T09:55:39Z</time>
      </trkpt>
      <trkpt lat="43.98369" lon="3.24042">
        <ele>769.4</ele>
        <time>2022-06-16T09:55:40Z</time>
      </trkpt>
      <trkpt lat="43.98371" lon="3.24035">
        <ele>769</ele>
        <time>2022-06-16T09:55:41Z</time>
      </trkpt>
      <trkpt lat="43.98376" lon="3.24015">
        <ele>768.2</ele>
        <time>2022-06-16T09:55:44Z</time>
      </trkpt>
      <trkpt lat="43.98377" lon="3.24009">
        <ele>767.8</ele>
        <time>2022-06-16T09:55:45Z</time>
      </trkpt>
      <trkpt lat="43.98382" lon="3.23991">
        <ele>767.6</ele>
        <time>2022-06-16T09:55:48Z</time>
      </trkpt>
      <trkpt lat="43.98383" lon="3.23979">
        <ele>766.4</ele>
        <time>2022-06-16T09:55:50Z</time>
      </trkpt>
      <trkpt lat="43.98385" lon="3.23968">
        <ele>765.6</ele>
        <time>2022-06-16T09:55:52Z</time>
      </trkpt>
      <trkpt lat="43.98384" lon="3.23963">
        <ele>764.6</ele>
        <time>2022-06-16T09:55:53Z</time>
      </trkpt>
      <trkpt lat="43.98381" lon="3.23956">
        <ele>764.4</ele>
        <time>2022-06-16T09:55:54Z</time>
      </trkpt>
      <trkpt lat="43.98372" lon="3.23942">
        <ele>763.8</ele>
        <time>2022-06-16T09:55:56Z</time>
      </trkpt>
      <trkpt lat="43.98371" lon="3.23931">
        <ele>763.4</ele>
        <time>2022-06-16T09:55:57Z</time>
      </trkpt>
      <trkpt lat="43.98368" lon="3.2391">
        <ele>762.8</ele>
        <time>2022-06-16T09:56:00Z</time>
      </trkpt>
      <trkpt lat="43.9836" lon="3.23899">
        <ele>762.2</ele>
        <time>2022-06-16T09:56:02Z</time>
      </trkpt>
      <trkpt lat="43.98355" lon="3.23895">
        <ele>761.6</ele>
        <time>2022-06-16T09:56:03Z</time>
      </trkpt>
      <trkpt lat="43.9835" lon="3.23893">
        <ele>761</ele>
        <time>2022-06-16T09:56:04Z</time>
      </trkpt>
      <trkpt lat="43.98346" lon="3.23893">
        <ele>760.6</ele>
        <time>2022-06-16T09:56:05Z</time>
      </trkpt>
      <trkpt lat="43.9834" lon="3.23894">
        <ele>759.6</ele>
        <time>2022-06-16T09:56:06Z</time>
      </trkpt>
      <trkpt lat="43.98337" lon="3.23896">
        <ele>759.2</ele>
        <time>2022-06-16T09:56:07Z</time>
      </trkpt>
      <trkpt lat="43.98333" lon="3.23899">
        <ele>758.4</ele>
        <time>2022-06-16T09:56:08Z</time>
      </trkpt>
      <trkpt lat="43.9832" lon="3.23912">
        <ele>757.2</ele>
        <time>2022-06-16T09:56:11Z</time>
      </trkpt>
      <trkpt lat="43.9831" lon="3.23921">
        <ele>755.8</ele>
        <time>2022-06-16T09:56:13Z</time>
      </trkpt>
      <trkpt lat="43.98306" lon="3.23926">
        <ele>755.4</ele>
        <time>2022-06-16T09:56:14Z</time>
      </trkpt>
      <trkpt lat="43.98302" lon="3.23933">
        <ele>754.4</ele>
        <time>2022-06-16T09:56:15Z</time>
      </trkpt>
      <trkpt lat="43.98297" lon="3.23947">
        <ele>753.4</ele>
        <time>2022-06-16T09:56:17Z</time>
      </trkpt>
      <trkpt lat="43.98294" lon="3.23956">
        <ele>752.4</ele>
        <time>2022-06-16T09:56:18Z</time>
      </trkpt>
      <trkpt lat="43.98292" lon="3.23964">
        <ele>752</ele>
        <time>2022-06-16T09:56:19Z</time>
      </trkpt>
      <trkpt lat="43.9829" lon="3.23973">
        <ele>750.8</ele>
        <time>2022-06-16T09:56:20Z</time>
      </trkpt>
      <trkpt lat="43.98283" lon="3.23989">
        <ele>749</ele>
        <time>2022-06-16T09:56:22Z</time>
      </trkpt>
      <trkpt lat="43.98277" lon="3.23999">
        <ele>747.2</ele>
        <time>2022-06-16T09:56:24Z</time>
      </trkpt>
      <trkpt lat="43.98274" lon="3.24001">
        <ele>746</ele>
        <time>2022-06-16T09:56:25Z</time>
      </trkpt>
      <trkpt lat="43.98267" lon="3.24002">
        <ele>744.8</ele>
        <time>2022-06-16T09:56:27Z</time>
      </trkpt>
      <trkpt lat="43.98256" lon="3.23998">
        <ele>743.6</ele>
        <time>2022-06-16T09:56:30Z</time>
      </trkpt>
      <trkpt lat="43.98253" lon="3.23994">
        <ele>743.2</ele>
        <time>2022-06-16T09:56:31Z</time>
      </trkpt>
      <trkpt lat="43.98246" lon="3.23986">
        <ele>742.6</ele>
        <time>2022-06-16T09:56:33Z</time>
      </trkpt>
      <trkpt lat="43.98239" lon="3.23978">
        <ele>742</ele>
        <time>2022-06-16T09:56:35Z</time>
      </trkpt>
      <trkpt lat="43.98231" lon="3.23971">
        <ele>741.2</ele>
        <time>2022-06-16T09:56:37Z</time>
      </trkpt>
      <trkpt lat="43.98198" lon="3.23946">
        <ele>739.8</ele>
        <time>2022-06-16T09:56:43Z</time>
      </trkpt>
      <trkpt lat="43.98173" lon="3.23932">
        <ele>738.6</ele>
        <time>2022-06-16T09:56:47Z</time>
      </trkpt>
      <trkpt lat="43.9816" lon="3.23925">
        <ele>737.8</ele>
        <time>2022-06-16T09:56:49Z</time>
      </trkpt>
      <trkpt lat="43.98153" lon="3.23922">
        <ele>737.4</ele>
        <time>2022-06-16T09:56:50Z</time>
      </trkpt>
      <trkpt lat="43.98131" lon="3.23916">
        <ele>736.2</ele>
        <time>2022-06-16T09:56:53Z</time>
      </trkpt>
      <trkpt lat="43.98116" lon="3.23914">
        <ele>735.6</ele>
        <time>2022-06-16T09:56:55Z</time>
      </trkpt>
      <trkpt lat="43.98109" lon="3.23912">
        <ele>735.2</ele>
        <time>2022-06-16T09:56:56Z</time>
      </trkpt>
      <trkpt lat="43.98101" lon="3.23911">
        <ele>734.8</ele>
        <time>2022-06-16T09:56:57Z</time>
      </trkpt>
      <trkpt lat="43.98086" lon="3.23908">
        <ele>733.6</ele>
        <time>2022-06-16T09:56:59Z</time>
      </trkpt>
      <trkpt lat="43.98062" lon="3.23904">
        <ele>732.6</ele>
        <time>2022-06-16T09:57:02Z</time>
      </trkpt>
      <trkpt lat="43.98046" lon="3.23901">
        <ele>731.2</ele>
        <time>2022-06-16T09:57:04Z</time>
      </trkpt>
      <trkpt lat="43.98038" lon="3.239">
        <ele>730.6</ele>
        <time>2022-06-16T09:57:05Z</time>
      </trkpt>
      <trkpt lat="43.98029" lon="3.23899">
        <ele>730</ele>
        <time>2022-06-16T09:57:06Z</time>
      </trkpt>
      <trkpt lat="43.98013" lon="3.23897">
        <ele>729</ele>
        <time>2022-06-16T09:57:08Z</time>
      </trkpt>
      <trkpt lat="43.97997" lon="3.23895">
        <ele>727.2</ele>
        <time>2022-06-16T09:57:10Z</time>
      </trkpt>
      <trkpt lat="43.97965" lon="3.23891">
        <ele>725.6</ele>
        <time>2022-06-16T09:57:14Z</time>
      </trkpt>
      <trkpt lat="43.97948" lon="3.23888">
        <ele>724.6</ele>
        <time>2022-06-16T09:57:16Z</time>
      </trkpt>
      <trkpt lat="43.97932" lon="3.23886">
        <ele>723.2</ele>
        <time>2022-06-16T09:57:18Z</time>
      </trkpt>
      <trkpt lat="43.97916" lon="3.23882">
        <ele>721.8</ele>
        <time>2022-06-16T09:57:20Z</time>
      </trkpt>
      <trkpt lat="43.97909" lon="3.23879">
        <ele>721.2</ele>
        <time>2022-06-16T09:57:21Z</time>
      </trkpt>
      <trkpt lat="43.97902" lon="3.23875">
        <ele>720.8</ele>
        <time>2022-06-16T09:57:22Z</time>
      </trkpt>
      <trkpt lat="43.97888" lon="3.23866">
        <ele>718.8</ele>
        <time>2022-06-16T09:57:24Z</time>
      </trkpt>
      <trkpt lat="43.97875" lon="3.23853">
        <ele>718</ele>
        <time>2022-06-16T09:57:26Z</time>
      </trkpt>
      <trkpt lat="43.97869" lon="3.23847">
        <ele>717.8</ele>
        <time>2022-06-16T09:57:27Z</time>
      </trkpt>
      <trkpt lat="43.97857" lon="3.23832">
        <ele>717</ele>
        <time>2022-06-16T09:57:29Z</time>
      </trkpt>
      <trkpt lat="43.97852" lon="3.23823">
        <ele>716.4</ele>
        <time>2022-06-16T09:57:30Z</time>
      </trkpt>
      <trkpt lat="43.97848" lon="3.23813">
        <ele>715.8</ele>
        <time>2022-06-16T09:57:31Z</time>
      </trkpt>
      <trkpt lat="43.97841" lon="3.23791">
        <ele>714.8</ele>
        <time>2022-06-16T09:57:33Z</time>
      </trkpt>
      <trkpt lat="43.97837" lon="3.23768">
        <ele>714.4</ele>
        <time>2022-06-16T09:57:35Z</time>
      </trkpt>
      <trkpt lat="43.97832" lon="3.23747">
        <ele>713.4</ele>
        <time>2022-06-16T09:57:37Z</time>
      </trkpt>
      <trkpt lat="43.97828" lon="3.23727">
        <ele>712.2</ele>
        <time>2022-06-16T09:57:39Z</time>
      </trkpt>
      <trkpt lat="43.97824" lon="3.23708">
        <ele>711.2</ele>
        <time>2022-06-16T09:57:41Z</time>
      </trkpt>
      <trkpt lat="43.97822" lon="3.23699">
        <ele>711</ele>
        <time>2022-06-16T09:57:42Z</time>
      </trkpt>
      <trkpt lat="43.97814" lon="3.23678">
        <ele>709.8</ele>
        <time>2022-06-16T09:57:45Z</time>
      </trkpt>
      <trkpt lat="43.97812" lon="3.23671">
        <ele>709.4</ele>
        <time>2022-06-16T09:57:46Z</time>
      </trkpt>
      <trkpt lat="43.97805" lon="3.2366">
        <ele>709</ele>
        <time>2022-06-16T09:57:48Z</time>
      </trkpt>
      <trkpt lat="43.978" lon="3.23655">
        <ele>708.4</ele>
        <time>2022-06-16T09:57:49Z</time>
      </trkpt>
      <trkpt lat="43.97781" lon="3.23637">
        <ele>707.4</ele>
        <time>2022-06-16T09:57:53Z</time>
      </trkpt>
      <trkpt lat="43.97772" lon="3.23631">
        <ele>706.8</ele>
        <time>2022-06-16T09:57:55Z</time>
      </trkpt>
      <trkpt lat="43.97768" lon="3.23629">
        <ele>706.2</ele>
        <time>2022-06-16T09:57:56Z</time>
      </trkpt>
      <trkpt lat="43.9776" lon="3.23624">
        <ele>705.6</ele>
        <time>2022-06-16T09:57:59Z</time>
      </trkpt>
      <trkpt lat="43.97756" lon="3.23622">
        <ele>705.2</ele>
        <time>2022-06-16T09:58:02Z</time>
      </trkpt>
      <trkpt lat="43.97756" lon="3.23621">
        <ele>705.2</ele>
        <time>2022-06-16T09:58:04Z</time>
      </trkpt>
      <trkpt lat="43.97756" lon="3.23621">
        <ele>705</ele>
        <time>2022-06-16T09:58:11Z</time>
      </trkpt>
      <trkpt lat="43.97756" lon="3.23621">
        <ele>705</ele>
        <time>2022-06-16T09:58:17Z</time>
      </trkpt>
      <trkpt lat="43.97757" lon="3.23623">
        <ele>704.4</ele>
        <time>2022-06-16T09:58:27Z</time>
      </trkpt>
      <trkpt lat="43.97748" lon="3.23625">
        <ele>704.4</ele>
        <time>2022-06-16T09:58:31Z</time>
      </trkpt>
      <trkpt lat="43.97729" lon="3.23631">
        <ele>704.4</ele>
        <time>2022-06-16T09:58:36Z</time>
      </trkpt>
      <trkpt lat="43.9771" lon="3.23637">
        <ele>704.2</ele>
        <time>2022-06-16T09:58:40Z</time>
      </trkpt>
      <trkpt lat="43.97701" lon="3.23639">
        <ele>704</ele>
        <time>2022-06-16T09:58:42Z</time>
      </trkpt>
      <trkpt lat="43.97676" lon="3.23643">
        <ele>703.4</ele>
        <time>2022-06-16T09:58:47Z</time>
      </trkpt>
      <trkpt lat="43.97672" lon="3.23643">
        <ele>703.2</ele>
        <time>2022-06-16T09:58:48Z</time>
      </trkpt>
      <trkpt lat="43.97667" lon="3.23643">
        <ele>703</ele>
        <time>2022-06-16T09:58:49Z</time>
      </trkpt>
      <trkpt lat="43.97662" lon="3.23644">
        <ele>702.8</ele>
        <time>2022-06-16T09:58:50Z</time>
      </trkpt>
      <trkpt lat="43.97657" lon="3.23644">
        <ele>702.6</ele>
        <time>2022-06-16T09:58:51Z</time>
      </trkpt>
      <trkpt lat="43.97643" lon="3.23646">
        <ele>702.4</ele>
        <time>2022-06-16T09:58:54Z</time>
      </trkpt>
      <trkpt lat="43.97635" lon="3.23649">
        <ele>702.4</ele>
        <time>2022-06-16T09:58:56Z</time>
      </trkpt>
      <trkpt lat="43.97606" lon="3.23656">
        <ele>702.2</ele>
        <time>2022-06-16T09:59:03Z</time>
      </trkpt>
      <trkpt lat="43.97584" lon="3.23661">
        <ele>702.2</ele>
        <time>2022-06-16T09:59:08Z</time>
      </trkpt>
      <trkpt lat="43.97567" lon="3.23659">
        <ele>701.6</ele>
        <time>2022-06-16T09:59:12Z</time>
      </trkpt>
      <trkpt lat="43.97546" lon="3.23647">
        <ele>701.2</ele>
        <time>2022-06-16T09:59:17Z</time>
      </trkpt>
      <trkpt lat="43.97523" lon="3.23641">
        <ele>700.8</ele>
        <time>2022-06-16T09:59:23Z</time>
      </trkpt>
      <trkpt lat="43.975" lon="3.23638">
        <ele>700.6</ele>
        <time>2022-06-16T09:59:30Z</time>
      </trkpt>
      <trkpt lat="43.97493" lon="3.23637">
        <ele>700.8</ele>
        <time>2022-06-16T09:59:32Z</time>
      </trkpt>
      <trkpt lat="43.97483" lon="3.23634">
        <ele>701</ele>
        <time>2022-06-16T09:59:35Z</time>
      </trkpt>
      <trkpt lat="43.97462" lon="3.2363">
        <ele>701.4</ele>
        <time>2022-06-16T09:59:41Z</time>
      </trkpt>
      <trkpt lat="43.97433" lon="3.23633">
        <ele>701.4</ele>
        <time>2022-06-16T09:59:49Z</time>
      </trkpt>
      <trkpt lat="43.9742" lon="3.23641">
        <ele>701.6</ele>
        <time>2022-06-16T09:59:53Z</time>
      </trkpt>
      <trkpt lat="43.97404" lon="3.23647">
        <ele>701.6</ele>
        <time>2022-06-16T09:59:58Z</time>
      </trkpt>
      <trkpt lat="43.97386" lon="3.2365">
        <ele>701.6</ele>
        <time>2022-06-16T10:00:03Z</time>
      </trkpt>
      <trkpt lat="43.97365" lon="3.23652">
        <ele>701.4</ele>
        <time>2022-06-16T10:00:08Z</time>
      </trkpt>
      <trkpt lat="43.97342" lon="3.23661">
        <ele>700.8</ele>
        <time>2022-06-16T10:00:14Z</time>
      </trkpt>
      <trkpt lat="43.97316" lon="3.23668">
        <ele>700.4</ele>
        <time>2022-06-16T10:00:19Z</time>
      </trkpt>
      <trkpt lat="43.97304" lon="3.23673">
        <ele>700.2</ele>
        <time>2022-06-16T10:00:22Z</time>
      </trkpt>
      <trkpt lat="43.973" lon="3.23674">
        <ele>700.2</ele>
        <time>2022-06-16T10:00:23Z</time>
      </trkpt>
      <trkpt lat="43.97297" lon="3.23676">
        <ele>700.2</ele>
        <time>2022-06-16T10:00:24Z</time>
      </trkpt>
      <trkpt lat="43.97281" lon="3.23677">
        <ele>700</ele>
        <time>2022-06-16T10:00:28Z</time>
      </trkpt>
      <trkpt lat="43.97275" lon="3.23676">
        <ele>700</ele>
        <time>2022-06-16T10:00:30Z</time>
      </trkpt>
      <trkpt lat="43.97266" lon="3.23667">
        <ele>699.8</ele>
        <time>2022-06-16T10:00:33Z</time>
      </trkpt>
      <trkpt lat="43.97242" lon="3.23648">
        <ele>699.4</ele>
        <time>2022-06-16T10:00:38Z</time>
      </trkpt>
      <trkpt lat="43.97237" lon="3.23646">
        <ele>699</ele>
        <time>2022-06-16T10:00:39Z</time>
      </trkpt>
      <trkpt lat="43.97227" lon="3.23643">
        <ele>698.8</ele>
        <time>2022-06-16T10:00:41Z</time>
      </trkpt>
      <trkpt lat="43.97223" lon="3.23644">
        <ele>698.6</ele>
        <time>2022-06-16T10:00:42Z</time>
      </trkpt>
      <trkpt lat="43.9722" lon="3.23652">
        <ele>698.4</ele>
        <time>2022-06-16T10:00:44Z</time>
      </trkpt>
      <trkpt lat="43.97219" lon="3.23656">
        <ele>698.2</ele>
        <time>2022-06-16T10:00:45Z</time>
      </trkpt>
      <trkpt lat="43.97216" lon="3.2367">
        <ele>698</ele>
        <time>2022-06-16T10:00:48Z</time>
      </trkpt>
      <trkpt lat="43.97214" lon="3.23674">
        <ele>697.8</ele>
        <time>2022-06-16T10:00:49Z</time>
      </trkpt>
      <trkpt lat="43.97209" lon="3.23696">
        <ele>697.6</ele>
        <time>2022-06-16T10:00:54Z</time>
      </trkpt>
      <trkpt lat="43.97201" lon="3.23715">
        <ele>697.8</ele>
        <time>2022-06-16T10:00:59Z</time>
      </trkpt>
      <trkpt lat="43.97194" lon="3.23739">
        <ele>697.8</ele>
        <time>2022-06-16T10:01:04Z</time>
      </trkpt>
      <trkpt lat="43.97185" lon="3.23767">
        <ele>697.8</ele>
        <time>2022-06-16T10:01:09Z</time>
      </trkpt>
      <trkpt lat="43.97184" lon="3.23773">
        <ele>697.8</ele>
        <time>2022-06-16T10:01:10Z</time>
      </trkpt>
      <trkpt lat="43.9718" lon="3.23787">
        <ele>697.8</ele>
        <time>2022-06-16T10:01:12Z</time>
      </trkpt>
      <trkpt lat="43.97174" lon="3.23809">
        <ele>697.4</ele>
        <time>2022-06-16T10:01:16Z</time>
      </trkpt>
      <trkpt lat="43.97167" lon="3.23832">
        <ele>697.4</ele>
        <time>2022-06-16T10:01:21Z</time>
      </trkpt>
      <trkpt lat="43.97162" lon="3.23853">
        <ele>697.4</ele>
        <time>2022-06-16T10:01:25Z</time>
      </trkpt>
      <trkpt lat="43.97148" lon="3.23897">
        <ele>697.4</ele>
        <time>2022-06-16T10:01:33Z</time>
      </trkpt>
      <trkpt lat="43.97141" lon="3.23912">
        <ele>697.4</ele>
        <time>2022-06-16T10:01:36Z</time>
      </trkpt>
      <trkpt lat="43.97139" lon="3.23923">
        <ele>697.4</ele>
        <time>2022-06-16T10:01:38Z</time>
      </trkpt>
      <trkpt lat="43.97137" lon="3.23933">
        <ele>697.2</ele>
        <time>2022-06-16T10:01:40Z</time>
      </trkpt>
      <trkpt lat="43.9713" lon="3.23958">
        <ele>697.2</ele>
        <time>2022-06-16T10:01:45Z</time>
      </trkpt>
      <trkpt lat="43.97116" lon="3.24002">
        <ele>697.2</ele>
        <time>2022-06-16T10:01:54Z</time>
      </trkpt>
      <trkpt lat="43.97114" lon="3.24008">
        <ele>697.2</ele>
        <time>2022-06-16T10:01:55Z</time>
      </trkpt>
      <trkpt lat="43.97106" lon="3.24039">
        <ele>697.4</ele>
        <time>2022-06-16T10:02:01Z</time>
      </trkpt>
      <trkpt lat="43.97102" lon="3.24048">
        <ele>697.4</ele>
        <time>2022-06-16T10:02:03Z</time>
      </trkpt>
      <trkpt lat="43.97093" lon="3.24077">
        <ele>697.6</ele>
        <time>2022-06-16T10:02:09Z</time>
      </trkpt>
      <trkpt lat="43.9708" lon="3.24114">
        <ele>697.4</ele>
        <time>2022-06-16T10:02:16Z</time>
      </trkpt>
      <trkpt lat="43.97076" lon="3.24124">
        <ele>697.4</ele>
        <time>2022-06-16T10:02:18Z</time>
      </trkpt>
      <trkpt lat="43.97074" lon="3.2413">
        <ele>697.4</ele>
        <time>2022-06-16T10:02:19Z</time>
      </trkpt>
      <trkpt lat="43.97069" lon="3.24154">
        <ele>697.4</ele>
        <time>2022-06-16T10:02:23Z</time>
      </trkpt>
      <trkpt lat="43.97066" lon="3.24164">
        <ele>697.4</ele>
        <time>2022-06-16T10:02:25Z</time>
      </trkpt>
      <trkpt lat="43.97047" lon="3.24219">
        <ele>697.6</ele>
        <time>2022-06-16T10:02:35Z</time>
      </trkpt>
      <trkpt lat="43.97022" lon="3.24276">
        <ele>697.4</ele>
        <time>2022-06-16T10:02:46Z</time>
      </trkpt>
      <trkpt lat="43.96995" lon="3.24328">
        <ele>697.8</ele>
        <time>2022-06-16T10:02:56Z</time>
      </trkpt>
      <trkpt lat="43.96962" lon="3.24379">
        <ele>698</ele>
        <time>2022-06-16T10:03:07Z</time>
      </trkpt>
      <trkpt lat="43.9693" lon="3.24423">
        <ele>698</ele>
        <time>2022-06-16T10:03:17Z</time>
      </trkpt>
      <trkpt lat="43.96924" lon="3.24431">
        <ele>698</ele>
        <time>2022-06-16T10:03:19Z</time>
      </trkpt>
      <trkpt lat="43.96914" lon="3.24442">
        <ele>697.8</ele>
        <time>2022-06-16T10:03:22Z</time>
      </trkpt>
      <trkpt lat="43.96886" lon="3.24482">
        <ele>697.6</ele>
        <time>2022-06-16T10:03:31Z</time>
      </trkpt>
      <trkpt lat="43.96883" lon="3.24486">
        <ele>697.8</ele>
        <time>2022-06-16T10:03:32Z</time>
      </trkpt>
      <trkpt lat="43.96876" lon="3.24493">
        <ele>698</ele>
        <time>2022-06-16T10:03:34Z</time>
      </trkpt>
      <trkpt lat="43.96866" lon="3.24507">
        <ele>698</ele>
        <time>2022-06-16T10:03:37Z</time>
      </trkpt>
      <trkpt lat="43.96861" lon="3.24517">
        <ele>698.2</ele>
        <time>2022-06-16T10:03:39Z</time>
      </trkpt>
      <trkpt lat="43.9685" lon="3.24534">
        <ele>698.4</ele>
        <time>2022-06-16T10:03:43Z</time>
      </trkpt>
      <trkpt lat="43.96843" lon="3.24541">
        <ele>698.6</ele>
        <time>2022-06-16T10:03:45Z</time>
      </trkpt>
      <trkpt lat="43.9683" lon="3.24557">
        <ele>698.8</ele>
        <time>2022-06-16T10:03:49Z</time>
      </trkpt>
      <trkpt lat="43.96791" lon="3.24609">
        <ele>698.6</ele>
        <time>2022-06-16T10:04:01Z</time>
      </trkpt>
      <trkpt lat="43.96759" lon="3.2465">
        <ele>698.8</ele>
        <time>2022-06-16T10:04:11Z</time>
      </trkpt>
      <trkpt lat="43.96743" lon="3.24669">
        <ele>698.8</ele>
        <time>2022-06-16T10:04:16Z</time>
      </trkpt>
      <trkpt lat="43.96733" lon="3.24684">
        <ele>698.8</ele>
        <time>2022-06-16T10:04:20Z</time>
      </trkpt>
      <trkpt lat="43.96715" lon="3.24709">
        <ele>699.2</ele>
        <time>2022-06-16T10:04:27Z</time>
      </trkpt>
      <trkpt lat="43.967" lon="3.24732">
        <ele>699.2</ele>
        <time>2022-06-16T10:04:34Z</time>
      </trkpt>
      <trkpt lat="43.96688" lon="3.24749">
        <ele>699.6</ele>
        <time>2022-06-16T10:04:40Z</time>
      </trkpt>
      <trkpt lat="43.96685" lon="3.24752">
        <ele>699.6</ele>
        <time>2022-06-16T10:04:41Z</time>
      </trkpt>
      <trkpt lat="43.96683" lon="3.24755">
        <ele>699.8</ele>
        <time>2022-06-16T10:04:42Z</time>
      </trkpt>
      <trkpt lat="43.96667" lon="3.24775">
        <ele>700</ele>
        <time>2022-06-16T10:04:48Z</time>
      </trkpt>
      <trkpt lat="43.96647" lon="3.24807">
        <ele>700</ele>
        <time>2022-06-16T10:04:55Z</time>
      </trkpt>
      <trkpt lat="43.96621" lon="3.24853">
        <ele>700.6</ele>
        <time>2022-06-16T10:05:04Z</time>
      </trkpt>
      <trkpt lat="43.96604" lon="3.24888">
        <ele>700.4</ele>
        <time>2022-06-16T10:05:11Z</time>
      </trkpt>
      <trkpt lat="43.96601" lon="3.24898">
        <ele>700.2</ele>
        <time>2022-06-16T10:05:13Z</time>
      </trkpt>
      <trkpt lat="43.96596" lon="3.24912">
        <ele>700.2</ele>
        <time>2022-06-16T10:05:16Z</time>
      </trkpt>
      <trkpt lat="43.96582" lon="3.24952">
        <ele>700.4</ele>
        <time>2022-06-16T10:05:23Z</time>
      </trkpt>
      <trkpt lat="43.96581" lon="3.24964">
        <ele>700.8</ele>
        <time>2022-06-16T10:05:26Z</time>
      </trkpt>
      <trkpt lat="43.9658" lon="3.24966">
        <ele>700.8</ele>
        <time>2022-06-16T10:05:27Z</time>
      </trkpt>
      <trkpt lat="43.96579" lon="3.24967">
        <ele>700.8</ele>
        <time>2022-06-16T10:05:30Z</time>
      </trkpt>
      <trkpt lat="43.96579" lon="3.24966">
        <ele>700.8</ele>
        <time>2022-06-16T10:05:32Z</time>
      </trkpt>
      <trkpt lat="43.96579" lon="3.24962">
        <ele>700.8</ele>
        <time>2022-06-16T10:05:35Z</time>
      </trkpt>
      <trkpt lat="43.96579" lon="3.24962">
        <ele>700.6</ele>
        <time>2022-06-16T10:05:40Z</time>
      </trkpt>
      <trkpt lat="43.96576" lon="3.24963">
        <ele>700.6</ele>
        <time>2022-06-16T10:05:45Z</time>
      </trkpt>
      <trkpt lat="43.96572" lon="3.24965">
        <ele>700.6</ele>
        <time>2022-06-16T10:05:47Z</time>
      </trkpt>
      <trkpt lat="43.96571" lon="3.24967">
        <ele>700.6</ele>
        <time>2022-06-16T10:05:48Z</time>
      </trkpt>
      <trkpt lat="43.9657" lon="3.24973">
        <ele>700</ele>
        <time>2022-06-16T10:05:51Z</time>
      </trkpt>
      <trkpt lat="43.9657" lon="3.24973">
        <ele>699.8</ele>
        <time>2022-06-16T10:05:52Z</time>
      </trkpt>
      <trkpt lat="43.9657" lon="3.24974">
        <ele>698.2</ele>
        <time>2022-06-16T10:05:55Z</time>
      </trkpt>
      <trkpt lat="43.96569" lon="3.24978">
        <ele>697.8</ele>
        <time>2022-06-16T10:05:57Z</time>
      </trkpt>
      <trkpt lat="43.96568" lon="3.24981">
        <ele>697.6</ele>
        <time>2022-06-16T10:05:58Z</time>
      </trkpt>
      <trkpt lat="43.96565" lon="3.24988">
        <ele>697</ele>
        <time>2022-06-16T10:06:00Z</time>
      </trkpt>
      <trkpt lat="43.96564" lon="3.24993">
        <ele>696.8</ele>
        <time>2022-06-16T10:06:01Z</time>
      </trkpt>
      <trkpt lat="43.96558" lon="3.25013">
        <ele>696</ele>
        <time>2022-06-16T10:06:05Z</time>
      </trkpt>
      <trkpt lat="43.96557" lon="3.25016">
        <ele>696</ele>
        <time>2022-06-16T10:06:06Z</time>
      </trkpt>
      <trkpt lat="43.96556" lon="3.25018">
        <ele>695.8</ele>
        <time>2022-06-16T10:06:07Z</time>
      </trkpt>
      <trkpt lat="43.96555" lon="3.2502">
        <ele>695.6</ele>
        <time>2022-06-16T10:06:08Z</time>
      </trkpt>
      <trkpt lat="43.96548" lon="3.25027">
        <ele>695.4</ele>
        <time>2022-06-16T10:06:12Z</time>
      </trkpt>
      <trkpt lat="43.96539" lon="3.25033">
        <ele>694.6</ele>
        <time>2022-06-16T10:06:15Z</time>
      </trkpt>
      <trkpt lat="43.96535" lon="3.25035">
        <ele>694.2</ele>
        <time>2022-06-16T10:06:17Z</time>
      </trkpt>
      <trkpt lat="43.96531" lon="3.25039">
        <ele>693.8</ele>
        <time>2022-06-16T10:06:22Z</time>
      </trkpt>
      <trkpt lat="43.96531" lon="3.2504">
        <ele>693.6</ele>
        <time>2022-06-16T10:06:23Z</time>
      </trkpt>
      <trkpt lat="43.96529" lon="3.25044">
        <ele>693.6</ele>
        <time>2022-06-16T10:06:25Z</time>
      </trkpt>
      <trkpt lat="43.96527" lon="3.25052">
        <ele>693.6</ele>
        <time>2022-06-16T10:06:27Z</time>
      </trkpt>
      <trkpt lat="43.96525" lon="3.25056">
        <ele>692.4</ele>
        <time>2022-06-16T10:06:32Z</time>
      </trkpt>
      <trkpt lat="43.96525" lon="3.25057">
        <ele>692.2</ele>
        <time>2022-06-16T10:06:33Z</time>
      </trkpt>
      <trkpt lat="43.96526" lon="3.25064">
        <ele>691.4</ele>
        <time>2022-06-16T10:06:40Z</time>
      </trkpt>
      <trkpt lat="43.96527" lon="3.25067">
        <ele>691.2</ele>
        <time>2022-06-16T10:06:41Z</time>
      </trkpt>
      <trkpt lat="43.96528" lon="3.2507">
        <ele>691</ele>
        <time>2022-06-16T10:06:42Z</time>
      </trkpt>
      <trkpt lat="43.96528" lon="3.25078">
        <ele>690.6</ele>
        <time>2022-06-16T10:06:44Z</time>
      </trkpt>
      <trkpt lat="43.96528" lon="3.25089">
        <ele>690.2</ele>
        <time>2022-06-16T10:06:46Z</time>
      </trkpt>
      <trkpt lat="43.96527" lon="3.25103">
        <ele>689.2</ele>
        <time>2022-06-16T10:06:48Z</time>
      </trkpt>
      <trkpt lat="43.96526" lon="3.2511">
        <ele>689</ele>
        <time>2022-06-16T10:06:49Z</time>
      </trkpt>
      <trkpt lat="43.96522" lon="3.25129">
        <ele>688</ele>
        <time>2022-06-16T10:06:53Z</time>
      </trkpt>
      <trkpt lat="43.96518" lon="3.25157">
        <ele>687.4</ele>
        <time>2022-06-16T10:06:59Z</time>
      </trkpt>
      <trkpt lat="43.96506" lon="3.25188">
        <ele>687</ele>
        <time>2022-06-16T10:07:05Z</time>
      </trkpt>
      <trkpt lat="43.96496" lon="3.25216">
        <ele>687.2</ele>
        <time>2022-06-16T10:07:12Z</time>
      </trkpt>
      <trkpt lat="43.96484" lon="3.25245">
        <ele>687.6</ele>
        <time>2022-06-16T10:07:20Z</time>
      </trkpt>
      <trkpt lat="43.96471" lon="3.25267">
        <ele>687.6</ele>
        <time>2022-06-16T10:07:27Z</time>
      </trkpt>
      <trkpt lat="43.96458" lon="3.25278">
        <ele>687.6</ele>
        <time>2022-06-16T10:07:33Z</time>
      </trkpt>
      <trkpt lat="43.96436" lon="3.25294">
        <ele>687.6</ele>
        <time>2022-06-16T10:07:42Z</time>
      </trkpt>
      <trkpt lat="43.96423" lon="3.25301">
        <ele>687.8</ele>
        <time>2022-06-16T10:07:47Z</time>
      </trkpt>
      <trkpt lat="43.96421" lon="3.25304">
        <ele>687.8</ele>
        <time>2022-06-16T10:07:48Z</time>
      </trkpt>
      <trkpt lat="43.96408" lon="3.25316">
        <ele>688</ele>
        <time>2022-06-16T10:07:53Z</time>
      </trkpt>
      <trkpt lat="43.96394" lon="3.2533">
        <ele>688</ele>
        <time>2022-06-16T10:07:58Z</time>
      </trkpt>
      <trkpt lat="43.96383" lon="3.25345">
        <ele>688</ele>
        <time>2022-06-16T10:08:03Z</time>
      </trkpt>
      <trkpt lat="43.9638" lon="3.25349">
        <ele>688.2</ele>
        <time>2022-06-16T10:08:05Z</time>
      </trkpt>
      <trkpt lat="43.96379" lon="3.25357">
        <ele>688.4</ele>
        <time>2022-06-16T10:08:07Z</time>
      </trkpt>
      <trkpt lat="43.96372" lon="3.25368">
        <ele>688.8</ele>
        <time>2022-06-16T10:08:11Z</time>
      </trkpt>
      <trkpt lat="43.96357" lon="3.25384">
        <ele>689.2</ele>
        <time>2022-06-16T10:08:17Z</time>
      </trkpt>
      <trkpt lat="43.96346" lon="3.254">
        <ele>690</ele>
        <time>2022-06-16T10:08:23Z</time>
      </trkpt>
      <trkpt lat="43.96336" lon="3.25414">
        <ele>690.8</ele>
        <time>2022-06-16T10:08:30Z</time>
      </trkpt>
      <trkpt lat="43.96334" lon="3.25417">
        <ele>691</ele>
        <time>2022-06-16T10:08:32Z</time>
      </trkpt>
      <trkpt lat="43.9633" lon="3.25423">
        <ele>691.4</ele>
        <time>2022-06-16T10:08:35Z</time>
      </trkpt>
      <trkpt lat="43.96323" lon="3.25432">
        <ele>692.2</ele>
        <time>2022-06-16T10:08:41Z</time>
      </trkpt>
      <trkpt lat="43.96322" lon="3.25435">
        <ele>692.4</ele>
        <time>2022-06-16T10:08:43Z</time>
      </trkpt>
      <trkpt lat="43.96312" lon="3.25448">
        <ele>692.8</ele>
        <time>2022-06-16T10:08:51Z</time>
      </trkpt>
      <trkpt lat="43.96311" lon="3.2545">
        <ele>693.2</ele>
        <time>2022-06-16T10:08:53Z</time>
      </trkpt>
      <trkpt lat="43.9631" lon="3.25451">
        <ele>693.6</ele>
        <time>2022-06-16T10:08:57Z</time>
      </trkpt>
      <trkpt lat="43.9631" lon="3.25458">
        <ele>693.6</ele>
        <time>2022-06-16T10:09:03Z</time>
      </trkpt>
      <trkpt lat="43.96309" lon="3.25459">
        <ele>693.6</ele>
        <time>2022-06-16T10:09:04Z</time>
      </trkpt>
      <trkpt lat="43.96304" lon="3.2547">
        <ele>694</ele>
        <time>2022-06-16T10:09:12Z</time>
      </trkpt>
      <trkpt lat="43.96303" lon="3.25473">
        <ele>694.4</ele>
        <time>2022-06-16T10:09:15Z</time>
      </trkpt>
      <trkpt lat="43.96301" lon="3.25475">
        <ele>694.6</ele>
        <time>2022-06-16T10:09:18Z</time>
      </trkpt>
      <trkpt lat="43.96295" lon="3.25483">
        <ele>695.2</ele>
        <time>2022-06-16T10:09:28Z</time>
      </trkpt>
      <trkpt lat="43.96293" lon="3.25484">
        <ele>695.4</ele>
        <time>2022-06-16T10:09:29Z</time>
      </trkpt>
      <trkpt lat="43.96288" lon="3.25489">
        <ele>696.2</ele>
        <time>2022-06-16T10:09:36Z</time>
      </trkpt>
      <trkpt lat="43.96286" lon="3.25491">
        <ele>696.4</ele>
        <time>2022-06-16T10:09:38Z</time>
      </trkpt>
      <trkpt lat="43.96282" lon="3.25493">
        <ele>697</ele>
        <time>2022-06-16T10:09:44Z</time>
      </trkpt>
      <trkpt lat="43.96279" lon="3.25496">
        <ele>697.4</ele>
        <time>2022-06-16T10:09:47Z</time>
      </trkpt>
      <trkpt lat="43.96275" lon="3.25498">
        <ele>697.6</ele>
        <time>2022-06-16T10:09:51Z</time>
      </trkpt>
      <trkpt lat="43.96272" lon="3.25498">
        <ele>698</ele>
        <time>2022-06-16T10:09:58Z</time>
      </trkpt>
      <trkpt lat="43.9626" lon="3.25502">
        <ele>698.4</ele>
        <time>2022-06-16T10:10:05Z</time>
      </trkpt>
      <trkpt lat="43.96257" lon="3.25503">
        <ele>698.6</ele>
        <time>2022-06-16T10:10:07Z</time>
      </trkpt>
      <trkpt lat="43.96254" lon="3.25504">
        <ele>698.8</ele>
        <time>2022-06-16T10:10:09Z</time>
      </trkpt>
      <trkpt lat="43.96251" lon="3.25503">
        <ele>699</ele>
        <time>2022-06-16T10:10:11Z</time>
      </trkpt>
      <trkpt lat="43.96246" lon="3.25506">
        <ele>699.8</ele>
        <time>2022-06-16T10:10:16Z</time>
      </trkpt>
      <trkpt lat="43.96246" lon="3.25506">
        <ele>700</ele>
        <time>2022-06-16T10:10:17Z</time>
      </trkpt>
      <trkpt lat="43.96245" lon="3.25507">
        <ele>700.8</ele>
        <time>2022-06-16T10:10:20Z</time>
      </trkpt>
      <trkpt lat="43.96244" lon="3.25507">
        <ele>701</ele>
        <time>2022-06-16T10:10:21Z</time>
      </trkpt>
      <trkpt lat="43.96242" lon="3.25508">
        <ele>701.4</ele>
        <time>2022-06-16T10:10:25Z</time>
      </trkpt>
      <trkpt lat="43.96241" lon="3.2551">
        <ele>701.8</ele>
        <time>2022-06-16T10:10:28Z</time>
      </trkpt>
      <trkpt lat="43.96239" lon="3.25513">
        <ele>702.2</ele>
        <time>2022-06-16T10:10:32Z</time>
      </trkpt>
      <trkpt lat="43.96236" lon="3.25517">
        <ele>703</ele>
        <time>2022-06-16T10:10:37Z</time>
      </trkpt>
      <trkpt lat="43.96231" lon="3.25519">
        <ele>703.6</ele>
        <time>2022-06-16T10:10:44Z</time>
      </trkpt>
      <trkpt lat="43.96227" lon="3.2552">
        <ele>704</ele>
        <time>2022-06-16T10:10:48Z</time>
      </trkpt>
      <trkpt lat="43.96226" lon="3.2552">
        <ele>704.2</ele>
        <time>2022-06-16T10:10:50Z</time>
      </trkpt>
      <trkpt lat="43.96221" lon="3.25523">
        <ele>705</ele>
        <time>2022-06-16T10:10:56Z</time>
      </trkpt>
      <trkpt lat="43.96217" lon="3.25525">
        <ele>705.4</ele>
        <time>2022-06-16T10:11:05Z</time>
      </trkpt>
      <trkpt lat="43.96213" lon="3.2553">
        <ele>705.4</ele>
        <time>2022-06-16T10:11:10Z</time>
      </trkpt>
      <trkpt lat="43.96212" lon="3.25532">
        <ele>705.4</ele>
        <time>2022-06-16T10:11:11Z</time>
      </trkpt>
      <trkpt lat="43.96204" lon="3.25539">
        <ele>706</ele>
        <time>2022-06-16T10:11:18Z</time>
      </trkpt>
      <trkpt lat="43.96197" lon="3.25543">
        <ele>705.6</ele>
        <time>2022-06-16T10:11:23Z</time>
      </trkpt>
      <trkpt lat="43.96195" lon="3.25545">
        <ele>705.4</ele>
        <time>2022-06-16T10:11:25Z</time>
      </trkpt>
      <trkpt lat="43.96188" lon="3.25549">
        <ele>704.8</ele>
        <time>2022-06-16T10:11:33Z</time>
      </trkpt>
      <trkpt lat="43.96183" lon="3.25553">
        <ele>704.6</ele>
        <time>2022-06-16T10:11:38Z</time>
      </trkpt>
      <trkpt lat="43.96181" lon="3.25554">
        <ele>704.6</ele>
        <time>2022-06-16T10:11:40Z</time>
      </trkpt>
      <trkpt lat="43.9618" lon="3.25554">
        <ele>704.6</ele>
        <time>2022-06-16T10:11:41Z</time>
      </trkpt>
      <trkpt lat="43.96175" lon="3.25555">
        <ele>704.2</ele>
        <time>2022-06-16T10:11:46Z</time>
      </trkpt>
      <trkpt lat="43.96175" lon="3.25555">
        <ele>704</ele>
        <time>2022-06-16T10:11:47Z</time>
      </trkpt>
      <trkpt lat="43.96168" lon="3.25558">
        <ele>704</ele>
        <time>2022-06-16T10:11:56Z</time>
      </trkpt>
      <trkpt lat="43.96164" lon="3.25556">
        <ele>704</ele>
        <time>2022-06-16T10:12:01Z</time>
      </trkpt>
      <trkpt lat="43.96162" lon="3.25557">
        <ele>704</ele>
        <time>2022-06-16T10:12:03Z</time>
      </trkpt>
      <trkpt lat="43.96161" lon="3.25557">
        <ele>704</ele>
        <time>2022-06-16T10:12:04Z</time>
      </trkpt>
      <trkpt lat="43.96153" lon="3.25555">
        <ele>703.6</ele>
        <time>2022-06-16T10:12:11Z</time>
      </trkpt>
      <trkpt lat="43.96147" lon="3.2556">
        <ele>703.2</ele>
        <time>2022-06-16T10:12:18Z</time>
      </trkpt>
      <trkpt lat="43.96145" lon="3.25561">
        <ele>703</ele>
        <time>2022-06-16T10:12:20Z</time>
      </trkpt>
      <trkpt lat="43.96143" lon="3.25562">
        <ele>703</ele>
        <time>2022-06-16T10:12:21Z</time>
      </trkpt>
      <trkpt lat="43.96135" lon="3.25564">
        <ele>702.8</ele>
        <time>2022-06-16T10:12:29Z</time>
      </trkpt>
      <trkpt lat="43.96126" lon="3.25563">
        <ele>702.4</ele>
        <time>2022-06-16T10:12:37Z</time>
      </trkpt>
      <trkpt lat="43.96123" lon="3.25561">
        <ele>702.4</ele>
        <time>2022-06-16T10:12:39Z</time>
      </trkpt>
      <trkpt lat="43.96121" lon="3.2556">
        <ele>702</ele>
        <time>2022-06-16T10:12:42Z</time>
      </trkpt>
      <trkpt lat="43.9612" lon="3.2556">
        <ele>702</ele>
        <time>2022-06-16T10:12:43Z</time>
      </trkpt>
      <trkpt lat="43.96116" lon="3.2556">
        <ele>702</ele>
        <time>2022-06-16T10:12:47Z</time>
      </trkpt>
      <trkpt lat="43.96111" lon="3.25561">
        <ele>702.4</ele>
        <time>2022-06-16T10:12:52Z</time>
      </trkpt>
      <trkpt lat="43.96109" lon="3.25561">
        <ele>702.8</ele>
        <time>2022-06-16T10:12:59Z</time>
      </trkpt>
      <trkpt lat="43.96108" lon="3.25561">
        <ele>703</ele>
        <time>2022-06-16T10:13:00Z</time>
      </trkpt>
      <trkpt lat="43.96104" lon="3.25563">
        <ele>704</ele>
        <time>2022-06-16T10:13:07Z</time>
      </trkpt>
      <trkpt lat="43.96103" lon="3.25564">
        <ele>704.2</ele>
        <time>2022-06-16T10:13:08Z</time>
      </trkpt>
      <trkpt lat="43.96096" lon="3.25567">
        <ele>704.4</ele>
        <time>2022-06-16T10:13:13Z</time>
      </trkpt>
      <trkpt lat="43.96094" lon="3.25567">
        <ele>704.4</ele>
        <time>2022-06-16T10:13:14Z</time>
      </trkpt>
      <trkpt lat="43.96093" lon="3.25568">
        <ele>704.4</ele>
        <time>2022-06-16T10:13:15Z</time>
      </trkpt>
      <trkpt lat="43.96087" lon="3.2557">
        <ele>704.4</ele>
        <time>2022-06-16T10:13:18Z</time>
      </trkpt>
      <trkpt lat="43.96083" lon="3.25573">
        <ele>704.8</ele>
        <time>2022-06-16T10:13:20Z</time>
      </trkpt>
      <trkpt lat="43.96079" lon="3.25574">
        <ele>705.2</ele>
        <time>2022-06-16T10:13:23Z</time>
      </trkpt>
      <trkpt lat="43.96079" lon="3.25575">
        <ele>705.6</ele>
        <time>2022-06-16T10:13:26Z</time>
      </trkpt>
      <trkpt lat="43.96075" lon="3.25576">
        <ele>705.8</ele>
        <time>2022-06-16T10:13:32Z</time>
      </trkpt>
      <trkpt lat="43.96067" lon="3.2558">
        <ele>706.2</ele>
        <time>2022-06-16T10:13:40Z</time>
      </trkpt>
      <trkpt lat="43.96064" lon="3.2558">
        <ele>706.4</ele>
        <time>2022-06-16T10:13:43Z</time>
      </trkpt>
      <trkpt lat="43.96061" lon="3.25581">
        <ele>706.4</ele>
        <time>2022-06-16T10:13:46Z</time>
      </trkpt>
      <trkpt lat="43.9605" lon="3.25581">
        <ele>707.4</ele>
        <time>2022-06-16T10:13:55Z</time>
      </trkpt>
      <trkpt lat="43.96049" lon="3.25581">
        <ele>707.6</ele>
        <time>2022-06-16T10:13:56Z</time>
      </trkpt>
      <trkpt lat="43.96042" lon="3.25583">
        <ele>708</ele>
        <time>2022-06-16T10:14:03Z</time>
      </trkpt>
      <trkpt lat="43.96037" lon="3.25584">
        <ele>708.4</ele>
        <time>2022-06-16T10:14:10Z</time>
      </trkpt>
      <trkpt lat="43.96036" lon="3.25584">
        <ele>708.4</ele>
        <time>2022-06-16T10:14:11Z</time>
      </trkpt>
      <trkpt lat="43.96033" lon="3.25583">
        <ele>708.6</ele>
        <time>2022-06-16T10:14:13Z</time>
      </trkpt>
      <trkpt lat="43.9603" lon="3.25585">
        <ele>708.6</ele>
        <time>2022-06-16T10:14:15Z</time>
      </trkpt>
      <trkpt lat="43.96029" lon="3.25586">
        <ele>708.6</ele>
        <time>2022-06-16T10:14:16Z</time>
      </trkpt>
      <trkpt lat="43.96024" lon="3.25593">
        <ele>709</ele>
        <time>2022-06-16T10:14:25Z</time>
      </trkpt>
      <trkpt lat="43.96022" lon="3.25594">
        <ele>709.4</ele>
        <time>2022-06-16T10:14:30Z</time>
      </trkpt>
      <trkpt lat="43.96021" lon="3.25595">
        <ele>709.4</ele>
        <time>2022-06-16T10:14:32Z</time>
      </trkpt>
      <trkpt lat="43.96021" lon="3.25595">
        <ele>709.6</ele>
        <time>2022-06-16T10:14:33Z</time>
      </trkpt>
      <trkpt lat="43.96018" lon="3.256">
        <ele>709.6</ele>
        <time>2022-06-16T10:14:39Z</time>
      </trkpt>
      <trkpt lat="43.96011" lon="3.25607">
        <ele>709.6</ele>
        <time>2022-06-16T10:14:48Z</time>
      </trkpt>
      <trkpt lat="43.96006" lon="3.25609">
        <ele>709.8</ele>
        <time>2022-06-16T10:14:54Z</time>
      </trkpt>
      <trkpt lat="43.96004" lon="3.25609">
        <ele>710</ele>
        <time>2022-06-16T10:14:55Z</time>
      </trkpt>
      <trkpt lat="43.95992" lon="3.25611">
        <ele>710.4</ele>
        <time>2022-06-16T10:15:01Z</time>
      </trkpt>
      <trkpt lat="43.95988" lon="3.2561">
        <ele>710.4</ele>
        <time>2022-06-16T10:15:03Z</time>
      </trkpt>
      <trkpt lat="43.95986" lon="3.2561">
        <ele>710.6</ele>
        <time>2022-06-16T10:15:04Z</time>
      </trkpt>
      <trkpt lat="43.95985" lon="3.2561">
        <ele>710.6</ele>
        <time>2022-06-16T10:15:05Z</time>
      </trkpt>
      <trkpt lat="43.95983" lon="3.2561">
        <ele>710.6</ele>
        <time>2022-06-16T10:15:06Z</time>
      </trkpt>
      <trkpt lat="43.9596" lon="3.25611">
        <ele>711</ele>
        <time>2022-06-16T10:15:16Z</time>
      </trkpt>
      <trkpt lat="43.95957" lon="3.25615">
        <ele>711.2</ele>
        <time>2022-06-16T10:15:21Z</time>
      </trkpt>
      <trkpt lat="43.95955" lon="3.25615">
        <ele>711.8</ele>
        <time>2022-06-16T10:15:23Z</time>
      </trkpt>
      <trkpt lat="43.95953" lon="3.25616">
        <ele>712.2</ele>
        <time>2022-06-16T10:15:27Z</time>
      </trkpt>
      <trkpt lat="43.95952" lon="3.25616">
        <ele>712.2</ele>
        <time>2022-06-16T10:15:28Z</time>
      </trkpt>
      <trkpt lat="43.95946" lon="3.25616">
        <ele>712.6</ele>
        <time>2022-06-16T10:15:33Z</time>
      </trkpt>
      <trkpt lat="43.95943" lon="3.25616">
        <ele>712.6</ele>
        <time>2022-06-16T10:15:34Z</time>
      </trkpt>
      <trkpt lat="43.95937" lon="3.25617">
        <ele>712.4</ele>
        <time>2022-06-16T10:15:37Z</time>
      </trkpt>
      <trkpt lat="43.9592" lon="3.25622">
        <ele>712.2</ele>
        <time>2022-06-16T10:15:44Z</time>
      </trkpt>
      <trkpt lat="43.95911" lon="3.2563">
        <ele>712</ele>
        <time>2022-06-16T10:15:49Z</time>
      </trkpt>
      <trkpt lat="43.959" lon="3.25633">
        <ele>712</ele>
        <time>2022-06-16T10:15:55Z</time>
      </trkpt>
      <trkpt lat="43.95899" lon="3.25634">
        <ele>712.2</ele>
        <time>2022-06-16T10:15:59Z</time>
      </trkpt>
      <trkpt lat="43.95898" lon="3.25638">
        <ele>712.4</ele>
        <time>2022-06-16T10:16:01Z</time>
      </trkpt>
      <trkpt lat="43.95897" lon="3.25638">
        <ele>712.8</ele>
        <time>2022-06-16T10:16:03Z</time>
      </trkpt>
      <trkpt lat="43.95896" lon="3.25638">
        <ele>712.8</ele>
        <time>2022-06-16T10:16:04Z</time>
      </trkpt>
      <trkpt lat="43.95891" lon="3.25638">
        <ele>713</ele>
        <time>2022-06-16T10:16:08Z</time>
      </trkpt>
      <trkpt lat="43.9589" lon="3.25641">
        <ele>713.4</ele>
        <time>2022-06-16T10:16:10Z</time>
      </trkpt>
      <trkpt lat="43.95889" lon="3.25642">
        <ele>713.8</ele>
        <time>2022-06-16T10:16:13Z</time>
      </trkpt>
      <trkpt lat="43.95887" lon="3.25642">
        <ele>714.4</ele>
        <time>2022-06-16T10:16:17Z</time>
      </trkpt>
      <trkpt lat="43.95887" lon="3.25643">
        <ele>714.6</ele>
        <time>2022-06-16T10:16:22Z</time>
      </trkpt>
      <trkpt lat="43.95887" lon="3.25643">
        <ele>714.8</ele>
        <time>2022-06-16T10:16:25Z</time>
      </trkpt>
      <trkpt lat="43.95885" lon="3.25647">
        <ele>715.8</ele>
        <time>2022-06-16T10:16:30Z</time>
      </trkpt>
      <trkpt lat="43.95885" lon="3.25647">
        <ele>716.4</ele>
        <time>2022-06-16T10:16:34Z</time>
      </trkpt>
      <trkpt lat="43.95882" lon="3.25649">
        <ele>716.8</ele>
        <time>2022-06-16T10:16:39Z</time>
      </trkpt>
      <trkpt lat="43.95881" lon="3.25649">
        <ele>716.8</ele>
        <time>2022-06-16T10:16:40Z</time>
      </trkpt>
      <trkpt lat="43.95877" lon="3.25653">
        <ele>718</ele>
        <time>2022-06-16T10:16:48Z</time>
      </trkpt>
      <trkpt lat="43.95876" lon="3.25653">
        <ele>718.2</ele>
        <time>2022-06-16T10:16:51Z</time>
      </trkpt>
      <trkpt lat="43.95873" lon="3.25658">
        <ele>719.2</ele>
        <time>2022-06-16T10:16:58Z</time>
      </trkpt>
      <trkpt lat="43.9587" lon="3.25665">
        <ele>720.2</ele>
        <time>2022-06-16T10:17:07Z</time>
      </trkpt>
      <trkpt lat="43.9587" lon="3.25665">
        <ele>720.8</ele>
        <time>2022-06-16T10:17:13Z</time>
      </trkpt>
      <trkpt lat="43.9587" lon="3.25671">
        <ele>721.4</ele>
        <time>2022-06-16T10:17:20Z</time>
      </trkpt>
      <trkpt lat="43.9587" lon="3.25672">
        <ele>721.8</ele>
        <time>2022-06-16T10:17:22Z</time>
      </trkpt>
      <trkpt lat="43.9587" lon="3.25673">
        <ele>722.6</ele>
        <time>2022-06-16T10:17:26Z</time>
      </trkpt>
      <trkpt lat="43.95868" lon="3.25677">
        <ele>723</ele>
        <time>2022-06-16T10:17:31Z</time>
      </trkpt>
      <trkpt lat="43.95867" lon="3.25678">
        <ele>723.6</ele>
        <time>2022-06-16T10:17:34Z</time>
      </trkpt>
      <trkpt lat="43.95864" lon="3.25684">
        <ele>724.2</ele>
        <time>2022-06-16T10:17:39Z</time>
      </trkpt>
      <trkpt lat="43.95859" lon="3.2569">
        <ele>724.6</ele>
        <time>2022-06-16T10:17:44Z</time>
      </trkpt>
      <trkpt lat="43.95858" lon="3.25691">
        <ele>724.8</ele>
        <time>2022-06-16T10:17:45Z</time>
      </trkpt>
      <trkpt lat="43.95856" lon="3.25699">
        <ele>725</ele>
        <time>2022-06-16T10:17:49Z</time>
      </trkpt>
      <trkpt lat="43.95853" lon="3.25703">
        <ele>725.2</ele>
        <time>2022-06-16T10:17:52Z</time>
      </trkpt>
      <trkpt lat="43.9585" lon="3.25705">
        <ele>725.4</ele>
        <time>2022-06-16T10:17:57Z</time>
      </trkpt>
      <trkpt lat="43.95846" lon="3.25709">
        <ele>725.8</ele>
        <time>2022-06-16T10:18:01Z</time>
      </trkpt>
      <trkpt lat="43.95843" lon="3.2571">
        <ele>726.2</ele>
        <time>2022-06-16T10:18:04Z</time>
      </trkpt>
      <trkpt lat="43.95835" lon="3.25714">
        <ele>726.8</ele>
        <time>2022-06-16T10:18:11Z</time>
      </trkpt>
      <trkpt lat="43.95833" lon="3.25715">
        <ele>727</ele>
        <time>2022-06-16T10:18:13Z</time>
      </trkpt>
      <trkpt lat="43.95825" lon="3.25718">
        <ele>727.6</ele>
        <time>2022-06-16T10:18:18Z</time>
      </trkpt>
      <trkpt lat="43.95821" lon="3.25723">
        <ele>727.8</ele>
        <time>2022-06-16T10:18:22Z</time>
      </trkpt>
      <trkpt lat="43.95817" lon="3.25728">
        <ele>728</ele>
        <time>2022-06-16T10:18:24Z</time>
      </trkpt>
      <trkpt lat="43.95811" lon="3.25735">
        <ele>729</ele>
        <time>2022-06-16T10:18:32Z</time>
      </trkpt>
      <trkpt lat="43.9581" lon="3.25742">
        <ele>729.2</ele>
        <time>2022-06-16T10:18:35Z</time>
      </trkpt>
      <trkpt lat="43.95809" lon="3.25744">
        <ele>729.2</ele>
        <time>2022-06-16T10:18:36Z</time>
      </trkpt>
      <trkpt lat="43.95804" lon="3.25754">
        <ele>729.8</ele>
        <time>2022-06-16T10:18:41Z</time>
      </trkpt>
      <trkpt lat="43.95802" lon="3.25756">
        <ele>730</ele>
        <time>2022-06-16T10:18:43Z</time>
      </trkpt>
      <trkpt lat="43.958" lon="3.25757">
        <ele>730</ele>
        <time>2022-06-16T10:18:44Z</time>
      </trkpt>
      <trkpt lat="43.95796" lon="3.25761">
        <ele>730.2</ele>
        <time>2022-06-16T10:18:47Z</time>
      </trkpt>
      <trkpt lat="43.95787" lon="3.25773">
        <ele>730.4</ele>
        <time>2022-06-16T10:18:52Z</time>
      </trkpt>
      <trkpt lat="43.95778" lon="3.25794">
        <ele>730.6</ele>
        <time>2022-06-16T10:18:58Z</time>
      </trkpt>
      <trkpt lat="43.95772" lon="3.25821">
        <ele>730.4</ele>
        <time>2022-06-16T10:19:05Z</time>
      </trkpt>
      <trkpt lat="43.95763" lon="3.25842">
        <ele>730.2</ele>
        <time>2022-06-16T10:19:10Z</time>
      </trkpt>
      <trkpt lat="43.95762" lon="3.25848">
        <ele>730</ele>
        <time>2022-06-16T10:19:11Z</time>
      </trkpt>
      <trkpt lat="43.95756" lon="3.25864">
        <ele>729.2</ele>
        <time>2022-06-16T10:19:15Z</time>
      </trkpt>
      <trkpt lat="43.95752" lon="3.25867">
        <ele>728.8</ele>
        <time>2022-06-16T10:19:17Z</time>
      </trkpt>
      <trkpt lat="43.9575" lon="3.25868">
        <ele>728.6</ele>
        <time>2022-06-16T10:19:18Z</time>
      </trkpt>
      <trkpt lat="43.95745" lon="3.2587">
        <ele>728.2</ele>
        <time>2022-06-16T10:19:20Z</time>
      </trkpt>
      <trkpt lat="43.95733" lon="3.25883">
        <ele>728</ele>
        <time>2022-06-16T10:19:25Z</time>
      </trkpt>
      <trkpt lat="43.95729" lon="3.25896">
        <ele>728</ele>
        <time>2022-06-16T10:19:29Z</time>
      </trkpt>
      <trkpt lat="43.95723" lon="3.25909">
        <ele>728.2</ele>
        <time>2022-06-16T10:19:34Z</time>
      </trkpt>
      <trkpt lat="43.95717" lon="3.25932">
        <ele>728.6</ele>
        <time>2022-06-16T10:19:41Z</time>
      </trkpt>
      <trkpt lat="43.95708" lon="3.25952">
        <ele>729.2</ele>
        <time>2022-06-16T10:19:48Z</time>
      </trkpt>
      <trkpt lat="43.95701" lon="3.25965">
        <ele>729.6</ele>
        <time>2022-06-16T10:19:53Z</time>
      </trkpt>
      <trkpt lat="43.95696" lon="3.25973">
        <ele>730</ele>
        <time>2022-06-16T10:19:57Z</time>
      </trkpt>
      <trkpt lat="43.95694" lon="3.25975">
        <ele>730</ele>
        <time>2022-06-16T10:19:58Z</time>
      </trkpt>
      <trkpt lat="43.9567" lon="3.25995">
        <ele>730.4</ele>
        <time>2022-06-16T10:20:07Z</time>
      </trkpt>
      <trkpt lat="43.95646" lon="3.26016">
        <ele>730.6</ele>
        <time>2022-06-16T10:20:16Z</time>
      </trkpt>
      <trkpt lat="43.95627" lon="3.26021">
        <ele>730.8</ele>
        <time>2022-06-16T10:20:21Z</time>
      </trkpt>
      <trkpt lat="43.95614" lon="3.26018">
        <ele>730.8</ele>
        <time>2022-06-16T10:20:26Z</time>
      </trkpt>
      <trkpt lat="43.95607" lon="3.26017">
        <ele>731</ele>
        <time>2022-06-16T10:20:31Z</time>
      </trkpt>
      <trkpt lat="43.95606" lon="3.26017">
        <ele>731</ele>
        <time>2022-06-16T10:20:32Z</time>
      </trkpt>
      <trkpt lat="43.95599" lon="3.26017">
        <ele>732</ele>
        <time>2022-06-16T10:20:37Z</time>
      </trkpt>
      <trkpt lat="43.95594" lon="3.26019">
        <ele>732.4</ele>
        <time>2022-06-16T10:20:40Z</time>
      </trkpt>
      <trkpt lat="43.95587" lon="3.26033">
        <ele>732.6</ele>
        <time>2022-06-16T10:20:46Z</time>
      </trkpt>
      <trkpt lat="43.95583" lon="3.26043">
        <ele>733</ele>
        <time>2022-06-16T10:20:49Z</time>
      </trkpt>
      <trkpt lat="43.9558" lon="3.26049">
        <ele>733</ele>
        <time>2022-06-16T10:20:51Z</time>
      </trkpt>
      <trkpt lat="43.95571" lon="3.26072">
        <ele>733.4</ele>
        <time>2022-06-16T10:20:56Z</time>
      </trkpt>
      <trkpt lat="43.9557" lon="3.26096">
        <ele>733.4</ele>
        <time>2022-06-16T10:21:01Z</time>
      </trkpt>
      <trkpt lat="43.95572" lon="3.26113">
        <ele>733.8</ele>
        <time>2022-06-16T10:21:06Z</time>
      </trkpt>
      <trkpt lat="43.95571" lon="3.26123">
        <ele>734</ele>
        <time>2022-06-16T10:21:10Z</time>
      </trkpt>
      <trkpt lat="43.95571" lon="3.26126">
        <ele>734.2</ele>
        <time>2022-06-16T10:21:11Z</time>
      </trkpt>
      <trkpt lat="43.95571" lon="3.26131">
        <ele>734.2</ele>
        <time>2022-06-16T10:21:13Z</time>
      </trkpt>
      <trkpt lat="43.95572" lon="3.2615">
        <ele>734.8</ele>
        <time>2022-06-16T10:21:20Z</time>
      </trkpt>
      <trkpt lat="43.95571" lon="3.26158">
        <ele>735.2</ele>
        <time>2022-06-16T10:21:23Z</time>
      </trkpt>
      <trkpt lat="43.95566" lon="3.26166">
        <ele>735.6</ele>
        <time>2022-06-16T10:21:27Z</time>
      </trkpt>
      <trkpt lat="43.95562" lon="3.26177">
        <ele>736.2</ele>
        <time>2022-06-16T10:21:32Z</time>
      </trkpt>
      <trkpt lat="43.95559" lon="3.26185">
        <ele>736.6</ele>
        <time>2022-06-16T10:21:36Z</time>
      </trkpt>
      <trkpt lat="43.95559" lon="3.26188">
        <ele>736.6</ele>
        <time>2022-06-16T10:21:37Z</time>
      </trkpt>
      <trkpt lat="43.95556" lon="3.26196">
        <ele>737.4</ele>
        <time>2022-06-16T10:21:41Z</time>
      </trkpt>
      <trkpt lat="43.95554" lon="3.26199">
        <ele>737.6</ele>
        <time>2022-06-16T10:21:43Z</time>
      </trkpt>
      <trkpt lat="43.95545" lon="3.26209">
        <ele>738.4</ele>
        <time>2022-06-16T10:21:50Z</time>
      </trkpt>
      <trkpt lat="43.95542" lon="3.26213">
        <ele>738.8</ele>
        <time>2022-06-16T10:21:53Z</time>
      </trkpt>
      <trkpt lat="43.95537" lon="3.2622">
        <ele>739.2</ele>
        <time>2022-06-16T10:21:57Z</time>
      </trkpt>
      <trkpt lat="43.95534" lon="3.26222">
        <ele>739.6</ele>
        <time>2022-06-16T10:21:59Z</time>
      </trkpt>
      <trkpt lat="43.95533" lon="3.26222">
        <ele>739.6</ele>
        <time>2022-06-16T10:22:00Z</time>
      </trkpt>
      <trkpt lat="43.95523" lon="3.26226">
        <ele>740.4</ele>
        <time>2022-06-16T10:22:07Z</time>
      </trkpt>
      <trkpt lat="43.95521" lon="3.26227">
        <ele>740.6</ele>
        <time>2022-06-16T10:22:09Z</time>
      </trkpt>
      <trkpt lat="43.95517" lon="3.26232">
        <ele>740.8</ele>
        <time>2022-06-16T10:22:13Z</time>
      </trkpt>
      <trkpt lat="43.95514" lon="3.2624">
        <ele>741.4</ele>
        <time>2022-06-16T10:22:17Z</time>
      </trkpt>
      <trkpt lat="43.95512" lon="3.26249">
        <ele>742</ele>
        <time>2022-06-16T10:22:21Z</time>
      </trkpt>
      <trkpt lat="43.95512" lon="3.26257">
        <ele>742.2</ele>
        <time>2022-06-16T10:22:25Z</time>
      </trkpt>
      <trkpt lat="43.95512" lon="3.26258">
        <ele>742.2</ele>
        <time>2022-06-16T10:22:26Z</time>
      </trkpt>
      <trkpt lat="43.95512" lon="3.26263">
        <ele>742.6</ele>
        <time>2022-06-16T10:22:29Z</time>
      </trkpt>
      <trkpt lat="43.9551" lon="3.26273">
        <ele>743.4</ele>
        <time>2022-06-16T10:22:34Z</time>
      </trkpt>
      <trkpt lat="43.95508" lon="3.26278">
        <ele>743.6</ele>
        <time>2022-06-16T10:22:36Z</time>
      </trkpt>
      <trkpt lat="43.95501" lon="3.26287">
        <ele>744.2</ele>
        <time>2022-06-16T10:22:40Z</time>
      </trkpt>
      <trkpt lat="43.95493" lon="3.26292">
        <ele>744.6</ele>
        <time>2022-06-16T10:22:43Z</time>
      </trkpt>
      <trkpt lat="43.95485" lon="3.26296">
        <ele>744.8</ele>
        <time>2022-06-16T10:22:46Z</time>
      </trkpt>
      <trkpt lat="43.95466" lon="3.26307">
        <ele>744.8</ele>
        <time>2022-06-16T10:22:52Z</time>
      </trkpt>
      <trkpt lat="43.95462" lon="3.26308">
        <ele>745</ele>
        <time>2022-06-16T10:22:53Z</time>
      </trkpt>
      <trkpt lat="43.95453" lon="3.26307">
        <ele>744.8</ele>
        <time>2022-06-16T10:22:55Z</time>
      </trkpt>
      <trkpt lat="43.9545" lon="3.26304">
        <ele>744.8</ele>
        <time>2022-06-16T10:22:56Z</time>
      </trkpt>
      <trkpt lat="43.95443" lon="3.26295">
        <ele>744.4</ele>
        <time>2022-06-16T10:22:58Z</time>
      </trkpt>
      <trkpt lat="43.95435" lon="3.26287">
        <ele>744.2</ele>
        <time>2022-06-16T10:23:00Z</time>
      </trkpt>
      <trkpt lat="43.95431" lon="3.26285">
        <ele>744</ele>
        <time>2022-06-16T10:23:01Z</time>
      </trkpt>
      <trkpt lat="43.95418" lon="3.2628">
        <ele>743.6</ele>
        <time>2022-06-16T10:23:04Z</time>
      </trkpt>
      <trkpt lat="43.95409" lon="3.2628">
        <ele>743.4</ele>
        <time>2022-06-16T10:23:06Z</time>
      </trkpt>
      <trkpt lat="43.95396" lon="3.26284">
        <ele>743.4</ele>
        <time>2022-06-16T10:23:09Z</time>
      </trkpt>
      <trkpt lat="43.95392" lon="3.26286">
        <ele>743.4</ele>
        <time>2022-06-16T10:23:10Z</time>
      </trkpt>
      <trkpt lat="43.95379" lon="3.26295">
        <ele>743.2</ele>
        <time>2022-06-16T10:23:13Z</time>
      </trkpt>
      <trkpt lat="43.95375" lon="3.26298">
        <ele>743.2</ele>
        <time>2022-06-16T10:23:14Z</time>
      </trkpt>
      <trkpt lat="43.95363" lon="3.26306">
        <ele>743.2</ele>
        <time>2022-06-16T10:23:18Z</time>
      </trkpt>
      <trkpt lat="43.95347" lon="3.26309">
        <ele>743.6</ele>
        <time>2022-06-16T10:23:24Z</time>
      </trkpt>
      <trkpt lat="43.95329" lon="3.26309">
        <ele>744</ele>
        <time>2022-06-16T10:23:29Z</time>
      </trkpt>
      <trkpt lat="43.95305" lon="3.26315">
        <ele>744</ele>
        <time>2022-06-16T10:23:34Z</time>
      </trkpt>
      <trkpt lat="43.95297" lon="3.26318">
        <ele>743.8</ele>
        <time>2022-06-16T10:23:36Z</time>
      </trkpt>
      <trkpt lat="43.95289" lon="3.2632">
        <ele>743.8</ele>
        <time>2022-06-16T10:23:38Z</time>
      </trkpt>
      <trkpt lat="43.95286" lon="3.2632">
        <ele>743.6</ele>
        <time>2022-06-16T10:23:39Z</time>
      </trkpt>
      <trkpt lat="43.95269" lon="3.26321">
        <ele>743.4</ele>
        <time>2022-06-16T10:23:45Z</time>
      </trkpt>
      <trkpt lat="43.9526" lon="3.26325">
        <ele>744.2</ele>
        <time>2022-06-16T10:23:51Z</time>
      </trkpt>
      <trkpt lat="43.95254" lon="3.2633">
        <ele>744.6</ele>
        <time>2022-06-16T10:23:57Z</time>
      </trkpt>
      <trkpt lat="43.95254" lon="3.2633">
        <ele>744.8</ele>
        <time>2022-06-16T10:23:58Z</time>
      </trkpt>
      <trkpt lat="43.95252" lon="3.26332">
        <ele>745.2</ele>
        <time>2022-06-16T10:24:00Z</time>
      </trkpt>
      <trkpt lat="43.95248" lon="3.26332">
        <ele>745.6</ele>
        <time>2022-06-16T10:24:03Z</time>
      </trkpt>
      <trkpt lat="43.95247" lon="3.26333">
        <ele>745.8</ele>
        <time>2022-06-16T10:24:04Z</time>
      </trkpt>
      <trkpt lat="43.95245" lon="3.26339">
        <ele>746.4</ele>
        <time>2022-06-16T10:24:08Z</time>
      </trkpt>
      <trkpt lat="43.95242" lon="3.26342">
        <ele>746.6</ele>
        <time>2022-06-16T10:24:10Z</time>
      </trkpt>
      <trkpt lat="43.95241" lon="3.26343">
        <ele>746.8</ele>
        <time>2022-06-16T10:24:11Z</time>
      </trkpt>
      <trkpt lat="43.95238" lon="3.26346">
        <ele>747.2</ele>
        <time>2022-06-16T10:24:15Z</time>
      </trkpt>
      <trkpt lat="43.95237" lon="3.26349">
        <ele>747.6</ele>
        <time>2022-06-16T10:24:17Z</time>
      </trkpt>
      <trkpt lat="43.95236" lon="3.26351">
        <ele>747.8</ele>
        <time>2022-06-16T10:24:18Z</time>
      </trkpt>
      <trkpt lat="43.95233" lon="3.26361">
        <ele>748.4</ele>
        <time>2022-06-16T10:24:25Z</time>
      </trkpt>
      <trkpt lat="43.95229" lon="3.26368">
        <ele>748.8</ele>
        <time>2022-06-16T10:24:29Z</time>
      </trkpt>
      <trkpt lat="43.95224" lon="3.26378">
        <ele>749.6</ele>
        <time>2022-06-16T10:24:34Z</time>
      </trkpt>
      <trkpt lat="43.95223" lon="3.26384">
        <ele>750</ele>
        <time>2022-06-16T10:24:37Z</time>
      </trkpt>
      <trkpt lat="43.95218" lon="3.26394">
        <ele>750.6</ele>
        <time>2022-06-16T10:24:43Z</time>
      </trkpt>
      <trkpt lat="43.95216" lon="3.26394">
        <ele>751</ele>
        <time>2022-06-16T10:24:46Z</time>
      </trkpt>
      <trkpt lat="43.95216" lon="3.26393">
        <ele>751</ele>
        <time>2022-06-16T10:24:47Z</time>
      </trkpt>
      <trkpt lat="43.95218" lon="3.26391">
        <ele>751.2</ele>
        <time>2022-06-16T10:24:49Z</time>
      </trkpt>
      <trkpt lat="43.9522" lon="3.26391">
        <ele>751.2</ele>
        <time>2022-06-16T10:24:51Z</time>
      </trkpt>
      <trkpt lat="43.95221" lon="3.26391">
        <ele>751.2</ele>
        <time>2022-06-16T10:24:52Z</time>
      </trkpt>
      <trkpt lat="43.95217" lon="3.26393">
        <ele>751.2</ele>
        <time>2022-06-16T10:24:57Z</time>
      </trkpt>
      <trkpt lat="43.95214" lon="3.26394">
        <ele>751.2</ele>
        <time>2022-06-16T10:24:59Z</time>
      </trkpt>
      <trkpt lat="43.95213" lon="3.264">
        <ele>751.2</ele>
        <time>2022-06-16T10:25:02Z</time>
      </trkpt>
      <trkpt lat="43.95209" lon="3.26405">
        <ele>751.6</ele>
        <time>2022-06-16T10:25:06Z</time>
      </trkpt>
      <trkpt lat="43.95206" lon="3.26405">
        <ele>751.8</ele>
        <time>2022-06-16T10:25:08Z</time>
      </trkpt>
      <trkpt lat="43.95202" lon="3.26405">
        <ele>752</ele>
        <time>2022-06-16T10:25:10Z</time>
      </trkpt>
      <trkpt lat="43.952" lon="3.26405">
        <ele>752.2</ele>
        <time>2022-06-16T10:25:11Z</time>
      </trkpt>
      <trkpt lat="43.95187" lon="3.26411">
        <ele>752.6</ele>
        <time>2022-06-16T10:25:18Z</time>
      </trkpt>
      <trkpt lat="43.95174" lon="3.2642">
        <ele>753.2</ele>
        <time>2022-06-16T10:25:26Z</time>
      </trkpt>
      <trkpt lat="43.95171" lon="3.26422">
        <ele>753.6</ele>
        <time>2022-06-16T10:25:28Z</time>
      </trkpt>
      <trkpt lat="43.9517" lon="3.26422">
        <ele>754</ele>
        <time>2022-06-16T10:25:29Z</time>
      </trkpt>
      <trkpt lat="43.95162" lon="3.26424">
        <ele>754.2</ele>
        <time>2022-06-16T10:25:34Z</time>
      </trkpt>
      <trkpt lat="43.9516" lon="3.26425">
        <ele>754.2</ele>
        <time>2022-06-16T10:25:35Z</time>
      </trkpt>
      <trkpt lat="43.95152" lon="3.26427">
        <ele>754.8</ele>
        <time>2022-06-16T10:25:40Z</time>
      </trkpt>
      <trkpt lat="43.95148" lon="3.26427">
        <ele>755.2</ele>
        <time>2022-06-16T10:25:43Z</time>
      </trkpt>
      <trkpt lat="43.95145" lon="3.26428">
        <ele>755.2</ele>
        <time>2022-06-16T10:25:45Z</time>
      </trkpt>
      <trkpt lat="43.95143" lon="3.26429">
        <ele>755.4</ele>
        <time>2022-06-16T10:25:47Z</time>
      </trkpt>
      <trkpt lat="43.95137" lon="3.2643">
        <ele>756.6</ele>
        <time>2022-06-16T10:25:52Z</time>
      </trkpt>
      <trkpt lat="43.95135" lon="3.2643">
        <ele>757</ele>
        <time>2022-06-16T10:25:54Z</time>
      </trkpt>
      <trkpt lat="43.95125" lon="3.26429">
        <ele>757.8</ele>
        <time>2022-06-16T10:26:01Z</time>
      </trkpt>
      <trkpt lat="43.95118" lon="3.26429">
        <ele>758.2</ele>
        <time>2022-06-16T10:26:05Z</time>
      </trkpt>
      <trkpt lat="43.95113" lon="3.2643">
        <ele>758.6</ele>
        <time>2022-06-16T10:26:08Z</time>
      </trkpt>
      <trkpt lat="43.95111" lon="3.26431">
        <ele>758.8</ele>
        <time>2022-06-16T10:26:09Z</time>
      </trkpt>
      <trkpt lat="43.95106" lon="3.26435">
        <ele>759.2</ele>
        <time>2022-06-16T10:26:12Z</time>
      </trkpt>
      <trkpt lat="43.95103" lon="3.26437">
        <ele>759.4</ele>
        <time>2022-06-16T10:26:14Z</time>
      </trkpt>
      <trkpt lat="43.95097" lon="3.26439">
        <ele>759.6</ele>
        <time>2022-06-16T10:26:17Z</time>
      </trkpt>
      <trkpt lat="43.95095" lon="3.26443">
        <ele>759.8</ele>
        <time>2022-06-16T10:26:19Z</time>
      </trkpt>
      <trkpt lat="43.95086" lon="3.26449">
        <ele>760.2</ele>
        <time>2022-06-16T10:26:24Z</time>
      </trkpt>
      <trkpt lat="43.95085" lon="3.2645">
        <ele>760.4</ele>
        <time>2022-06-16T10:26:25Z</time>
      </trkpt>
      <trkpt lat="43.95083" lon="3.26459">
        <ele>760.8</ele>
        <time>2022-06-16T10:26:28Z</time>
      </trkpt>
      <trkpt lat="43.95082" lon="3.26461">
        <ele>761</ele>
        <time>2022-06-16T10:26:29Z</time>
      </trkpt>
      <trkpt lat="43.95077" lon="3.26481">
        <ele>761.6</ele>
        <time>2022-06-16T10:26:36Z</time>
      </trkpt>
      <trkpt lat="43.95071" lon="3.26497">
        <ele>762</ele>
        <time>2022-06-16T10:26:41Z</time>
      </trkpt>
      <trkpt lat="43.95066" lon="3.26504">
        <ele>762.2</ele>
        <time>2022-06-16T10:26:44Z</time>
      </trkpt>
      <trkpt lat="43.95062" lon="3.26521">
        <ele>762.8</ele>
        <time>2022-06-16T10:26:49Z</time>
      </trkpt>
      <trkpt lat="43.95062" lon="3.26529">
        <ele>763</ele>
        <time>2022-06-16T10:26:51Z</time>
      </trkpt>
      <trkpt lat="43.9506" lon="3.26553">
        <ele>763.2</ele>
        <time>2022-06-16T10:26:57Z</time>
      </trkpt>
      <trkpt lat="43.95054" lon="3.26572">
        <ele>763.4</ele>
        <time>2022-06-16T10:27:02Z</time>
      </trkpt>
      <trkpt lat="43.95042" lon="3.26597">
        <ele>763.8</ele>
        <time>2022-06-16T10:27:09Z</time>
      </trkpt>
      <trkpt lat="43.95031" lon="3.26619">
        <ele>764</ele>
        <time>2022-06-16T10:27:15Z</time>
      </trkpt>
      <trkpt lat="43.95024" lon="3.26638">
        <ele>764.2</ele>
        <time>2022-06-16T10:27:20Z</time>
      </trkpt>
      <trkpt lat="43.95009" lon="3.26668">
        <ele>764.6</ele>
        <time>2022-06-16T10:27:29Z</time>
      </trkpt>
      <trkpt lat="43.94999" lon="3.26688">
        <ele>764.8</ele>
        <time>2022-06-16T10:27:35Z</time>
      </trkpt>
      <trkpt lat="43.94985" lon="3.2672">
        <ele>764.8</ele>
        <time>2022-06-16T10:27:44Z</time>
      </trkpt>
      <trkpt lat="43.94979" lon="3.26731">
        <ele>764.6</ele>
        <time>2022-06-16T10:27:49Z</time>
      </trkpt>
      <trkpt lat="43.94975" lon="3.26741">
        <ele>764.6</ele>
        <time>2022-06-16T10:27:52Z</time>
      </trkpt>
      <trkpt lat="43.94976" lon="3.26742">
        <ele>764.4</ele>
        <time>2022-06-16T10:27:53Z</time>
      </trkpt>
      <trkpt lat="43.94979" lon="3.2674">
        <ele>764.4</ele>
        <time>2022-06-16T10:27:55Z</time>
      </trkpt>
      <trkpt lat="43.9498" lon="3.26735">
        <ele>764.4</ele>
        <time>2022-06-16T10:27:57Z</time>
      </trkpt>
      <trkpt lat="43.94982" lon="3.26725">
        <ele>764.4</ele>
        <time>2022-06-16T10:28:01Z</time>
      </trkpt>
      <trkpt lat="43.94982" lon="3.26723">
        <ele>764.6</ele>
        <time>2022-06-16T10:28:02Z</time>
      </trkpt>
      <trkpt lat="43.94981" lon="3.26722">
        <ele>764.6</ele>
        <time>2022-06-16T10:28:03Z</time>
      </trkpt>
      <trkpt lat="43.94978" lon="3.26722">
        <ele>764.6</ele>
        <time>2022-06-16T10:28:05Z</time>
      </trkpt>
      <trkpt lat="43.94973" lon="3.26722">
        <ele>764.8</ele>
        <time>2022-06-16T10:28:08Z</time>
      </trkpt>
      <trkpt lat="43.94965" lon="3.26722">
        <ele>765.4</ele>
        <time>2022-06-16T10:28:12Z</time>
      </trkpt>
      <trkpt lat="43.94955" lon="3.26724">
        <ele>765.8</ele>
        <time>2022-06-16T10:28:16Z</time>
      </trkpt>
      <trkpt lat="43.94951" lon="3.26724">
        <ele>766</ele>
        <time>2022-06-16T10:28:17Z</time>
      </trkpt>
      <trkpt lat="43.94936" lon="3.26724">
        <ele>766.6</ele>
        <time>2022-06-16T10:28:23Z</time>
      </trkpt>
      <trkpt lat="43.94921" lon="3.26728">
        <ele>766.8</ele>
        <time>2022-06-16T10:28:29Z</time>
      </trkpt>
      <trkpt lat="43.94913" lon="3.26731">
        <ele>767</ele>
        <time>2022-06-16T10:28:32Z</time>
      </trkpt>
      <trkpt lat="43.94901" lon="3.26731">
        <ele>767.8</ele>
        <time>2022-06-16T10:28:38Z</time>
      </trkpt>
      <trkpt lat="43.94899" lon="3.26732">
        <ele>768</ele>
        <time>2022-06-16T10:28:39Z</time>
      </trkpt>
      <trkpt lat="43.94897" lon="3.26732">
        <ele>768.2</ele>
        <time>2022-06-16T10:28:40Z</time>
      </trkpt>
      <trkpt lat="43.94892" lon="3.26733">
        <ele>768.4</ele>
        <time>2022-06-16T10:28:42Z</time>
      </trkpt>
      <trkpt lat="43.94883" lon="3.26734">
        <ele>768.8</ele>
        <time>2022-06-16T10:28:46Z</time>
      </trkpt>
      <trkpt lat="43.9488" lon="3.26736">
        <ele>769.2</ele>
        <time>2022-06-16T10:28:48Z</time>
      </trkpt>
      <trkpt lat="43.94878" lon="3.26737">
        <ele>769.4</ele>
        <time>2022-06-16T10:28:49Z</time>
      </trkpt>
      <trkpt lat="43.94876" lon="3.26738">
        <ele>769.6</ele>
        <time>2022-06-16T10:28:50Z</time>
      </trkpt>
      <trkpt lat="43.94874" lon="3.26739">
        <ele>770.2</ele>
        <time>2022-06-16T10:28:53Z</time>
      </trkpt>
      <trkpt lat="43.94874" lon="3.2674">
        <ele>770.8</ele>
        <time>2022-06-16T10:29:07Z</time>
      </trkpt>
      <trkpt lat="43.94874" lon="3.2674">
        <ele>770.8</ele>
        <time>2022-06-16T10:29:14Z</time>
      </trkpt>
      <trkpt lat="43.94874" lon="3.2674">
        <ele>770.4</ele>
        <time>2022-06-16T10:29:57Z</time>
      </trkpt>
      <trkpt lat="43.94874" lon="3.2674">
        <ele>770.4</ele>
        <time>2022-06-16T10:30:25Z</time>
      </trkpt>
      <trkpt lat="43.94874" lon="3.2674">
        <ele>770.8</ele>
        <time>2022-06-16T10:30:49Z</time>
      </trkpt>
      <trkpt lat="43.94874" lon="3.2674">
        <ele>770.8</ele>
        <time>2022-06-16T10:31:12Z</time>
      </trkpt>
      <trkpt lat="43.94874" lon="3.2674">
        <ele>770.8</ele>
        <time>2022-06-16T10:31:34Z</time>
      </trkpt>
      <trkpt lat="43.94874" lon="3.2674">
        <ele>770.2</ele>
        <time>2022-06-16T10:31:58Z</time>
      </trkpt>
      <trkpt lat="43.94874" lon="3.2674">
        <ele>770.4</ele>
        <time>2022-06-16T10:32:02Z</time>
      </trkpt>
      <trkpt lat="43.94871" lon="3.26743">
        <ele>770.2</ele>
        <time>2022-06-16T10:32:10Z</time>
      </trkpt>
      <trkpt lat="43.9487" lon="3.26743">
        <ele>770.2</ele>
        <time>2022-06-16T10:32:11Z</time>
      </trkpt>
      <trkpt lat="43.94864" lon="3.26744">
        <ele>770.2</ele>
        <time>2022-06-16T10:32:15Z</time>
      </trkpt>
      <trkpt lat="43.94863" lon="3.26745">
        <ele>770.2</ele>
        <time>2022-06-16T10:32:16Z</time>
      </trkpt>
      <trkpt lat="43.94853" lon="3.26753">
        <ele>770.4</ele>
        <time>2022-06-16T10:32:21Z</time>
      </trkpt>
      <trkpt lat="43.94848" lon="3.26755">
        <ele>770.6</ele>
        <time>2022-06-16T10:32:23Z</time>
      </trkpt>
      <trkpt lat="43.94845" lon="3.26755">
        <ele>770.6</ele>
        <time>2022-06-16T10:32:24Z</time>
      </trkpt>
      <trkpt lat="43.94839" lon="3.26754">
        <ele>770.6</ele>
        <time>2022-06-16T10:32:26Z</time>
      </trkpt>
      <trkpt lat="43.94832" lon="3.26753">
        <ele>770.8</ele>
        <time>2022-06-16T10:32:29Z</time>
      </trkpt>
      <trkpt lat="43.94829" lon="3.26758">
        <ele>770.8</ele>
        <time>2022-06-16T10:32:31Z</time>
      </trkpt>
      <trkpt lat="43.94832" lon="3.26771">
        <ele>770.8</ele>
        <time>2022-06-16T10:32:34Z</time>
      </trkpt>
      <trkpt lat="43.94835" lon="3.26774">
        <ele>770.8</ele>
        <time>2022-06-16T10:32:35Z</time>
      </trkpt>
      <trkpt lat="43.94847" lon="3.26781">
        <ele>770.6</ele>
        <time>2022-06-16T10:32:38Z</time>
      </trkpt>
      <trkpt lat="43.94856" lon="3.26786">
        <ele>770</ele>
        <time>2022-06-16T10:32:40Z</time>
      </trkpt>
      <trkpt lat="43.94861" lon="3.26787">
        <ele>769.8</ele>
        <time>2022-06-16T10:32:41Z</time>
      </trkpt>
      <trkpt lat="43.94866" lon="3.26787">
        <ele>769.6</ele>
        <time>2022-06-16T10:32:42Z</time>
      </trkpt>
      <trkpt lat="43.94879" lon="3.2679">
        <ele>768.8</ele>
        <time>2022-06-16T10:32:46Z</time>
      </trkpt>
      <trkpt lat="43.94882" lon="3.2679">
        <ele>768.8</ele>
        <time>2022-06-16T10:32:47Z</time>
      </trkpt>
      <trkpt lat="43.94893" lon="3.26793">
        <ele>768.2</ele>
        <time>2022-06-16T10:32:51Z</time>
      </trkpt>
      <trkpt lat="43.94902" lon="3.26807">
        <ele>768</ele>
        <time>2022-06-16T10:32:54Z</time>
      </trkpt>
      <trkpt lat="43.94905" lon="3.26813">
        <ele>768</ele>
        <time>2022-06-16T10:32:55Z</time>
      </trkpt>
      <trkpt lat="43.94906" lon="3.26819">
        <ele>768</ele>
        <time>2022-06-16T10:32:56Z</time>
      </trkpt>
      <trkpt lat="43.94908" lon="3.26832">
        <ele>767.8</ele>
        <time>2022-06-16T10:32:58Z</time>
      </trkpt>
      <trkpt lat="43.9491" lon="3.26847">
        <ele>767.6</ele>
        <time>2022-06-16T10:33:00Z</time>
      </trkpt>
      <trkpt lat="43.94911" lon="3.26853">
        <ele>767.4</ele>
        <time>2022-06-16T10:33:01Z</time>
      </trkpt>
      <trkpt lat="43.94911" lon="3.26863">
        <ele>767.2</ele>
        <time>2022-06-16T10:33:03Z</time>
      </trkpt>
      <trkpt lat="43.94911" lon="3.26864">
        <ele>767.2</ele>
        <time>2022-06-16T10:33:04Z</time>
      </trkpt>
      <trkpt lat="43.94911" lon="3.26865">
        <ele>766.8</ele>
        <time>2022-06-16T10:33:07Z</time>
      </trkpt>
      <trkpt lat="43.94911" lon="3.26865">
        <ele>766.6</ele>
        <time>2022-06-16T10:33:09Z</time>
      </trkpt>
      <trkpt lat="43.94911" lon="3.26865">
        <ele>766.6</ele>
        <time>2022-06-16T10:33:17Z</time>
      </trkpt>
      <trkpt lat="43.94912" lon="3.26869">
        <ele>766.6</ele>
        <time>2022-06-16T10:33:21Z</time>
      </trkpt>
      <trkpt lat="43.94913" lon="3.26871">
        <ele>766.6</ele>
        <time>2022-06-16T10:33:22Z</time>
      </trkpt>
      <trkpt lat="43.94908" lon="3.26889">
        <ele>766.6</ele>
        <time>2022-06-16T10:33:27Z</time>
      </trkpt>
      <trkpt lat="43.94899" lon="3.26916">
        <ele>766.8</ele>
        <time>2022-06-16T10:33:34Z</time>
      </trkpt>
      <trkpt lat="43.94885" lon="3.26946">
        <ele>767.4</ele>
        <time>2022-06-16T10:33:42Z</time>
      </trkpt>
      <trkpt lat="43.94883" lon="3.26953">
        <ele>767.6</ele>
        <time>2022-06-16T10:33:44Z</time>
      </trkpt>
      <trkpt lat="43.94881" lon="3.26957">
        <ele>767.8</ele>
        <time>2022-06-16T10:33:45Z</time>
      </trkpt>
      <trkpt lat="43.94874" lon="3.26975">
        <ele>768.2</ele>
        <time>2022-06-16T10:33:50Z</time>
      </trkpt>
      <trkpt lat="43.94867" lon="3.26993">
        <ele>768.8</ele>
        <time>2022-06-16T10:33:55Z</time>
      </trkpt>
      <trkpt lat="43.94866" lon="3.26996">
        <ele>769</ele>
        <time>2022-06-16T10:33:56Z</time>
      </trkpt>
      <trkpt lat="43.94859" lon="3.27012">
        <ele>769.6</ele>
        <time>2022-06-16T10:34:02Z</time>
      </trkpt>
      <trkpt lat="43.94858" lon="3.27015">
        <ele>769.8</ele>
        <time>2022-06-16T10:34:03Z</time>
      </trkpt>
      <trkpt lat="43.9485" lon="3.27031">
        <ele>770.6</ele>
        <time>2022-06-16T10:34:09Z</time>
      </trkpt>
      <trkpt lat="43.94848" lon="3.27037">
        <ele>771</ele>
        <time>2022-06-16T10:34:11Z</time>
      </trkpt>
      <trkpt lat="43.94843" lon="3.27046">
        <ele>771.2</ele>
        <time>2022-06-16T10:34:14Z</time>
      </trkpt>
      <trkpt lat="43.94835" lon="3.27065">
        <ele>771.8</ele>
        <time>2022-06-16T10:34:20Z</time>
      </trkpt>
      <trkpt lat="43.94831" lon="3.27071">
        <ele>772</ele>
        <time>2022-06-16T10:34:22Z</time>
      </trkpt>
      <trkpt lat="43.94819" lon="3.27089">
        <ele>772.6</ele>
        <time>2022-06-16T10:34:28Z</time>
      </trkpt>
      <trkpt lat="43.94809" lon="3.27101">
        <ele>773</ele>
        <time>2022-06-16T10:34:32Z</time>
      </trkpt>
      <trkpt lat="43.94802" lon="3.27106">
        <ele>773.2</ele>
        <time>2022-06-16T10:34:35Z</time>
      </trkpt>
      <trkpt lat="43.94798" lon="3.27108">
        <ele>773.6</ele>
        <time>2022-06-16T10:34:39Z</time>
      </trkpt>
      <trkpt lat="43.94798" lon="3.27108">
        <ele>774</ele>
        <time>2022-06-16T10:34:51Z</time>
      </trkpt>
      <trkpt lat="43.94798" lon="3.27108">
        <ele>774</ele>
        <time>2022-06-16T10:34:52Z</time>
      </trkpt>
      <trkpt lat="43.94798" lon="3.27108">
        <ele>774</ele>
        <time>2022-06-16T10:35:04Z</time>
      </trkpt>
      <trkpt lat="43.94798" lon="3.27108">
        <ele>774</ele>
        <time>2022-06-16T10:35:19Z</time>
      </trkpt>
      <trkpt lat="43.94798" lon="3.27108">
        <ele>774</ele>
        <time>2022-06-16T10:35:33Z</time>
      </trkpt>
      <trkpt lat="43.94797" lon="3.2711">
        <ele>774</ele>
        <time>2022-06-16T10:35:35Z</time>
      </trkpt>
      <trkpt lat="43.94793" lon="3.27115">
        <ele>774.2</ele>
        <time>2022-06-16T10:35:38Z</time>
      </trkpt>
      <trkpt lat="43.94777" lon="3.2712">
        <ele>774.6</ele>
        <time>2022-06-16T10:35:45Z</time>
      </trkpt>
      <trkpt lat="43.94767" lon="3.27119">
        <ele>775</ele>
        <time>2022-06-16T10:35:49Z</time>
      </trkpt>
      <trkpt lat="43.94759" lon="3.27118">
        <ele>775.6</ele>
        <time>2022-06-16T10:35:52Z</time>
      </trkpt>
      <trkpt lat="43.94729" lon="3.27114">
        <ele>776</ele>
        <time>2022-06-16T10:35:59Z</time>
      </trkpt>
      <trkpt lat="43.94723" lon="3.27112">
        <ele>776.2</ele>
        <time>2022-06-16T10:36:00Z</time>
      </trkpt>
      <trkpt lat="43.94715" lon="3.27111">
        <ele>776.2</ele>
        <time>2022-06-16T10:36:02Z</time>
      </trkpt>
      <trkpt lat="43.94703" lon="3.27109">
        <ele>776.2</ele>
        <time>2022-06-16T10:36:05Z</time>
      </trkpt>
      <trkpt lat="43.94671" lon="3.27114">
        <ele>776.2</ele>
        <time>2022-06-16T10:36:12Z</time>
      </trkpt>
      <trkpt lat="43.94661" lon="3.27114">
        <ele>776.2</ele>
        <time>2022-06-16T10:36:14Z</time>
      </trkpt>
      <trkpt lat="43.94653" lon="3.2711">
        <ele>776.2</ele>
        <time>2022-06-16T10:36:16Z</time>
      </trkpt>
      <trkpt lat="43.9465" lon="3.27106">
        <ele>776.2</ele>
        <time>2022-06-16T10:36:17Z</time>
      </trkpt>
      <trkpt lat="43.94647" lon="3.27102">
        <ele>776.4</ele>
        <time>2022-06-16T10:36:18Z</time>
      </trkpt>
      <trkpt lat="43.94641" lon="3.27094">
        <ele>776.4</ele>
        <time>2022-06-16T10:36:20Z</time>
      </trkpt>
      <trkpt lat="43.94636" lon="3.27088">
        <ele>776.6</ele>
        <time>2022-06-16T10:36:22Z</time>
      </trkpt>
      <trkpt lat="43.94627" lon="3.27081">
        <ele>777.2</ele>
        <time>2022-06-16T10:36:27Z</time>
      </trkpt>
      <trkpt lat="43.94615" lon="3.27074">
        <ele>778</ele>
        <time>2022-06-16T10:36:34Z</time>
      </trkpt>
      <trkpt lat="43.94613" lon="3.27073">
        <ele>778.2</ele>
        <time>2022-06-16T10:36:35Z</time>
      </trkpt>
      <trkpt lat="43.946" lon="3.27069">
        <ele>779.2</ele>
        <time>2022-06-16T10:36:41Z</time>
      </trkpt>
      <trkpt lat="43.94598" lon="3.27068">
        <ele>779.4</ele>
        <time>2022-06-16T10:36:42Z</time>
      </trkpt>
      <trkpt lat="43.94581" lon="3.27061">
        <ele>780.2</ele>
        <time>2022-06-16T10:36:50Z</time>
      </trkpt>
      <trkpt lat="43.94578" lon="3.2706">
        <ele>780.4</ele>
        <time>2022-06-16T10:36:51Z</time>
      </trkpt>
      <trkpt lat="43.94557" lon="3.27057">
        <ele>781.4</ele>
        <time>2022-06-16T10:37:00Z</time>
      </trkpt>
      <trkpt lat="43.94555" lon="3.27057">
        <ele>781.6</ele>
        <time>2022-06-16T10:37:01Z</time>
      </trkpt>
      <trkpt lat="43.94543" lon="3.27059">
        <ele>782.4</ele>
        <time>2022-06-16T10:37:06Z</time>
      </trkpt>
      <trkpt lat="43.94535" lon="3.2706">
        <ele>782.8</ele>
        <time>2022-06-16T10:37:09Z</time>
      </trkpt>
      <trkpt lat="43.94508" lon="3.27063">
        <ele>783.4</ele>
        <time>2022-06-16T10:37:18Z</time>
      </trkpt>
      <trkpt lat="43.94505" lon="3.27063">
        <ele>783.6</ele>
        <time>2022-06-16T10:37:19Z</time>
      </trkpt>
      <trkpt lat="43.94487" lon="3.27064">
        <ele>784</ele>
        <time>2022-06-16T10:37:25Z</time>
      </trkpt>
      <trkpt lat="43.94477" lon="3.2707">
        <ele>784.2</ele>
        <time>2022-06-16T10:37:30Z</time>
      </trkpt>
      <trkpt lat="43.94473" lon="3.27073">
        <ele>784.6</ele>
        <time>2022-06-16T10:37:33Z</time>
      </trkpt>
      <trkpt lat="43.94468" lon="3.27075">
        <ele>785.4</ele>
        <time>2022-06-16T10:37:37Z</time>
      </trkpt>
      <trkpt lat="43.94466" lon="3.27075">
        <ele>785.6</ele>
        <time>2022-06-16T10:37:39Z</time>
      </trkpt>
      <trkpt lat="43.94465" lon="3.27077">
        <ele>785.8</ele>
        <time>2022-06-16T10:37:40Z</time>
      </trkpt>
      <trkpt lat="43.94458" lon="3.27082">
        <ele>786.4</ele>
        <time>2022-06-16T10:37:45Z</time>
      </trkpt>
      <trkpt lat="43.94456" lon="3.27085">
        <ele>786.6</ele>
        <time>2022-06-16T10:37:47Z</time>
      </trkpt>
      <trkpt lat="43.94452" lon="3.2709">
        <ele>787</ele>
        <time>2022-06-16T10:37:51Z</time>
      </trkpt>
      <trkpt lat="43.94451" lon="3.27092">
        <ele>787.2</ele>
        <time>2022-06-16T10:37:52Z</time>
      </trkpt>
      <trkpt lat="43.94446" lon="3.27097">
        <ele>787.6</ele>
        <time>2022-06-16T10:37:56Z</time>
      </trkpt>
      <trkpt lat="43.94445" lon="3.27098">
        <ele>787.8</ele>
        <time>2022-06-16T10:37:57Z</time>
      </trkpt>
      <trkpt lat="43.94438" lon="3.27103">
        <ele>788.6</ele>
        <time>2022-06-16T10:38:03Z</time>
      </trkpt>
      <trkpt lat="43.94432" lon="3.27106">
        <ele>789.2</ele>
        <time>2022-06-16T10:38:07Z</time>
      </trkpt>
      <trkpt lat="43.94431" lon="3.27106">
        <ele>789.4</ele>
        <time>2022-06-16T10:38:08Z</time>
      </trkpt>
      <trkpt lat="43.94427" lon="3.27106">
        <ele>789.6</ele>
        <time>2022-06-16T10:38:10Z</time>
      </trkpt>
      <trkpt lat="43.94423" lon="3.27105">
        <ele>790.2</ele>
        <time>2022-06-16T10:38:13Z</time>
      </trkpt>
      <trkpt lat="43.94416" lon="3.271">
        <ele>790.6</ele>
        <time>2022-06-16T10:38:18Z</time>
      </trkpt>
      <trkpt lat="43.94411" lon="3.27093">
        <ele>791.4</ele>
        <time>2022-06-16T10:38:21Z</time>
      </trkpt>
      <trkpt lat="43.94407" lon="3.27086">
        <ele>791.8</ele>
        <time>2022-06-16T10:38:24Z</time>
      </trkpt>
      <trkpt lat="43.94398" lon="3.27073">
        <ele>791.8</ele>
        <time>2022-06-16T10:38:29Z</time>
      </trkpt>
      <trkpt lat="43.94385" lon="3.27054">
        <ele>791.8</ele>
        <time>2022-06-16T10:38:33Z</time>
      </trkpt>
      <trkpt lat="43.94364" lon="3.27023">
        <ele>791.2</ele>
        <time>2022-06-16T10:38:38Z</time>
      </trkpt>
      <trkpt lat="43.94351" lon="3.26996">
        <ele>790.8</ele>
        <time>2022-06-16T10:38:42Z</time>
      </trkpt>
      <trkpt lat="43.94345" lon="3.26983">
        <ele>790.6</ele>
        <time>2022-06-16T10:38:44Z</time>
      </trkpt>
      <trkpt lat="43.94323" lon="3.26947">
        <ele>790.2</ele>
        <time>2022-06-16T10:38:50Z</time>
      </trkpt>
      <trkpt lat="43.94318" lon="3.26939">
        <ele>790.2</ele>
        <time>2022-06-16T10:38:52Z</time>
      </trkpt>
      <trkpt lat="43.94312" lon="3.26933">
        <ele>790.2</ele>
        <time>2022-06-16T10:38:54Z</time>
      </trkpt>
      <trkpt lat="43.94301" lon="3.26926">
        <ele>790.2</ele>
        <time>2022-06-16T10:38:59Z</time>
      </trkpt>
      <trkpt lat="43.94288" lon="3.26925">
        <ele>790.6</ele>
        <time>2022-06-16T10:39:05Z</time>
      </trkpt>
      <trkpt lat="43.94275" lon="3.26918">
        <ele>791.8</ele>
        <time>2022-06-16T10:39:11Z</time>
      </trkpt>
      <trkpt lat="43.94263" lon="3.26914">
        <ele>792.4</ele>
        <time>2022-06-16T10:39:16Z</time>
      </trkpt>
      <trkpt lat="43.94258" lon="3.26914">
        <ele>792.8</ele>
        <time>2022-06-16T10:39:18Z</time>
      </trkpt>
      <trkpt lat="43.94246" lon="3.26914">
        <ele>793</ele>
        <time>2022-06-16T10:39:22Z</time>
      </trkpt>
      <trkpt lat="43.94228" lon="3.26916">
        <ele>793.2</ele>
        <time>2022-06-16T10:39:27Z</time>
      </trkpt>
      <trkpt lat="43.94206" lon="3.26907">
        <ele>793.4</ele>
        <time>2022-06-16T10:39:33Z</time>
      </trkpt>
      <trkpt lat="43.94178" lon="3.26877">
        <ele>793.4</ele>
        <time>2022-06-16T10:39:41Z</time>
      </trkpt>
      <trkpt lat="43.94174" lon="3.26874">
        <ele>793.4</ele>
        <time>2022-06-16T10:39:42Z</time>
      </trkpt>
      <trkpt lat="43.94138" lon="3.26849">
        <ele>792.8</ele>
        <time>2022-06-16T10:39:50Z</time>
      </trkpt>
      <trkpt lat="43.94099" lon="3.26824">
        <ele>792.4</ele>
        <time>2022-06-16T10:39:57Z</time>
      </trkpt>
      <trkpt lat="43.94062" lon="3.26799">
        <ele>791.6</ele>
        <time>2022-06-16T10:40:03Z</time>
      </trkpt>
      <trkpt lat="43.94055" lon="3.26794">
        <ele>791.4</ele>
        <time>2022-06-16T10:40:04Z</time>
      </trkpt>
      <trkpt lat="43.94042" lon="3.26785">
        <ele>790.8</ele>
        <time>2022-06-16T10:40:06Z</time>
      </trkpt>
      <trkpt lat="43.94028" lon="3.26783">
        <ele>790.6</ele>
        <time>2022-06-16T10:40:08Z</time>
      </trkpt>
      <trkpt lat="43.94015" lon="3.26792">
        <ele>790</ele>
        <time>2022-06-16T10:40:10Z</time>
      </trkpt>
      <trkpt lat="43.94008" lon="3.26799">
        <ele>789.6</ele>
        <time>2022-06-16T10:40:11Z</time>
      </trkpt>
      <trkpt lat="43.94001" lon="3.26807">
        <ele>789.2</ele>
        <time>2022-06-16T10:40:12Z</time>
      </trkpt>
      <trkpt lat="43.93995" lon="3.26816">
        <ele>788.8</ele>
        <time>2022-06-16T10:40:13Z</time>
      </trkpt>
      <trkpt lat="43.93988" lon="3.26824">
        <ele>788</ele>
        <time>2022-06-16T10:40:14Z</time>
      </trkpt>
      <trkpt lat="43.93975" lon="3.2684">
        <ele>787.4</ele>
        <time>2022-06-16T10:40:16Z</time>
      </trkpt>
      <trkpt lat="43.93968" lon="3.26848">
        <ele>786.4</ele>
        <time>2022-06-16T10:40:17Z</time>
      </trkpt>
      <trkpt lat="43.9395" lon="3.2687">
        <ele>785.4</ele>
        <time>2022-06-16T10:40:20Z</time>
      </trkpt>
      <trkpt lat="43.93939" lon="3.26884">
        <ele>785</ele>
        <time>2022-06-16T10:40:22Z</time>
      </trkpt>
      <trkpt lat="43.93933" lon="3.26888">
        <ele>784.8</ele>
        <time>2022-06-16T10:40:23Z</time>
      </trkpt>
      <trkpt lat="43.93926" lon="3.26889">
        <ele>784.8</ele>
        <time>2022-06-16T10:40:24Z</time>
      </trkpt>
      <trkpt lat="43.93913" lon="3.26889">
        <ele>784.6</ele>
        <time>2022-06-16T10:40:26Z</time>
      </trkpt>
      <trkpt lat="43.93874" lon="3.2689">
        <ele>784.4</ele>
        <time>2022-06-16T10:40:32Z</time>
      </trkpt>
      <trkpt lat="43.93816" lon="3.26896">
        <ele>783.4</ele>
        <time>2022-06-16T10:40:41Z</time>
      </trkpt>
      <trkpt lat="43.9381" lon="3.26898">
        <ele>783.2</ele>
        <time>2022-06-16T10:40:42Z</time>
      </trkpt>
      <trkpt lat="43.93772" lon="3.26915">
        <ele>782.6</ele>
        <time>2022-06-16T10:40:48Z</time>
      </trkpt>
      <trkpt lat="43.93754" lon="3.26924">
        <ele>782.2</ele>
        <time>2022-06-16T10:40:51Z</time>
      </trkpt>
      <trkpt lat="43.93742" lon="3.26932">
        <ele>781.8</ele>
        <time>2022-06-16T10:40:53Z</time>
      </trkpt>
      <trkpt lat="43.93737" lon="3.26937">
        <ele>781.8</ele>
        <time>2022-06-16T10:40:54Z</time>
      </trkpt>
      <trkpt lat="43.93711" lon="3.26963">
        <ele>781.4</ele>
        <time>2022-06-16T10:40:59Z</time>
      </trkpt>
      <trkpt lat="43.937" lon="3.2697">
        <ele>781.2</ele>
        <time>2022-06-16T10:41:01Z</time>
      </trkpt>
      <trkpt lat="43.93695" lon="3.26971">
        <ele>781.2</ele>
        <time>2022-06-16T10:41:02Z</time>
      </trkpt>
      <trkpt lat="43.9369" lon="3.26969">
        <ele>781.2</ele>
        <time>2022-06-16T10:41:03Z</time>
      </trkpt>
      <trkpt lat="43.93685" lon="3.26965">
        <ele>781.2</ele>
        <time>2022-06-16T10:41:04Z</time>
      </trkpt>
      <trkpt lat="43.93666" lon="3.26947">
        <ele>781.2</ele>
        <time>2022-06-16T10:41:08Z</time>
      </trkpt>
      <trkpt lat="43.93653" lon="3.26932">
        <ele>781.8</ele>
        <time>2022-06-16T10:41:11Z</time>
      </trkpt>
      <trkpt lat="43.93627" lon="3.26903">
        <ele>782.4</ele>
        <time>2022-06-16T10:41:17Z</time>
      </trkpt>
      <trkpt lat="43.93591" lon="3.26865">
        <ele>782.8</ele>
        <time>2022-06-16T10:41:25Z</time>
      </trkpt>
      <trkpt lat="43.93555" lon="3.26824">
        <ele>782.8</ele>
        <time>2022-06-16T10:41:34Z</time>
      </trkpt>
      <trkpt lat="43.93543" lon="3.26813">
        <ele>783</ele>
        <time>2022-06-16T10:41:37Z</time>
      </trkpt>
      <trkpt lat="43.93537" lon="3.26805">
        <ele>783.2</ele>
        <time>2022-06-16T10:41:39Z</time>
      </trkpt>
      <trkpt lat="43.93529" lon="3.26797">
        <ele>783.2</ele>
        <time>2022-06-16T10:41:41Z</time>
      </trkpt>
      <trkpt lat="43.93511" lon="3.2678">
        <ele>783.4</ele>
        <time>2022-06-16T10:41:45Z</time>
      </trkpt>
      <trkpt lat="43.93506" lon="3.26777">
        <ele>783.4</ele>
        <time>2022-06-16T10:41:46Z</time>
      </trkpt>
      <trkpt lat="43.935" lon="3.26776">
        <ele>783.4</ele>
        <time>2022-06-16T10:41:47Z</time>
      </trkpt>
      <trkpt lat="43.93489" lon="3.2678">
        <ele>783.4</ele>
        <time>2022-06-16T10:41:49Z</time>
      </trkpt>
      <trkpt lat="43.93479" lon="3.2679">
        <ele>783.2</ele>
        <time>2022-06-16T10:41:51Z</time>
      </trkpt>
      <trkpt lat="43.93474" lon="3.26795">
        <ele>783</ele>
        <time>2022-06-16T10:41:52Z</time>
      </trkpt>
      <trkpt lat="43.93468" lon="3.26798">
        <ele>782.8</ele>
        <time>2022-06-16T10:41:53Z</time>
      </trkpt>
      <trkpt lat="43.93462" lon="3.26798">
        <ele>782.6</ele>
        <time>2022-06-16T10:41:54Z</time>
      </trkpt>
      <trkpt lat="43.93451" lon="3.26795">
        <ele>782.4</ele>
        <time>2022-06-16T10:41:56Z</time>
      </trkpt>
      <trkpt lat="43.9344" lon="3.2679">
        <ele>782</ele>
        <time>2022-06-16T10:41:58Z</time>
      </trkpt>
      <trkpt lat="43.93411" lon="3.26781">
        <ele>781.6</ele>
        <time>2022-06-16T10:42:03Z</time>
      </trkpt>
      <trkpt lat="43.93372" lon="3.26766">
        <ele>781</ele>
        <time>2022-06-16T10:42:09Z</time>
      </trkpt>
      <trkpt lat="43.93365" lon="3.26763">
        <ele>780.6</ele>
        <time>2022-06-16T10:42:10Z</time>
      </trkpt>
      <trkpt lat="43.93336" lon="3.26752">
        <ele>779.8</ele>
        <time>2022-06-16T10:42:14Z</time>
      </trkpt>
      <trkpt lat="43.93322" lon="3.26747">
        <ele>779.4</ele>
        <time>2022-06-16T10:42:16Z</time>
      </trkpt>
      <trkpt lat="43.93303" lon="3.26741">
        <ele>778.8</ele>
        <time>2022-06-16T10:42:19Z</time>
      </trkpt>
      <trkpt lat="43.93286" lon="3.26738">
        <ele>778.6</ele>
        <time>2022-06-16T10:42:22Z</time>
      </trkpt>
      <trkpt lat="43.93244" lon="3.26732">
        <ele>778.6</ele>
        <time>2022-06-16T10:42:29Z</time>
      </trkpt>
      <trkpt lat="43.93207" lon="3.26728">
        <ele>778.2</ele>
        <time>2022-06-16T10:42:34Z</time>
      </trkpt>
      <trkpt lat="43.93191" lon="3.26729">
        <ele>777.8</ele>
        <time>2022-06-16T10:42:36Z</time>
      </trkpt>
      <trkpt lat="43.93183" lon="3.26729">
        <ele>777.6</ele>
        <time>2022-06-16T10:42:37Z</time>
      </trkpt>
      <trkpt lat="43.93153" lon="3.26729">
        <ele>776.4</ele>
        <time>2022-06-16T10:42:41Z</time>
      </trkpt>
      <trkpt lat="43.93139" lon="3.26732">
        <ele>775.8</ele>
        <time>2022-06-16T10:42:43Z</time>
      </trkpt>
      <trkpt lat="43.93123" lon="3.26736">
        <ele>775.4</ele>
        <time>2022-06-16T10:42:45Z</time>
      </trkpt>
      <trkpt lat="43.93116" lon="3.26737">
        <ele>775.2</ele>
        <time>2022-06-16T10:42:46Z</time>
      </trkpt>
      <trkpt lat="43.931" lon="3.26737">
        <ele>774.8</ele>
        <time>2022-06-16T10:42:48Z</time>
      </trkpt>
      <trkpt lat="43.93066" lon="3.26733">
        <ele>774.2</ele>
        <time>2022-06-16T10:42:52Z</time>
      </trkpt>
      <trkpt lat="43.93056" lon="3.26732">
        <ele>773.8</ele>
        <time>2022-06-16T10:42:53Z</time>
      </trkpt>
      <trkpt lat="43.93047" lon="3.26731">
        <ele>773.6</ele>
        <time>2022-06-16T10:42:54Z</time>
      </trkpt>
      <trkpt lat="43.93039" lon="3.26728">
        <ele>773.2</ele>
        <time>2022-06-16T10:42:55Z</time>
      </trkpt>
      <trkpt lat="43.93022" lon="3.26722">
        <ele>772.2</ele>
        <time>2022-06-16T10:42:57Z</time>
      </trkpt>
      <trkpt lat="43.92989" lon="3.26708">
        <ele>771</ele>
        <time>2022-06-16T10:43:01Z</time>
      </trkpt>
      <trkpt lat="43.92966" lon="3.26696">
        <ele>769.8</ele>
        <time>2022-06-16T10:43:04Z</time>
      </trkpt>
      <trkpt lat="43.92948" lon="3.26689">
        <ele>769.2</ele>
        <time>2022-06-16T10:43:06Z</time>
      </trkpt>
      <trkpt lat="43.9294" lon="3.26686">
        <ele>768.8</ele>
        <time>2022-06-16T10:43:07Z</time>
      </trkpt>
      <trkpt lat="43.92931" lon="3.26684">
        <ele>768.8</ele>
        <time>2022-06-16T10:43:08Z</time>
      </trkpt>
      <trkpt lat="43.92921" lon="3.26683">
        <ele>767.8</ele>
        <time>2022-06-16T10:43:09Z</time>
      </trkpt>
      <trkpt lat="43.92912" lon="3.26683">
        <ele>767.4</ele>
        <time>2022-06-16T10:43:10Z</time>
      </trkpt>
      <trkpt lat="43.92893" lon="3.26683">
        <ele>766.6</ele>
        <time>2022-06-16T10:43:12Z</time>
      </trkpt>
      <trkpt lat="43.92876" lon="3.2669">
        <ele>765.6</ele>
        <time>2022-06-16T10:43:14Z</time>
      </trkpt>
      <trkpt lat="43.92859" lon="3.26699">
        <ele>764.4</ele>
        <time>2022-06-16T10:43:16Z</time>
      </trkpt>
      <trkpt lat="43.92851" lon="3.26703">
        <ele>764.2</ele>
        <time>2022-06-16T10:43:17Z</time>
      </trkpt>
      <trkpt lat="43.92835" lon="3.26705">
        <ele>763.8</ele>
        <time>2022-06-16T10:43:19Z</time>
      </trkpt>
      <trkpt lat="43.92827" lon="3.26704">
        <ele>763.2</ele>
        <time>2022-06-16T10:43:20Z</time>
      </trkpt>
      <trkpt lat="43.92818" lon="3.267">
        <ele>762.6</ele>
        <time>2022-06-16T10:43:21Z</time>
      </trkpt>
      <trkpt lat="43.9281" lon="3.26696">
        <ele>762</ele>
        <time>2022-06-16T10:43:22Z</time>
      </trkpt>
      <trkpt lat="43.92793" lon="3.26687">
        <ele>761.2</ele>
        <time>2022-06-16T10:43:24Z</time>
      </trkpt>
      <trkpt lat="43.92784" lon="3.26684">
        <ele>760.6</ele>
        <time>2022-06-16T10:43:25Z</time>
      </trkpt>
      <trkpt lat="43.92774" lon="3.26684">
        <ele>760.4</ele>
        <time>2022-06-16T10:43:26Z</time>
      </trkpt>
      <trkpt lat="43.92764" lon="3.26685">
        <ele>759.6</ele>
        <time>2022-06-16T10:43:27Z</time>
      </trkpt>
      <trkpt lat="43.92745" lon="3.26687">
        <ele>758.4</ele>
        <time>2022-06-16T10:43:29Z</time>
      </trkpt>
      <trkpt lat="43.92736" lon="3.26687">
        <ele>758</ele>
        <time>2022-06-16T10:43:30Z</time>
      </trkpt>
      <trkpt lat="43.92727" lon="3.26685">
        <ele>757.4</ele>
        <time>2022-06-16T10:43:31Z</time>
      </trkpt>
      <trkpt lat="43.9271" lon="3.2668">
        <ele>756</ele>
        <time>2022-06-16T10:43:33Z</time>
      </trkpt>
      <trkpt lat="43.92692" lon="3.26675">
        <ele>754.8</ele>
        <time>2022-06-16T10:43:35Z</time>
      </trkpt>
      <trkpt lat="43.92683" lon="3.26672">
        <ele>754.2</ele>
        <time>2022-06-16T10:43:36Z</time>
      </trkpt>
      <trkpt lat="43.92648" lon="3.26672">
        <ele>753.6</ele>
        <time>2022-06-16T10:43:40Z</time>
      </trkpt>
      <trkpt lat="43.92607" lon="3.26677">
        <ele>752.4</ele>
        <time>2022-06-16T10:43:45Z</time>
      </trkpt>
      <trkpt lat="43.92599" lon="3.26678">
        <ele>752.2</ele>
        <time>2022-06-16T10:43:46Z</time>
      </trkpt>
      <trkpt lat="43.92577" lon="3.26687">
        <ele>751</ele>
        <time>2022-06-16T10:43:49Z</time>
      </trkpt>
      <trkpt lat="43.92564" lon="3.26695">
        <ele>750.6</ele>
        <time>2022-06-16T10:43:51Z</time>
      </trkpt>
      <trkpt lat="43.92553" lon="3.26704">
        <ele>750</ele>
        <time>2022-06-16T10:43:53Z</time>
      </trkpt>
      <trkpt lat="43.92537" lon="3.26719">
        <ele>749.8</ele>
        <time>2022-06-16T10:43:56Z</time>
      </trkpt>
      <trkpt lat="43.92502" lon="3.26748">
        <ele>749.4</ele>
        <time>2022-06-16T10:44:02Z</time>
      </trkpt>
      <trkpt lat="43.92482" lon="3.26756">
        <ele>749.2</ele>
        <time>2022-06-16T10:44:06Z</time>
      </trkpt>
      <trkpt lat="43.92462" lon="3.2676">
        <ele>749.8</ele>
        <time>2022-06-16T10:44:12Z</time>
      </trkpt>
      <trkpt lat="43.92441" lon="3.26758">
        <ele>751.2</ele>
        <time>2022-06-16T10:44:19Z</time>
      </trkpt>
      <trkpt lat="43.92417" lon="3.26751">
        <ele>752.2</ele>
        <time>2022-06-16T10:44:28Z</time>
      </trkpt>
      <trkpt lat="43.92411" lon="3.26749">
        <ele>752.2</ele>
        <time>2022-06-16T10:44:30Z</time>
      </trkpt>
      <trkpt lat="43.92395" lon="3.26746">
        <ele>753</ele>
        <time>2022-06-16T10:44:36Z</time>
      </trkpt>
      <trkpt lat="43.92388" lon="3.26745">
        <ele>753.6</ele>
        <time>2022-06-16T10:44:39Z</time>
      </trkpt>
      <trkpt lat="43.92376" lon="3.26742">
        <ele>754.4</ele>
        <time>2022-06-16T10:44:43Z</time>
      </trkpt>
      <trkpt lat="43.92369" lon="3.2674">
        <ele>754.6</ele>
        <time>2022-06-16T10:44:45Z</time>
      </trkpt>
      <trkpt lat="43.92355" lon="3.26737">
        <ele>754.6</ele>
        <time>2022-06-16T10:44:48Z</time>
      </trkpt>
      <trkpt lat="43.9235" lon="3.26736">
        <ele>754.6</ele>
        <time>2022-06-16T10:44:49Z</time>
      </trkpt>
      <trkpt lat="43.92308" lon="3.26736">
        <ele>753.8</ele>
        <time>2022-06-16T10:44:56Z</time>
      </trkpt>
      <trkpt lat="43.92302" lon="3.26736">
        <ele>753.6</ele>
        <time>2022-06-16T10:44:57Z</time>
      </trkpt>
      <trkpt lat="43.92279" lon="3.26736">
        <ele>753</ele>
        <time>2022-06-16T10:45:02Z</time>
      </trkpt>
      <trkpt lat="43.92264" lon="3.26736">
        <ele>753</ele>
        <time>2022-06-16T10:45:07Z</time>
      </trkpt>
      <trkpt lat="43.92249" lon="3.2673">
        <ele>753.6</ele>
        <time>2022-06-16T10:45:12Z</time>
      </trkpt>
      <trkpt lat="43.9223" lon="3.26714">
        <ele>754.6</ele>
        <time>2022-06-16T10:45:18Z</time>
      </trkpt>
      <trkpt lat="43.92225" lon="3.26714">
        <ele>754.6</ele>
        <time>2022-06-16T10:45:19Z</time>
      </trkpt>
      <trkpt lat="43.92219" lon="3.26715">
        <ele>754.6</ele>
        <time>2022-06-16T10:45:20Z</time>
      </trkpt>
      <trkpt lat="43.92201" lon="3.2672">
        <ele>754.4</ele>
        <time>2022-06-16T10:45:23Z</time>
      </trkpt>
      <trkpt lat="43.92165" lon="3.26733">
        <ele>753.6</ele>
        <time>2022-06-16T10:45:28Z</time>
      </trkpt>
      <trkpt lat="43.92157" lon="3.26735">
        <ele>753.4</ele>
        <time>2022-06-16T10:45:29Z</time>
      </trkpt>
      <trkpt lat="43.92129" lon="3.26744">
        <ele>752.2</ele>
        <time>2022-06-16T10:45:32Z</time>
      </trkpt>
      <trkpt lat="43.92112" lon="3.26745">
        <ele>751.2</ele>
        <time>2022-06-16T10:45:34Z</time>
      </trkpt>
      <trkpt lat="43.92104" lon="3.26742">
        <ele>751</ele>
        <time>2022-06-16T10:45:35Z</time>
      </trkpt>
      <trkpt lat="43.92097" lon="3.26737">
        <ele>750.2</ele>
        <time>2022-06-16T10:45:36Z</time>
      </trkpt>
      <trkpt lat="43.92089" lon="3.2673">
        <ele>750</ele>
        <time>2022-06-16T10:45:37Z</time>
      </trkpt>
      <trkpt lat="43.92072" lon="3.26717">
        <ele>748.4</ele>
        <time>2022-06-16T10:45:39Z</time>
      </trkpt>
      <trkpt lat="43.92057" lon="3.26705">
        <ele>747.2</ele>
        <time>2022-06-16T10:45:41Z</time>
      </trkpt>
      <trkpt lat="43.92049" lon="3.26701">
        <ele>746.8</ele>
        <time>2022-06-16T10:45:42Z</time>
      </trkpt>
      <trkpt lat="43.92041" lon="3.26699">
        <ele>746.2</ele>
        <time>2022-06-16T10:45:43Z</time>
      </trkpt>
      <trkpt lat="43.92025" lon="3.26697">
        <ele>745.2</ele>
        <time>2022-06-16T10:45:45Z</time>
      </trkpt>
      <trkpt lat="43.92008" lon="3.26696">
        <ele>744.4</ele>
        <time>2022-06-16T10:45:47Z</time>
      </trkpt>
      <trkpt lat="43.91999" lon="3.26695">
        <ele>743.8</ele>
        <time>2022-06-16T10:45:48Z</time>
      </trkpt>
      <trkpt lat="43.91956" lon="3.2669">
        <ele>742.6</ele>
        <time>2022-06-16T10:45:53Z</time>
      </trkpt>
      <trkpt lat="43.91924" lon="3.26694">
        <ele>741.4</ele>
        <time>2022-06-16T10:45:57Z</time>
      </trkpt>
      <trkpt lat="43.91917" lon="3.26697">
        <ele>741.2</ele>
        <time>2022-06-16T10:45:58Z</time>
      </trkpt>
      <trkpt lat="43.9191" lon="3.267">
        <ele>740.6</ele>
        <time>2022-06-16T10:45:59Z</time>
      </trkpt>
      <trkpt lat="43.91903" lon="3.26704">
        <ele>740.4</ele>
        <time>2022-06-16T10:46:00Z</time>
      </trkpt>
      <trkpt lat="43.91898" lon="3.2671">
        <ele>740</ele>
        <time>2022-06-16T10:46:01Z</time>
      </trkpt>
      <trkpt lat="43.91893" lon="3.26717">
        <ele>739.8</ele>
        <time>2022-06-16T10:46:02Z</time>
      </trkpt>
      <trkpt lat="43.91887" lon="3.26734">
        <ele>739.4</ele>
        <time>2022-06-16T10:46:04Z</time>
      </trkpt>
      <trkpt lat="43.91886" lon="3.26743">
        <ele>738.8</ele>
        <time>2022-06-16T10:46:05Z</time>
      </trkpt>
      <trkpt lat="43.91885" lon="3.26775">
        <ele>737.8</ele>
        <time>2022-06-16T10:46:09Z</time>
      </trkpt>
      <trkpt lat="43.91884" lon="3.2679">
        <ele>737.8</ele>
        <time>2022-06-16T10:46:11Z</time>
      </trkpt>
      <trkpt lat="43.91876" lon="3.2684">
        <ele>737.6</ele>
        <time>2022-06-16T10:46:18Z</time>
      </trkpt>
      <trkpt lat="43.91874" lon="3.26847">
        <ele>737.6</ele>
        <time>2022-06-16T10:46:19Z</time>
      </trkpt>
      <trkpt lat="43.91866" lon="3.26889">
        <ele>737.8</ele>
        <time>2022-06-16T10:46:25Z</time>
      </trkpt>
      <trkpt lat="43.91862" lon="3.26908">
        <ele>738</ele>
        <time>2022-06-16T10:46:28Z</time>
      </trkpt>
      <trkpt lat="43.91862" lon="3.26921">
        <ele>738</ele>
        <time>2022-06-16T10:46:30Z</time>
      </trkpt>
      <trkpt lat="43.91866" lon="3.26946">
        <ele>737.8</ele>
        <time>2022-06-16T10:46:35Z</time>
      </trkpt>
      <trkpt lat="43.91878" lon="3.26969">
        <ele>738.2</ele>
        <time>2022-06-16T10:46:42Z</time>
      </trkpt>
      <trkpt lat="43.91886" lon="3.26983">
        <ele>738.4</ele>
        <time>2022-06-16T10:46:47Z</time>
      </trkpt>
      <trkpt lat="43.91888" lon="3.26989">
        <ele>738.8</ele>
        <time>2022-06-16T10:46:49Z</time>
      </trkpt>
      <trkpt lat="43.9189" lon="3.27001">
        <ele>739.2</ele>
        <time>2022-06-16T10:46:53Z</time>
      </trkpt>
      <trkpt lat="43.91891" lon="3.27021">
        <ele>739.8</ele>
        <time>2022-06-16T10:47:00Z</time>
      </trkpt>
      <trkpt lat="43.9189" lon="3.27027">
        <ele>740</ele>
        <time>2022-06-16T10:47:02Z</time>
      </trkpt>
      <trkpt lat="43.91885" lon="3.27062">
        <ele>741</ele>
        <time>2022-06-16T10:47:12Z</time>
      </trkpt>
      <trkpt lat="43.91882" lon="3.27093">
        <ele>741.8</ele>
        <time>2022-06-16T10:47:21Z</time>
      </trkpt>
      <trkpt lat="43.91881" lon="3.27101">
        <ele>741.6</ele>
        <time>2022-06-16T10:47:25Z</time>
      </trkpt>
      <trkpt lat="43.91881" lon="3.27102">
        <ele>741.6</ele>
        <time>2022-06-16T10:47:26Z</time>
      </trkpt>
      <trkpt lat="43.91881" lon="3.27102">
        <ele>741.2</ele>
        <time>2022-06-16T10:47:35Z</time>
      </trkpt>
      <trkpt lat="43.91881" lon="3.27103">
        <ele>741</ele>
        <time>2022-06-16T10:47:45Z</time>
      </trkpt>
      <trkpt lat="43.91881" lon="3.27103">
        <ele>740.6</ele>
        <time>2022-06-16T10:47:54Z</time>
      </trkpt>
      <trkpt lat="43.9188" lon="3.27112">
        <ele>740.6</ele>
        <time>2022-06-16T10:48:00Z</time>
      </trkpt>
      <trkpt lat="43.91877" lon="3.27129">
        <ele>740.4</ele>
        <time>2022-06-16T10:48:05Z</time>
      </trkpt>
      <trkpt lat="43.91872" lon="3.27147">
        <ele>740.2</ele>
        <time>2022-06-16T10:48:10Z</time>
      </trkpt>
      <trkpt lat="43.91869" lon="3.27171">
        <ele>740.2</ele>
        <time>2022-06-16T10:48:16Z</time>
      </trkpt>
      <trkpt lat="43.91865" lon="3.27179">
        <ele>740.2</ele>
        <time>2022-06-16T10:48:19Z</time>
      </trkpt>
      <trkpt lat="43.91864" lon="3.27181">
        <ele>740.2</ele>
        <time>2022-06-16T10:48:20Z</time>
      </trkpt>
      <trkpt lat="43.91863" lon="3.27185">
        <ele>740</ele>
        <time>2022-06-16T10:48:22Z</time>
      </trkpt>
      <trkpt lat="43.91861" lon="3.2719">
        <ele>740</ele>
        <time>2022-06-16T10:48:24Z</time>
      </trkpt>
      <trkpt lat="43.91852" lon="3.27216">
        <ele>740.6</ele>
        <time>2022-06-16T10:48:32Z</time>
      </trkpt>
      <trkpt lat="43.91852" lon="3.27237">
        <ele>741</ele>
        <time>2022-06-16T10:48:38Z</time>
      </trkpt>
      <trkpt lat="43.91855" lon="3.27248">
        <ele>741.4</ele>
        <time>2022-06-16T10:48:44Z</time>
      </trkpt>
      <trkpt lat="43.91855" lon="3.27253">
        <ele>741.6</ele>
        <time>2022-06-16T10:48:47Z</time>
      </trkpt>
      <trkpt lat="43.91855" lon="3.2726">
        <ele>742</ele>
        <time>2022-06-16T10:48:51Z</time>
      </trkpt>
      <trkpt lat="43.91854" lon="3.27271">
        <ele>743</ele>
        <time>2022-06-16T10:48:58Z</time>
      </trkpt>
      <trkpt lat="43.91854" lon="3.27273">
        <ele>743</ele>
        <time>2022-06-16T10:48:59Z</time>
      </trkpt>
      <trkpt lat="43.91853" lon="3.27276">
        <ele>743.2</ele>
        <time>2022-06-16T10:49:01Z</time>
      </trkpt>
      <trkpt lat="43.91852" lon="3.27283">
        <ele>743.4</ele>
        <time>2022-06-16T10:49:05Z</time>
      </trkpt>
      <trkpt lat="43.91851" lon="3.2729">
        <ele>744</ele>
        <time>2022-06-16T10:49:09Z</time>
      </trkpt>
      <trkpt lat="43.91851" lon="3.27292">
        <ele>744.2</ele>
        <time>2022-06-16T10:49:10Z</time>
      </trkpt>
      <trkpt lat="43.91852" lon="3.27296">
        <ele>744.4</ele>
        <time>2022-06-16T10:49:12Z</time>
      </trkpt>
      <trkpt lat="43.91854" lon="3.27305">
        <ele>745</ele>
        <time>2022-06-16T10:49:18Z</time>
      </trkpt>
      <trkpt lat="43.91854" lon="3.27307">
        <ele>745.2</ele>
        <time>2022-06-16T10:49:19Z</time>
      </trkpt>
      <trkpt lat="43.91855" lon="3.27308">
        <ele>745.2</ele>
        <time>2022-06-16T10:49:20Z</time>
      </trkpt>
      <trkpt lat="43.91859" lon="3.27316">
        <ele>745.6</ele>
        <time>2022-06-16T10:49:25Z</time>
      </trkpt>
      <trkpt lat="43.91866" lon="3.27329">
        <ele>746.2</ele>
        <time>2022-06-16T10:49:33Z</time>
      </trkpt>
      <trkpt lat="43.91867" lon="3.2733">
        <ele>746.4</ele>
        <time>2022-06-16T10:49:34Z</time>
      </trkpt>
      <trkpt lat="43.91865" lon="3.27348">
        <ele>747.2</ele>
        <time>2022-06-16T10:49:40Z</time>
      </trkpt>
      <trkpt lat="43.91865" lon="3.27352">
        <ele>747.4</ele>
        <time>2022-06-16T10:49:41Z</time>
      </trkpt>
      <trkpt lat="43.91857" lon="3.27386">
        <ele>747</ele>
        <time>2022-06-16T10:49:49Z</time>
      </trkpt>
      <trkpt lat="43.91855" lon="3.27411">
        <ele>746.6</ele>
        <time>2022-06-16T10:49:55Z</time>
      </trkpt>
      <trkpt lat="43.91854" lon="3.27418">
        <ele>746.8</ele>
        <time>2022-06-16T10:49:57Z</time>
      </trkpt>
      <trkpt lat="43.91855" lon="3.27427">
        <ele>746.8</ele>
        <time>2022-06-16T10:50:00Z</time>
      </trkpt>
      <trkpt lat="43.91856" lon="3.27447">
        <ele>747.4</ele>
        <time>2022-06-16T10:50:07Z</time>
      </trkpt>
      <trkpt lat="43.91857" lon="3.27465">
        <ele>747.8</ele>
        <time>2022-06-16T10:50:14Z</time>
      </trkpt>
      <trkpt lat="43.91858" lon="3.27486">
        <ele>748.4</ele>
        <time>2022-06-16T10:50:20Z</time>
      </trkpt>
      <trkpt lat="43.91858" lon="3.27492">
        <ele>748.4</ele>
        <time>2022-06-16T10:50:22Z</time>
      </trkpt>
      <trkpt lat="43.91858" lon="3.27519">
        <ele>748.2</ele>
        <time>2022-06-16T10:50:29Z</time>
      </trkpt>
      <trkpt lat="43.91859" lon="3.27534">
        <ele>747.6</ele>
        <time>2022-06-16T10:50:34Z</time>
      </trkpt>
      <trkpt lat="43.91859" lon="3.27535">
        <ele>747.6</ele>
        <time>2022-06-16T10:50:35Z</time>
      </trkpt>
      <trkpt lat="43.91859" lon="3.27535">
        <ele>747.4</ele>
        <time>2022-06-16T10:50:37Z</time>
      </trkpt>
      <trkpt lat="43.91859" lon="3.27535">
        <ele>747.2</ele>
        <time>2022-06-16T10:50:41Z</time>
      </trkpt>
      <trkpt lat="43.91859" lon="3.27535">
        <ele>747.2</ele>
        <time>2022-06-16T10:50:45Z</time>
      </trkpt>
      <trkpt lat="43.91859" lon="3.27535">
        <ele>747.2</ele>
        <time>2022-06-16T10:50:48Z</time>
      </trkpt>
      <trkpt lat="43.91859" lon="3.27539">
        <ele>747.2</ele>
        <time>2022-06-16T10:50:58Z</time>
      </trkpt>
      <trkpt lat="43.9186" lon="3.27542">
        <ele>747.2</ele>
        <time>2022-06-16T10:50:59Z</time>
      </trkpt>
      <trkpt lat="43.91861" lon="3.27549">
        <ele>747</ele>
        <time>2022-06-16T10:51:02Z</time>
      </trkpt>
      <trkpt lat="43.9186" lon="3.27552">
        <ele>747</ele>
        <time>2022-06-16T10:51:03Z</time>
      </trkpt>
      <trkpt lat="43.91857" lon="3.27572">
        <ele>747.2</ele>
        <time>2022-06-16T10:51:08Z</time>
      </trkpt>
      <trkpt lat="43.91857" lon="3.27582">
        <ele>747.2</ele>
        <time>2022-06-16T10:51:10Z</time>
      </trkpt>
      <trkpt lat="43.91856" lon="3.2759">
        <ele>747.4</ele>
        <time>2022-06-16T10:51:12Z</time>
      </trkpt>
      <trkpt lat="43.91856" lon="3.27623">
        <ele>748</ele>
        <time>2022-06-16T10:51:20Z</time>
      </trkpt>
      <trkpt lat="43.91858" lon="3.2765">
        <ele>748.4</ele>
        <time>2022-06-16T10:51:27Z</time>
      </trkpt>
      <trkpt lat="43.91857" lon="3.27662">
        <ele>748.4</ele>
        <time>2022-06-16T10:51:30Z</time>
      </trkpt>
      <trkpt lat="43.91859" lon="3.27677">
        <ele>748.8</ele>
        <time>2022-06-16T10:51:34Z</time>
      </trkpt>
      <trkpt lat="43.91864" lon="3.27697">
        <ele>749.4</ele>
        <time>2022-06-16T10:51:39Z</time>
      </trkpt>
      <trkpt lat="43.91869" lon="3.27717">
        <ele>750</ele>
        <time>2022-06-16T10:51:46Z</time>
      </trkpt>
      <trkpt lat="43.91871" lon="3.27727">
        <ele>750.6</ele>
        <time>2022-06-16T10:51:50Z</time>
      </trkpt>
      <trkpt lat="43.91871" lon="3.27732">
        <ele>750.8</ele>
        <time>2022-06-16T10:51:52Z</time>
      </trkpt>
      <trkpt lat="43.91874" lon="3.27747">
        <ele>751.2</ele>
        <time>2022-06-16T10:51:59Z</time>
      </trkpt>
      <trkpt lat="43.91874" lon="3.27753">
        <ele>751.6</ele>
        <time>2022-06-16T10:52:02Z</time>
      </trkpt>
      <trkpt lat="43.91875" lon="3.27759">
        <ele>751.8</ele>
        <time>2022-06-16T10:52:05Z</time>
      </trkpt>
      <trkpt lat="43.91875" lon="3.27761">
        <ele>751.8</ele>
        <time>2022-06-16T10:52:06Z</time>
      </trkpt>
      <trkpt lat="43.91874" lon="3.27771">
        <ele>752.4</ele>
        <time>2022-06-16T10:52:11Z</time>
      </trkpt>
      <trkpt lat="43.91874" lon="3.27775">
        <ele>752.6</ele>
        <time>2022-06-16T10:52:13Z</time>
      </trkpt>
      <trkpt lat="43.91874" lon="3.27786">
        <ele>753.4</ele>
        <time>2022-06-16T10:52:19Z</time>
      </trkpt>
      <trkpt lat="43.91874" lon="3.2779">
        <ele>753.6</ele>
        <time>2022-06-16T10:52:21Z</time>
      </trkpt>
      <trkpt lat="43.91875" lon="3.27793">
        <ele>753.8</ele>
        <time>2022-06-16T10:52:23Z</time>
      </trkpt>
      <trkpt lat="43.91875" lon="3.27797">
        <ele>754.2</ele>
        <time>2022-06-16T10:52:26Z</time>
      </trkpt>
      <trkpt lat="43.91875" lon="3.27805">
        <ele>755</ele>
        <time>2022-06-16T10:52:31Z</time>
      </trkpt>
      <trkpt lat="43.91875" lon="3.27808">
        <ele>755.4</ele>
        <time>2022-06-16T10:52:34Z</time>
      </trkpt>
      <trkpt lat="43.91874" lon="3.27811">
        <ele>756</ele>
        <time>2022-06-16T10:52:36Z</time>
      </trkpt>
      <trkpt lat="43.91874" lon="3.27812">
        <ele>756</ele>
        <time>2022-06-16T10:52:37Z</time>
      </trkpt>
      <trkpt lat="43.91873" lon="3.27816">
        <ele>756.4</ele>
        <time>2022-06-16T10:52:40Z</time>
      </trkpt>
      <trkpt lat="43.91873" lon="3.27818">
        <ele>756.4</ele>
        <time>2022-06-16T10:52:41Z</time>
      </trkpt>
      <trkpt lat="43.91873" lon="3.2782">
        <ele>756.6</ele>
        <time>2022-06-16T10:52:43Z</time>
      </trkpt>
      <trkpt lat="43.91873" lon="3.27825">
        <ele>757</ele>
        <time>2022-06-16T10:52:46Z</time>
      </trkpt>
      <trkpt lat="43.91874" lon="3.27837">
        <ele>758</ele>
        <time>2022-06-16T10:52:53Z</time>
      </trkpt>
      <trkpt lat="43.91874" lon="3.27839">
        <ele>758.2</ele>
        <time>2022-06-16T10:52:54Z</time>
      </trkpt>
      <trkpt lat="43.91874" lon="3.27854">
        <ele>759</ele>
        <time>2022-06-16T10:53:02Z</time>
      </trkpt>
      <trkpt lat="43.91873" lon="3.27856">
        <ele>759.4</ele>
        <time>2022-06-16T10:53:03Z</time>
      </trkpt>
      <trkpt lat="43.91871" lon="3.27877">
        <ele>760</ele>
        <time>2022-06-16T10:53:11Z</time>
      </trkpt>
      <trkpt lat="43.9187" lon="3.2788">
        <ele>760.2</ele>
        <time>2022-06-16T10:53:12Z</time>
      </trkpt>
      <trkpt lat="43.91867" lon="3.279">
        <ele>760.6</ele>
        <time>2022-06-16T10:53:18Z</time>
      </trkpt>
      <trkpt lat="43.91861" lon="3.27926">
        <ele>760.8</ele>
        <time>2022-06-16T10:53:26Z</time>
      </trkpt>
      <trkpt lat="43.91853" lon="3.27933">
        <ele>761</ele>
        <time>2022-06-16T10:53:30Z</time>
      </trkpt>
      <trkpt lat="43.91849" lon="3.27937">
        <ele>761.2</ele>
        <time>2022-06-16T10:53:32Z</time>
      </trkpt>
      <trkpt lat="43.91836" lon="3.27947">
        <ele>761.6</ele>
        <time>2022-06-16T10:53:38Z</time>
      </trkpt>
      <trkpt lat="43.9182" lon="3.27959">
        <ele>762</ele>
        <time>2022-06-16T10:53:45Z</time>
      </trkpt>
      <trkpt lat="43.91816" lon="3.27963">
        <ele>762.4</ele>
        <time>2022-06-16T10:53:47Z</time>
      </trkpt>
      <trkpt lat="43.91811" lon="3.2797">
        <ele>762.8</ele>
        <time>2022-06-16T10:53:50Z</time>
      </trkpt>
      <trkpt lat="43.91805" lon="3.2798">
        <ele>763.4</ele>
        <time>2022-06-16T10:53:54Z</time>
      </trkpt>
      <trkpt lat="43.91801" lon="3.27985">
        <ele>763.6</ele>
        <time>2022-06-16T10:53:56Z</time>
      </trkpt>
      <trkpt lat="43.91792" lon="3.2801">
        <ele>764</ele>
        <time>2022-06-16T10:54:03Z</time>
      </trkpt>
      <trkpt lat="43.91786" lon="3.28027">
        <ele>764.4</ele>
        <time>2022-06-16T10:54:08Z</time>
      </trkpt>
      <trkpt lat="43.91785" lon="3.2803">
        <ele>764.4</ele>
        <time>2022-06-16T10:54:09Z</time>
      </trkpt>
      <trkpt lat="43.91779" lon="3.28057">
        <ele>765.4</ele>
        <time>2022-06-16T10:54:16Z</time>
      </trkpt>
      <trkpt lat="43.91778" lon="3.28061">
        <ele>765.6</ele>
        <time>2022-06-16T10:54:17Z</time>
      </trkpt>
      <trkpt lat="43.91772" lon="3.28076">
        <ele>766</ele>
        <time>2022-06-16T10:54:22Z</time>
      </trkpt>
      <trkpt lat="43.91766" lon="3.2809">
        <ele>766.6</ele>
        <time>2022-06-16T10:54:28Z</time>
      </trkpt>
      <trkpt lat="43.91765" lon="3.28093">
        <ele>766.6</ele>
        <time>2022-06-16T10:54:29Z</time>
      </trkpt>
      <trkpt lat="43.91761" lon="3.28105">
        <ele>767.4</ele>
        <time>2022-06-16T10:54:34Z</time>
      </trkpt>
      <trkpt lat="43.9176" lon="3.28107">
        <ele>767.8</ele>
        <time>2022-06-16T10:54:35Z</time>
      </trkpt>
      <trkpt lat="43.91758" lon="3.2811">
        <ele>768</ele>
        <time>2022-06-16T10:54:36Z</time>
      </trkpt>
      <trkpt lat="43.91754" lon="3.28117">
        <ele>768.6</ele>
        <time>2022-06-16T10:54:39Z</time>
      </trkpt>
      <trkpt lat="43.91752" lon="3.28121">
        <ele>768.8</ele>
        <time>2022-06-16T10:54:41Z</time>
      </trkpt>
      <trkpt lat="43.91749" lon="3.28128">
        <ele>768.8</ele>
        <time>2022-06-16T10:54:44Z</time>
      </trkpt>
      <trkpt lat="43.9174" lon="3.28141">
        <ele>769.4</ele>
        <time>2022-06-16T10:54:50Z</time>
      </trkpt>
      <trkpt lat="43.91738" lon="3.28147">
        <ele>769.8</ele>
        <time>2022-06-16T10:54:52Z</time>
      </trkpt>
      <trkpt lat="43.9173" lon="3.28166">
        <ele>770.4</ele>
        <time>2022-06-16T10:54:57Z</time>
      </trkpt>
      <trkpt lat="43.91726" lon="3.28194">
        <ele>770.6</ele>
        <time>2022-06-16T10:55:03Z</time>
      </trkpt>
      <trkpt lat="43.91727" lon="3.2822">
        <ele>770.8</ele>
        <time>2022-06-16T10:55:08Z</time>
      </trkpt>
      <trkpt lat="43.91727" lon="3.28226">
        <ele>770.8</ele>
        <time>2022-06-16T10:55:09Z</time>
      </trkpt>
      <trkpt lat="43.91731" lon="3.28268">
        <ele>771</ele>
        <time>2022-06-16T10:55:16Z</time>
      </trkpt>
      <trkpt lat="43.91734" lon="3.28287">
        <ele>770.8</ele>
        <time>2022-06-16T10:55:19Z</time>
      </trkpt>
      <trkpt lat="43.91736" lon="3.283">
        <ele>770.6</ele>
        <time>2022-06-16T10:55:21Z</time>
      </trkpt>
      <trkpt lat="43.91736" lon="3.28305">
        <ele>770.6</ele>
        <time>2022-06-16T10:55:22Z</time>
      </trkpt>
      <trkpt lat="43.91738" lon="3.28315">
        <ele>770.6</ele>
        <time>2022-06-16T10:55:24Z</time>
      </trkpt>
      <trkpt lat="43.9174" lon="3.28329">
        <ele>770.4</ele>
        <time>2022-06-16T10:55:26Z</time>
      </trkpt>
      <trkpt lat="43.91744" lon="3.28357">
        <ele>770.2</ele>
        <time>2022-06-16T10:55:30Z</time>
      </trkpt>
      <trkpt lat="43.91745" lon="3.28372">
        <ele>769.8</ele>
        <time>2022-06-16T10:55:32Z</time>
      </trkpt>
      <trkpt lat="43.91744" lon="3.28381">
        <ele>769.4</ele>
        <time>2022-06-16T10:55:33Z</time>
      </trkpt>
      <trkpt lat="43.91747" lon="3.28396">
        <ele>769</ele>
        <time>2022-06-16T10:55:35Z</time>
      </trkpt>
      <trkpt lat="43.91749" lon="3.28405">
        <ele>769</ele>
        <time>2022-06-16T10:55:36Z</time>
      </trkpt>
      <trkpt lat="43.91752" lon="3.2842">
        <ele>768.8</ele>
        <time>2022-06-16T10:55:38Z</time>
      </trkpt>
      <trkpt lat="43.91754" lon="3.28436">
        <ele>768.4</ele>
        <time>2022-06-16T10:55:40Z</time>
      </trkpt>
      <trkpt lat="43.91756" lon="3.28471">
        <ele>767.6</ele>
        <time>2022-06-16T10:55:45Z</time>
      </trkpt>
      <trkpt lat="43.91755" lon="3.28477">
        <ele>767.4</ele>
        <time>2022-06-16T10:55:46Z</time>
      </trkpt>
      <trkpt lat="43.91754" lon="3.28482">
        <ele>767.2</ele>
        <time>2022-06-16T10:55:47Z</time>
      </trkpt>
      <trkpt lat="43.91751" lon="3.28491">
        <ele>767.2</ele>
        <time>2022-06-16T10:55:49Z</time>
      </trkpt>
      <trkpt lat="43.9175" lon="3.28511">
        <ele>767</ele>
        <time>2022-06-16T10:55:53Z</time>
      </trkpt>
      <trkpt lat="43.91747" lon="3.28546">
        <ele>766.2</ele>
        <time>2022-06-16T10:56:00Z</time>
      </trkpt>
      <trkpt lat="43.91745" lon="3.28587">
        <ele>766.2</ele>
        <time>2022-06-16T10:56:07Z</time>
      </trkpt>
      <trkpt lat="43.91746" lon="3.28631">
        <ele>766</ele>
        <time>2022-06-16T10:56:14Z</time>
      </trkpt>
      <trkpt lat="43.91746" lon="3.28637">
        <ele>766</ele>
        <time>2022-06-16T10:56:15Z</time>
      </trkpt>
      <trkpt lat="43.91749" lon="3.28683">
        <ele>766</ele>
        <time>2022-06-16T10:56:22Z</time>
      </trkpt>
      <trkpt lat="43.91749" lon="3.28697">
        <ele>765.8</ele>
        <time>2022-06-16T10:56:24Z</time>
      </trkpt>
      <trkpt lat="43.91745" lon="3.28759">
        <ele>765.6</ele>
        <time>2022-06-16T10:56:33Z</time>
      </trkpt>
      <trkpt lat="43.91741" lon="3.28809">
        <ele>765.6</ele>
        <time>2022-06-16T10:56:41Z</time>
      </trkpt>
      <trkpt lat="43.9174" lon="3.28815">
        <ele>765.8</ele>
        <time>2022-06-16T10:56:42Z</time>
      </trkpt>
      <trkpt lat="43.91736" lon="3.28825">
        <ele>765.8</ele>
        <time>2022-06-16T10:56:44Z</time>
      </trkpt>
      <trkpt lat="43.91729" lon="3.28835">
        <ele>765.8</ele>
        <time>2022-06-16T10:56:46Z</time>
      </trkpt>
      <trkpt lat="43.91726" lon="3.28839">
        <ele>765.8</ele>
        <time>2022-06-16T10:56:47Z</time>
      </trkpt>
      <trkpt lat="43.91708" lon="3.28854">
        <ele>765.8</ele>
        <time>2022-06-16T10:56:52Z</time>
      </trkpt>
      <trkpt lat="43.91702" lon="3.2886">
        <ele>765.8</ele>
        <time>2022-06-16T10:56:54Z</time>
      </trkpt>
      <trkpt lat="43.91687" lon="3.28876">
        <ele>766</ele>
        <time>2022-06-16T10:57:00Z</time>
      </trkpt>
      <trkpt lat="43.91676" lon="3.28898">
        <ele>766.4</ele>
        <time>2022-06-16T10:57:06Z</time>
      </trkpt>
      <trkpt lat="43.91669" lon="3.28927">
        <ele>766.8</ele>
        <time>2022-06-16T10:57:12Z</time>
      </trkpt>
      <trkpt lat="43.91665" lon="3.28943">
        <ele>767.2</ele>
        <time>2022-06-16T10:57:17Z</time>
      </trkpt>
      <trkpt lat="43.91658" lon="3.28965">
        <ele>768</ele>
        <time>2022-06-16T10:57:23Z</time>
      </trkpt>
      <trkpt lat="43.91655" lon="3.28971">
        <ele>768.2</ele>
        <time>2022-06-16T10:57:25Z</time>
      </trkpt>
      <trkpt lat="43.91654" lon="3.28978">
        <ele>768.6</ele>
        <time>2022-06-16T10:57:28Z</time>
      </trkpt>
      <trkpt lat="43.91647" lon="3.28999">
        <ele>768.8</ele>
        <time>2022-06-16T10:57:34Z</time>
      </trkpt>
      <trkpt lat="43.9164" lon="3.29018">
        <ele>769.2</ele>
        <time>2022-06-16T10:57:40Z</time>
      </trkpt>
      <trkpt lat="43.91636" lon="3.29022">
        <ele>769.4</ele>
        <time>2022-06-16T10:57:42Z</time>
      </trkpt>
      <trkpt lat="43.91634" lon="3.29033">
        <ele>770</ele>
        <time>2022-06-16T10:57:46Z</time>
      </trkpt>
      <trkpt lat="43.91632" lon="3.29038">
        <ele>770.2</ele>
        <time>2022-06-16T10:57:48Z</time>
      </trkpt>
      <trkpt lat="43.9163" lon="3.29043">
        <ele>770.4</ele>
        <time>2022-06-16T10:57:50Z</time>
      </trkpt>
      <trkpt lat="43.91627" lon="3.29058">
        <ele>771.2</ele>
        <time>2022-06-16T10:57:54Z</time>
      </trkpt>
      <trkpt lat="43.91623" lon="3.2907">
        <ele>771.6</ele>
        <time>2022-06-16T10:57:58Z</time>
      </trkpt>
      <trkpt lat="43.91622" lon="3.29074">
        <ele>771.6</ele>
        <time>2022-06-16T10:57:59Z</time>
      </trkpt>
      <trkpt lat="43.91616" lon="3.29093">
        <ele>772</ele>
        <time>2022-06-16T10:58:04Z</time>
      </trkpt>
      <trkpt lat="43.91613" lon="3.29116">
        <ele>772</ele>
        <time>2022-06-16T10:58:09Z</time>
      </trkpt>
      <trkpt lat="43.91612" lon="3.29138">
        <ele>772.2</ele>
        <time>2022-06-16T10:58:13Z</time>
      </trkpt>
      <trkpt lat="43.91609" lon="3.29162">
        <ele>772.2</ele>
        <time>2022-06-16T10:58:18Z</time>
      </trkpt>
      <trkpt lat="43.91608" lon="3.29173">
        <ele>772.2</ele>
        <time>2022-06-16T10:58:20Z</time>
      </trkpt>
      <trkpt lat="43.91603" lon="3.29199">
        <ele>772.2</ele>
        <time>2022-06-16T10:58:25Z</time>
      </trkpt>
      <trkpt lat="43.91602" lon="3.29214">
        <ele>772.2</ele>
        <time>2022-06-16T10:58:28Z</time>
      </trkpt>
      <trkpt lat="43.91598" lon="3.29232">
        <ele>772.2</ele>
        <time>2022-06-16T10:58:32Z</time>
      </trkpt>
      <trkpt lat="43.91591" lon="3.29262">
        <ele>772.2</ele>
        <time>2022-06-16T10:58:39Z</time>
      </trkpt>
      <trkpt lat="43.91587" lon="3.29282">
        <ele>772.2</ele>
        <time>2022-06-16T10:58:44Z</time>
      </trkpt>
      <trkpt lat="43.91585" lon="3.29289">
        <ele>772.4</ele>
        <time>2022-06-16T10:58:46Z</time>
      </trkpt>
      <trkpt lat="43.91578" lon="3.29317">
        <ele>772.8</ele>
        <time>2022-06-16T10:58:52Z</time>
      </trkpt>
      <trkpt lat="43.91571" lon="3.29338">
        <ele>773.2</ele>
        <time>2022-06-16T10:58:57Z</time>
      </trkpt>
      <trkpt lat="43.91569" lon="3.29343">
        <ele>773.2</ele>
        <time>2022-06-16T10:58:58Z</time>
      </trkpt>
      <trkpt lat="43.91569" lon="3.29348">
        <ele>773.4</ele>
        <time>2022-06-16T10:58:59Z</time>
      </trkpt>
      <trkpt lat="43.91558" lon="3.2939">
        <ele>774</ele>
        <time>2022-06-16T10:59:07Z</time>
      </trkpt>
      <trkpt lat="43.91555" lon="3.29405">
        <ele>774.4</ele>
        <time>2022-06-16T10:59:10Z</time>
      </trkpt>
      <trkpt lat="43.91546" lon="3.29429">
        <ele>774.4</ele>
        <time>2022-06-16T10:59:15Z</time>
      </trkpt>
      <trkpt lat="43.91528" lon="3.29489">
        <ele>774.8</ele>
        <time>2022-06-16T10:59:26Z</time>
      </trkpt>
      <trkpt lat="43.91517" lon="3.29541">
        <ele>774.2</ele>
        <time>2022-06-16T10:59:34Z</time>
      </trkpt>
      <trkpt lat="43.91515" lon="3.29547">
        <ele>774.2</ele>
        <time>2022-06-16T10:59:35Z</time>
      </trkpt>
      <trkpt lat="43.91508" lon="3.2958">
        <ele>773.8</ele>
        <time>2022-06-16T10:59:40Z</time>
      </trkpt>
      <trkpt lat="43.91502" lon="3.29616">
        <ele>773.6</ele>
        <time>2022-06-16T10:59:45Z</time>
      </trkpt>
      <trkpt lat="43.91498" lon="3.29629">
        <ele>773.2</ele>
        <time>2022-06-16T10:59:47Z</time>
      </trkpt>
      <trkpt lat="43.91494" lon="3.29642">
        <ele>773.2</ele>
        <time>2022-06-16T10:59:49Z</time>
      </trkpt>
      <trkpt lat="43.91482" lon="3.29691">
        <ele>772.4</ele>
        <time>2022-06-16T10:59:56Z</time>
      </trkpt>
      <trkpt lat="43.91475" lon="3.29713">
        <ele>772</ele>
        <time>2022-06-16T10:59:59Z</time>
      </trkpt>
      <trkpt lat="43.91464" lon="3.29733">
        <ele>771.6</ele>
        <time>2022-06-16T11:00:02Z</time>
      </trkpt>
      <trkpt lat="43.91457" lon="3.29746">
        <ele>771.2</ele>
        <time>2022-06-16T11:00:04Z</time>
      </trkpt>
      <trkpt lat="43.91454" lon="3.29753">
        <ele>771</ele>
        <time>2022-06-16T11:00:05Z</time>
      </trkpt>
      <trkpt lat="43.91446" lon="3.29774">
        <ele>770.4</ele>
        <time>2022-06-16T11:00:08Z</time>
      </trkpt>
      <trkpt lat="43.91439" lon="3.29797">
        <ele>770.2</ele>
        <time>2022-06-16T11:00:11Z</time>
      </trkpt>
      <trkpt lat="43.91438" lon="3.29813">
        <ele>770</ele>
        <time>2022-06-16T11:00:13Z</time>
      </trkpt>
      <trkpt lat="43.91437" lon="3.29821">
        <ele>769.6</ele>
        <time>2022-06-16T11:00:14Z</time>
      </trkpt>
      <trkpt lat="43.91434" lon="3.29854">
        <ele>768.8</ele>
        <time>2022-06-16T11:00:18Z</time>
      </trkpt>
      <trkpt lat="43.91435" lon="3.29862">
        <ele>768.6</ele>
        <time>2022-06-16T11:00:19Z</time>
      </trkpt>
      <trkpt lat="43.91436" lon="3.29869">
        <ele>767.8</ele>
        <time>2022-06-16T11:00:20Z</time>
      </trkpt>
      <trkpt lat="43.91438" lon="3.29876">
        <ele>767.2</ele>
        <time>2022-06-16T11:00:21Z</time>
      </trkpt>
      <trkpt lat="43.91441" lon="3.29882">
        <ele>766.6</ele>
        <time>2022-06-16T11:00:22Z</time>
      </trkpt>
      <trkpt lat="43.91444" lon="3.29889">
        <ele>765.6</ele>
        <time>2022-06-16T11:00:23Z</time>
      </trkpt>
      <trkpt lat="43.91453" lon="3.29909">
        <ele>764.4</ele>
        <time>2022-06-16T11:00:26Z</time>
      </trkpt>
      <trkpt lat="43.91455" lon="3.29914">
        <ele>763.8</ele>
        <time>2022-06-16T11:00:27Z</time>
      </trkpt>
      <trkpt lat="43.91456" lon="3.29918">
        <ele>763.6</ele>
        <time>2022-06-16T11:00:28Z</time>
      </trkpt>
      <trkpt lat="43.91457" lon="3.29921">
        <ele>763.4</ele>
        <time>2022-06-16T11:00:29Z</time>
      </trkpt>
      <trkpt lat="43.91459" lon="3.29928">
        <ele>763</ele>
        <time>2022-06-16T11:00:32Z</time>
      </trkpt>
      <trkpt lat="43.91458" lon="3.29931">
        <ele>763</ele>
        <time>2022-06-16T11:00:33Z</time>
      </trkpt>
      <trkpt lat="43.91459" lon="3.29939">
        <ele>763.2</ele>
        <time>2022-06-16T11:00:36Z</time>
      </trkpt>
      <trkpt lat="43.91459" lon="3.29943">
        <ele>763.2</ele>
        <time>2022-06-16T11:00:37Z</time>
      </trkpt>
      <trkpt lat="43.91465" lon="3.2996">
        <ele>763.2</ele>
        <time>2022-06-16T11:00:43Z</time>
      </trkpt>
      <trkpt lat="43.91472" lon="3.2997">
        <ele>763.8</ele>
        <time>2022-06-16T11:00:48Z</time>
      </trkpt>
      <trkpt lat="43.9148" lon="3.29978">
        <ele>764.6</ele>
        <time>2022-06-16T11:00:54Z</time>
      </trkpt>
      <trkpt lat="43.91484" lon="3.29997">
        <ele>765.6</ele>
        <time>2022-06-16T11:01:01Z</time>
      </trkpt>
      <trkpt lat="43.91483" lon="3.30013">
        <ele>766</ele>
        <time>2022-06-16T11:01:06Z</time>
      </trkpt>
      <trkpt lat="43.91483" lon="3.30039">
        <ele>766</ele>
        <time>2022-06-16T11:01:13Z</time>
      </trkpt>
      <trkpt lat="43.91488" lon="3.30066">
        <ele>766.4</ele>
        <time>2022-06-16T11:01:19Z</time>
      </trkpt>
      <trkpt lat="43.915" lon="3.30099">
        <ele>766.8</ele>
        <time>2022-06-16T11:01:27Z</time>
      </trkpt>
      <trkpt lat="43.91502" lon="3.30103">
        <ele>766.6</ele>
        <time>2022-06-16T11:01:28Z</time>
      </trkpt>
      <trkpt lat="43.91511" lon="3.3012">
        <ele>766.8</ele>
        <time>2022-06-16T11:01:33Z</time>
      </trkpt>
      <trkpt lat="43.91533" lon="3.30138">
        <ele>767.6</ele>
        <time>2022-06-16T11:01:41Z</time>
      </trkpt>
      <trkpt lat="43.91535" lon="3.30141">
        <ele>767.6</ele>
        <time>2022-06-16T11:01:42Z</time>
      </trkpt>
      <trkpt lat="43.91558" lon="3.30171">
        <ele>768.2</ele>
        <time>2022-06-16T11:01:51Z</time>
      </trkpt>
      <trkpt lat="43.9157" lon="3.30196">
        <ele>768.4</ele>
        <time>2022-06-16T11:01:58Z</time>
      </trkpt>
      <trkpt lat="43.91567" lon="3.30217">
        <ele>768.4</ele>
        <time>2022-06-16T11:02:03Z</time>
      </trkpt>
      <trkpt lat="43.91559" lon="3.3023">
        <ele>768.6</ele>
        <time>2022-06-16T11:02:07Z</time>
      </trkpt>
      <trkpt lat="43.91556" lon="3.30245">
        <ele>768.8</ele>
        <time>2022-06-16T11:02:10Z</time>
      </trkpt>
      <trkpt lat="43.91546" lon="3.30287">
        <ele>769.4</ele>
        <time>2022-06-16T11:02:18Z</time>
      </trkpt>
      <trkpt lat="43.9154" lon="3.30318">
        <ele>769.4</ele>
        <time>2022-06-16T11:02:23Z</time>
      </trkpt>
      <trkpt lat="43.91543" lon="3.30352">
        <ele>769</ele>
        <time>2022-06-16T11:02:27Z</time>
      </trkpt>
      <trkpt lat="43.91545" lon="3.30401">
        <ele>767.6</ele>
        <time>2022-06-16T11:02:32Z</time>
      </trkpt>
      <trkpt lat="43.91544" lon="3.30413">
        <ele>767.2</ele>
        <time>2022-06-16T11:02:33Z</time>
      </trkpt>
      <trkpt lat="43.91539" lon="3.30436">
        <ele>766.6</ele>
        <time>2022-06-16T11:02:35Z</time>
      </trkpt>
      <trkpt lat="43.91536" lon="3.30447">
        <ele>766.2</ele>
        <time>2022-06-16T11:02:36Z</time>
      </trkpt>
      <trkpt lat="43.9152" lon="3.3048">
        <ele>764.8</ele>
        <time>2022-06-16T11:02:39Z</time>
      </trkpt>
      <trkpt lat="43.9151" lon="3.30503">
        <ele>764</ele>
        <time>2022-06-16T11:02:41Z</time>
      </trkpt>
      <trkpt lat="43.91506" lon="3.30515">
        <ele>763.6</ele>
        <time>2022-06-16T11:02:42Z</time>
      </trkpt>
      <trkpt lat="43.91496" lon="3.30551">
        <ele>762</ele>
        <time>2022-06-16T11:02:45Z</time>
      </trkpt>
      <trkpt lat="43.9149" lon="3.30588">
        <ele>761</ele>
        <time>2022-06-16T11:02:48Z</time>
      </trkpt>
      <trkpt lat="43.91486" lon="3.30624">
        <ele>760.4</ele>
        <time>2022-06-16T11:02:51Z</time>
      </trkpt>
      <trkpt lat="43.91485" lon="3.30648">
        <ele>759.8</ele>
        <time>2022-06-16T11:02:53Z</time>
      </trkpt>
      <trkpt lat="43.91484" lon="3.30682">
        <ele>758.8</ele>
        <time>2022-06-16T11:02:56Z</time>
      </trkpt>
      <trkpt lat="43.91485" lon="3.30693">
        <ele>758.6</ele>
        <time>2022-06-16T11:02:57Z</time>
      </trkpt>
      <trkpt lat="43.91483" lon="3.30741">
        <ele>757.8</ele>
        <time>2022-06-16T11:03:02Z</time>
      </trkpt>
      <trkpt lat="43.91483" lon="3.30751">
        <ele>757.8</ele>
        <time>2022-06-16T11:03:03Z</time>
      </trkpt>
      <trkpt lat="43.91482" lon="3.3076">
        <ele>757.6</ele>
        <time>2022-06-16T11:03:04Z</time>
      </trkpt>
      <trkpt lat="43.9148" lon="3.30777">
        <ele>757.2</ele>
        <time>2022-06-16T11:03:06Z</time>
      </trkpt>
      <trkpt lat="43.91475" lon="3.30802">
        <ele>757</ele>
        <time>2022-06-16T11:03:09Z</time>
      </trkpt>
      <trkpt lat="43.91469" lon="3.30818">
        <ele>756.8</ele>
        <time>2022-06-16T11:03:11Z</time>
      </trkpt>
      <trkpt lat="43.91465" lon="3.30824">
        <ele>756.8</ele>
        <time>2022-06-16T11:03:12Z</time>
      </trkpt>
      <trkpt lat="43.91448" lon="3.30849">
        <ele>756.6</ele>
        <time>2022-06-16T11:03:16Z</time>
      </trkpt>
      <trkpt lat="43.91422" lon="3.30902">
        <ele>756.4</ele>
        <time>2022-06-16T11:03:24Z</time>
      </trkpt>
      <trkpt lat="43.91413" lon="3.30946">
        <ele>756.4</ele>
        <time>2022-06-16T11:03:30Z</time>
      </trkpt>
      <trkpt lat="43.91409" lon="3.30975">
        <ele>756.4</ele>
        <time>2022-06-16T11:03:34Z</time>
      </trkpt>
      <trkpt lat="43.91406" lon="3.30997">
        <ele>756.4</ele>
        <time>2022-06-16T11:03:37Z</time>
      </trkpt>
      <trkpt lat="43.91398" lon="3.31067">
        <ele>756.4</ele>
        <time>2022-06-16T11:03:46Z</time>
      </trkpt>
      <trkpt lat="43.91392" lon="3.31105">
        <ele>756.2</ele>
        <time>2022-06-16T11:03:52Z</time>
      </trkpt>
      <trkpt lat="43.9139" lon="3.31118">
        <ele>755.8</ele>
        <time>2022-06-16T11:03:56Z</time>
      </trkpt>
      <trkpt lat="43.91394" lon="3.31136">
        <ele>755.8</ele>
        <time>2022-06-16T11:04:01Z</time>
      </trkpt>
      <trkpt lat="43.91412" lon="3.31148">
        <ele>755.8</ele>
        <time>2022-06-16T11:04:06Z</time>
      </trkpt>
      <trkpt lat="43.91422" lon="3.31167">
        <ele>755.8</ele>
        <time>2022-06-16T11:04:10Z</time>
      </trkpt>
      <trkpt lat="43.91431" lon="3.312">
        <ele>756</ele>
        <time>2022-06-16T11:04:17Z</time>
      </trkpt>
      <trkpt lat="43.91436" lon="3.31229">
        <ele>756.2</ele>
        <time>2022-06-16T11:04:23Z</time>
      </trkpt>
      <trkpt lat="43.91444" lon="3.31276">
        <ele>756.8</ele>
        <time>2022-06-16T11:04:33Z</time>
      </trkpt>
      <trkpt lat="43.91448" lon="3.31294">
        <ele>757.8</ele>
        <time>2022-06-16T11:04:37Z</time>
      </trkpt>
      <trkpt lat="43.91449" lon="3.31307">
        <ele>757.8</ele>
        <time>2022-06-16T11:04:40Z</time>
      </trkpt>
      <trkpt lat="43.91453" lon="3.31351">
        <ele>758.2</ele>
        <time>2022-06-16T11:04:49Z</time>
      </trkpt>
      <trkpt lat="43.91454" lon="3.31393">
        <ele>758.4</ele>
        <time>2022-06-16T11:04:57Z</time>
      </trkpt>
      <trkpt lat="43.91453" lon="3.31418">
        <ele>758.8</ele>
        <time>2022-06-16T11:05:02Z</time>
      </trkpt>
      <trkpt lat="43.91452" lon="3.31428">
        <ele>758.8</ele>
        <time>2022-06-16T11:05:04Z</time>
      </trkpt>
      <trkpt lat="43.91447" lon="3.31465">
        <ele>759.4</ele>
        <time>2022-06-16T11:05:11Z</time>
      </trkpt>
      <trkpt lat="43.91431" lon="3.31492">
        <ele>760</ele>
        <time>2022-06-16T11:05:17Z</time>
      </trkpt>
      <trkpt lat="43.91425" lon="3.315">
        <ele>760.2</ele>
        <time>2022-06-16T11:05:19Z</time>
      </trkpt>
      <trkpt lat="43.91405" lon="3.31536">
        <ele>760.8</ele>
        <time>2022-06-16T11:05:27Z</time>
      </trkpt>
      <trkpt lat="43.91389" lon="3.31561">
        <ele>761</ele>
        <time>2022-06-16T11:05:33Z</time>
      </trkpt>
      <trkpt lat="43.91384" lon="3.31569">
        <ele>761</ele>
        <time>2022-06-16T11:05:35Z</time>
      </trkpt>
      <trkpt lat="43.91365" lon="3.31594">
        <ele>762.2</ele>
        <time>2022-06-16T11:05:42Z</time>
      </trkpt>
      <trkpt lat="43.9136" lon="3.31601">
        <ele>762.4</ele>
        <time>2022-06-16T11:05:44Z</time>
      </trkpt>
      <trkpt lat="43.91345" lon="3.31619">
        <ele>762.6</ele>
        <time>2022-06-16T11:05:49Z</time>
      </trkpt>
      <trkpt lat="43.91328" lon="3.31645">
        <ele>762.4</ele>
        <time>2022-06-16T11:05:55Z</time>
      </trkpt>
      <trkpt lat="43.91322" lon="3.31651">
        <ele>762.4</ele>
        <time>2022-06-16T11:05:57Z</time>
      </trkpt>
      <trkpt lat="43.91318" lon="3.31653">
        <ele>762.4</ele>
        <time>2022-06-16T11:05:58Z</time>
      </trkpt>
      <trkpt lat="43.91306" lon="3.31652">
        <ele>762.2</ele>
        <time>2022-06-16T11:06:02Z</time>
      </trkpt>
      <trkpt lat="43.91298" lon="3.31641">
        <ele>762.2</ele>
        <time>2022-06-16T11:06:06Z</time>
      </trkpt>
      <trkpt lat="43.91295" lon="3.31636">
        <ele>762.2</ele>
        <time>2022-06-16T11:06:08Z</time>
      </trkpt>
      <trkpt lat="43.91291" lon="3.31638">
        <ele>762.2</ele>
        <time>2022-06-16T11:06:10Z</time>
      </trkpt>
      <trkpt lat="43.91292" lon="3.31643">
        <ele>762.2</ele>
        <time>2022-06-16T11:06:12Z</time>
      </trkpt>
      <trkpt lat="43.91293" lon="3.31645">
        <ele>762</ele>
        <time>2022-06-16T11:06:13Z</time>
      </trkpt>
      <trkpt lat="43.91304" lon="3.31661">
        <ele>762</ele>
        <time>2022-06-16T11:06:19Z</time>
      </trkpt>
      <trkpt lat="43.91304" lon="3.31665">
        <ele>762</ele>
        <time>2022-06-16T11:06:20Z</time>
      </trkpt>
      <trkpt lat="43.91299" lon="3.31674">
        <ele>762</ele>
        <time>2022-06-16T11:06:24Z</time>
      </trkpt>
      <trkpt lat="43.91299" lon="3.31675">
        <ele>762</ele>
        <time>2022-06-16T11:06:25Z</time>
      </trkpt>
      <trkpt lat="43.91299" lon="3.31676">
        <ele>761.8</ele>
        <time>2022-06-16T11:06:28Z</time>
      </trkpt>
      <trkpt lat="43.91298" lon="3.31677">
        <ele>761.6</ele>
        <time>2022-06-16T11:06:35Z</time>
      </trkpt>
      <trkpt lat="43.91298" lon="3.31677">
        <ele>762</ele>
        <time>2022-06-16T11:06:46Z</time>
      </trkpt>
      <trkpt lat="43.91298" lon="3.31677">
        <ele>761.6</ele>
        <time>2022-06-16T11:06:57Z</time>
      </trkpt>
      <trkpt lat="43.91294" lon="3.3168">
        <ele>762</ele>
        <time>2022-06-16T11:07:05Z</time>
      </trkpt>
      <trkpt lat="43.91294" lon="3.31682">
        <ele>762</ele>
        <time>2022-06-16T11:07:06Z</time>
      </trkpt>
      <trkpt lat="43.91289" lon="3.31684">
        <ele>762</ele>
        <time>2022-06-16T11:07:09Z</time>
      </trkpt>
      <trkpt lat="43.91284" lon="3.31686">
        <ele>761.8</ele>
        <time>2022-06-16T11:07:11Z</time>
      </trkpt>
      <trkpt lat="43.91279" lon="3.31687">
        <ele>761.4</ele>
        <time>2022-06-16T11:07:13Z</time>
      </trkpt>
      <trkpt lat="43.91274" lon="3.31691">
        <ele>761.4</ele>
        <time>2022-06-16T11:07:15Z</time>
      </trkpt>
      <trkpt lat="43.91272" lon="3.31701">
        <ele>761</ele>
        <time>2022-06-16T11:07:17Z</time>
      </trkpt>
      <trkpt lat="43.91272" lon="3.31706">
        <ele>760.8</ele>
        <time>2022-06-16T11:07:18Z</time>
      </trkpt>
      <trkpt lat="43.91269" lon="3.31724">
        <ele>760.6</ele>
        <time>2022-06-16T11:07:22Z</time>
      </trkpt>
      <trkpt lat="43.91268" lon="3.3173">
        <ele>760.6</ele>
        <time>2022-06-16T11:07:24Z</time>
      </trkpt>
      <trkpt lat="43.91265" lon="3.31734">
        <ele>760.4</ele>
        <time>2022-06-16T11:07:26Z</time>
      </trkpt>
      <trkpt lat="43.91259" lon="3.31743">
        <ele>760.6</ele>
        <time>2022-06-16T11:07:30Z</time>
      </trkpt>
      <trkpt lat="43.91255" lon="3.31746">
        <ele>760.6</ele>
        <time>2022-06-16T11:07:32Z</time>
      </trkpt>
      <trkpt lat="43.91244" lon="3.3175">
        <ele>760.4</ele>
        <time>2022-06-16T11:07:36Z</time>
      </trkpt>
      <trkpt lat="43.91232" lon="3.31753">
        <ele>761</ele>
        <time>2022-06-16T11:07:42Z</time>
      </trkpt>
      <trkpt lat="43.91228" lon="3.31751">
        <ele>761.6</ele>
        <time>2022-06-16T11:07:46Z</time>
      </trkpt>
      <trkpt lat="43.91224" lon="3.3175">
        <ele>761.8</ele>
        <time>2022-06-16T11:07:51Z</time>
      </trkpt>
      <trkpt lat="43.91224" lon="3.3175">
        <ele>761.8</ele>
        <time>2022-06-16T11:07:52Z</time>
      </trkpt>
      <trkpt lat="43.91224" lon="3.3175">
        <ele>762</ele>
        <time>2022-06-16T11:07:56Z</time>
      </trkpt>
      <trkpt lat="43.91226" lon="3.31751">
        <ele>762</ele>
        <time>2022-06-16T11:07:59Z</time>
      </trkpt>
      <trkpt lat="43.91229" lon="3.31752">
        <ele>762</ele>
        <time>2022-06-16T11:08:01Z</time>
      </trkpt>
      <trkpt lat="43.91229" lon="3.31752">
        <ele>762</ele>
        <time>2022-06-16T11:08:05Z</time>
      </trkpt>
      <trkpt lat="43.91228" lon="3.31752">
        <ele>761.8</ele>
        <time>2022-06-16T11:08:10Z</time>
      </trkpt>
      <trkpt lat="43.91229" lon="3.31751">
        <ele>761.8</ele>
        <time>2022-06-16T11:08:17Z</time>
      </trkpt>
      <trkpt lat="43.91228" lon="3.31749">
        <ele>762.4</ele>
        <time>2022-06-16T11:08:23Z</time>
      </trkpt>
      <trkpt lat="43.91228" lon="3.31749">
        <ele>762.8</ele>
        <time>2022-06-16T11:08:32Z</time>
      </trkpt>
      <trkpt lat="43.91228" lon="3.31749">
        <ele>763</ele>
        <time>2022-06-16T11:08:34Z</time>
      </trkpt>
      <trkpt lat="43.91228" lon="3.31749">
        <ele>763</ele>
        <time>2022-06-16T11:08:41Z</time>
      </trkpt>
      <trkpt lat="43.91228" lon="3.31749">
        <ele>763.2</ele>
        <time>2022-06-16T11:08:49Z</time>
      </trkpt>
      <trkpt lat="43.91228" lon="3.31749">
        <ele>763.2</ele>
        <time>2022-06-16T11:08:58Z</time>
      </trkpt>
      <trkpt lat="43.91228" lon="3.31749">
        <ele>762.8</ele>
        <time>2022-06-16T11:09:07Z</time>
      </trkpt>
      <trkpt lat="43.91228" lon="3.31749">
        <ele>762.6</ele>
        <time>2022-06-16T11:09:09Z</time>
      </trkpt>
      <trkpt lat="43.91228" lon="3.31749">
        <ele>762.2</ele>
        <time>2022-06-16T11:09:19Z</time>
      </trkpt>
      <trkpt lat="43.91228" lon="3.31749">
        <ele>762.8</ele>
        <time>2022-06-16T11:09:30Z</time>
      </trkpt>
      <trkpt lat="43.91228" lon="3.31749">
        <ele>762.8</ele>
        <time>2022-06-16T11:09:46Z</time>
      </trkpt>
      <trkpt lat="43.91228" lon="3.31749">
        <ele>762.6</ele>
        <time>2022-06-16T11:10:01Z</time>
      </trkpt>
      <trkpt lat="43.91228" lon="3.31749">
        <ele>762.4</ele>
        <time>2022-06-16T11:10:13Z</time>
      </trkpt>
      <trkpt lat="43.91228" lon="3.31749">
        <ele>762.4</ele>
        <time>2022-06-16T11:10:19Z</time>
      </trkpt>
      <trkpt lat="43.91228" lon="3.31749">
        <ele>762.4</ele>
        <time>2022-06-16T11:10:24Z</time>
      </trkpt>
      <trkpt lat="43.91228" lon="3.31749">
        <ele>762.6</ele>
        <time>2022-06-16T11:10:36Z</time>
      </trkpt>
      <trkpt lat="43.91228" lon="3.31749">
        <ele>762.6</ele>
        <time>2022-06-16T11:10:49Z</time>
      </trkpt>
      <trkpt lat="43.91228" lon="3.31749">
        <ele>762.8</ele>
        <time>2022-06-16T11:11:11Z</time>
      </trkpt>
      <trkpt lat="43.91228" lon="3.31749">
        <ele>763</ele>
        <time>2022-06-16T11:11:22Z</time>
      </trkpt>
      <trkpt lat="43.91228" lon="3.31749">
        <ele>763</ele>
        <time>2022-06-16T11:11:40Z</time>
      </trkpt>
      <trkpt lat="43.91228" lon="3.31749">
        <ele>763</ele>
        <time>2022-06-16T11:11:57Z</time>
      </trkpt>
      <trkpt lat="43.91228" lon="3.31749">
        <ele>763</ele>
        <time>2022-06-16T11:12:08Z</time>
      </trkpt>
      <trkpt lat="43.91228" lon="3.31749">
        <ele>763</ele>
        <time>2022-06-16T11:12:15Z</time>
      </trkpt>
      <trkpt lat="43.91228" lon="3.31749">
        <ele>763</ele>
        <time>2022-06-16T11:12:28Z</time>
      </trkpt>
      <trkpt lat="43.91228" lon="3.31749">
        <ele>763</ele>
        <time>2022-06-16T11:12:48Z</time>
      </trkpt>
      <trkpt lat="43.91228" lon="3.31749">
        <ele>763</ele>
        <time>2022-06-16T11:13:03Z</time>
      </trkpt>
      <trkpt lat="43.91228" lon="3.31749">
        <ele>763</ele>
        <time>2022-06-16T11:13:15Z</time>
      </trkpt>
      <trkpt lat="43.91228" lon="3.31749">
        <ele>763</ele>
        <time>2022-06-16T11:13:24Z</time>
      </trkpt>
      <trkpt lat="43.91228" lon="3.31749">
        <ele>763</ele>
        <time>2022-06-16T11:13:37Z</time>
      </trkpt>
      <trkpt lat="43.91228" lon="3.31749">
        <ele>763</ele>
        <time>2022-06-16T11:13:50Z</time>
      </trkpt>
      <trkpt lat="43.91228" lon="3.31749">
        <ele>763</ele>
        <time>2022-06-16T11:14:03Z</time>
      </trkpt>
      <trkpt lat="43.91227" lon="3.31749">
        <ele>763.2</ele>
        <time>2022-06-16T11:14:06Z</time>
      </trkpt>
      <trkpt lat="43.91226" lon="3.3175">
        <ele>763.2</ele>
        <time>2022-06-16T11:14:08Z</time>
      </trkpt>
      <trkpt lat="43.91229" lon="3.31753">
        <ele>762.8</ele>
        <time>2022-06-16T11:14:12Z</time>
      </trkpt>
      <trkpt lat="43.91231" lon="3.31753">
        <ele>762.8</ele>
        <time>2022-06-16T11:14:13Z</time>
      </trkpt>
      <trkpt lat="43.91237" lon="3.31755">
        <ele>762.4</ele>
        <time>2022-06-16T11:14:16Z</time>
      </trkpt>
      <trkpt lat="43.91239" lon="3.31755">
        <ele>762</ele>
        <time>2022-06-16T11:14:17Z</time>
      </trkpt>
      <trkpt lat="43.91239" lon="3.31754">
        <ele>761.6</ele>
        <time>2022-06-16T11:14:19Z</time>
      </trkpt>
      <trkpt lat="43.91236" lon="3.31749">
        <ele>761.2</ele>
        <time>2022-06-16T11:14:21Z</time>
      </trkpt>
      <trkpt lat="43.91234" lon="3.31748">
        <ele>761</ele>
        <time>2022-06-16T11:14:22Z</time>
      </trkpt>
      <trkpt lat="43.91229" lon="3.31745">
        <ele>760.6</ele>
        <time>2022-06-16T11:14:24Z</time>
      </trkpt>
      <trkpt lat="43.91227" lon="3.31745">
        <ele>760.4</ele>
        <time>2022-06-16T11:14:25Z</time>
      </trkpt>
      <trkpt lat="43.91224" lon="3.31746">
        <ele>760.2</ele>
        <time>2022-06-16T11:14:27Z</time>
      </trkpt>
      <trkpt lat="43.91222" lon="3.31746">
        <ele>760.2</ele>
        <time>2022-06-16T11:14:28Z</time>
      </trkpt>
      <trkpt lat="43.9122" lon="3.31745">
        <ele>760</ele>
        <time>2022-06-16T11:14:29Z</time>
      </trkpt>
      <trkpt lat="43.91219" lon="3.31742">
        <ele>759.8</ele>
        <time>2022-06-16T11:14:31Z</time>
      </trkpt>
      <trkpt lat="43.91219" lon="3.3174">
        <ele>759.6</ele>
        <time>2022-06-16T11:14:32Z</time>
      </trkpt>
      <trkpt lat="43.91217" lon="3.31738">
        <ele>759.6</ele>
        <time>2022-06-16T11:14:33Z</time>
      </trkpt>
      <trkpt lat="43.91216" lon="3.31735">
        <ele>759.4</ele>
        <time>2022-06-16T11:14:34Z</time>
      </trkpt>
      <trkpt lat="43.91215" lon="3.31733">
        <ele>759.4</ele>
        <time>2022-06-16T11:14:35Z</time>
      </trkpt>
      <trkpt lat="43.91207" lon="3.31718">
        <ele>758.8</ele>
        <time>2022-06-16T11:14:40Z</time>
      </trkpt>
      <trkpt lat="43.91203" lon="3.31712">
        <ele>758.4</ele>
        <time>2022-06-16T11:14:42Z</time>
      </trkpt>
      <trkpt lat="43.91196" lon="3.31706">
        <ele>758.2</ele>
        <time>2022-06-16T11:14:44Z</time>
      </trkpt>
      <trkpt lat="43.91189" lon="3.31707">
        <ele>758</ele>
        <time>2022-06-16T11:14:46Z</time>
      </trkpt>
      <trkpt lat="43.91176" lon="3.31701">
        <ele>757.2</ele>
        <time>2022-06-16T11:14:52Z</time>
      </trkpt>
      <trkpt lat="43.9118" lon="3.31696">
        <ele>756.8</ele>
        <time>2022-06-16T11:14:55Z</time>
      </trkpt>
      <trkpt lat="43.91192" lon="3.31683">
        <ele>756.2</ele>
        <time>2022-06-16T11:15:01Z</time>
      </trkpt>
      <trkpt lat="43.91199" lon="3.31665">
        <ele>756.2</ele>
        <time>2022-06-16T11:15:07Z</time>
      </trkpt>
      <trkpt lat="43.91204" lon="3.31636">
        <ele>756.8</ele>
        <time>2022-06-16T11:15:15Z</time>
      </trkpt>
      <trkpt lat="43.91213" lon="3.31625">
        <ele>757.4</ele>
        <time>2022-06-16T11:15:20Z</time>
      </trkpt>
      <trkpt lat="43.91229" lon="3.3162">
        <ele>757.8</ele>
        <time>2022-06-16T11:15:26Z</time>
      </trkpt>
      <trkpt lat="43.91238" lon="3.31618">
        <ele>758.2</ele>
        <time>2022-06-16T11:15:30Z</time>
      </trkpt>
      <trkpt lat="43.9124" lon="3.31618">
        <ele>758.4</ele>
        <time>2022-06-16T11:15:31Z</time>
      </trkpt>
      <trkpt lat="43.91259" lon="3.31626">
        <ele>759.4</ele>
        <time>2022-06-16T11:15:39Z</time>
      </trkpt>
      <trkpt lat="43.91273" lon="3.3162">
        <ele>760</ele>
        <time>2022-06-16T11:15:45Z</time>
      </trkpt>
      <trkpt lat="43.91274" lon="3.31617">
        <ele>760.2</ele>
        <time>2022-06-16T11:15:46Z</time>
      </trkpt>
      <trkpt lat="43.91274" lon="3.3161">
        <ele>760.4</ele>
        <time>2022-06-16T11:15:48Z</time>
      </trkpt>
      <trkpt lat="43.91274" lon="3.31605">
        <ele>760.6</ele>
        <time>2022-06-16T11:15:49Z</time>
      </trkpt>
      <trkpt lat="43.91263" lon="3.31577">
        <ele>761.4</ele>
        <time>2022-06-16T11:15:56Z</time>
      </trkpt>
      <trkpt lat="43.91261" lon="3.31574">
        <ele>761.6</ele>
        <time>2022-06-16T11:15:57Z</time>
      </trkpt>
      <trkpt lat="43.91253" lon="3.31558">
        <ele>761.8</ele>
        <time>2022-06-16T11:16:01Z</time>
      </trkpt>
      <trkpt lat="43.9124" lon="3.31528">
        <ele>761.6</ele>
        <time>2022-06-16T11:16:08Z</time>
      </trkpt>
      <trkpt lat="43.91219" lon="3.31488">
        <ele>761.6</ele>
        <time>2022-06-16T11:16:17Z</time>
      </trkpt>
      <trkpt lat="43.91215" lon="3.31479">
        <ele>761.6</ele>
        <time>2022-06-16T11:16:19Z</time>
      </trkpt>
      <trkpt lat="43.91199" lon="3.3145">
        <ele>761.6</ele>
        <time>2022-06-16T11:16:26Z</time>
      </trkpt>
      <trkpt lat="43.9118" lon="3.31424">
        <ele>761.2</ele>
        <time>2022-06-16T11:16:33Z</time>
      </trkpt>
      <trkpt lat="43.91154" lon="3.31387">
        <ele>761</ele>
        <time>2022-06-16T11:16:42Z</time>
      </trkpt>
      <trkpt lat="43.91128" lon="3.31354">
        <ele>760.8</ele>
        <time>2022-06-16T11:16:49Z</time>
      </trkpt>
      <trkpt lat="43.91103" lon="3.31323">
        <ele>760.4</ele>
        <time>2022-06-16T11:16:55Z</time>
      </trkpt>
      <trkpt lat="43.91099" lon="3.31318">
        <ele>760.2</ele>
        <time>2022-06-16T11:16:56Z</time>
      </trkpt>
      <trkpt lat="43.91068" lon="3.31279">
        <ele>760</ele>
        <time>2022-06-16T11:17:04Z</time>
      </trkpt>
      <trkpt lat="43.9106" lon="3.31269">
        <ele>760</ele>
        <time>2022-06-16T11:17:06Z</time>
      </trkpt>
      <trkpt lat="43.91037" lon="3.31243">
        <ele>759.2</ele>
        <time>2022-06-16T11:17:12Z</time>
      </trkpt>
      <trkpt lat="43.91034" lon="3.31241">
        <ele>759.2</ele>
        <time>2022-06-16T11:17:13Z</time>
      </trkpt>
      <trkpt lat="43.91032" lon="3.3124">
        <ele>759.2</ele>
        <time>2022-06-16T11:17:14Z</time>
      </trkpt>
      <trkpt lat="43.91027" lon="3.31236">
        <ele>759</ele>
        <time>2022-06-16T11:17:17Z</time>
      </trkpt>
      <trkpt lat="43.91027" lon="3.31236">
        <ele>759</ele>
        <time>2022-06-16T11:17:18Z</time>
      </trkpt>
      <trkpt lat="43.91024" lon="3.31233">
        <ele>759</ele>
        <time>2022-06-16T11:17:22Z</time>
      </trkpt>
      <trkpt lat="43.91023" lon="3.31231">
        <ele>758.8</ele>
        <time>2022-06-16T11:17:24Z</time>
      </trkpt>
      <trkpt lat="43.91021" lon="3.31223">
        <ele>758.8</ele>
        <time>2022-06-16T11:17:27Z</time>
      </trkpt>
      <trkpt lat="43.91012" lon="3.31208">
        <ele>758.6</ele>
        <time>2022-06-16T11:17:32Z</time>
      </trkpt>
      <trkpt lat="43.90995" lon="3.31188">
        <ele>758.6</ele>
        <time>2022-06-16T11:17:39Z</time>
      </trkpt>
      <trkpt lat="43.90979" lon="3.31168">
        <ele>758.6</ele>
        <time>2022-06-16T11:17:46Z</time>
      </trkpt>
      <trkpt lat="43.90973" lon="3.31155">
        <ele>758.6</ele>
        <time>2022-06-16T11:17:50Z</time>
      </trkpt>
      <trkpt lat="43.90968" lon="3.3115">
        <ele>758.8</ele>
        <time>2022-06-16T11:17:53Z</time>
      </trkpt>
      <trkpt lat="43.90967" lon="3.31149">
        <ele>759</ele>
        <time>2022-06-16T11:17:54Z</time>
      </trkpt>
      <trkpt lat="43.90961" lon="3.31142">
        <ele>759.2</ele>
        <time>2022-06-16T11:17:59Z</time>
      </trkpt>
      <trkpt lat="43.90946" lon="3.31137">
        <ele>759.4</ele>
        <time>2022-06-16T11:18:04Z</time>
      </trkpt>
      <trkpt lat="43.90929" lon="3.3114">
        <ele>759.4</ele>
        <time>2022-06-16T11:18:09Z</time>
      </trkpt>
      <trkpt lat="43.90888" lon="3.31138">
        <ele>759.6</ele>
        <time>2022-06-16T11:18:19Z</time>
      </trkpt>
      <trkpt lat="43.90867" lon="3.31136">
        <ele>759.8</ele>
        <time>2022-06-16T11:18:24Z</time>
      </trkpt>
      <trkpt lat="43.90863" lon="3.31135">
        <ele>760</ele>
        <time>2022-06-16T11:18:25Z</time>
      </trkpt>
      <trkpt lat="43.90837" lon="3.31128">
        <ele>760</ele>
        <time>2022-06-16T11:18:31Z</time>
      </trkpt>
      <trkpt lat="43.90829" lon="3.31125">
        <ele>760.2</ele>
        <time>2022-06-16T11:18:33Z</time>
      </trkpt>
      <trkpt lat="43.90817" lon="3.31121">
        <ele>760.2</ele>
        <time>2022-06-16T11:18:36Z</time>
      </trkpt>
      <trkpt lat="43.90813" lon="3.31119">
        <ele>760.4</ele>
        <time>2022-06-16T11:18:37Z</time>
      </trkpt>
      <trkpt lat="43.90802" lon="3.31115">
        <ele>760.8</ele>
        <time>2022-06-16T11:18:40Z</time>
      </trkpt>
      <trkpt lat="43.90786" lon="3.31107">
        <ele>761.4</ele>
        <time>2022-06-16T11:18:45Z</time>
      </trkpt>
      <trkpt lat="43.90777" lon="3.31102">
        <ele>761.6</ele>
        <time>2022-06-16T11:18:48Z</time>
      </trkpt>
      <trkpt lat="43.90751" lon="3.31089">
        <ele>762.6</ele>
        <time>2022-06-16T11:18:57Z</time>
      </trkpt>
      <trkpt lat="43.90728" lon="3.31077">
        <ele>763.4</ele>
        <time>2022-06-16T11:19:06Z</time>
      </trkpt>
      <trkpt lat="43.9072" lon="3.31074">
        <ele>763.6</ele>
        <time>2022-06-16T11:19:09Z</time>
      </trkpt>
      <trkpt lat="43.90708" lon="3.31067">
        <ele>764.4</ele>
        <time>2022-06-16T11:19:14Z</time>
      </trkpt>
      <trkpt lat="43.90703" lon="3.31064">
        <ele>764.6</ele>
        <time>2022-06-16T11:19:16Z</time>
      </trkpt>
      <trkpt lat="43.90681" lon="3.31052">
        <ele>765</ele>
        <time>2022-06-16T11:19:24Z</time>
      </trkpt>
      <trkpt lat="43.90671" lon="3.31047">
        <ele>765.2</ele>
        <time>2022-06-16T11:19:28Z</time>
      </trkpt>
      <trkpt lat="43.90663" lon="3.31042">
        <ele>765.6</ele>
        <time>2022-06-16T11:19:31Z</time>
      </trkpt>
      <trkpt lat="43.90655" lon="3.31037">
        <ele>766</ele>
        <time>2022-06-16T11:19:34Z</time>
      </trkpt>
      <trkpt lat="43.90633" lon="3.31024">
        <ele>766.8</ele>
        <time>2022-06-16T11:19:42Z</time>
      </trkpt>
      <trkpt lat="43.90631" lon="3.31023">
        <ele>766.8</ele>
        <time>2022-06-16T11:19:43Z</time>
      </trkpt>
      <trkpt lat="43.90603" lon="3.31011">
        <ele>767.6</ele>
        <time>2022-06-16T11:19:52Z</time>
      </trkpt>
      <trkpt lat="43.906" lon="3.31009">
        <ele>767.8</ele>
        <time>2022-06-16T11:19:53Z</time>
      </trkpt>
      <trkpt lat="43.90584" lon="3.30999">
        <ele>768.2</ele>
        <time>2022-06-16T11:19:58Z</time>
      </trkpt>
      <trkpt lat="43.90559" lon="3.30986">
        <ele>769</ele>
        <time>2022-06-16T11:20:05Z</time>
      </trkpt>
      <trkpt lat="43.90552" lon="3.30982">
        <ele>769.2</ele>
        <time>2022-06-16T11:20:07Z</time>
      </trkpt>
      <trkpt lat="43.90531" lon="3.3097">
        <ele>770</ele>
        <time>2022-06-16T11:20:13Z</time>
      </trkpt>
      <trkpt lat="43.90524" lon="3.30966">
        <ele>770.2</ele>
        <time>2022-06-16T11:20:15Z</time>
      </trkpt>
      <trkpt lat="43.90521" lon="3.30965">
        <ele>770.2</ele>
        <time>2022-06-16T11:20:16Z</time>
      </trkpt>
      <trkpt lat="43.9049" lon="3.30948">
        <ele>770.8</ele>
        <time>2022-06-16T11:20:25Z</time>
      </trkpt>
      <trkpt lat="43.90483" lon="3.30946">
        <ele>771</ele>
        <time>2022-06-16T11:20:27Z</time>
      </trkpt>
      <trkpt lat="43.90451" lon="3.30937">
        <ele>771.6</ele>
        <time>2022-06-16T11:20:35Z</time>
      </trkpt>
      <trkpt lat="43.90419" lon="3.30933">
        <ele>772.2</ele>
        <time>2022-06-16T11:20:43Z</time>
      </trkpt>
      <trkpt lat="43.90411" lon="3.30932">
        <ele>772.2</ele>
        <time>2022-06-16T11:20:45Z</time>
      </trkpt>
      <trkpt lat="43.90368" lon="3.3093">
        <ele>772.6</ele>
        <time>2022-06-16T11:20:55Z</time>
      </trkpt>
      <trkpt lat="43.90323" lon="3.30932">
        <ele>772.8</ele>
        <time>2022-06-16T11:21:04Z</time>
      </trkpt>
      <trkpt lat="43.90283" lon="3.30941">
        <ele>772.4</ele>
        <time>2022-06-16T11:21:11Z</time>
      </trkpt>
      <trkpt lat="43.90238" lon="3.30964">
        <ele>771</ele>
        <time>2022-06-16T11:21:19Z</time>
      </trkpt>
      <trkpt lat="43.90228" lon="3.3097">
        <ele>770.8</ele>
        <time>2022-06-16T11:21:21Z</time>
      </trkpt>
      <trkpt lat="43.9019" lon="3.3099">
        <ele>770.2</ele>
        <time>2022-06-16T11:21:28Z</time>
      </trkpt>
      <trkpt lat="43.90157" lon="3.31009">
        <ele>769.8</ele>
        <time>2022-06-16T11:21:34Z</time>
      </trkpt>
      <trkpt lat="43.90142" lon="3.31017">
        <ele>769.6</ele>
        <time>2022-06-16T11:21:37Z</time>
      </trkpt>
      <trkpt lat="43.90103" lon="3.31039">
        <ele>769.2</ele>
        <time>2022-06-16T11:21:45Z</time>
      </trkpt>
      <trkpt lat="43.90098" lon="3.31042">
        <ele>769</ele>
        <time>2022-06-16T11:21:46Z</time>
      </trkpt>
      <trkpt lat="43.90069" lon="3.31057">
        <ele>768.8</ele>
        <time>2022-06-16T11:21:52Z</time>
      </trkpt>
      <trkpt lat="43.90055" lon="3.31065">
        <ele>768.6</ele>
        <time>2022-06-16T11:21:55Z</time>
      </trkpt>
      <trkpt lat="43.90026" lon="3.31081">
        <ele>768.6</ele>
        <time>2022-06-16T11:22:01Z</time>
      </trkpt>
      <trkpt lat="43.89986" lon="3.311">
        <ele>768.4</ele>
        <time>2022-06-16T11:22:09Z</time>
      </trkpt>
      <trkpt lat="43.89953" lon="3.31108">
        <ele>768.4</ele>
        <time>2022-06-16T11:22:15Z</time>
      </trkpt>
      <trkpt lat="43.89948" lon="3.31108">
        <ele>768.4</ele>
        <time>2022-06-16T11:22:16Z</time>
      </trkpt>
      <trkpt lat="43.8993" lon="3.31105">
        <ele>768</ele>
        <time>2022-06-16T11:22:19Z</time>
      </trkpt>
      <trkpt lat="43.89913" lon="3.31099">
        <ele>767.6</ele>
        <time>2022-06-16T11:22:22Z</time>
      </trkpt>
      <trkpt lat="43.89902" lon="3.31095">
        <ele>767.4</ele>
        <time>2022-06-16T11:22:24Z</time>
      </trkpt>
      <trkpt lat="43.89845" lon="3.31074">
        <ele>767</ele>
        <time>2022-06-16T11:22:34Z</time>
      </trkpt>
      <trkpt lat="43.89802" lon="3.31058">
        <ele>766.8</ele>
        <time>2022-06-16T11:22:42Z</time>
      </trkpt>
      <trkpt lat="43.89774" lon="3.31049">
        <ele>766.8</ele>
        <time>2022-06-16T11:22:48Z</time>
      </trkpt>
      <trkpt lat="43.89745" lon="3.3104">
        <ele>767.4</ele>
        <time>2022-06-16T11:22:55Z</time>
      </trkpt>
      <trkpt lat="43.89724" lon="3.3103">
        <ele>768.4</ele>
        <time>2022-06-16T11:23:02Z</time>
      </trkpt>
      <trkpt lat="43.89713" lon="3.31027">
        <ele>769</ele>
        <time>2022-06-16T11:23:06Z</time>
      </trkpt>
      <trkpt lat="43.89706" lon="3.31023">
        <ele>769.4</ele>
        <time>2022-06-16T11:23:09Z</time>
      </trkpt>
      <trkpt lat="43.897" lon="3.31022">
        <ele>770</ele>
        <time>2022-06-16T11:23:12Z</time>
      </trkpt>
      <trkpt lat="43.89694" lon="3.31021">
        <ele>770.2</ele>
        <time>2022-06-16T11:23:15Z</time>
      </trkpt>
      <trkpt lat="43.89683" lon="3.31017">
        <ele>771</ele>
        <time>2022-06-16T11:23:20Z</time>
      </trkpt>
      <trkpt lat="43.89672" lon="3.31013">
        <ele>771.6</ele>
        <time>2022-06-16T11:23:25Z</time>
      </trkpt>
      <trkpt lat="43.89669" lon="3.31011">
        <ele>772</ele>
        <time>2022-06-16T11:23:27Z</time>
      </trkpt>
      <trkpt lat="43.89653" lon="3.31007">
        <ele>773</ele>
        <time>2022-06-16T11:23:34Z</time>
      </trkpt>
      <trkpt lat="43.89651" lon="3.31006">
        <ele>773.2</ele>
        <time>2022-06-16T11:23:35Z</time>
      </trkpt>
      <trkpt lat="43.89637" lon="3.31001">
        <ele>774</ele>
        <time>2022-06-16T11:23:42Z</time>
      </trkpt>
      <trkpt lat="43.89635" lon="3.31">
        <ele>774</ele>
        <time>2022-06-16T11:23:43Z</time>
      </trkpt>
      <trkpt lat="43.89619" lon="3.30994">
        <ele>775.2</ele>
        <time>2022-06-16T11:23:50Z</time>
      </trkpt>
      <trkpt lat="43.89614" lon="3.30992">
        <ele>775.4</ele>
        <time>2022-06-16T11:23:52Z</time>
      </trkpt>
      <trkpt lat="43.89595" lon="3.30986">
        <ele>776.2</ele>
        <time>2022-06-16T11:24:00Z</time>
      </trkpt>
      <trkpt lat="43.89571" lon="3.30977">
        <ele>777.2</ele>
        <time>2022-06-16T11:24:09Z</time>
      </trkpt>
      <trkpt lat="43.89566" lon="3.30975">
        <ele>777.2</ele>
        <time>2022-06-16T11:24:11Z</time>
      </trkpt>
      <trkpt lat="43.89542" lon="3.30967">
        <ele>778.4</ele>
        <time>2022-06-16T11:24:20Z</time>
      </trkpt>
      <trkpt lat="43.89519" lon="3.30962">
        <ele>779.4</ele>
        <time>2022-06-16T11:24:29Z</time>
      </trkpt>
      <trkpt lat="43.89517" lon="3.30961">
        <ele>779.4</ele>
        <time>2022-06-16T11:24:30Z</time>
      </trkpt>
      <trkpt lat="43.89497" lon="3.3096">
        <ele>780.4</ele>
        <time>2022-06-16T11:24:37Z</time>
      </trkpt>
      <trkpt lat="43.89492" lon="3.3096">
        <ele>780.6</ele>
        <time>2022-06-16T11:24:39Z</time>
      </trkpt>
      <trkpt lat="43.89471" lon="3.30962">
        <ele>781.6</ele>
        <time>2022-06-16T11:24:46Z</time>
      </trkpt>
      <trkpt lat="43.89468" lon="3.30963">
        <ele>781.6</ele>
        <time>2022-06-16T11:24:47Z</time>
      </trkpt>
      <trkpt lat="43.89452" lon="3.30966">
        <ele>782.2</ele>
        <time>2022-06-16T11:24:52Z</time>
      </trkpt>
      <trkpt lat="43.89439" lon="3.30972">
        <ele>782.6</ele>
        <time>2022-06-16T11:24:56Z</time>
      </trkpt>
      <trkpt lat="43.89426" lon="3.30978">
        <ele>782.8</ele>
        <time>2022-06-16T11:25:00Z</time>
      </trkpt>
      <trkpt lat="43.89402" lon="3.3099">
        <ele>782.8</ele>
        <time>2022-06-16T11:25:07Z</time>
      </trkpt>
      <trkpt lat="43.89398" lon="3.30993">
        <ele>782.8</ele>
        <time>2022-06-16T11:25:08Z</time>
      </trkpt>
      <trkpt lat="43.89379" lon="3.31007">
        <ele>782.6</ele>
        <time>2022-06-16T11:25:13Z</time>
      </trkpt>
      <trkpt lat="43.89348" lon="3.3103">
        <ele>781.8</ele>
        <time>2022-06-16T11:25:19Z</time>
      </trkpt>
      <trkpt lat="43.89342" lon="3.31034">
        <ele>781.4</ele>
        <time>2022-06-16T11:25:20Z</time>
      </trkpt>
      <trkpt lat="43.89321" lon="3.31049">
        <ele>780.4</ele>
        <time>2022-06-16T11:25:23Z</time>
      </trkpt>
      <trkpt lat="43.89313" lon="3.31053">
        <ele>780.2</ele>
        <time>2022-06-16T11:25:24Z</time>
      </trkpt>
      <trkpt lat="43.89287" lon="3.31065">
        <ele>779</ele>
        <time>2022-06-16T11:25:27Z</time>
      </trkpt>
      <trkpt lat="43.89268" lon="3.3107">
        <ele>778</ele>
        <time>2022-06-16T11:25:29Z</time>
      </trkpt>
      <trkpt lat="43.89238" lon="3.31073">
        <ele>776.6</ele>
        <time>2022-06-16T11:25:32Z</time>
      </trkpt>
      <trkpt lat="43.89218" lon="3.31074">
        <ele>775.2</ele>
        <time>2022-06-16T11:25:34Z</time>
      </trkpt>
      <trkpt lat="43.89208" lon="3.31074">
        <ele>774.8</ele>
        <time>2022-06-16T11:25:35Z</time>
      </trkpt>
      <trkpt lat="43.89198" lon="3.31073">
        <ele>773.8</ele>
        <time>2022-06-16T11:25:36Z</time>
      </trkpt>
      <trkpt lat="43.89167" lon="3.31071">
        <ele>772.8</ele>
        <time>2022-06-16T11:25:39Z</time>
      </trkpt>
      <trkpt lat="43.89125" lon="3.31064">
        <ele>771.2</ele>
        <time>2022-06-16T11:25:43Z</time>
      </trkpt>
      <trkpt lat="43.89093" lon="3.31056">
        <ele>769.8</ele>
        <time>2022-06-16T11:25:46Z</time>
      </trkpt>
      <trkpt lat="43.89065" lon="3.31044">
        <ele>768.4</ele>
        <time>2022-06-16T11:25:49Z</time>
      </trkpt>
      <trkpt lat="43.89039" lon="3.31032">
        <ele>767.4</ele>
        <time>2022-06-16T11:25:52Z</time>
      </trkpt>
      <trkpt lat="43.89016" lon="3.31021">
        <ele>767</ele>
        <time>2022-06-16T11:25:55Z</time>
      </trkpt>
      <trkpt lat="43.88968" lon="3.30999">
        <ele>766.4</ele>
        <time>2022-06-16T11:26:02Z</time>
      </trkpt>
      <trkpt lat="43.88962" lon="3.30996">
        <ele>766.2</ele>
        <time>2022-06-16T11:26:03Z</time>
      </trkpt>
      <trkpt lat="43.8893" lon="3.30981">
        <ele>765.6</ele>
        <time>2022-06-16T11:26:08Z</time>
      </trkpt>
      <trkpt lat="43.88905" lon="3.3097">
        <ele>765</ele>
        <time>2022-06-16T11:26:12Z</time>
      </trkpt>
      <trkpt lat="43.88873" lon="3.30958">
        <ele>764.4</ele>
        <time>2022-06-16T11:26:17Z</time>
      </trkpt>
      <trkpt lat="43.88847" lon="3.30947">
        <ele>764</ele>
        <time>2022-06-16T11:26:21Z</time>
      </trkpt>
      <trkpt lat="43.88808" lon="3.30932">
        <ele>763</ele>
        <time>2022-06-16T11:26:27Z</time>
      </trkpt>
      <trkpt lat="43.88775" lon="3.30919">
        <ele>761.8</ele>
        <time>2022-06-16T11:26:32Z</time>
      </trkpt>
      <trkpt lat="43.88755" lon="3.30911">
        <ele>760.8</ele>
        <time>2022-06-16T11:26:35Z</time>
      </trkpt>
      <trkpt lat="43.88742" lon="3.30905">
        <ele>760.4</ele>
        <time>2022-06-16T11:26:37Z</time>
      </trkpt>
      <trkpt lat="43.88721" lon="3.30897">
        <ele>759.8</ele>
        <time>2022-06-16T11:26:40Z</time>
      </trkpt>
      <trkpt lat="43.88694" lon="3.3089">
        <ele>759</ele>
        <time>2022-06-16T11:26:44Z</time>
      </trkpt>
      <trkpt lat="43.88681" lon="3.30889">
        <ele>758.6</ele>
        <time>2022-06-16T11:26:46Z</time>
      </trkpt>
      <trkpt lat="43.88644" lon="3.30886">
        <ele>757.2</ele>
        <time>2022-06-16T11:26:51Z</time>
      </trkpt>
      <trkpt lat="43.88636" lon="3.30886">
        <ele>757</ele>
        <time>2022-06-16T11:26:52Z</time>
      </trkpt>
      <trkpt lat="43.88611" lon="3.30887">
        <ele>756</ele>
        <time>2022-06-16T11:26:55Z</time>
      </trkpt>
      <trkpt lat="43.88585" lon="3.30891">
        <ele>755</ele>
        <time>2022-06-16T11:26:58Z</time>
      </trkpt>
      <trkpt lat="43.88576" lon="3.30893">
        <ele>754.8</ele>
        <time>2022-06-16T11:26:59Z</time>
      </trkpt>
      <trkpt lat="43.88557" lon="3.30898">
        <ele>753.8</ele>
        <time>2022-06-16T11:27:01Z</time>
      </trkpt>
      <trkpt lat="43.88529" lon="3.30906">
        <ele>752.6</ele>
        <time>2022-06-16T11:27:04Z</time>
      </trkpt>
      <trkpt lat="43.88511" lon="3.30911">
        <ele>751.4</ele>
        <time>2022-06-16T11:27:06Z</time>
      </trkpt>
      <trkpt lat="43.88492" lon="3.30916">
        <ele>750</ele>
        <time>2022-06-16T11:27:08Z</time>
      </trkpt>
      <trkpt lat="43.88464" lon="3.30923">
        <ele>748.8</ele>
        <time>2022-06-16T11:27:11Z</time>
      </trkpt>
      <trkpt lat="43.88419" lon="3.30936">
        <ele>747.4</ele>
        <time>2022-06-16T11:27:16Z</time>
      </trkpt>
      <trkpt lat="43.8841" lon="3.30938">
        <ele>747.4</ele>
        <time>2022-06-16T11:27:17Z</time>
      </trkpt>
      <trkpt lat="43.88367" lon="3.30951">
        <ele>746</ele>
        <time>2022-06-16T11:27:22Z</time>
      </trkpt>
      <trkpt lat="43.88351" lon="3.30955">
        <ele>745.8</ele>
        <time>2022-06-16T11:27:24Z</time>
      </trkpt>
      <trkpt lat="43.8831" lon="3.30964">
        <ele>745.2</ele>
        <time>2022-06-16T11:27:30Z</time>
      </trkpt>
      <trkpt lat="43.8828" lon="3.30971">
        <ele>745.4</ele>
        <time>2022-06-16T11:27:36Z</time>
      </trkpt>
      <trkpt lat="43.88257" lon="3.30973">
        <ele>745.8</ele>
        <time>2022-06-16T11:27:42Z</time>
      </trkpt>
      <trkpt lat="43.88254" lon="3.30973">
        <ele>746</ele>
        <time>2022-06-16T11:27:43Z</time>
      </trkpt>
      <trkpt lat="43.88236" lon="3.30968">
        <ele>746.8</ele>
        <time>2022-06-16T11:27:48Z</time>
      </trkpt>
      <trkpt lat="43.88227" lon="3.30962">
        <ele>747.2</ele>
        <time>2022-06-16T11:27:51Z</time>
      </trkpt>
      <trkpt lat="43.88217" lon="3.30956">
        <ele>747.8</ele>
        <time>2022-06-16T11:27:55Z</time>
      </trkpt>
      <trkpt lat="43.88209" lon="3.3096">
        <ele>748.2</ele>
        <time>2022-06-16T11:27:58Z</time>
      </trkpt>
      <trkpt lat="43.88207" lon="3.30964">
        <ele>748.4</ele>
        <time>2022-06-16T11:27:59Z</time>
      </trkpt>
      <trkpt lat="43.88197" lon="3.30987">
        <ele>748.6</ele>
        <time>2022-06-16T11:28:04Z</time>
      </trkpt>
      <trkpt lat="43.88179" lon="3.31021">
        <ele>748.8</ele>
        <time>2022-06-16T11:28:11Z</time>
      </trkpt>
      <trkpt lat="43.88156" lon="3.3106">
        <ele>749</ele>
        <time>2022-06-16T11:28:19Z</time>
      </trkpt>
      <trkpt lat="43.88149" lon="3.31069">
        <ele>749</ele>
        <time>2022-06-16T11:28:21Z</time>
      </trkpt>
      <trkpt lat="43.88133" lon="3.31082">
        <ele>749.4</ele>
        <time>2022-06-16T11:28:25Z</time>
      </trkpt>
      <trkpt lat="43.88129" lon="3.31084">
        <ele>749.4</ele>
        <time>2022-06-16T11:28:26Z</time>
      </trkpt>
      <trkpt lat="43.88101" lon="3.311">
        <ele>749</ele>
        <time>2022-06-16T11:28:32Z</time>
      </trkpt>
      <trkpt lat="43.88066" lon="3.31119">
        <ele>748.2</ele>
        <time>2022-06-16T11:28:38Z</time>
      </trkpt>
      <trkpt lat="43.88032" lon="3.31136">
        <ele>747.2</ele>
        <time>2022-06-16T11:28:43Z</time>
      </trkpt>
      <trkpt lat="43.88025" lon="3.31139">
        <ele>747</ele>
        <time>2022-06-16T11:28:44Z</time>
      </trkpt>
      <trkpt lat="43.87995" lon="3.31152">
        <ele>746</ele>
        <time>2022-06-16T11:28:48Z</time>
      </trkpt>
      <trkpt lat="43.87973" lon="3.31163">
        <ele>745.4</ele>
        <time>2022-06-16T11:28:51Z</time>
      </trkpt>
      <trkpt lat="43.87958" lon="3.3117">
        <ele>744.8</ele>
        <time>2022-06-16T11:28:53Z</time>
      </trkpt>
      <trkpt lat="43.87912" lon="3.3119">
        <ele>743.8</ele>
        <time>2022-06-16T11:28:59Z</time>
      </trkpt>
      <trkpt lat="43.87876" lon="3.31205">
        <ele>742.8</ele>
        <time>2022-06-16T11:29:04Z</time>
      </trkpt>
      <trkpt lat="43.87843" lon="3.31221">
        <ele>742.4</ele>
        <time>2022-06-16T11:29:09Z</time>
      </trkpt>
      <trkpt lat="43.87785" lon="3.31245">
        <ele>741.8</ele>
        <time>2022-06-16T11:29:18Z</time>
      </trkpt>
      <trkpt lat="43.87774" lon="3.31249">
        <ele>741.6</ele>
        <time>2022-06-16T11:29:20Z</time>
      </trkpt>
      <trkpt lat="43.87746" lon="3.31259">
        <ele>741.6</ele>
        <time>2022-06-16T11:29:25Z</time>
      </trkpt>
      <trkpt lat="43.87721" lon="3.31267">
        <ele>741.4</ele>
        <time>2022-06-16T11:29:31Z</time>
      </trkpt>
      <trkpt lat="43.87719" lon="3.31269">
        <ele>741.2</ele>
        <time>2022-06-16T11:29:32Z</time>
      </trkpt>
      <trkpt lat="43.87719" lon="3.31272">
        <ele>741.2</ele>
        <time>2022-06-16T11:29:33Z</time>
      </trkpt>
      <trkpt lat="43.87725" lon="3.31271">
        <ele>740.8</ele>
        <time>2022-06-16T11:29:36Z</time>
      </trkpt>
      <trkpt lat="43.87727" lon="3.3127">
        <ele>740.6</ele>
        <time>2022-06-16T11:29:37Z</time>
      </trkpt>
      <trkpt lat="43.87745" lon="3.31266">
        <ele>740.4</ele>
        <time>2022-06-16T11:29:42Z</time>
      </trkpt>
      <trkpt lat="43.8777" lon="3.31257">
        <ele>740.2</ele>
        <time>2022-06-16T11:29:51Z</time>
      </trkpt>
      <trkpt lat="43.87777" lon="3.31254">
        <ele>740.2</ele>
        <time>2022-06-16T11:29:54Z</time>
      </trkpt>
      <trkpt lat="43.87778" lon="3.31252">
        <ele>740.2</ele>
        <time>2022-06-16T11:29:55Z</time>
      </trkpt>
      <trkpt lat="43.87772" lon="3.31252">
        <ele>740.4</ele>
        <time>2022-06-16T11:29:58Z</time>
      </trkpt>
      <trkpt lat="43.87753" lon="3.31258">
        <ele>740.6</ele>
        <time>2022-06-16T11:30:06Z</time>
      </trkpt>
      <trkpt lat="43.87731" lon="3.31265">
        <ele>740.6</ele>
        <time>2022-06-16T11:30:12Z</time>
      </trkpt>
      <trkpt lat="43.87704" lon="3.31272">
        <ele>740.6</ele>
        <time>2022-06-16T11:30:18Z</time>
      </trkpt>
      <trkpt lat="43.87656" lon="3.31286">
        <ele>740</ele>
        <time>2022-06-16T11:30:28Z</time>
      </trkpt>
      <trkpt lat="43.87646" lon="3.3129">
        <ele>739.8</ele>
        <time>2022-06-16T11:30:30Z</time>
      </trkpt>
      <trkpt lat="43.87614" lon="3.313">
        <ele>739.2</ele>
        <time>2022-06-16T11:30:36Z</time>
      </trkpt>
      <trkpt lat="43.87588" lon="3.3131">
        <ele>738.8</ele>
        <time>2022-06-16T11:30:41Z</time>
      </trkpt>
      <trkpt lat="43.87571" lon="3.31315">
        <ele>738.4</ele>
        <time>2022-06-16T11:30:44Z</time>
      </trkpt>
      <trkpt lat="43.87537" lon="3.31333">
        <ele>737.6</ele>
        <time>2022-06-16T11:30:50Z</time>
      </trkpt>
      <trkpt lat="43.87531" lon="3.31336">
        <ele>737.4</ele>
        <time>2022-06-16T11:30:51Z</time>
      </trkpt>
      <trkpt lat="43.875" lon="3.31355">
        <ele>736.4</ele>
        <time>2022-06-16T11:30:56Z</time>
      </trkpt>
      <trkpt lat="43.87474" lon="3.31367">
        <ele>735.4</ele>
        <time>2022-06-16T11:31:00Z</time>
      </trkpt>
      <trkpt lat="43.87444" lon="3.31378">
        <ele>734.2</ele>
        <time>2022-06-16T11:31:04Z</time>
      </trkpt>
      <trkpt lat="43.87428" lon="3.31381">
        <ele>733.8</ele>
        <time>2022-06-16T11:31:06Z</time>
      </trkpt>
      <trkpt lat="43.87405" lon="3.31383">
        <ele>732.8</ele>
        <time>2022-06-16T11:31:09Z</time>
      </trkpt>
      <trkpt lat="43.8739" lon="3.31383">
        <ele>732.2</ele>
        <time>2022-06-16T11:31:11Z</time>
      </trkpt>
      <trkpt lat="43.87352" lon="3.3137">
        <ele>731.6</ele>
        <time>2022-06-16T11:31:16Z</time>
      </trkpt>
      <trkpt lat="43.87307" lon="3.31349">
        <ele>730.6</ele>
        <time>2022-06-16T11:31:22Z</time>
      </trkpt>
      <trkpt lat="43.87299" lon="3.31346">
        <ele>730.4</ele>
        <time>2022-06-16T11:31:23Z</time>
      </trkpt>
      <trkpt lat="43.87269" lon="3.31333">
        <ele>729.4</ele>
        <time>2022-06-16T11:31:27Z</time>
      </trkpt>
      <trkpt lat="43.87238" lon="3.31319">
        <ele>728.6</ele>
        <time>2022-06-16T11:31:31Z</time>
      </trkpt>
      <trkpt lat="43.87223" lon="3.31314">
        <ele>728.2</ele>
        <time>2022-06-16T11:31:33Z</time>
      </trkpt>
      <trkpt lat="43.87199" lon="3.31308">
        <ele>727</ele>
        <time>2022-06-16T11:31:36Z</time>
      </trkpt>
      <trkpt lat="43.87184" lon="3.31308">
        <ele>726.6</ele>
        <time>2022-06-16T11:31:38Z</time>
      </trkpt>
      <trkpt lat="43.87155" lon="3.31315">
        <ele>726</ele>
        <time>2022-06-16T11:31:42Z</time>
      </trkpt>
      <trkpt lat="43.87148" lon="3.31319">
        <ele>725.8</ele>
        <time>2022-06-16T11:31:43Z</time>
      </trkpt>
      <trkpt lat="43.87128" lon="3.3133">
        <ele>725</ele>
        <time>2022-06-16T11:31:46Z</time>
      </trkpt>
      <trkpt lat="43.87109" lon="3.31344">
        <ele>724.6</ele>
        <time>2022-06-16T11:31:49Z</time>
      </trkpt>
      <trkpt lat="43.8706" lon="3.31381">
        <ele>723.8</ele>
        <time>2022-06-16T11:31:56Z</time>
      </trkpt>
      <trkpt lat="43.87029" lon="3.31401">
        <ele>722.6</ele>
        <time>2022-06-16T11:32:00Z</time>
      </trkpt>
      <trkpt lat="43.87005" lon="3.31416">
        <ele>721.2</ele>
        <time>2022-06-16T11:32:03Z</time>
      </trkpt>
      <trkpt lat="43.86974" lon="3.31436">
        <ele>720</ele>
        <time>2022-06-16T11:32:07Z</time>
      </trkpt>
      <trkpt lat="43.86953" lon="3.31451">
        <ele>718.8</ele>
        <time>2022-06-16T11:32:10Z</time>
      </trkpt>
      <trkpt lat="43.86945" lon="3.31455">
        <ele>718.6</ele>
        <time>2022-06-16T11:32:11Z</time>
      </trkpt>
      <trkpt lat="43.8691" lon="3.31477">
        <ele>717.6</ele>
        <time>2022-06-16T11:32:16Z</time>
      </trkpt>
      <trkpt lat="43.86897" lon="3.31485">
        <ele>717.4</ele>
        <time>2022-06-16T11:32:18Z</time>
      </trkpt>
      <trkpt lat="43.86872" lon="3.315">
        <ele>717</ele>
        <time>2022-06-16T11:32:22Z</time>
      </trkpt>
      <trkpt lat="43.8686" lon="3.31507">
        <ele>716.6</ele>
        <time>2022-06-16T11:32:24Z</time>
      </trkpt>
      <trkpt lat="43.86843" lon="3.31515">
        <ele>716.4</ele>
        <time>2022-06-16T11:32:27Z</time>
      </trkpt>
      <trkpt lat="43.86804" lon="3.31529">
        <ele>716.8</ele>
        <time>2022-06-16T11:32:35Z</time>
      </trkpt>
      <trkpt lat="43.86777" lon="3.31538">
        <ele>717.2</ele>
        <time>2022-06-16T11:32:42Z</time>
      </trkpt>
      <trkpt lat="43.86746" lon="3.3155">
        <ele>718</ele>
        <time>2022-06-16T11:32:51Z</time>
      </trkpt>
      <trkpt lat="43.86742" lon="3.31551">
        <ele>718</ele>
        <time>2022-06-16T11:32:52Z</time>
      </trkpt>
      <trkpt lat="43.86715" lon="3.3156">
        <ele>718.6</ele>
        <time>2022-06-16T11:33:00Z</time>
      </trkpt>
      <trkpt lat="43.86701" lon="3.31564">
        <ele>719</ele>
        <time>2022-06-16T11:33:04Z</time>
      </trkpt>
      <trkpt lat="43.86687" lon="3.31569">
        <ele>719.4</ele>
        <time>2022-06-16T11:33:08Z</time>
      </trkpt>
      <trkpt lat="43.86653" lon="3.3158">
        <ele>720</ele>
        <time>2022-06-16T11:33:18Z</time>
      </trkpt>
      <trkpt lat="43.86647" lon="3.31581">
        <ele>720</ele>
        <time>2022-06-16T11:33:20Z</time>
      </trkpt>
      <trkpt lat="43.86629" lon="3.31587">
        <ele>720.8</ele>
        <time>2022-06-16T11:33:26Z</time>
      </trkpt>
      <trkpt lat="43.86621" lon="3.3159">
        <ele>721.4</ele>
        <time>2022-06-16T11:33:29Z</time>
      </trkpt>
      <trkpt lat="43.86609" lon="3.31594">
        <ele>722</ele>
        <time>2022-06-16T11:33:34Z</time>
      </trkpt>
      <trkpt lat="43.86598" lon="3.31597">
        <ele>722.6</ele>
        <time>2022-06-16T11:33:38Z</time>
      </trkpt>
      <trkpt lat="43.86584" lon="3.31602">
        <ele>723.2</ele>
        <time>2022-06-16T11:33:43Z</time>
      </trkpt>
      <trkpt lat="43.86578" lon="3.31604">
        <ele>723.4</ele>
        <time>2022-06-16T11:33:45Z</time>
      </trkpt>
      <trkpt lat="43.86573" lon="3.31605">
        <ele>723.6</ele>
        <time>2022-06-16T11:33:47Z</time>
      </trkpt>
      <trkpt lat="43.86555" lon="3.31611">
        <ele>724.4</ele>
        <time>2022-06-16T11:33:54Z</time>
      </trkpt>
      <trkpt lat="43.86549" lon="3.3161">
        <ele>724.8</ele>
        <time>2022-06-16T11:33:56Z</time>
      </trkpt>
      <trkpt lat="43.86539" lon="3.31601">
        <ele>725</ele>
        <time>2022-06-16T11:34:00Z</time>
      </trkpt>
      <trkpt lat="43.86526" lon="3.31565">
        <ele>725</ele>
        <time>2022-06-16T11:34:08Z</time>
      </trkpt>
      <trkpt lat="43.86518" lon="3.31535">
        <ele>724.4</ele>
        <time>2022-06-16T11:34:14Z</time>
      </trkpt>
      <trkpt lat="43.86509" lon="3.31504">
        <ele>724</ele>
        <time>2022-06-16T11:34:21Z</time>
      </trkpt>
      <trkpt lat="43.86496" lon="3.31486">
        <ele>723.8</ele>
        <time>2022-06-16T11:34:27Z</time>
      </trkpt>
      <trkpt lat="43.86486" lon="3.31479">
        <ele>723.8</ele>
        <time>2022-06-16T11:34:30Z</time>
      </trkpt>
      <trkpt lat="43.86483" lon="3.3148">
        <ele>723.8</ele>
        <time>2022-06-16T11:34:31Z</time>
      </trkpt>
      <trkpt lat="43.8647" lon="3.31495">
        <ele>723.8</ele>
        <time>2022-06-16T11:34:36Z</time>
      </trkpt>
      <trkpt lat="43.86456" lon="3.3151">
        <ele>723.8</ele>
        <time>2022-06-16T11:34:42Z</time>
      </trkpt>
      <trkpt lat="43.86434" lon="3.31525">
        <ele>724.8</ele>
        <time>2022-06-16T11:34:50Z</time>
      </trkpt>
      <trkpt lat="43.86423" lon="3.31539">
        <ele>725.4</ele>
        <time>2022-06-16T11:34:55Z</time>
      </trkpt>
      <trkpt lat="43.86419" lon="3.31546">
        <ele>726</ele>
        <time>2022-06-16T11:34:57Z</time>
      </trkpt>
      <trkpt lat="43.864" lon="3.31568">
        <ele>727</ele>
        <time>2022-06-16T11:35:05Z</time>
      </trkpt>
      <trkpt lat="43.86395" lon="3.31573">
        <ele>727.2</ele>
        <time>2022-06-16T11:35:07Z</time>
      </trkpt>
      <trkpt lat="43.86382" lon="3.31591">
        <ele>728</ele>
        <time>2022-06-16T11:35:13Z</time>
      </trkpt>
      <trkpt lat="43.86382" lon="3.31594">
        <ele>728</ele>
        <time>2022-06-16T11:35:14Z</time>
      </trkpt>
      <trkpt lat="43.86385" lon="3.31618">
        <ele>728</ele>
        <time>2022-06-16T11:35:21Z</time>
      </trkpt>
      <trkpt lat="43.86385" lon="3.31618">
        <ele>728.2</ele>
        <time>2022-06-16T11:35:25Z</time>
      </trkpt>
      <trkpt lat="43.86385" lon="3.31618">
        <ele>728</ele>
        <time>2022-06-16T11:35:29Z</time>
      </trkpt>
    </trkseg>
  </trk>
</gpx>